11	weather.unisys.com										
(Timestamp)	(Location)	Temp (F C)	Dewpt (F C)	Rel Hum (%)	Winds	(Wind Speed) (knt)	Wind chill (F)	Pressure (mb in)	Visibility (mi)	Skies	Weather
Mon Feb 1 02:24:10 2010	Austin, TX (73301)	34 1 	30 -1 	85	N	3	31	1023.7 30.24 	7	cloudy	
Fri Jan 29 08:41:29 2010	Austin, TX (73301) 	57 13 	54 12 	90	NNW	8		1011.7 29.88 	7	cloudy	moderate rain 
Fri Jan 29 09:25:24 2010	Austin, TX (73301) 	55 12 	53 11 	93	NNE	5		1012.4 29.90 	5	cloudy	moderate rain 
Fri Jan 29 11:57:26 2010	Austin, TX (73301) 	48 8 	46 7 	93	NW	10	43	1014.6 29.97 	7	cloudy	light rain 
Fri Jan 29 12:42:08 2010	Austin, TX (73301) 	44 6 	42 5 	93	NW	5	41	1014.6 29.97 	4	cloudy	moderate rain 
Fri Jan 29 13:29:51 2010	Austin, TX (73301) 	43 6 	41 5 	93	WNW	11	36	1016.0 30.01 	7	cloudy	light thunderstorm 
Fri Jan 29 14:17:43 2010	Austin, TX (73301) 	41 5 	39 3 	93	NNW	9	35	1016.7 30.03 	2	cloudy	heavy rain 
Fri Jan 29 15:02:30 2010	Austin, TX (73301) 	40 4 	38 3 	92	NNW	10	33	1017.1 30.04 	10	cloudy	light rain 
Fri Jan 29 15:48:02 2010	Austin, TX (73301) 	40 4 	38 3 	92	NNW	10	33	1017.1 30.04 	10	cloudy	light rain 
Fri Jan 29 16:35:42 2010	Austin, TX (73301) 	39 3 	37 2 	92	NNW	8	33	1018.5 30.09 	4	cloudy	moderate rain 
Fri Jan 29 17:20:13 2010	Austin, TX (73301) 	40 4 	37 2 	89	WNW	10	33	1018.6 30.09 	10	cloudy	
Fri Jan 29 18:08:44 2010	Austin, TX (73301) 	41 5 	36 2 	82	NW	13	33	1018.6 30.09 	10	mostly cloudy	
Fri Jan 29 18:53:43 2010	Austin, TX (73301) 	41 5 	36 2 	82	NW	13	33	1018.6 30.09 	10	mostly cloudy	
Fri Jan 29 19:45:43 2010	Austin, TX (73301) 	43 6 	35 1 	73	NW	13	36	1018.0 30.07 	10	mostly cloudy	
Fri Jan 29 20:43:31 2010	Austin, TX (73301) 	41 5 	34 1 	76	NW	11	34	1017.7 30.06 	10	cloudy	
Fri Jan 29 21:28:09 2010	Austin, TX (73301) 	39 3 	31 0 	72	WNW	11	31	1017.8 30.06 	10	cloudy	
Fri Jan 29 22:14:45 2010	Austin, TX (73301) 	39 3 	30 -1 	70	NW	8	33	1017.3 30.05 	10	cloudy	
Fri Jan 29 22:59:40 2010	Austin, TX (73301) 	39 3 	30 -1 	70	NW	8	33	1017.3 30.05 	10	cloudy	
Fri Jan 29 23:43:58 2010	Austin, TX (73301) 	39 3 	29 -1 	67	NW	9	32	1018.0 30.07 	10	cloudy	
Mon Feb 1 00:10:57 2010	Austin, TX (73301) 	35 1 	30 -1 	81	calm		35	1023.9 30.24 	5	cloudy	haze 
Mon Feb 1 00:53:54 2010	Austin, TX (73301) 	35 1 	30 -1 	81	calm		35	1023.9 30.24 	5	cloudy	haze 
Mon Feb 1 01:40:12 2010	Austin, TX (73301) 	35 1 	30 -1 	81	N	3	32	1023.5 30.23 	6	cloudy	haze 
Mon Feb 1 03:07:51 2010	Austin, TX (73301) 	34 1 	30 -1 	85	calm		34	1023.9 30.24 	5	cloudy	haze 
Mon Feb 1 03:52:31 2010	Austin, TX (73301) 	34 1 	30 -1 	85	calm		34	1023.9 30.24 	5	cloudy	haze 
Mon Feb 1 04:37:18 2010	Austin, TX (73301) 	34 1 	30 -1 	85	calm		34	1024.2 30.25 	6	cloudy	haze 
Mon Feb 1 05:20:28 2010	Austin, TX (73301) 	34 1 	30 -1 	85	SE	3	31	1024.2 30.25 	9	cloudy	
Mon Feb 1 06:05:21 2010	Austin, TX (73301) 	34 1 	30 -1 	85	SSE	3	31	1024.0 30.25 	9	cloudy	
Mon Feb 1 06:48:30 2010	Austin, TX (73301) 	34 1 	30 -1 	85	SSE	3	31	1024.0 30.25 	9	cloudy	
Mon Feb 1 07:32:20 2010	Austin, TX (73301) 	34 1 	30 -1 	85	calm		34	1023.8 30.24 	9	cloudy	
Mon Feb 1 08:15:27 2010	Austin, TX (73301) 	34 1 	30 -1 	85	calm		34	1022.8 30.21 	8	cloudy	
Mon Feb 1 08:59:13 2010	Austin, TX (73301) 	34 1 	30 -1 	85	calm		34	1022.8 30.21 	8	cloudy	
Mon Feb 1 09:42:11 2010	Austin, TX (73301) 	34 1 	31 0 	88	S	4	30	1022.5 30.20 	9	cloudy	
Mon Feb 1 10:25:44 2010	Austin, TX (73301) 	35 1 	31 0 	84	calm		35	1022.1 30.19 	8	cloudy	
Mon Feb 1 11:08:41 2010	Austin, TX (73301) 	35 1 	31 0 	84	calm		35	1021.9 30.19 	9	cloudy	
Mon Feb 1 11:52:08 2010	Austin, TX (73301) 	35 1 	31 0 	84	calm		35	1021.9 30.19 	9	cloudy	
Mon Feb 1 12:35:28 2010	Austin, TX (73301) 	36 2 	31 0 	82	calm		36	1021.3 30.17 	9	cloudy	
Mon Feb 1 13:19:02 2010	Austin, TX (73301) 	36 2 	31 0 	82	calm		36	1021.1 30.16 	9	cloudy	
Mon Feb 1 14:02:55 2010	Austin, TX (73301) 	36 2 	32 0 	85	calm		36	1021.4 30.17 	6	cloudy	haze 
Mon Feb 1 14:48:01 2010	Austin, TX (73301) 	36 2 	32 0 	85	calm		36	1021.4 30.17 	6	cloudy	haze 
Mon Feb 1 15:31:44 2010	Austin, TX (73301) 	37 2 	34 1 	89	calm		37	1021.2 30.16 	5	cloudy	haze 
Mon Feb 1 16:16:12 2010	Austin, TX (73301) 	38 3 	34 1 	86	ESE	3	35	1021.6 30.18 	4	cloudy	haze 
Mon Feb 1 17:01:06 2010	Austin, TX (73301) 	38 3 	35 1 	90	calm		38	1021.8 30.18 	2	cloudy	haze 
Mon Feb 1 17:45:01 2010	Austin, TX (73301) 	38 3 	35 1 	90	calm		38	1021.8 30.18 	2	cloudy	haze 
Mon Feb 1 18:28:31 2010	Austin, TX (73301) 	39 3 	36 2 	89	calm		39	1021.8 30.18 	2	cloudy	haze 
Mon Feb 1 19:12:18 2010	Austin, TX (73301) 	39 3 	37 2 	92	ESE	3	37	1021.1 30.16 	2	cloudy	haze 
Mon Feb 1 19:57:08 2010	Austin, TX (73301) 	39 3 	37 2 	92	ESE	3	37	1021.1 30.16 	2	cloudy	haze 
Mon Feb 1 20:43:34 2010	Austin, TX (73301) 	41 5 	38 3 	89	calm		41	1020.1 30.13 	3	cloudy	haze 
Mon Feb 1 21:28:29 2010	Austin, TX (73301) 	43 6 	39 3 	86	calm		43	1018.9 30.10 	4	cloudy	haze 
Mon Feb 1 22:11:54 2010	Austin, TX (73301) 	45 7 	40 4 	82	calm		45	1018.1 30.07 	6	cloudy	haze 
Mon Feb 1 22:55:13 2010	Austin, TX (73301) 	45 7 	40 4 	82	calm		45	1018.1 30.07 	6	cloudy	haze 
Mon Feb 1 23:41:21 2010	Austin, TX (73301) 	45 7 	40 4 	82	calm		45	1018.0 30.07 	6	cloudy	haze 
Sat Jan 30 00:28:02 2010	Austin, TX (73301) 	39 3 	26 -3 	59	NW	12	31	1018.7 30.09 	10	partly cloudy	
Sat Jan 30 01:12:12 2010	Austin, TX (73301) 	38 3 	25 -3 	59	NNW	7	32	1019.2 30.11 	10	mostly cloudy	
Sat Jan 30 01:55:44 2010	Austin, TX (73301) 	38 3 	25 -3 	59	NNW	7	32	1019.2 30.11 	10	mostly cloudy	
Sat Jan 30 02:40:24 2010	Austin, TX (73301) 	36 2 	24 -4 	62	NNW	7	30	1020.1 30.13 	10	mostly clear	
Sat Jan 30 03:23:57 2010	Austin, TX (73301) 	36 2 	24 -4 	62	NNW	6	30	1020.5 30.14 	10	cloudy	
Sat Jan 30 04:07:51 2010	Austin, TX (73301) 	35 1 	24 -4 	64	NNW	9	27	1020.6 30.15 	10	partly cloudy	
Sat Jan 30 04:51:38 2010	Austin, TX (73301) 	35 1 	24 -4 	64	NNW	9	27	1020.6 30.15 	10	partly cloudy	
Sat Jan 30 05:35:19 2010	Austin, TX (73301) 	33 0 	25 -3 	72	N	4	29	1021.1 30.16 	10	clear	
Sat Jan 30 06:19:28 2010	Austin, TX (73301) 	33 0 	25 -3 	72	NNW	7	26	1021.3 30.17 	10	mostly cloudy	
Sat Jan 30 07:05:28 2010	Austin, TX (73301) 	32 0 	24 -4 	72	NNW	6	26	1021.1 30.16 	10	clear	
Sat Jan 30 07:48:10 2010	Austin, TX (73301) 	32 0 	24 -4 	72	NNW	6	26	1021.1 30.16 	10	clear	
Sat Jan 30 08:31:22 2010	Austin, TX (73301) 	31 0 	23 -5 	72	N	4	26	1021.1 30.16 	10	clear	
Sat Jan 30 11:13:08 2010	Austin, TX (73301) 	31 0 	23 -5 	72	NW	4	26	1021.5 30.17 	10	mostly cloudy	
Sat Jan 30 12:00:56 2010	Austin, TX (73301) 	31 0 	23 -5 	72	NNW	4	26	1022.1 30.19 	10	cloudy	
Sat Jan 30 12:44:35 2010	Austin, TX (73301) 	31 0 	23 -5 	72	NNW	4	26	1022.1 30.19 	10	cloudy	
Sat Jan 30 13:27:51 2010	Austin, TX (73301) 	32 0 	23 -5 	69	NW	7	25	1022.3 30.20 	10	cloudy	
Sat Jan 30 14:12:01 2010	Austin, TX (73301) 	32 0 	23 -5 	69	NNW	5	26	1023.0 30.22 	10	cloudy	
Sat Jan 30 14:56:04 2010	Austin, TX (73301) 	32 0 	23 -5 	69	NNW	5	26	1023.0 30.22 	10	cloudy	
Sat Jan 30 15:41:54 2010	Austin, TX (73301) 	30 -1 	22 -5 	71	N	4	25	1023.6 30.24 	10	clear	
Sat Jan 30 16:26:54 2010	Austin, TX (73301) 	32 0 	22 -5 	66	NNW	8	24	1024.3 30.26 	10	partly cloudy	
Sat Jan 30 17:11:19 2010	Austin, TX (73301) 	34 1 	23 -5 	64	NNW	8	27	1025.2 30.28 	10	partly cloudy	
Sat Jan 30 17:54:31 2010	Austin, TX (73301) 	34 1 	23 -5 	64	NNW	8	27	1025.2 30.28 	10	partly cloudy	
Sat Jan 30 18:38:32 2010	Austin, TX (73301) 	38 3 	24 -4 	57	N	6	33	1025.4 30.29 	10	clear	
Sat Jan 30 19:21:50 2010	Austin, TX (73301) 	38 3 	25 -3 	59	N	8	31	1025.0 30.28 	10	clear	
Sat Jan 30 20:06:05 2010	Austin, TX (73301) 	41 5 	26 -3 	55	NNW	9	35	1023.9 30.24 	10	clear	
Sat Jan 30 20:49:10 2010	Austin, TX (73301) 	41 5 	26 -3 	55	NNW	9	35	1023.9 30.24 	10	clear	
Sat Jan 30 21:32:57 2010	Austin, TX (73301) 	43 6 	27 -2 	53	NNW	12	36	1023.2 30.22 	10	clear	
Sat Jan 30 22:16:12 2010	Austin, TX (73301) 	45 7 	29 -1 	53	N	6	41	1022.6 30.21 	10	clear	
Sat Jan 30 23:01:48 2010	Austin, TX (73301) 	45 7 	29 -1 	53	NNW	7	41	1022.5 30.20 	10	clear	
Sat Jan 30 23:46:30 2010	Austin, TX (73301) 	45 7 	29 -1 	53	NNW	7	41	1022.5 30.20 	10	clear	
Sun Jan 31 00:30:26 2010	Austin, TX (73301) 	44 6 	30 -1 	57	N	6	40	1022.5 30.20 	10	clear	
Sun Jan 31 01:21:13 2010	Austin, TX (73301) 	42 5 	30 -1 	62	N	6	38	1023.0 30.22 	10	clear	
Sun Jan 31 02:05:12 2010	Austin, TX (73301) 	40 4 	29 -1 	64	NNE	4	37	1023.4 30.23 	10	clear	
Sun Jan 31 02:48:39 2010	Austin, TX (73301) 	40 4 	29 -1 	64	NNE	4	37	1023.4 30.23 	10	clear	
Sun Jan 31 03:32:31 2010	Austin, TX (73301) 	38 3 	29 -1 	70	N	5	33	1024.2 30.25 	10	clear	
Sun Jan 31 04:15:58 2010	Austin, TX (73301) 	35 1 	29 -1 	78	N	3	32	1025.0 30.28 	10	clear	
Sun Jan 31 05:00:32 2010	Austin, TX (73301) 	33 0 	27 -2 	78	N	4	29	1025.6 30.29 	10	clear	
Sun Jan 31 05:46:36 2010	Austin, TX (73301) 	33 0 	27 -2 	78	N	4	29	1025.6 30.29 	10	clear	
Sun Jan 31 06:31:48 2010	Austin, TX (73301) 	32 0 	27 -2 	82	NNE	3	29	1025.4 30.29 	10	clear	
Sun Jan 31 07:14:42 2010	Austin, TX (73301) 	32 0 	27 -2 	82	NNE	4	27	1025.6 30.29 	10	clear	
Sun Jan 31 08:01:25 2010	Austin, TX (73301) 	31 0 	27 -2 	85	N	4	26	1025.3 30.29 	10	mostly clear	
Sun Jan 31 08:46:06 2010	Austin, TX (73301) 	31 0 	27 -2 	85	N	4	26	1025.3 30.29 	10	mostly clear	
Sun Jan 31 09:29:21 2010	Austin, TX (73301) 	32 0 	28 -2 	85	N	4	27	1025.1 30.28 	8	cloudy	
Sun Jan 31 10:12:33 2010	Austin, TX (73301) 	31 0 	28 -2 	89	N	3	27	1025.2 30.28 	8	cloudy	
Sun Jan 31 10:56:18 2010	Austin, TX (73301) 	31 0 	28 -2 	89	N	3	27	1025.2 30.28 	8	cloudy	
Sun Jan 31 11:39:46 2010	Austin, TX (73301) 	31 0 	27 -2 	85	N	3	27	1025.5 30.29 	7	cloudy	
Sun Jan 31 12:23:26 2010	Austin, TX (73301) 	31 0 	27 -2 	85	calm		31	1025.6 30.29 	7	cloudy	
Sun Jan 31 13:06:49 2010	Austin, TX (73301) 	30 -1 	27 -2 	88	N	4	25	1026.0 30.31 	6	cloudy	haze 
Sun Jan 31 13:50:25 2010	Austin, TX (73301) 	30 -1 	27 -2 	88	N	4	25	1026.0 30.31 	6	cloudy	haze 
Sun Jan 31 14:33:15 2010	Austin, TX (73301) 	30 -1 	27 -2 	88	N	4	25	1026.7 30.33 	7	cloudy	
Sun Jan 31 15:17:21 2010	Austin, TX (73301) 	31 0 	28 -2 	89	NNE	5	25	1027.0 30.34 	6	cloudy	haze 
Sun Jan 31 16:00:50 2010	Austin, TX (73301) 	31 0 	27 -2 	85	N	6	24	1027.1 30.34 	6	cloudy	haze 
Sun Jan 31 16:50:37 2010	Austin, TX (73301) 	31 0 	27 -2 	85	N	6	24	1027.1 30.34 	6	cloudy	haze 
Sun Jan 31 17:34:18 2010	Austin, TX (73301) 	31 0 	28 -2 	89	NE	4	26	1027.2 30.34 	7	cloudy	
Sun Jan 31 18:19:17 2010	Austin, TX (73301) 	32 0 	28 -2 	85	N	3	29	1026.9 30.33 	7	cloudy	
Sun Jan 31 19:03:04 2010	Austin, TX (73301) 	32 0 	29 -1 	88	calm		32	1027.3 30.35 	8	cloudy	
Sun Jan 31 19:48:26 2010	Austin, TX (73301) 	32 0 	29 -1 	88	calm		32	1027.3 30.35 	8	cloudy	
Sun Jan 31 20:31:25 2010	Austin, TX (73301) 	33 0 	29 -1 	84	calm		33	1025.9 30.30 	7	cloudy	
Sun Jan 31 21:15:38 2010	Austin, TX (73301) 	34 1 	29 -1 	81	calm		34	1025.0 30.28 	7	cloudy	
Sun Jan 31 21:58:52 2010	Austin, TX (73301) 	34 1 	29 -1 	81	calm		34	1025.0 30.28 	7	cloudy	
Sun Jan 31 22:43:40 2010	Austin, TX (73301) 	34 1 	29 -1 	81	N	3	31	1024.3 30.26 	6	cloudy	haze 
Sun Jan 31 23:27:00 2010	Austin, TX (73301) 	35 1 	30 -1 	81	E	3	32	1023.8 30.24 	6	cloudy	haze 
Thu Feb 4 00:12:21 2010	Austin, TX (73301) 	47 8 	45 7 	93	E	9	42	1013.5 29.94 	3	cloudy	light rain 
Thu Feb 4 00:56:26 2010	Austin, TX (73301) 	47 8 	45 7 	93	E	9	42	1013.5 29.94 	3	cloudy	light rain 
Thu Feb 4 01:39:41 2010	Austin, TX (73301) 	47 8 	45 7 	93	N	6	44	1013.1 29.93 	5	cloudy	light rain 
Thu Feb 4 02:27:25 2010	Austin, TX (73301) 	47 8 	45 7 	93	ENE	9	42	1012.5 29.91 	6	cloudy	haze 
Thu Feb 4 03:10:35 2010	Austin, TX (73301) 	48 8 	46 7 	93	N	4	46	1013.9 29.95 	6	cloudy	haze 
Thu Feb 4 03:55:04 2010	Austin, TX (73301) 	48 8 	46 7 	93	N	4	46	1013.9 29.95 	6	cloudy	haze 
Thu Feb 4 04:38:20 2010	Austin, TX (73301) 	48 8 	46 7 	93	N	3	47	1014.6 29.97 	6	cloudy	haze 
Thu Feb 4 05:21:41 2010	Austin, TX (73301) 	47 8 	46 7 	97	N	3	46	1013.9 29.95 	4	cloudy	light rain 
Thu Feb 4 06:04:32 2010	Austin, TX (73301) 	47 8 	46 7 	97	N	4	45	1013.7 29.94 	3	cloudy	light rain 
Thu Feb 4 06:47:35 2010	Austin, TX (73301) 	47 8 	46 7 	97	N	4	45	1013.7 29.94 	3	cloudy	light rain 
Thu Feb 4 07:31:11 2010	Austin, TX (73301) 	47 8 	46 7 	97	N	3	46	1013.1 29.93 	4	cloudy	light rain 
Thu Feb 4 08:13:45 2010	Austin, TX (73301) 	47 8 	46 7 	97	N	3	46	1012.8 29.92 	3	cloudy	light rain 
Thu Feb 4 08:57:27 2010	Austin, TX (73301) 	47 8 	46 7 	97	N	3	46	1012.8 29.92 	3	cloudy	light rain 
Thu Feb 4 09:41:22 2010	Austin, TX (73301) 	47 8 	45 7 	93	calm		47	1012.8 29.92 	2	cloudy	light rain 
Thu Feb 4 10:25:02 2010	Austin, TX (73301) 	46 7 	45 7 	96	N	3	45	1012.3 29.90 	3	cloudy	light rain 
Thu Feb 4 11:10:57 2010	Austin, TX (73301) 	46 7 	45 7 	96	NE	4	44	1011.5 29.88 	2	cloudy	light rain 
Thu Feb 4 11:54:28 2010	Austin, TX (73301) 	46 7 	45 7 	96	NE	4	44	1011.5 29.88 	2	cloudy	light rain 
Thu Feb 4 12:37:34 2010	Austin, TX (73301) 	46 7 	45 7 	96	N	4	44	1011.5 29.88 	2	cloudy	haze 
Thu Feb 4 13:21:38 2010	Austin, TX (73301) 	46 7 	45 7 	96	NNE	4	44	1012.0 29.89 	3	cloudy	haze 
Thu Feb 4 14:06:29 2010	Austin, TX (73301) 	46 7 	45 7 	96	NNE	3	45	1012.3 29.90 	3	cloudy	light rain 
Thu Feb 4 14:59:15 2010	Austin, TX (73301) 	46 7 	45 7 	96	NNE	3	45	1012.3 29.90 	3	cloudy	light rain 
Thu Jan 28 15:38:54 2010	Austin, TX (73301) 	61 16 	58 14 	90	ESE	8		1017.5 30.06 	10	cloudy	
Thu Jan 28 15:59:39 2010	Austin, TX (73301) 	61 16 	58 14 	90	ESE	8		1017.5 30.06 	10	cloudy	
Thu Jan 28 16:49:02 2010	Austin, TX (73301) 	62 16 	59 15 	90	ESE	8		1017.3 30.05 	10	cloudy	
Thu Jan 28 17:13:17 2010	Austin, TX (73301) 	63 17 	59 15 	87	SE	8		1017.1 30.04 	10	cloudy	
Thu Jan 28 17:29:15 2010	Austin, TX (73301) 	63 17 	59 15 	87	SE	8		1017.1 30.04 	10	cloudy	
Tue Feb 2 00:28:13 2010	Austin, TX (73301) 	45 7 	42 5 	89	calm		45	1018.3 30.08 	2	cloudy	haze 
Tue Feb 2 01:13:49 2010	Austin, TX (73301) 	45 7 	42 5 	89	SE	3	44	1017.8 30.06 	4	cloudy	haze 
Tue Feb 2 01:56:58 2010	Austin, TX (73301) 	45 7 	42 5 	89	SE	3	44	1017.8 30.06 	4	cloudy	haze 
Tue Feb 2 02:41:01 2010	Austin, TX (73301) 	45 7 	41 5 	86	N	4	43	1018.0 30.07 	6	cloudy	haze 
Tue Feb 2 03:24:33 2010	Austin, TX (73301) 	45 7 	41 5 	86	calm		45	1018.6 30.09 	5	cloudy	haze 
Tue Feb 2 04:08:19 2010	Austin, TX (73301) 	45 7 	42 5 	89	calm		45	1018.5 30.09 	3	cloudy	haze 
Tue Feb 2 04:51:52 2010	Austin, TX (73301) 	45 7 	42 5 	89	calm		45	1018.5 30.09 	3	cloudy	haze 
Tue Feb 2 05:35:15 2010	Austin, TX (73301) 	44 6 	42 5 	93	SE	3	43	1018.4 30.08 	2	cloudy	haze 
Tue Feb 2 06:18:30 2010	Austin, TX (73301) 	45 7 	43 6 	93	calm		45	1018.7 30.09 	3	cloudy	haze 
Tue Feb 2 07:05:39 2010	Austin, TX (73301) 	45 7 	43 6 	93	calm		45	1019.0 30.10 	2	cloudy	haze 
Tue Feb 2 07:48:40 2010	Austin, TX (73301) 	45 7 	43 6 	93	calm		45	1019.0 30.10 	2	cloudy	haze 
Tue Feb 2 08:31:52 2010	Austin, TX (73301) 	45 7 	43 6 	93	calm		45	1019.1 30.10 	2	cloudy	haze 
Tue Feb 2 09:15:21 2010	Austin, TX (73301) 	45 7 	44 6 	97	calm		45	1019.3 30.11 	2	cloudy	haze 
Tue Feb 2 09:58:53 2010	Austin, TX (73301) 	45 7 	44 6 	97	calm		45	1019.3 30.11 	2	cloudy	haze 
Tue Feb 2 10:42:27 2010	Austin, TX (73301) 	45 7 	43 6 	93	N	3	44	1019.5 30.11 	2	cloudy	haze 
Tue Feb 2 11:26:33 2010	Austin, TX (73301) 	45 7 	43 6 	93	NNE	3	44	1019.5 30.11 	2	cloudy	haze 
Tue Feb 2 12:10:33 2010	Austin, TX (73301) 	45 7 	43 6 	93	NNE	3	44	1019.8 30.12 	2	cloudy	haze 
Tue Feb 2 12:54:29 2010	Austin, TX (73301) 	45 7 	43 6 	93	NNE	3	44	1019.8 30.12 	2	cloudy	haze 
Tue Feb 2 13:37:46 2010	Austin, TX (73301) 	45 7 	43 6 	93	calm		45	1020.2 30.14 	2	cloudy	haze 
Tue Feb 2 14:21:29 2010	Austin, TX (73301) 	45 7 	44 6 	97	calm		45	1020.5 30.14 	2	cloudy	haze 
Tue Feb 2 15:05:49 2010	Austin, TX (73301) 	46 7 	44 6 	93	calm		46	1021.3 30.17 	2	cloudy	haze 
Tue Feb 2 15:52:15 2010	Austin, TX (73301) 	46 7 	44 6 	93	calm		46	1021.3 30.17 	2	cloudy	haze 
Tue Feb 2 16:44:45 2010	Austin, TX (73301) 	47 8 	45 7 	93	NNE	4	45	1021.6 30.18 	2	cloudy	haze 
Tue Feb 2 17:33:11 2010	Austin, TX (73301) 	49 9 	45 7 	86	calm		49	1022.3 30.20 	3	cloudy	haze 
Tue Feb 2 18:17:48 2010	Austin, TX (73301) 	50 10 	46 7 	86	calm			1023.3 30.23 	5	cloudy	haze 
Tue Feb 2 19:01:59 2010	Austin, TX (73301) 	49 9 	46 7 	90	NE	5	47	1022.2 30.19 	3	cloudy	haze 
Tue Feb 2 19:51:14 2010	Austin, TX (73301) 	49 9 	46 7 	90	NE	5	47	1022.2 30.19 	3	cloudy	haze 
Tue Feb 2 20:42:32 2010	Austin, TX (73301) 	50 10 	46 7 	86	NNE	6	47	1021.1 30.16 	4	cloudy	haze 
Tue Feb 2 21:29:23 2010	Austin, TX (73301) 	51 10 	46 7 	83	NNE	7	48	1020.6 30.15 	4	cloudy	haze 
Tue Feb 2 22:17:46 2010	Austin, TX (73301) 	51 10 	45 7 	80	N	5	49	1019.7 30.12 	7	cloudy	
Tue Feb 2 23:02:03 2010	Austin, TX (73301) 	51 10 	45 7 	80	calm			1020.7 30.15 	6	cloudy	haze 
Tue Feb 2 23:47:03 2010	Austin, TX (73301) 	51 10 	45 7 	80	calm			1020.7 30.15 	6	cloudy	haze 
Wed Feb 3 00:31:47 2010	Austin, TX (73301) 	51 10 	45 7 	80	N	3		1021.0 30.16 	6	cloudy	haze 
Wed Feb 3 01:18:57 2010	Austin, TX (73301) 	51 10 	45 7 	80	calm			1021.7 30.18 	6	cloudy	haze 
Wed Feb 3 02:03:45 2010	Austin, TX (73301) 	50 10 	45 7 	83	calm			1021.5 30.17 	7	mostly cloudy	
Wed Feb 3 02:52:29 2010	Austin, TX (73301) 	50 10 	45 7 	83	calm			1021.5 30.17 	7	mostly cloudy	
Wed Feb 3 03:39:18 2010	Austin, TX (73301) 	51 10 	46 7 	83	calm			1021.5 30.17 	7	cloudy	
Wed Feb 3 04:27:27 2010	Austin, TX (73301) 	52 11 	46 7 	80	NNE	3		1021.5 30.17 	8	cloudy	
Wed Feb 3 05:14:13 2010	Austin, TX (73301) 	51 10 	45 7 	80	N	4		1021.2 30.16 	9	partly cloudy	
Wed Feb 3 06:02:04 2010	Austin, TX (73301) 	50 10 	43 6 	77	NE	4	48	1021.3 30.17 	10	cloudy	
Wed Feb 3 06:48:48 2010	Austin, TX (73301) 	50 10 	43 6 	77	NE	4	48	1021.3 30.17 	10	cloudy	
Wed Feb 3 07:33:26 2010	Austin, TX (73301) 	50 10 	43 6 	77	N	3	49	1021.2 30.16 	10	cloudy	
Wed Feb 3 08:16:36 2010	Austin, TX (73301) 	49 9 	44 6 	83	N	4	47	1020.3 30.14 	8	cloudy	
Wed Feb 3 09:03:03 2010	Austin, TX (73301) 	49 9 	43 6 	80	N	4	47	1018.9 30.10 	7	cloudy	
Wed Feb 3 09:46:23 2010	Austin, TX (73301) 	49 9 	43 6 	80	N	4	47	1018.9 30.10 	7	cloudy	
Wed Feb 3 10:30:14 2010	Austin, TX (73301) 	49 9 	43 6 	80	NE	4	47	1018.2 30.08 	8	cloudy	
Wed Feb 3 11:17:09 2010	Austin, TX (73301) 	48 8 	44 6 	86	N	3	47	1018.1 30.07 	5	cloudy	light rain 
Wed Feb 3 12:01:53 2010	Austin, TX (73301) 	47 8 	45 7 	93	ENE	3	46	1018.5 30.09 	3	cloudy	moderate rain 
Wed Feb 3 12:45:06 2010	Austin, TX (73301) 	47 8 	45 7 	93	ENE	3	46	1018.5 30.09 	3	cloudy	moderate rain 
Wed Feb 3 13:28:50 2010	Austin, TX (73301) 	46 7 	44 6 	93	N	4	44	1018.2 30.08 	3	cloudy	light rain 
Wed Feb 3 14:14:56 2010	Austin, TX (73301) 	46 7 	45 7 	96	N	6	42	1017.9 30.07 	2	cloudy	moderate rain 
Wed Feb 3 15:00:52 2010	Austin, TX (73301) 	47 8 	45 7 	93	ENE	5	44	1017.6 30.06 	3	cloudy	moderate rain 
Wed Feb 3 15:45:45 2010	Austin, TX (73301) 	47 8 	45 7 	93	ENE	5	44	1017.6 30.06 	3	cloudy	moderate rain 
Wed Feb 3 16:31:36 2010	Austin, TX (73301) 	47 8 	46 7 	97		7	43	1018.0 30.07 	3	cloudy	light rain 
Wed Feb 3 17:18:48 2010	Austin, TX (73301) 	47 8 	45 7 	93	N	5	44	1018.6 30.09 	3	cloudy	light rain 
Wed Feb 3 18:07:06 2010	Austin, TX (73301) 	47 8 	45 7 	93	E	7	43	1017.7 30.06 	5	cloudy	light rain 
Wed Feb 3 18:50:11 2010	Austin, TX (73301) 	47 8 	45 7 	93	E	7	43	1017.7 30.06 	5	cloudy	light rain 
Wed Feb 3 19:34:29 2010	Austin, TX (73301) 	47 8 	44 6 	90	N	6	44	1016.4 30.02 	2	cloudy	light rain 
Wed Feb 3 20:18:34 2010	Austin, TX (73301) 	47 8 	44 6 	90	N	6	44	1015.7 30.00 	5	cloudy	light rain 
Wed Feb 3 21:02:51 2010	Austin, TX (73301) 	47 8 	44 6 	90	N	4	45	1015.7 30.00 	5	cloudy	light rain 
Wed Feb 3 21:50:58 2010	Austin, TX (73301) 	47 8 	44 6 	90	N	4	45	1015.7 30.00 	5	cloudy	light rain 
Wed Feb 3 22:36:31 2010	Austin, TX (73301) 	47 8 	45 7 	93	N	4	45	1015.0 29.98 	5	cloudy	light rain 
Wed Feb 3 23:27:25 2010	Austin, TX (73301) 	47 8 	45 7 	93	N	6	44	1013.6 29.94 	6	cloudy	light rain 
Fri Jan 29 08:41:28 2010	Baltimore, MD (21201) 	23 -5 	-0 -17 	36	calm			1026.9 30.33 			
Fri Jan 29 09:25:23 2010	Baltimore, MD (21201) 	22 -5 	-2 -18 	34	calm			1027.8 30.36 			
Fri Jan 29 11:57:25 2010	Baltimore, MD (21201) 	21 -6 	-1 -18 	38	calm			1028.4 30.38 			
Fri Jan 29 12:42:07 2010	Baltimore, MD (21201) 	20 -6 	-1 -18 	39	calm			1028.6 30.38 			
Fri Jan 29 13:29:50 2010	Baltimore, MD (21201) 	20 -6 	-0 -17 	41	calm			1029.5 30.41 			
Fri Jan 29 14:17:42 2010	Baltimore, MD (21201) 	20 -6 	-1 -18 	39	calm			1029.6 30.41 			
Fri Jan 29 15:02:28 2010	Baltimore, MD (21201) 	21 -6 	-0 -17 	39	calm			1030.1 30.43 			
Fri Jan 29 15:48:01 2010	Baltimore, MD (21201) 	21 -6 	-0 -17 	39	calm			1030.1 30.43 			
Fri Jan 29 16:35:40 2010	Baltimore, MD (21201) 	21 -6 	-0 -17 	39	calm			1030.6 30.44 			
Fri Jan 29 17:20:11 2010	Baltimore, MD (21201) 	22 -5 	-0 -17 	38	calm			1029.5 30.41 			
Fri Jan 29 18:08:42 2010	Baltimore, MD (21201) 	24 -4 	-1 -18 	33	calm			1029.0 30.40 			
Fri Jan 29 18:53:42 2010	Baltimore, MD (21201) 	24 -4 	-1 -18 	33	calm			1029.0 30.40 			
Fri Jan 29 19:45:41 2010	Baltimore, MD (21201) 	24 -4 	-1 -18 	33	calm			1028.3 30.37 			
Fri Jan 29 20:43:30 2010	Baltimore, MD (21201) 	25 -3 	-0 -17 	33	calm			1027.6 30.35 			
Fri Jan 29 21:28:08 2010	Baltimore, MD (21201) 	25 -3 	-0 -17 	33	calm			1027.8 30.36 			
Fri Jan 29 22:14:44 2010	Baltimore, MD (21201) 	25 -3 	-1 -18 	32	calm			1027.3 30.35 			
Fri Jan 29 22:59:39 2010	Baltimore, MD (21201) 	25 -3 	-1 -18 	32	calm			1027.3 30.35 			
Fri Jan 29 23:43:57 2010	Baltimore, MD (21201) 	26 -3 	-1 -18 	30	calm			1027.4 30.35 			
Mon Feb 1 00:10:56 2010	Baltimore, MD (21201) 	30 -1 	15-May	34	calm			1021.4 30.17 			
Mon Feb 1 00:53:53 2010	Baltimore, MD (21201) 	30 -1 	15-May	34	calm			1021.4 30.17 			
Mon Feb 1 01:40:10 2010	Baltimore, MD (21201) 	29 -1 	12-Sep	43	calm			1021.5 30.17 			
Mon Feb 1 02:24:08 2010	Baltimore, MD (21201) 	27 -2 	12-Oct	48	calm			1021.9 30.19 			
Mon Feb 1 03:07:50 2010	Baltimore, MD (21201) 	27 -2 	12-Sep	46	calm			1022.2 30.19 			
Mon Feb 1 03:52:29 2010	Baltimore, MD (21201) 	27 -2 	12-Sep	46	calm			1022.2 30.19 			
Mon Feb 1 04:37:17 2010	Baltimore, MD (21201) 	26 -3 	12-Oct	50	calm			1022.6 30.21 			
Mon Feb 1 05:20:27 2010	Baltimore, MD (21201) 	26 -3 	13-Aug	46	calm			1022.7 30.21 			
Mon Feb 1 06:05:19 2010	Baltimore, MD (21201) 	27 -2 	12-Oct	48	calm			1022.9 30.22 			
Mon Feb 1 06:48:29 2010	Baltimore, MD (21201) 	27 -2 	12-Oct	48	calm			1022.9 30.22 			
Mon Feb 1 07:32:19 2010	Baltimore, MD (21201) 	26 -3 	12-Sep	48	calm			1023.1 30.22 			
Mon Feb 1 08:15:26 2010	Baltimore, MD (21201) 	26 -3 	12-Oct	50	calm			1023.7 30.24 			
Mon Feb 1 08:59:11 2010	Baltimore, MD (21201) 	26 -3 	12-Oct	50	calm			1023.7 30.24 			
Mon Feb 1 09:42:10 2010	Baltimore, MD (21201) 	25 -3 	12-Oct	52	calm			1024.5 30.26 			
Mon Feb 1 10:25:43 2010	Baltimore, MD (21201) 	25 -3 	12-Oct	52	calm			1025.0 30.28 			
Mon Feb 1 11:08:40 2010	Baltimore, MD (21201) 	26 -3 	12-Oct	50	calm			1025.5 30.29 			
Mon Feb 1 11:52:06 2010	Baltimore, MD (21201) 	26 -3 	12-Oct	50	calm			1025.5 30.29 			
Mon Feb 1 12:35:27 2010	Baltimore, MD (21201) 	25 -3 	11-Nov	54	calm			1026.5 30.32 			
Mon Feb 1 13:19:01 2010	Baltimore, MD (21201) 	26 -3 	12-Oct	50	calm			1027.3 30.35 			
Mon Feb 1 14:02:54 2010	Baltimore, MD (21201) 	27 -2 	12-Sep	46	calm			1027.9 30.36 			
Mon Feb 1 14:48:00 2010	Baltimore, MD (21201) 	27 -2 	12-Sep	46	calm			1027.9 30.36 			
Mon Feb 1 15:31:43 2010	Baltimore, MD (21201) 	30 -1 	11-Dec	47	calm			1028.2 30.37 			
Mon Feb 1 16:16:11 2010	Baltimore, MD (21201) 	31 0 	13 -10 	47	calm			1027.8 30.36 			
Mon Feb 1 17:01:03 2010	Baltimore, MD (21201) 	33 0 	13 -10 	43	calm			1027.8 30.36 			
Mon Feb 1 17:45:00 2010	Baltimore, MD (21201) 	33 0 	13 -10 	43	calm			1027.8 30.36 			
Mon Feb 1 18:28:30 2010	Baltimore, MD (21201) 	33 0 	13 -10 	43	calm			1027.1 30.34 			
Mon Feb 1 19:12:17 2010	Baltimore, MD (21201) 	36 2 	14 -10 	40	calm			1027.1 30.34 			
Mon Feb 1 19:57:07 2010	Baltimore, MD (21201) 	36 2 	14 -10 	40	calm			1027.1 30.34 			
Mon Feb 1 20:43:33 2010	Baltimore, MD (21201) 	36 2 	14 -10 	40	calm			1026.3 30.32 			
Mon Feb 1 21:28:27 2010	Baltimore, MD (21201) 	35 1 	11-Dec	38	calm			1025.7 30.30 			
Mon Feb 1 22:11:52 2010	Baltimore, MD (21201) 	35 1 	13 -10 	39	calm			1025.7 30.30 			
Mon Feb 1 22:55:11 2010	Baltimore, MD (21201) 	35 1 	13 -10 	39	calm			1025.7 30.30 			
Mon Feb 1 23:41:19 2010	Baltimore, MD (21201) 	35 1 	13 -10 	39	calm			1025.7 30.30 			
Sat Jan 30 00:28:00 2010	Baltimore, MD (21201) 	25 -3 	-2 -18 	30	calm			1027.6 30.35 			
Sat Jan 30 01:12:11 2010	Baltimore, MD (21201) 	25 -3 	-0 -17 	33	calm			1027.8 30.36 			
Sat Jan 30 01:55:43 2010	Baltimore, MD (21201) 	25 -3 	-0 -17 	33	calm			1027.8 30.36 			
Sat Jan 30 02:40:22 2010	Baltimore, MD (21201) 	24 -4 	-1 -18 	33	calm			1028.2 30.37 			
Sat Jan 30 03:23:56 2010	Baltimore, MD (21201) 	24 -4 	-1 -18 	33	calm			1028.2 30.37 			
Sat Jan 30 04:07:50 2010	Baltimore, MD (21201) 	23 -5 	-0 -17 	36	calm			1028.3 30.37 			
Sat Jan 30 04:51:37 2010	Baltimore, MD (21201) 	23 -5 	-0 -17 	36	calm			1028.3 30.37 			
Sat Jan 30 05:35:18 2010	Baltimore, MD (21201) 	23 -5 	17-Jan	38	calm			1028.4 30.38 			
Sat Jan 30 06:19:26 2010	Baltimore, MD (21201) 	23 -5 	17-Jan	38	calm			1028.4 30.38 			
Sat Jan 30 07:05:26 2010	Baltimore, MD (21201) 	22 -5 	-0 -17 	38	calm			1028.0 30.37 			
Sat Jan 30 07:48:09 2010	Baltimore, MD (21201) 	22 -5 	-0 -17 	38	calm			1028.0 30.37 			
Sat Jan 30 08:31:21 2010	Baltimore, MD (21201) 	22 -5 	17-Jan	39	calm			1027.7 30.36 			
Sat Jan 30 11:13:07 2010	Baltimore, MD (21201) 	21 -6 	16-Feb	43	calm			1025.7 30.30 			
Sat Jan 30 12:00:55 2010	Baltimore, MD (21201) 	21 -6 	16-Mar	45	calm			1025.5 30.29 			
Sat Jan 30 12:44:33 2010	Baltimore, MD (21201) 	21 -6 	16-Mar	45	calm			1025.5 30.29 			
Sat Jan 30 13:27:49 2010	Baltimore, MD (21201) 	21 -6 	16-Mar	45	calm			1025.3 30.29 			
Sat Jan 30 14:12:00 2010	Baltimore, MD (21201) 	21 -6 	17-Jan	41	calm			1024.4 30.26 			
Sat Jan 30 14:56:03 2010	Baltimore, MD (21201) 	21 -6 	17-Jan	41	calm			1024.4 30.26 			
Sat Jan 30 15:41:53 2010	Baltimore, MD (21201) 	21 -6 	16-Feb	43	calm			1024.1 30.25 			
Sat Jan 30 16:26:53 2010	Baltimore, MD (21201) 	21 -6 	16-Mar	45	calm			1024.1 30.25 			
Sat Jan 30 17:11:18 2010	Baltimore, MD (21201) 	19 -7 	12-Sep	64	calm			1024.1 30.25 			
Sat Jan 30 17:54:30 2010	Baltimore, MD (21201) 	19 -7 	12-Sep	64	calm			1024.1 30.25 			
Sat Jan 30 18:38:30 2010	Baltimore, MD (21201) 	18 -7 	13 -10 	80	calm			1023.9 30.24 			
Sat Jan 30 19:21:48 2010	Baltimore, MD (21201) 	18 -7 	11-Dec	77	calm			1022.8 30.21 			
Sat Jan 30 20:06:03 2010	Baltimore, MD (21201) 	18 -7 	11-Dec	77	calm			1021.1 30.16 			
Sat Jan 30 20:49:09 2010	Baltimore, MD (21201) 	18 -7 	11-Dec	77	calm			1021.1 30.16 			
Sat Jan 30 21:32:56 2010	Baltimore, MD (21201) 	18 -7 	13 -10 	80	calm			1020.5 30.14 			
Sat Jan 30 22:16:10 2010	Baltimore, MD (21201) 	17 -8 	11-Dec	80	calm			1019.0 30.10 			
Sat Jan 30 23:01:45 2010	Baltimore, MD (21201) 	18 -7 	11-Dec	77	calm			1018.7 30.09 			
Sat Jan 30 23:46:29 2010	Baltimore, MD (21201) 	18 -7 	11-Dec	77	calm			1018.7 30.09 			
Sun Jan 31 00:30:25 2010	Baltimore, MD (21201) 	18 -7 	13 -10 	80	calm			1018.2 30.08 			
Sun Jan 31 01:21:12 2010	Baltimore, MD (21201) 	19 -7 	13 -10 	77	calm			1017.8 30.06 			
Sun Jan 31 02:05:11 2010	Baltimore, MD (21201) 	19 -7 	11-Dec	74	calm			1017.5 30.06 			
Sun Jan 31 02:48:38 2010	Baltimore, MD (21201) 	19 -7 	11-Dec	74	calm			1017.5 30.06 			
Sun Jan 31 03:32:29 2010	Baltimore, MD (21201) 	19 -7 	11-Dec	74	calm			1017.1 30.04 			
Sun Jan 31 04:15:57 2010	Baltimore, MD (21201) 	20 -6 	12-Sep	62	calm			1016.8 30.03 			
Sun Jan 31 05:00:30 2010	Baltimore, MD (21201) 	21 -6 	13-Jul	54	calm			1016.6 30.03 			
Sun Jan 31 05:46:34 2010	Baltimore, MD (21201) 	21 -6 	13-Jul	54	calm			1016.6 30.03 			
Sun Jan 31 06:31:47 2010	Baltimore, MD (21201) 	21 -6 	15-May	49	calm			1017.0 30.04 			
Sun Jan 31 07:14:41 2010	Baltimore, MD (21201) 	21 -6 	15-Apr	47	calm			1016.8 30.03 			
Sun Jan 31 08:01:23 2010	Baltimore, MD (21201) 	21 -6 	15-Apr	47	calm			1017.2 30.05 			
Sun Jan 31 08:46:05 2010	Baltimore, MD (21201) 	21 -6 	15-Apr	47	calm			1017.2 30.05 			
Sun Jan 31 09:29:19 2010	Baltimore, MD (21201) 	20 -6 	15-Apr	49	calm			1017.8 30.06 			
Sun Jan 31 10:12:31 2010	Baltimore, MD (21201) 	19 -7 	16-Mar	49	calm			1018.4 30.08 			
Sun Jan 31 10:56:16 2010	Baltimore, MD (21201) 	19 -7 	16-Mar	49	calm			1018.4 30.08 			
Sun Jan 31 11:39:44 2010	Baltimore, MD (21201) 	18 -7 	16-Feb	49	calm			1019.5 30.11 			
Sun Jan 31 12:23:25 2010	Baltimore, MD (21201) 	18 -7 	16-Feb	49	calm			1020.2 30.14 			
Sun Jan 31 13:06:48 2010	Baltimore, MD (21201) 	17 -8 	17-Jan	48	calm			1021.1 30.16 			
Sun Jan 31 13:50:23 2010	Baltimore, MD (21201) 	17 -8 	17-Jan	48	calm			1021.1 30.16 			
Sun Jan 31 14:33:14 2010	Baltimore, MD (21201) 	17 -8 	16-Feb	51	calm			1022.0 30.19 			
Sun Jan 31 15:17:20 2010	Baltimore, MD (21201) 	19 -7 	-2 -18 	39	calm			1022.5 30.20 			
Sun Jan 31 16:00:48 2010	Baltimore, MD (21201) 	21 -6 	-4 -20 	32	calm			1022.8 30.21 			
Sun Jan 31 16:50:35 2010	Baltimore, MD (21201) 	21 -6 	-4 -20 	32	calm			1022.8 30.21 			
Sun Jan 31 17:34:16 2010	Baltimore, MD (21201) 	24 -4 	-3 -19 	30	calm			1023.2 30.22 			
Sun Jan 31 18:19:16 2010	Baltimore, MD (21201) 	27 -2 	-1 -18 	29	calm			1023.0 30.22 			
Sun Jan 31 19:03:02 2010	Baltimore, MD (21201) 	29 -1 	-0 -17 	28	calm			1022.0 30.19 			
Sun Jan 31 19:48:25 2010	Baltimore, MD (21201) 	29 -1 	-0 -17 	28	calm			1022.0 30.19 			
Sun Jan 31 20:31:24 2010	Baltimore, MD (21201) 	30 -1 	17-Jan	28	calm			1021.4 30.17 			
Sun Jan 31 21:15:36 2010	Baltimore, MD (21201) 	31 0 	15-Apr	31	calm			1021.4 30.17 			
Sun Jan 31 21:58:51 2010	Baltimore, MD (21201) 	31 0 	15-Apr	31	calm			1021.4 30.17 			
Sun Jan 31 22:43:39 2010	Baltimore, MD (21201) 	30 -1 	15-May	34	calm			1021.5 30.17 			
Sun Jan 31 23:26:59 2010	Baltimore, MD (21201) 	30 -1 	15-May	34	calm			1021.4 30.17 			
Thu Feb 4 00:12:19 2010	Baltimore, MD (21201) 	41 5 	26 -3 	55	calm			1020.8 30.15 			
Thu Feb 4 00:56:24 2010	Baltimore, MD (21201) 	41 5 	26 -3 	55	calm			1020.8 30.15 			
Thu Feb 4 01:39:38 2010	Baltimore, MD (21201) 	40 4 	25 -3 	55	calm			1021.5 30.17 			
Thu Feb 4 02:27:24 2010	Baltimore, MD (21201) 	39 3 	26 -3 	59	calm			1022.4 30.20 			
Thu Feb 4 03:10:32 2010	Baltimore, MD (21201) 	37 2 	27 -2 	67	calm			1022.9 30.22 			
Thu Feb 4 03:55:02 2010	Baltimore, MD (21201) 	37 2 	27 -2 	67	calm			1022.9 30.22 			
Thu Feb 4 04:38:19 2010	Baltimore, MD (21201) 	37 2 	27 -2 	67	calm			1023.6 30.24 			
Thu Feb 4 05:21:39 2010	Baltimore, MD (21201) 	36 2 	26 -3 	67	calm			1023.9 30.24 			
Thu Feb 4 06:04:30 2010	Baltimore, MD (21201) 	36 2 	24 -4 	62	calm			1024.4 30.26 			
Thu Feb 4 06:47:33 2010	Baltimore, MD (21201) 	36 2 	24 -4 	62	calm			1024.4 30.26 			
Thu Feb 4 07:31:10 2010	Baltimore, MD (21201) 	36 2 	22 -5 	56	calm			1024.7 30.27 			
Thu Feb 4 08:13:43 2010	Baltimore, MD (21201) 	35 1 	20 -6 	53	calm			1025.3 30.29 			
Thu Feb 4 08:57:26 2010	Baltimore, MD (21201) 	35 1 	20 -6 	53	calm			1025.3 30.29 			
Thu Feb 4 09:41:21 2010	Baltimore, MD (21201) 	34 1 	18 -7 	51	calm			1026.1 30.31 			
Thu Feb 4 10:25:00 2010	Baltimore, MD (21201) 	34 1 	17 -8 	50	calm			1026.4 30.32 			
Thu Feb 4 11:10:56 2010	Baltimore, MD (21201) 	33 0 	17 -8 	51	calm			1027.4 30.35 			
Thu Feb 4 11:54:27 2010	Baltimore, MD (21201) 	33 0 	17 -8 	51	calm			1027.4 30.35 			
Thu Feb 4 12:37:33 2010	Baltimore, MD (21201) 	32 0 	17 -8 	54	calm			1028.4 30.38 			
Thu Feb 4 13:21:37 2010	Baltimore, MD (21201) 	32 0 	17 -8 	54	calm			1028.8 30.39 			
Thu Feb 4 14:06:27 2010	Baltimore, MD (21201) 	32 0 	16 -8 	51	calm			1028.9 30.39 			
Thu Feb 4 14:59:13 2010	Baltimore, MD (21201) 	32 0 	16 -8 	51	calm			1028.9 30.39 			
Thu Jan 28 15:38:52 2010	Baltimore, MD (21201) 	37 2 	25 -3 	61	calm			1017.6 30.06 			
Thu Jan 28 15:59:37 2010	Baltimore, MD (21201) 	37 2 	25 -3 	61	calm			1017.6 30.06 			
Thu Jan 28 16:49:00 2010	Baltimore, MD (21201) 	39 3 	25 -3 	57	calm			1017.3 30.05 			
Thu Jan 28 17:13:15 2010	Baltimore, MD (21201) 	41 5 	25 -3 	53	calm			1016.5 30.03 			
Thu Jan 28 17:29:14 2010	Baltimore, MD (21201) 	41 5 	25 -3 	53	calm			1016.5 30.03 			
Tue Feb 2 00:28:11 2010	Baltimore, MD (21201) 	34 1 	13 -10 	41	calm			1025.6 30.29 			
Tue Feb 2 01:13:48 2010	Baltimore, MD (21201) 	34 1 	15 -9 	45	calm			1025.6 30.29 			
Tue Feb 2 01:56:57 2010	Baltimore, MD (21201) 	34 1 	15 -9 	45	calm			1025.6 30.29 			
Tue Feb 2 02:41:00 2010	Baltimore, MD (21201) 	33 0 	16 -8 	49	calm			1025.6 30.29 			
Tue Feb 2 03:24:31 2010	Baltimore, MD (21201) 	33 0 	17 -8 	51	calm			1025.9 30.30 			
Tue Feb 2 04:08:18 2010	Baltimore, MD (21201) 	32 0 	16 -8 	51	calm			1025.7 30.30 			
Tue Feb 2 04:51:51 2010	Baltimore, MD (21201) 	32 0 	16 -8 	51	calm			1025.7 30.30 			
Tue Feb 2 05:35:14 2010	Baltimore, MD (21201) 	30 -1 	18 -7 	60	calm			1025.6 30.29 			
Tue Feb 2 06:18:27 2010	Baltimore, MD (21201) 	31 0 	18 -7 	58	calm			1025.2 30.28 			
Tue Feb 2 07:05:38 2010	Baltimore, MD (21201) 	30 -1 	19 -7 	63	calm			1024.8 30.27 			
Tue Feb 2 07:48:39 2010	Baltimore, MD (21201) 	30 -1 	19 -7 	63	calm			1024.8 30.27 			
Tue Feb 2 08:31:51 2010	Baltimore, MD (21201) 	29 -1 	19 -7 	66	calm			1024.5 30.26 			
Tue Feb 2 09:15:20 2010	Baltimore, MD (21201) 	29 -1 	21 -6 	72	calm			1024.4 30.26 			
Tue Feb 2 09:58:52 2010	Baltimore, MD (21201) 	29 -1 	21 -6 	72	calm			1024.4 30.26 			
Tue Feb 2 10:42:25 2010	Baltimore, MD (21201) 	29 -1 	19 -7 	66	calm			1024.6 30.27 			
Tue Feb 2 11:26:32 2010	Baltimore, MD (21201) 	28 -2 	20 -6 	71	calm			1024.5 30.26 			
Tue Feb 2 12:10:31 2010	Baltimore, MD (21201) 	29 -1 	19 -7 	66	calm			1023.9 30.24 			
Tue Feb 2 12:54:27 2010	Baltimore, MD (21201) 	29 -1 	19 -7 	66	calm			1023.9 30.24 			
Tue Feb 2 13:37:45 2010	Baltimore, MD (21201) 	29 -1 	21 -6 	72	calm			1023.6 30.24 			
Tue Feb 2 14:21:27 2010	Baltimore, MD (21201) 	30 -1 	21 -6 	69	calm			1024.6 30.27 			
Tue Feb 2 15:05:48 2010	Baltimore, MD (21201) 	31 0 	21 -6 	66	calm			1024.4 30.26 			
Tue Feb 2 15:52:14 2010	Baltimore, MD (21201) 	31 0 	21 -6 	66	calm			1024.4 30.26 			
Tue Feb 2 16:44:44 2010	Baltimore, MD (21201) 	33 0 	23 -5 	66	calm			1023.5 30.23 			
Tue Feb 2 17:33:10 2010	Baltimore, MD (21201) 	35 1 	23 -5 	61	calm			1023.1 30.22 			
Tue Feb 2 18:17:47 2010	Baltimore, MD (21201) 	34 1 	23 -5 	64	calm			1022.7 30.21 			
Tue Feb 2 19:01:57 2010	Baltimore, MD (21201) 	37 2 	26 -3 	64	calm			1021.6 30.18 			
Tue Feb 2 19:51:12 2010	Baltimore, MD (21201) 	37 2 	26 -3 	64	calm			1021.6 30.18 			
Tue Feb 2 20:42:31 2010	Baltimore, MD (21201) 	36 2 	25 -3 	64	calm			1021.1 30.16 			
Tue Feb 2 21:29:22 2010	Baltimore, MD (21201) 	37 2 	24 -4 	59	calm			1020.4 30.14 			
Tue Feb 2 22:17:44 2010	Baltimore, MD (21201) 	37 2 	24 -4 	59	calm			1020.3 30.14 			
Tue Feb 2 23:02:01 2010	Baltimore, MD (21201) 	37 2 	23 -5 	57	calm			1020.2 30.14 			
Tue Feb 2 23:47:02 2010	Baltimore, MD (21201) 	37 2 	23 -5 	57	calm			1020.2 30.14 			
Wed Feb 3 00:31:46 2010	Baltimore, MD (21201) 	36 2 	21 -6 	54	calm			1020.1 30.13 			
Wed Feb 3 01:18:56 2010	Baltimore, MD (21201) 	34 1 	25 -3 	69	calm			1020.0 30.13 			
Wed Feb 3 02:03:44 2010	Baltimore, MD (21201) 	32 0 	28 -2 	85	calm			1019.7 30.12 			
Wed Feb 3 02:52:27 2010	Baltimore, MD (21201) 	32 0 	28 -2 	85	calm			1019.7 30.12 			
Wed Feb 3 03:39:17 2010	Baltimore, MD (21201) 	32 0 	29 -1 	88	calm			1019.3 30.11 			
Wed Feb 3 04:27:26 2010	Baltimore, MD (21201) 	32 0 	30 -1 	92	calm			1019.0 30.10 			
Wed Feb 3 05:14:11 2010	Baltimore, MD (21201) 	32 0 	29 -1 	88	calm			1018.3 30.08 			
Wed Feb 3 06:02:02 2010	Baltimore, MD (21201) 	32 0 	29 -1 	88	calm			1018.0 30.07 			
Wed Feb 3 06:48:46 2010	Baltimore, MD (21201) 	32 0 	29 -1 	88	calm			1018.0 30.07 			
Wed Feb 3 07:33:25 2010	Baltimore, MD (21201) 	32 0 	29 -1 	88	calm			1017.4 30.05 			
Wed Feb 3 08:16:35 2010	Baltimore, MD (21201) 	32 0 	29 -1 	88	calm			1017.3 30.05 			
Wed Feb 3 09:03:02 2010	Baltimore, MD (21201) 	32 0 	29 -1 	88	calm			1017.1 30.04 			
Wed Feb 3 09:46:21 2010	Baltimore, MD (21201) 	32 0 	29 -1 	88	calm			1017.1 30.04 			
Wed Feb 3 10:30:13 2010	Baltimore, MD (21201) 	32 0 	29 -1 	88	calm			1017.3 30.05 			
Wed Feb 3 11:17:07 2010	Baltimore, MD (21201) 	32 0 	29 -1 	88	calm			1017.4 30.05 			
Wed Feb 3 12:01:52 2010	Baltimore, MD (21201) 	32 0 	29 -1 	88	calm			1017.9 30.07 			
Wed Feb 3 12:45:04 2010	Baltimore, MD (21201) 	32 0 	29 -1 	88	calm			1017.9 30.07 			
Wed Feb 3 13:28:49 2010	Baltimore, MD (21201) 	31 0 	28 -2 	89	calm			1018.5 30.09 			
Wed Feb 3 14:14:55 2010	Baltimore, MD (21201) 	32 0 	28 -2 	85	calm			1019.1 30.10 			
Wed Feb 3 15:00:50 2010	Baltimore, MD (21201) 	34 1 	28 -2 	78	calm			1019.5 30.11 			
Wed Feb 3 15:45:44 2010	Baltimore, MD (21201) 	34 1 	28 -2 	78	calm			1019.5 30.11 			
Wed Feb 3 16:31:35 2010	Baltimore, MD (21201) 	36 2 	30 -1 	79	calm			1019.4 30.11 			
Wed Feb 3 17:18:47 2010	Baltimore, MD (21201) 	38 3 	30 -1 	73	calm			1019.3 30.11 			
Wed Feb 3 18:07:04 2010	Baltimore, MD (21201) 	40 4 	31 0 	70	calm			1019.2 30.11 			
Wed Feb 3 18:50:09 2010	Baltimore, MD (21201) 	40 4 	31 0 	70	calm			1019.2 30.11 			
Wed Feb 3 19:34:27 2010	Baltimore, MD (21201) 	42 5 	29 -1 	59	calm			1018.7 30.09 			
Wed Feb 3 20:18:33 2010	Baltimore, MD (21201) 	43 6 	27 -2 	53	calm			1018.1 30.07 			
Wed Feb 3 21:02:50 2010	Baltimore, MD (21201) 	42 5 	26 -3 	53	calm			1018.6 30.09 			
Wed Feb 3 21:50:57 2010	Baltimore, MD (21201) 	42 5 	26 -3 	53	calm			1018.6 30.09 			
Wed Feb 3 22:36:30 2010	Baltimore, MD (21201) 	42 5 	26 -3 	53	calm			1019.3 30.11 			
Wed Feb 3 23:27:24 2010	Baltimore, MD (21201) 	41 5 	26 -3 	55	calm			1020.0 30.13 			
Sat Jan 30 22:16:16 2010	Boston, MA (02101)	22 -5 	-1 -18 	36	N	6	13	1019.2 30.11 	10	cloudy	
Fri Jan 29 08:41:33 2010	Boston, MA (02101) 	18 -7 	-5 -20 	35	WNW	29	-2	1013.9 29.95 	10	clear	
Fri Jan 29 09:25:28 2010	Boston, MA (02101) 	16 -8 	-6 -21 	36	WNW	23	-3	1014.4 29.96 	10	clear	
Fri Jan 29 11:57:31 2010	Boston, MA (02101) 	14 -10 	-6 -21 	40	W	24	-6	1014.7 29.97 	10	clear	
Fri Jan 29 12:42:13 2010	Boston, MA (02101) 	14 -10 	-6 -21 	40	W	19	-4	1015.5 30.00 	10	clear	
Fri Jan 29 13:29:56 2010	Boston, MA (02101) 	13 -10 	-6 -21 	42	W	23	-7	1016.0 30.01 	10	clear	
Fri Jan 29 14:17:48 2010	Boston, MA (02101) 	13 -10 	-6 -21 	42	W	21	-7	1016.2 30.02 	10	clear	
Fri Jan 29 15:02:35 2010	Boston, MA (02101) 	14 -10 	-7 -21 	38	W	22	-5	1016.7 30.03 	10	clear	
Fri Jan 29 15:48:07 2010	Boston, MA (02101) 	14 -10 	-7 -21 	38	W	22	-5	1016.7 30.03 	10	clear	
Fri Jan 29 16:35:51 2010	Boston, MA (02101) 	15 -9 	-7 -21 	36	W	22	-4	1017.3 30.05 	10	clear	
Fri Jan 29 17:20:19 2010	Boston, MA (02101) 	17 -8 	-8 -22 	32	WNW	24	-2	1016.9 30.04 	10	clear	
Fri Jan 29 18:08:48 2010	Boston, MA (02101) 	19 -7 						1015.7 30.00 	10	clear	
Fri Jan 29 18:53:49 2010	Boston, MA (02101) 	19 -7 						1015.7 30.00 	10	clear	
Fri Jan 29 19:45:47 2010	Boston, MA (02101) 	19 -7 	-9 -22 	28	W	21	2	1015.0 29.98 	10	mostly clear	
Fri Jan 29 20:43:36 2010	Boston, MA (02101) 	20 -6 						1015.4 29.99 	10	mostly clear	
Fri Jan 29 21:28:14 2010	Boston, MA (02101) 	20 -6 	-11 -23 	24	WNW	23	2	1015.8 30.01 	10	mostly clear	
Fri Jan 29 22:14:50 2010	Boston, MA (02101) 	19 -7 						1016.4 30.02 	10	partly cloudy	
Fri Jan 29 22:59:45 2010	Boston, MA (02101) 	19 -7 						1016.4 30.02 	10	partly cloudy	
Fri Jan 29 23:44:02 2010	Boston, MA (02101) 	18 -7 	-12 -24 	25	WNW	22	0	1017.2 30.05 	10	mostly clear	
Mon Feb 1 00:11:01 2010	Boston, MA (02101) 	27 -2 	16-Mar	35	W	11	16	1015.8 30.01 	10	clear	
Mon Feb 1 00:53:58 2010	Boston, MA (02101) 	27 -2 	16-Mar	35	W	11	16	1015.8 30.01 	10	clear	
Mon Feb 1 01:40:18 2010	Boston, MA (02101) 	27 -2 	15-Apr	36	W	9	17	1016.4 30.02 	10	clear	
Mon Feb 1 02:24:14 2010	Boston, MA (02101) 	26 -3 	15-Apr	38	W	12	15	1016.5 30.03 	10	clear	
Mon Feb 1 03:07:55 2010	Boston, MA (02101) 	25 -3 	15-May	42	W	8	16	1016.5 30.03 	10	mostly clear	
Mon Feb 1 03:52:35 2010	Boston, MA (02101) 	25 -3 	15-May	42	W	8	16	1016.5 30.03 	10	mostly clear	
Mon Feb 1 04:37:23 2010	Boston, MA (02101) 	25 -3 	15-May	42	W	10	14	1016.8 30.03 	10	mostly cloudy	
Mon Feb 1 05:20:33 2010	Boston, MA (02101) 	25 -3 	15-May	42	W	10	14	1016.8 30.03 	10	cloudy	
Mon Feb 1 06:05:25 2010	Boston, MA (02101) 	25 -3 	15-Apr	40	W	13	13	1016.5 30.03 	10	cloudy	
Mon Feb 1 06:48:36 2010	Boston, MA (02101) 	25 -3 	15-Apr	40	W	13	13	1016.5 30.03 	10	cloudy	
Mon Feb 1 07:32:24 2010	Boston, MA (02101) 	25 -3 	14-Jun	44	W	11	14	1016.0 30.01 	10	cloudy	
Mon Feb 1 08:15:31 2010	Boston, MA (02101) 	25 -3 	14-Jun	44	W	12	13	1016.1 30.01 	10	cloudy	
Mon Feb 1 08:59:17 2010	Boston, MA (02101) 	25 -3 	14-Jun	44	W	12	13	1016.1 30.01 	10	cloudy	
Mon Feb 1 09:42:15 2010	Boston, MA (02101) 	25 -3 	14-Jun	44	W	13	13	1016.5 30.03 	10	mostly cloudy	
Mon Feb 1 10:25:48 2010	Boston, MA (02101) 	24 -4 	13-Jul	47	W	14	11	1016.8 30.03 	10	clear	
Mon Feb 1 11:08:45 2010	Boston, MA (02101) 	24 -4 	13-Jul	47	W	12	12	1017.2 30.05 	10	clear	
Mon Feb 1 11:52:12 2010	Boston, MA (02101) 	24 -4 	13-Jul	47	W	12	12	1017.2 30.05 	10	clear	
Mon Feb 1 12:35:33 2010	Boston, MA (02101) 	23 -5 	13-Aug	52	WSW	14	10	1017.9 30.07 	10	clear	
Mon Feb 1 13:19:06 2010	Boston, MA (02101) 	23 -5 	13-Aug	52	WSW	15	9	1018.8 30.09 	10	clear	
Mon Feb 1 14:02:59 2010	Boston, MA (02101) 	23 -5 	13-Aug	52	WSW	14	10	1019.5 30.11 	10	clear	
Mon Feb 1 14:48:05 2010	Boston, MA (02101) 	23 -5 	13-Aug	52	WSW	14	10	1019.5 30.11 	10	clear	
Mon Feb 1 15:31:49 2010	Boston, MA (02101) 	27 -2 	12-Sep	46	W	15	14	1019.8 30.12 	10	clear	
Mon Feb 1 16:16:17 2010	Boston, MA (02101) 	29 -1 	12-Sep	43	W	12	18	1020.6 30.15 	10	mostly clear	
Mon Feb 1 17:01:15 2010	Boston, MA (02101) 	31 0 	13-Jul	36	W	14	20	1020.5 30.14 	10	mostly clear	
Mon Feb 1 17:45:07 2010	Boston, MA (02101) 	29 -1 	12-Sep	43	W	12	18	1020.6 30.15 	10	mostly clear	
Mon Feb 1 18:28:36 2010	Boston, MA (02101) 	33 0 	14-Jun	31	WSW	12	23	1019.9 30.13 	10	mostly clear	
Mon Feb 1 19:12:22 2010	Boston, MA (02101) 	34 1 	13-Aug	33	WSW	11	25	1019.1 30.10 	10	mostly clear	
Mon Feb 1 19:57:13 2010	Boston, MA (02101) 	34 1 	13-Aug	33	WSW	11	25	1019.1 30.10 	10	mostly clear	
Mon Feb 1 20:43:38 2010	Boston, MA (02101) 	34 1 	16-Feb	25	WNW	17	23	1018.5 30.09 	10	mostly clear	
Mon Feb 1 21:28:34 2010	Boston, MA (02101) 	34 1 	15-May	29	W	14	24	1018.7 30.09 	10	mostly clear	
Mon Feb 1 22:11:58 2010	Boston, MA (02101) 	33 0 	15-Apr	28	W	18	21	1018.8 30.09 	10	mostly clear	
Mon Feb 1 22:55:17 2010	Boston, MA (02101) 	33 0 	15-Apr	28	W	18	21	1018.8 30.09 	10	mostly clear	
Mon Feb 1 23:41:25 2010	Boston, MA (02101) 	32 0 	16-Mar	29	W	12	22	1019.6 30.12 	10	partly cloudy	
Sat Jan 30 00:28:06 2010	Boston, MA (02101) 	17 -8 						1017.7 30.06 	10	mostly clear	
Sat Jan 30 01:12:16 2010	Boston, MA (02101) 	16 -8 	-11 -23 	29	WNW	22	-3	1018.0 30.07 	10	mostly clear	
Sat Jan 30 01:55:49 2010	Boston, MA (02101) 	16 -8 	-11 -23 	29	WNW	22	-3	1018.0 30.07 	10	mostly clear	
Sat Jan 30 02:40:29 2010	Boston, MA (02101) 	15 -9 	-12 -24 	28	WNW	19	-3	1018.0 30.07 	10	clear	
Sat Jan 30 03:24:02 2010	Boston, MA (02101) 	14 -10 	-12 -24 	30	WNW	20	-5	1018.5 30.09 	10	clear	
Sat Jan 30 04:07:56 2010	Boston, MA (02101) 	13 -10 	-12 -24 	31	WNW	19	-6	1018.8 30.09 	10	clear	
Sat Jan 30 04:51:42 2010	Boston, MA (02101) 	13 -10 	-12 -24 	31	WNW	19	-6	1018.8 30.09 	10	clear	
Sat Jan 30 05:35:24 2010	Boston, MA (02101) 	11-Dec	-12 -24 	33	W	16	-6	1019.5 30.11 	10	clear	
Sat Jan 30 06:19:32 2010	Boston, MA (02101) 	11-Nov	-11 -23 	36	WNW	15	-7	1019.4 30.11 	10	clear	
Sat Jan 30 07:05:32 2010	Boston, MA (02101) 	12-Sep	-12 -24 	37	WNW	17	-10	1019.6 30.12 	10	mostly clear	
Sat Jan 30 07:48:14 2010	Boston, MA (02101) 	12-Sep	-12 -24 	37	WNW	17	-10	1019.6 30.12 	10	mostly clear	
Sat Jan 30 08:31:27 2010	Boston, MA (02101) 	13-Aug	-11 -23 	40	WNW	13	-9	1020.5 30.14 	10	mostly clear	
Sat Jan 30 11:13:12 2010	Boston, MA (02101) 	14-Jun	-12 -24 	42	W	16	-13	1020.8 30.15 	10	clear	
Sat Jan 30 12:01:01 2010	Boston, MA (02101) 	14-Jun	-12 -24 	42	W	12	-11	1021.1 30.16 	10	partly cloudy	
Sat Jan 30 12:44:39 2010	Boston, MA (02101) 	14-Jun	-12 -24 	42	W	12	-11	1021.1 30.16 	10	partly cloudy	
Sat Jan 30 13:27:55 2010	Boston, MA (02101) 	14-Jun	-12 -24 	42	WNW	11	-10	1021.4 30.17 	10	partly cloudy	
Sat Jan 30 14:12:06 2010	Boston, MA (02101) 	13-Jul	-11 -23 	43	NW	13	-10	1021.8 30.18 	10	partly cloudy	
Sat Jan 30 14:56:08 2010	Boston, MA (02101) 	13-Jul	-11 -23 	43	NW	13	-10	1021.8 30.18 	10	partly cloudy	
Sat Jan 30 15:41:59 2010	Boston, MA (02101) 	12-Sep	-9 -22 	43	NW	13	-8	1021.8 30.18 	10	mostly cloudy	
Sat Jan 30 16:26:59 2010	Boston, MA (02101) 	11-Dec	-7 -21 	41	NW	13	-4	1022.4 30.20 	10	mostly cloudy	
Sat Jan 30 17:11:24 2010	Boston, MA (02101) 	14 -10 	-6 -21 	40	NW	11	0	1021.7 30.18 	10	partly cloudy	
Sat Jan 30 17:54:37 2010	Boston, MA (02101) 	14 -10 	-6 -21 	40	NW	11	0	1021.7 30.18 	10	partly cloudy	
Sat Jan 30 18:38:36 2010	Boston, MA (02101) 	17 -8 	-4 -20 	38	NNW	10	4	1020.4 30.14 	10	mostly cloudy	
Sat Jan 30 19:21:55 2010	Boston, MA (02101) 	20 -6 	-3 -19 	36	NW	8	9	1020.2 30.14 	10	cloudy	
Sat Jan 30 20:06:09 2010	Boston, MA (02101) 	21 -6 	-2 -18 	36	NW	5	13	1019.5 30.11 	10	cloudy	
Sat Jan 30 20:49:15 2010	Boston, MA (02101) 	21 -6 	-2 -18 	36	NW	5	13	1019.5 30.11 	10	cloudy	
Sat Jan 30 21:33:01 2010	Boston, MA (02101) 	22 -5 	-1 -18 	36	NNW	7	13	1018.6 30.09 	10	cloudy	
Sat Jan 30 23:01:56 2010	Boston, MA (02101) 	22 -5 	-1 -18 	36	NW	5	14	1019.5 30.11 	10	cloudy	
Sat Jan 30 23:46:35 2010	Boston, MA (02101) 	22 -5 	-1 -18 	36	NW	5	14	1019.5 30.11 	10	cloudy	
Sun Jan 31 00:30:32 2010	Boston, MA (02101) 	22 -5 	-0 -17 	38	NW	5	14	1020.1 30.13 	10	cloudy	
Sun Jan 31 01:21:17 2010	Boston, MA (02101) 	21 -6 	-0 -17 	39	N	7	11	1019.5 30.11 	10	mostly cloudy	
Sun Jan 31 02:05:17 2010	Boston, MA (02101) 	20 -6 	-1 -18 	39	NNW	7	10	1018.8 30.09 	10	mostly cloudy	
Sun Jan 31 02:48:44 2010	Boston, MA (02101) 	20 -6 	-1 -18 	39	NNW	7	10	1018.8 30.09 	10	mostly cloudy	
Sun Jan 31 03:32:36 2010	Boston, MA (02101) 	19 -7 	-1 -18 	41	NNW	7	9	1017.8 30.06 	10	mostly cloudy	
Sun Jan 31 04:16:02 2010	Boston, MA (02101) 	18 -7 	-1 -18 	43	NNW	8	7	1017.1 30.04 	10	mostly cloudy	
Sun Jan 31 05:00:38 2010	Boston, MA (02101) 	17 -8 	-2 -18 	42	NNW	11	4	1016.6 30.03 	10	cloudy	
Sun Jan 31 05:46:41 2010	Boston, MA (02101) 	17 -8 	-2 -18 	42	NNW	11	4	1016.6 30.03 	10	cloudy	
Sun Jan 31 06:31:53 2010	Boston, MA (02101) 	17 -8 	-1 -18 	44	NNW	7	7	1015.5 30.00 	10	cloudy	
Sun Jan 31 07:14:46 2010	Boston, MA (02101) 	16 -8 	-1 -18 	47	NNW	10	3	1015.0 29.98 	10	cloudy	
Sun Jan 31 08:01:30 2010	Boston, MA (02101) 	16 -8 	-1 -18 	47	NNW	10	3	1015.1 29.98 	10	cloudy	
Sun Jan 31 08:46:11 2010	Boston, MA (02101) 	16 -8 	-1 -18 	47	NNW	10	3	1015.1 29.98 	10	cloudy	
Sun Jan 31 09:29:25 2010	Boston, MA (02101) 	16 -8 	-2 -18 	44	NNW	11	2	1015.0 29.98 	10	cloudy	
Sun Jan 31 10:12:37 2010	Boston, MA (02101) 	15 -9 	-2 -18 	46	NW	11	1	1015.1 29.98 	10	cloudy	
Sun Jan 31 10:56:22 2010	Boston, MA (02101) 	15 -9 	-2 -18 	46	NW	11	1	1015.1 29.98 	10	cloudy	
Sun Jan 31 11:39:50 2010	Boston, MA (02101) 	14 -10 	-5 -20 	42	NNW	11	0	1015.7 30.00 	10	mostly cloudy	
Sun Jan 31 12:23:30 2010	Boston, MA (02101) 	14 -10 						1016.2 30.02 	10	mostly cloudy	
Sun Jan 31 13:06:53 2010	Boston, MA (02101) 	13 -10 	-8 -22 	38	NNW	10	-1	1016.7 30.03 	10	partly cloudy	
Sun Jan 31 13:50:31 2010	Boston, MA (02101) 	13 -10 	-8 -22 	38	NNW	10	-1	1016.7 30.03 	10	partly cloudy	
Sun Jan 31 14:33:20 2010	Boston, MA (02101) 	13 -10 	-8 -22 	38	NW	9	0	1016.8 30.03 	10	partly cloudy	
Sun Jan 31 15:17:26 2010	Boston, MA (02101) 	15 -9 	-8 -22 	34	NW	11	1	1017.0 30.04 	10	partly cloudy	
Sun Jan 31 16:00:56 2010	Boston, MA (02101) 	18 -7 	-4 -20 	37	NW	10	5	1016.9 30.04 	10	mostly cloudy	
Sun Jan 31 16:50:43 2010	Boston, MA (02101) 	18 -7 	-4 -20 	37	NW	10	5	1016.9 30.04 	10	mostly cloudy	
Sun Jan 31 17:34:22 2010	Boston, MA (02101) 	22 -5 	-2 -18 	34	WNW	8	12	1016.7 30.03 	10	partly cloudy	
Sun Jan 31 18:19:22 2010	Boston, MA (02101) 	25 -3 	-0 -17 	33	NW	11	14	1016.1 30.01 	10	partly cloudy	
Sun Jan 31 19:03:09 2010	Boston, MA (02101) 	26 -3 	16-Feb	35	NW	11	15	1015.1 29.98 	10	partly cloudy	
Sun Jan 31 19:48:30 2010	Boston, MA (02101) 	26 -3 	16-Feb	35	NW	11	15	1015.1 29.98 	10	partly cloudy	
Sun Jan 31 20:31:29 2010	Boston, MA (02101) 	27 -2 	16-Feb	33	WNW	8	18	1014.7 29.97 	10	partly cloudy	
Sun Jan 31 21:15:42 2010	Boston, MA (02101) 	28 -2 	17-Jan	31	NW	11	17	1014.7 29.97 	10	partly cloudy	
Sun Jan 31 21:58:56 2010	Boston, MA (02101) 	28 -2 	17-Jan	31	NW	11	17	1014.7 29.97 	10	partly cloudy	
Sun Jan 31 22:43:44 2010	Boston, MA (02101) 	29 -1 	16-Feb	31	NW	10	19	1015.2 29.99 	10	mostly clear	
Sun Jan 31 23:27:05 2010	Boston, MA (02101) 	28 -2 	16-Feb	32	WNW	9	19	1015.7 30.00 	10	mostly clear	
Thu Feb 4 00:12:25 2010	Boston, MA (02101) 	32 0 	19 -7 	58	NNW	6	26	1015.7 30.00 	10	cloudy	
Thu Feb 4 00:56:30 2010	Boston, MA (02101) 	32 0 	19 -7 	58	NNW	6	26	1015.7 30.00 	10	cloudy	
Thu Feb 4 01:39:45 2010	Boston, MA (02101) 	32 0 	18 -7 	56	NW	7	25	1016.0 30.01 	10	cloudy	
Thu Feb 4 02:27:29 2010	Boston, MA (02101) 	32 0 	18 -7 	56	NW	7	25	1016.0 30.01 	10	cloudy	
Thu Feb 4 03:10:40 2010	Boston, MA (02101) 	32 0 	19 -7 	58	NW	7	25	1016.3 30.02 	10	cloudy	
Thu Feb 4 03:55:08 2010	Boston, MA (02101) 	32 0 	19 -7 	58	NW	7	25	1016.3 30.02 	10	cloudy	
Thu Feb 4 04:38:25 2010	Boston, MA (02101) 	31 0 	17 -8 	56	WNW	9	22	1016.9 30.04 	10	mostly clear	
Thu Feb 4 05:21:45 2010	Boston, MA (02101) 	30 -1 	17 -8 	58	WNW	11	20	1016.9 30.04 	10	clear	
Thu Feb 4 06:04:36 2010	Boston, MA (02101) 	29 -1 	17 -8 	61	WNW	9	20	1017.0 30.04 	10	clear	
Thu Feb 4 06:47:41 2010	Boston, MA (02101) 	29 -1 	17 -8 	61	WNW	9	20	1017.0 30.04 	10	clear	
Thu Feb 4 07:31:16 2010	Boston, MA (02101) 	28 -2 	17 -8 	63	WNW	10	18	1017.4 30.05 	10	clear	
Thu Feb 4 08:13:49 2010	Boston, MA (02101) 	27 -2 	16 -8 	63	WNW	10	17	1017.9 30.07 	10	clear	
Thu Feb 4 08:57:31 2010	Boston, MA (02101) 	27 -2 	16 -8 	63	WNW	10	17	1017.9 30.07 	10	clear	
Thu Feb 4 09:41:26 2010	Boston, MA (02101) 	26 -3 	16 -8 	65	WNW	8	17	1018.2 30.08 	10	clear	
Thu Feb 4 10:25:06 2010	Boston, MA (02101) 	26 -3 	16 -8 	65	WNW	8	17	1018.8 30.09 	10	clear	
Thu Feb 4 11:11:01 2010	Boston, MA (02101) 	25 -3 	15 -9 	66	WNW	8	16	1019.3 30.11 	10	clear	
Thu Feb 4 11:54:32 2010	Boston, MA (02101) 	25 -3 	15 -9 	66	WNW	8	16	1019.3 30.11 	10	clear	
Thu Feb 4 12:37:38 2010	Boston, MA (02101) 	26 -3 	15 -9 	63	WNW	11	15	1019.9 30.13 	10	clear	
Thu Feb 4 13:21:43 2010	Boston, MA (02101) 	25 -3 	15 -9 	66	NW	9	15	1020.9 30.16 	10	clear	
Thu Feb 4 14:06:33 2010	Boston, MA (02101) 	26 -3 	11-Nov	52	NNW	11	15	1021.8 30.18 	10	clear	
Thu Feb 4 14:59:20 2010	Boston, MA (02101) 	26 -3 	11-Nov	52	NNW	11	15	1021.8 30.18 	10	clear	
Thu Jan 28 15:38:58 2010	Boston, MA (02101) 	32 0 	19 -7 	58	WSW	11	23	1017.0 30.04 	10	partly cloudy	
Thu Jan 28 15:59:47 2010	Boston, MA (02101) 	32 0 	19 -7 	58	WSW	11	23	1017.0 30.04 	10	partly cloudy	
Thu Jan 28 16:49:07 2010	Boston, MA (02101) 	33 0 	19 -7 	56	SW	8	26	1015.9 30.01 	10	partly cloudy	
Thu Jan 28 17:13:22 2010	Boston, MA (02101) 	35 1 	18 -7 	49	SW	12	26	1014.8 29.98 	10	mostly cloudy	
Thu Jan 28 17:29:20 2010	Boston, MA (02101) 	35 1 	18 -7 	49	SW	12	26	1014.8 29.98 	10	mostly cloudy	
Tue Feb 2 00:28:17 2010	Boston, MA (02101) 	31 0 	16-Feb	28	W	16	19	1020.4 30.14 	10	partly cloudy	
Tue Feb 2 01:13:53 2010	Boston, MA (02101) 	30 -1 	16-Mar	31	W	13	19	1021.0 30.16 	10	mostly clear	
Tue Feb 2 01:57:02 2010	Boston, MA (02101) 	30 -1 	16-Mar	31	W	13	19	1021.0 30.16 	10	mostly clear	
Tue Feb 2 02:41:05 2010	Boston, MA (02101) 	28 -2 	15-Apr	35	WNW	10	18	1021.6 30.18 	10	mostly clear	
Tue Feb 2 03:24:37 2010	Boston, MA (02101) 	27 -2 	14-Jun	40	WNW	13	15	1021.8 30.18 	10	partly cloudy	
Tue Feb 2 04:08:24 2010	Boston, MA (02101) 	26 -3 	13-Jul	44	WNW	8	17	1022.0 30.19 	10	mostly clear	
Tue Feb 2 04:51:56 2010	Boston, MA (02101) 	26 -3 	13-Jul	44	WNW	8	17	1022.0 30.19 	10	mostly clear	
Tue Feb 2 05:35:19 2010	Boston, MA (02101) 	27 -2 	13-Jul	42	W	12	16	1021.7 30.18 	10	partly cloudy	
Tue Feb 2 06:18:35 2010	Boston, MA (02101) 	27 -2 	13-Aug	44	W	13	15	1022.0 30.19 	10	cloudy	
Tue Feb 2 07:05:43 2010	Boston, MA (02101) 	27 -2 	13-Aug	44	WNW	11	16	1022.5 30.20 	10	cloudy	
Tue Feb 2 07:48:44 2010	Boston, MA (02101) 	27 -2 	13-Aug	44	WNW	11	16	1022.5 30.20 	10	cloudy	
Tue Feb 2 08:31:56 2010	Boston, MA (02101) 	26 -3 	12-Sep	48	W	10	16	1022.7 30.21 	10	mostly cloudy	
Tue Feb 2 09:15:25 2010	Boston, MA (02101) 	26 -3 	12-Sep	48	W	10	16	1023.1 30.22 	10	mostly clear	
Tue Feb 2 09:58:57 2010	Boston, MA (02101) 	26 -3 	12-Sep	48	W	10	16	1023.1 30.22 	10	mostly clear	
Tue Feb 2 10:42:31 2010	Boston, MA (02101) 	25 -3 	12-Sep	50	W	7	16	1023.5 30.23 	10	mostly clear	
Tue Feb 2 11:26:37 2010	Boston, MA (02101) 	25 -3 	12-Oct	52	W	8	16	1023.7 30.24 	10	clear	
Tue Feb 2 12:10:38 2010	Boston, MA (02101) 	24 -4 	12-Oct	54	WNW	8	14	1023.8 30.24 	10	mostly clear	
Tue Feb 2 12:54:33 2010	Boston, MA (02101) 	24 -4 	12-Oct	54	WNW	8	14	1023.8 30.24 	10	mostly clear	
Tue Feb 2 13:37:50 2010	Boston, MA (02101) 	24 -4 	12-Oct	54	WNW	6	16	1024.3 30.26 	10	partly cloudy	
Tue Feb 2 14:21:33 2010	Boston, MA (02101) 	25 -3 	11-Nov	54	WNW	6	17	1025.1 30.28 	10	partly cloudy	
Tue Feb 2 15:05:53 2010	Boston, MA (02101) 	26 -3 	11-Nov	52	NW	6	18	1025.3 30.29 	10	partly cloudy	
Tue Feb 2 15:52:19 2010	Boston, MA (02101) 	26 -3 	11-Nov	52	NW	6	18	1025.3 30.29 	10	partly cloudy	
Tue Feb 2 16:44:49 2010	Boston, MA (02101) 	28 -2 	13-Aug	42	NNW	11	17	1025.1 30.28 	10	partly cloudy	
Tue Feb 2 17:33:15 2010	Boston, MA (02101) 	29 -1 	13-Aug	41	N	5	23	1024.7 30.27 	10	mostly cloudy	
Tue Feb 2 18:17:52 2010	Boston, MA (02101) 	29 -1 	13-Aug	41	N	4	24	1023.8 30.24 	10	cloudy	
Tue Feb 2 19:02:03 2010	Boston, MA (02101) 	30 -1 	13-Aug	39	calm		30	1022.9 30.22 	10	cloudy	
Tue Feb 2 19:51:22 2010	Boston, MA (02101) 	30 -1 	13-Aug	39	calm		30	1022.9 30.22 	10	cloudy	
Tue Feb 2 20:42:36 2010	Boston, MA (02101) 	30 -1 	12-Oct	43	S	6	23	1022.5 30.20 	10	cloudy	
Tue Feb 2 21:29:28 2010	Boston, MA (02101) 	30 -1 	11-Nov	44	SE	6	23	1022.5 30.20 	10	mostly cloudy	
Tue Feb 2 22:17:50 2010	Boston, MA (02101) 	30 -1 	11-Nov	44	S	5	24	1022.6 30.21 	10	cloudy	
Tue Feb 2 23:02:08 2010	Boston, MA (02101) 	29 -1 	14 -10 	53	SE	9	20	1023.0 30.22 	10	cloudy	
Tue Feb 2 23:47:07 2010	Boston, MA (02101) 	29 -1 	14 -10 	53	SE	9	20	1023.0 30.22 	10	cloudy	
Wed Feb 3 00:31:52 2010	Boston, MA (02101) 	29 -1 	11-Nov	46	SSW	7	21	1022.9 30.22 	10	cloudy	
Wed Feb 3 01:19:02 2010	Boston, MA (02101) 	28 -2 	11-Nov	48	SSW	4	23	1022.4 30.20 	10	mostly cloudy	
Wed Feb 3 02:03:50 2010	Boston, MA (02101) 	26 -3 	11-Dec	55	S	5	19	1022.2 30.19 	10	mostly cloudy	
Wed Feb 3 02:52:33 2010	Boston, MA (02101) 	26 -3 	11-Dec	55	S	5	19	1022.2 30.19 	10	mostly cloudy	
Wed Feb 3 03:39:22 2010	Boston, MA (02101) 	27 -2 	13 -10 	55	S	6	20	1022.2 30.19 	10	mostly cloudy	
Wed Feb 3 04:27:32 2010	Boston, MA (02101) 	26 -3 	14 -10 	60	SSW	7	18	1021.6 30.18 	10	mostly cloudy	
Wed Feb 3 05:14:19 2010	Boston, MA (02101) 	26 -3 	14 -10 	60	S	4	21	1020.8 30.15 	10	cloudy	
Wed Feb 3 06:02:08 2010	Boston, MA (02101) 	27 -2 	16 -8 	63	S	3	23	1020.4 30.14 	10	cloudy	
Wed Feb 3 06:48:53 2010	Boston, MA (02101) 	27 -2 	16 -8 	63	S	3	23	1020.4 30.14 	10	cloudy	
Wed Feb 3 07:33:30 2010	Boston, MA (02101) 	27 -2 	17 -8 	66	S	3	23	1019.9 30.13 	10	cloudy	
Wed Feb 3 08:16:40 2010	Boston, MA (02101) 	27 -2 	17 -8 	66	NNE	3	23	1019.9 30.13 	7	cloudy	
Wed Feb 3 09:03:08 2010	Boston, MA (02101) 	26 -3 	19 -7 	74	calm		26	1019.6 30.12 	3	cloudy	light snow 
Wed Feb 3 09:46:27 2010	Boston, MA (02101) 	26 -3 	19 -7 	74	calm		26	1019.6 30.12 	3	cloudy	light snow 
Wed Feb 3 10:30:19 2010	Boston, MA (02101) 	25 -3 	20 -6 	81	calm		25	1019.0 30.10 	3	cloudy	light snow 
Wed Feb 3 11:17:13 2010	Boston, MA (02101) 	26 -3 	22 -5 	84	calm			1018.5 30.09 	5	cloudy	light snow 
Wed Feb 3 12:01:58 2010	Boston, MA (02101) 	26 -3 	22 -5 	84	calm		26	1018.3 30.08 	4	cloudy	light snow 
Wed Feb 3 12:45:10 2010	Boston, MA (02101) 	26 -3 	22 -5 	84	calm		26	1018.3 30.08 	4	cloudy	light snow 
Wed Feb 3 13:28:54 2010	Boston, MA (02101) 	26 -3 	22 -5 	84	calm		26	1018.1 30.07 	5	cloudy	light snow 
Wed Feb 3 14:15:00 2010	Boston, MA (02101) 	26 -3 	23 -5 	88	calm		26	1018.3 30.08 	2	cloudy	light snow 
Wed Feb 3 15:00:59 2010	Boston, MA (02101) 	27 -2 	25 -3 	92	SSW	3	23	1018.2 30.08 	3	cloudy	light snow 
Wed Feb 3 15:45:49 2010	Boston, MA (02101) 	27 -2 	25 -3 	92	SSW	3	23	1018.2 30.08 	3	cloudy	light snow 
Wed Feb 3 16:31:40 2010	Boston, MA (02101) 	28 -2 	23 -5 	81	NW	5	22	1017.8 30.06 	4	cloudy	light snow 
Wed Feb 3 17:18:53 2010	Boston, MA (02101) 	28 -2 	23 -5 	81	NNW	5	22	1017.4 30.05 	5	cloudy	light snow 
Wed Feb 3 18:07:11 2010	Boston, MA (02101) 	31 0 	24 -4 	76	NNE	4	26	1016.4 30.02 	8	cloudy	
Wed Feb 3 18:50:17 2010	Boston, MA (02101) 	31 0 	24 -4 	76	NNE	4	26	1016.4 30.02 	8	cloudy	
Wed Feb 3 19:34:33 2010	Boston, MA (02101) 	31 0 	23 -5 	72	NE	4	26	1015.2 29.99 	10	cloudy	
Wed Feb 3 20:18:39 2010	Boston, MA (02101) 	32 0 	23 -5 	69	NNW	6	26	1014.6 29.97 	10	cloudy	
Wed Feb 3 21:02:56 2010	Boston, MA (02101) 	32 0 	21 -6 	63	NW	7	25	1014.7 29.97 	10	cloudy	
Wed Feb 3 21:51:03 2010	Boston, MA (02101) 	32 0 	21 -6 	63	NW	7	25	1014.7 29.97 	10	cloudy	
Wed Feb 3 22:36:35 2010	Boston, MA (02101) 	32 0 	20 -6 	61	NW	9	24	1014.8 29.98 	10	cloudy	
Wed Feb 3 23:27:29 2010	Boston, MA (02101) 	32 0 	20 -6 	61	NNW	7	25	1014.9 29.98 	10	cloudy	
Mon Feb 1 00:10:53 2010	Charlotte, NC (28201)	35 1 	19 -7 	51	S	4	31	1024.5 30.26 	10	partly cloudy	
Mon Feb 1 03:07:47 2010	Charlotte, NC (28201)	32 0 	26 -3 	79	calm		32	1025.6 30.29 	10	mostly clear	
Fri Jan 29 08:41:25 2010	Charlotte, NC (28201) 	42 5 	25 -3 	50	N	4	39	1021.8 30.18 	10	cloudy	
Fri Jan 29 09:25:20 2010	Charlotte, NC (28201) 	41 5 	25 -3 	53	NE	4	38	1022.2 30.19 	10	clear	
Fri Jan 29 11:57:21 2010	Charlotte, NC (28201) 	41 5 	20 -6 	42	NE	7	36	1022.7 30.21 	10	mostly cloudy	
Fri Jan 29 12:42:04 2010	Charlotte, NC (28201) 	40 4 	18 -7 	41	NE	7	34	1023.0 30.22 	10	cloudy	
Fri Jan 29 13:29:47 2010	Charlotte, NC (28201) 	38 3 	16 -8 	40		6	33	1023.9 30.24 	10	partly cloudy	
Fri Jan 29 14:17:39 2010	Charlotte, NC (28201) 	38 3 	18 -7 	44	NNE	5	33	1025.0 30.28 	10	mostly cloudy	
Fri Jan 29 15:02:24 2010	Charlotte, NC (28201) 	39 3 	17 -8 	41		10	32	1025.3 30.29 	10	mostly cloudy	
Fri Jan 29 15:47:57 2010	Charlotte, NC (28201) 	39 3 	17 -8 	41		10	32	1025.3 30.29 	10	mostly cloudy	
Fri Jan 29 16:35:37 2010	Charlotte, NC (28201) 	40 4 	15 -9 	36	E	9	33	1025.4 30.29 	10	mostly cloudy	
Fri Jan 29 17:20:06 2010	Charlotte, NC (28201) 	41 5 	14 -10 	33	ENE	10	34	1025.6 30.29 	10	mostly cloudy	
Fri Jan 29 18:08:39 2010	Charlotte, NC (28201) 	44 6 	11-Dec	27	E	10	38	1025.4 30.29 	10	mostly cloudy	
Fri Jan 29 18:53:38 2010	Charlotte, NC (28201) 	44 6 	11-Dec	27	E	10	38	1025.4 30.29 	10	mostly cloudy	
Fri Jan 29 19:45:38 2010	Charlotte, NC (28201) 	43 6 	11-Dec	28	NE	5	39	1024.5 30.26 	10	mostly cloudy	
Fri Jan 29 20:43:26 2010	Charlotte, NC (28201) 	44 6 	14 -10 	29	ENE	7	40	1023.6 30.24 	10	cloudy	
Fri Jan 29 21:28:05 2010	Charlotte, NC (28201) 	43 6 	14 -10 	30	NE	8	38	1024.1 30.25 	10	cloudy	
Fri Jan 29 22:14:41 2010	Charlotte, NC (28201) 	37 2 	26 -3 	64	NE	8	30	1024.5 30.26 	4	cloudy	light snow 
Fri Jan 29 22:59:36 2010	Charlotte, NC (28201) 	37 2 	26 -3 	64	NE	8	30	1024.5 30.26 	4	cloudy	light snow 
Fri Jan 29 23:43:54 2010	Charlotte, NC (28201) 	34 1 	30 -1 	85	E	6	28	1025.2 30.28 	2	cloudy	light snow 
Mon Feb 1 00:53:50 2010	Charlotte, NC (28201) 	35 1 	19 -7 	51	S	4	31	1024.5 30.26 	10	partly cloudy	
Mon Feb 1 01:40:06 2010	Charlotte, NC (28201) 	33 0 	20 -6 	58	SSW	6	27	1025.2 30.28 	10	partly cloudy	
Mon Feb 1 02:24:04 2010	Charlotte, NC (28201) 	31 0 	25 -3 	78	SSW	4	26	1025.7 30.30 	10	mostly clear	
Mon Feb 1 03:52:26 2010	Charlotte, NC (28201) 	32 0 	26 -3 	79	calm		32	1025.6 30.29 	10	mostly clear	
Mon Feb 1 04:37:13 2010	Charlotte, NC (28201) 	29 -1 	25 -3 	85	calm		29	1025.9 30.30 	10	mostly clear	
Mon Feb 1 05:20:23 2010	Charlotte, NC (28201) 	29 -1 	26 -3 	89	calm		29	1026.2 30.31 	10	mostly clear	
Mon Feb 1 06:05:16 2010	Charlotte, NC (28201) 	29 -1 	26 -3 	89	calm		29	1026.2 30.31 	7	mostly clear	
Mon Feb 1 06:48:25 2010	Charlotte, NC (28201) 	29 -1 	26 -3 	89	calm		29	1026.2 30.31 	7	mostly clear	
Mon Feb 1 07:32:16 2010	Charlotte, NC (28201) 	27 -2 	25 -3 	92	calm		27	1026.4 30.32 	7	mostly clear	
Mon Feb 1 08:15:23 2010	Charlotte, NC (28201) 	27 -2 	25 -3 	92	calm		27	1026.6 30.32 	7	mostly clear	
Mon Feb 1 08:59:09 2010	Charlotte, NC (28201) 	27 -2 	25 -3 	92	calm		27	1026.6 30.32 	7	mostly clear	
Mon Feb 1 09:42:07 2010	Charlotte, NC (28201) 	26 -3 	25 -3 	96	calm		26	1027.1 30.34 	5	clear	haze
Mon Feb 1 10:25:40 2010	Charlotte, NC (28201) 	26 -3 	24 -4 	92	calm		26	1027.1 30.34 	5	clear	haze
Mon Feb 1 11:08:37 2010	Charlotte, NC (28201) 	26 -3 	23 -5 	88	calm		26	1026.5 30.32 	6	clear	haze
Mon Feb 1 11:52:03 2010	Charlotte, NC (28201) 	26 -3 	23 -5 	88	calm		26	1026.5 30.32 	6	clear	haze
Mon Feb 1 12:35:23 2010	Charlotte, NC (28201) 	24 -4 	22 -5 	91	calm		24	1026.8 30.33 	6	mostly clear	haze 
Mon Feb 1 13:18:58 2010	Charlotte, NC (28201) 	24 -4 	23 -5 	95	calm		24	1027.7 30.36 	5	partly cloudy	haze 
Mon Feb 1 14:02:50 2010	Charlotte, NC (28201) 	21 -6 	19 -7 	92	N	3	16	1028.5 30.38 	4	mostly cloudy	haze 
Mon Feb 1 14:47:57 2010	Charlotte, NC (28201) 	21 -6 	19 -7 	92	N	3	16	1028.5 30.38 	4	mostly cloudy	haze 
Mon Feb 1 15:31:40 2010	Charlotte, NC (28201) 	30 -1 	30 -1 	100	calm		30	1028.7 30.39 	4	mostly cloudy	haze 
Mon Feb 1 16:16:08 2010	Charlotte, NC (28201) 	32 0 	30 -1 	92	calm		32	1029.0 30.40 	7	mostly cloudy	
Mon Feb 1 17:00:57 2010	Charlotte, NC (28201) 	37 2 	31 0 	78	SW	3	34	1028.8 30.39 	8	mostly cloudy	
Mon Feb 1 17:44:57 2010	Charlotte, NC (28201) 	37 2 	31 0 	78	SW	3	34	1028.8 30.39 	8	mostly cloudy	
Mon Feb 1 18:28:27 2010	Charlotte, NC (28201) 	41 5 	30 -1 	65	N	3	39	1028.4 30.38 	10	mostly cloudy	
Mon Feb 1 19:12:14 2010	Charlotte, NC (28201) 	42 5 	26 -3 	53	SW	4	39	1027.5 30.35 	10	partly cloudy	
Mon Feb 1 19:57:04 2010	Charlotte, NC (28201) 	42 5 	26 -3 	53	SW	4	39	1027.5 30.35 	10	partly cloudy	
Mon Feb 1 20:43:30 2010	Charlotte, NC (28201) 	45 7 	24 -4 	43	calm		45	1026.6 30.32 	10	partly cloudy	
Mon Feb 1 21:28:24 2010	Charlotte, NC (28201) 	46 7 	23 -5 	40	SSE	3	45	1025.3 30.29 	10	mostly clear	
Mon Feb 1 22:11:50 2010	Charlotte, NC (28201) 	48 8 	21 -6 	34	calm		48	1024.7 30.27 	10	mostly clear	
Mon Feb 1 22:55:08 2010	Charlotte, NC (28201) 	48 8 	21 -6 	34	calm		48	1024.7 30.27 	10	mostly clear	
Mon Feb 1 23:41:16 2010	Charlotte, NC (28201) 	45 7 	24 -4 	43	S	5	42	1024.9 30.27 	10	mostly clear	
Sat Jan 30 00:27:57 2010	Charlotte, NC (28201) 	32 0 	30 -1 	92	N	5	26	1025.7 30.30 	1	cloudy	light snow 
Sat Jan 30 01:12:07 2010	Charlotte, NC (28201) 	33 0 	30 -1 	88		7	26	1024.3 30.26 	1	cloudy	light snow 
Sat Jan 30 01:55:40 2010	Charlotte, NC (28201) 	33 0 	30 -1 	88		7	26	1024.3 30.26 	1	cloudy	light snow 
Sat Jan 30 02:40:19 2010	Charlotte, NC (28201) 	32 0 	30 -1 	92	NE	6	26	1023.9 30.24 	1	cloudy	light snow 
Sat Jan 30 03:23:53 2010	Charlotte, NC (28201) 	32 0 	30 -1 	92	NE	6	26	1023.3 30.23 	2	cloudy	light snow 
Sat Jan 30 04:07:47 2010	Charlotte, NC (28201) 	32 0 	29 -1 	88	E	7	25	1023.1 30.22 	2	cloudy	light snow 
Sat Jan 30 04:51:33 2010	Charlotte, NC (28201) 	32 0 	29 -1 	88	E	7	25	1023.1 30.22 	2	cloudy	light snow 
Sat Jan 30 05:35:15 2010	Charlotte, NC (28201) 	32 0 	29 -1 	88		7	25	1022.0 30.19 	2	cloudy	
Sat Jan 30 06:19:21 2010	Charlotte, NC (28201) 	31 0 	29 -1 	92		7	23	1020.7 30.15 	2	cloudy	light snow 
Sat Jan 30 07:05:23 2010	Charlotte, NC (28201) 	31 0 	28 -2 	89		8	23	1019.6 30.12 	2	cloudy	light snow 
Sat Jan 30 07:48:06 2010	Charlotte, NC (28201) 	31 0 	28 -2 	89		8	23	1019.6 30.12 	2	cloudy	light snow 
Sat Jan 30 08:31:18 2010	Charlotte, NC (28201) 	30 -1 	28 -2 	92	NE	8	22	1018.8 30.09 	2	cloudy	light snow 
Sat Jan 30 11:13:04 2010	Charlotte, NC (28201) 	29 -1 	26 -3 	89	NE	17	16	1016.0 30.01 	2	cloudy	light freezing rain 
Sat Jan 30 12:00:51 2010	Charlotte, NC (28201) 	29 -1 	26 -3 	89	NNE	8	20	1016.5 30.03 	2	cloudy	light freezing rain 
Sat Jan 30 12:44:30 2010	Charlotte, NC (28201) 	29 -1 	26 -3 	89	NNE	8	20	1016.5 30.03 	2	cloudy	light freezing rain 
Sat Jan 30 13:27:46 2010	Charlotte, NC (28201) 	29 -1 	26 -3 	89	NE	8	20	1015.9 30.01 	1	cloudy	light freezing rain 
Sat Jan 30 14:11:57 2010	Charlotte, NC (28201) 	28 -2 	26 -3 	92	NNE	8	19	1016.6 30.03 	1	cloudy	light freezing rain 
Sat Jan 30 14:55:59 2010	Charlotte, NC (28201) 	28 -2 	26 -3 	92	NNE	8	19	1016.6 30.03 	1	cloudy	light freezing rain 
Sat Jan 30 15:41:50 2010	Charlotte, NC (28201) 	28 -2 	25 -3 	88	NNE	12	17	1016.3 30.02 	2	cloudy	ice pellets 
Sat Jan 30 16:26:50 2010	Charlotte, NC (28201) 	27 -2 	24 -4 	89	NNE	11	16	1016.0 30.01 	1	cloudy	ice pellets 
Sat Jan 30 17:11:15 2010	Charlotte, NC (28201) 	26 -3 	22 -5 	84	NNE	16	13	1015.3 29.99 	1	cloudy	ice pellets 
Sat Jan 30 17:54:27 2010	Charlotte, NC (28201) 	26 -3 	22 -5 	84	NNE	16	13	1015.3 29.99 	1	cloudy	ice pellets 
Sat Jan 30 18:38:27 2010	Charlotte, NC (28201) 	26 -3 	22 -5 	84	NNE	12	15	1014.9 29.98 	2	cloudy	ice pellets 
Sat Jan 30 19:21:45 2010	Charlotte, NC (28201) 	25 -3 	20 -6 	81	NNE	14	12	1013.8 29.95 	2	cloudy	haze 
Sat Jan 30 20:05:58 2010	Charlotte, NC (28201) 	24 -4 	19 -7 	81	NNE	13	12	1012.6 29.91 	8	cloudy	
Sat Jan 30 20:49:05 2010	Charlotte, NC (28201) 	24 -4 	19 -7 	81	NNE	13	12	1012.6 29.91 	8	cloudy	
Sat Jan 30 21:32:53 2010	Charlotte, NC (28201) 	24 -4 	19 -7 	81	NE	11	13	1012.0 29.89 	10	cloudy	
Sat Jan 30 22:16:07 2010	Charlotte, NC (28201) 	25 -3 	20 -6 	81	NNE	10	14	1011.9 29.89 	10	cloudy	
Sat Jan 30 23:01:39 2010	Charlotte, NC (28201) 	25 -3 	20 -6 	81	NE	9	15	1012.3 29.90 	10	cloudy	
Sat Jan 30 23:46:25 2010	Charlotte, NC (28201) 	25 -3 	20 -6 	81	NE	9	15	1012.3 29.90 	10	cloudy	
Sun Jan 31 00:30:20 2010	Charlotte, NC (28201) 	24 -4 	20 -6 	84	NE	10	13	1012.9 29.92 	10	cloudy	
Sun Jan 31 01:21:09 2010	Charlotte, NC (28201) 	24 -4 	20 -6 	84	NNE	9	14	1013.8 29.95 	9	cloudy	light snow 
Sun Jan 31 02:05:08 2010	Charlotte, NC (28201) 	24 -4 	20 -6 	84	NNE	7	15	1013.9 29.95 	8	cloudy	light snow 
Sun Jan 31 02:48:35 2010	Charlotte, NC (28201) 	24 -4 	20 -6 	84	NNE	7	15	1013.9 29.95 	8	cloudy	light snow 
Sun Jan 31 03:32:27 2010	Charlotte, NC (28201) 	24 -4 	17 -8 	74	NNE	10	13	1014.9 29.98 	10	cloudy	
Sun Jan 31 04:15:54 2010	Charlotte, NC (28201) 	23 -5 	17 -8 	78	N	11	11	1015.6 30.00 	10	cloudy	
Sun Jan 31 05:00:26 2010	Charlotte, NC (28201) 	24 -4 	16 -8 	71	NNE	8	14	1016.0 30.01 	10	cloudy	
Sun Jan 31 05:46:30 2010	Charlotte, NC (28201) 	24 -4 	16 -8 	71	NNE	8	14	1016.0 30.01 	10	cloudy	
Sun Jan 31 06:31:44 2010	Charlotte, NC (28201) 	23 -5 	16 -8 	74	NNE	7	14	1016.6 30.03 	10	partly cloudy	
Sun Jan 31 07:14:38 2010	Charlotte, NC (28201) 	22 -5 	16 -8 	78	NNE	4	16	1017.0 30.04 	10	mostly clear	
Sun Jan 31 08:01:20 2010	Charlotte, NC (28201) 	21 -6 	16 -8 	81	N	3	16	1017.7 30.06 	10	mostly clear	
Sun Jan 31 08:46:02 2010	Charlotte, NC (28201) 	21 -6 	16 -8 	81	N	3	16	1017.7 30.06 	10	mostly clear	
Sun Jan 31 09:29:17 2010	Charlotte, NC (28201) 	20 -6 	16 -8 	85	N	4	13	1018.2 30.08 	10	clear	
Sun Jan 31 10:12:28 2010	Charlotte, NC (28201) 	20 -6 	16 -8 	85	N	3	15	1019.1 30.10 	10	clear	
Sun Jan 31 10:56:13 2010	Charlotte, NC (28201) 	20 -6 	16 -8 	85	N	3	15	1019.1 30.10 	10	clear	
Sun Jan 31 11:39:41 2010	Charlotte, NC (28201) 	16 -8 	14 -10 	92	calm		16	1019.6 30.12 	10	clear	
Sun Jan 31 12:23:22 2010	Charlotte, NC (28201) 	16 -8 	14 -10 	92	calm		16	1020.4 30.14 	9	clear	
Sun Jan 31 13:06:45 2010	Charlotte, NC (28201) 	16 -8 	13 -10 	87	calm		16	1021.2 30.16 	8	clear	
Sun Jan 31 13:50:20 2010	Charlotte, NC (28201) 	16 -8 	13 -10 	87	calm		16	1021.2 30.16 	8	clear	
Sun Jan 31 14:33:11 2010	Charlotte, NC (28201) 	17 -8 	14 -10 	87	calm		17	1022.7 30.21 	9	clear	
Sun Jan 31 15:17:17 2010	Charlotte, NC (28201) 	22 -5 	20 -6 	92	SSW	3	17	1024.1 30.25 	8	clear	
Sun Jan 31 16:00:43 2010	Charlotte, NC (28201) 	27 -2 	22 -5 	81	calm		27	1025.1 30.28 	10	mostly clear	
Sun Jan 31 16:50:31 2010	Charlotte, NC (28201) 	27 -2 	22 -5 	81	calm		27	1025.1 30.28 	10	mostly clear	
Sun Jan 31 17:34:13 2010	Charlotte, NC (28201) 	31 0 	22 -5 	69	NW	3	27	1025.5 30.29 	10	mostly clear	
Sun Jan 31 18:19:13 2010	Charlotte, NC (28201) 	32 0 	19 -7 	58	calm		32	1025.3 30.29 	10	mostly clear	
Sun Jan 31 19:02:58 2010	Charlotte, NC (28201) 	36 2 	18 -7 	48		6	30	1024.1 30.25 	10	clear	
Sun Jan 31 19:48:22 2010	Charlotte, NC (28201) 	36 2 	18 -7 	48		6	30	1024.1 30.25 	10	clear	
Sun Jan 31 20:31:21 2010	Charlotte, NC (28201) 	36 2 	18 -7 	48	calm		36	1023.8 30.24 	10	partly cloudy	
Sun Jan 31 21:15:33 2010	Charlotte, NC (28201) 	38 3 	14 -10 	37	calm		38	1023.9 30.24 	10	partly cloudy	
Sun Jan 31 21:58:48 2010	Charlotte, NC (28201) 	38 3 	14 -10 	37	calm		38	1023.9 30.24 	10	partly cloudy	
Sun Jan 31 22:43:36 2010	Charlotte, NC (28201) 	40 4 	13 -10 	33	calm		40	1023.6 30.24 	10	mostly clear	
Sun Jan 31 23:26:56 2010	Charlotte, NC (28201) 	38 3 	20 -6 	48	S	3	35	1023.9 30.24 	10	mostly clear	
Thu Feb 4 00:12:16 2010	Charlotte, NC (28201) 	47 8 	32 0 	56	calm		47	1021.4 30.17 	10	mostly clear	
Thu Feb 4 00:56:20 2010	Charlotte, NC (28201) 	47 8 	32 0 	56	calm		47	1021.4 30.17 	10	mostly clear	
Thu Feb 4 01:39:36 2010	Charlotte, NC (28201) 	47 8 	32 0 	56	ENE	4	45	1022.3 30.20 	10	mostly clear	
Thu Feb 4 02:27:21 2010	Charlotte, NC (28201) 	44 6 	32 0 	62	calm		44	1022.8 30.21 	10	clear	
Thu Feb 4 03:10:29 2010	Charlotte, NC (28201) 	45 7 	31 0 	57	E	4	43	1023.8 30.24 	10	clear	
Thu Feb 4 03:54:58 2010	Charlotte, NC (28201) 	45 7 	31 0 	57	E	4	43	1023.8 30.24 	10	clear	
Thu Feb 4 04:38:15 2010	Charlotte, NC (28201) 	41 5 	32 0 	70	NNE	4	38	1025.3 30.29 	10	clear	
Thu Feb 4 05:21:35 2010	Charlotte, NC (28201) 	39 3 	29 -1 	67	NE	8	33	1025.4 30.29 	10	clear	
Thu Feb 4 06:04:27 2010	Charlotte, NC (28201) 	36 2 	27 -2 	69	NE	8	29	1025.7 30.30 	10	mostly clear	
Thu Feb 4 06:47:28 2010	Charlotte, NC (28201) 	36 2 	27 -2 	69	NE	8	29	1025.7 30.30 	10	mostly clear	
Thu Feb 4 07:31:07 2010	Charlotte, NC (28201) 	36 2 	26 -3 	67	NE	9	29	1025.5 30.29 	10	mostly clear	
Thu Feb 4 08:13:41 2010	Charlotte, NC (28201) 	35 1 	26 -3 	69	NE	6	29	1025.7 30.30 	10	mostly cloudy	
Thu Feb 4 08:57:23 2010	Charlotte, NC (28201) 	35 1 	26 -3 	69	NE	6	29	1025.7 30.30 	10	mostly cloudy	
Thu Feb 4 09:41:18 2010	Charlotte, NC (28201) 	35 1 	25 -3 	66	NNE	7	29	1026.0 30.31 	10	mostly cloudy	
Thu Feb 4 10:24:57 2010	Charlotte, NC (28201) 	34 1 	25 -3 	69	NE	4	30	1026.3 30.32 	10	cloudy	
Thu Feb 4 11:10:53 2010	Charlotte, NC (28201) 	33 0 	25 -3 	72	NNE	4	29	1026.5 30.32 	10	cloudy	
Thu Feb 4 11:54:23 2010	Charlotte, NC (28201) 	33 0 	25 -3 	72	NNE	4	29	1026.5 30.32 	10	cloudy	
Thu Feb 4 12:37:30 2010	Charlotte, NC (28201) 	34 1 	25 -3 	69	NE	4	30	1027.7 30.36 	10	cloudy	
Thu Feb 4 13:21:34 2010	Charlotte, NC (28201) 	34 1 	24 -4 	67	NE	7	27	1028.5 30.38 	10	cloudy	
Thu Feb 4 14:06:24 2010	Charlotte, NC (28201) 	35 1 	24 -4 	64	NE	8	28	1028.8 30.39 	10	cloudy	
Thu Feb 4 14:59:09 2010	Charlotte, NC (28201) 	35 1 	24 -4 	64	NE	8	28	1028.8 30.39 	10	cloudy	
Thu Jan 28 15:38:49 2010	Charlotte, NC (28201) 	37 2 	28 -2 	70	calm		37	1024.3 30.26 	10	mostly clear	
Thu Jan 28 15:59:33 2010	Charlotte, NC (28201) 	37 2 	28 -2 	70	calm		37	1024.3 30.26 	10	mostly clear	
Thu Jan 28 16:48:57 2010	Charlotte, NC (28201) 	40 4 	30 -1 	67	calm		40	1024.0 30.25 	10	mostly cloudy	
Thu Jan 28 17:13:11 2010	Charlotte, NC (28201) 	47 8 	29 -1 	49	calm		47	1023.6 30.24 	10	mostly cloudy	
Thu Jan 28 17:29:10 2010	Charlotte, NC (28201) 	47 8 	29 -1 	49	calm		47	1023.6 30.24 	10	mostly cloudy	
Tue Feb 2 00:28:08 2010	Charlotte, NC (28201) 	43 6 	25 -3 	49	SSE	3	41	1025.1 30.28 	10	mostly clear	
Tue Feb 2 01:13:45 2010	Charlotte, NC (28201) 	42 5 	23 -5 	46	SE	5	38	1025.2 30.28 	10	mostly clear	
Tue Feb 2 01:56:54 2010	Charlotte, NC (28201) 	42 5 	23 -5 	46	SE	5	38	1025.2 30.28 	10	mostly clear	
Tue Feb 2 02:40:56 2010	Charlotte, NC (28201) 	39 3 	23 -5 	52	SSE	3	37	1025.7 30.30 	10	mostly clear	
Tue Feb 2 03:24:28 2010	Charlotte, NC (28201) 	41 5 	23 -5 	48		4	38	1024.5 30.26 	10	mostly clear	
Tue Feb 2 04:08:14 2010	Charlotte, NC (28201) 	36 2 	25 -3 	64	ESE	3	33	1024.2 30.25 	10	mostly clear	
Tue Feb 2 04:51:47 2010	Charlotte, NC (28201) 	36 2 	25 -3 	64	ESE	3	33	1024.2 30.25 	10	mostly clear	
Tue Feb 2 05:35:11 2010	Charlotte, NC (28201) 	38 3 	24 -4 	57	SE	4	34	1023.5 30.23 	10	mostly cloudy	
Tue Feb 2 06:18:23 2010	Charlotte, NC (28201) 	37 2 	24 -4 	59	calm		37	1023.6 30.24 	10	cloudy	
Tue Feb 2 07:05:35 2010	Charlotte, NC (28201) 	36 2 	27 -2 	69	ENE	3	33	1023.1 30.22 	10	cloudy	
Tue Feb 2 07:48:36 2010	Charlotte, NC (28201) 	36 2 	27 -2 	69	ENE	3	33	1023.1 30.22 	10	cloudy	
Tue Feb 2 08:31:48 2010	Charlotte, NC (28201) 	36 2 	27 -2 	69	NNW	3	33	1023.4 30.23 	10	cloudy	
Tue Feb 2 09:15:17 2010	Charlotte, NC (28201) 	36 2 	27 -2 	69	N	4	32	1022.3 30.20 	10	cloudy	
Tue Feb 2 09:58:49 2010	Charlotte, NC (28201) 	36 2 	27 -2 	69	N	4	32	1022.3 30.20 	10	cloudy	
Tue Feb 2 10:42:22 2010	Charlotte, NC (28201) 	36 2 	28 -2 	72	N	5	31	1021.5 30.17 	10	cloudy	
Tue Feb 2 11:26:29 2010	Charlotte, NC (28201) 	38 3 	24 -4 	57	NE	6	33	1020.9 30.16 	10	mostly cloudy	
Tue Feb 2 12:10:27 2010	Charlotte, NC (28201) 	38 3 	24 -4 	57	ENE	6	33	1020.1 30.13 	10	cloudy	
Tue Feb 2 12:54:24 2010	Charlotte, NC (28201) 	38 3 	24 -4 	57	ENE	6	33	1020.1 30.13 	10	cloudy	
Tue Feb 2 13:37:42 2010	Charlotte, NC (28201) 	37 2 	26 -3 	64	NE	5	32	1019.6 30.12 	9	cloudy	light rain 
Tue Feb 2 14:21:25 2010	Charlotte, NC (28201) 	35 1 	30 -1 	81	N	4	31	1019.6 30.12 	4	cloudy	moderate rain 
Tue Feb 2 15:05:44 2010	Charlotte, NC (28201) 	34 1 	31 0 	88	N	8	27	1020.4 30.14 	3	cloudy	moderate rain 
Tue Feb 2 15:52:11 2010	Charlotte, NC (28201) 	34 1 	31 0 	88	N	8	27	1020.4 30.14 	3	cloudy	moderate rain 
Tue Feb 2 16:44:41 2010	Charlotte, NC (28201) 	34 1 	32 0 	92	N	9	26	1020.1 30.13 	2	cloudy	moderate rain 
Tue Feb 2 17:33:07 2010	Charlotte, NC (28201) 	35 1 	33 0 	92	N	10	27	1019.4 30.11 	2	cloudy	moderate rain 
Tue Feb 2 18:17:44 2010	Charlotte, NC (28201) 	35 1 	33 0 	92	NNE	9	27	1018.2 30.08 	2	cloudy	light rain 
Tue Feb 2 19:01:54 2010	Charlotte, NC (28201) 	36 2 	34 1 	92	N	9	29	1016.7 30.03 	4	cloudy	haze 
Tue Feb 2 19:51:08 2010	Charlotte, NC (28201) 	36 2 	34 1 	92	N	9	29	1016.7 30.03 	4	cloudy	haze 
Tue Feb 2 20:42:28 2010	Charlotte, NC (28201) 	36 2 	34 1 	92	NNE	8	29	1015.8 30.01 	2	cloudy	light rain 
Tue Feb 2 21:29:18 2010	Charlotte, NC (28201) 	36 2 	35 1 	96	N	8	29	1015.2 29.99 	2	cloudy	light drizzle 
Tue Feb 2 22:17:41 2010	Charlotte, NC (28201) 	37 2 	35 1 	93	N	9	30	1015.3 29.99 	2	cloudy	light drizzle 
Tue Feb 2 23:01:57 2010	Charlotte, NC (28201) 	37 2 	35 1 	93	N	7	31	1016.0 30.01 	2	cloudy	light rain 
Tue Feb 2 23:46:59 2010	Charlotte, NC (28201) 	37 2 	35 1 	93	N	7	31	1016.0 30.01 	2	cloudy	light rain 
Wed Feb 3 00:31:43 2010	Charlotte, NC (28201) 	37 2 	36 2 	96	NE	6	32	1015.5 30.00 	2	cloudy	light rain 
Wed Feb 3 01:18:53 2010	Charlotte, NC (28201) 	37 2 	36 2 	96	NE	5	32	1015.2 29.99 	2	cloudy	light rain 
Wed Feb 3 02:03:39 2010	Charlotte, NC (28201) 	37 2 	36 2 	96	N	4	33	1016.1 30.01 	2	cloudy	haze 
Wed Feb 3 02:52:22 2010	Charlotte, NC (28201) 	37 2 	36 2 	96	N	4	33	1016.1 30.01 	2	cloudy	haze 
Wed Feb 3 03:39:14 2010	Charlotte, NC (28201) 	37 2 	36 2 	96	N	3	34	1015.9 30.01 	2	cloudy	haze 
Wed Feb 3 04:27:23 2010	Charlotte, NC (28201) 	37 2 	36 2 	96	calm		37	1016.4 30.02 	2	cloudy	haze 
Wed Feb 3 05:14:07 2010	Charlotte, NC (28201) 	37 2 	36 2 	96	NW	3	34	1017.2 30.05 	2	cloudy	haze 
Wed Feb 3 06:01:59 2010	Charlotte, NC (28201) 	37 2 	36 2 	96	calm		37	1017.6 30.06 	2	cloudy	haze 
Wed Feb 3 06:48:43 2010	Charlotte, NC (28201) 	37 2 	36 2 	96	calm		37	1017.6 30.06 	2	cloudy	haze 
Wed Feb 3 07:33:22 2010	Charlotte, NC (28201) 	37 2 	36 2 	96	calm		37	1017.5 30.06 	2	cloudy	haze 
Wed Feb 3 08:16:32 2010	Charlotte, NC (28201) 	37 2 	36 2 	96	N	4	33	1017.1 30.04 	2	cloudy	haze 
Wed Feb 3 09:02:58 2010	Charlotte, NC (28201) 	37 2 	36 2 	96	N	4	33	1018.0 30.07 	1	cloudy	haze 
Wed Feb 3 09:46:19 2010	Charlotte, NC (28201) 	37 2 	36 2 	96	N	4	33	1018.0 30.07 	1	cloudy	haze 
Wed Feb 3 10:30:09 2010	Charlotte, NC (28201) 	36 2 	35 1 	96	NNW	4	32	1018.2 30.08 	1	cloudy	haze 
Wed Feb 3 11:17:05 2010	Charlotte, NC (28201) 	36 2 	35 1 	96	WNW	3	33	1019.3 30.11 	1	cloudy	haze 
Wed Feb 3 12:01:49 2010	Charlotte, NC (28201) 	35 1 	34 1 	96	NNW	3	32	1019.2 30.11 	0	obscured	fog 
Wed Feb 3 12:45:01 2010	Charlotte, NC (28201) 	35 1 	34 1 	96	NNW	3	32	1019.2 30.11 	0	obscured	fog 
Wed Feb 3 13:28:46 2010	Charlotte, NC (28201) 	34 1 	33 0 	96	calm		34	1019.9 30.13 	0	obscured	fog 
Wed Feb 3 14:14:52 2010	Charlotte, NC (28201) 	34 1 	34 1 	100	calm		34	1020.3 30.14 	0	obscured	fog 
Wed Feb 3 15:00:46 2010	Charlotte, NC (28201) 	34 1 	34 1 	100	calm		34	1020.5 30.14 	0	obscured	fog 
Wed Feb 3 15:45:41 2010	Charlotte, NC (28201) 	34 1 	34 1 	100	calm		34	1020.5 30.14 	0	obscured	fog 
Wed Feb 3 16:31:32 2010	Charlotte, NC (28201) 	35 1 	35 1 	100	calm		35	1021.9 30.19 	0	obscured	fog 
Wed Feb 3 17:18:43 2010	Charlotte, NC (28201) 	37 2 	36 2 	96	calm		37	1022.3 30.20 	1	cloudy	haze 
Wed Feb 3 18:07:00 2010	Charlotte, NC (28201) 	41 5 	38 3 	89	NW	3	39	1022.6 30.21 	7	partly cloudy	
Wed Feb 3 18:50:04 2010	Charlotte, NC (28201) 	41 5 	38 3 	89	NW	3	39	1022.6 30.21 	7	partly cloudy	
Wed Feb 3 19:34:24 2010	Charlotte, NC (28201) 	45 7 	37 2 	73	calm		45	1022.0 30.19 	10	mostly clear	
Wed Feb 3 20:18:29 2010	Charlotte, NC (28201) 	48 8 	36 2 	63	calm		48	1021.1 30.16 	10	mostly clear	
Wed Feb 3 21:02:46 2010	Charlotte, NC (28201) 	50 10 	34 1 	54	calm			1020.6 30.15 	10	clear	
Wed Feb 3 21:50:54 2010	Charlotte, NC (28201) 	50 10 	34 1 	54	calm			1020.6 30.15 	10	clear	
Wed Feb 3 22:36:25 2010	Charlotte, NC (28201) 	50 10 	32 0 	50	N	3	49	1020.0 30.13 	10	mostly clear	
Wed Feb 3 23:27:21 2010	Charlotte, NC (28201) 	51 10 	32 0 	48	N	3		1020.7 30.15 	10	clear	
Fri Jan 29 08:41:32 2010	Chicago, IL (60601) 	13-Jul	-5 -20 	57	NW	4	-2	1035.8 30.60 	10	mostly clear	
Fri Jan 29 09:25:27 2010	Chicago, IL (60601) 	13-Jul	-8 -22 	49	NNW	9	-8	1035.4 30.58 	10	partly cloudy	
Fri Jan 29 11:57:29 2010	Chicago, IL (60601) 	13-Jul	-7 -21 	52	NNW	6	-5	1035.1 30.58 	10	mostly cloudy	
Fri Jan 29 12:42:11 2010	Chicago, IL (60601) 	14-Jun	-7 -21 	54	NW	6	-6	1035.5 30.59 	10	mostly cloudy	
Fri Jan 29 13:29:55 2010	Chicago, IL (60601) 	14-Jun	-8 -22 	51	NW	7	-7	1035.6 30.59 	10	cloudy	
Fri Jan 29 14:17:47 2010	Chicago, IL (60601) 	15-May	-6 -21 	60	NW	4	-4	1035.8 30.60 	10	mostly cloudy	
Fri Jan 29 15:02:33 2010	Chicago, IL (60601) 	14-Jun	-6 -21 	57	WNW	4	-3	1036.0 30.60 	10	mostly cloudy	
Fri Jan 29 15:48:06 2010	Chicago, IL (60601) 	14-Jun	-6 -21 	57	WNW	4	-3	1036.0 30.60 	10	mostly cloudy	
Fri Jan 29 16:35:50 2010	Chicago, IL (60601) 	12-Sep	-4 -20 	55	N	4	1	1035.4 30.58 	10	mostly cloudy	
Fri Jan 29 17:20:17 2010	Chicago, IL (60601) 	11-Nov	-2 -18 	55	calm		11	1036.0 30.60 	10	mostly cloudy	
Fri Jan 29 18:08:47 2010	Chicago, IL (60601) 	14 -10 	-1 -18 	51	calm		14	1036.0 30.60 	10	mostly cloudy	
Fri Jan 29 18:53:47 2010	Chicago, IL (60601) 	14 -10 	-1 -18 	51	calm		14	1036.0 30.60 	10	mostly cloudy	
Fri Jan 29 19:45:46 2010	Chicago, IL (60601) 	18 -7 	17-Jan	47	calm		18	1034.5 30.56 	10	mostly cloudy	
Fri Jan 29 20:43:34 2010	Chicago, IL (60601) 	20 -6 	15-Apr	49	calm		20	1033.3 30.52 	10	mostly cloudy	
Fri Jan 29 21:28:13 2010	Chicago, IL (60601) 	20 -6 	13-Jul	57	E	8	9	1031.9 30.48 	10	mostly cloudy	
Fri Jan 29 22:14:48 2010	Chicago, IL (60601) 	19 -7 	13-Jul	59	E	7	9	1031.9 30.48 	10	mostly cloudy	
Fri Jan 29 22:59:44 2010	Chicago, IL (60601) 	19 -7 	13-Jul	59	E	7	9	1031.9 30.48 	10	mostly cloudy	
Fri Jan 29 23:44:01 2010	Chicago, IL (60601) 	19 -7 	13-Aug	62		6	10	1031.4 30.47 	10	mostly cloudy	
Mon Feb 1 00:11:00 2010	Chicago, IL (60601) 	27 -2 	11-Dec	53	WNW	9	17	1025.3 30.29 	10	mostly cloudy	
Mon Feb 1 00:53:57 2010	Chicago, IL (60601) 	27 -2 	11-Dec	53	WNW	9	17	1025.3 30.29 	10	mostly cloudy	
Mon Feb 1 01:40:17 2010	Chicago, IL (60601) 	25 -3 	13 -10 	60	W	7	16	1025.9 30.30 	10	mostly clear	
Mon Feb 1 02:24:13 2010	Chicago, IL (60601) 	24 -4 	14 -10 	65	WNW	6	16	1026.7 30.33 	10	clear	
Mon Feb 1 03:07:54 2010	Chicago, IL (60601) 	23 -5 	11-Nov	59	WNW	6	15	1027.0 30.34 	10	mostly clear	
Mon Feb 1 03:52:34 2010	Chicago, IL (60601) 	23 -5 	11-Nov	59	WNW	6	15	1027.0 30.34 	10	mostly clear	
Mon Feb 1 04:37:22 2010	Chicago, IL (60601) 	22 -5 	12-Oct	60	NNW	8	12	1027.2 30.34 	10	mostly clear	
Mon Feb 1 05:20:31 2010	Chicago, IL (60601) 	21 -6 	12-Sep	59	NW	5	13	1027.6 30.35 	10	mostly clear	
Mon Feb 1 06:05:24 2010	Chicago, IL (60601) 	20 -6 	12-Sep	62	NW	5	12	1027.8 30.36 	10	partly cloudy	
Mon Feb 1 06:48:35 2010	Chicago, IL (60601) 	20 -6 	12-Sep	62	NW	5	12	1027.8 30.36 	10	partly cloudy	
Mon Feb 1 07:32:23 2010	Chicago, IL (60601) 	19 -7 	12-Sep	64	WNW	4	12	1028.0 30.37 	10	partly cloudy	
Mon Feb 1 08:15:30 2010	Chicago, IL (60601) 	18 -7 	12-Sep	67	calm		18	1028.2 30.37 	9	mostly clear	
Mon Feb 1 08:59:15 2010	Chicago, IL (60601) 	18 -7 	12-Sep	67	calm		18	1028.2 30.37 	9	mostly clear	
Mon Feb 1 09:42:14 2010	Chicago, IL (60601) 	18 -7 	12-Sep	67	NW	3	13	1028.0 30.37 	9	mostly cloudy	
Mon Feb 1 10:25:47 2010	Chicago, IL (60601) 	20 -6 	13-Aug	60	calm		20	1027.8 30.36 	10	cloudy	
Mon Feb 1 11:08:44 2010	Chicago, IL (60601) 	20 -6 	12-Oct	65	N	3	15	1027.5 30.35 	10	cloudy	
Mon Feb 1 11:52:10 2010	Chicago, IL (60601) 	20 -6 	12-Oct	65	N	3	15	1027.5 30.35 	10	cloudy	
Mon Feb 1 12:35:31 2010	Chicago, IL (60601) 	21 -6 	12-Oct	62	NNW	3	16	1027.4 30.35 	10	cloudy	
Mon Feb 1 13:19:05 2010	Chicago, IL (60601) 	21 -6 	12-Oct	62	calm		21	1027.5 30.35 	10	cloudy	
Mon Feb 1 14:02:58 2010	Chicago, IL (60601) 	22 -5 	11-Nov	62	calm		22	1027.8 30.36 	10	cloudy	
Mon Feb 1 14:48:04 2010	Chicago, IL (60601) 	22 -5 	11-Nov	62	calm		22	1027.8 30.36 	10	cloudy	
Mon Feb 1 15:31:47 2010	Chicago, IL (60601) 	23 -5 	11-Dec	62	calm		23	1028.4 30.38 	10	cloudy	
Mon Feb 1 16:16:15 2010	Chicago, IL (60601) 	24 -4 	13 -10 	62	calm		24	1028.4 30.38 	8	cloudy	
Mon Feb 1 17:01:12 2010	Chicago, IL (60601) 	25 -3 	13 -10 	60	S	3	21	1028.2 30.37 	9	cloudy	
Mon Feb 1 17:45:06 2010	Chicago, IL (60601) 	24 -4 	13 -10 	62	calm		24	1028.4 30.38 	8	cloudy	
Mon Feb 1 18:28:34 2010	Chicago, IL (60601) 	26 -3 	11-Dec	55	calm		26	1027.8 30.36 	8	cloudy	
Mon Feb 1 19:12:21 2010	Chicago, IL (60601) 	27 -2 	13 -10 	55	calm		27	1026.8 30.33 	8	cloudy	
Mon Feb 1 19:57:12 2010	Chicago, IL (60601) 	27 -2 	13 -10 	55	calm		27	1026.8 30.33 	8	cloudy	
Mon Feb 1 20:43:37 2010	Chicago, IL (60601) 	29 -1 	14 -10 	53	calm		29	1025.7 30.30 	7	cloudy	
Mon Feb 1 21:28:32 2010	Chicago, IL (60601) 	30 -1 	15 -9 	53	calm		30	1025.0 30.28 	8	cloudy	
Mon Feb 1 22:11:57 2010	Chicago, IL (60601) 	30 -1 	15 -9 	53	calm		30	1024.6 30.27 	7	cloudy	
Mon Feb 1 22:55:16 2010	Chicago, IL (60601) 	30 -1 	15 -9 	53	calm		30	1024.6 30.27 	7	cloudy	
Mon Feb 1 23:41:24 2010	Chicago, IL (60601) 	31 0 	16 -8 	53	SSE	3	27	1024.3 30.26 	6	cloudy	haze 
Sat Jan 30 00:28:05 2010	Chicago, IL (60601) 	18 -7 	13-Aug	65	ENE	7	8	1031.2 30.46 	10	mostly cloudy	
Sat Jan 30 01:12:15 2010	Chicago, IL (60601) 	18 -7 	13-Aug	65	N	4	11	1031.4 30.47 	9	mostly cloudy	light snow 
Sat Jan 30 01:55:47 2010	Chicago, IL (60601) 	18 -7 	13-Aug	65	N	4	11	1031.4 30.47 	9	mostly cloudy	light snow 
Sat Jan 30 02:40:28 2010	Chicago, IL (60601) 	19 -7 	12-Oct	67	NNE	6	10	1030.7 30.45 	9	mostly cloudy	light snow 
Sat Jan 30 03:24:00 2010	Chicago, IL (60601) 	20 -6 	11-Nov	68	N	5	12	1030.1 30.43 	8	cloudy	light snow 
Sat Jan 30 04:07:54 2010	Chicago, IL (60601) 	20 -6 	13 -10 	74	NNW	4	13	1029.6 30.41 	5	cloudy	light snow 
Sat Jan 30 04:51:41 2010	Chicago, IL (60601) 	20 -6 	13 -10 	74	NNW	4	13	1029.6 30.41 	5	cloudy	light snow 
Sat Jan 30 05:35:23 2010	Chicago, IL (60601) 	19 -7 	13 -10 	77	SE	9	7	1029.3 30.40 	10	cloudy	light snow 
Sat Jan 30 06:19:31 2010	Chicago, IL (60601) 	19 -7 	12-Oct	67	SE	7	9	1029.1 30.40 	9	cloudy	light snow 
Sat Jan 30 07:05:30 2010	Chicago, IL (60601) 	19 -7 	12-Oct	67	ESE	6	10	1028.7 30.39 	9	cloudy	light snow 
Sat Jan 30 07:48:13 2010	Chicago, IL (60601) 	19 -7 	12-Oct	67	ESE	6	10	1028.7 30.39 	9	cloudy	light snow 
Sat Jan 30 08:31:25 2010	Chicago, IL (60601) 	18 -7 	13-Aug	65	ESE	9	6	1028.3 30.37 	9	cloudy	light snow 
Sat Jan 30 11:13:11 2010	Chicago, IL (60601) 	19 -7 	12-Sep	64	E	7	9	1027.0 30.34 	10	cloudy	
Sat Jan 30 12:00:59 2010	Chicago, IL (60601) 	19 -7 	12-Sep	64	E	8	8	1026.8 30.33 	10	cloudy	
Sat Jan 30 12:44:38 2010	Chicago, IL (60601) 	19 -7 	12-Sep	64	E	8	8	1026.8 30.33 	10	cloudy	
Sat Jan 30 13:27:54 2010	Chicago, IL (60601) 	19 -7 	13-Aug	62	E	10	7	1026.8 30.33 	10	cloudy	
Sat Jan 30 14:12:04 2010	Chicago, IL (60601) 	18 -7 	13-Jul	61	E	8	7	1026.6 30.32 	10	mostly cloudy	light snow 
Sat Jan 30 14:56:07 2010	Chicago, IL (60601) 	18 -7 	13-Jul	61	E	8	7	1026.6 30.32 	10	mostly cloudy	light snow 
Sat Jan 30 15:41:57 2010	Chicago, IL (60601) 	18 -7 	13-Jul	61	ENE	11	5	1026.7 30.33 	10	mostly cloudy	
Sat Jan 30 16:26:57 2010	Chicago, IL (60601) 	20 -6 	13-Aug	60	E	10	8	1026.6 30.32 	10	mostly cloudy	
Sat Jan 30 17:11:23 2010	Chicago, IL (60601) 	21 -6 	13-Aug	57	E	10	9	1026.5 30.32 	10	mostly cloudy	
Sat Jan 30 17:54:35 2010	Chicago, IL (60601) 	21 -6 	13-Aug	57	E	10	9	1026.5 30.32 	10	mostly cloudy	
Sat Jan 30 18:38:35 2010	Chicago, IL (60601) 	22 -5 	13-Aug	55	E	7	13	1026.3 30.32 	10	partly cloudy	
Sat Jan 30 19:21:53 2010	Chicago, IL (60601) 	23 -5 	12-Sep	54	E	9	12	1025.5 30.29 	10	partly cloudy	
Sat Jan 30 20:06:08 2010	Chicago, IL (60601) 	23 -5 	12-Oct	57	NE	7	14	1024.8 30.27 	10	partly cloudy	
Sat Jan 30 20:49:14 2010	Chicago, IL (60601) 	23 -5 	12-Oct	57	NE	7	14	1024.8 30.27 	10	partly cloudy	
Sat Jan 30 21:33:00 2010	Chicago, IL (60601) 	23 -5 	11-Nov	59	E	9	12	1024.5 30.26 	10	partly cloudy	
Sat Jan 30 22:16:15 2010	Chicago, IL (60601) 	22 -5 	11-Nov	62	E	5	14	1024.4 30.26 	10	partly cloudy	
Sat Jan 30 23:01:54 2010	Chicago, IL (60601) 	22 -5 	11-Dec	65	E	5	14	1024.1 30.25 	10	mostly cloudy	
Sat Jan 30 23:46:33 2010	Chicago, IL (60601) 	22 -5 	11-Dec	65	E	5	14	1024.1 30.25 	10	mostly cloudy	
Sun Jan 31 00:30:30 2010	Chicago, IL (60601) 	22 -5 	11-Dec	65	calm		22	1024.4 30.26 	10	mostly cloudy	
Sun Jan 31 01:21:16 2010	Chicago, IL (60601) 	22 -5 	11-Dec	65	E	3	17	1024.5 30.26 	10	mostly cloudy	
Sun Jan 31 02:05:15 2010	Chicago, IL (60601) 	22 -5 	11-Dec	65	ESE	4	16	1024.3 30.26 	10	mostly cloudy	
Sun Jan 31 02:48:42 2010	Chicago, IL (60601) 	22 -5 	11-Dec	65	ESE	4	16	1024.3 30.26 	10	mostly cloudy	
Sun Jan 31 03:32:34 2010	Chicago, IL (60601) 	21 -6 	11-Dec	68	SE	3	16	1024.3 30.26 	10	mostly cloudy	
Sun Jan 31 04:16:01 2010	Chicago, IL (60601) 	21 -6 	13 -10 	70	SSE	3	16	1023.9 30.24 	10	mostly cloudy	
Sun Jan 31 05:00:36 2010	Chicago, IL (60601) 	21 -6 	13 -10 	70	SW	5	13	1024.0 30.25 	10	mostly cloudy	
Sun Jan 31 05:46:40 2010	Chicago, IL (60601) 	21 -6 	13 -10 	70	SW	5	13	1024.0 30.25 	10	mostly cloudy	
Sun Jan 31 06:31:51 2010	Chicago, IL (60601) 	20 -6 	13 -10 	74	SW	3	15	1023.8 30.24 	10	cloudy	
Sun Jan 31 07:14:45 2010	Chicago, IL (60601) 	20 -6 	11-Dec	71	SW	4	13	1023.7 30.24 	10	mostly cloudy	
Sun Jan 31 08:01:28 2010	Chicago, IL (60601) 	20 -6 	11-Dec	71	SSW	4	13	1023.3 30.23 	10	mostly cloudy	
Sun Jan 31 08:46:09 2010	Chicago, IL (60601) 	20 -6 	11-Dec	71	SSW	4	13	1023.3 30.23 	10	mostly cloudy	
Sun Jan 31 09:29:23 2010	Chicago, IL (60601) 	18 -7 	11-Dec	77	W	5	10	1023.6 30.24 	10	mostly cloudy	
Sun Jan 31 10:12:35 2010	Chicago, IL (60601) 	19 -7 	13 -10 	77	W	6	10	1023.9 30.24 	10	cloudy	
Sun Jan 31 10:56:21 2010	Chicago, IL (60601) 	19 -7 	13 -10 	77	W	6	10	1023.9 30.24 	10	cloudy	
Sun Jan 31 11:39:49 2010	Chicago, IL (60601) 	19 -7 	11-Dec	74	W	5	11	1023.7 30.24 	10	mostly cloudy	
Sun Jan 31 12:23:29 2010	Chicago, IL (60601) 	18 -7 	11-Dec	77	WSW	4	11	1024.0 30.25 	10	mostly cloudy	
Sun Jan 31 13:06:52 2010	Chicago, IL (60601) 	17 -8 	11-Dec	80	WSW	6	8	1024.2 30.25 	7	mostly clear	
Sun Jan 31 13:50:29 2010	Chicago, IL (60601) 	17 -8 	11-Dec	80	WSW	6	8	1024.2 30.25 	7	mostly clear	
Sun Jan 31 14:33:19 2010	Chicago, IL (60601) 	16 -8 	11-Nov	80	WSW	6	6	1024.7 30.27 	8	clear	
Sun Jan 31 15:17:24 2010	Chicago, IL (60601) 	16 -8 	11-Nov	80	SW	5	7	1024.8 30.27 	9	mostly clear	
Sun Jan 31 16:00:54 2010	Chicago, IL (60601) 	18 -7 	12-Oct	70	WSW	9	6	1024.5 30.26 	10	mostly clear	
Sun Jan 31 16:50:41 2010	Chicago, IL (60601) 	18 -7 	12-Oct	70	WSW	9	6	1024.5 30.26 	10	mostly clear	
Sun Jan 31 17:34:21 2010	Chicago, IL (60601) 	20 -6 	12-Sep	62	W	10	8	1024.9 30.27 	10	mostly clear	
Sun Jan 31 18:19:20 2010	Chicago, IL (60601) 	24 -4 	13-Jul	47	W	10	13	1025.0 30.28 	10	mostly clear	
Sun Jan 31 19:03:07 2010	Chicago, IL (60601) 	26 -3 	14-Jun	42	W	10	16	1024.5 30.26 	10	mostly clear	
Sun Jan 31 19:48:29 2010	Chicago, IL (60601) 	26 -3 	14-Jun	42	W	10	16	1024.5 30.26 	10	mostly clear	
Sun Jan 31 20:31:28 2010	Chicago, IL (60601) 	28 -2 	13-Jul	40	W	12	17	1023.8 30.24 	10	mostly clear	
Sun Jan 31 21:15:41 2010	Chicago, IL (60601) 	29 -1 	15-May	36	WSW	14	17	1023.9 30.24 	10	partly cloudy	
Sun Jan 31 21:58:55 2010	Chicago, IL (60601) 	29 -1 	15-May	36	WSW	14	17	1023.9 30.24 	10	partly cloudy	
Sun Jan 31 22:43:43 2010	Chicago, IL (60601) 	29 -1 	12-Sep	43	W	14	17	1024.2 30.25 	10	mostly cloudy	
Sun Jan 31 23:27:03 2010	Chicago, IL (60601) 	29 -1 	11-Dec	49	W	13	18	1024.7 30.27 	10	mostly cloudy	
Thu Feb 4 00:12:24 2010	Chicago, IL (60601) 	29 -1 	22 -5 	75	E	5	23	1028.4 30.38 	10	cloudy	
Thu Feb 4 00:56:29 2010	Chicago, IL (60601) 	29 -1 	22 -5 	75	E	5	23	1028.4 30.38 	10	cloudy	
Thu Feb 4 01:39:44 2010	Chicago, IL (60601) 	29 -1 	21 -6 	72	E	3	25	1029.3 30.40 	10	cloudy	
Thu Feb 4 02:27:28 2010	Chicago, IL (60601) 	30 -1 	22 -5 	71	ESE	4	25	1029.7 30.42 	9	cloudy	
Thu Feb 4 03:10:39 2010	Chicago, IL (60601) 	29 -1 	22 -5 	75	SE	4	24	1030.0 30.42 	9	cloudy	
Thu Feb 4 03:55:07 2010	Chicago, IL (60601) 	29 -1 	22 -5 	75	SE	4	24	1030.0 30.42 	9	cloudy	
Thu Feb 4 04:38:23 2010	Chicago, IL (60601) 	30 -1 	22 -5 	71	S	4	25	1030.8 30.45 	7	cloudy	
Thu Feb 4 05:21:44 2010	Chicago, IL (60601) 	30 -1 	20 -6 	66	calm		30	1030.6 30.44 	7	cloudy	
Thu Feb 4 06:04:35 2010	Chicago, IL (60601) 	29 -1 	20 -6 	69	calm		29	1030.1 30.43 	7	mostly cloudy	
Thu Feb 4 06:47:39 2010	Chicago, IL (60601) 	29 -1 	20 -6 	69	calm		29	1030.1 30.43 	7	mostly cloudy	
Thu Feb 4 07:31:14 2010	Chicago, IL (60601) 	27 -2 	20 -6 	74	SSW	4	22	1029.9 30.42 	6	partly cloudy	haze 
Thu Feb 4 08:13:48 2010	Chicago, IL (60601) 	26 -3 	20 -6 	77	SSE	3	22	1028.9 30.39 	5	mostly cloudy	haze 
Thu Feb 4 08:57:30 2010	Chicago, IL (60601) 	26 -3 	20 -6 	77	SSE	3	22	1028.9 30.39 	5	mostly cloudy	haze 
Thu Feb 4 09:41:25 2010	Chicago, IL (60601) 	26 -3 	20 -6 	77	S	5	19	1029.4 30.41 	5	cloudy	haze 
Thu Feb 4 10:25:04 2010	Chicago, IL (60601) 	26 -3 	20 -6 	77	S	5	19	1030.1 30.43 	6	mostly cloudy	haze 
Thu Feb 4 11:11:00 2010	Chicago, IL (60601) 	26 -3 	20 -6 	77	calm		26	1029.9 30.42 	6	cloudy	haze 
Thu Feb 4 11:54:31 2010	Chicago, IL (60601) 	26 -3 	20 -6 	77	calm		26	1029.9 30.42 	6	cloudy	haze 
Thu Feb 4 12:37:37 2010	Chicago, IL (60601) 	25 -3 	20 -6 	81	calm		25	1030.5 30.44 	6	cloudy	haze 
Thu Feb 4 13:21:41 2010	Chicago, IL (60601) 	26 -3 	20 -6 	77	S	4	21	1030.2 30.43 	6	cloudy	haze 
Thu Feb 4 14:06:32 2010	Chicago, IL (60601) 	26 -3 	20 -6 	77	N	4	21	1030.7 30.45 	5	cloudy	haze 
Thu Feb 4 14:59:18 2010	Chicago, IL (60601) 	26 -3 	20 -6 	77	N	4	21	1030.7 30.45 	5	cloudy	haze 
Thu Jan 28 15:38:57 2010	Chicago, IL (60601) 	13-Aug	-2 -18 	63	WNW	11	-8	1030.4 30.44 	10	mostly clear	
Thu Jan 28 15:59:43 2010	Chicago, IL (60601) 	13-Aug	-2 -18 	63	WNW	11	-8	1030.4 30.44 	10	mostly clear	
Thu Jan 28 16:49:05 2010	Chicago, IL (60601) 	12-Sep	-2 -18 	60	WNW	9	-5	1031.2 30.46 	10	mostly clear	
Thu Jan 28 17:13:20 2010	Chicago, IL (60601) 	12-Oct	-2 -18 	58	NW	14	-7	1031.7 30.47 	10	partly cloudy	
Thu Jan 28 17:29:19 2010	Chicago, IL (60601) 	12-Oct	-2 -18 	58	NW	14	-7	1031.7 30.47 	10	partly cloudy	
Tue Feb 2 00:28:16 2010	Chicago, IL (60601) 	30 -1 	17 -8 	58	SE	7	22	1023.8 30.24 	6	cloudy	haze 
Tue Feb 2 01:13:52 2010	Chicago, IL (60601) 	29 -1 	18 -7 	63	E	6	22	1023.7 30.24 	6	cloudy	haze 
Tue Feb 2 01:57:01 2010	Chicago, IL (60601) 	29 -1 	18 -7 	63	E	6	22	1023.7 30.24 	6	cloudy	haze 
Tue Feb 2 02:41:04 2010	Chicago, IL (60601) 	29 -1 	20 -6 	69	E	6	22	1023.6 30.24 	7	cloudy	
Tue Feb 2 03:24:35 2010	Chicago, IL (60601) 	29 -1 	21 -6 	72	E	4	24	1023.3 30.23 	8	cloudy	
Tue Feb 2 04:08:22 2010	Chicago, IL (60601) 	30 -1 	20 -6 	66	SSE	5	24	1023.4 30.23 	8	cloudy	
Tue Feb 2 04:51:55 2010	Chicago, IL (60601) 	30 -1 	20 -6 	66	SSE	5	24	1023.4 30.23 	8	cloudy	
Tue Feb 2 05:35:18 2010	Chicago, IL (60601) 	30 -1 	20 -6 	66	SE	7	22	1022.2 30.19 	9	cloudy	
Tue Feb 2 06:18:33 2010	Chicago, IL (60601) 	30 -1 	19 -7 	63	ESE	5	24	1021.6 30.18 	9	cloudy	
Tue Feb 2 07:05:42 2010	Chicago, IL (60601) 	30 -1 	20 -6 	66	SE	4	25	1021.4 30.17 	10	cloudy	
Tue Feb 2 07:48:43 2010	Chicago, IL (60601) 	30 -1 	20 -6 	66	SE	4	25	1021.4 30.17 	10	cloudy	
Tue Feb 2 08:31:55 2010	Chicago, IL (60601) 	28 -2 	24 -4 	85	S	3	24	1021.5 30.17 	2	cloudy	light snow 
Tue Feb 2 09:15:24 2010	Chicago, IL (60601) 	27 -2 	25 -3 	92	ESE	4	22	1021.2 30.16 	1	cloudy	light snow 
Tue Feb 2 09:58:56 2010	Chicago, IL (60601) 	27 -2 	25 -3 	92	ESE	4	22	1021.2 30.16 	1	cloudy	light snow 
Tue Feb 2 10:42:29 2010	Chicago, IL (60601) 	27 -2 	25 -3 	92	SE	4	22	1020.9 30.16 	1	cloudy	light snow 
Tue Feb 2 11:26:36 2010	Chicago, IL (60601) 	27 -2 	25 -3 	92	SE	6	20	1020.0 30.13 	2	cloudy	light snow 
Tue Feb 2 12:10:36 2010	Chicago, IL (60601) 	27 -2 	25 -3 	92	ESE	6	20	1019.1 30.10 	3	cloudy	light snow 
Tue Feb 2 12:54:32 2010	Chicago, IL (60601) 	27 -2 	25 -3 	92	ESE	6	20	1019.1 30.10 	3	cloudy	light snow 
Tue Feb 2 13:37:49 2010	Chicago, IL (60601) 	28 -2 	26 -3 	92	ESE	6	21	1018.8 30.09 	2	cloudy	light snow 
Tue Feb 2 14:21:32 2010	Chicago, IL (60601) 	28 -2 	26 -3 	92	ESE	5	22	1018.1 30.07 	2	cloudy	light snow 
Tue Feb 2 15:05:52 2010	Chicago, IL (60601) 	29 -1 	26 -3 	89	ESE	7	21	1018.0 30.07 	1	cloudy	light snow 
Tue Feb 2 15:52:18 2010	Chicago, IL (60601) 	29 -1 	26 -3 	89	ESE	7	21	1018.0 30.07 	1	cloudy	light snow 
Tue Feb 2 16:44:48 2010	Chicago, IL (60601) 	29 -1 	25 -3 	85	SE	7	21	1017.9 30.07 	2	cloudy	light snow 
Tue Feb 2 17:33:14 2010	Chicago, IL (60601) 	29 -1 	26 -3 	89	S	4	24	1017.9 30.07 	1	obscured	light snow 
Tue Feb 2 18:17:51 2010	Chicago, IL (60601) 	30 -1 	27 -2 	88	calm		30	1017.5 30.06 	3	cloudy	light snow 
Tue Feb 2 19:02:02 2010	Chicago, IL (60601) 	31 0 	25 -3 	78	SSW	5	25	1016.7 30.03 	5	cloudy	haze 
Tue Feb 2 19:51:17 2010	Chicago, IL (60601) 	31 0 	25 -3 	78	SSW	5	25	1016.7 30.03 	5	cloudy	haze 
Tue Feb 2 20:42:35 2010	Chicago, IL (60601) 	32 0 	23 -5 	69	SW	5	26	1016.1 30.01 	5	cloudy	haze 
Tue Feb 2 21:29:27 2010	Chicago, IL (60601) 	32 0 	24 -4 	72	WSW	7	25	1015.7 30.00 	6	cloudy	haze 
Tue Feb 2 22:17:49 2010	Chicago, IL (60601) 	32 0 	25 -3 	75	W	7	25	1016.1 30.01 	6	cloudy	haze 
Tue Feb 2 23:02:06 2010	Chicago, IL (60601) 	31 0 	26 -3 	82	W	6	24	1016.8 30.03 	3	cloudy	light snow 
Tue Feb 2 23:47:06 2010	Chicago, IL (60601) 	31 0 	26 -3 	82	W	6	24	1016.8 30.03 	3	cloudy	light snow 
Wed Feb 3 00:31:50 2010	Chicago, IL (60601) 	31 0 	27 -2 	85	W	5	25	1016.8 30.03 	3	cloudy	light snow 
Wed Feb 3 01:19:01 2010	Chicago, IL (60601) 	31 0 	27 -2 	85	W	6	24	1017.4 30.05 	4	cloudy	light snow 
Wed Feb 3 02:03:48 2010	Chicago, IL (60601) 	32 0 	27 -2 	82	W	10	23	1018.1 30.07 	4	cloudy	light snow 
Wed Feb 3 02:52:32 2010	Chicago, IL (60601) 	32 0 	27 -2 	82	W	10	23	1018.1 30.07 	4	cloudy	light snow 
Wed Feb 3 03:39:21 2010	Chicago, IL (60601) 	30 -1 	24 -4 	78	W	11	20	1018.7 30.09 	5	cloudy	light snow 
Wed Feb 3 04:27:31 2010	Chicago, IL (60601) 	28 -2 	22 -5 	78	W	9	19	1019.5 30.11 	5	cloudy	light snow 
Wed Feb 3 05:14:18 2010	Chicago, IL (60601) 	27 -2 	21 -6 	78	W	10	17	1019.8 30.12 	6	cloudy	haze 
Wed Feb 3 06:02:07 2010	Chicago, IL (60601) 	25 -3 	20 -6 	81	W	7	16	1020.2 30.14 	4	cloudy	haze 
Wed Feb 3 06:48:51 2010	Chicago, IL (60601) 	25 -3 	20 -6 	81	W	7	16	1020.2 30.14 	4	cloudy	haze 
Wed Feb 3 07:33:29 2010	Chicago, IL (60601) 	25 -3 	20 -6 	81	W	10	14	1020.8 30.15 	4	cloudy	haze 
Wed Feb 3 08:16:39 2010	Chicago, IL (60601) 	24 -4 	19 -7 	81	W	7	15	1021.2 30.16 	4	cloudy	haze 
Wed Feb 3 09:03:06 2010	Chicago, IL (60601) 	24 -4 	19 -7 	81	W	10	13	1022.1 30.19 	4	cloudy	haze 
Wed Feb 3 09:46:26 2010	Chicago, IL (60601) 	24 -4 	19 -7 	81	W	10	13	1022.1 30.19 	4	cloudy	haze 
Wed Feb 3 10:30:18 2010	Chicago, IL (60601) 	24 -4 	20 -6 	84	W	9	14	1022.4 30.20 	4	cloudy	haze 
Wed Feb 3 11:17:11 2010	Chicago, IL (60601) 	24 -4 	19 -7 	81	W	9	14	1022.8 30.21 	4	cloudy	haze 
Wed Feb 3 12:01:56 2010	Chicago, IL (60601) 	24 -4 	19 -7 	81	WSW	6	16	1023.5 30.23 	5	cloudy	haze 
Wed Feb 3 12:45:09 2010	Chicago, IL (60601) 	24 -4 	19 -7 	81	WSW	6	16	1023.5 30.23 	5	cloudy	haze 
Wed Feb 3 13:28:53 2010	Chicago, IL (60601) 	24 -4 	19 -7 	81	W	7	15	1023.7 30.24 	4	cloudy	haze 
Wed Feb 3 14:14:59 2010	Chicago, IL (60601) 	23 -5 	18 -7 	81	WNW	6	15	1024.0 30.25 	5	cloudy	haze 
Wed Feb 3 15:00:58 2010	Chicago, IL (60601) 	24 -4 	19 -7 	81	WNW	6	16	1025.4 30.29 	3	cloudy	haze 
Wed Feb 3 15:45:48 2010	Chicago, IL (60601) 	24 -4 	19 -7 	81	WNW	6	16	1025.4 30.29 	3	cloudy	haze 
Wed Feb 3 16:31:39 2010	Chicago, IL (60601) 	24 -4 	19 -7 	81	W	5	17	1026.4 30.32 	4	cloudy	haze 
Wed Feb 3 17:18:51 2010	Chicago, IL (60601) 	24 -4 	19 -7 	81	W	7	15	1027.3 30.35 	4	cloudy	haze 
Wed Feb 3 18:07:10 2010	Chicago, IL (60601) 	26 -3 	20 -6 	77	WNW	6	18	1028.0 30.37 	4	cloudy	haze 
Wed Feb 3 18:50:16 2010	Chicago, IL (60601) 	26 -3 	20 -6 	77	WNW	6	18	1028.0 30.37 	4	cloudy	haze 
Wed Feb 3 19:34:32 2010	Chicago, IL (60601) 	30 -1 	21 -6 	69	NNW	6	23	1027.3 30.35 	4	mostly cloudy	haze 
Wed Feb 3 20:18:37 2010	Chicago, IL (60601) 	30 -1 	21 -6 	69	WNW	4	25	1027.1 30.34 	5	mostly cloudy	haze 
Wed Feb 3 21:02:54 2010	Chicago, IL (60601) 	31 0 	20 -6 	63	N	3	27	1026.5 30.32 	6	cloudy	haze 
Wed Feb 3 21:51:02 2010	Chicago, IL (60601) 	31 0 	20 -6 	63	N	3	27	1026.5 30.32 	6	cloudy	haze 
Wed Feb 3 22:36:34 2010	Chicago, IL (60601) 	31 0 	22 -5 	69	E	6	24	1027.0 30.34 	7	cloudy	
Wed Feb 3 23:27:28 2010	Chicago, IL (60601) 	30 -1 	22 -5 	71	E	6	23	1027.6 30.35 	10	mostly cloudy	
Fri Jan 29 08:41:34 2010	Columbus, OH (43085) 	12-Oct	16-Feb	69	N	7	-2	1031.9 30.48 	10	clear	
Fri Jan 29 09:25:29 2010	Columbus, OH (43085) 	13-Aug	17-Jan	72	N	4	0	1032.2 30.49 	10	clear	
Fri Jan 29 11:57:31 2010	Columbus, OH (43085) 	13-Aug	-1 -18 	66	NNW	5	-2	1032.6 30.50 	10	clear	
Fri Jan 29 12:42:14 2010	Columbus, OH (43085) 	12-Sep	-0 -17 	66	NNW	5	-1	1032.5 30.50 	10	clear	
Fri Jan 29 13:29:57 2010	Columbus, OH (43085) 	12-Sep	-0 -17 	66	NNW	4	1	1033.2 30.52 	10	clear	
Fri Jan 29 14:17:49 2010	Columbus, OH (43085) 	12-Sep	-1 -18 	63	N	6	-2	1033.4 30.53 	10	clear	
Fri Jan 29 15:02:36 2010	Columbus, OH (43085) 	12-Oct	-1 -18 	61	NNE	6	-1	1033.4 30.53 	10	clear	
Fri Jan 29 15:48:08 2010	Columbus, OH (43085) 	12-Oct	-1 -18 	61	NNE	6	-1	1033.4 30.53 	10	clear	
Fri Jan 29 16:35:52 2010	Columbus, OH (43085) 	11-Nov	-1 -18 	58	NNE	5	1	1033.4 30.53 	10	clear	
Fri Jan 29 17:20:20 2010	Columbus, OH (43085) 	11-Dec	-1 -18 	55	NNE	7	0	1034.4 30.55 	10	clear	
Fri Jan 29 18:08:49 2010	Columbus, OH (43085) 	13 -10 	-0 -17 	56	N	9	0	1034.3 30.55 	10	clear	
Fri Jan 29 18:53:50 2010	Columbus, OH (43085) 	13 -10 	-0 -17 	56	N	9	0	1034.3 30.55 	10	clear	
Fri Jan 29 19:45:48 2010	Columbus, OH (43085) 	14 -10 	-0 -17 	53	NNE	6	4	1033.1 30.52 	10	clear	
Fri Jan 29 20:43:37 2010	Columbus, OH (43085) 	15 -9 	17-Jan	53	calm		15	1032.2 30.49 	10	clear	
Fri Jan 29 21:28:15 2010	Columbus, OH (43085) 	16 -8 	16-Feb	53	NE	7	5	1031.7 30.47 	10	clear	
Fri Jan 29 22:14:50 2010	Columbus, OH (43085) 	15 -9 	16-Feb	55	NNE	5	6	1030.6 30.44 	10	clear	
Fri Jan 29 22:59:46 2010	Columbus, OH (43085) 	15 -9 	16-Feb	55	NNE	5	6	1030.6 30.44 	10	clear	
Fri Jan 29 23:44:03 2010	Columbus, OH (43085) 	14 -10 	16-Mar	61	N	7	3	1030.2 30.43 	10	clear	
Mon Feb 1 00:11:02 2010	Columbus, OH (43085) 	26 -3 	13 -10 	57	WSW	9	16	1023.8 30.24 	10	clear	
Mon Feb 1 00:53:59 2010	Columbus, OH (43085) 	26 -3 	13 -10 	57	WSW	9	16	1023.8 30.24 	10	clear	
Mon Feb 1 01:40:19 2010	Columbus, OH (43085) 	25 -3 	13 -10 	60	WSW	7	16	1024.7 30.27 	10	clear	
Mon Feb 1 02:24:16 2010	Columbus, OH (43085) 	23 -5 	13 -10 	65	W	6	15	1025.2 30.28 	10	clear	
Mon Feb 1 03:07:56 2010	Columbus, OH (43085) 	22 -5 	13 -10 	68	W	7	13	1025.4 30.29 	10	clear	
Mon Feb 1 03:52:36 2010	Columbus, OH (43085) 	22 -5 	13 -10 	68	W	7	13	1025.4 30.29 	10	clear	
Mon Feb 1 04:37:24 2010	Columbus, OH (43085) 	20 -6 	11-Dec	71	W	4	13	1026.1 30.31 	10	clear	
Mon Feb 1 05:20:34 2010	Columbus, OH (43085) 	18 -7 	13 -10 	80	W	5	10	1026.3 30.32 	10	clear	
Mon Feb 1 06:05:26 2010	Columbus, OH (43085) 	17 -8 	11-Dec	80	W	6	8	1026.7 30.33 	10	clear	
Mon Feb 1 06:48:37 2010	Columbus, OH (43085) 	17 -8 	11-Dec	80	W	6	8	1026.7 30.33 	10	clear	
Mon Feb 1 07:32:25 2010	Columbus, OH (43085) 	19 -7 	13 -10 	77	W	3	14	1026.8 30.33 	10	clear	
Mon Feb 1 08:15:32 2010	Columbus, OH (43085) 	17 -8 	11-Nov	76	WSW	4	10	1027.3 30.35 	10	clear	
Mon Feb 1 08:59:17 2010	Columbus, OH (43085) 	17 -8 	11-Nov	76	WSW	4	10	1027.3 30.35 	10	clear	
Mon Feb 1 09:42:16 2010	Columbus, OH (43085) 	17 -8 	11-Dec	80	SW	3	12	1027.9 30.36 	9	clear	
Mon Feb 1 10:25:49 2010	Columbus, OH (43085) 	16 -8 	11-Dec	84	calm		16	1027.9 30.36 	8	clear	
Mon Feb 1 11:08:46 2010	Columbus, OH (43085) 	17 -8 	11-Dec	80	calm		17	1028.0 30.37 	8	clear	
Mon Feb 1 11:52:12 2010	Columbus, OH (43085) 	17 -8 	11-Dec	80	calm		17	1028.0 30.37 	8	clear	
Mon Feb 1 12:35:33 2010	Columbus, OH (43085) 	15 -9 	11-Nov	83	calm		15	1028.0 30.37 	7	clear	
Mon Feb 1 13:19:07 2010	Columbus, OH (43085) 	13 -10 	11-Nov	92	calm		13	1027.5 30.35 	9	clear	
Mon Feb 1 14:03:00 2010	Columbus, OH (43085) 	14 -10 	11-Nov	87	calm		14	1027.9 30.36 	6	clear	haze
Mon Feb 1 14:48:06 2010	Columbus, OH (43085) 	14 -10 	11-Nov	87	calm		14	1027.9 30.36 	6	clear	haze
Mon Feb 1 15:31:50 2010	Columbus, OH (43085) 	19 -7 	15 -9 	84	calm		19	1028.7 30.39 	6	clear	haze
Mon Feb 1 16:16:17 2010	Columbus, OH (43085) 	21 -6 	15 -9 	78	SSE	4	15	1028.7 30.39 	6	clear	haze
Mon Feb 1 17:01:16 2010	Columbus, OH (43085) 	25 -3 	16 -8 	68	S	4	19	1028.5 30.38 	6	clear	haze
Mon Feb 1 17:45:08 2010	Columbus, OH (43085) 	25 -3 	16 -8 	68	S	4	19	1028.5 30.38 	6	clear	haze
Mon Feb 1 18:28:36 2010	Columbus, OH (43085) 	27 -2 	16 -8 	63	S	4	22	1028.5 30.38 	7	clear	
Mon Feb 1 19:12:23 2010	Columbus, OH (43085) 	29 -1 	17 -8 	61	N	5	23	1027.5 30.35 	8	clear	
Mon Feb 1 19:57:14 2010	Columbus, OH (43085) 	29 -1 	17 -8 	61	N	5	23	1027.5 30.35 	8	clear	
Mon Feb 1 20:43:39 2010	Columbus, OH (43085) 	32 0 	15 -9 	49	calm		32	1026.4 30.32 	10	clear	
Mon Feb 1 21:28:34 2010	Columbus, OH (43085) 	32 0 	16 -8 	51	calm		32	1025.7 30.30 	10	clear	
Mon Feb 1 22:11:59 2010	Columbus, OH (43085) 	32 0 	16 -8 	51	calm		32	1025.2 30.28 	10	clear	
Mon Feb 1 22:55:18 2010	Columbus, OH (43085) 	32 0 	16 -8 	51	calm		32	1025.2 30.28 	10	clear	
Mon Feb 1 23:41:26 2010	Columbus, OH (43085) 	32 0 	16 -8 	51	calm		32	1025.3 30.29 	10	clear	
Sat Jan 30 00:28:07 2010	Columbus, OH (43085) 	14 -10 	16-Mar	61	NNE	6	4	1030.2 30.43 	10	clear	
Sat Jan 30 01:12:17 2010	Columbus, OH (43085) 	13 -10 	16-Mar	64	NNE	6	3	1030.0 30.42 	10	clear	
Sat Jan 30 01:55:50 2010	Columbus, OH (43085) 	13 -10 	16-Mar	64	NNE	6	3	1030.0 30.42 	10	clear	
Sat Jan 30 02:40:30 2010	Columbus, OH (43085) 	13 -10 	15-Apr	67	NNE	6	3	1029.9 30.42 	10	clear	
Sat Jan 30 03:24:02 2010	Columbus, OH (43085) 	13 -10 	15-Apr	67	NNE	6	3	1029.0 30.40 	10	clear	
Sat Jan 30 04:07:57 2010	Columbus, OH (43085) 	14 -10 	15-Apr	63	NE	7	3	1028.5 30.38 	10	clear	
Sat Jan 30 04:51:43 2010	Columbus, OH (43085) 	14 -10 	15-Apr	63	NE	7	3	1028.5 30.38 	10	clear	
Sat Jan 30 05:35:25 2010	Columbus, OH (43085) 	14 -10 	15-Apr	63	ENE	8	2	1028.1 30.37 	10	clear	
Sat Jan 30 06:19:33 2010	Columbus, OH (43085) 	14 -10 	16-Mar	61	ENE	10	0	1027.7 30.36 	10	clear	
Sat Jan 30 07:05:32 2010	Columbus, OH (43085) 	14 -10 	16-Mar	61	E	10	0	1026.9 30.33 	10	clear	
Sat Jan 30 07:48:15 2010	Columbus, OH (43085) 	14 -10 	16-Mar	61	E	10	0	1026.9 30.33 	10	clear	
Sat Jan 30 08:31:27 2010	Columbus, OH (43085) 	14 -10 	15-Apr	63		7	3	1026.3 30.32 	10	clear	
Sat Jan 30 11:13:13 2010	Columbus, OH (43085) 	15 -9 	16-Mar	58	ENE	12	1	1023.3 30.23 	10	cloudy	
Sat Jan 30 12:01:02 2010	Columbus, OH (43085) 	15 -9 	15-Apr	61	ENE	13	0	1023.3 30.23 	10	cloudy	
Sat Jan 30 12:44:40 2010	Columbus, OH (43085) 	15 -9 	15-Apr	61	ENE	13	0	1023.3 30.23 	10	cloudy	
Sat Jan 30 13:27:56 2010	Columbus, OH (43085) 	15 -9 	15-May	64	ENE	11	1	1022.1 30.19 	10	cloudy	
Sat Jan 30 14:12:06 2010	Columbus, OH (43085) 	15 -9 	14-Jun	67		10	2	1022.2 30.19 	10	mostly cloudy	
Sat Jan 30 14:56:09 2010	Columbus, OH (43085) 	15 -9 	14-Jun	67		10	2	1022.2 30.19 	10	mostly cloudy	
Sat Jan 30 15:41:59 2010	Columbus, OH (43085) 	15 -9 	14-Jun	67	NE	12	1	1022.4 30.20 	10	mostly clear	
Sat Jan 30 16:26:59 2010	Columbus, OH (43085) 	16 -8 	14-Jun	64		13	1	1022.3 30.20 	10	clear	
Sat Jan 30 17:11:25 2010	Columbus, OH (43085) 	18 -7 	13-Jul	61		11	5	1022.3 30.20 	10	mostly clear	
Sat Jan 30 17:54:38 2010	Columbus, OH (43085) 	18 -7 	13-Jul	61		11	5	1022.3 30.20 	10	mostly clear	
Sat Jan 30 18:38:37 2010	Columbus, OH (43085) 	19 -7 	13-Jul	59	NE	13	5	1022.0 30.19 	10	mostly clear	
Sat Jan 30 19:21:55 2010	Columbus, OH (43085) 	20 -6 	13-Jul	57	NE	11	7	1021.0 30.16 	10	clear	
Sat Jan 30 20:06:10 2010	Columbus, OH (43085) 	22 -5 	13-Jul	52	NE	12	9	1020.1 30.13 	10	clear	
Sat Jan 30 20:49:16 2010	Columbus, OH (43085) 	22 -5 	13-Jul	52	NE	12	9	1020.1 30.13 	10	clear	
Sat Jan 30 21:33:02 2010	Columbus, OH (43085) 	23 -5 	14-Jun	48		9	12	1019.6 30.12 	10	clear	
Sat Jan 30 22:16:17 2010	Columbus, OH (43085) 	23 -5 	13-Aug	52	N	9	12	1019.3 30.11 	10	clear	
Sat Jan 30 23:01:57 2010	Columbus, OH (43085) 	22 -5 	14-Jun	50	N	12	9	1019.8 30.12 	10	clear	
Sat Jan 30 23:46:36 2010	Columbus, OH (43085) 	22 -5 	14-Jun	50	N	12	9	1019.8 30.12 	10	clear	
Sun Jan 31 00:30:33 2010	Columbus, OH (43085) 	20 -6 	13-Jul	57	N	11	7	1020.5 30.14 	10	clear	
Sun Jan 31 01:21:18 2010	Columbus, OH (43085) 	18 -7 	13-Jul	61	N	9	6	1020.6 30.15 	10	clear	
Sun Jan 31 02:05:18 2010	Columbus, OH (43085) 	17 -8 	13-Aug	67	N	9	5	1021.1 30.16 	10	clear	
Sun Jan 31 02:48:44 2010	Columbus, OH (43085) 	17 -8 	13-Aug	67	N	9	5	1021.1 30.16 	10	clear	
Sun Jan 31 03:32:36 2010	Columbus, OH (43085) 	16 -8 	13-Aug	70	N	9	4	1021.3 30.17 	10	clear	
Sun Jan 31 04:16:03 2010	Columbus, OH (43085) 	13 -10 	13-Aug	81	N	5	4	1021.5 30.17 	10	clear	
Sun Jan 31 05:00:40 2010	Columbus, OH (43085) 	11-Dec	13-Jul	80	N	4	4	1022.0 30.19 	10	clear	
Sun Jan 31 05:46:42 2010	Columbus, OH (43085) 	11-Dec	13-Jul	80	N	4	4	1022.0 30.19 	10	clear	
Sun Jan 31 06:31:54 2010	Columbus, OH (43085) 	11-Nov	13-Jul	84	N	3	5	1022.3 30.20 	10	clear	
Sun Jan 31 07:14:47 2010	Columbus, OH (43085) 	11-Dec	13-Jul	80	calm		12	1022.0 30.19 	10	clear	
Sun Jan 31 08:01:30 2010	Columbus, OH (43085) 	11-Nov	13-Jul	84	WNW	4	3	1022.4 30.20 	10	clear	
Sun Jan 31 08:46:11 2010	Columbus, OH (43085) 	11-Nov	13-Jul	84	WNW	4	3	1022.4 30.20 	10	clear	
Sun Jan 31 09:29:25 2010	Columbus, OH (43085) 	11-Nov	13-Jul	84	calm		11	1022.7 30.21 	10	clear	
Sun Jan 31 10:12:38 2010	Columbus, OH (43085) 	12-Sep	14-Jun	88	W	3	2	1023.0 30.22 	10	clear	
Sun Jan 31 10:56:23 2010	Columbus, OH (43085) 	12-Sep	14-Jun	88	W	3	2	1023.0 30.22 	10	clear	
Sun Jan 31 11:39:51 2010	Columbus, OH (43085) 	12-Sep	13-Jul	91	W	3	2	1023.0 30.22 	10	clear	
Sun Jan 31 12:23:31 2010	Columbus, OH (43085) 	12-Sep	14-Jun	88	calm		9	1023.4 30.23 	10	clear	
Sun Jan 31 13:06:54 2010	Columbus, OH (43085) 	13-Jul	15-May	91	calm		7	1024.1 30.25 	10	clear	
Sun Jan 31 13:50:32 2010	Columbus, OH (43085) 	13-Jul	15-May	91	calm		7	1024.1 30.25 	10	clear	
Sun Jan 31 14:33:21 2010	Columbus, OH (43085) 	12-Sep	14-Jun	88	calm		9	1025.1 30.28 	10	partly cloudy	
Sun Jan 31 15:17:26 2010	Columbus, OH (43085) 	11-Nov	13-Aug	88	calm		11	1025.5 30.29 	10	mostly cloudy	
Sun Jan 31 16:00:57 2010	Columbus, OH (43085) 	16 -8 	12-Oct	77	WSW	7	5	1025.3 30.29 	10	mostly clear	
Sun Jan 31 16:50:44 2010	Columbus, OH (43085) 	16 -8 	12-Oct	77	WSW	7	5	1025.3 30.29 	10	mostly clear	
Sun Jan 31 17:34:23 2010	Columbus, OH (43085) 	19 -7 	11-Nov	70	WSW	9	7	1025.5 30.29 	10	mostly clear	
Sun Jan 31 18:19:23 2010	Columbus, OH (43085) 	21 -6 	13 -10 	70	WSW	10	9	1025.1 30.28 	10	mostly clear	
Sun Jan 31 19:03:09 2010	Columbus, OH (43085) 	23 -5 	11-Dec	62	WSW	10	12	1023.8 30.24 	10	clear	
Sun Jan 31 19:48:32 2010	Columbus, OH (43085) 	23 -5 	11-Dec	62	WSW	10	12	1023.8 30.24 	10	clear	
Sun Jan 31 20:31:30 2010	Columbus, OH (43085) 	25 -3 	11-Dec	57	SW	12	13	1023.6 30.24 	10	clear	
Sun Jan 31 21:15:43 2010	Columbus, OH (43085) 	26 -3 	13 -10 	57	W	11	15	1023.0 30.22 	10	clear	
Sun Jan 31 21:58:57 2010	Columbus, OH (43085) 	26 -3 	13 -10 	57	W	11	15	1023.0 30.22 	10	clear	
Sun Jan 31 22:43:45 2010	Columbus, OH (43085) 	28 -2 	11-Dec	51	WSW	14	16	1023.0 30.22 	10	clear	
Sun Jan 31 23:27:05 2010	Columbus, OH (43085) 	28 -2 	11-Nov	48	WSW	11	17	1023.3 30.23 	10	clear	
Thu Feb 4 00:12:26 2010	Columbus, OH (43085) 	32 0 	25 -3 	75	W	7	25	1026.3 30.32 	4	cloudy	haze 
Thu Feb 4 00:56:31 2010	Columbus, OH (43085) 	32 0 	25 -3 	75	W	7	25	1026.3 30.32 	4	cloudy	haze 
Thu Feb 4 01:39:46 2010	Columbus, OH (43085) 	31 0 	25 -3 	78	WNW	5	25	1027.0 30.34 	5	cloudy	haze 
Thu Feb 4 02:27:30 2010	Columbus, OH (43085) 	31 0 	24 -4 	76	NNW	6	24	1027.9 30.36 	5	cloudy	haze 
Thu Feb 4 03:10:42 2010	Columbus, OH (43085) 	31 0 	25 -3 	78	NNW	4	26	1028.5 30.38 	4	cloudy	haze 
Thu Feb 4 03:55:09 2010	Columbus, OH (43085) 	31 0 	25 -3 	78	NNW	4	26	1028.5 30.38 	4	cloudy	haze 
Thu Feb 4 04:38:26 2010	Columbus, OH (43085) 	30 -1 	25 -3 	81	NNW	3	26	1029.1 30.40 	4	cloudy	haze 
Thu Feb 4 05:21:47 2010	Columbus, OH (43085) 	28 -2 	24 -4 	85	NNW	4	23	1029.0 30.40 	3	partly cloudy	haze 
Thu Feb 4 06:04:37 2010	Columbus, OH (43085) 	27 -2 	24 -4 	89	calm		27	1029.3 30.40 	3	clear	haze
Thu Feb 4 06:47:42 2010	Columbus, OH (43085) 	27 -2 	24 -4 	89	calm		27	1029.3 30.40 	3	clear	haze
Thu Feb 4 07:31:16 2010	Columbus, OH (43085) 	25 -3 	23 -5 	92	calm		25	1029.1 30.40 	2	clear	haze
Thu Feb 4 08:13:50 2010	Columbus, OH (43085) 	26 -3 	23 -5 	88	calm		26	1028.9 30.39 	2	clear	haze
Thu Feb 4 08:57:32 2010	Columbus, OH (43085) 	26 -3 	23 -5 	88	calm		26	1028.9 30.39 	2	clear	haze
Thu Feb 4 09:41:27 2010	Columbus, OH (43085) 	24 -4 	22 -5 	91	calm		24	1028.9 30.39 	1	clear	haze
Thu Feb 4 10:25:06 2010	Columbus, OH (43085) 	23 -5 	22 -5 	95	calm		23	1029.7 30.42 	0	clear	fog
Thu Feb 4 11:11:02 2010	Columbus, OH (43085) 	23 -5 	21 -6 	92	calm		23	1029.9 30.42 	2	clear	haze
Thu Feb 4 11:54:34 2010	Columbus, OH (43085) 	23 -5 	21 -6 	92	calm		23	1029.9 30.42 	2	clear	haze
Thu Feb 4 12:37:39 2010	Columbus, OH (43085) 	21 -6 	20 -6 	95	calm		21	1029.7 30.42 	2	clear	haze
Thu Feb 4 13:21:44 2010	Columbus, OH (43085) 	22 -5 	20 -6 	92	calm		22	1030.0 30.42 	1	mostly cloudy	haze 
Thu Feb 4 14:06:34 2010	Columbus, OH (43085) 	22 -5 	20 -6 	92	calm		22	1030.8 30.45 	1	clear	haze
Thu Feb 4 14:59:21 2010	Columbus, OH (43085) 	22 -5 	20 -6 	92	calm		22	1030.8 30.45 	1	clear	haze
Thu Jan 28 15:38:59 2010	Columbus, OH (43085) 	22 -5 	15 -9 	75	W	18	7	1023.4 30.23 	7	clear	
Thu Jan 28 15:59:48 2010	Columbus, OH (43085) 	22 -5 	15 -9 	75	W	18	7	1023.4 30.23 	7	clear	
Thu Jan 28 16:49:08 2010	Columbus, OH (43085) 	20 -6 	12-Oct	65	WNW	21	3	1024.9 30.27 	10	mostly cloudy	
Thu Jan 28 17:13:23 2010	Columbus, OH (43085) 	19 -7 	12-Oct	67	W	14	4	1026.3 30.32 	10	mostly cloudy	
Thu Jan 28 17:29:22 2010	Columbus, OH (43085) 	19 -7 	12-Oct	67	W	14	4	1026.3 30.32 	10	mostly cloudy	
Tue Feb 2 00:28:18 2010	Columbus, OH (43085) 	32 0 	16 -8 	51	calm		32	1024.9 30.27 	10	clear	
Tue Feb 2 01:13:54 2010	Columbus, OH (43085) 	30 -1 	16 -8 	55	calm		30	1024.8 30.27 	10	clear	
Tue Feb 2 01:57:03 2010	Columbus, OH (43085) 	30 -1 	16 -8 	55	calm		30	1024.8 30.27 	10	clear	
Tue Feb 2 02:41:06 2010	Columbus, OH (43085) 	27 -2 	16 -8 	63	E	3	23	1024.5 30.26 	9	clear	
Tue Feb 2 03:24:37 2010	Columbus, OH (43085) 	26 -3 	17 -8 	68	E	3	22	1023.7 30.24 	9	clear	
Tue Feb 2 04:08:25 2010	Columbus, OH (43085) 	24 -4 	17 -8 	74	calm		24	1023.7 30.24 	8	clear	
Tue Feb 2 04:51:57 2010	Columbus, OH (43085) 	24 -4 	17 -8 	74	calm		24	1023.7 30.24 	8	clear	
Tue Feb 2 05:35:20 2010	Columbus, OH (43085) 	25 -3 	17 -8 	71	E	3	21	1023.2 30.22 	8	clear	
Tue Feb 2 06:18:36 2010	Columbus, OH (43085) 	26 -3 	18 -7 	71	E	3	22	1022.8 30.21 	9	cloudy	
Tue Feb 2 07:05:44 2010	Columbus, OH (43085) 	27 -2 	19 -7 	71	ESE	3	23	1022.4 30.20 	9	cloudy	
Tue Feb 2 07:48:44 2010	Columbus, OH (43085) 	27 -2 	19 -7 	71	ESE	3	23	1022.4 30.20 	9	cloudy	
Tue Feb 2 08:31:57 2010	Columbus, OH (43085) 	28 -2 	19 -7 	69	SE	4	23	1022.1 30.19 	10	cloudy	
Tue Feb 2 09:15:26 2010	Columbus, OH (43085) 	28 -2 	21 -6 	75	E	3	24	1021.9 30.19 	9	cloudy	
Tue Feb 2 09:58:58 2010	Columbus, OH (43085) 	28 -2 	21 -6 	75	E	3	24	1021.9 30.19 	9	cloudy	
Tue Feb 2 10:42:31 2010	Columbus, OH (43085) 	29 -1 	21 -6 	72	calm		29	1021.5 30.17 	9	cloudy	
Tue Feb 2 11:26:38 2010	Columbus, OH (43085) 	29 -1 	21 -6 	72	SE	5	23	1020.9 30.16 	2	cloudy	light snow 
Tue Feb 2 12:10:39 2010	Columbus, OH (43085) 	27 -2 	25 -3 	92	calm		27	1021.0 30.16 	1	cloudy	light snow 
Tue Feb 2 12:54:34 2010	Columbus, OH (43085) 	27 -2 	25 -3 	92	calm		27	1021.0 30.16 	1	cloudy	light snow 
Tue Feb 2 13:37:51 2010	Columbus, OH (43085) 	27 -2 	26 -3 	96	NE	4	22	1020.5 30.14 	2	cloudy	light snow 
Tue Feb 2 14:21:33 2010	Columbus, OH (43085) 	28 -2 	26 -3 	92	E	4	23	1020.2 30.14 	2	cloudy	haze 
Tue Feb 2 15:05:54 2010	Columbus, OH (43085) 	29 -1 	27 -2 	92	calm		29	1019.7 30.12 	2	cloudy	haze 
Tue Feb 2 15:52:20 2010	Columbus, OH (43085) 	29 -1 	27 -2 	92	calm		29	1019.7 30.12 	2	cloudy	haze 
Tue Feb 2 16:44:50 2010	Columbus, OH (43085) 	31 0 	26 -3 	82	E	5	25	1019.7 30.12 	5	mostly cloudy	haze 
Tue Feb 2 17:33:16 2010	Columbus, OH (43085) 	32 0 	24 -4 	72	E	4	27	1019.4 30.11 	8	cloudy	
Tue Feb 2 18:17:53 2010	Columbus, OH (43085) 	33 0 	22 -5 	63	E	5	28	1018.5 30.09 	10	cloudy	
Tue Feb 2 19:02:04 2010	Columbus, OH (43085) 	35 1 	22 -5 	58	SE	4	31	1017.2 30.05 	10	cloudy	
Tue Feb 2 19:51:23 2010	Columbus, OH (43085) 	35 1 	22 -5 	58	SE	4	31	1017.2 30.05 	10	cloudy	
Tue Feb 2 20:42:37 2010	Columbus, OH (43085) 	38 3 	22 -5 	52	N	3	35	1016.0 30.01 	10	mostly cloudy	
Tue Feb 2 21:29:29 2010	Columbus, OH (43085) 	40 4 	22 -5 	48	ESE	3	38	1015.2 29.99 	10	cloudy	
Tue Feb 2 22:17:51 2010	Columbus, OH (43085) 	41 5 	21 -6 	44	S	4	38	1015.0 29.98 	10	cloudy	
Tue Feb 2 23:02:09 2010	Columbus, OH (43085) 	40 4 	22 -5 	48	SSW	3	38	1015.4 29.99 	10	cloudy	
Tue Feb 2 23:47:08 2010	Columbus, OH (43085) 	40 4 	22 -5 	48	SSW	3	38	1015.4 29.99 	10	cloudy	
Wed Feb 3 00:31:53 2010	Columbus, OH (43085) 	37 2 	23 -5 	57	calm		37	1015.8 30.01 	10	cloudy	
Wed Feb 3 01:19:03 2010	Columbus, OH (43085) 	38 3 	20 -6 	48	calm		38	1016.0 30.01 	10	cloudy	
Wed Feb 3 02:03:51 2010	Columbus, OH (43085) 	36 2 	24 -4 	62	NNW	3	33	1016.2 30.02 	10	cloudy	
Wed Feb 3 02:52:34 2010	Columbus, OH (43085) 	36 2 	24 -4 	62	NNW	3	33	1016.2 30.02 	10	cloudy	
Wed Feb 3 03:39:23 2010	Columbus, OH (43085) 	36 2 	24 -4 	62	NNW	5	31	1016.5 30.03 	10	cloudy	
Wed Feb 3 04:27:33 2010	Columbus, OH (43085) 	34 1 	26 -3 	72	WNW	3	31	1016.6 30.03 	10	cloudy	
Wed Feb 3 05:14:21 2010	Columbus, OH (43085) 	35 1 	27 -2 	72	W	6	29	1017.0 30.04 	9	cloudy	
Wed Feb 3 06:02:09 2010	Columbus, OH (43085) 	34 1 	28 -2 	78	W	8	27	1017.4 30.05 	9	cloudy	
Wed Feb 3 06:48:54 2010	Columbus, OH (43085) 	34 1 	28 -2 	78	W	8	27	1017.4 30.05 	9	cloudy	
Wed Feb 3 07:33:30 2010	Columbus, OH (43085) 	34 1 	27 -2 	75	WNW	10	26	1017.9 30.07 	7	cloudy	
Wed Feb 3 08:16:41 2010	Columbus, OH (43085) 	33 0 	27 -2 	78	W	10	24	1018.4 30.08 	6	cloudy	haze 
Wed Feb 3 09:03:08 2010	Columbus, OH (43085) 	33 0 	28 -2 	81	W	10	24	1018.7 30.09 	5	cloudy	haze 
Wed Feb 3 09:46:28 2010	Columbus, OH (43085) 	33 0 	28 -2 	81	W	10	24	1018.7 30.09 	5	cloudy	haze 
Wed Feb 3 10:30:20 2010	Columbus, OH (43085) 	33 0 	28 -2 	81	W	8	26	1019.2 30.11 	4	cloudy	haze 
Wed Feb 3 11:17:13 2010	Columbus, OH (43085) 	32 0 	29 -1 	88	W	10	23	1020.3 30.14 	3	cloudy	light snow 
Wed Feb 3 12:01:58 2010	Columbus, OH (43085) 	32 0 	29 -1 	88	W	9	24	1021.1 30.16 	4	cloudy	haze 
Wed Feb 3 12:45:11 2010	Columbus, OH (43085) 	32 0 	29 -1 	88	W	9	24	1021.1 30.16 	4	cloudy	haze 
Wed Feb 3 13:28:55 2010	Columbus, OH (43085) 	32 0 	29 -1 	88	W	7	25	1021.3 30.17 	4	cloudy	haze 
Wed Feb 3 14:15:01 2010	Columbus, OH (43085) 	31 0 	28 -2 	89	W	9	22	1021.9 30.19 	3	cloudy	haze 
Wed Feb 3 15:01:00 2010	Columbus, OH (43085) 	31 0 	26 -3 	82	WNW	7	23	1022.5 30.20 	4	cloudy	haze 
Wed Feb 3 15:45:50 2010	Columbus, OH (43085) 	31 0 	26 -3 	82	WNW	7	23	1022.5 30.20 	4	cloudy	haze 
Wed Feb 3 16:31:41 2010	Columbus, OH (43085) 	33 0 	26 -3 	75	W	9	25	1023.5 30.23 	4	mostly cloudy	haze 
Wed Feb 3 17:18:54 2010	Columbus, OH (43085) 	33 0 	26 -3 	75	W	9	25	1024.3 30.26 	4	cloudy	haze 
Wed Feb 3 18:07:12 2010	Columbus, OH (43085) 	34 1 	25 -3 	69	W	11	25	1024.2 30.25 	5	cloudy	haze 
Wed Feb 3 18:50:18 2010	Columbus, OH (43085) 	34 1 	25 -3 	69	W	11	25	1024.2 30.25 	5	cloudy	haze 
Wed Feb 3 19:34:34 2010	Columbus, OH (43085) 	34 1 	24 -4 	67	W	11	25	1024.0 30.25 	7	cloudy	
Wed Feb 3 20:18:40 2010	Columbus, OH (43085) 	34 1 	24 -4 	67	W	8	27	1024.1 30.25 	7	cloudy	
Wed Feb 3 21:02:57 2010	Columbus, OH (43085) 	34 1 	24 -4 	67	W	9	26	1024.2 30.25 	7	cloudy	
Wed Feb 3 21:51:04 2010	Columbus, OH (43085) 	34 1 	24 -4 	67	W	9	26	1024.2 30.25 	7	cloudy	
Wed Feb 3 22:36:36 2010	Columbus, OH (43085) 	33 0 	24 -4 	69	WNW	10	24	1024.7 30.27 	6	cloudy	haze 
Wed Feb 3 23:27:30 2010	Columbus, OH (43085) 	32 0 	25 -3 	75	W	7	25	1025.3 30.29 	4	cloudy	haze 
Fri Jan 29 08:41:35 2010	Dallas, TX (75201) 	43 6 	41 5 	93	W	4	40	1017.5 30.06 	6	cloudy	moderate rain 
Fri Jan 29 09:25:30 2010	Dallas, TX (75201) 	42 5 	41 5 	96	NNE	6	38	1016.3 30.02 	6	cloudy	light rain 
Fri Jan 29 11:57:32 2010	Dallas, TX (75201) 	41 5 	39 3 	93	NE	7	36	1015.8 30.01 	6	cloudy	light rain 
Fri Jan 29 12:42:14 2010	Dallas, TX (75201) 	41 5 	39 3 	93	NE	8	35	1016.1 30.01 	6	cloudy	light rain 
Fri Jan 29 13:29:57 2010	Dallas, TX (75201) 	39 3 	38 3 	96	NNE	5	35	1016.0 30.01 	6	cloudy	light rain 
Fri Jan 29 14:17:49 2010	Dallas, TX (75201) 	39 3 	37 2 	92	N	7	33	1016.4 30.02 	6	cloudy	light rain 
Fri Jan 29 15:02:36 2010	Dallas, TX (75201) 	38 3 	36 2 	93	N	4	34	1017.1 30.04 	5	cloudy	light rain 
Fri Jan 29 15:48:09 2010	Dallas, TX (75201) 	38 3 	36 2 	93	N	4	34	1017.1 30.04 	5	cloudy	light rain 
Fri Jan 29 16:35:53 2010	Dallas, TX (75201) 	38 3 	36 2 	93	N	6	33	1018.2 30.08 	6	cloudy	light rain 
Fri Jan 29 17:20:21 2010	Dallas, TX (75201) 	38 3 	36 2 	93	NNW	8	31	1017.9 30.07 	8	cloudy	light rain 
Fri Jan 29 18:08:49 2010	Dallas, TX (75201) 	38 3 	36 2 	93	NW	6	33	1019.1 30.10 	10	cloudy	light rain 
Fri Jan 29 18:53:50 2010	Dallas, TX (75201) 	38 3 	36 2 	93	NW	6	33	1019.1 30.10 	10	cloudy	light rain 
Fri Jan 29 19:45:49 2010	Dallas, TX (75201) 	37 2 	35 1 	93	NW	12	28	1017.4 30.05 	7	cloudy	light rain 
Fri Jan 29 20:43:37 2010	Dallas, TX (75201) 	37 2 	35 1 	93	NW	12	28	1016.5 30.03 	10	cloudy	
Fri Jan 29 21:28:15 2010	Dallas, TX (75201) 	37 2 	34 1 	89	NW	12	28	1016.0 30.01 	4	cloudy	light rain 
Fri Jan 29 22:14:51 2010	Dallas, TX (75201) 	35 1 	31 0 	84	WNW	16	25	1016.2 30.02 	10	cloudy	light drizzle 
Fri Jan 29 22:59:46 2010	Dallas, TX (75201) 	35 1 	31 0 	84	WNW	16	25	1016.2 30.02 	10	cloudy	light drizzle 
Fri Jan 29 23:44:04 2010	Dallas, TX (75201) 	34 1 	31 0 	88	NW	12	25	1016.8 30.03 	10	cloudy	
Mon Feb 1 00:11:02 2010	Dallas, TX (75201) 	38 3 	30 -1 	73	S	4	34	1023.4 30.23 	10	mostly cloudy	
Mon Feb 1 00:53:59 2010	Dallas, TX (75201) 	38 3 	30 -1 	73	S	4	34	1023.4 30.23 	10	mostly cloudy	
Mon Feb 1 01:40:20 2010	Dallas, TX (75201) 	38 3 	29 -1 	70	SSW	3	35	1023.1 30.22 	10	cloudy	
Mon Feb 1 02:24:16 2010	Dallas, TX (75201) 	37 2 	29 -1 	72	calm		37	1022.8 30.21 	10	mostly cloudy	
Mon Feb 1 03:07:57 2010	Dallas, TX (75201) 	36 2 	29 -1 	75	calm		36	1022.8 30.21 	10	mostly cloudy	
Mon Feb 1 03:52:37 2010	Dallas, TX (75201) 	36 2 	29 -1 	75	calm		36	1022.8 30.21 	10	mostly cloudy	
Mon Feb 1 04:37:25 2010	Dallas, TX (75201) 	35 1 	29 -1 	78	calm		35	1022.8 30.21 	10	partly cloudy	
Mon Feb 1 05:20:34 2010	Dallas, TX (75201) 	32 0 	29 -1 	88	calm		32	1023.0 30.22 	10	mostly cloudy	
Mon Feb 1 06:05:27 2010	Dallas, TX (75201) 	33 0 	29 -1 	84	calm		33	1022.9 30.22 	10	partly cloudy	
Mon Feb 1 06:48:38 2010	Dallas, TX (75201) 	33 0 	29 -1 	84	calm		33	1022.9 30.22 	10	partly cloudy	
Mon Feb 1 07:32:25 2010	Dallas, TX (75201) 	31 0 	28 -2 	89	calm		31	1022.5 30.20 	6	mostly cloudy	haze 
Mon Feb 1 08:15:32 2010	Dallas, TX (75201) 	34 1 	30 -1 	85	W	3	31	1022.7 30.21 	6	mostly cloudy	haze 
Mon Feb 1 08:59:18 2010	Dallas, TX (75201) 	34 1 	30 -1 	85	W	3	31	1022.7 30.21 	6	mostly cloudy	haze 
Mon Feb 1 09:42:16 2010	Dallas, TX (75201) 	32 0 	29 -1 	88	calm		32	1022.0 30.19 	6	partly cloudy	haze 
Mon Feb 1 10:25:49 2010	Dallas, TX (75201) 	33 0 	29 -1 	84	calm		33	1022.0 30.19 	6	mostly cloudy	haze 
Mon Feb 1 11:08:46 2010	Dallas, TX (75201) 	33 0 	30 -1 	88	calm		33	1021.6 30.18 	6	mostly cloudy	haze 
Mon Feb 1 11:52:13 2010	Dallas, TX (75201) 	33 0 	30 -1 	88	calm		33	1021.6 30.18 	6	mostly cloudy	haze 
Mon Feb 1 12:35:34 2010	Dallas, TX (75201) 	33 0 	30 -1 	88	calm		33	1021.2 30.16 	6	mostly cloudy	haze 
Mon Feb 1 13:19:08 2010	Dallas, TX (75201) 	32 0 	30 -1 	92	E	3	29	1020.5 30.14 	6	mostly cloudy	haze 
Mon Feb 1 14:03:00 2010	Dallas, TX (75201) 	33 0 	30 -1 	88	ESE	3	30	1020.3 30.14 	5	mostly cloudy	haze 
Mon Feb 1 14:48:06 2010	Dallas, TX (75201) 	33 0 	30 -1 	88	ESE	3	30	1020.3 30.14 	5	mostly cloudy	haze 
Mon Feb 1 15:31:50 2010	Dallas, TX (75201) 	35 1 	31 0 	84	SE	6	29	1020.1 30.13 	5	cloudy	haze 
Mon Feb 1 16:16:18 2010	Dallas, TX (75201) 	36 2 	31 0 	82	SSW	3	33	1020.8 30.15 	5	cloudy	haze 
Mon Feb 1 17:01:17 2010	Dallas, TX (75201) 	38 3 	32 0 	79	S	5	33	1020.8 30.15 	6	cloudy	haze 
Mon Feb 1 17:45:08 2010	Dallas, TX (75201) 	38 3 	32 0 	79	S	5	33	1020.8 30.15 	6	cloudy	haze 
Mon Feb 1 18:28:37 2010	Dallas, TX (75201) 	41 5 	33 0 	73	S	5	37	1020.3 30.14 	7	mostly cloudy	
Mon Feb 1 19:12:24 2010	Dallas, TX (75201) 	45 7 	34 1 	65	S	8	40	1019.8 30.12 	9	mostly cloudy	
Mon Feb 1 19:57:14 2010	Dallas, TX (75201) 	45 7 	34 1 	65	S	8	40	1019.8 30.12 	9	mostly cloudy	
Mon Feb 1 20:43:40 2010	Dallas, TX (75201) 	45 7 	35 1 	68	SW	6	41	1018.7 30.09 	8	cloudy	
Mon Feb 1 21:28:35 2010	Dallas, TX (75201) 	46 7 	36 2 	68	SW	6	42	1017.5 30.06 	10	cloudy	
Mon Feb 1 22:11:59 2010	Dallas, TX (75201) 	46 7 	36 2 	68	WSW	7	42	1016.9 30.04 	10	cloudy	
Mon Feb 1 22:55:18 2010	Dallas, TX (75201) 	46 7 	36 2 	68	WSW	7	42	1016.9 30.04 	10	cloudy	
Mon Feb 1 23:41:27 2010	Dallas, TX (75201) 	47 8 	37 2 	68	WSW	4	45	1016.6 30.03 	10	cloudy	
Sat Jan 30 00:28:08 2010	Dallas, TX (75201) 	33 0 	29 -1 	84	NW	14	23	1017.5 30.06 	10	cloudy	
Sat Jan 30 01:12:17 2010	Dallas, TX (75201) 	33 0 	27 -2 	78	NW	17	22	1018.3 30.08 	10	cloudy	
Sat Jan 30 01:55:50 2010	Dallas, TX (75201) 	33 0 	27 -2 	78	NW	17	22	1018.3 30.08 	10	cloudy	
Sat Jan 30 02:40:31 2010	Dallas, TX (75201) 	32 0 	25 -3 	75	NW	20	19	1018.7 30.09 	10	cloudy	
Sat Jan 30 03:24:03 2010	Dallas, TX (75201) 	32 0 	25 -3 	75	NW	15	21	1019.0 30.10 	10	cloudy	
Sat Jan 30 04:07:57 2010	Dallas, TX (75201) 	31 0 	24 -4 	76	NW	13	20	1019.5 30.11 	10	cloudy	
Sat Jan 30 04:51:43 2010	Dallas, TX (75201) 	31 0 	24 -4 	76	NW	13	20	1019.5 30.11 	10	cloudy	
Sat Jan 30 05:35:26 2010	Dallas, TX (75201) 	31 0 	25 -3 	78	NW	14	20	1019.8 30.12 	10	cloudy	
Sat Jan 30 06:19:34 2010	Dallas, TX (75201) 	30 -1 	24 -4 	78	NNW	12	20	1020.0 30.13 	10	cloudy	
Sat Jan 30 07:05:33 2010	Dallas, TX (75201) 	30 -1 	23 -5 	75	NNW	16	18	1020.4 30.14 	10	cloudy	
Sat Jan 30 07:48:15 2010	Dallas, TX (75201) 	30 -1 	23 -5 	75	NNW	16	18	1020.4 30.14 	10	cloudy	
Sat Jan 30 08:31:28 2010	Dallas, TX (75201) 	29 -1 	23 -5 	78	NW	14	17	1020.3 30.14 	10	cloudy	
Sat Jan 30 11:13:14 2010	Dallas, TX (75201) 	27 -2 	21 -6 	78	NNW	14	15	1020.9 30.16 	10	cloudy	
Sat Jan 30 12:01:02 2010	Dallas, TX (75201) 	27 -2 	21 -6 	78	NNW	11	16	1021.3 30.17 	10	cloudy	
Sat Jan 30 12:44:40 2010	Dallas, TX (75201) 	27 -2 	21 -6 	78	NNW	11	16	1021.3 30.17 	10	cloudy	
Sat Jan 30 13:27:56 2010	Dallas, TX (75201) 	27 -2 	20 -6 	74	NNW	14	15	1021.8 30.18 	10	cloudy	
Sat Jan 30 14:12:07 2010	Dallas, TX (75201) 	27 -2 	20 -6 	74	NNW	9	17	1022.5 30.20 	10	cloudy	
Sat Jan 30 14:56:10 2010	Dallas, TX (75201) 	27 -2 	20 -6 	74	NNW	9	17	1022.5 30.20 	10	cloudy	
Sat Jan 30 15:42:00 2010	Dallas, TX (75201) 	27 -2 	21 -6 	78	N	10	17	1023.5 30.23 	10	cloudy	
Sat Jan 30 16:27:00 2010	Dallas, TX (75201) 	27 -2 	20 -6 	74	NNW	11	16	1024.7 30.27 	10	cloudy	
Sat Jan 30 17:11:25 2010	Dallas, TX (75201) 	27 -2 	20 -6 	74	N	11	16	1025.2 30.28 	10	cloudy	
Sat Jan 30 17:54:38 2010	Dallas, TX (75201) 	27 -2 	20 -6 	74	N	11	16	1025.2 30.28 	10	cloudy	
Sat Jan 30 18:38:37 2010	Dallas, TX (75201) 	28 -2 	21 -6 	75	N	11	17	1025.4 30.29 	10	cloudy	
Sat Jan 30 19:21:56 2010	Dallas, TX (75201) 	30 -1 	22 -5 	71	N	13	19	1025.1 30.28 	10	cloudy	
Sat Jan 30 20:06:10 2010	Dallas, TX (75201) 	30 -1 	23 -5 	75	NNW	11	20	1024.6 30.27 	10	cloudy	
Sat Jan 30 20:49:16 2010	Dallas, TX (75201) 	30 -1 	23 -5 	75	NNW	11	20	1024.6 30.27 	10	cloudy	
Sat Jan 30 21:33:03 2010	Dallas, TX (75201) 	30 -1 	22 -5 	71	N	9	21	1024.3 30.26 	10	cloudy	
Sat Jan 30 22:16:17 2010	Dallas, TX (75201) 	31 0 	23 -5 	72	NNW	8	23	1024.3 30.26 	10	cloudy	
Sat Jan 30 23:01:58 2010	Dallas, TX (75201) 	31 0 	24 -4 	76	N	7	23	1024.2 30.25 	10	cloudy	
Sat Jan 30 23:46:36 2010	Dallas, TX (75201) 	31 0 	24 -4 	76	N	7	23	1024.2 30.25 	10	cloudy	
Sun Jan 31 00:30:33 2010	Dallas, TX (75201) 	31 0 	25 -3 	78	N	10	22	1024.3 30.26 	10	cloudy	
Sun Jan 31 01:21:18 2010	Dallas, TX (75201) 	31 0 	25 -3 	78	N	8	23	1024.7 30.27 	10	cloudy	
Sun Jan 31 02:05:19 2010	Dallas, TX (75201) 	31 0 	25 -3 	78	N	7	23	1024.9 30.27 	10	cloudy	
Sun Jan 31 02:48:45 2010	Dallas, TX (75201) 	31 0 	25 -3 	78	N	7	23	1024.9 30.27 	10	cloudy	
Sun Jan 31 03:32:37 2010	Dallas, TX (75201) 	31 0 	25 -3 	78	NW	8	23	1025.4 30.29 	10	cloudy	
Sun Jan 31 04:16:03 2010	Dallas, TX (75201) 	31 0 	25 -3 	78	N	8	23	1025.5 30.29 	10	cloudy	
Sun Jan 31 05:00:41 2010	Dallas, TX (75201) 	31 0 	25 -3 	78	NNE	8	23	1025.4 30.29 	10	cloudy	
Sun Jan 31 05:46:43 2010	Dallas, TX (75201) 	31 0 	25 -3 	78	NNE	8	23	1025.4 30.29 	10	cloudy	
Sun Jan 31 06:31:54 2010	Dallas, TX (75201) 	31 0 	25 -3 	78	NE	6	24	1025.7 30.30 	10	cloudy	
Sun Jan 31 07:14:47 2010	Dallas, TX (75201) 	30 -1 	25 -3 	81	NE	3	26	1025.8 30.30 	10	cloudy	
Sun Jan 31 08:01:31 2010	Dallas, TX (75201) 	31 0 	25 -3 	78	NNE	5	25	1025.5 30.29 	10	cloudy	
Sun Jan 31 08:46:12 2010	Dallas, TX (75201) 	31 0 	25 -3 	78	NNE	5	25	1025.5 30.29 	10	cloudy	
Sun Jan 31 09:29:26 2010	Dallas, TX (75201) 	31 0 	26 -3 	82	E	5	25	1025.7 30.30 	10	cloudy	
Sun Jan 31 10:12:38 2010	Dallas, TX (75201) 	31 0 	26 -3 	82	calm		31	1025.7 30.30 	10	cloudy	
Sun Jan 31 10:56:23 2010	Dallas, TX (75201) 	31 0 	26 -3 	82	calm		31	1025.7 30.30 	10	cloudy	
Sun Jan 31 11:39:51 2010	Dallas, TX (75201) 	31 0 	26 -3 	82	E	3	27	1025.8 30.30 	10	cloudy	
Sun Jan 31 12:23:31 2010	Dallas, TX (75201) 	31 0 	26 -3 	82	calm		31	1026.0 30.31 	10	cloudy	
Sun Jan 31 13:06:54 2010	Dallas, TX (75201) 	31 0 	27 -2 	85	E	5	25	1026.3 30.32 	10	cloudy	
Sun Jan 31 13:50:32 2010	Dallas, TX (75201) 	31 0 	27 -2 	85	E	5	25	1026.3 30.32 	10	cloudy	
Sun Jan 31 14:33:22 2010	Dallas, TX (75201) 	31 0 	26 -3 	82	ESE	5	25	1026.5 30.32 	10	cloudy	
Sun Jan 31 15:17:27 2010	Dallas, TX (75201) 	31 0 	26 -3 	82	E	3	27	1026.8 30.33 	7	cloudy	
Sun Jan 31 16:00:58 2010	Dallas, TX (75201) 	31 0 	27 -2 	85	SE	7	23	1027.0 30.34 	7	cloudy	
Sun Jan 31 16:50:45 2010	Dallas, TX (75201) 	31 0 	27 -2 	85	SE	7	23	1027.0 30.34 	7	cloudy	
Sun Jan 31 17:34:23 2010	Dallas, TX (75201) 	32 0 	27 -2 	82	SE	3	29	1027.3 30.35 	6	cloudy	haze 
Sun Jan 31 18:19:23 2010	Dallas, TX (75201) 	32 0 	27 -2 	82	S	5	26	1027.1 30.34 	6	cloudy	haze 
Sun Jan 31 19:03:10 2010	Dallas, TX (75201) 	34 1 	28 -2 	78	calm		34	1026.3 30.32 	6	cloudy	haze 
Sun Jan 31 19:48:32 2010	Dallas, TX (75201) 	34 1 	28 -2 	78	calm		34	1026.3 30.32 	6	cloudy	haze 
Sun Jan 31 20:31:30 2010	Dallas, TX (75201) 	34 1 	28 -2 	78	SSE	6	28	1025.3 30.29 	6	cloudy	haze 
Sun Jan 31 21:15:44 2010	Dallas, TX (75201) 	36 2 	28 -2 	72	ENE	6	30	1023.8 30.24 	6	cloudy	haze 
Sun Jan 31 21:58:57 2010	Dallas, TX (75201) 	36 2 	28 -2 	72	ENE	6	30	1023.8 30.24 	6	cloudy	haze 
Sun Jan 31 22:43:46 2010	Dallas, TX (75201) 	37 2 	29 -1 	72	E	6	32	1023.6 30.24 	6	cloudy	haze 
Sun Jan 31 23:27:06 2010	Dallas, TX (75201) 	38 3 	29 -1 	70	calm		38	1023.6 30.24 	10	cloudy	
Thu Feb 4 00:12:27 2010	Dallas, TX (75201) 	44 6 	40 4 	85	E	6	40	1019.0 30.10 	5	cloudy	light rain 
Thu Feb 4 00:56:31 2010	Dallas, TX (75201) 	44 6 	40 4 	85	E	6	40	1019.0 30.10 	5	cloudy	light rain 
Thu Feb 4 01:39:47 2010	Dallas, TX (75201) 	44 6 	39 3 	82	E	7	40	1019.3 30.11 	5	cloudy	haze 
Thu Feb 4 02:27:31 2010	Dallas, TX (75201) 	44 6 	38 3 	79	E	9	39	1018.4 30.08 	6	cloudy	light rain 
Thu Feb 4 03:10:42 2010	Dallas, TX (75201) 	45 7 	37 2 	73	E	10	39	1018.8 30.09 	7	cloudy	light rain 
Thu Feb 4 03:55:10 2010	Dallas, TX (75201) 	45 7 	37 2 	73	E	10	39	1018.8 30.09 	7	cloudy	light rain 
Thu Feb 4 04:38:26 2010	Dallas, TX (75201) 	44 6 	38 3 	79	E	12	37	1017.7 30.06 	7	cloudy	
Thu Feb 4 05:21:47 2010	Dallas, TX (75201) 	44 6 	38 3 	79	E	14	37	1018.6 30.09 	7	cloudy	light rain 
Thu Feb 4 06:04:38 2010	Dallas, TX (75201) 	43 6 	38 3 	82	E	14	35	1016.7 30.03 	7	cloudy	
Thu Feb 4 06:47:42 2010	Dallas, TX (75201) 	43 6 	38 3 	82	E	14	35	1016.7 30.03 	7	cloudy	
Thu Feb 4 07:31:17 2010	Dallas, TX (75201) 	43 6 	39 3 	86	E	11	36	1016.1 30.01 	7	cloudy	
Thu Feb 4 08:13:50 2010	Dallas, TX (75201) 	42 5 	40 4 	92	E	13	35	1015.7 30.00 	6	cloudy	light rain 
Thu Feb 4 08:57:32 2010	Dallas, TX (75201) 	42 5 	40 4 	92	E	13	35	1015.7 30.00 	6	cloudy	light rain 
Thu Feb 4 09:41:27 2010	Dallas, TX (75201) 	42 5 	40 4 	92	E	13	35	1014.9 29.98 	6	cloudy	light rain 
Thu Feb 4 10:25:07 2010	Dallas, TX (75201) 	42 5 	40 4 	92	E	12	35	1015.0 29.98 	5	cloudy	light rain 
Thu Feb 4 11:11:02 2010	Dallas, TX (75201) 	42 5 	40 4 	92	ESE	12	35	1014.0 29.95 	3	cloudy	light drizzle 
Thu Feb 4 11:54:34 2010	Dallas, TX (75201) 	42 5 	40 4 	92	ESE	12	35	1014.0 29.95 	3	cloudy	light drizzle 
Thu Feb 4 12:37:40 2010	Dallas, TX (75201) 	42 5 	40 4 	92	E	8	37	1014.1 29.96 	7	cloudy	light drizzle 
Thu Feb 4 13:21:44 2010	Dallas, TX (75201) 	42 5 	40 4 	92	calm		42	1014.8 29.98 	5	cloudy	light rain 
Thu Feb 4 14:06:34 2010	Dallas, TX (75201) 	42 5 	40 4 	92		4	39	1014.7 29.97 	6	cloudy	light rain 
Thu Feb 4 14:59:21 2010	Dallas, TX (75201) 	42 5 	40 4 	92		4	39	1014.7 29.97 	6	cloudy	light rain 
Thu Jan 28 15:39:00 2010	Dallas, TX (75201) 	56 13 	52 11 	87	ESE	13		1020.5 30.14 	8	cloudy	light rain 
Thu Jan 28 15:59:48 2010	Dallas, TX (75201) 	56 13 	52 11 	87	ESE	13		1020.5 30.14 	8	cloudy	light rain 
Thu Jan 28 16:49:08 2010	Dallas, TX (75201) 	56 13 	52 11 	87	ESE	10		1020.3 30.14 	10	cloudy	light rain 
Thu Jan 28 17:13:23 2010	Dallas, TX (75201) 	56 13 	52 11 	87	E	10		1019.7 30.12 	10	cloudy	
Thu Jan 28 17:29:22 2010	Dallas, TX (75201) 	56 13 	52 11 	87	E	10		1019.7 30.12 	10	cloudy	
Tue Feb 2 00:28:19 2010	Dallas, TX (75201) 	47 8 	37 2 	68	SSE	9	42	1017.0 30.04 	10	cloudy	
Tue Feb 2 01:13:55 2010	Dallas, TX (75201) 	46 7 	37 2 	71	S	7	42	1017.1 30.04 	10	cloudy	
Tue Feb 2 01:57:03 2010	Dallas, TX (75201) 	46 7 	37 2 	71	S	7	42	1017.1 30.04 	10	cloudy	
Tue Feb 2 02:41:06 2010	Dallas, TX (75201) 	45 7 	38 3 	76	S	5	42	1017.8 30.06 	10	cloudy	
Tue Feb 2 03:24:38 2010	Dallas, TX (75201) 	45 7 	39 3 	79	SSE	6	41	1018.0 30.07 	10	cloudy	
Tue Feb 2 04:08:25 2010	Dallas, TX (75201) 	45 7 	39 3 	79	calm		45	1018.4 30.08 	7	cloudy	
Tue Feb 2 04:51:57 2010	Dallas, TX (75201) 	45 7 	39 3 	79	calm		45	1018.4 30.08 	7	cloudy	
Tue Feb 2 05:35:20 2010	Dallas, TX (75201) 	44 6 	39 3 	82	calm		44	1018.6 30.09 	5	cloudy	haze 
Tue Feb 2 06:18:37 2010	Dallas, TX (75201) 	45 7 	40 4 	82	calm		45	1019.0 30.10 	6	cloudy	haze 
Tue Feb 2 07:05:45 2010	Dallas, TX (75201) 	42 5 	38 3 	85	NNW	5	38	1019.2 30.11 	6	cloudy	haze 
Tue Feb 2 07:48:45 2010	Dallas, TX (75201) 	42 5 	38 3 	85	NNW	5	38	1019.2 30.11 	6	cloudy	haze 
Tue Feb 2 08:31:57 2010	Dallas, TX (75201) 	42 5 	37 2 	82	N	6	38	1019.8 30.12 	5	cloudy	haze 
Tue Feb 2 09:15:26 2010	Dallas, TX (75201) 	41 5 	36 2 	82	NNE	5	37	1019.8 30.12 	5	cloudy	haze 
Tue Feb 2 09:58:59 2010	Dallas, TX (75201) 	41 5 	36 2 	82	NNE	5	37	1019.8 30.12 	5	cloudy	haze 
Tue Feb 2 10:42:32 2010	Dallas, TX (75201) 	42 5 	37 2 	82	NNE	3	40	1020.2 30.14 	5	cloudy	haze 
Tue Feb 2 11:26:38 2010	Dallas, TX (75201) 	42 5 	37 2 	82	N	4	39	1020.4 30.14 	6	cloudy	haze 
Tue Feb 2 12:10:39 2010	Dallas, TX (75201) 	42 5 	38 3 	85	N	3	40	1020.5 30.14 	7	cloudy	
Tue Feb 2 12:54:34 2010	Dallas, TX (75201) 	42 5 	38 3 	85	N	3	40	1020.5 30.14 	7	cloudy	
Tue Feb 2 13:37:51 2010	Dallas, TX (75201) 	42 5 	37 2 	82	NNW	3	40	1021.1 30.16 	7	cloudy	
Tue Feb 2 14:21:34 2010	Dallas, TX (75201) 	43 6 	36 2 	76	N	7	38	1021.9 30.19 	7	cloudy	
Tue Feb 2 15:05:55 2010	Dallas, TX (75201) 	42 5 	36 2 	79	N	8	37	1022.4 30.20 	9	cloudy	
Tue Feb 2 15:52:20 2010	Dallas, TX (75201) 	42 5 	36 2 	79	N	8	37	1022.4 30.20 	9	cloudy	
Tue Feb 2 16:44:50 2010	Dallas, TX (75201) 	43 6 	34 1 	70	N	8	38	1023.2 30.22 	10	cloudy	
Tue Feb 2 17:33:17 2010	Dallas, TX (75201) 	43 6 	34 1 	70	N	7	38	1023.6 30.24 	10	cloudy	
Tue Feb 2 18:17:53 2010	Dallas, TX (75201) 	45 7 	34 1 	65	N	8	40	1023.5 30.23 	10	mostly cloudy	
Tue Feb 2 19:02:05 2010	Dallas, TX (75201) 	46 7 	34 1 	63	N	4	44	1023.8 30.24 	10	mostly cloudy	
Tue Feb 2 19:51:23 2010	Dallas, TX (75201) 	46 7 	34 1 	63	N	4	44	1023.8 30.24 	10	mostly cloudy	
Tue Feb 2 20:42:37 2010	Dallas, TX (75201) 	48 8 	34 1 	58	N	5	45	1023.2 30.22 	10	mostly cloudy	
Tue Feb 2 21:29:29 2010	Dallas, TX (75201) 	49 9 	34 1 	56	N	6	46	1022.1 30.19 	10	partly cloudy	
Tue Feb 2 22:17:51 2010	Dallas, TX (75201) 	50 10 	35 1 	56	calm			1022.0 30.19 	10	partly cloudy	
Tue Feb 2 23:02:09 2010	Dallas, TX (75201) 	51 10 	35 1 	54	NNE	9	47	1021.3 30.17 	10	mostly cloudy	
Tue Feb 2 23:47:09 2010	Dallas, TX (75201) 	51 10 	35 1 	54	NNE	9	47	1021.3 30.17 	10	mostly cloudy	
Wed Feb 3 00:31:53 2010	Dallas, TX (75201) 	50 10 	35 1 	56	NNE	9	46	1021.2 30.16 	10	mostly cloudy	
Wed Feb 3 01:19:03 2010	Dallas, TX (75201) 	49 9 	35 1 	59	N	5	47	1021.3 30.17 	10	mostly cloudy	
Wed Feb 3 02:03:51 2010	Dallas, TX (75201) 	48 8 	35 1 	61	calm		48	1022.8 30.21 	10	mostly cloudy	
Wed Feb 3 02:52:34 2010	Dallas, TX (75201) 	48 8 	35 1 	61	calm		48	1022.8 30.21 	10	mostly cloudy	
Wed Feb 3 03:39:23 2010	Dallas, TX (75201) 	44 6 	36 2 	73	NE	4	42	1022.5 30.20 	10	mostly cloudy	
Wed Feb 3 04:27:33 2010	Dallas, TX (75201) 	44 6 	36 2 	73	E	6	40	1023.0 30.22 	10	partly cloudy	
Wed Feb 3 05:14:21 2010	Dallas, TX (75201) 	42 5 	35 1 	76	E	3	40	1023.0 30.22 	10	mostly clear	
Wed Feb 3 06:02:09 2010	Dallas, TX (75201) 	41 5 	35 1 	79	ENE	3	39	1023.1 30.22 	10	mostly cloudy	
Wed Feb 3 06:48:54 2010	Dallas, TX (75201) 	41 5 	35 1 	79	ENE	3	39	1023.1 30.22 	10	mostly cloudy	
Wed Feb 3 07:33:31 2010	Dallas, TX (75201) 	41 5 	35 1 	79	calm		41	1023.3 30.23 	10	cloudy	
Wed Feb 3 08:16:41 2010	Dallas, TX (75201) 	38 3 	34 1 	86	NE	3	35	1023.0 30.22 	10	cloudy	
Wed Feb 3 09:03:09 2010	Dallas, TX (75201) 	38 3 	34 1 	86	ENE	6	33	1021.5 30.17 	10	cloudy	
Wed Feb 3 09:46:28 2010	Dallas, TX (75201) 	38 3 	34 1 	86	ENE	6	33	1021.5 30.17 	10	cloudy	
Wed Feb 3 10:30:21 2010	Dallas, TX (75201) 	38 3 	34 1 	86		3	35	1021.2 30.16 	10	mostly cloudy	
Wed Feb 3 11:17:14 2010	Dallas, TX (75201) 	38 3 	34 1 	86	NE	6	33	1021.1 30.16 	10	mostly cloudy	
Wed Feb 3 12:01:59 2010	Dallas, TX (75201) 	39 3 	34 1 	82	calm		39	1020.7 30.15 	10	cloudy	
Wed Feb 3 12:45:11 2010	Dallas, TX (75201) 	39 3 	34 1 	82	calm		39	1020.7 30.15 	10	cloudy	
Wed Feb 3 13:28:55 2010	Dallas, TX (75201) 	39 3 	34 1 	82	E	3	37	1020.9 30.16 	10	cloudy	
Wed Feb 3 14:15:02 2010	Dallas, TX (75201) 	39 3 	34 1 	82	E	3	37	1020.9 30.16 	10	cloudy	
Wed Feb 3 15:01:01 2010	Dallas, TX (75201) 	41 5 	36 2 	82	E	8	35	1021.5 30.17 	9	cloudy	
Wed Feb 3 15:45:50 2010	Dallas, TX (75201) 	41 5 	36 2 	82	E	8	35	1021.5 30.17 	9	cloudy	
Wed Feb 3 16:31:42 2010	Dallas, TX (75201) 	43 6 	37 2 	79	ESE	9	37	1022.2 30.19 	8	cloudy	
Wed Feb 3 17:18:55 2010	Dallas, TX (75201) 	44 6 	38 3 	79	ESE	9	39	1021.9 30.19 	8	cloudy	
Wed Feb 3 18:07:12 2010	Dallas, TX (75201) 	45 7 	38 3 	76	E	6	41	1021.9 30.19 	7	cloudy	
Wed Feb 3 18:50:19 2010	Dallas, TX (75201) 	45 7 	38 3 	76	E	6	41	1021.9 30.19 	7	cloudy	
Wed Feb 3 19:34:34 2010	Dallas, TX (75201) 	46 7 	38 3 	73	E	10	41	1020.7 30.15 	7	cloudy	
Wed Feb 3 20:18:40 2010	Dallas, TX (75201) 	46 7 	37 2 	71	E	11	40	1018.4 30.08 	9	cloudy	
Wed Feb 3 21:02:57 2010	Dallas, TX (75201) 	46 7 	39 3 	76	E	8	41	1018.5 30.09 	9	cloudy	light rain 
Wed Feb 3 21:51:04 2010	Dallas, TX (75201) 	46 7 	39 3 	76	E	8	41	1018.5 30.09 	9	cloudy	light rain 
Wed Feb 3 22:36:36 2010	Dallas, TX (75201) 	45 7 	40 4 	82	NE	10	39	1017.0 30.04 	7	cloudy	light rain 
Wed Feb 3 23:27:30 2010	Dallas, TX (75201) 	44 6 	40 4 	85	ENE	4	42	1017.7 30.06 	6	cloudy	light rain 
Fri Jan 29 08:41:26 2010	Denver, CO (80214) 	25 -3 	21 -6 	85	SE	3	21	1022.9 30.22 	8	mostly cloudy	
Fri Jan 29 09:25:21 2010	Denver, CO (80214) 	21 -6 	18 -7 	88	SSE	3	16	1023.0 30.22 	6	mostly cloudy	haze 
Fri Jan 29 11:57:22 2010	Denver, CO (80214) 	24 -4 	21 -6 	88	S	4	18	1022.0 30.19 	6	cloudy	haze 
Fri Jan 29 12:42:05 2010	Denver, CO (80214) 	25 -3 	22 -5 	88	calm		25	1021.2 30.16 	5	cloudy	haze 
Fri Jan 29 13:29:48 2010	Denver, CO (80214) 	22 -5 	20 -6 	92	S	4	16	1021.8 30.18 	4	partly cloudy	haze 
Fri Jan 29 14:17:40 2010	Denver, CO (80214) 	19 -7 	16 -8 	88	SSW	4	12	1021.7 30.18 	4	partly cloudy	haze 
Fri Jan 29 15:02:25 2010	Denver, CO (80214) 	20 -6 	16 -8 	85	calm		20	1021.8 30.18 	6	mostly clear	haze 
Fri Jan 29 15:47:58 2010	Denver, CO (80214) 	20 -6 	16 -8 	85	calm		20	1021.8 30.18 	6	mostly clear	haze 
Fri Jan 29 16:35:38 2010	Denver, CO (80214) 	21 -6 	17 -8 	85	calm		21	1021.8 30.18 	7	clear	
Fri Jan 29 17:20:07 2010	Denver, CO (80214) 	27 -2 	22 -5 	81	calm		27	1021.6 30.18 	10	clear	
Fri Jan 29 18:08:40 2010	Denver, CO (80214) 	33 0 	21 -6 	61	calm		33	1021.0 30.16 	10	clear	
Fri Jan 29 18:53:39 2010	Denver, CO (80214) 	33 0 	21 -6 	61	calm		33	1021.0 30.16 	10	clear	
Fri Jan 29 19:45:39 2010	Denver, CO (80214) 	37 2 	17 -8 	44	calm		37	1020.8 30.15 	10	mostly clear	
Fri Jan 29 20:43:27 2010	Denver, CO (80214) 	39 3 	11-Dec	32	N	5	35	1019.9 30.13 	10	mostly clear	
Fri Jan 29 21:28:06 2010	Denver, CO (80214) 	39 3 	11-Nov	31	calm		39	1019.1 30.10 	10	mostly clear	
Fri Jan 29 22:14:42 2010	Denver, CO (80214) 	41 5 	13-Jul	24	calm		41	1017.8 30.06 	10	mostly clear	
Fri Jan 29 22:59:37 2010	Denver, CO (80214) 	41 5 	13-Jul	24	calm		41	1017.8 30.06 	10	mostly clear	
Fri Jan 29 23:43:54 2010	Denver, CO (80214) 	43 6 	15-Apr	19	N	6	39	1017.1 30.04 	10	mostly clear	
Mon Feb 1 00:10:54 2010	Denver, CO (80214) 	37 2 	19 -7 	48	N	7	31	1011.4 29.88 	10	mostly clear	
Mon Feb 1 00:53:51 2010	Denver, CO (80214) 	37 2 	19 -7 	48	N	7	31	1011.4 29.88 	10	mostly clear	
Mon Feb 1 01:40:07 2010	Denver, CO (80214) 	35 1 	20 -6 	53	NNE	4	31	1012.3 29.90 	10	mostly clear	
Mon Feb 1 02:24:05 2010	Denver, CO (80214) 	32 0 	19 -7 	58	NNW	3	29	1013.5 29.94 	10	mostly cloudy	
Mon Feb 1 03:07:48 2010	Denver, CO (80214) 	31 0 	19 -7 	61	calm		31	1014.1 29.96 	10	mostly cloudy	
Mon Feb 1 03:52:27 2010	Denver, CO (80214) 	31 0 	19 -7 	61	calm		31	1014.1 29.96 	10	mostly cloudy	
Mon Feb 1 04:37:14 2010	Denver, CO (80214) 	27 -2 	18 -7 	68	S	4	22	1014.5 29.97 	10	partly cloudy	
Mon Feb 1 05:20:24 2010	Denver, CO (80214) 	25 -3 	18 -7 	74	SSW	6	17	1014.2 29.96 	10	mostly clear	
Mon Feb 1 06:05:17 2010	Denver, CO (80214) 	26 -3 	18 -7 	71	S	7	18	1013.2 29.93 	10	partly cloudy	
Mon Feb 1 06:48:26 2010	Denver, CO (80214) 	26 -3 	18 -7 	71	S	7	18	1013.2 29.93 	10	partly cloudy	
Mon Feb 1 07:32:17 2010	Denver, CO (80214) 	25 -3 	18 -7 	74	SSE	9	15	1012.4 29.90 	10	clear	
Mon Feb 1 08:15:24 2010	Denver, CO (80214) 	23 -5 	16 -8 	74	S	6	15	1012.5 29.91 	10	clear	
Mon Feb 1 08:59:09 2010	Denver, CO (80214) 	23 -5 	16 -8 	74	S	6	15	1012.5 29.91 	10	clear	
Mon Feb 1 09:42:08 2010	Denver, CO (80214) 	23 -5 	15 -9 	71	SSE	3	18	1011.8 29.89 	10	clear	
Mon Feb 1 10:25:41 2010	Denver, CO (80214) 	23 -5 	14 -10 	68	SSE	3	18	1011.8 29.89 	10	clear	
Mon Feb 1 11:08:38 2010	Denver, CO (80214) 	23 -5 	11-Nov	59	SSW	7	14	1012.0 29.89 	10	clear	
Mon Feb 1 11:52:04 2010	Denver, CO (80214) 	23 -5 	11-Nov	59	SSW	7	14	1012.0 29.89 	10	clear	
Mon Feb 1 12:35:25 2010	Denver, CO (80214) 	24 -4 	12-Oct	54	SW	7	15	1012.2 29.90 	10	clear	
Mon Feb 1 13:18:59 2010	Denver, CO (80214) 	26 -3 	14-Jun	42	SSW	4	21	1012.3 29.90 	10	clear	
Mon Feb 1 14:02:51 2010	Denver, CO (80214) 	23 -5 	12-Sep	54	SSW	9	12	1012.8 29.92 	10	clear	
Mon Feb 1 14:47:58 2010	Denver, CO (80214) 	23 -5 	12-Sep	54	SSW	9	12	1012.8 29.92 	10	clear	
Mon Feb 1 15:31:41 2010	Denver, CO (80214) 	24 -4 	13-Aug	50	SSW	6	16	1013.2 29.93 	10	mostly clear	
Mon Feb 1 16:16:08 2010	Denver, CO (80214) 	29 -1 	12-Sep	43	W	5	23	1013.8 29.95 	10	mostly clear	
Mon Feb 1 17:00:58 2010	Denver, CO (80214) 	35 1 	13-Jul	30	WSW	4	31	1013.3 29.93 	10	mostly clear	
Mon Feb 1 17:44:58 2010	Denver, CO (80214) 	35 1 	13-Jul	30	WSW	4	31	1013.3 29.93 	10	mostly clear	
Mon Feb 1 18:28:28 2010	Denver, CO (80214) 	39 3 	15-May	24	S	8	33	1012.8 29.92 	10	mostly clear	
Mon Feb 1 19:12:14 2010	Denver, CO (80214) 	41 5 	15-Apr	21	WNW	7	36	1012.5 29.91 	10	partly cloudy	
Mon Feb 1 19:57:05 2010	Denver, CO (80214) 	41 5 	15-Apr	21	WNW	7	36	1012.5 29.91 	10	partly cloudy	
Mon Feb 1 20:43:31 2010	Denver, CO (80214) 	43 6 	15-May	20	N	9	37	1012.1 29.90 	10	mostly clear	
Mon Feb 1 21:28:25 2010	Denver, CO (80214) 	44 6 	15-Apr	18	W	5	41	1011.4 29.88 	10	mostly clear	
Mon Feb 1 22:11:50 2010	Denver, CO (80214) 	44 6 	15-May	19	N	7	40	1011.4 29.88 	10	mostly clear	
Mon Feb 1 22:55:09 2010	Denver, CO (80214) 	44 6 	15-May	19	N	7	40	1011.4 29.88 	10	mostly clear	
Mon Feb 1 23:41:17 2010	Denver, CO (80214) 	45 7 	13-Jul	21	NNE	8	40	1011.8 29.89 	10	mostly clear	
Sat Jan 30 00:27:58 2010	Denver, CO (80214) 	43 6 	16-Mar	19	NNE	5	39	1017.2 30.05 	10	mostly clear	
Sat Jan 30 01:12:08 2010	Denver, CO (80214) 	40 4 	13-Jul	25	N	5	36	1018.2 30.08 	10	clear	
Sat Jan 30 01:55:41 2010	Denver, CO (80214) 	40 4 	13-Jul	25	N	5	36	1018.2 30.08 	10	clear	
Sat Jan 30 02:40:20 2010	Denver, CO (80214) 	36 2 	13-Jul	29	calm		36	1019.2 30.11 	10	clear	
Sat Jan 30 03:23:54 2010	Denver, CO (80214) 	32 0 	12-Sep	38	S	3	29	1019.8 30.12 	10	clear	
Sat Jan 30 04:07:48 2010	Denver, CO (80214) 	30 -1 	12-Oct	43	calm		30	1020.1 30.13 	10	clear	
Sat Jan 30 04:51:34 2010	Denver, CO (80214) 	30 -1 	12-Oct	43	calm		30	1020.1 30.13 	10	clear	
Sat Jan 30 05:35:16 2010	Denver, CO (80214) 	24 -4 	13 -10 	62	calm		24	1020.5 30.14 	10	clear	
Sat Jan 30 06:19:22 2010	Denver, CO (80214) 	27 -2 	11-Dec	53	S	4	22	1019.7 30.12 	10	clear	
Sat Jan 30 07:05:24 2010	Denver, CO (80214) 	26 -3 	11-Nov	52	SSW	6	18	1019.2 30.11 	10	clear	
Sat Jan 30 07:48:07 2010	Denver, CO (80214) 	26 -3 	11-Nov	52	SSW	6	18	1019.2 30.11 	10	clear	
Sat Jan 30 08:31:19 2010	Denver, CO (80214) 	25 -3 	11-Nov	54	SSW	5	18	1019.3 30.11 	10	clear	
Sat Jan 30 11:13:05 2010	Denver, CO (80214) 	23 -5 	12-Oct	57	SSE	4	17	1018.6 30.09 	10	mostly clear	
Sat Jan 30 12:00:52 2010	Denver, CO (80214) 	20 -6 	12-Oct	65	S	3	15	1019.0 30.10 	10	mostly clear	
Sat Jan 30 12:44:31 2010	Denver, CO (80214) 	20 -6 	12-Oct	65	S	3	15	1019.0 30.10 	10	mostly clear	
Sat Jan 30 13:27:47 2010	Denver, CO (80214) 	22 -5 	12-Oct	60	SSE	4	16	1019.1 30.10 	10	mostly clear	
Sat Jan 30 14:11:58 2010	Denver, CO (80214) 	22 -5 	12-Sep	57	SSW	4	16	1019.9 30.13 	10	mostly clear	
Sat Jan 30 14:56:00 2010	Denver, CO (80214) 	22 -5 	12-Sep	57	SSW	4	16	1019.9 30.13 	10	mostly clear	
Sat Jan 30 15:41:51 2010	Denver, CO (80214) 	19 -7 	12-Oct	67	S	3	14	1021.0 30.16 	10	mostly clear	
Sat Jan 30 16:26:51 2010	Denver, CO (80214) 	23 -5 	11-Dec	62	S	6	15	1020.8 30.15 	10	clear	
Sat Jan 30 17:11:16 2010	Denver, CO (80214) 	33 0 	11-Dec	41	S	7	26	1020.2 30.14 	10	clear	
Sat Jan 30 17:54:28 2010	Denver, CO (80214) 	33 0 	11-Dec	41	S	7	26	1020.2 30.14 	10	clear	
Sat Jan 30 18:38:28 2010	Denver, CO (80214) 	39 3 	11-Nov	31	calm		39	1019.1 30.10 	10	clear	
Sat Jan 30 19:21:46 2010	Denver, CO (80214) 	44 6 	11-Nov	25	SSW	5	41	1018.0 30.07 	10	clear	
Sat Jan 30 20:05:59 2010	Denver, CO (80214) 	47 8 	11-Nov	23	N	4	45	1016.5 30.03 	10	clear	
Sat Jan 30 20:49:06 2010	Denver, CO (80214) 	47 8 	11-Nov	23	N	4	45	1016.5 30.03 	10	clear	
Sat Jan 30 21:32:54 2010	Denver, CO (80214) 	48 8 	12-Sep	20	ESE	4	46	1015.2 29.99 	10	clear	
Sat Jan 30 22:16:08 2010	Denver, CO (80214) 	50 10 	12-Sep	19	SSE	7	47	1014.9 29.98 	10	clear	
Sat Jan 30 23:01:41 2010	Denver, CO (80214) 	51 10 	12-Sep	18	E	3		1014.0 29.95 	10	mostly clear	
Sat Jan 30 23:46:26 2010	Denver, CO (80214) 	51 10 	12-Sep	18	E	3		1014.0 29.95 	10	mostly clear	
Sun Jan 31 00:30:21 2010	Denver, CO (80214) 	50 10 	11-Nov	20	ESE	5	48	1014.3 29.96 	10	clear	
Sun Jan 31 01:21:10 2010	Denver, CO (80214) 	45 7 	17 -8 	32	S	10	39	1014.4 29.96 	10	clear	
Sun Jan 31 02:05:09 2010	Denver, CO (80214) 	37 2 	19 -7 	48	S	8	30	1015.8 30.01 	10	clear	
Sun Jan 31 02:48:36 2010	Denver, CO (80214) 	37 2 	19 -7 	48	S	8	30	1015.8 30.01 	10	clear	
Sun Jan 31 03:32:27 2010	Denver, CO (80214) 	39 3 	20 -6 	46	W	8	33	1016.0 30.01 	10	clear	
Sun Jan 31 04:15:55 2010	Denver, CO (80214) 	34 1 	20 -6 	56	W	5	29	1016.3 30.02 	10	clear	
Sun Jan 31 05:00:27 2010	Denver, CO (80214) 	34 1 	19 -7 	54	WNW	7	27	1015.0 29.98 	10	clear	
Sun Jan 31 05:46:31 2010	Denver, CO (80214) 	34 1 	19 -7 	54	WNW	7	27	1015.0 29.98 	10	clear	
Sun Jan 31 06:31:45 2010	Denver, CO (80214) 	33 0 	18 -7 	53	W	5	28	1014.9 29.98 	10	clear	
Sun Jan 31 07:14:39 2010	Denver, CO (80214) 	31 0 	18 -7 	58	W	5	25	1014.1 29.96 	10	clear	
Sun Jan 31 08:01:21 2010	Denver, CO (80214) 	33 0 	17 -8 	51	WNW	5	28	1013.4 29.93 	10	clear	
Sun Jan 31 08:46:03 2010	Denver, CO (80214) 	33 0 	17 -8 	51	WNW	5	28	1013.4 29.93 	10	clear	
Sun Jan 31 09:29:17 2010	Denver, CO (80214) 	31 0 	17 -8 	56	calm		31	1013.1 29.93 	10	clear	
Sun Jan 31 10:12:29 2010	Denver, CO (80214) 	29 -1 	18 -7 	63	calm		29	1012.7 29.91 	10	clear	
Sun Jan 31 10:56:14 2010	Denver, CO (80214) 	29 -1 	18 -7 	63	calm		29	1012.7 29.91 	10	clear	
Sun Jan 31 11:39:42 2010	Denver, CO (80214) 	25 -3 	18 -7 	74	calm		25	1012.6 29.91 	10	clear	
Sun Jan 31 12:23:22 2010	Denver, CO (80214) 	27 -2 	18 -7 	68	calm		27	1012.0 29.89 	10	clear	
Sun Jan 31 13:06:46 2010	Denver, CO (80214) 	27 -2 	18 -7 	68	calm		27	1012.4 29.90 	10	mostly clear	
Sun Jan 31 13:50:21 2010	Denver, CO (80214) 	27 -2 	18 -7 	68	calm		27	1012.4 29.90 	10	mostly clear	
Sun Jan 31 14:33:12 2010	Denver, CO (80214) 	26 -3 	17 -8 	68	W	3	22	1013.1 29.93 	10	mostly clear	
Sun Jan 31 15:17:18 2010	Denver, CO (80214) 	25 -3 	17 -8 	71	SW	3	21	1013.1 29.93 	10	partly cloudy	
Sun Jan 31 16:00:44 2010	Denver, CO (80214) 	25 -3 	17 -8 	71	calm		25	1013.2 29.93 	10	clear	
Sun Jan 31 16:50:32 2010	Denver, CO (80214) 	25 -3 	17 -8 	71	calm		25	1013.2 29.93 	10	clear	
Sun Jan 31 17:34:14 2010	Denver, CO (80214) 	29 -1 	19 -7 	66	calm		29	1012.2 29.90 	10	clear	
Sun Jan 31 18:19:14 2010	Denver, CO (80214) 	30 -1 	18 -7 	60	N	3	26	1012.3 29.90 	10	clear	
Sun Jan 31 19:02:59 2010	Denver, CO (80214) 	34 1 	19 -7 	54	N	7	27	1012.1 29.90 	10	mostly clear	
Sun Jan 31 19:48:23 2010	Denver, CO (80214) 	34 1 	19 -7 	54	N	7	27	1012.1 29.90 	10	mostly clear	
Sun Jan 31 20:31:21 2010	Denver, CO (80214) 	35 1 	18 -7 	49	N	5	30	1011.2 29.87 	10	mostly clear	
Sun Jan 31 21:15:34 2010	Denver, CO (80214) 	39 3 	18 -7 	42	calm		39	1009.9 29.83 	10	partly cloudy	
Sun Jan 31 21:58:49 2010	Denver, CO (80214) 	39 3 	18 -7 	42	calm		39	1009.9 29.83 	10	partly cloudy	
Sun Jan 31 22:43:37 2010	Denver, CO (80214) 	41 5 	17 -8 	38	N	11	34	1009.9 29.83 	10	partly cloudy	
Sun Jan 31 23:26:57 2010	Denver, CO (80214) 	39 3 	19 -7 	44	N	9	32	1010.8 29.86 	10	partly cloudy	
Thu Feb 4 00:12:17 2010	Denver, CO (80214) 	45 7 	11-Dec	26	ESE	12	39	1011.8 29.89 	10	partly cloudy	
Thu Feb 4 00:56:21 2010	Denver, CO (80214) 	45 7 	11-Dec	26	ESE	12	39	1011.8 29.89 	10	partly cloudy	
Thu Feb 4 01:39:36 2010	Denver, CO (80214) 	43 6 	13 -10 	29	SE	8	38	1012.4 29.90 	10	mostly cloudy	
Thu Feb 4 02:27:22 2010	Denver, CO (80214) 	41 5 	13 -10 	31	SE	8	35	1013.1 29.93 	10	cloudy	
Thu Feb 4 03:10:30 2010	Denver, CO (80214) 	40 4 	14 -10 	34	SSE	10	33	1012.8 29.92 	10	cloudy	
Thu Feb 4 03:54:59 2010	Denver, CO (80214) 	40 4 	14 -10 	34	SSE	10	33	1012.8 29.92 	10	cloudy	
Thu Feb 4 04:38:16 2010	Denver, CO (80214) 	39 3 	17 -8 	41	SSE	7	33	1012.8 29.92 	10	cloudy	
Thu Feb 4 05:21:36 2010	Denver, CO (80214) 	37 2 	18 -7 	46	WSW	6	32	1011.2 29.87 	10	cloudy	
Thu Feb 4 06:04:28 2010	Denver, CO (80214) 	36 2 	18 -7 	48	SSE	10	28	1010.1 29.84 	10	cloudy	
Thu Feb 4 06:47:29 2010	Denver, CO (80214) 	36 2 	18 -7 	48	SSE	10	28	1010.1 29.84 	10	cloudy	
Thu Feb 4 07:31:07 2010	Denver, CO (80214) 	34 1 	28 -2 	78	SE	5	29	1009.5 29.82 	2	cloudy	light snow 
Thu Feb 4 08:13:41 2010	Denver, CO (80214) 	32 0 	28 -2 	85	S	6	26	1008.2 29.78 	5	cloudy	haze 
Thu Feb 4 08:57:24 2010	Denver, CO (80214) 	32 0 	28 -2 	85	S	6	26	1008.2 29.78 	5	cloudy	haze 
Thu Feb 4 09:41:19 2010	Denver, CO (80214) 	32 0 	27 -2 	82	S	5	26	1007.0 29.75 	5	cloudy	haze 
Thu Feb 4 10:24:58 2010	Denver, CO (80214) 	31 0 	27 -2 	85	SSE	6	24	1006.9 29.74 	5	mostly cloudy	haze 
Thu Feb 4 11:10:54 2010	Denver, CO (80214) 	31 0 	27 -2 	85	S	4	26	1005.8 29.71 	10	cloudy	
Thu Feb 4 11:54:25 2010	Denver, CO (80214) 	31 0 	27 -2 	85	S	4	26	1005.8 29.71 	10	cloudy	
Thu Feb 4 12:37:31 2010	Denver, CO (80214) 	30 -1 	26 -3 	85	SSE	3	26	1005.7 29.71 	10	cloudy	
Thu Feb 4 13:21:35 2010	Denver, CO (80214) 	28 -2 	24 -4 	85	S	4	23	1006.0 29.72 	10	mostly cloudy	
Thu Feb 4 14:06:25 2010	Denver, CO (80214) 	28 -2 	24 -4 	85	SW	4	23	1006.0 29.72 	10	mostly cloudy	
Thu Feb 4 14:59:10 2010	Denver, CO (80214) 	28 -2 	24 -4 	85	SW	4	23	1006.0 29.72 	10	mostly cloudy	
Thu Jan 28 15:38:50 2010	Denver, CO (80214) 	25 -3 	18 -7 	74	SW	7	16	1025.4 30.29 	10	partly cloudy	
Thu Jan 28 15:59:35 2010	Denver, CO (80214) 	25 -3 	18 -7 	74	SW	7	16	1025.4 30.29 	10	partly cloudy	
Thu Jan 28 16:48:58 2010	Denver, CO (80214) 	25 -3 	20 -6 	81	calm		25	1025.2 30.28 	0	partly cloudy	haze 
Thu Jan 28 17:13:13 2010	Denver, CO (80214) 	25 -3 	24 -4 	96	N	4	19	1025.5 30.29 	0	obscured	haze 
Thu Jan 28 17:29:11 2010	Denver, CO (80214) 	25 -3 	24 -4 	96	N	4	19	1025.5 30.29 	0	obscured	haze 
Tue Feb 2 00:28:09 2010	Denver, CO (80214) 	43 6 	13-Aug	23	N	11	36	1012.9 29.92 	10	mostly clear	
Tue Feb 2 01:13:46 2010	Denver, CO (80214) 	41 5 	13-Aug	25	N	7	36	1013.9 29.95 	10	partly cloudy	
Tue Feb 2 01:56:55 2010	Denver, CO (80214) 	41 5 	13-Aug	25	N	7	36	1013.9 29.95 	10	partly cloudy	
Tue Feb 2 02:40:57 2010	Denver, CO (80214) 	37 2 	13-Aug	30	N	8	30	1015.9 30.01 	10	mostly clear	
Tue Feb 2 03:24:29 2010	Denver, CO (80214) 	32 0 	12-Oct	39	SSE	5	26	1017.1 30.04 	10	clear	
Tue Feb 2 04:08:15 2010	Denver, CO (80214) 	31 0 	11-Nov	43	S	7	23	1017.1 30.04 	10	clear	
Tue Feb 2 04:51:48 2010	Denver, CO (80214) 	31 0 	11-Nov	43	S	7	23	1017.1 30.04 	10	clear	
Tue Feb 2 05:35:12 2010	Denver, CO (80214) 	29 -1 	11-Nov	46	S	6	22	1017.0 30.04 	10	clear	
Tue Feb 2 06:18:24 2010	Denver, CO (80214) 	27 -2 	11-Nov	50	S	5	21	1017.1 30.04 	10	clear	
Tue Feb 2 07:05:36 2010	Denver, CO (80214) 	27 -2 	11-Nov	50	SE	9	17	1017.2 30.05 	10	clear	
Tue Feb 2 07:48:37 2010	Denver, CO (80214) 	27 -2 	11-Nov	50	SE	9	17	1017.2 30.05 	10	clear	
Tue Feb 2 08:31:49 2010	Denver, CO (80214) 	28 -2 	11-Dec	51	SSE	10	18	1016.8 30.03 	10	clear	
Tue Feb 2 09:15:18 2010	Denver, CO (80214) 	25 -3 	11-Nov	54	SSE	7	16	1017.1 30.04 	10	clear	
Tue Feb 2 09:58:50 2010	Denver, CO (80214) 	25 -3 	11-Nov	54	SSE	7	16	1017.1 30.04 	10	clear	
Tue Feb 2 10:42:23 2010	Denver, CO (80214) 	24 -4 	12-Oct	54	SSE	7	15	1017.3 30.05 	10	clear	
Tue Feb 2 11:26:30 2010	Denver, CO (80214) 	22 -5 	12-Sep	57	SE	8	12	1017.3 30.05 	10	clear	
Tue Feb 2 12:10:28 2010	Denver, CO (80214) 	20 -6 	13-Aug	60	SE	5	12	1017.9 30.07 	10	clear	
Tue Feb 2 12:54:25 2010	Denver, CO (80214) 	20 -6 	13-Aug	60	SE	5	12	1017.9 30.07 	10	clear	
Tue Feb 2 13:37:43 2010	Denver, CO (80214) 	23 -5 	13-Aug	52	SSE	9	12	1017.6 30.06 	10	clear	
Tue Feb 2 14:21:26 2010	Denver, CO (80214) 	27 -2 	13-Aug	44	S	11	16	1017.2 30.05 	10	clear	
Tue Feb 2 15:05:45 2010	Denver, CO (80214) 	25 -3 	12-Sep	50	N	3	21	1018.0 30.07 	10	clear	
Tue Feb 2 15:52:12 2010	Denver, CO (80214) 	25 -3 	12-Sep	50	N	3	21	1018.0 30.07 	10	clear	
Tue Feb 2 16:44:41 2010	Denver, CO (80214) 	26 -3 	11-Nov	52	S	7	18	1018.4 30.08 	10	clear	
Tue Feb 2 17:33:08 2010	Denver, CO (80214) 	33 0 	12-Oct	38	S	7	26	1017.7 30.06 	10	clear	
Tue Feb 2 18:17:45 2010	Denver, CO (80214) 	38 3 	15-Apr	24	SSW	10	30	1016.7 30.03 	10	clear	
Tue Feb 2 19:01:55 2010	Denver, CO (80214) 	43 6 	16-Mar	19	SSW	8	38	1015.5 30.00 	10	clear	
Tue Feb 2 19:51:09 2010	Denver, CO (80214) 	43 6 	16-Mar	19	SSW	8	38	1015.5 30.00 	10	clear	
Tue Feb 2 20:42:29 2010	Denver, CO (80214) 	45 7 	16-Feb	16	N	3	44	1013.9 29.95 	10	clear	
Tue Feb 2 21:29:20 2010	Denver, CO (80214) 	48 8 	17-Jan	14	N	3	47	1012.6 29.91 	10	clear	
Tue Feb 2 22:17:42 2010	Denver, CO (80214) 	49 9 	15-Apr	15	calm		49	1012.3 29.90 	10	clear	
Tue Feb 2 23:01:58 2010	Denver, CO (80214) 	48 8 	13-Aug	19	N	7	44	1012.7 29.91 	10	clear	
Tue Feb 2 23:47:00 2010	Denver, CO (80214) 	48 8 	13-Aug	19	N	7	44	1012.7 29.91 	10	clear	
Wed Feb 3 00:31:44 2010	Denver, CO (80214) 	46 7 	12-Oct	23	N	7	42	1013.6 29.94 	10	clear	
Wed Feb 3 01:18:54 2010	Denver, CO (80214) 	40 4 	15 -9 	36	N	6	35	1014.2 29.96 	10	clear	
Wed Feb 3 02:03:41 2010	Denver, CO (80214) 	38 3 	15 -9 	39	N	3	35	1014.1 29.96 	10	clear	
Wed Feb 3 02:52:23 2010	Denver, CO (80214) 	38 3 	15 -9 	39	N	3	35	1014.1 29.96 	10	clear	
Wed Feb 3 03:39:15 2010	Denver, CO (80214) 	34 1 	15 -9 	45	calm		34	1015.2 29.99 	10	clear	
Wed Feb 3 04:27:24 2010	Denver, CO (80214) 	33 0 	15 -9 	47	calm		33	1015.3 29.99 	10	clear	
Wed Feb 3 05:14:08 2010	Denver, CO (80214) 	32 0 	14 -10 	47	S	3	29	1014.4 29.96 	10	clear	
Wed Feb 3 06:02:00 2010	Denver, CO (80214) 	28 -2 	15 -9 	58	S	4	23	1014.4 29.96 	10	clear	
Wed Feb 3 06:48:44 2010	Denver, CO (80214) 	28 -2 	15 -9 	58	S	4	23	1014.4 29.96 	10	clear	
Wed Feb 3 07:33:23 2010	Denver, CO (80214) 	28 -2 	13 -10 	53	S	5	22	1013.4 29.93 	10	mostly clear	
Wed Feb 3 08:16:32 2010	Denver, CO (80214) 	26 -3 	11-Dec	55	S	5	19	1013.5 29.94 	10	mostly clear	
Wed Feb 3 09:02:59 2010	Denver, CO (80214) 	27 -2 	11-Nov	50	S	5	21	1012.8 29.92 	10	mostly clear	
Wed Feb 3 09:46:19 2010	Denver, CO (80214) 	27 -2 	11-Nov	50	S	5	21	1012.8 29.92 	10	mostly clear	
Wed Feb 3 10:30:10 2010	Denver, CO (80214) 	27 -2 	12-Sep	46	S	5	21	1012.6 29.91 	10	mostly clear	
Wed Feb 3 11:17:05 2010	Denver, CO (80214) 	26 -3 	12-Sep	48	SE	4	21	1012.6 29.91 	10	mostly clear	
Wed Feb 3 12:01:50 2010	Denver, CO (80214) 	25 -3 	13-Aug	48	S	5	18	1013.0 29.92 	10	mostly clear	
Wed Feb 3 12:45:02 2010	Denver, CO (80214) 	26 -3 	12-Sep	48	SE	4	21	1012.6 29.91 	10	mostly clear	
Wed Feb 3 13:28:47 2010	Denver, CO (80214) 	25 -3 	13-Aug	48	calm		25	1014.4 29.96 	10	mostly clear	
Wed Feb 3 14:14:52 2010	Denver, CO (80214) 	25 -3 	13-Aug	48	calm		25	1015.5 30.00 	10	clear	
Wed Feb 3 15:00:47 2010	Denver, CO (80214) 	25 -3 	13-Jul	46	SSE	4	19	1016.0 30.01 	10	mostly clear	
Wed Feb 3 15:45:42 2010	Denver, CO (80214) 	25 -3 	13-Jul	46	SSE	4	19	1016.0 30.01 	10	mostly clear	
Wed Feb 3 16:31:32 2010	Denver, CO (80214) 	25 -3 	11-Dec	57	calm		25	1016.3 30.02 	10	mostly clear	
Wed Feb 3 17:18:44 2010	Denver, CO (80214) 	34 1 	13 -10 	41	calm		34	1015.2 29.99 	10	mostly clear	
Wed Feb 3 18:07:01 2010	Denver, CO (80214) 	39 3 	13-Jul	26	N	3	37	1014.9 29.98 	10	mostly clear	
Wed Feb 3 18:50:06 2010	Denver, CO (80214) 	39 3 	13-Jul	26	N	3	37	1014.9 29.98 	10	mostly clear	
Wed Feb 3 19:34:25 2010	Denver, CO (80214) 	42 5 	15-May	21	calm		42	1014.9 29.98 	10	mostly clear	
Wed Feb 3 20:18:30 2010	Denver, CO (80214) 	46 7 	13-Aug	21		3	45	1014.0 29.95 	10	mostly clear	
Wed Feb 3 21:02:47 2010	Denver, CO (80214) 	47 8 	12-Sep	21	E	12	41	1012.5 29.91 	10	mostly clear	
Wed Feb 3 21:50:55 2010	Denver, CO (80214) 	47 8 	12-Sep	21	E	12	41	1012.5 29.91 	10	mostly clear	
Wed Feb 3 22:36:26 2010	Denver, CO (80214) 	47 8 	11-Nov	23	ESE	14	40	1011.5 29.88 	10	mostly clear	
Wed Feb 3 23:27:21 2010	Denver, CO (80214) 	48 8 	11-Nov	22	ESE	16	41	1011.1 29.87 	10	mostly clear	
Fri Jan 29 08:41:36 2010	Detroit, MI (48201) 	13-Aug	-2 -18 	63	WNW	4	0	1030.9 30.45 	10	clear	
Fri Jan 29 09:25:32 2010	Detroit, MI (48201) 	13-Aug	-2 -18 	63	WNW	5	-2	1031.2 30.46 	10	clear	
Fri Jan 29 11:57:33 2010	Detroit, MI (48201) 	13-Jul	-1 -18 	69	W	5	-3	1031.7 30.47 	10	clear	
Fri Jan 29 12:42:16 2010	Detroit, MI (48201) 	13-Jul	-1 -18 	69	W	5	-3	1032.4 30.50 	10	clear	
Fri Jan 29 13:29:59 2010	Detroit, MI (48201) 	13-Aug	-1 -18 	66	WNW	4	0	1032.2 30.49 	10	clear	
Fri Jan 29 14:17:51 2010	Detroit, MI (48201) 	13-Aug	-1 -18 	66	WNW	4	0	1033.2 30.52 	10	clear	
Fri Jan 29 15:02:39 2010	Detroit, MI (48201) 	12-Oct	-0 -17 	63	WNW	5	0	1033.2 30.52 	10	clear	
Fri Jan 29 15:48:11 2010	Detroit, MI (48201) 	12-Oct	-0 -17 	63	WNW	5	0	1033.2 30.52 	10	clear	
Fri Jan 29 16:35:59 2010	Detroit, MI (48201) 	13 -10 	-2 -18 	51	WNW	9	0	1031.2 30.46 	10	clear	
Fri Jan 29 17:20:23 2010	Detroit, MI (48201) 	15 -9 	-2 -18 	46	NW	7	4	1033.1 30.52 	10	clear	
Fri Jan 29 18:08:51 2010	Detroit, MI (48201) 	16 -8 	-2 -18 	44	WNW	4	9	1033.4 30.53 	10	clear	
Fri Jan 29 18:53:52 2010	Detroit, MI (48201) 	16 -8 	-2 -18 	44	WNW	4	9	1033.4 30.53 	10	clear	
Fri Jan 29 19:45:50 2010	Detroit, MI (48201) 	19 -7 	-1 -18 	41	NW	7	9	1032.8 30.51 	10	mostly clear	
Fri Jan 29 20:43:39 2010	Detroit, MI (48201) 	19 -7 	-1 -18 	41	NW	4	12	1032.1 30.49 	10	mostly clear	
Fri Jan 29 21:28:17 2010	Detroit, MI (48201) 	20 -6 	-1 -18 	39	N	6	11	1031.5 30.47 	10	clear	
Fri Jan 29 22:14:53 2010	Detroit, MI (48201) 	20 -6 	-1 -18 	39	NNW	4	13	1030.8 30.45 	10	clear	
Fri Jan 29 22:59:48 2010	Detroit, MI (48201) 	20 -6 	-1 -18 	39	NNW	4	13	1030.8 30.45 	10	clear	
Fri Jan 29 23:44:06 2010	Detroit, MI (48201) 	20 -6 	-1 -18 	39	N	6	11	1030.8 30.45 	10	clear	
Mon Feb 1 00:11:04 2010	Detroit, MI (48201) 	27 -2 	13 -10 	55	W	10	17	1019.9 30.13 	10	clear	
Mon Feb 1 00:54:01 2010	Detroit, MI (48201) 	27 -2 	13 -10 	55	W	10	17	1019.9 30.13 	10	clear	
Mon Feb 1 01:40:22 2010	Detroit, MI (48201) 	27 -2 	11-Dec	53	W	9	17	1045.4 30.88 	10	mostly cloudy	
Mon Feb 1 02:24:18 2010	Detroit, MI (48201) 	26 -3 	12-Oct	50	WNW	12	15	1046.4 30.91 	10	cloudy	
Mon Feb 1 03:07:58 2010	Detroit, MI (48201) 	24 -4 	12-Oct	54	WNW	16	10	1048.0 30.96 	9	cloudy	
Mon Feb 1 03:52:38 2010	Detroit, MI (48201) 	24 -4 	12-Oct	54	WNW	16	10	1048.0 30.96 	9	cloudy	
Mon Feb 1 04:37:27 2010	Detroit, MI (48201) 	22 -5 	12-Sep	57	WNW	11	10	1049.2 30.99 	10	partly cloudy	
Mon Feb 1 05:20:37 2010	Detroit, MI (48201) 	21 -6 	12-Sep	59	WNW	8	11	1049.7 31.01 	10	clear	
Mon Feb 1 06:05:28 2010	Detroit, MI (48201) 	19 -7 	13-Aug	62	WNW	5	11	950.4 28.07 	10	clear	
Mon Feb 1 06:48:39 2010	Detroit, MI (48201) 	19 -7 	13-Aug	62	WNW	5	11	950.4 28.07 	10	clear	
Mon Feb 1 07:32:27 2010	Detroit, MI (48201) 	18 -7 	12-Sep	67	WNW	6	9	950.9 28.09 	10	clear	
Mon Feb 1 08:15:34 2010	Detroit, MI (48201) 	18 -7 	12-Sep	67	W	5	10	1026.4 30.32 	10	clear	
Mon Feb 1 08:59:19 2010	Detroit, MI (48201) 	18 -7 	12-Sep	67	W	5	10	1026.4 30.32 	10	clear	
Mon Feb 1 09:42:18 2010	Detroit, MI (48201) 	17 -8 	12-Sep	70	WNW	4	10	1026.9 30.33 	10	clear	
Mon Feb 1 10:25:51 2010	Detroit, MI (48201) 	16 -8 	12-Sep	73	W	4	9	1027.2 30.34 	10	clear	
Mon Feb 1 11:08:48 2010	Detroit, MI (48201) 	15 -9 	12-Sep	76	W	4	8	1027.2 30.34 	10	clear	
Mon Feb 1 11:52:14 2010	Detroit, MI (48201) 	15 -9 	12-Sep	76	W	4	8	1027.2 30.34 	10	clear	
Mon Feb 1 12:35:38 2010	Detroit, MI (48201) 	15 -9 	12-Sep	76	W	3	9	1027.3 30.35 	10	clear	
Mon Feb 1 13:19:09 2010	Detroit, MI (48201) 	14 -10 	12-Sep	80	W	3	8	1027.3 30.35 	10	clear	
Mon Feb 1 14:03:02 2010	Detroit, MI (48201) 	14 -10 	12-Sep	80	W	3	8	953.4 28.16 	9	clear	
Mon Feb 1 14:48:08 2010	Detroit, MI (48201) 	14 -10 	12-Sep	80	W	3	8	953.4 28.16 	9	clear	
Mon Feb 1 15:31:51 2010	Detroit, MI (48201) 	16 -8 	12-Oct	77	calm		16	953.2 28.16 	9	clear	
Mon Feb 1 16:16:19 2010	Detroit, MI (48201) 	21 -6 	11-Dec	68	WSW	6	12	1028.2 30.37 	10	clear	
Mon Feb 1 17:01:21 2010	Detroit, MI (48201) 	23 -5 	11-Nov	59	WSW	7	14	1028.2 30.37 	10	clear	
Mon Feb 1 17:45:10 2010	Detroit, MI (48201) 	23 -5 	11-Nov	59	WSW	7	14	1028.2 30.37 	10	clear	
Mon Feb 1 18:28:39 2010	Detroit, MI (48201) 	25 -3 	11-Nov	54	WSW	8	16	1027.9 30.36 	10	mostly cloudy	
Mon Feb 1 19:12:26 2010	Detroit, MI (48201) 	26 -3 	11-Nov	52	WNW	6	18	1026.9 30.33 	10	cloudy	
Mon Feb 1 19:57:16 2010	Detroit, MI (48201) 	26 -3 	11-Nov	52	WNW	6	18	1026.9 30.33 	10	cloudy	
Mon Feb 1 20:43:41 2010	Detroit, MI (48201) 	27 -2 	11-Dec	53	WSW	7	19	1026.0 30.31 	10	mostly clear	
Mon Feb 1 21:28:37 2010	Detroit, MI (48201) 	27 -2 	11-Dec	53	W	7	19	1025.5 30.29 	10	cloudy	
Mon Feb 1 22:12:01 2010	Detroit, MI (48201) 	27 -2 	11-Dec	53	SW	7	19	1025.4 30.29 	10	cloudy	
Mon Feb 1 22:55:20 2010	Detroit, MI (48201) 	27 -2 	11-Dec	53	SW	7	19	1025.4 30.29 	10	cloudy	
Mon Feb 1 23:41:28 2010	Detroit, MI (48201) 	27 -2 	13 -10 	55	WSW	5	21	1025.7 30.30 	10	cloudy	
Sat Jan 30 00:28:09 2010	Detroit, MI (48201) 	18 -7 	-0 -17 	44	NNE	4	11	1031.1 30.46 	10	clear	
Sat Jan 30 01:12:19 2010	Detroit, MI (48201) 	17 -8 	-0 -17 	46	NNE	4	10	1030.9 30.45 	10	clear	
Sat Jan 30 01:55:52 2010	Detroit, MI (48201) 	17 -8 	-0 -17 	46	NNE	4	10	1030.9 30.45 	10	clear	
Sat Jan 30 02:40:33 2010	Detroit, MI (48201) 	16 -8 	17-Jan	51	NNE	4	9	1029.8 30.42 	10	clear	
Sat Jan 30 03:24:05 2010	Detroit, MI (48201) 	14 -10 	16-Feb	58	NE	4	6	1029.2 30.40 	10	clear	
Sat Jan 30 04:07:59 2010	Detroit, MI (48201) 	14 -10 	16-Mar	61	NE	4	6	1030.7 30.45 	10	clear	
Sat Jan 30 04:51:45 2010	Detroit, MI (48201) 	14 -10 	16-Mar	61	NE	4	6	1030.7 30.45 	10	clear	
Sat Jan 30 05:35:28 2010	Detroit, MI (48201) 	14 -10 	15-Apr	63		3	8	1030.2 30.43 	10	clear	
Sat Jan 30 06:19:36 2010	Detroit, MI (48201) 	13 -10 	15-Apr	67		4	5	1030.0 30.42 	10	clear	
Sat Jan 30 07:05:35 2010	Detroit, MI (48201) 	13 -10 	15-Apr	67	calm		13	1029.7 30.42 	10	clear	
Sat Jan 30 07:48:17 2010	Detroit, MI (48201) 	13 -10 	15-Apr	67	calm		13	1029.7 30.42 	10	clear	
Sat Jan 30 08:31:29 2010	Detroit, MI (48201) 	11-Dec	16-Mar	67	calm		12	1029.2 30.40 	10	clear	
Sat Jan 30 11:13:16 2010	Detroit, MI (48201) 	11-Nov	15-Apr	73	N	5	1	1027.0 30.34 	10	clear	
Sat Jan 30 12:01:05 2010	Detroit, MI (48201) 	11-Nov	15-Apr	73	N	4	3	1027.2 30.34 	10	clear	
Sat Jan 30 12:44:42 2010	Detroit, MI (48201) 	11-Nov	15-Apr	73	N	4	3	1027.2 30.34 	10	clear	
Sat Jan 30 13:27:58 2010	Detroit, MI (48201) 	11-Nov	15-Apr	73	N	3	5	1027.3 30.35 	10	clear	
Sat Jan 30 14:12:09 2010	Detroit, MI (48201) 	11-Dec	15-Apr	69	N	6	1	1027.3 30.35 	10	cloudy	
Sat Jan 30 14:56:12 2010	Detroit, MI (48201) 	11-Dec	15-Apr	69	N	6	1	1027.3 30.35 	10	cloudy	
Sat Jan 30 15:42:02 2010	Detroit, MI (48201) 	14 -10 	15-May	67	NNE	4	6	1027.4 30.35 	10	cloudy	
Sat Jan 30 16:27:01 2010	Detroit, MI (48201) 	16 -8 	13-Aug	70	NE	9	4	1027.2 30.34 	10	cloudy	
Sat Jan 30 17:11:27 2010	Detroit, MI (48201) 	17 -8 	12-Oct	73	E	8	6	1026.5 30.32 	10	mostly clear	
Sat Jan 30 17:54:40 2010	Detroit, MI (48201) 	17 -8 	12-Oct	73	E	8	6	1026.5 30.32 	10	mostly clear	
Sat Jan 30 18:38:39 2010	Detroit, MI (48201) 	19 -7 	12-Sep	64	NE	6	10	1026.0 30.31 	10	partly cloudy	
Sat Jan 30 19:21:57 2010	Detroit, MI (48201) 	18 -7 	14-Jun	59	NE	5	10	1025.1 30.28 	10	mostly cloudy	
Sat Jan 30 20:06:12 2010	Detroit, MI (48201) 	20 -6 	14-Jun	54	E	6	11	1024.1 30.25 	10	mostly cloudy	
Sat Jan 30 20:49:18 2010	Detroit, MI (48201) 	20 -6 	14-Jun	54	E	6	11	1024.1 30.25 	10	mostly cloudy	
Sat Jan 30 21:33:04 2010	Detroit, MI (48201) 	19 -7 	13-Jul	59	ESE	7	9	1023.6 30.24 	10	mostly cloudy	
Sat Jan 30 22:16:19 2010	Detroit, MI (48201) 	18 -7 	13-Jul	61	SSE	3	13	1023.8 30.24 	10	partly cloudy	
Sat Jan 30 23:02:01 2010	Detroit, MI (48201) 	18 -7 	13-Jul	61	calm		18	1023.6 30.24 	10	clear	
Sat Jan 30 23:46:38 2010	Detroit, MI (48201) 	18 -7 	13-Jul	61	calm		18	1023.6 30.24 	10	clear	
Sun Jan 31 00:30:36 2010	Detroit, MI (48201) 	17 -8 	14-Jun	61	SE	4	10	1023.3 30.23 	10	clear	
Sun Jan 31 01:21:20 2010	Detroit, MI (48201) 	16 -8 	13-Jul	67	SSE	3	10	1023.5 30.23 	10	clear	
Sun Jan 31 02:05:21 2010	Detroit, MI (48201) 	16 -8 	13-Jul	67	S	6	6	1023.3 30.23 	10	clear	
Sun Jan 31 02:48:47 2010	Detroit, MI (48201) 	16 -8 	13-Jul	67	S	6	6	1023.3 30.23 	10	clear	
Sun Jan 31 03:32:39 2010	Detroit, MI (48201) 	15 -9 	13-Jul	70	S	4	8	1022.9 30.22 	10	clear	
Sun Jan 31 04:16:05 2010	Detroit, MI (48201) 	15 -9 	13-Jul	70	calm		15	1022.9 30.22 	10	clear	
Sun Jan 31 05:00:43 2010	Detroit, MI (48201) 	14 -10 	13-Jul	73	calm		14	1022.6 30.21 	10	clear	
Sun Jan 31 05:46:45 2010	Detroit, MI (48201) 	14 -10 	13-Jul	73	calm		14	1022.6 30.21 	10	clear	
Sun Jan 31 06:31:56 2010	Detroit, MI (48201) 	15 -9 	13-Jul	70	W	3	9	1022.5 30.20 	10	clear	
Sun Jan 31 07:14:49 2010	Detroit, MI (48201) 	14 -10 	13-Aug	77	WSW	5	5	1022.3 30.20 	10	clear	
Sun Jan 31 08:01:33 2010	Detroit, MI (48201) 	14 -10 	13-Aug	77	W	5	5	1022.0 30.19 	10	clear	
Sun Jan 31 08:46:13 2010	Detroit, MI (48201) 	14 -10 	13-Aug	77	W	5	5	1022.0 30.19 	10	clear	
Sun Jan 31 09:29:27 2010	Detroit, MI (48201) 	14 -10 	13-Aug	77	WSW	5	5	1022.2 30.19 	10	clear	
Sun Jan 31 10:12:40 2010	Detroit, MI (48201) 	13 -10 	13-Jul	77	W	7	2	1022.1 30.19 	10	clear	
Sun Jan 31 10:56:25 2010	Detroit, MI (48201) 	13 -10 	13-Jul	77	W	7	2	1022.1 30.19 	10	clear	
Sun Jan 31 11:39:53 2010	Detroit, MI (48201) 	13 -10 	13-Jul	77	WSW	5	4	1021.9 30.19 	10	clear	
Sun Jan 31 12:23:33 2010	Detroit, MI (48201) 	11-Nov	13-Jul	84	SW	5	1	1021.9 30.19 	10	clear	
Sun Jan 31 13:06:56 2010	Detroit, MI (48201) 	13 -10 	13-Aug	81	SW	7	2	1022.2 30.19 	10	cloudy	
Sun Jan 31 13:50:34 2010	Detroit, MI (48201) 	13 -10 	13-Aug	81	SW	7	2	1022.2 30.19 	10	cloudy	
Sun Jan 31 14:33:23 2010	Detroit, MI (48201) 	14 -10 	13-Aug	77	SW	6	4	1022.5 30.20 	10	cloudy	
Sun Jan 31 15:17:28 2010	Detroit, MI (48201) 	16 -8 	13-Aug	70	SW	8	4	1022.3 30.20 	10	cloudy	
Sun Jan 31 16:01:01 2010	Detroit, MI (48201) 	18 -7 	13-Aug	65	WSW	10	5	1021.9 30.19 	10	cloudy	
Sun Jan 31 16:50:47 2010	Detroit, MI (48201) 	18 -7 	13-Aug	65	WSW	10	5	1021.9 30.19 	10	cloudy	
Sun Jan 31 17:34:25 2010	Detroit, MI (48201) 	19 -7 	12-Oct	67	WSW	12	6	1021.9 30.19 	9	cloudy	
Sun Jan 31 18:19:25 2010	Detroit, MI (48201) 	21 -6 	13 -10 	70	SW	13	8	1021.3 30.17 	10	cloudy	
Sun Jan 31 19:03:12 2010	Detroit, MI (48201) 	22 -5 	13 -10 	68	WSW	13	9	1020.4 30.14 	10	cloudy	
Sun Jan 31 19:48:34 2010	Detroit, MI (48201) 	22 -5 	13 -10 	68	WSW	13	9	1020.4 30.14 	10	cloudy	
Sun Jan 31 20:31:32 2010	Detroit, MI (48201) 	23 -5 	13 -10 	65	WSW	13	10	1019.6 30.12 	10	cloudy	
Sun Jan 31 21:15:45 2010	Detroit, MI (48201) 	25 -3 	14 -10 	62	WSW	11	14	1043.7 30.83 	10	cloudy	
Sun Jan 31 21:58:59 2010	Detroit, MI (48201) 	25 -3 	14 -10 	62	WSW	11	14	1043.7 30.83 	10	cloudy	
Sun Jan 31 22:43:47 2010	Detroit, MI (48201) 	26 -3 	14 -10 	60	WSW	11	15	1043.5 30.82 	10	cloudy	
Sun Jan 31 23:27:08 2010	Detroit, MI (48201) 	27 -2 	13 -10 	55	WSW	14	15	1043.5 30.82 	10	partly cloudy	
Thu Feb 4 00:12:28 2010	Detroit, MI (48201) 	32 0 	23 -5 	69	WNW	5	26	1025.6 30.29 	10	cloudy	
Thu Feb 4 00:56:33 2010	Detroit, MI (48201) 	32 0 	23 -5 	69	WNW	5	26	1025.6 30.29 	10	cloudy	
Thu Feb 4 01:39:48 2010	Detroit, MI (48201) 	31 0 	22 -5 	69	NNW	4	26	1026.5 30.32 	10	mostly clear	
Thu Feb 4 02:27:33 2010	Detroit, MI (48201) 	30 -1 	22 -5 	71	NW	5	24	1027.5 30.35 	9	cloudy	
Thu Feb 4 03:10:45 2010	Detroit, MI (48201) 	28 -2 	21 -6 	75	WNW	3	24	1028.3 30.37 	9	clear	
Thu Feb 4 03:55:12 2010	Detroit, MI (48201) 	28 -2 	21 -6 	75	WNW	3	24	1028.3 30.37 	9	clear	
Thu Feb 4 04:38:28 2010	Detroit, MI (48201) 	28 -2 	21 -6 	75	calm		28	1028.6 30.38 	8	mostly clear	
Thu Feb 4 05:21:49 2010	Detroit, MI (48201) 	29 -1 	21 -6 	72	WNW	3	25	1029.4 30.41 	9	cloudy	
Thu Feb 4 06:04:40 2010	Detroit, MI (48201) 	27 -2 	20 -6 	74	WNW	3	23	1029.5 30.41 	10	clear	
Thu Feb 4 06:47:45 2010	Detroit, MI (48201) 	27 -2 	20 -6 	74	WNW	3	23	1029.5 30.41 	10	clear	
Thu Feb 4 07:31:18 2010	Detroit, MI (48201) 	26 -3 	19 -7 	74	NW	3	22	1029.5 30.41 	8	mostly cloudy	
Thu Feb 4 08:13:52 2010	Detroit, MI (48201) 	25 -3 	18 -7 	74	NNW	3	21	1029.2 30.40 	9	clear	
Thu Feb 4 08:57:34 2010	Detroit, MI (48201) 	25 -3 	18 -7 	74	NNW	3	21	1029.2 30.40 	9	clear	
Thu Feb 4 09:41:29 2010	Detroit, MI (48201) 	22 -5 	17 -8 	81	calm		22	1029.2 30.40 	9	clear	
Thu Feb 4 10:25:08 2010	Detroit, MI (48201) 	21 -6 	17 -8 	85	calm		21	1029.6 30.41 	8	clear	
Thu Feb 4 11:11:04 2010	Detroit, MI (48201) 	20 -6 	17 -8 	89	calm		20	1030.3 30.43 	7	mostly cloudy	
Thu Feb 4 11:54:36 2010	Detroit, MI (48201) 	20 -6 	17 -8 	89	calm		20	1030.3 30.43 	7	mostly cloudy	
Thu Feb 4 12:37:41 2010	Detroit, MI (48201) 	21 -6 	17 -8 	85	calm		21	1030.9 30.45 	7	clear	
Thu Feb 4 13:21:46 2010	Detroit, MI (48201) 	20 -6 	16 -8 	85	calm		20	1030.7 30.45 	6	clear	haze
Thu Feb 4 14:06:36 2010	Detroit, MI (48201) 	19 -7 	16 -8 	88	calm		19	1031.8 30.48 	5	clear	haze
Thu Feb 4 14:59:23 2010	Detroit, MI (48201) 	19 -7 	16 -8 	88	calm		19	1031.8 30.48 	5	clear	haze
Thu Jan 28 15:39:02 2010	Detroit, MI (48201) 	16 -8 	14-Jun	64	NW	14	1	1045.7 30.89 	5	cloudy	light snow 
Thu Jan 28 15:59:51 2010	Detroit, MI (48201) 	16 -8 	14-Jun	64	NW	14	1	1045.7 30.89 	5	cloudy	light snow 
Thu Jan 28 16:49:11 2010	Detroit, MI (48201) 	13 -10 	13-Aug	81	NW	12	-2	1022.6 30.21 	1	cloudy	light snow 
Thu Jan 28 17:13:25 2010	Detroit, MI (48201) 	14 -10 	-1 -18 	51	NW	12	-1	1048.7 30.98 	10	mostly cloudy	
Thu Jan 28 17:29:24 2010	Detroit, MI (48201) 	14 -10 	-1 -18 	51	NW	12	-1	1048.7 30.98 	10	mostly cloudy	
Tue Feb 2 00:28:20 2010	Detroit, MI (48201) 	26 -3 	13 -10 	57	SW	7	18	1025.6 30.29 	10	cloudy	
Tue Feb 2 01:13:56 2010	Detroit, MI (48201) 	25 -3 	15 -9 	66	SW	6	17	950.8 28.09 	10	cloudy	
Tue Feb 2 01:57:05 2010	Detroit, MI (48201) 	25 -3 	15 -9 	66	SW	6	17	950.8 28.09 	10	cloudy	
Tue Feb 2 02:41:08 2010	Detroit, MI (48201) 	25 -3 	15 -9 	66	SW	3	21	950.2 28.07 	10	cloudy	
Tue Feb 2 03:24:39 2010	Detroit, MI (48201) 	23 -5 	15 -9 	71	SW	3	18	950.1 28.06 	10	mostly cloudy	
Tue Feb 2 04:08:27 2010	Detroit, MI (48201) 	23 -5 	16 -8 	74	SW	3	18	1024.5 30.26 	10	cloudy	
Tue Feb 2 04:51:59 2010	Detroit, MI (48201) 	23 -5 	16 -8 	74	SW	3	18	1024.5 30.26 	10	cloudy	
Tue Feb 2 05:35:22 2010	Detroit, MI (48201) 	23 -5 	16 -8 	74	calm		23	1024.2 30.25 	10	cloudy	
Tue Feb 2 06:18:39 2010	Detroit, MI (48201) 	21 -6 	15 -9 	78	calm		21	1024.1 30.25 	10	cloudy	
Tue Feb 2 07:05:46 2010	Detroit, MI (48201) 	20 -6 	15 -9 	81	calm		20	1024.0 30.25 	10	mostly clear	
Tue Feb 2 07:48:46 2010	Detroit, MI (48201) 	20 -6 	15 -9 	81	calm		20	1024.0 30.25 	10	mostly clear	
Tue Feb 2 08:31:59 2010	Detroit, MI (48201) 	19 -7 	15 -9 	84	calm		19	1024.0 30.25 	9	partly cloudy	
Tue Feb 2 09:15:27 2010	Detroit, MI (48201) 	20 -6 	16 -8 	85		3	15	1023.4 30.23 	9	cloudy	
Tue Feb 2 09:59:00 2010	Detroit, MI (48201) 	20 -6 	16 -8 	85		3	15	1023.4 30.23 	9	cloudy	
Tue Feb 2 10:42:33 2010	Detroit, MI (48201) 	21 -6 	16 -8 	81	ENE	3	16	1023.0 30.22 	9	cloudy	
Tue Feb 2 11:26:40 2010	Detroit, MI (48201) 	22 -5 	17 -8 	81	calm		22	1023.2 30.22 	9	cloudy	
Tue Feb 2 12:10:42 2010	Detroit, MI (48201) 	23 -5 	18 -7 	81	SE	3	18	1022.9 30.22 	8	cloudy	
Tue Feb 2 12:54:36 2010	Detroit, MI (48201) 	23 -5 	18 -7 	81	SE	3	18	1022.9 30.22 	8	cloudy	
Tue Feb 2 13:37:53 2010	Detroit, MI (48201) 	24 -4 	18 -7 	77	E	3	20	1022.4 30.20 	9	cloudy	
Tue Feb 2 14:21:36 2010	Detroit, MI (48201) 	24 -4 	18 -7 	77	ESE	4	18	1022.4 30.20 	10	cloudy	
Tue Feb 2 15:05:57 2010	Detroit, MI (48201) 	24 -4 	20 -6 	84	ESE	6	16	1021.7 30.18 	4	cloudy	haze 
Tue Feb 2 15:52:22 2010	Detroit, MI (48201) 	24 -4 	20 -6 	84	ESE	6	16	1021.7 30.18 	4	cloudy	haze 
Tue Feb 2 16:44:52 2010	Detroit, MI (48201) 	25 -3 	21 -6 	85	SE	6	17	1021.4 30.17 	3	cloudy	light snow 
Tue Feb 2 17:33:18 2010	Detroit, MI (48201) 	26 -3 	21 -6 	81	SE	7	18	1021.3 30.17 	8	cloudy	
Tue Feb 2 18:17:55 2010	Detroit, MI (48201) 	27 -2 	23 -5 	85	ESE	6	20	1019.9 30.13 	3	cloudy	light snow 
Tue Feb 2 19:02:06 2010	Detroit, MI (48201) 	28 -2 	24 -4 	85	ESE	5	22	1018.9 30.10 	5	cloudy	haze 
Tue Feb 2 19:51:26 2010	Detroit, MI (48201) 	28 -2 	24 -4 	85	ESE	5	22	1018.9 30.10 	5	cloudy	haze 
Tue Feb 2 20:42:39 2010	Detroit, MI (48201) 	29 -1 	24 -4 	82	E	5	23	1017.9 30.07 	5	mostly cloudy	haze 
Tue Feb 2 21:29:30 2010	Detroit, MI (48201) 	29 -1 	25 -3 	85	E	5	23	1018.1 30.07 	2	cloudy	light snow 
Tue Feb 2 22:17:53 2010	Detroit, MI (48201) 	28 -2 	26 -3 	92	ESE	6	21	1018.1 30.07 	1	cloudy	light snow 
Tue Feb 2 23:02:11 2010	Detroit, MI (48201) 	28 -2 	26 -3 	92	ESE	8	19	1018.0 30.07 	1	cloudy	light snow 
Tue Feb 2 23:47:11 2010	Detroit, MI (48201) 	28 -2 	26 -3 	92	ESE	8	19	1018.0 30.07 	1	cloudy	light snow 
Wed Feb 3 00:31:55 2010	Detroit, MI (48201) 	27 -2 	25 -3 	92	SE	7	19	1017.7 30.06 	2	mostly cloudy	light snow 
Wed Feb 3 01:19:05 2010	Detroit, MI (48201) 	27 -2 	25 -3 	92	SE	5	21	1017.3 30.05 	2	cloudy	light snow 
Wed Feb 3 02:03:53 2010	Detroit, MI (48201) 	27 -2 	25 -3 	92	SE	5	21	1017.5 30.06 	2	cloudy	light snow 
Wed Feb 3 02:52:36 2010	Detroit, MI (48201) 	27 -2 	25 -3 	92	SE	5	21	1017.5 30.06 	2	cloudy	light snow 
Wed Feb 3 03:39:25 2010	Detroit, MI (48201) 	27 -2 	25 -3 	92	SSE	5	21	1017.6 30.06 	4	cloudy	haze 
Wed Feb 3 04:27:35 2010	Detroit, MI (48201) 	27 -2 	26 -3 	96	calm		27	1017.6 30.06 	2	cloudy	light snow 
Wed Feb 3 05:14:23 2010	Detroit, MI (48201) 	27 -2 	25 -3 	92	SSW	3	23	1017.4 30.05 	3	cloudy	light snow 
Wed Feb 3 06:02:12 2010	Detroit, MI (48201) 	27 -2 	25 -3 	92	calm		27	1017.6 30.06 	3	cloudy	light snow 
Wed Feb 3 06:48:56 2010	Detroit, MI (48201) 	27 -2 	25 -3 	92	calm		27	1017.6 30.06 	3	cloudy	light snow 
Wed Feb 3 07:33:32 2010	Detroit, MI (48201) 	27 -2 	25 -3 	92	calm		27	1017.5 30.06 	2	cloudy	light snow 
Wed Feb 3 08:16:43 2010	Detroit, MI (48201) 	28 -2 	25 -3 	88	W	3	24	1017.6 30.06 	4	clear	haze
Wed Feb 3 09:03:10 2010	Detroit, MI (48201) 	28 -2 	25 -3 	88	WSW	3	24	1017.9 30.07 	4	mostly cloudy	haze 
Wed Feb 3 09:46:30 2010	Detroit, MI (48201) 	28 -2 	25 -3 	88	WSW	3	24	1017.9 30.07 	4	mostly cloudy	haze 
Wed Feb 3 10:30:23 2010	Detroit, MI (48201) 	28 -2 	25 -3 	88	WSW	3	24	1018.2 30.08 	4	cloudy	haze 
Wed Feb 3 11:17:15 2010	Detroit, MI (48201) 	28 -2 	26 -3 	92	W	3	24	1018.7 30.09 	4	mostly cloudy	haze 
Wed Feb 3 12:02:00 2010	Detroit, MI (48201) 	28 -2 	26 -3 	92	W	3	24	1019.5 30.11 	2	cloudy	light snow 
Wed Feb 3 12:45:13 2010	Detroit, MI (48201) 	28 -2 	26 -3 	92	W	3	24	1019.5 30.11 	2	cloudy	light snow 
Wed Feb 3 13:28:57 2010	Detroit, MI (48201) 	29 -1 	27 -2 	92	W	3	25	1019.8 30.12 	3	mostly cloudy	haze 
Wed Feb 3 14:15:04 2010	Detroit, MI (48201) 	29 -1 	27 -2 	92	W	3	25	1019.8 30.12 	3	mostly cloudy	haze 
Wed Feb 3 15:01:03 2010	Detroit, MI (48201) 	30 -1 	26 -3 	85	NNW	6	23	1021.2 30.16 	3	mostly cloudy	haze 
Wed Feb 3 15:45:52 2010	Detroit, MI (48201) 	30 -1 	26 -3 	85	NNW	6	23	1021.2 30.16 	3	mostly cloudy	haze 
Wed Feb 3 16:31:44 2010	Detroit, MI (48201) 	29 -1 	23 -5 	78	NW	7	21	1022.2 30.19 	8	cloudy	
Wed Feb 3 17:18:56 2010	Detroit, MI (48201) 	30 -1 	23 -5 	75	N	4	25	1022.8 30.21 	8	cloudy	
Wed Feb 3 18:07:14 2010	Detroit, MI (48201) 	31 0 	23 -5 	72	NW	3	27	1023.3 30.23 	7	cloudy	
Wed Feb 3 18:50:22 2010	Detroit, MI (48201) 	31 0 	23 -5 	72	NW	3	27	1023.3 30.23 	7	cloudy	
Wed Feb 3 19:34:36 2010	Detroit, MI (48201) 	32 0 	23 -5 	69	WNW	7	25	1023.4 30.23 	10	mostly clear	
Wed Feb 3 20:18:42 2010	Detroit, MI (48201) 	33 0 	23 -5 	66	WNW	6	27	1023.4 30.23 	10	cloudy	
Wed Feb 3 21:02:59 2010	Detroit, MI (48201) 	34 1 	23 -5 	64	WNW	8	27	1023.2 30.22 	10	cloudy	
Wed Feb 3 21:51:06 2010	Detroit, MI (48201) 	34 1 	23 -5 	64	WNW	8	27	1023.2 30.22 	10	cloudy	
Wed Feb 3 22:36:38 2010	Detroit, MI (48201) 	33 0 	23 -5 	66	WNW	4	29	1023.5 30.23 	10	cloudy	
Wed Feb 3 23:27:32 2010	Detroit, MI (48201) 	32 0 	23 -5 	69	NW	6	26	1024.7 30.27 	10	cloudy	
Wed Feb 3 02:03:42 2010	El Paso, TX (79901)	57 13 	34 1 	42	ENE	9		1008.9 29.80 	10	cloudy	
Fri Jan 29 08:41:27 2010	El Paso, TX (79901) 	31 0 	28 -2 	89	N	11	21	1018.5 30.09 	3	cloudy	light snow 
Fri Jan 29 09:25:22 2010	El Paso, TX (79901) 	30 -1 	28 -2 	92	N	9	21	1019.1 30.10 	4	cloudy	light snow 
Fri Jan 29 11:57:24 2010	El Paso, TX (79901) 	30 -1 	25 -3 	81	N	11	20	1019.2 30.11 	7	cloudy	
Fri Jan 29 12:42:06 2010	El Paso, TX (79901) 	30 -1 	26 -3 	85	N	9	21	1019.6 30.12 	7	cloudy	
Fri Jan 29 13:29:49 2010	El Paso, TX (79901) 	30 -1 	26 -3 	85	N	8	22	1019.9 30.13 	10	cloudy	
Fri Jan 29 14:17:41 2010	El Paso, TX (79901) 	30 -1 	25 -3 	81	NNE	9	21	1019.5 30.11 	10	cloudy	
Fri Jan 29 15:02:27 2010	El Paso, TX (79901) 	30 -1 	25 -3 	81	N	6	23	1020.1 30.13 	10	cloudy	
Fri Jan 29 15:48:00 2010	El Paso, TX (79901) 	30 -1 	25 -3 	81	N	6	23	1020.1 30.13 	10	mostly cloudy	
Fri Jan 29 16:35:39 2010	El Paso, TX (79901) 	31 0 	24 -4 	76	calm		31	1020.8 30.15 	10	mostly cloudy	
Fri Jan 29 17:20:09 2010	El Paso, TX (79901) 	32 0 	24 -4 	72	NNE	3	29	1021.4 30.17 	10	mostly cloudy	
Fri Jan 29 18:08:41 2010	El Paso, TX (79901) 	35 1 	27 -2 	72	N	5	30	1021.0 30.16 	10	partly cloudy	
Fri Jan 29 18:53:41 2010	El Paso, TX (79901) 	35 1 	27 -2 	72	N	5	30	1021.0 30.16 	10	partly cloudy	
Fri Jan 29 19:45:40 2010	El Paso, TX (79901) 	37 2 	28 -2 	70	N	6	32	1021.2 30.16 	10	mostly clear	
Fri Jan 29 20:43:29 2010	El Paso, TX (79901) 	40 4 	29 -1 	64	N	7	34	1020.1 30.13 	10	mostly clear	
Fri Jan 29 21:28:07 2010	El Paso, TX (79901) 	42 5 	31 0 	64	N	6	38	1018.7 30.09 	10	mostly clear	
Fri Jan 29 22:14:43 2010	El Paso, TX (79901) 	43 6 	31 0 	62	NW	4	40	1017.7 30.06 	10	mostly clear	
Fri Jan 29 22:59:38 2010	El Paso, TX (79901) 	43 6 	31 0 	62	NW	4	40	1017.7 30.06 	10	mostly clear	
Fri Jan 29 23:43:56 2010	El Paso, TX (79901) 	46 7 	31 0 	55	calm		46	1017.4 30.05 	10	mostly clear	
Mon Feb 1 00:10:55 2010	El Paso, TX (79901) 	57 13 	34 1 	42	S	3		1009.7 29.83 	10	cloudy	
Mon Feb 1 00:53:52 2010	El Paso, TX (79901) 	57 13 	34 1 	42	S	3		1009.7 29.83 	10	cloudy	
Mon Feb 1 01:40:09 2010	El Paso, TX (79901) 	56 13 	34 1 	43	WSW	3		1009.8 29.83 	10	mostly cloudy	
Mon Feb 1 02:24:07 2010	El Paso, TX (79901) 	55 12 	36 2 	49	N	3		1010.3 29.84 	10	mostly cloudy	
Mon Feb 1 03:07:49 2010	El Paso, TX (79901) 	52 11 	37 2 	56	calm			1010.9 29.86 	10	mostly cloudy	
Mon Feb 1 03:52:28 2010	El Paso, TX (79901) 	52 11 	37 2 	56	calm			1010.9 29.86 	10	mostly cloudy	
Mon Feb 1 04:37:15 2010	El Paso, TX (79901) 	49 9 	37 2 	63	calm		49	1011.8 29.89 	10	partly cloudy	
Mon Feb 1 05:20:26 2010	El Paso, TX (79901) 	50 10 	35 1 	56	calm			1011.8 29.89 	10	partly cloudy	
Mon Feb 1 06:05:18 2010	El Paso, TX (79901) 	49 9 	36 2 	61	WSW	4	47	1011.8 29.89 	10	partly cloudy	
Mon Feb 1 06:48:28 2010	El Paso, TX (79901) 	49 9 	36 2 	61	WSW	4	47	1011.8 29.89 	10	partly cloudy	
Mon Feb 1 07:32:18 2010	El Paso, TX (79901) 	48 8 	36 2 	63	SSW	6	45	1011.7 29.88 	10	mostly clear	
Mon Feb 1 08:15:25 2010	El Paso, TX (79901) 	47 8 	36 2 	66	WSW	6	44	1011.2 29.87 	10	mostly clear	
Mon Feb 1 08:59:10 2010	El Paso, TX (79901) 	47 8 	36 2 	66	WSW	6	44	1011.2 29.87 	10	mostly clear	
Mon Feb 1 09:42:09 2010	El Paso, TX (79901) 	47 8 	37 2 	68	SSW	5	44	1011.0 29.86 	10	mostly clear	
Mon Feb 1 10:25:42 2010	El Paso, TX (79901) 	45 7 	37 2 	73	S	5	42	1011.5 29.88 	10	mostly cloudy	
Mon Feb 1 11:08:39 2010	El Paso, TX (79901) 	46 7 	37 2 	71	calm		46	1011.2 29.87 	10	mostly cloudy	
Mon Feb 1 11:52:06 2010	El Paso, TX (79901) 	46 7 	37 2 	71	calm		46	1011.2 29.87 	10	mostly cloudy	
Mon Feb 1 12:35:26 2010	El Paso, TX (79901) 	44 6 	38 3 	79	calm		44	1011.4 29.88 	10	mostly cloudy	
Mon Feb 1 13:19:00 2010	El Paso, TX (79901) 	43 6 	37 2 	79	calm		43	1011.6 29.88 	10	mostly cloudy	
Mon Feb 1 14:02:53 2010	El Paso, TX (79901) 	42 5 	37 2 	82	calm		42	1012.0 29.89 	10	mostly cloudy	
Mon Feb 1 14:47:59 2010	El Paso, TX (79901) 	42 5 	37 2 	82	calm		42	1012.0 29.89 	10	mostly cloudy	
Mon Feb 1 15:31:42 2010	El Paso, TX (79901) 	41 5 	37 2 	86	SSE	5	37	1012.8 29.92 	10	mostly cloudy	
Mon Feb 1 16:16:10 2010	El Paso, TX (79901) 	45 7 	39 3 	79	ESE	3	44	1013.4 29.93 	10	mostly cloudy	
Mon Feb 1 17:01:00 2010	El Paso, TX (79901) 	48 8 	39 3 	71	calm		48	1013.4 29.93 	10	mostly cloudy	
Mon Feb 1 17:44:59 2010	El Paso, TX (79901) 	48 8 	39 3 	71	calm		48	1013.4 29.93 	10	mostly cloudy	
Mon Feb 1 18:28:29 2010	El Paso, TX (79901) 	51 10 	40 4 	65	ESE	4		1013.6 29.94 	10	mostly cloudy	
Mon Feb 1 19:12:16 2010	El Paso, TX (79901) 	56 13 	38 3 	51	calm			1012.9 29.92 	10	partly cloudy	
Mon Feb 1 19:57:06 2010	El Paso, TX (79901) 	56 13 	38 3 	51	calm			1012.9 29.92 	10	partly cloudy	
Mon Feb 1 20:43:32 2010	El Paso, TX (79901) 	60 15 	29 -1 	30	WNW	11		1011.5 29.88 	10	partly cloudy	
Mon Feb 1 21:28:27 2010	El Paso, TX (79901) 	60 15 	32 0 	34	W	11		1010.5 29.85 	10	partly cloudy	
Mon Feb 1 22:11:52 2010	El Paso, TX (79901) 	60 15 	34 1 	37	calm			1009.9 29.83 	10	partly cloudy	
Mon Feb 1 22:55:10 2010	El Paso, TX (79901) 	60 15 	34 1 	37	calm			1009.9 29.83 	10	partly cloudy	
Mon Feb 1 23:41:18 2010	El Paso, TX (79901) 	62 16 	31 0 	31	W	8		1009.1 29.81 	10	mostly cloudy	
Sat Jan 30 00:28:00 2010	El Paso, TX (79901) 	47 8 	30 -1 	52	N	4	45	1017.4 30.05 	10	mostly clear	
Sat Jan 30 01:12:10 2010	El Paso, TX (79901) 	47 8 	31 0 	53	N	3	46	1017.7 30.06 	10	mostly clear	
Sat Jan 30 01:55:42 2010	El Paso, TX (79901) 	47 8 	31 0 	53	N	3	46	1017.7 30.06 	10	mostly clear	
Sat Jan 30 02:40:21 2010	El Paso, TX (79901) 	44 6 	32 0 	62	WSW	6	40	1018.1 30.07 	10	mostly clear	
Sat Jan 30 03:23:55 2010	El Paso, TX (79901) 	44 6 	32 0 	62	W	4	42	1018.5 30.09 	10	clear	
Sat Jan 30 04:07:49 2010	El Paso, TX (79901) 	41 5 	31 0 	67	NE	7	36	1019.2 30.11 	10	clear	
Sat Jan 30 04:51:35 2010	El Paso, TX (79901) 	41 5 	31 0 	67	NE	7	36	1019.2 30.11 	10	clear	
Sat Jan 30 05:35:17 2010	El Paso, TX (79901) 	38 3 	30 -1 	73	NE	3	35	1019.4 30.11 	10	clear	
Sat Jan 30 06:19:24 2010	El Paso, TX (79901) 	38 3 	31 0 	76	N	5	33	1019.0 30.10 	10	clear	
Sat Jan 30 07:05:25 2010	El Paso, TX (79901) 	37 2 	30 -1 	76	N	5	32	1019.1 30.10 	10	clear	
Sat Jan 30 07:48:08 2010	El Paso, TX (79901) 	37 2 	30 -1 	76	N	5	32	1019.1 30.10 	10	clear	
Sat Jan 30 08:31:20 2010	El Paso, TX (79901) 	36 2 	30 -1 	79	calm		36	1018.9 30.10 	10	mostly clear	
Sat Jan 30 11:13:06 2010	El Paso, TX (79901) 	31 0 	28 -2 	89	NE	3	27	1018.7 30.09 	10	clear	
Sat Jan 30 12:00:54 2010	El Paso, TX (79901) 	30 -1 	28 -2 	92	calm		30	1018.2 30.08 	10	clear	
Sat Jan 30 12:44:33 2010	El Paso, TX (79901) 	30 -1 	28 -2 	92	calm		30	1018.2 30.08 	10	clear	
Sat Jan 30 13:27:48 2010	El Paso, TX (79901) 	31 0 	27 -2 	85	NNE	3	27	1018.1 30.07 	10	clear	
Sat Jan 30 14:11:59 2010	El Paso, TX (79901) 	30 -1 	27 -2 	88	N	5	24	1018.7 30.09 	10	clear	
Sat Jan 30 14:56:02 2010	El Paso, TX (79901) 	30 -1 	27 -2 	88	N	5	24	1018.7 30.09 	10	clear	
Sat Jan 30 15:41:52 2010	El Paso, TX (79901) 	30 -1 	27 -2 	88	N	6	23	1019.0 30.10 	10	clear	
Sat Jan 30 16:26:52 2010	El Paso, TX (79901) 	33 0 	28 -2 	81	NE	5	28	1019.7 30.12 	10	clear	
Sat Jan 30 17:11:17 2010	El Paso, TX (79901) 	36 2 	30 -1 	79	NNE	5	31	1020.2 30.14 	10	clear	
Sat Jan 30 17:54:29 2010	El Paso, TX (79901) 	36 2 	30 -1 	79	NNE	5	31	1020.2 30.14 	10	clear	
Sat Jan 30 18:38:29 2010	El Paso, TX (79901) 	40 4 	31 0 	70	calm		40	1020.2 30.14 	10	mostly clear	
Sat Jan 30 19:21:47 2010	El Paso, TX (79901) 	44 6 	32 0 	62	N	4	42	1019.4 30.11 	10	mostly clear	
Sat Jan 30 20:06:02 2010	El Paso, TX (79901) 	47 8 	31 0 	53	calm		47	1018.3 30.08 	10	partly cloudy	
Sat Jan 30 20:49:07 2010	El Paso, TX (79901) 	47 8 	31 0 	53	calm		47	1018.3 30.08 	10	partly cloudy	
Sat Jan 30 21:32:55 2010	El Paso, TX (79901) 	50 10 	31 0 	48	NNE	5	48	1016.9 30.04 	10	partly cloudy	
Sat Jan 30 22:16:09 2010	El Paso, TX (79901) 	51 10 	31 0 	46	N	6	49	1016.1 30.01 	10	mostly cloudy	
Sat Jan 30 23:01:44 2010	El Paso, TX (79901) 	52 11 	31 0 	44	NNE	3		1015.7 30.00 	10	mostly cloudy	
Sat Jan 30 23:46:28 2010	El Paso, TX (79901) 	52 11 	31 0 	44	NNE	3		1015.7 30.00 	10	mostly cloudy	
Sun Jan 31 00:30:23 2010	El Paso, TX (79901) 	52 11 	30 -1 	43	calm			1015.4 29.99 	10	cloudy	
Sun Jan 31 01:21:11 2010	El Paso, TX (79901) 	52 11 	30 -1 	43	calm			1015.3 29.99 	10	cloudy	
Sun Jan 31 02:05:10 2010	El Paso, TX (79901) 	50 10 	33 0 	52	N	5	48	1015.6 30.00 	10	cloudy	
Sun Jan 31 02:48:37 2010	El Paso, TX (79901) 	50 10 	33 0 	52	N	5	48	1015.6 30.00 	10	cloudy	
Sun Jan 31 03:32:29 2010	El Paso, TX (79901) 	47 8 	33 0 	58	N	6	44	1015.8 30.01 	10	mostly cloudy	
Sun Jan 31 04:15:56 2010	El Paso, TX (79901) 	44 6 	34 1 	67	NNE	3	43	1015.7 30.00 	10	mostly cloudy	
Sun Jan 31 05:00:29 2010	El Paso, TX (79901) 	43 6 	32 0 	65	NE	6	39	1015.8 30.01 	10	partly cloudy	
Sun Jan 31 05:46:33 2010	El Paso, TX (79901) 	43 6 	32 0 	65	NE	6	39	1015.8 30.01 	10	partly cloudy	
Sun Jan 31 06:31:46 2010	El Paso, TX (79901) 	41 5 	33 0 	73	NNW	5	37	1015.9 30.01 	10	mostly cloudy	
Sun Jan 31 07:14:40 2010	El Paso, TX (79901) 	42 5 	33 0 	70	N	4	39	1015.5 30.00 	10	mostly cloudy	
Sun Jan 31 08:01:23 2010	El Paso, TX (79901) 	42 5 	33 0 	70	NE	4	39	1015.1 29.98 	10	cloudy	
Sun Jan 31 08:46:04 2010	El Paso, TX (79901) 	42 5 	33 0 	70	NE	4	39	1015.1 29.98 	10	cloudy	
Sun Jan 31 09:29:18 2010	El Paso, TX (79901) 	41 5 	33 0 	73	NNE	6	36	1014.6 29.97 	10	cloudy	
Sun Jan 31 10:12:30 2010	El Paso, TX (79901) 	39 3 	33 0 	79	N	6	34	1014.6 29.97 	10	cloudy	
Sun Jan 31 10:56:15 2010	El Paso, TX (79901) 	39 3 	33 0 	79	N	6	34	1014.6 29.97 	10	cloudy	
Sun Jan 31 11:39:43 2010	El Paso, TX (79901) 	39 3 	33 0 	79	NNE	5	35	1014.2 29.96 	10	mostly cloudy	
Sun Jan 31 12:23:24 2010	El Paso, TX (79901) 	39 3 	33 0 	79	N	4	36	1013.6 29.94 	10	cloudy	
Sun Jan 31 13:06:47 2010	El Paso, TX (79901) 	39 3 	33 0 	79	N	5	35	1013.5 29.94 	10	cloudy	
Sun Jan 31 13:50:22 2010	El Paso, TX (79901) 	39 3 	33 0 	79	N	5	35	1013.5 29.94 	10	cloudy	
Sun Jan 31 14:33:13 2010	El Paso, TX (79901) 	39 3 	33 0 	79	NNE	5	35	1013.7 29.94 	10	cloudy	
Sun Jan 31 15:17:19 2010	El Paso, TX (79901) 	39 3 	33 0 	79	NNE	5	35	1014.3 29.96 	10	cloudy	
Sun Jan 31 16:00:46 2010	El Paso, TX (79901) 	39 3 	34 1 	82	NNE	5	35	1014.7 29.97 	10	cloudy	
Sun Jan 31 16:50:34 2010	El Paso, TX (79901) 	39 3 	34 1 	82	NNE	5	35	1014.7 29.97 	10	cloudy	
Sun Jan 31 17:34:15 2010	El Paso, TX (79901) 	41 5 	34 1 	76	N	5	37	1014.8 29.98 	10	cloudy	
Sun Jan 31 18:19:15 2010	El Paso, TX (79901) 	44 6 	35 1 	70	NNW	3	43	1014.9 29.98 	10	cloudy	
Sun Jan 31 19:03:00 2010	El Paso, TX (79901) 	48 8 	34 1 	58	calm		48	1014.1 29.96 	10	mostly cloudy	
Sun Jan 31 19:48:24 2010	El Paso, TX (79901) 	48 8 	34 1 	58	calm		48	1014.1 29.96 	10	mostly cloudy	
Sun Jan 31 20:31:23 2010	El Paso, TX (79901) 	52 11 	34 1 	50	calm			1012.5 29.91 	10	mostly cloudy	
Sun Jan 31 21:15:36 2010	El Paso, TX (79901) 	54 12 	33 0 	45	N	3		1011.0 29.86 	10	mostly cloudy	
Sun Jan 31 21:58:50 2010	El Paso, TX (79901) 	54 12 	33 0 	45	N	3		1011.0 29.86 	10	mostly cloudy	
Sun Jan 31 22:43:38 2010	El Paso, TX (79901) 	55 12 	32 0 	41	WSW	3		1010.3 29.84 	10	mostly cloudy	
Sun Jan 31 23:26:58 2010	El Paso, TX (79901) 	57 13 	33 0 	40	calm			1009.8 29.83 	10	mostly cloudy	
Thu Feb 4 00:12:18 2010	El Paso, TX (79901) 	45 7 	41 5 	86	N	12	39	1002.9 29.62 	10	cloudy	
Thu Feb 4 00:56:23 2010	El Paso, TX (79901) 	45 7 	41 5 	86	N	12	39	1002.9 29.62 	10	cloudy	
Thu Feb 4 01:39:38 2010	El Paso, TX (79901) 	45 7 	41 5 	86	NNW	8	40	1003.9 29.65 	10	mostly cloudy	
Thu Feb 4 02:27:23 2010	El Paso, TX (79901) 	45 7 	41 5 	86	N	9	40	1004.4 29.67 	7	cloudy	light rain 
Thu Feb 4 03:10:31 2010	El Paso, TX (79901) 	44 6 	42 5 	93	N	7	40	1005.3 29.70 	10	cloudy	
Thu Feb 4 03:55:01 2010	El Paso, TX (79901) 	44 6 	42 5 	93	N	7	40	1005.3 29.70 	10	cloudy	
Thu Feb 4 04:38:18 2010	El Paso, TX (79901) 	44 6 	42 5 	93	N	3	43	1006.2 29.72 	10	cloudy	light rain 
Thu Feb 4 05:21:38 2010	El Paso, TX (79901) 	44 6 	41 5 	89	calm		44	1006.8 29.74 	10	cloudy	
Thu Feb 4 06:04:29 2010	El Paso, TX (79901) 	44 6 	40 4 	85	calm		44	1006.8 29.74 	10	cloudy	
Thu Feb 4 06:47:31 2010	El Paso, TX (79901) 	44 6 	40 4 	85	calm		44	1006.8 29.74 	10	cloudy	
Thu Feb 4 07:31:09 2010	El Paso, TX (79901) 	44 6 	41 5 	89	SW	4	42	1006.8 29.74 	10	cloudy	
Thu Feb 4 08:13:43 2010	El Paso, TX (79901) 	43 6 	41 5 	93	S	7	38	1006.9 29.74 	10	cloudy	
Thu Feb 4 08:57:25 2010	El Paso, TX (79901) 	43 6 	41 5 	93	S	7	38	1006.9 29.74 	10	cloudy	
Thu Feb 4 09:41:20 2010	El Paso, TX (79901) 	43 6 	40 4 	89	S	4	40	1007.3 29.75 	10	cloudy	light rain 
Thu Feb 4 10:24:59 2010	El Paso, TX (79901) 	43 6 	41 5 	93	S	3	41	1007.0 29.75 	10	cloudy	light rain 
Thu Feb 4 11:10:55 2010	El Paso, TX (79901) 	44 6 	40 4 	85	WSW	6	40	1007.2 29.75 	10	cloudy	
Thu Feb 4 11:54:26 2010	El Paso, TX (79901) 	44 6 	40 4 	85	WSW	6	40	1007.2 29.75 	10	cloudy	
Thu Feb 4 12:37:32 2010	El Paso, TX (79901) 	44 6 	41 5 	89	calm		44	1007.2 29.75 	10	cloudy	
Thu Feb 4 13:21:36 2010	El Paso, TX (79901) 	44 6 	40 4 	85	N	4	42	1007.2 29.75 	10	cloudy	
Thu Feb 4 14:06:26 2010	El Paso, TX (79901) 	43 6 	41 5 	93	SSW	3	41	1007.9 29.77 	10	cloudy	
Thu Feb 4 14:59:12 2010	El Paso, TX (79901) 	43 6 	41 5 	93	SSW	3	41	1007.9 29.77 	10	cloudy	
Thu Jan 28 15:38:51 2010	El Paso, TX (79901) 	45 7 	42 5 	89	N	3	44	1009.3 29.81 	10	cloudy	
Thu Jan 28 15:59:36 2010	El Paso, TX (79901) 	45 7 	42 5 	89	N	3	44	1009.3 29.81 	10	cloudy	
Thu Jan 28 16:48:59 2010	El Paso, TX (79901) 	45 7 	43 6 	93	N	4	43	1010.0 29.83 	10	cloudy	
Thu Jan 28 17:13:14 2010	El Paso, TX (79901) 	46 7 	43 6 	89	NNW	6	42	1011.3 29.87 	8	cloudy	light rain 
Thu Jan 28 17:29:12 2010	El Paso, TX (79901) 	46 7 	43 6 	89	NNW	6	42	1011.3 29.87 	8	cloudy	light rain 
Tue Feb 2 00:28:10 2010	El Paso, TX (79901) 	61 16 	30 -1 	31	W	7		1009.3 29.81 	10	mostly cloudy	
Tue Feb 2 01:13:47 2010	El Paso, TX (79901) 	60 15 	30 -1 	32	WNW	9		1009.9 29.83 	10	mostly cloudy	
Tue Feb 2 01:56:56 2010	El Paso, TX (79901) 	60 15 	30 -1 	32	WNW	9		1009.9 29.83 	10	mostly cloudy	
Tue Feb 2 02:40:58 2010	El Paso, TX (79901) 	58 14 	32 0 	37	WNW	9		1010.7 29.85 	10	cloudy	
Tue Feb 2 03:24:30 2010	El Paso, TX (79901) 	57 13 	32 0 	39	WNW	4		1011.4 29.88 	10	cloudy	
Tue Feb 2 04:08:17 2010	El Paso, TX (79901) 	54 12 	34 1 	47	N	5		1011.4 29.88 	10	cloudy	
Tue Feb 2 04:51:50 2010	El Paso, TX (79901) 	54 12 	34 1 	47	N	5		1011.4 29.88 	10	cloudy	
Tue Feb 2 05:35:13 2010	El Paso, TX (79901) 	53 11 	33 0 	46	NNW	3		1011.5 29.88 	10	mostly cloudy	
Tue Feb 2 06:18:26 2010	El Paso, TX (79901) 	46 7 	35 1 	65	NE	4	44	1011.8 29.89 	10	cloudy	
Tue Feb 2 07:05:37 2010	El Paso, TX (79901) 	46 7 	35 1 	65	calm		46	1012.0 29.89 	10	cloudy	
Tue Feb 2 07:48:38 2010	El Paso, TX (79901) 	46 7 	35 1 	65	calm		46	1012.0 29.89 	10	cloudy	
Tue Feb 2 08:31:50 2010	El Paso, TX (79901) 	44 6 	34 1 	67	E	4	42	1012.1 29.90 	10	mostly cloudy	
Tue Feb 2 09:15:19 2010	El Paso, TX (79901) 	45 7 	33 0 	63	NE	3	44	1011.6 29.88 	10	mostly cloudy	
Tue Feb 2 09:58:51 2010	El Paso, TX (79901) 	45 7 	33 0 	63	NE	3	44	1011.6 29.88 	10	mostly cloudy	
Tue Feb 2 10:42:24 2010	El Paso, TX (79901) 	44 6 	33 0 	65	calm		44	1012.1 29.90 	10	mostly cloudy	
Tue Feb 2 11:26:31 2010	El Paso, TX (79901) 	42 5 	33 0 	70	N	7	37	1012.2 29.90 	10	mostly cloudy	
Tue Feb 2 12:10:30 2010	El Paso, TX (79901) 	42 5 	33 0 	70	N	8	37	1012.3 29.90 	10	mostly cloudy	
Tue Feb 2 12:54:26 2010	El Paso, TX (79901) 	42 5 	33 0 	70	N	8	37	1012.3 29.90 	10	mostly cloudy	
Tue Feb 2 13:37:44 2010	El Paso, TX (79901) 	41 5 	33 0 	73	N	7	36	1012.7 29.91 	10	mostly cloudy	
Tue Feb 2 14:21:27 2010	El Paso, TX (79901) 	41 5 	31 0 	67	N	9	35	1013.3 29.93 	10	mostly cloudy	
Tue Feb 2 15:05:47 2010	El Paso, TX (79901) 	41 5 	30 -1 	65	N	9	35	1013.8 29.95 	10	mostly cloudy	
Tue Feb 2 15:52:13 2010	El Paso, TX (79901) 	41 5 	30 -1 	65	N	9	35	1013.8 29.95 	10	mostly cloudy	
Tue Feb 2 16:44:43 2010	El Paso, TX (79901) 	44 6 	29 -1 	55	N	9	39	1013.9 29.95 	10	partly cloudy	
Tue Feb 2 17:33:09 2010	El Paso, TX (79901) 	49 9 	29 -1 	46	N	9	45	1014.2 29.96 	10	partly cloudy	
Tue Feb 2 18:17:46 2010	El Paso, TX (79901) 	52 11 	31 0 	44	N	5		1014.4 29.96 	10	partly cloudy	
Tue Feb 2 19:01:56 2010	El Paso, TX (79901) 	55 12 	31 0 	40	NNE	6		1013.7 29.94 	10	mostly cloudy	
Tue Feb 2 19:51:11 2010	El Paso, TX (79901) 	55 12 	31 0 	40	NNE	6		1013.7 29.94 	10	mostly cloudy	
Tue Feb 2 20:42:30 2010	El Paso, TX (79901) 	59 15 	30 -1 	33	NNE	8		1012.1 29.90 	10	mostly cloudy	
Tue Feb 2 21:29:21 2010	El Paso, TX (79901) 	61 16 	30 -1 	31	ESE	10		1010.3 29.84 	10	mostly cloudy	
Tue Feb 2 22:17:44 2010	El Paso, TX (79901) 	62 16 	30 -1 	30	E	9		1009.6 29.82 	10	mostly cloudy	
Tue Feb 2 23:02:00 2010	El Paso, TX (79901) 	63 17 	31 0 	30	E	11		1009.0 29.80 	10	mostly cloudy	
Tue Feb 2 23:47:01 2010	El Paso, TX (79901) 	63 17 	31 0 	30	E	11		1009.0 29.80 	10	mostly cloudy	
Wed Feb 3 00:31:45 2010	El Paso, TX (79901) 	63 17 	32 0 	31	ESE	8		1008.3 29.78 	10	mostly cloudy	
Wed Feb 3 01:18:55 2010	El Paso, TX (79901) 	61 16 	33 0 	35	E	11		1008.5 29.79 	10	mostly cloudy	
Wed Feb 3 02:52:25 2010	El Paso, TX (79901) 	57 13 	34 1 	42	ENE	9		1008.9 29.80 	10	cloudy	
Wed Feb 3 03:39:16 2010	El Paso, TX (79901) 	54 12 	34 1 	47	ENE	8		1009.1 29.81 	10	cloudy	
Wed Feb 3 04:27:25 2010	El Paso, TX (79901) 	53 11 	35 1 	50	E	10	49	1009.1 29.81 	10	cloudy	
Wed Feb 3 05:14:10 2010	El Paso, TX (79901) 	50 10 	37 2 	61	E	10	46	1008.3 29.78 	10	cloudy	
Wed Feb 3 06:02:01 2010	El Paso, TX (79901) 	50 10 	35 1 	56	E	14	44	1009.0 29.80 	10	cloudy	
Wed Feb 3 06:48:45 2010	El Paso, TX (79901) 	50 10 	35 1 	56	E	14	44	1009.0 29.80 	10	cloudy	
Wed Feb 3 07:33:24 2010	El Paso, TX (79901) 	47 8 	39 3 	74	calm		47	1009.0 29.80 	10	cloudy	light rain 
Wed Feb 3 08:16:34 2010	El Paso, TX (79901) 	47 8 	38 3 	71	NE	9	42	1007.1 29.75 	10	cloudy	
Wed Feb 3 09:03:01 2010	El Paso, TX (79901) 	46 7 	38 3 	73	N	8	41	1007.3 29.75 	10	cloudy	
Wed Feb 3 09:46:21 2010	El Paso, TX (79901) 	46 7 	38 3 	73	N	8	41	1007.3 29.75 	10	cloudy	
Wed Feb 3 10:30:12 2010	El Paso, TX (79901) 	45 7 	39 3 	79		4	43	1006.6 29.73 	8	cloudy	light rain 
Wed Feb 3 11:17:06 2010	El Paso, TX (79901) 	45 7 	40 4 	82	E	7	41	1005.9 29.71 	7	cloudy	light rain 
Wed Feb 3 12:01:51 2010	El Paso, TX (79901) 	44 6 	39 3 	82	E	13	37	1004.5 29.67 	10	cloudy	light rain 
Wed Feb 3 12:45:03 2010	El Paso, TX (79901) 	44 6 	39 3 	82	E	13	37	1004.5 29.67 	10	cloudy	light rain 
Wed Feb 3 13:28:48 2010	El Paso, TX (79901) 	43 6 	39 3 	86	ENE	12	36	1003.5 29.64 	10	cloudy	light rain 
Wed Feb 3 14:14:54 2010	El Paso, TX (79901) 	43 6 	39 3 	86	E	12	36	1003.3 29.64 	7	cloudy	moderate rain 
Wed Feb 3 15:00:49 2010	El Paso, TX (79901) 	43 6 	40 4 	89	E	5	39	1004.2 29.66 	8	cloudy	light rain 
Wed Feb 3 15:45:43 2010	El Paso, TX (79901) 	43 6 	40 4 	89	E	5	39	1004.2 29.66 	8	cloudy	light rain 
Wed Feb 3 16:31:33 2010	El Paso, TX (79901) 	43 6 	38 3 	82	E	15	35	1004.2 29.66 	10	cloudy	
Wed Feb 3 17:18:46 2010	El Paso, TX (79901) 	43 6 	38 3 	82	E	10	37	1004.7 29.68 	6	cloudy	light rain 
Wed Feb 3 18:07:02 2010	El Paso, TX (79901) 	44 6 	39 3 	82	ENE	9	39	1004.7 29.68 	10	cloudy	light rain 
Wed Feb 3 18:50:08 2010	El Paso, TX (79901) 	44 6 	39 3 	82	ENE	9	39	1004.7 29.68 	10	cloudy	light rain 
Wed Feb 3 19:34:26 2010	El Paso, TX (79901) 	44 6 	39 3 	82	NE	7	40	1004.3 29.67 	7	cloudy	light rain 
Wed Feb 3 20:18:32 2010	El Paso, TX (79901) 	44 6 	41 5 	89	N	8	39	1003.5 29.64 	5	cloudy	moderate rain 
Wed Feb 3 21:02:48 2010	El Paso, TX (79901) 	43 6 	41 5 	93	N	10	37	1002.8 29.62 	3	cloudy	moderate rain 
Wed Feb 3 21:50:56 2010	El Paso, TX (79901) 	43 6 	41 5 	93	N	10	37	1002.8 29.62 	3	cloudy	moderate rain 
Wed Feb 3 22:36:29 2010	El Paso, TX (79901) 	44 6 	42 5 	93	NNW	10	38	1002.4 29.61 	5	cloudy	light rain 
Wed Feb 3 23:27:23 2010	El Paso, TX (79901) 	43 6 	41 5 	93	NNE	12	36	1002.9 29.62 	7	cloudy	light rain 
Fri Jan 29 08:41:31 2010	Fort Worth, TX (76101) 	46 7 	43 6 	89	NE	7	42	1015.8 30.01 	8	cloudy	moderate rain 
Fri Jan 29 09:25:26 2010	Fort Worth, TX (76101) 	42 5 	40 4 	92	NW	9	36	1016.1 30.01 	7	cloudy	moderate rain 
Fri Jan 29 11:57:28 2010	Fort Worth, TX (76101) 	39 3 	37 2 	92	NW	13	31	1015.6 30.00 	10	cloudy	light rain 
Fri Jan 29 12:42:10 2010	Fort Worth, TX (76101) 	38 3 	35 1 	90	NW	10	30	1016.4 30.02 	8	cloudy	moderate rain 
Fri Jan 29 13:29:53 2010	Fort Worth, TX (76101) 	37 2 	34 1 	89	NW	14	28	1016.3 30.02 	10	cloudy	light rain 
Fri Jan 29 14:17:45 2010	Fort Worth, TX (76101) 	36 2 	33 0 	89	NW	16	26	1017.1 30.04 	10	cloudy	light rain 
Fri Jan 29 15:02:32 2010	Fort Worth, TX (76101) 	36 2 	33 0 	89	NW	13	27	1017.6 30.06 	10	cloudy	light rain 
Fri Jan 29 15:48:04 2010	Fort Worth, TX (76101) 	36 2 	33 0 	89	NW	13	27	1017.6 30.06 	10	cloudy	light rain 
Fri Jan 29 16:35:44 2010	Fort Worth, TX (76101) 	35 1 	32 0 	88	NW	13	26	1018.7 30.09 	7	cloudy	moderate rain 
Fri Jan 29 17:20:15 2010	Fort Worth, TX (76101) 	33 0 	30 -1 	88	WNW	17	22	1019.5 30.11 	10	cloudy	moderate rain 
Fri Jan 29 18:08:46 2010	Fort Worth, TX (76101) 	33 0 	30 -1 	88	NW	10	24	1019.6 30.12 	4	cloudy	
Fri Jan 29 18:53:45 2010	Fort Worth, TX (76101) 	33 0 	30 -1 	88	NW	10	24	1019.6 30.12 	4	cloudy	
Fri Jan 29 19:45:45 2010	Fort Worth, TX (76101) 	34 1 	30 -1 	85	NW	13	24	1018.3 30.08 	10	cloudy	light freezing rain 
Fri Jan 29 20:43:33 2010	Fort Worth, TX (76101) 	33 0 	30 -1 	88	NW	14	23	1016.9 30.04 	10	cloudy	
Fri Jan 29 21:28:11 2010	Fort Worth, TX (76101) 	33 0 	28 -2 	81	NW	12	23	1016.9 30.04 	10	cloudy	
Fri Jan 29 22:14:47 2010	Fort Worth, TX (76101) 	33 0 	28 -2 	81	NW	17	22	1016.6 30.03 	10	cloudy	
Fri Jan 29 22:59:42 2010	Fort Worth, TX (76101) 	33 0 	28 -2 	81	NW	17	22	1016.6 30.03 	10	cloudy	
Fri Jan 29 23:44:00 2010	Fort Worth, TX (76101) 	32 0 	27 -2 	82	NW	16	20	1017.1 30.04 	10	cloudy	
Mon Feb 1 00:10:59 2010	Fort Worth, TX (76101) 	34 1 	28 -2 	78	SSE	6	28	1023.4 30.23 	10	cloudy	
Mon Feb 1 00:53:56 2010	Fort Worth, TX (76101) 	34 1 	28 -2 	78	SSE	6	28	1023.4 30.23 	10	cloudy	
Mon Feb 1 01:40:15 2010	Fort Worth, TX (76101) 	34 1 	28 -2 	78	calm		34	1023.1 30.22 	10	cloudy	
Mon Feb 1 02:24:11 2010	Fort Worth, TX (76101) 	33 0 	27 -2 	78	SSE	4	29	1022.7 30.21 	10	cloudy	
Mon Feb 1 03:07:53 2010	Fort Worth, TX (76101) 	32 0 	27 -2 	82	SSW	3	29	1022.8 30.21 	9	mostly clear	
Mon Feb 1 03:52:33 2010	Fort Worth, TX (76101) 	32 0 	27 -2 	82	SSW	3	29	1022.8 30.21 	9	mostly clear	
Mon Feb 1 04:37:21 2010	Fort Worth, TX (76101) 	32 0 	27 -2 	82	calm		32	1022.5 30.20 	7	clear	
Mon Feb 1 05:20:30 2010	Fort Worth, TX (76101) 	31 0 	27 -2 	85	SSW	3	27	1022.6 30.21 	6	clear	haze
Mon Feb 1 06:05:23 2010	Fort Worth, TX (76101) 	30 -1 	27 -2 	88	calm		30	1022.5 30.20 	6	clear	haze
Mon Feb 1 06:48:33 2010	Fort Worth, TX (76101) 	30 -1 	27 -2 	88	calm		30	1022.5 30.20 	6	clear	haze
Mon Feb 1 07:32:22 2010	Fort Worth, TX (76101) 	30 -1 	27 -2 	88	calm		30	1022.1 30.19 	6	clear	haze
Mon Feb 1 08:15:28 2010	Fort Worth, TX (76101) 	29 -1 	27 -2 	92	calm		29	1022.2 30.19 	5	mostly clear	haze 
Mon Feb 1 08:59:14 2010	Fort Worth, TX (76101) 	29 -1 	27 -2 	92	calm		29	1022.2 30.19 	5	mostly clear	haze 
Mon Feb 1 09:42:13 2010	Fort Worth, TX (76101) 	30 -1 	27 -2 	88	calm		30	1021.6 30.18 	6	clear	haze
Mon Feb 1 10:25:46 2010	Fort Worth, TX (76101) 	30 -1 	27 -2 	88	calm		30	1021.7 30.18 	6	clear	haze
Mon Feb 1 11:08:43 2010	Fort Worth, TX (76101) 	31 0 	28 -2 	89	calm		31	1021.1 30.16 	6	mostly cloudy	haze 
Mon Feb 1 11:52:09 2010	Fort Worth, TX (76101) 	31 0 	28 -2 	89	calm		31	1021.1 30.16 	6	mostly cloudy	haze 
Mon Feb 1 12:35:30 2010	Fort Worth, TX (76101) 	30 -1 	26 -3 	85	calm		30	1020.6 30.15 	5	clear	haze
Mon Feb 1 13:19:04 2010	Fort Worth, TX (76101) 	29 -1 	26 -3 	89	calm		29	1020.3 30.14 	4	clear	haze
Mon Feb 1 14:02:56 2010	Fort Worth, TX (76101) 	28 -2 	27 -2 	96	SSW	4	23	1020.1 30.13 	4	cloudy	haze 
Mon Feb 1 14:48:02 2010	Fort Worth, TX (76101) 	28 -2 	27 -2 	96	SSW	4	23	1020.1 30.13 	4	cloudy	haze 
Mon Feb 1 15:31:46 2010	Fort Worth, TX (76101) 	30 -1 	29 -1 	96	calm		30	1020.1 30.13 	2	cloudy	haze 
Mon Feb 1 16:16:14 2010	Fort Worth, TX (76101) 	32 0 	30 -1 	92	S	5	26	1020.6 30.15 	2	cloudy	haze 
Mon Feb 1 17:01:10 2010	Fort Worth, TX (76101) 	33 0 	31 0 	92	SSE	6	27	1020.4 30.14 	5	cloudy	haze 
Mon Feb 1 17:45:04 2010	Fort Worth, TX (76101) 	32 0 	30 -1 	92	S	5	26	1020.6 30.15 	2	cloudy	haze 
Mon Feb 1 18:28:33 2010	Fort Worth, TX (76101) 	35 1 	32 0 	88	S	6	29	1020.0 30.13 	3	cloudy	haze 
Mon Feb 1 19:12:20 2010	Fort Worth, TX (76101) 	37 2 	34 1 	89	SSW	8	30	1019.7 30.12 	6	cloudy	haze 
Mon Feb 1 19:57:10 2010	Fort Worth, TX (76101) 	37 2 	34 1 	89	SSW	8	30	1019.7 30.12 	6	cloudy	haze 
Mon Feb 1 20:43:36 2010	Fort Worth, TX (76101) 	39 3 	34 1 	82	SSW	8	33	1018.8 30.09 	9	cloudy	
Mon Feb 1 21:28:31 2010	Fort Worth, TX (76101) 	41 5 	34 1 	76	SSW	4	38	1017.7 30.06 	10	cloudy	
Mon Feb 1 22:11:56 2010	Fort Worth, TX (76101) 	42 5 	35 1 	76	SSW	5	38	1016.8 30.03 	10	cloudy	
Mon Feb 1 22:55:14 2010	Fort Worth, TX (76101) 	42 5 	35 1 	76	SSW	5	38	1016.8 30.03 	10	cloudy	
Mon Feb 1 23:41:22 2010	Fort Worth, TX (76101) 	43 6 	36 2 	76	S	6	39	1016.5 30.03 	9	cloudy	
Sat Jan 30 00:28:03 2010	Fort Worth, TX (76101) 	32 0 	26 -3 	79	NW	18	20	1017.8 30.06 	10	cloudy	
Sat Jan 30 01:12:14 2010	Fort Worth, TX (76101) 	31 0 	25 -3 	78	NW	14	20	1018.8 30.09 	10	cloudy	
Sat Jan 30 01:55:46 2010	Fort Worth, TX (76101) 	31 0 	25 -3 	78	NW	14	20	1018.8 30.09 	10	cloudy	
Sat Jan 30 02:40:26 2010	Fort Worth, TX (76101) 	30 -1 	23 -5 	75	NW	18	17	1019.1 30.10 	10	cloudy	
Sat Jan 30 03:23:59 2010	Fort Worth, TX (76101) 	29 -1 	24 -4 	82	NNW	15	17	1019.1 30.10 	10	cloudy	
Sat Jan 30 04:07:53 2010	Fort Worth, TX (76101) 	29 -1 	23 -5 	78	NW	13	18	1019.9 30.13 	10	cloudy	
Sat Jan 30 04:51:40 2010	Fort Worth, TX (76101) 	29 -1 	23 -5 	78	NW	13	18	1019.9 30.13 	10	cloudy	
Sat Jan 30 05:35:21 2010	Fort Worth, TX (76101) 	29 -1 	22 -5 	75	NW	12	18	1020.4 30.14 	10	cloudy	
Sat Jan 30 06:19:29 2010	Fort Worth, TX (76101) 	28 -2 	21 -6 	75	NW	12	17	1020.6 30.15 	10	cloudy	
Sat Jan 30 07:05:29 2010	Fort Worth, TX (76101) 	28 -2 	21 -6 	75	NW	13	16	1020.5 30.14 	10	cloudy	
Sat Jan 30 07:48:12 2010	Fort Worth, TX (76101) 	28 -2 	21 -6 	75	NW	13	16	1020.5 30.14 	10	cloudy	
Sat Jan 30 08:31:24 2010	Fort Worth, TX (76101) 	28 -2 	21 -6 	75	NW	16	15	1020.6 30.15 	10	cloudy	
Sat Jan 30 11:13:10 2010	Fort Worth, TX (76101) 	25 -3 	19 -7 	78	NNW	12	13	1021.2 30.16 	10	cloudy	
Sat Jan 30 12:00:58 2010	Fort Worth, TX (76101) 	25 -3 	18 -7 	74	NNW	16	11	1021.7 30.18 	10	cloudy	
Sat Jan 30 12:44:36 2010	Fort Worth, TX (76101) 	25 -3 	18 -7 	74	NNW	16	11	1021.7 30.18 	10	cloudy	
Sat Jan 30 13:27:52 2010	Fort Worth, TX (76101) 	25 -3 	18 -7 	74	NW	11	14	1022.1 30.19 	10	cloudy	
Sat Jan 30 14:12:03 2010	Fort Worth, TX (76101) 	24 -4 	18 -7 	77	NNW	13	12	1022.8 30.21 	10	cloudy	
Sat Jan 30 14:56:06 2010	Fort Worth, TX (76101) 	24 -4 	18 -7 	77	NNW	13	12	1022.8 30.21 	10	cloudy	
Sat Jan 30 15:41:56 2010	Fort Worth, TX (76101) 	25 -3 	19 -7 	78	NNW	14	12	1023.7 30.24 	10	cloudy	
Sat Jan 30 16:26:56 2010	Fort Worth, TX (76101) 	25 -3 	19 -7 	78	NNW	9	15	1024.6 30.27 	10	cloudy	
Sat Jan 30 17:11:21 2010	Fort Worth, TX (76101) 	26 -3 	19 -7 	74	NNW	9	16	1025.1 30.28 	10	cloudy	
Sat Jan 30 17:54:33 2010	Fort Worth, TX (76101) 	26 -3 	19 -7 	74	NNW	9	16	1025.1 30.28 	10	cloudy	
Sat Jan 30 18:38:33 2010	Fort Worth, TX (76101) 	27 -2 	20 -6 	74	NNW	11	16	1025.5 30.29 	10	cloudy	
Sat Jan 30 19:21:51 2010	Fort Worth, TX (76101) 	28 -2 	20 -6 	71	NNW	10	18	1025.1 30.28 	10	cloudy	
Sat Jan 30 20:06:06 2010	Fort Worth, TX (76101) 	28 -2 	22 -5 	78	NNW	12	17	1024.8 30.27 	10	cloudy	
Sat Jan 30 20:49:13 2010	Fort Worth, TX (76101) 	28 -2 	22 -5 	78	NNW	12	17	1024.8 30.27 	10	cloudy	
Sat Jan 30 21:32:59 2010	Fort Worth, TX (76101) 	29 -1 	22 -5 	75	N	11	19	1024.3 30.26 	10	cloudy	
Sat Jan 30 22:16:13 2010	Fort Worth, TX (76101) 	29 -1 	22 -5 	75	N	8	20	1024.2 30.25 	10	cloudy	
Sat Jan 30 23:01:52 2010	Fort Worth, TX (76101) 	30 -1 	23 -5 	75	NNW	9	21	1024.1 30.25 	10	cloudy	
Sat Jan 30 23:46:32 2010	Fort Worth, TX (76101) 	30 -1 	23 -5 	75	NNW	9	21	1024.1 30.25 	10	cloudy	
Sun Jan 31 00:30:29 2010	Fort Worth, TX (76101) 	30 -1 	23 -5 	75	NNW	8	22	1024.2 30.25 	10	cloudy	
Sun Jan 31 01:21:15 2010	Fort Worth, TX (76101) 	29 -1 	23 -5 	78	NW	9	20	1024.5 30.26 	10	cloudy	
Sun Jan 31 02:05:14 2010	Fort Worth, TX (76101) 	29 -1 	23 -5 	78	NW	8	20	1024.9 30.27 	10	cloudy	
Sun Jan 31 02:48:41 2010	Fort Worth, TX (76101) 	29 -1 	23 -5 	78	NW	8	20	1024.9 30.27 	10	cloudy	
Sun Jan 31 03:32:33 2010	Fort Worth, TX (76101) 	29 -1 	23 -5 	78	N	4	24	1025.3 30.29 	10	cloudy	
Sun Jan 31 04:16:00 2010	Fort Worth, TX (76101) 	29 -1 	23 -5 	78	NNW	5	23	1025.2 30.28 	10	cloudy	
Sun Jan 31 05:00:34 2010	Fort Worth, TX (76101) 	29 -1 	23 -5 	78	N	7	21	1025.2 30.28 	10	cloudy	
Sun Jan 31 05:46:38 2010	Fort Worth, TX (76101) 	29 -1 	23 -5 	78	N	7	21	1025.2 30.28 	10	cloudy	
Sun Jan 31 06:31:50 2010	Fort Worth, TX (76101) 	29 -1 	24 -4 	82	N	3	25	1025.6 30.29 	10	cloudy	
Sun Jan 31 07:14:44 2010	Fort Worth, TX (76101) 	29 -1 	24 -4 	82	NE	7	21	1025.4 30.29 	10	cloudy	
Sun Jan 31 08:01:27 2010	Fort Worth, TX (76101) 	28 -2 	24 -4 	85	ENE	6	21	1025.7 30.30 	10	cloudy	
Sun Jan 31 08:46:08 2010	Fort Worth, TX (76101) 	28 -2 	24 -4 	85	ENE	6	21	1025.7 30.30 	10	cloudy	
Sun Jan 31 09:29:22 2010	Fort Worth, TX (76101) 	28 -2 	24 -4 	85	ENE	6	21	1025.7 30.30 	10	cloudy	
Sun Jan 31 10:12:34 2010	Fort Worth, TX (76101) 	28 -2 	24 -4 	85	N	3	24	1025.6 30.29 	10	cloudy	
Sun Jan 31 10:56:19 2010	Fort Worth, TX (76101) 	28 -2 	24 -4 	85	N	3	24	1025.6 30.29 	10	cloudy	
Sun Jan 31 11:39:47 2010	Fort Worth, TX (76101) 	29 -1 	24 -4 	82	calm		29	1025.6 30.29 	10	cloudy	
Sun Jan 31 12:23:27 2010	Fort Worth, TX (76101) 	29 -1 	24 -4 	82	NE	3	25	1025.6 30.29 	10	cloudy	
Sun Jan 31 13:06:50 2010	Fort Worth, TX (76101) 	29 -1 	24 -4 	82	NE	3	25	1025.9 30.30 	10	cloudy	
Sun Jan 31 13:50:28 2010	Fort Worth, TX (76101) 	29 -1 	24 -4 	82	NE	3	25	1025.9 30.30 	10	cloudy	
Sun Jan 31 14:33:17 2010	Fort Worth, TX (76101) 	28 -2 	24 -4 	85	E	6	21	1026.3 30.32 	10	cloudy	
Sun Jan 31 15:17:23 2010	Fort Worth, TX (76101) 	29 -1 	25 -3 	85	calm		29	1026.5 30.32 	10	cloudy	
Sun Jan 31 16:00:53 2010	Fort Worth, TX (76101) 	30 -1 	25 -3 	81	calm		30	1026.7 30.33 	10	cloudy	
Sun Jan 31 16:50:39 2010	Fort Worth, TX (76101) 	30 -1 	25 -3 	81	calm		30	1026.7 30.33 	10	cloudy	
Sun Jan 31 17:34:20 2010	Fort Worth, TX (76101) 	31 0 	26 -3 	82	S	5	25	1026.9 30.33 	9	cloudy	
Sun Jan 31 18:19:19 2010	Fort Worth, TX (76101) 	31 0 	26 -3 	82	ESE	5	25	1026.5 30.32 	10	cloudy	
Sun Jan 31 19:03:06 2010	Fort Worth, TX (76101) 	31 0 	27 -2 	85	E	4	26	1025.7 30.30 	10	cloudy	
Sun Jan 31 19:48:28 2010	Fort Worth, TX (76101) 	31 0 	27 -2 	85	E	4	26	1025.7 30.30 	10	cloudy	
Sun Jan 31 20:31:27 2010	Fort Worth, TX (76101) 	32 0 	27 -2 	82	ESE	4	27	1024.5 30.26 	10	cloudy	
Sun Jan 31 21:15:40 2010	Fort Worth, TX (76101) 	33 0 	28 -2 	81		4	29	1023.8 30.24 	10	cloudy	
Sun Jan 31 21:58:54 2010	Fort Worth, TX (76101) 	33 0 	28 -2 	81		4	29	1023.8 30.24 	10	cloudy	
Sun Jan 31 22:43:42 2010	Fort Worth, TX (76101) 	33 0 	28 -2 	81	calm		33	1023.5 30.23 	10	cloudy	
Sun Jan 31 23:27:02 2010	Fort Worth, TX (76101) 	34 1 	28 -2 	78	SSE	8	27	1023.5 30.23 	10	cloudy	
Thu Feb 4 00:12:23 2010	Fort Worth, TX (76101) 	43 6 	40 4 	89		5	39	1018.4 30.08 	4	cloudy	light rain 
Thu Feb 4 00:56:28 2010	Fort Worth, TX (76101) 	43 6 	40 4 	89		5	39	1018.4 30.08 	4	cloudy	light rain 
Thu Feb 4 01:39:43 2010	Fort Worth, TX (76101) 	43 6 	40 4 	89		10	37	1017.8 30.06 	5	cloudy	light rain 
Thu Feb 4 02:27:27 2010	Fort Worth, TX (76101) 	41 5 	38 3 	89	E	10	34	1017.9 30.07 	9	cloudy	light rain 
Thu Feb 4 03:10:37 2010	Fort Worth, TX (76101) 	42 5 	38 3 	85	ENE	7	37	1018.0 30.07 	8	cloudy	light rain 
Thu Feb 4 03:55:06 2010	Fort Worth, TX (76101) 	42 5 	38 3 	85	ENE	7	37	1018.0 30.07 	8	cloudy	light rain 
Thu Feb 4 04:38:22 2010	Fort Worth, TX (76101) 	42 5 	37 2 	82	E	11	35	1017.6 30.06 	10	cloudy	
Thu Feb 4 05:21:43 2010	Fort Worth, TX (76101) 	42 5 	37 2 	82	E	12	35	1017.3 30.05 	10	cloudy	light rain 
Thu Feb 4 06:04:34 2010	Fort Worth, TX (76101) 	42 5 	37 2 	82	E	13	35	1016.1 30.01 	10	cloudy	light rain 
Thu Feb 4 06:47:37 2010	Fort Worth, TX (76101) 	42 5 	37 2 	82	E	13	35	1016.1 30.01 	10	cloudy	light rain 
Thu Feb 4 07:31:13 2010	Fort Worth, TX (76101) 	41 5 	38 3 	89	E	15	32	1015.2 29.99 	9	cloudy	
Thu Feb 4 08:13:46 2010	Fort Worth, TX (76101) 	41 5 	38 3 	89	E	13	33	1014.7 29.97 	9	cloudy	light rain 
Thu Feb 4 08:57:29 2010	Fort Worth, TX (76101) 	41 5 	38 3 	89	E	13	33	1014.7 29.97 	9	cloudy	light rain 
Thu Feb 4 09:41:24 2010	Fort Worth, TX (76101) 	41 5 	39 3 	93	E	10	34	1014.8 29.98 	5	cloudy	light rain 
Thu Feb 4 10:25:03 2010	Fort Worth, TX (76101) 	41 5 	39 3 	93	E	12	34	1014.5 29.97 	5	cloudy	light rain 
Thu Feb 4 11:10:58 2010	Fort Worth, TX (76101) 	41 5 	39 3 	93	ESE	7	36	1014.7 29.97 	6	cloudy	light rain 
Thu Feb 4 11:54:30 2010	Fort Worth, TX (76101) 	41 5 	39 3 	93	ESE	7	36	1014.7 29.97 	6	cloudy	light rain 
Thu Feb 4 12:37:36 2010	Fort Worth, TX (76101) 	41 5 	39 3 	93	E	7	36	1014.7 29.97 	4	cloudy	light rain 
Thu Feb 4 13:21:40 2010	Fort Worth, TX (76101) 	40 4 	39 3 	97	E	7	34	1014.3 29.96 	9	cloudy	light rain 
Thu Feb 4 14:06:31 2010	Fort Worth, TX (76101) 	40 4 	39 3 	97		8	34	1014.3 29.96 	10	cloudy	light rain 
Thu Feb 4 14:59:17 2010	Fort Worth, TX (76101) 	40 4 	39 3 	97		8	34	1014.3 29.96 	10	cloudy	light rain 
Thu Jan 28 15:38:55 2010	Fort Worth, TX (76101) 	55 12 	51 10 	87	ESE	10		1019.6 30.12 	10	cloudy	
Thu Jan 28 15:59:41 2010	Fort Worth, TX (76101) 	55 12 	51 10 	87	ESE	10		1019.6 30.12 	10	cloudy	
Thu Jan 28 16:49:04 2010	Fort Worth, TX (76101) 	56 13 	51 10 	84	E	10		1019.4 30.11 	10	cloudy	
Thu Jan 28 17:13:18 2010	Fort Worth, TX (76101) 	56 13 	51 10 	84	E	9		1019.2 30.11 	10	cloudy	
Thu Jan 28 17:29:17 2010	Fort Worth, TX (76101) 	56 13 	51 10 	84	E	9		1019.2 30.11 	10	cloudy	
Tue Feb 2 00:28:15 2010	Fort Worth, TX (76101) 	43 6 	36 2 	76	S	3	41	1016.8 30.03 	9	cloudy	
Tue Feb 2 01:13:51 2010	Fort Worth, TX (76101) 	43 6 	37 2 	79	S	3	41	1016.9 30.04 	8	cloudy	
Tue Feb 2 01:57:00 2010	Fort Worth, TX (76101) 	43 6 	37 2 	79	S	3	41	1016.9 30.04 	8	cloudy	
Tue Feb 2 02:41:02 2010	Fort Worth, TX (76101) 	43 6 	37 2 	79	S	4	40	1017.6 30.06 	9	cloudy	
Tue Feb 2 03:24:34 2010	Fort Worth, TX (76101) 	43 6 	37 2 	79	ESE	5	39	1017.6 30.06 	8	cloudy	
Tue Feb 2 04:08:21 2010	Fort Worth, TX (76101) 	43 6 	37 2 	79	ESE	3	41	1018.1 30.07 	8	cloudy	
Tue Feb 2 04:51:53 2010	Fort Worth, TX (76101) 	43 6 	37 2 	79	ESE	3	41	1018.1 30.07 	8	cloudy	
Tue Feb 2 05:35:17 2010	Fort Worth, TX (76101) 	43 6 	37 2 	79	calm		43	1018.6 30.09 	8	cloudy	
Tue Feb 2 06:18:32 2010	Fort Worth, TX (76101) 	40 4 	36 2 	86	N	4	37	1019.1 30.10 	7	cloudy	
Tue Feb 2 07:05:41 2010	Fort Worth, TX (76101) 	40 4 	36 2 	86	NE	5	36	1019.2 30.11 	7	cloudy	
Tue Feb 2 07:48:41 2010	Fort Worth, TX (76101) 	40 4 	36 2 	86	NE	5	36	1019.2 30.11 	7	cloudy	
Tue Feb 2 08:31:54 2010	Fort Worth, TX (76101) 	39 3 	35 1 	86	NNE	6	34	1019.7 30.12 	8	cloudy	
Tue Feb 2 09:15:23 2010	Fort Worth, TX (76101) 	39 3 	35 1 	86	NNE	7	33	1019.7 30.12 	8	cloudy	
Tue Feb 2 09:58:55 2010	Fort Worth, TX (76101) 	39 3 	35 1 	86	NNE	7	33	1019.7 30.12 	8	cloudy	
Tue Feb 2 10:42:28 2010	Fort Worth, TX (76101) 	39 3 	35 1 	86	N	4	36	1020.2 30.14 	9	cloudy	
Tue Feb 2 11:26:35 2010	Fort Worth, TX (76101) 	39 3 	36 2 	89	NNE	3	37	1020.2 30.14 	7	cloudy	
Tue Feb 2 12:10:35 2010	Fort Worth, TX (76101) 	40 4 	36 2 	86	N	4	37	1020.4 30.14 	7	cloudy	
Tue Feb 2 12:54:30 2010	Fort Worth, TX (76101) 	40 4 	36 2 	86	N	4	37	1020.4 30.14 	7	cloudy	
Tue Feb 2 13:37:48 2010	Fort Worth, TX (76101) 	40 4 	36 2 	86	calm		40	1021.1 30.16 	8	cloudy	
Tue Feb 2 14:21:30 2010	Fort Worth, TX (76101) 	40 4 	35 1 	83	N	4	37	1021.9 30.19 	9	cloudy	
Tue Feb 2 15:05:51 2010	Fort Worth, TX (76101) 	41 5 	35 1 	79	NNE	7	36	1022.2 30.19 	10	cloudy	
Tue Feb 2 15:52:17 2010	Fort Worth, TX (76101) 	41 5 	35 1 	79	NNE	7	36	1022.2 30.19 	10	cloudy	
Tue Feb 2 16:44:47 2010	Fort Worth, TX (76101) 	41 5 	35 1 	79	NNE	7	36	1023.1 30.22 	10	cloudy	
Tue Feb 2 17:33:13 2010	Fort Worth, TX (76101) 	42 5 	34 1 	73	N	10	36	1023.3 30.23 	10	cloudy	
Tue Feb 2 18:17:50 2010	Fort Worth, TX (76101) 	42 5 	33 0 	70	NNE	6	38	1023.7 30.24 	10	cloudy	
Tue Feb 2 19:02:00 2010	Fort Worth, TX (76101) 	42 5 	34 1 	73	NW	4	39	1023.9 30.24 	10	cloudy	
Tue Feb 2 19:51:16 2010	Fort Worth, TX (76101) 	42 5 	34 1 	73	NW	4	39	1023.9 30.24 	10	cloudy	
Tue Feb 2 20:42:34 2010	Fort Worth, TX (76101) 	45 7 	35 1 	68	NNW	6	41	1023.2 30.22 	10	mostly cloudy	
Tue Feb 2 21:29:25 2010	Fort Worth, TX (76101) 	47 8 	35 1 	63	NNE	4	45	1022.1 30.19 	10	clear	
Tue Feb 2 22:17:48 2010	Fort Worth, TX (76101) 	50 10 	36 2 	58	N	3	49	1021.6 30.18 	10	clear	
Tue Feb 2 23:02:05 2010	Fort Worth, TX (76101) 	50 10 	35 1 	56	NNE	7	47	1021.3 30.17 	10	clear	
Tue Feb 2 23:47:05 2010	Fort Worth, TX (76101) 	50 10 	35 1 	56	NNE	7	47	1021.3 30.17 	10	clear	
Wed Feb 3 00:31:49 2010	Fort Worth, TX (76101) 	49 9 	34 1 	56	NNE	8	45	1021.2 30.16 	10	clear	
Wed Feb 3 01:19:00 2010	Fort Worth, TX (76101) 	47 8 	35 1 	63	NNE	7	43	1021.1 30.16 	10	clear	
Wed Feb 3 02:03:47 2010	Fort Worth, TX (76101) 	44 6 	34 1 	67	E	5	41	1022.6 30.21 	10	clear	
Wed Feb 3 02:52:30 2010	Fort Worth, TX (76101) 	44 6 	34 1 	67	E	5	41	1022.6 30.21 	10	clear	
Wed Feb 3 03:39:20 2010	Fort Worth, TX (76101) 	42 5 	34 1 	73	NE	5	38	1022.1 30.19 	10	clear	
Wed Feb 3 04:27:29 2010	Fort Worth, TX (76101) 	43 6 	34 1 	70	ENE	3	41	1023.1 30.22 	10	clear	
Wed Feb 3 05:14:16 2010	Fort Worth, TX (76101) 	38 3 	33 0 	83	calm		38	1022.9 30.22 	10	clear	
Wed Feb 3 06:02:06 2010	Fort Worth, TX (76101) 	40 4 	33 0 	76	NE	4	37	1023.2 30.22 	10	clear	
Wed Feb 3 06:48:50 2010	Fort Worth, TX (76101) 	40 4 	33 0 	76	NE	4	37	1023.2 30.22 	10	clear	
Wed Feb 3 07:33:27 2010	Fort Worth, TX (76101) 	40 4 	34 1 	79	NE	5	36	1023.1 30.22 	10	clear	
Wed Feb 3 08:16:38 2010	Fort Worth, TX (76101) 	38 3 	33 0 	83	NE	6	33	1022.2 30.19 	10	clear	
Wed Feb 3 09:03:05 2010	Fort Worth, TX (76101) 	38 3 	33 0 	83	E	4	34	1021.4 30.17 	10	clear	
Wed Feb 3 09:46:25 2010	Fort Worth, TX (76101) 	38 3 	33 0 	83	E	4	34	1021.4 30.17 	10	clear	
Wed Feb 3 10:30:17 2010	Fort Worth, TX (76101) 	37 2 	33 0 	86	NE	6	32	1020.7 30.15 	10	clear	
Wed Feb 3 11:17:10 2010	Fort Worth, TX (76101) 	36 2 	33 0 	89	calm		36	1021.2 30.16 	9	clear	
Wed Feb 3 12:01:55 2010	Fort Worth, TX (76101) 	36 2 	33 0 	89	NE	5	31	1020.2 30.14 	9	clear	
Wed Feb 3 12:45:08 2010	Fort Worth, TX (76101) 	36 2 	33 0 	89	NE	5	31	1020.2 30.14 	9	clear	
Wed Feb 3 13:28:52 2010	Fort Worth, TX (76101) 	37 2 	33 0 	86		8	30	1020.3 30.14 	9	clear	
Wed Feb 3 14:14:58 2010	Fort Worth, TX (76101) 	38 3 	33 0 	83	E	4	34	1021.0 30.16 	10	clear	
Wed Feb 3 15:00:56 2010	Fort Worth, TX (76101) 	38 3 	34 1 	86	E	3	35	1021.4 30.17 	9	clear	
Wed Feb 3 15:45:46 2010	Fort Worth, TX (76101) 	38 3 	34 1 	86	E	3	35	1021.4 30.17 	9	clear	
Wed Feb 3 16:31:38 2010	Fort Worth, TX (76101) 	40 4 	35 1 	83	E	5	36	1021.9 30.19 	9	clear	
Wed Feb 3 17:18:50 2010	Fort Worth, TX (76101) 	43 6 	37 2 	79	E	7	38	1021.4 30.17 	9	clear	
Wed Feb 3 18:07:08 2010	Fort Worth, TX (76101) 	45 7 	38 3 	76	ESE	10	39	1021.3 30.17 	10	clear	
Wed Feb 3 18:50:14 2010	Fort Worth, TX (76101) 	45 7 	38 3 	76	ESE	10	39	1021.3 30.17 	10	clear	
Wed Feb 3 19:34:30 2010	Fort Worth, TX (76101) 	47 8 	38 3 	71	E	12	41	1019.7 30.12 	10	clear	
Wed Feb 3 20:18:36 2010	Fort Worth, TX (76101) 	46 7 	38 3 	73	E	8	41	1018.1 30.07 	10	mostly clear	light rain 
Wed Feb 3 21:02:53 2010	Fort Worth, TX (76101) 	45 7 	38 3 	76	ENE	8	40	1017.6 30.06 	9	cloudy	light rain 
Wed Feb 3 21:51:00 2010	Fort Worth, TX (76101) 	45 7 	38 3 	76	ENE	8	40	1017.6 30.06 	9	cloudy	light rain 
Wed Feb 3 22:36:33 2010	Fort Worth, TX (76101) 	44 6 	38 3 	79	NE	9	39	1016.5 30.03 	7	cloudy	moderate rain 
Wed Feb 3 23:27:27 2010	Fort Worth, TX (76101) 	43 6 	39 3 	86	E	5	39	1018.1 30.07 	5	cloudy	moderate rain 
Fri Jan 29 08:41:35 2010	Houston, TX (77001) 	63 17 	61 16 	93	SE	17		1011.0 29.86 	4	cloudy	moderate rain 
Fri Jan 29 09:25:30 2010	Houston, TX (77001) 	62 16 	61 16 	96	SE	16		1010.5 29.85 	5	cloudy	light rain 
Fri Jan 29 11:57:32 2010	Houston, TX (77001) 	65 18 	64 17 	97	SSE	12		1008.8 29.80 	0	cloudy	light rain 
Fri Jan 29 12:42:15 2010	Houston, TX (77001) 	67 19 	65 18 	93	S	9		1008.6 29.79 	4	cloudy	moderate rain 
Fri Jan 29 13:29:57 2010	Houston, TX (77001) 	61 16 	60 15 	97	NW	6		1009.2 29.81 	8	cloudy	light thunderstorm 
Fri Jan 29 14:17:50 2010	Houston, TX (77001) 	58 14 	56 13 	93	NNW	14		1009.9 29.83 	10	cloudy	light rain 
Fri Jan 29 15:02:37 2010	Houston, TX (77001) 	56 13 	54 12 	93	NNW	10		1010.9 29.86 	10	cloudy	light rain 
Fri Jan 29 15:48:09 2010	Houston, TX (77001) 	56 13 	54 12 	93	NNW	10		1010.9 29.86 	10	cloudy	light rain 
Fri Jan 29 16:35:53 2010	Houston, TX (77001) 	53 11 	51 10 	93	NW	15	48	1012.8 29.92 	10	cloudy	light rain 
Fri Jan 29 17:20:21 2010	Houston, TX (77001) 	50 10 	48 8 	93	NNW	15	44	1014.5 29.97 	10	cloudy	
Fri Jan 29 18:08:50 2010	Houston, TX (77001) 	50 10 	47 8 	89	N	19	43	1015.2 29.99 	10	cloudy	
Fri Jan 29 18:53:50 2010	Houston, TX (77001) 	50 10 	47 8 	89	N	19	43	1015.2 29.99 	10	cloudy	
Fri Jan 29 19:45:49 2010	Houston, TX (77001) 	50 10 	47 8 	89	N	11	45	1013.8 29.95 	10	cloudy	
Fri Jan 29 20:43:38 2010	Houston, TX (77001) 	51 10 	47 8 	85	NW	10	47	1012.7 29.91 	10	cloudy	
Fri Jan 29 21:28:16 2010	Houston, TX (77001) 	50 10 	45 7 	83	WNW	12	45	1013.1 29.93 	10	cloudy	
Fri Jan 29 22:14:51 2010	Houston, TX (77001) 	46 7 	43 6 	89	NW	16	39	1013.3 29.93 	10	cloudy	
Fri Jan 29 22:59:47 2010	Houston, TX (77001) 	46 7 	43 6 	89	NW	16	39	1013.3 29.93 	10	cloudy	
Fri Jan 29 23:44:04 2010	Houston, TX (77001) 	47 8 	42 5 	83	NW	11	41	1014.1 29.96 	10	mostly cloudy	
Mon Feb 1 00:11:03 2010	Houston, TX (77001) 	43 6 	33 0 	68	WSW	4	40	1023.6 30.24 	10	clear	
Mon Feb 1 00:54:00 2010	Houston, TX (77001) 	43 6 	33 0 	68	WSW	4	40	1023.6 30.24 	10	clear	
Mon Feb 1 01:40:20 2010	Houston, TX (77001) 	42 5 	32 0 	67	WSW	3	40	1023.1 30.22 	9	mostly cloudy	
Mon Feb 1 02:24:17 2010	Houston, TX (77001) 	40 4 	33 0 	76	WSW	3	38	1023.2 30.22 	9	mostly cloudy	
Mon Feb 1 03:07:57 2010	Houston, TX (77001) 	39 3 	33 0 	79	calm		39	1023.4 30.23 	8	partly cloudy	
Mon Feb 1 03:52:37 2010	Houston, TX (77001) 	39 3 	33 0 	79	calm		39	1023.4 30.23 	8	partly cloudy	
Mon Feb 1 04:37:25 2010	Houston, TX (77001) 	39 3 	33 0 	79	W	3	37	1023.8 30.24 	8	partly cloudy	
Mon Feb 1 05:20:35 2010	Houston, TX (77001) 	38 3 	32 0 	79	W	3	35	1023.8 30.24 	9	partly cloudy	
Mon Feb 1 06:05:27 2010	Houston, TX (77001) 	38 3 	33 0 	83	calm		38	1023.8 30.24 	7	partly cloudy	
Mon Feb 1 06:48:38 2010	Houston, TX (77001) 	38 3 	33 0 	83	calm		38	1023.8 30.24 	7	partly cloudy	
Mon Feb 1 07:32:26 2010	Houston, TX (77001) 	38 3 	34 1 	86	calm		38	1023.9 30.24 	8	mostly cloudy	
Mon Feb 1 08:15:32 2010	Houston, TX (77001) 	37 2 	34 1 	89	calm		37	1023.7 30.24 	8	mostly cloudy	
Mon Feb 1 08:59:18 2010	Houston, TX (77001) 	37 2 	34 1 	89	calm		37	1023.7 30.24 	8	mostly cloudy	
Mon Feb 1 09:42:17 2010	Houston, TX (77001) 	36 2 	33 0 	89	NNE	4	32	1022.6 30.21 	8	mostly cloudy	
Mon Feb 1 10:25:50 2010	Houston, TX (77001) 	37 2 	33 0 	86	NNE	4	33	1021.8 30.18 	8	mostly cloudy	
Mon Feb 1 11:08:47 2010	Houston, TX (77001) 	37 2 	34 1 	89	NE	4	33	1021.4 30.17 	8	mostly cloudy	
Mon Feb 1 11:52:13 2010	Houston, TX (77001) 	37 2 	34 1 	89	NE	4	33	1021.4 30.17 	8	mostly cloudy	
Mon Feb 1 12:35:37 2010	Houston, TX (77001) 	38 3 	34 1 	86	calm		38	1021.0 30.16 	8	mostly cloudy	
Mon Feb 1 13:19:08 2010	Houston, TX (77001) 	39 3 	34 1 	82	ENE	3	37	1021.1 30.16 	8	mostly cloudy	
Mon Feb 1 14:03:00 2010	Houston, TX (77001) 	40 4 	34 1 	79		4	37	1020.9 30.16 	8	cloudy	
Mon Feb 1 14:48:06 2010	Houston, TX (77001) 	40 4 	34 1 	79		4	37	1020.9 30.16 	8	cloudy	
Mon Feb 1 15:31:50 2010	Houston, TX (77001) 	41 5 	35 1 	79	calm		41	1021.1 30.16 	6	cloudy	haze 
Mon Feb 1 16:16:18 2010	Houston, TX (77001) 	41 5 	36 2 	82	NNE	5	37	1021.3 30.17 	8	cloudy	
Mon Feb 1 17:01:18 2010	Houston, TX (77001) 	42 5 	37 2 	82	ESE	3	40	1021.9 30.19 	7	cloudy	
Mon Feb 1 17:45:08 2010	Houston, TX (77001) 	42 5 	37 2 	82	ESE	3	40	1021.9 30.19 	7	cloudy	
Mon Feb 1 18:28:37 2010	Houston, TX (77001) 	43 6 	40 4 	89	ESE	3	41	1021.9 30.19 	3	cloudy	haze 
Mon Feb 1 19:12:24 2010	Houston, TX (77001) 	45 7 	41 5 	86	ESE	6	41	1020.7 30.15 	3	cloudy	light rain 
Mon Feb 1 19:57:15 2010	Houston, TX (77001) 	45 7 	41 5 	86	ESE	6	41	1020.7 30.15 	3	cloudy	light rain 
Mon Feb 1 20:43:40 2010	Houston, TX (77001) 	47 8 	43 6 	86	E	5	44	1019.2 30.11 	3	cloudy	haze 
Mon Feb 1 21:28:35 2010	Houston, TX (77001) 	48 8 	44 6 	86	E	5	45	1018.3 30.08 	2	cloudy	haze 
Mon Feb 1 22:12:00 2010	Houston, TX (77001) 	48 8 	45 7 	89	ENE	4	46	1018.4 30.08 	2	cloudy	haze 
Mon Feb 1 22:55:18 2010	Houston, TX (77001) 	48 8 	45 7 	89	ENE	4	46	1018.4 30.08 	2	cloudy	haze 
Mon Feb 1 23:41:27 2010	Houston, TX (77001) 	49 9 	45 7 	86	ENE	5	47	1018.4 30.08 	2	cloudy	haze 
Sat Jan 30 00:28:08 2010	Houston, TX (77001) 	47 8 	40 4 	76	NW	12	41	1014.9 29.98 	10	cloudy	
Sat Jan 30 01:12:18 2010	Houston, TX (77001) 	45 7 	38 3 	76	NW	16	37	1015.3 29.99 	10	cloudy	
Sat Jan 30 01:55:51 2010	Houston, TX (77001) 	45 7 	38 3 	76	NW	16	37	1015.3 29.99 	10	cloudy	
Sat Jan 30 02:40:31 2010	Houston, TX (77001) 	43 6 	37 2 	79	NW	16	35	1016.0 30.01 	10	cloudy	
Sat Jan 30 03:24:03 2010	Houston, TX (77001) 	42 5 	34 1 	73	NW	11	35	1016.9 30.04 	10	cloudy	
Sat Jan 30 04:07:58 2010	Houston, TX (77001) 	40 4 	33 0 	76	NNW	15	31	1017.7 30.06 	10	cloudy	
Sat Jan 30 04:51:44 2010	Houston, TX (77001) 	40 4 	33 0 	76	NNW	15	31	1017.7 30.06 	10	cloudy	
Sat Jan 30 05:35:26 2010	Houston, TX (77001) 	39 3 	33 0 	79	NW	10	32	1018.1 30.07 	10	cloudy	
Sat Jan 30 06:19:34 2010	Houston, TX (77001) 	39 3 	32 0 	76	NW	13	31	1018.5 30.09 	10	mostly cloudy	
Sat Jan 30 07:05:33 2010	Houston, TX (77001) 	38 3 	31 0 	76	NW	12	30	1018.5 30.09 	10	mostly cloudy	
Sat Jan 30 07:48:16 2010	Houston, TX (77001) 	38 3 	31 0 	76	NW	12	30	1018.5 30.09 	10	mostly cloudy	
Sat Jan 30 08:31:28 2010	Houston, TX (77001) 	37 2 	30 -1 	76	NW	13	28	1018.3 30.08 	10	mostly cloudy	
Sat Jan 30 11:13:14 2010	Houston, TX (77001) 	34 1 	27 -2 	75	NW	11	25	1018.7 30.09 	10	partly cloudy	
Sat Jan 30 12:01:03 2010	Houston, TX (77001) 	35 1 	28 -2 	75	NW	9	27	1019.0 30.10 	10	mostly cloudy	
Sat Jan 30 12:44:41 2010	Houston, TX (77001) 	35 1 	28 -2 	75	NW	9	27	1019.0 30.10 	10	mostly cloudy	
Sat Jan 30 13:27:56 2010	Houston, TX (77001) 	35 1 	29 -1 	78	NW	11	26	1019.6 30.12 	10	mostly cloudy	
Sat Jan 30 14:12:07 2010	Houston, TX (77001) 	35 1 	28 -2 	75	NW	13	26	1020.2 30.14 	10	cloudy	
Sat Jan 30 14:56:10 2010	Houston, TX (77001) 	35 1 	28 -2 	75	NW	13	26	1020.2 30.14 	10	cloudy	
Sat Jan 30 15:42:00 2010	Houston, TX (77001) 	36 2 	29 -1 	75	NW	8	29	1021.1 30.16 	10	cloudy	
Sat Jan 30 16:27:00 2010	Houston, TX (77001) 	36 2 	29 -1 	75	N	13	27	1021.7 30.18 	10	cloudy	
Sat Jan 30 17:11:26 2010	Houston, TX (77001) 	36 2 	28 -2 	72	NNW	11	28	1022.6 30.21 	10	cloudy	
Sat Jan 30 17:54:39 2010	Houston, TX (77001) 	36 2 	28 -2 	72	NNW	11	28	1022.6 30.21 	10	cloudy	
Sat Jan 30 18:38:38 2010	Houston, TX (77001) 	37 2 	29 -1 	72	NNW	10	29	1022.6 30.21 	10	cloudy	
Sat Jan 30 19:21:56 2010	Houston, TX (77001) 	38 3 	29 -1 	70	N	10	30	1022.6 30.21 	10	cloudy	
Sat Jan 30 20:06:11 2010	Houston, TX (77001) 	39 3 	29 -1 	67	NNW	13	31	1021.7 30.18 	10	cloudy	
Sat Jan 30 20:49:17 2010	Houston, TX (77001) 	39 3 	29 -1 	67	NNW	13	31	1021.7 30.18 	10	cloudy	
Sat Jan 30 21:33:03 2010	Houston, TX (77001) 	38 3 	29 -1 	70	NNW	10	30	1021.5 30.17 	10	cloudy	
Sat Jan 30 22:16:17 2010	Houston, TX (77001) 	38 3 	29 -1 	70	NNW	12	30	1021.3 30.17 	10	cloudy	
Sat Jan 30 23:01:58 2010	Houston, TX (77001) 	38 3 	29 -1 	70	NNW	13	29	1021.6 30.18 	10	cloudy	
Sat Jan 30 23:46:37 2010	Houston, TX (77001) 	38 3 	29 -1 	70	NNW	13	29	1021.6 30.18 	10	cloudy	
Sun Jan 31 00:30:34 2010	Houston, TX (77001) 	37 2 	28 -2 	70	N	10	29	1022.0 30.19 	10	cloudy	
Sun Jan 31 01:21:19 2010	Houston, TX (77001) 	36 2 	28 -2 	72	N	12	27	1022.4 30.20 	10	cloudy	
Sun Jan 31 02:05:19 2010	Houston, TX (77001) 	36 2 	29 -1 	75	N	12	27	1022.8 30.21 	10	cloudy	
Sun Jan 31 02:48:45 2010	Houston, TX (77001) 	36 2 	29 -1 	75	N	12	27	1022.8 30.21 	10	cloudy	
Sun Jan 31 03:32:37 2010	Houston, TX (77001) 	36 2 	28 -2 	72	N	9	29	1023.7 30.24 	10	cloudy	
Sun Jan 31 04:16:04 2010	Houston, TX (77001) 	36 2 	29 -1 	75	NNW	10	28	1024.1 30.25 	10	cloudy	
Sun Jan 31 05:00:42 2010	Houston, TX (77001) 	36 2 	29 -1 	75	N	7	30	1024.4 30.26 	10	cloudy	
Sun Jan 31 05:46:44 2010	Houston, TX (77001) 	36 2 	29 -1 	75	N	7	30	1024.4 30.26 	10	cloudy	
Sun Jan 31 06:31:55 2010	Houston, TX (77001) 	36 2 	29 -1 	75	NNW	10	28	1024.5 30.26 	10	cloudy	
Sun Jan 31 07:14:48 2010	Houston, TX (77001) 	36 2 	29 -1 	75	N	9	29	1024.4 30.26 	10	cloudy	
Sun Jan 31 08:01:31 2010	Houston, TX (77001) 	35 1 	29 -1 	78	N	9	27	1024.6 30.27 	10	cloudy	
Sun Jan 31 08:46:12 2010	Houston, TX (77001) 	35 1 	29 -1 	78	N	9	27	1024.6 30.27 	10	cloudy	
Sun Jan 31 09:29:26 2010	Houston, TX (77001) 	35 1 	29 -1 	78	NE	10	27	1024.9 30.27 	10	cloudy	
Sun Jan 31 10:12:39 2010	Houston, TX (77001) 	34 1 	28 -2 	78	NE	8	27	1025.0 30.28 	10	cloudy	
Sun Jan 31 10:56:24 2010	Houston, TX (77001) 	34 1 	28 -2 	78	NE	8	27	1025.0 30.28 	10	cloudy	
Sun Jan 31 11:39:51 2010	Houston, TX (77001) 	34 1 	28 -2 	78	N	10	26	1024.9 30.27 	10	cloudy	
Sun Jan 31 12:23:32 2010	Houston, TX (77001) 	34 1 	28 -2 	78	NNE	9	26	1024.7 30.27 	10	cloudy	
Sun Jan 31 13:06:55 2010	Houston, TX (77001) 	34 1 	29 -1 	81	NNE	6	28	1025.4 30.29 	9	cloudy	
Sun Jan 31 13:50:33 2010	Houston, TX (77001) 	34 1 	29 -1 	81	NNE	6	28	1025.4 30.29 	9	cloudy	
Sun Jan 31 14:33:22 2010	Houston, TX (77001) 	35 1 	29 -1 	78	N	5	30	1026.0 30.31 	10	cloudy	
Sun Jan 31 15:17:27 2010	Houston, TX (77001) 	35 1 	29 -1 	78	NNE	5	30	1026.4 30.32 	10	cloudy	
Sun Jan 31 16:00:59 2010	Houston, TX (77001) 	36 2 	30 -1 	79	NNE	6	30	1026.8 30.33 	10	cloudy	
Sun Jan 31 16:50:45 2010	Houston, TX (77001) 	36 2 	30 -1 	79	NNE	6	30	1026.8 30.33 	10	cloudy	
Sun Jan 31 17:34:24 2010	Houston, TX (77001) 	37 2 	30 -1 	76	NE	8	30	1026.5 30.32 	10	cloudy	
Sun Jan 31 18:19:24 2010	Houston, TX (77001) 	38 3 	31 0 	76	NE	10	30	1026.2 30.31 	10	cloudy	
Sun Jan 31 19:03:10 2010	Houston, TX (77001) 	39 3 	32 0 	76	NNE	3	37	1025.6 30.29 	10	cloudy	
Sun Jan 31 19:48:32 2010	Houston, TX (77001) 	39 3 	32 0 	76	NNE	3	37	1025.6 30.29 	10	cloudy	
Sun Jan 31 20:31:31 2010	Houston, TX (77001) 	41 5 	32 0 	70	calm		41	1024.9 30.27 	10	cloudy	
Sun Jan 31 21:15:44 2010	Houston, TX (77001) 	41 5 	32 0 	70	calm		41	1024.0 30.25 	10	cloudy	
Sun Jan 31 21:58:58 2010	Houston, TX (77001) 	41 5 	32 0 	70	calm		41	1024.0 30.25 	10	cloudy	
Sun Jan 31 22:43:46 2010	Houston, TX (77001) 	42 5 	33 0 	70	SW	5	38	1024.0 30.25 	10	cloudy	
Sun Jan 31 23:27:06 2010	Houston, TX (77001) 	45 7 	33 0 	63	SE	4	43	1023.1 30.22 	9	mostly cloudy	
Thu Feb 4 00:12:27 2010	Houston, TX (77001) 	54 12 	45 7 	71	E	12		1015.5 30.00 	10	cloudy	
Thu Feb 4 00:56:31 2010	Houston, TX (77001) 	54 12 	45 7 	71	E	12		1015.5 30.00 	10	cloudy	
Thu Feb 4 01:39:47 2010	Houston, TX (77001) 	51 10 	47 8 	85		14	46	1015.4 29.99 	9	cloudy	
Thu Feb 4 02:27:31 2010	Houston, TX (77001) 	51 10 	47 8 	85		13	46	1015.3 29.99 	8	cloudy	light rain 
Thu Feb 4 03:10:43 2010	Houston, TX (77001) 	50 10 	47 8 	89	E	11	45	1015.9 30.01 	6	cloudy	moderate rain 
Thu Feb 4 03:55:10 2010	Houston, TX (77001) 	50 10 	47 8 	89	E	11	45	1015.9 30.01 	6	cloudy	moderate rain 
Thu Feb 4 04:38:27 2010	Houston, TX (77001) 	49 9 	47 8 	93	E	16	42	1015.2 29.99 	5	cloudy	moderate rain 
Thu Feb 4 05:21:48 2010	Houston, TX (77001) 	49 9 	47 8 	93	E	13	43	1015.4 29.99 	4	cloudy	heavy rain 
Thu Feb 4 06:04:38 2010	Houston, TX (77001) 	48 8 	47 8 	96	E	9	43	1015.9 30.01 	4	cloudy	moderate rain 
Thu Feb 4 06:47:43 2010	Houston, TX (77001) 	48 8 	47 8 	96	E	9	43	1015.9 30.01 	4	cloudy	moderate rain 
Thu Feb 4 07:31:17 2010	Houston, TX (77001) 	48 8 	46 7 	93	E	13	42	1015.0 29.98 	5	cloudy	moderate rain 
Thu Feb 4 08:13:50 2010	Houston, TX (77001) 	48 8 	46 7 	93	E	16	41	1014.0 29.95 	7	cloudy	light rain 
Thu Feb 4 08:57:33 2010	Houston, TX (77001) 	48 8 	46 7 	93	E	16	41	1014.0 29.95 	7	cloudy	light rain 
Thu Feb 4 09:41:28 2010	Houston, TX (77001) 	48 8 	46 7 	93	E	20	40	1012.6 29.91 	8	cloudy	light rain 
Thu Feb 4 10:25:07 2010	Houston, TX (77001) 	48 8 	46 7 	93	E	24	40	1010.1 29.84 	7	cloudy	light rain 
Thu Feb 4 11:11:03 2010	Houston, TX (77001) 	49 9 	47 8 	93	E	29	40	1008.4 29.79 	10	cloudy	light rain 
Thu Feb 4 11:54:35 2010	Houston, TX (77001) 	49 9 	47 8 	93	E	29	40	1008.4 29.79 	10	cloudy	light rain 
Thu Feb 4 12:37:40 2010	Houston, TX (77001) 	51 10 	49 9 	92	NNW	5	49	1012.2 29.90 	10	cloudy	
Thu Feb 4 13:21:45 2010	Houston, TX (77001) 	50 10 	48 8 	93		7	47	1011.5 29.88 	10	cloudy	
Thu Feb 4 14:06:35 2010	Houston, TX (77001) 	50 10 	50 10 	100		3	49	1011.5 29.88 	10	cloudy	
Thu Feb 4 14:59:22 2010	Houston, TX (77001) 	50 10 	50 10 	100		3	49	1011.5 29.88 	10	cloudy	
Thu Jan 28 15:39:00 2010	Houston, TX (77001) 	59 15 	56 13 	89	ESE	9		1021.4 30.17 	10	mostly cloudy	
Thu Jan 28 15:59:49 2010	Houston, TX (77001) 	59 15 	56 13 	89	ESE	9		1021.4 30.17 	10	mostly cloudy	
Thu Jan 28 16:49:09 2010	Houston, TX (77001) 	59 15 	56 13 	89	ESE	10		1021.5 30.17 	10	cloudy	
Thu Jan 28 17:13:24 2010	Houston, TX (77001) 	60 15 	56 13 	86	ESE	11		1021.5 30.17 	10	cloudy	
Thu Jan 28 17:29:23 2010	Houston, TX (77001) 	60 15 	56 13 	86	ESE	11		1021.5 30.17 	10	cloudy	
Tue Feb 2 00:28:19 2010	Houston, TX (77001) 	49 9 	45 7 	86	ESE	5	47	1018.5 30.09 	2	cloudy	haze 
Tue Feb 2 01:13:55 2010	Houston, TX (77001) 	48 8 	45 7 	89	ENE	6	45	1018.3 30.08 	2	cloudy	haze 
Tue Feb 2 01:57:04 2010	Houston, TX (77001) 	48 8 	45 7 	89	ENE	6	45	1018.3 30.08 	2	cloudy	haze 
Tue Feb 2 02:41:07 2010	Houston, TX (77001) 	49 9 	46 7 	90		6	46	1018.6 30.09 	4	cloudy	haze 
Tue Feb 2 03:24:38 2010	Houston, TX (77001) 	48 8 	45 7 	89	ENE	6	45	1018.3 30.08 	6	cloudy	haze 
Tue Feb 2 04:08:26 2010	Houston, TX (77001) 	49 9 	45 7 	86		5	47	1017.9 30.07 	7	cloudy	
Tue Feb 2 04:51:57 2010	Houston, TX (77001) 	49 9 	45 7 	86		5	47	1017.9 30.07 	7	cloudy	
Tue Feb 2 05:35:21 2010	Houston, TX (77001) 	48 8 	45 7 	89	E	4	46	1017.8 30.06 	7	cloudy	
Tue Feb 2 06:18:38 2010	Houston, TX (77001) 	49 9 	46 7 	90	NNE	3	48	1018.3 30.08 	7	cloudy	
Tue Feb 2 07:05:45 2010	Houston, TX (77001) 	49 9 	46 7 	90	N	4	47	1018.5 30.09 	7	cloudy	
Tue Feb 2 07:48:45 2010	Houston, TX (77001) 	49 9 	46 7 	90	N	4	47	1018.5 30.09 	7	cloudy	
Tue Feb 2 08:31:58 2010	Houston, TX (77001) 	49 9 	46 7 	90	NE	5	47	1018.4 30.08 	6	cloudy	haze 
Tue Feb 2 09:15:26 2010	Houston, TX (77001) 	49 9 	46 7 	90		3	48	1018.8 30.09 	6	cloudy	haze 
Tue Feb 2 09:58:59 2010	Houston, TX (77001) 	49 9 	46 7 	90		3	48	1018.8 30.09 	6	cloudy	haze 
Tue Feb 2 10:42:32 2010	Houston, TX (77001) 	49 9 	45 7 	86	NNE	5	47	1018.8 30.09 	6	cloudy	haze 
Tue Feb 2 11:26:39 2010	Houston, TX (77001) 	49 9 	46 7 	90	NNE	6	46	1018.9 30.10 	6	cloudy	light rain 
Tue Feb 2 12:10:40 2010	Houston, TX (77001) 	48 8 	46 7 	93	NNE	5	45	1019.2 30.11 	6	cloudy	haze 
Tue Feb 2 12:54:34 2010	Houston, TX (77001) 	48 8 	46 7 	93	NNE	5	45	1019.2 30.11 	6	cloudy	haze 
Tue Feb 2 13:37:52 2010	Houston, TX (77001) 	48 8 	46 7 	93	NNE	6	45	1019.4 30.11 	6	cloudy	haze 
Tue Feb 2 14:21:34 2010	Houston, TX (77001) 	48 8 	46 7 	93	NNE	7	44	1019.8 30.12 	6	cloudy	haze 
Tue Feb 2 15:05:55 2010	Houston, TX (77001) 	49 9 	46 7 	90	NNE	5	47	1020.8 30.15 	6	cloudy	haze 
Tue Feb 2 15:52:21 2010	Houston, TX (77001) 	49 9 	46 7 	90	NNE	5	47	1020.8 30.15 	6	cloudy	haze 
Tue Feb 2 16:44:51 2010	Houston, TX (77001) 	50 10 	46 7 	86	NNE	9	46	1021.0 30.16 	8	cloudy	
Tue Feb 2 17:33:17 2010	Houston, TX (77001) 	51 10 	46 7 	83	NNE	4		1022.0 30.19 	10	cloudy	
Tue Feb 2 18:17:54 2010	Houston, TX (77001) 	52 11 	48 8 	86	NE	5		1022.0 30.19 	10	cloudy	
Tue Feb 2 19:02:05 2010	Houston, TX (77001) 	53 11 	48 8 	83	calm			1021.7 30.18 	10	cloudy	
Tue Feb 2 19:51:24 2010	Houston, TX (77001) 	53 11 	48 8 	83	calm			1021.7 30.18 	10	cloudy	
Tue Feb 2 20:42:38 2010	Houston, TX (77001) 	55 12 	49 9 	80	N	9		1020.4 30.14 	10	cloudy	
Tue Feb 2 21:29:29 2010	Houston, TX (77001) 	57 13 	49 9 	74	NE	8		1019.6 30.12 	10	cloudy	
Tue Feb 2 22:17:52 2010	Houston, TX (77001) 	59 15 	49 9 	69	N	4		1019.9 30.13 	10	cloudy	
Tue Feb 2 23:02:10 2010	Houston, TX (77001) 	58 14 	49 9 	72	N	6		1019.6 30.12 	10	cloudy	
Tue Feb 2 23:47:09 2010	Houston, TX (77001) 	58 14 	49 9 	72	N	6		1019.6 30.12 	10	cloudy	
Wed Feb 3 00:31:53 2010	Houston, TX (77001) 	58 14 	49 9 	72	NNE	3		1020.7 30.15 	10	cloudy	
Wed Feb 3 01:19:03 2010	Houston, TX (77001) 	57 13 	49 9 	74	calm			1020.9 30.16 	10	mostly cloudy	
Wed Feb 3 02:03:52 2010	Houston, TX (77001) 	53 11 	49 9 	86	NNW	3		1021.1 30.16 	10	mostly cloudy	
Wed Feb 3 02:52:35 2010	Houston, TX (77001) 	53 11 	49 9 	86	NNW	3		1021.1 30.16 	10	mostly cloudy	
Wed Feb 3 03:39:24 2010	Houston, TX (77001) 	54 12 	48 8 	80	NNE	6		1021.7 30.18 	10	mostly cloudy	
Wed Feb 3 04:27:34 2010	Houston, TX (77001) 	52 11 	47 8 	83		3		1022.0 30.19 	10	mostly cloudy	
Wed Feb 3 05:14:22 2010	Houston, TX (77001) 	50 10 	46 7 	86	NE	5	48	1021.4 30.17 	10	partly cloudy	
Wed Feb 3 06:02:10 2010	Houston, TX (77001) 	50 10 	47 8 	89	NNE	6	47	1021.3 30.17 	9	mostly cloudy	
Wed Feb 3 06:48:55 2010	Houston, TX (77001) 	50 10 	47 8 	89	NNE	6	47	1021.3 30.17 	9	mostly cloudy	
Wed Feb 3 07:33:31 2010	Houston, TX (77001) 	51 10 	47 8 	85	NE	5	49	1021.0 30.16 	9	mostly cloudy	
Wed Feb 3 08:16:41 2010	Houston, TX (77001) 	50 10 	46 7 	86	ENE	5	48	1021.0 30.16 	9	mostly cloudy	
Wed Feb 3 09:03:09 2010	Houston, TX (77001) 	50 10 	46 7 	86	ENE	5	48	1020.1 30.13 	9	mostly cloudy	
Wed Feb 3 09:46:29 2010	Houston, TX (77001) 	50 10 	46 7 	86	ENE	5	48	1020.1 30.13 	9	mostly cloudy	
Wed Feb 3 10:30:22 2010	Houston, TX (77001) 	50 10 	45 7 	83	E	8	46	1019.4 30.11 	9	mostly cloudy	
Wed Feb 3 11:17:14 2010	Houston, TX (77001) 	49 9 	44 6 	83	E	9	45	1019.0 30.10 	10	mostly cloudy	
Wed Feb 3 12:01:59 2010	Houston, TX (77001) 	49 9 	44 6 	83	E	9	45	1019.6 30.12 	10	cloudy	
Wed Feb 3 12:45:11 2010	Houston, TX (77001) 	49 9 	44 6 	83	E	9	45	1019.6 30.12 	10	cloudy	
Wed Feb 3 13:28:56 2010	Houston, TX (77001) 	49 9 	43 6 	80	E	8	45	1020.0 30.13 	10	cloudy	
Wed Feb 3 14:15:02 2010	Houston, TX (77001) 	49 9 	43 6 	80	E	8	45	1020.0 30.13 	10	cloudy	
Wed Feb 3 15:01:02 2010	Houston, TX (77001) 	47 8 	43 6 	86	E	12	41	1019.9 30.13 	8	cloudy	light rain 
Wed Feb 3 15:45:50 2010	Houston, TX (77001) 	47 8 	43 6 	86	E	12	41	1019.9 30.13 	8	cloudy	light rain 
Wed Feb 3 16:31:42 2010	Houston, TX (77001) 	48 8 	43 6 	83	ENE	11	43	1019.2 30.11 	8	cloudy	light rain 
Wed Feb 3 17:18:55 2010	Houston, TX (77001) 	48 8 	43 6 	83	ENE	12	42	1019.0 30.10 	8	cloudy	light rain 
Wed Feb 3 18:07:13 2010	Houston, TX (77001) 	49 9 	44 6 	83	ENE	10	44	1019.7 30.12 	10	cloudy	
Wed Feb 3 18:50:20 2010	Houston, TX (77001) 	49 9 	44 6 	83	ENE	10	44	1019.7 30.12 	10	cloudy	
Wed Feb 3 19:34:35 2010	Houston, TX (77001) 	51 10 	44 6 	77	E	13	46	1019.4 30.11 	10	cloudy	
Wed Feb 3 20:18:40 2010	Houston, TX (77001) 	53 11 	44 6 	71	E	16	48	1016.9 30.04 	10	cloudy	
Wed Feb 3 21:02:58 2010	Houston, TX (77001) 	53 11 	43 6 	68	ESE	15	48	1016.5 30.03 	10	cloudy	
Wed Feb 3 21:51:05 2010	Houston, TX (77001) 	53 11 	43 6 	68	ESE	15	48	1016.5 30.03 	10	cloudy	
Wed Feb 3 22:36:37 2010	Houston, TX (77001) 	54 12 	44 6 	69	E	8		1016.4 30.02 	10	cloudy	
Wed Feb 3 23:27:31 2010	Houston, TX (77001) 	54 12 	45 7 	71	E	13		1015.0 29.98 	10	cloudy	
Fri Jan 29 08:41:33 2010	Indianapolis, IN (46201) 	12-Oct	17-Jan	66	N	3	4	1032.6 30.50 	10	partly cloudy	
Fri Jan 29 09:25:28 2010	Indianapolis, IN (46201) 	12-Oct	17-Jan	66	N	3	4	1033.0 30.51 	10	partly cloudy	
Fri Jan 29 11:57:30 2010	Indianapolis, IN (46201) 	11-Nov	16-Mar	70	N	4	3	1032.1 30.49 	10	cloudy	
Fri Jan 29 12:42:12 2010	Indianapolis, IN (46201) 	11-Dec	16-Mar	67	NNE	5	3	1032.4 30.50 	10	cloudy	
Fri Jan 29 13:29:55 2010	Indianapolis, IN (46201) 	13 -10 	16-Mar	64	NNE	6	3	1032.6 30.50 	10	cloudy	
Fri Jan 29 14:17:47 2010	Indianapolis, IN (46201) 	13 -10 	15-Apr	67	NNE	7	2	1032.9 30.51 	10	cloudy	
Fri Jan 29 15:02:34 2010	Indianapolis, IN (46201) 	13 -10 	15-Apr	67	NE	7	2	1032.5 30.50 	10	cloudy	
Fri Jan 29 15:48:07 2010	Indianapolis, IN (46201) 	13 -10 	15-Apr	67	NE	7	2	1032.5 30.50 	10	cloudy	
Fri Jan 29 16:35:51 2010	Indianapolis, IN (46201) 	14 -10 	15-Apr	63	NE	5	5	1033.8 30.54 	10	cloudy	
Fri Jan 29 17:20:18 2010	Indianapolis, IN (46201) 	15 -9 	15-Apr	61	E	7	4	1033.9 30.54 	10	cloudy	
Fri Jan 29 18:08:48 2010	Indianapolis, IN (46201) 	17 -8 	15-May	58	ENE	10	4	1033.1 30.52 	10	cloudy	
Fri Jan 29 18:53:48 2010	Indianapolis, IN (46201) 	17 -8 	15-May	58	ENE	10	4	1033.1 30.52 	10	cloudy	
Fri Jan 29 19:45:47 2010	Indianapolis, IN (46201) 	17 -8 	13-Jul	64	ENE	9	5	1032.0 30.48 	10	cloudy	
Fri Jan 29 20:43:35 2010	Indianapolis, IN (46201) 	18 -7 	13-Jul	61	ENE	8	7	1030.6 30.44 	10	cloudy	
Fri Jan 29 21:28:13 2010	Indianapolis, IN (46201) 	18 -7 	14-Jun	59		7	8	1029.1 30.40 	10	cloudy	
Fri Jan 29 22:14:49 2010	Indianapolis, IN (46201) 	19 -7 	13-Jul	59	E	8	8	1028.9 30.39 	10	mostly cloudy	
Fri Jan 29 22:59:45 2010	Indianapolis, IN (46201) 	19 -7 	13-Jul	59	E	8	8	1028.9 30.39 	10	mostly cloudy	
Fri Jan 29 23:44:02 2010	Indianapolis, IN (46201) 	19 -7 	13-Jul	59		12	6	1027.8 30.36 	10	mostly cloudy	
Mon Feb 1 00:11:01 2010	Indianapolis, IN (46201) 	27 -2 	13 -10 	55	WSW	8	18	1025.2 30.28 	10	mostly clear	
Mon Feb 1 00:53:58 2010	Indianapolis, IN (46201) 	27 -2 	13 -10 	55	WSW	8	18	1025.2 30.28 	10	mostly clear	
Mon Feb 1 01:40:18 2010	Indianapolis, IN (46201) 	24 -4 	11-Dec	59	W	6	16	1025.7 30.30 	10	mostly clear	
Mon Feb 1 02:24:14 2010	Indianapolis, IN (46201) 	22 -5 	11-Nov	62	WNW	6	13	1026.3 30.32 	10	mostly clear	
Mon Feb 1 03:07:55 2010	Indianapolis, IN (46201) 	21 -6 	11-Nov	64	WNW	4	15	1026.2 30.31 	10	mostly clear	
Mon Feb 1 03:52:35 2010	Indianapolis, IN (46201) 	21 -6 	11-Nov	64	WNW	4	15	1026.2 30.31 	10	mostly clear	
Mon Feb 1 04:37:23 2010	Indianapolis, IN (46201) 	20 -6 	11-Nov	68	WNW	4	13	1026.7 30.33 	10	mostly clear	
Mon Feb 1 05:20:32 2010	Indianapolis, IN (46201) 	21 -6 	11-Nov	64	WSW	3	16	1026.5 30.32 	10	mostly clear	
Mon Feb 1 06:05:25 2010	Indianapolis, IN (46201) 	20 -6 	11-Nov	68	calm		20	1026.8 30.33 	10	mostly clear	
Mon Feb 1 06:48:35 2010	Indianapolis, IN (46201) 	20 -6 	11-Nov	68	calm		20	1026.8 30.33 	10	mostly clear	
Mon Feb 1 07:32:24 2010	Indianapolis, IN (46201) 	18 -7 	12-Oct	70	calm		18	1027.3 30.35 	10	mostly cloudy	
Mon Feb 1 08:15:30 2010	Indianapolis, IN (46201) 	19 -7 	11-Nov	70	calm		19	1027.1 30.34 	10	mostly cloudy	
Mon Feb 1 08:59:16 2010	Indianapolis, IN (46201) 	19 -7 	11-Nov	70	calm		19	1027.1 30.34 	10	mostly cloudy	
Mon Feb 1 09:42:15 2010	Indianapolis, IN (46201) 	20 -6 	11-Dec	71	calm		20	1027.2 30.34 	10	cloudy	
Mon Feb 1 10:25:48 2010	Indianapolis, IN (46201) 	19 -7 	11-Nov	70	ENE	3	14	1026.6 30.32 	10	cloudy	
Mon Feb 1 11:08:45 2010	Indianapolis, IN (46201) 	21 -6 	13 -10 	70	calm		21	1026.0 30.31 	10	cloudy	
Mon Feb 1 11:52:11 2010	Indianapolis, IN (46201) 	21 -6 	13 -10 	70	calm		21	1026.0 30.31 	10	cloudy	
Mon Feb 1 12:35:32 2010	Indianapolis, IN (46201) 	21 -6 	15 -9 	78	S	3	16	1026.5 30.32 	10	cloudy	
Mon Feb 1 13:19:06 2010	Indianapolis, IN (46201) 	21 -6 	14 -10 	74	calm		21	1026.7 30.33 	10	cloudy	
Mon Feb 1 14:02:58 2010	Indianapolis, IN (46201) 	20 -6 	13 -10 	74	SE	4	13	1027.2 30.34 	10	partly cloudy	
Mon Feb 1 14:48:04 2010	Indianapolis, IN (46201) 	20 -6 	13 -10 	74	SE	4	13	1027.2 30.34 	10	partly cloudy	
Mon Feb 1 15:31:48 2010	Indianapolis, IN (46201) 	22 -5 	16 -8 	78	calm		22	1027.5 30.35 	10	mostly cloudy	
Mon Feb 1 16:16:16 2010	Indianapolis, IN (46201) 	24 -4 	15 -9 	68	SSE	3	20	1027.4 30.35 	10	mostly cloudy	
Mon Feb 1 17:01:14 2010	Indianapolis, IN (46201) 	27 -2 	16 -8 	63	SSE	5	21	1027.5 30.35 	10	mostly cloudy	
Mon Feb 1 17:45:06 2010	Indianapolis, IN (46201) 	24 -4 	15 -9 	68	SSE	3	20	1027.4 30.35 	10	mostly cloudy	
Mon Feb 1 18:28:35 2010	Indianapolis, IN (46201) 	29 -1 	15 -9 	56	SSE	4	24	1026.9 30.33 	10	mostly cloudy	
Mon Feb 1 19:12:21 2010	Indianapolis, IN (46201) 	31 0 	15 -9 	51	calm		31	1025.9 30.30 	10	mostly cloudy	
Mon Feb 1 19:57:13 2010	Indianapolis, IN (46201) 	31 0 	15 -9 	51	calm		31	1025.9 30.30 	10	mostly cloudy	
Mon Feb 1 20:43:38 2010	Indianapolis, IN (46201) 	33 0 	16 -8 	49	S	4	29	1024.4 30.26 	10	mostly cloudy	
Mon Feb 1 21:28:33 2010	Indianapolis, IN (46201) 	35 1 	16 -8 	45	calm		35	1024.0 30.25 	10	mostly cloudy	
Mon Feb 1 22:11:58 2010	Indianapolis, IN (46201) 	37 2 	15 -9 	40	calm		37	1023.4 30.23 	10	mostly cloudy	
Mon Feb 1 22:55:16 2010	Indianapolis, IN (46201) 	37 2 	15 -9 	40	calm		37	1023.4 30.23 	10	mostly cloudy	
Mon Feb 1 23:41:25 2010	Indianapolis, IN (46201) 	36 2 	14 -10 	40	SE	3	33	1023.0 30.22 	10	mostly cloudy	
Sat Jan 30 00:28:06 2010	Indianapolis, IN (46201) 	18 -7 	13-Aug	65	ENE	9	6	1027.5 30.35 	10	cloudy	
Sat Jan 30 01:12:16 2010	Indianapolis, IN (46201) 	18 -7 	13-Jul	61	ENE	11	5	1027.8 30.36 	10	cloudy	
Sat Jan 30 01:55:48 2010	Indianapolis, IN (46201) 	18 -7 	13-Jul	61	ENE	11	5	1027.8 30.36 	10	cloudy	
Sat Jan 30 02:40:29 2010	Indianapolis, IN (46201) 	17 -8 	13-Jul	64		9	5	1026.9 30.33 	10	cloudy	
Sat Jan 30 03:24:01 2010	Indianapolis, IN (46201) 	17 -8 	13-Aug	67		12	3	1026.5 30.32 	10	cloudy	
Sat Jan 30 04:07:55 2010	Indianapolis, IN (46201) 	17 -8 	13-Aug	67	ENE	13	3	1025.8 30.30 	9	cloudy	light snow 
Sat Jan 30 04:51:42 2010	Indianapolis, IN (46201) 	17 -8 	13-Aug	67	ENE	13	3	1025.8 30.30 	9	cloudy	light snow 
Sat Jan 30 05:35:24 2010	Indianapolis, IN (46201) 	16 -8 	13-Jul	67		10	3	1024.8 30.27 	9	cloudy	light snow 
Sat Jan 30 06:19:32 2010	Indianapolis, IN (46201) 	16 -8 	13-Jul	67		11	2	1024.5 30.26 	9	cloudy	light snow 
Sat Jan 30 07:05:31 2010	Indianapolis, IN (46201) 	16 -8 	14-Jun	64	NE	12	2	1024.2 30.25 	10	cloudy	light snow 
Sat Jan 30 07:48:14 2010	Indianapolis, IN (46201) 	16 -8 	14-Jun	64	NE	12	2	1024.2 30.25 	10	cloudy	light snow 
Sat Jan 30 08:31:26 2010	Indianapolis, IN (46201) 	16 -8 	14-Jun	64	NE	12	2	1022.8 30.21 	10	cloudy	
Sat Jan 30 11:13:12 2010	Indianapolis, IN (46201) 	16 -8 	14-Jun	64		10	3	1021.7 30.18 	10	cloudy	
Sat Jan 30 12:01:00 2010	Indianapolis, IN (46201) 	16 -8 	15-May	61	NE	14	1	1021.3 30.17 	10	cloudy	
Sat Jan 30 12:44:38 2010	Indianapolis, IN (46201) 	16 -8 	15-May	61	NE	14	1	1021.3 30.17 	10	cloudy	
Sat Jan 30 13:27:54 2010	Indianapolis, IN (46201) 	16 -8 	15-May	61	NE	10	3	1021.0 30.16 	10	cloudy	
Sat Jan 30 14:12:05 2010	Indianapolis, IN (46201) 	16 -8 	14-Jun	64	NE	10	3	1020.7 30.15 	10	cloudy	
Sat Jan 30 14:56:08 2010	Indianapolis, IN (46201) 	16 -8 	14-Jun	64	NE	10	3	1020.7 30.15 	10	cloudy	
Sat Jan 30 15:41:58 2010	Indianapolis, IN (46201) 	16 -8 	14-Jun	64	NE	12	2	1020.9 30.16 	10	mostly cloudy	
Sat Jan 30 16:26:58 2010	Indianapolis, IN (46201) 	17 -8 	14-Jun	61	NE	14	2	1021.3 30.17 	10	mostly cloudy	
Sat Jan 30 17:11:24 2010	Indianapolis, IN (46201) 	19 -7 	13-Jul	59	NNE	13	5	1021.6 30.18 	10	mostly cloudy	
Sat Jan 30 17:54:36 2010	Indianapolis, IN (46201) 	19 -7 	13-Jul	59	NNE	13	5	1021.6 30.18 	10	mostly cloudy	
Sat Jan 30 18:38:35 2010	Indianapolis, IN (46201) 	22 -5 	13-Aug	55		10	10	1021.8 30.18 	10	mostly cloudy	
Sat Jan 30 19:21:54 2010	Indianapolis, IN (46201) 	22 -5 	12-Sep	57	NNE	10	10	1021.0 30.16 	10	mostly cloudy	
Sat Jan 30 20:06:09 2010	Indianapolis, IN (46201) 	24 -4 	12-Oct	54	NE	8	14	1020.0 30.13 	10	mostly cloudy	
Sat Jan 30 20:49:15 2010	Indianapolis, IN (46201) 	24 -4 	12-Oct	54	NE	8	14	1020.0 30.13 	10	mostly cloudy	
Sat Jan 30 21:33:01 2010	Indianapolis, IN (46201) 	25 -3 	11-Nov	54	NNE	9	15	1019.9 30.13 	10	partly cloudy	
Sat Jan 30 22:16:15 2010	Indianapolis, IN (46201) 	26 -3 	12-Oct	50	N	6	18	1020.5 30.14 	10	partly cloudy	
Sat Jan 30 23:01:55 2010	Indianapolis, IN (46201) 	25 -3 	11-Nov	54	NE	8	16	1020.8 30.15 	10	partly cloudy	
Sat Jan 30 23:46:34 2010	Indianapolis, IN (46201) 	25 -3 	11-Nov	54	NE	8	16	1020.8 30.15 	10	partly cloudy	
Sun Jan 31 00:30:31 2010	Indianapolis, IN (46201) 	23 -5 	11-Nov	59	NNE	8	13	1021.4 30.17 	10	partly cloudy	
Sun Jan 31 01:21:17 2010	Indianapolis, IN (46201) 	20 -6 	12-Oct	65	NNE	7	10	1021.7 30.18 	10	mostly clear	
Sun Jan 31 02:05:17 2010	Indianapolis, IN (46201) 	18 -7 	12-Oct	70	NE	7	8	1021.8 30.18 	10	mostly clear	
Sun Jan 31 02:48:43 2010	Indianapolis, IN (46201) 	18 -7 	12-Oct	70	NE	7	8	1021.8 30.18 	10	mostly clear	
Sun Jan 31 03:32:35 2010	Indianapolis, IN (46201) 	18 -7 	12-Sep	67	N	4	11	1022.5 30.20 	10	mostly clear	
Sun Jan 31 04:16:02 2010	Indianapolis, IN (46201) 	18 -7 	11-Nov	73	NNE	8	7	1022.6 30.21 	10	mostly clear	
Sun Jan 31 05:00:38 2010	Indianapolis, IN (46201) 	18 -7 	11-Nov	73		5	10	1022.1 30.19 	10	mostly clear	
Sun Jan 31 05:46:41 2010	Indianapolis, IN (46201) 	18 -7 	11-Nov	73		5	10	1022.1 30.19 	10	mostly clear	
Sun Jan 31 06:31:52 2010	Indianapolis, IN (46201) 	17 -8 	12-Oct	73	NE	3	12	1022.7 30.21 	10	partly cloudy	
Sun Jan 31 07:14:46 2010	Indianapolis, IN (46201) 	16 -8 	12-Sep	73	calm		16	1022.4 30.20 	10	partly cloudy	
Sun Jan 31 08:01:29 2010	Indianapolis, IN (46201) 	15 -9 	12-Oct	80	SE	3	9	1022.5 30.20 	10	partly cloudy	
Sun Jan 31 08:46:10 2010	Indianapolis, IN (46201) 	15 -9 	12-Oct	80	SE	3	9	1022.5 30.20 	10	partly cloudy	
Sun Jan 31 09:29:24 2010	Indianapolis, IN (46201) 	15 -9 	12-Oct	80	SE	4	8	1022.8 30.21 	10	mostly clear	
Sun Jan 31 10:12:36 2010	Indianapolis, IN (46201) 	11-Dec	13-Aug	84	calm		12	1022.9 30.22 	10	mostly clear	
Sun Jan 31 10:56:22 2010	Indianapolis, IN (46201) 	11-Dec	13-Aug	84	calm		12	1022.9 30.22 	10	mostly clear	
Sun Jan 31 11:39:49 2010	Indianapolis, IN (46201) 	12-Sep	14-Jun	88	WNW	4	1	1023.8 30.24 	8	mostly clear	
Sun Jan 31 12:23:29 2010	Indianapolis, IN (46201) 	12-Oct	13-Jul	87	WNW	3	4	1024.2 30.25 	9	mostly clear	
Sun Jan 31 13:06:53 2010	Indianapolis, IN (46201) 	12-Oct	13-Jul	87	calm		10	1024.9 30.27 	8	mostly clear	
Sun Jan 31 13:50:30 2010	Indianapolis, IN (46201) 	12-Oct	13-Jul	87	calm		10	1024.9 30.27 	8	mostly clear	
Sun Jan 31 14:33:20 2010	Indianapolis, IN (46201) 	13-Aug	15-May	87	WSW	3	1	1025.2 30.28 	8	mostly clear	
Sun Jan 31 15:17:25 2010	Indianapolis, IN (46201) 	11-Dec	12-Oct	91	calm		12	1025.5 30.29 	7	clear	
Sun Jan 31 16:00:56 2010	Indianapolis, IN (46201) 	15 -9 	11-Dec	87	calm		15	1025.7 30.30 	8	clear	
Sun Jan 31 16:50:42 2010	Indianapolis, IN (46201) 	15 -9 	11-Dec	87	calm		15	1025.7 30.30 	8	clear	
Sun Jan 31 17:34:21 2010	Indianapolis, IN (46201) 	20 -6 	14 -10 	77	SW	5	12	1025.6 30.29 	10	clear	
Sun Jan 31 18:19:21 2010	Indianapolis, IN (46201) 	23 -5 	14 -10 	68	SW	6	15	1025.9 30.30 	10	clear	
Sun Jan 31 19:03:08 2010	Indianapolis, IN (46201) 	25 -3 	14 -10 	62	SW	7	16	1025.1 30.28 	10	clear	
Sun Jan 31 19:48:30 2010	Indianapolis, IN (46201) 	25 -3 	14 -10 	62	SW	7	16	1025.1 30.28 	10	clear	
Sun Jan 31 20:31:29 2010	Indianapolis, IN (46201) 	27 -2 	14 -10 	57	W	8	18	1024.7 30.27 	10	clear	
Sun Jan 31 21:15:42 2010	Indianapolis, IN (46201) 	28 -2 	15 -9 	58	W	8	19	1024.6 30.27 	10	clear	
Sun Jan 31 21:58:56 2010	Indianapolis, IN (46201) 	28 -2 	15 -9 	58	W	8	19	1024.6 30.27 	10	clear	
Sun Jan 31 22:43:44 2010	Indianapolis, IN (46201) 	28 -2 	14 -10 	55	WSW	11	17	1024.9 30.27 	10	clear	
Sun Jan 31 23:27:04 2010	Indianapolis, IN (46201) 	29 -1 	13 -10 	51	WSW	9	20	1025.1 30.28 	10	mostly clear	
Thu Feb 4 00:12:25 2010	Indianapolis, IN (46201) 	28 -2 	21 -6 	75	calm		28	1026.8 30.33 	7	partly cloudy	
Thu Feb 4 00:56:30 2010	Indianapolis, IN (46201) 	28 -2 	21 -6 	75	calm		28	1026.8 30.33 	7	partly cloudy	
Thu Feb 4 01:39:45 2010	Indianapolis, IN (46201) 	27 -2 	20 -6 	74	calm		27	1027.6 30.35 	7	mostly clear	
Thu Feb 4 02:27:29 2010	Indianapolis, IN (46201) 	26 -3 	20 -6 	77	NNW	3	22	1028.8 30.39 	7	clear	
Thu Feb 4 03:10:40 2010	Indianapolis, IN (46201) 	25 -3 	20 -6 	81	N	4	19	1028.8 30.39 	7	mostly clear	
Thu Feb 4 03:55:08 2010	Indianapolis, IN (46201) 	25 -3 	20 -6 	81	N	4	19	1028.8 30.39 	7	mostly clear	
Thu Feb 4 04:38:24 2010	Indianapolis, IN (46201) 	26 -3 	21 -6 	81	N	5	19	1029.4 30.41 	6	mostly cloudy	haze 
Thu Feb 4 05:21:45 2010	Indianapolis, IN (46201) 	26 -3 	21 -6 	81	NE	6	18	1029.1 30.40 	6	mostly cloudy	haze 
Thu Feb 4 06:04:36 2010	Indianapolis, IN (46201) 	26 -3 	21 -6 	81	ENE	5	19	1028.6 30.38 	8	mostly clear	
Thu Feb 4 06:47:40 2010	Indianapolis, IN (46201) 	26 -3 	21 -6 	81	ENE	5	19	1028.6 30.38 	8	mostly clear	
Thu Feb 4 07:31:15 2010	Indianapolis, IN (46201) 	25 -3 	21 -6 	85	NE	3	21	1028.3 30.37 	8	mostly cloudy	
Thu Feb 4 08:13:49 2010	Indianapolis, IN (46201) 	24 -4 	20 -6 	84	NE	4	18	1027.8 30.36 	7	mostly cloudy	
Thu Feb 4 08:57:31 2010	Indianapolis, IN (46201) 	24 -4 	20 -6 	84	NE	4	18	1027.8 30.36 	7	mostly cloudy	
Thu Feb 4 09:41:26 2010	Indianapolis, IN (46201) 	25 -3 	21 -6 	85		4	19	1028.7 30.39 	7	cloudy	
Thu Feb 4 10:25:05 2010	Indianapolis, IN (46201) 	26 -3 	22 -5 	84		4	21	1028.9 30.39 	7	cloudy	
Thu Feb 4 11:11:00 2010	Indianapolis, IN (46201) 	25 -3 	21 -6 	85	NE	5	18	1028.5 30.38 	7	cloudy	
Thu Feb 4 11:54:32 2010	Indianapolis, IN (46201) 	25 -3 	21 -6 	85	NE	5	18	1028.5 30.38 	7	cloudy	
Thu Feb 4 12:37:38 2010	Indianapolis, IN (46201) 	25 -3 	21 -6 	85	NE	4	19	1028.6 30.38 	7	cloudy	
Thu Feb 4 13:21:43 2010	Indianapolis, IN (46201) 	26 -3 	22 -5 	84	ENE	3	22	1029.0 30.40 	6	cloudy	haze 
Thu Feb 4 14:06:33 2010	Indianapolis, IN (46201) 	27 -2 	22 -5 	81	E	7	19	1029.2 30.40 	4	cloudy	haze 
Thu Feb 4 14:59:19 2010	Indianapolis, IN (46201) 	27 -2 	22 -5 	81	E	7	19	1029.2 30.40 	4	cloudy	haze 
Thu Jan 28 15:38:58 2010	Indianapolis, IN (46201) 	14 -10 	13-Jul	73	WNW	16	-3	1028.6 30.38 	10	partly cloudy	
Thu Jan 28 15:59:45 2010	Indianapolis, IN (46201) 	14 -10 	13-Jul	73	WNW	16	-3	1028.6 30.38 	10	partly cloudy	
Thu Jan 28 16:49:06 2010	Indianapolis, IN (46201) 	14 -10 	13-Jul	73	WNW	16	-3	1029.7 30.42 	10	partly cloudy	
Thu Jan 28 17:13:21 2010	Indianapolis, IN (46201) 	15 -9 	14-Jun	67	NW	14	-1	1030.6 30.44 	10	partly cloudy	
Thu Jan 28 17:29:20 2010	Indianapolis, IN (46201) 	15 -9 	14-Jun	67	NW	14	-1	1030.6 30.44 	10	partly cloudy	
Tue Feb 2 00:28:17 2010	Indianapolis, IN (46201) 	35 1 	16 -8 	45	ESE	6	29	1022.5 30.20 	10	mostly cloudy	
Tue Feb 2 01:13:53 2010	Indianapolis, IN (46201) 	34 1 	19 -7 	54	ESE	4	30	1022.4 30.20 	10	mostly cloudy	
Tue Feb 2 01:57:02 2010	Indianapolis, IN (46201) 	34 1 	19 -7 	54	ESE	4	30	1022.4 30.20 	10	mostly cloudy	
Tue Feb 2 02:41:04 2010	Indianapolis, IN (46201) 	34 1 	20 -6 	56	E	3	31	1022.1 30.19 	10	cloudy	
Tue Feb 2 03:24:36 2010	Indianapolis, IN (46201) 	34 1 	19 -7 	54	E	3	31	1022.1 30.19 	10	cloudy	
Tue Feb 2 04:08:23 2010	Indianapolis, IN (46201) 	33 0 	19 -7 	56	E	4	29	1021.3 30.17 	10	cloudy	
Tue Feb 2 04:51:55 2010	Indianapolis, IN (46201) 	33 0 	19 -7 	56	E	4	29	1021.3 30.17 	10	cloudy	
Tue Feb 2 05:35:19 2010	Indianapolis, IN (46201) 	33 0 	20 -6 	58	E	5	28	1020.6 30.15 	10	cloudy	
Tue Feb 2 06:18:35 2010	Indianapolis, IN (46201) 	33 0 	20 -6 	58	E	5	28	1020.2 30.14 	10	cloudy	
Tue Feb 2 07:05:43 2010	Indianapolis, IN (46201) 	32 0 	21 -6 	63	ESE	5	26	1020.3 30.14 	10	cloudy	
Tue Feb 2 07:48:43 2010	Indianapolis, IN (46201) 	32 0 	21 -6 	63	ESE	5	26	1020.3 30.14 	10	cloudy	
Tue Feb 2 08:31:56 2010	Indianapolis, IN (46201) 	33 0 	21 -6 	61	SSE	6	27	1020.0 30.13 	10	cloudy	
Tue Feb 2 09:15:24 2010	Indianapolis, IN (46201) 	33 0 	20 -6 	58	SE	4	29	1019.5 30.11 	10	cloudy	
Tue Feb 2 09:58:57 2010	Indianapolis, IN (46201) 	33 0 	20 -6 	58	SE	4	29	1019.5 30.11 	10	cloudy	
Tue Feb 2 10:42:30 2010	Indianapolis, IN (46201) 	32 0 	23 -5 	69	ESE	5	26	1018.8 30.09 	7	cloudy	light snow 
Tue Feb 2 11:26:37 2010	Indianapolis, IN (46201) 	32 0 	25 -3 	75	calm		32	1018.4 30.08 	10	cloudy	
Tue Feb 2 12:10:37 2010	Indianapolis, IN (46201) 	32 0 	25 -3 	75		3	29	1017.9 30.07 	10	cloudy	
Tue Feb 2 12:54:32 2010	Indianapolis, IN (46201) 	32 0 	25 -3 	75		3	29	1017.9 30.07 	10	cloudy	
Tue Feb 2 13:37:50 2010	Indianapolis, IN (46201) 	32 0 	25 -3 	75	E	6	26	1018.1 30.07 	9	cloudy	
Tue Feb 2 14:21:32 2010	Indianapolis, IN (46201) 	31 0 	24 -4 	76	E	3	27	1018.1 30.07 	10	mostly cloudy	
Tue Feb 2 15:05:53 2010	Indianapolis, IN (46201) 	32 0 	24 -4 	72	E	5	26	1018.1 30.07 	10	mostly cloudy	
Tue Feb 2 15:52:18 2010	Indianapolis, IN (46201) 	32 0 	24 -4 	72	E	5	26	1018.1 30.07 	10	mostly cloudy	
Tue Feb 2 16:44:49 2010	Indianapolis, IN (46201) 	34 1 	23 -5 	64	SE	5	29	1018.0 30.07 	10	mostly cloudy	
Tue Feb 2 17:33:15 2010	Indianapolis, IN (46201) 	36 2 	21 -6 	54	SSE	5	31	1017.3 30.05 	10	mostly cloudy	
Tue Feb 2 18:17:52 2010	Indianapolis, IN (46201) 	37 2 	22 -5 	54	SSW	4	33	1016.7 30.03 	10	cloudy	
Tue Feb 2 19:02:03 2010	Indianapolis, IN (46201) 	38 3 	22 -5 	52	SSW	6	33	1015.7 30.00 	10	cloudy	
Tue Feb 2 19:51:21 2010	Indianapolis, IN (46201) 	38 3 	22 -5 	52	SSW	6	33	1015.7 30.00 	10	cloudy	
Tue Feb 2 20:42:36 2010	Indianapolis, IN (46201) 	37 2 	23 -5 	57	WSW	8	30	1015.4 29.99 	10	cloudy	
Tue Feb 2 21:29:27 2010	Indianapolis, IN (46201) 	37 2 	24 -4 	59	WSW	6	32	1015.3 29.99 	10	cloudy	
Tue Feb 2 22:17:50 2010	Indianapolis, IN (46201) 	38 3 	25 -3 	59	WSW	10	30	1015.5 30.00 	10	cloudy	
Tue Feb 2 23:02:07 2010	Indianapolis, IN (46201) 	37 2 	25 -3 	61	W	8	30	1016.0 30.01 	10	cloudy	
Tue Feb 2 23:47:07 2010	Indianapolis, IN (46201) 	37 2 	25 -3 	61	W	8	30	1016.0 30.01 	10	cloudy	
Wed Feb 3 00:31:51 2010	Indianapolis, IN (46201) 	35 1 	26 -3 	69	W	8	28	1016.8 30.03 	10	cloudy	
Wed Feb 3 01:19:02 2010	Indianapolis, IN (46201) 	34 1 	27 -2 	75	W	11	25	1017.3 30.05 	10	cloudy	
Wed Feb 3 02:03:49 2010	Indianapolis, IN (46201) 	34 1 	28 -2 	78	W	10	26	1017.9 30.07 	10	cloudy	
Wed Feb 3 02:52:33 2010	Indianapolis, IN (46201) 	34 1 	28 -2 	78	W	10	26	1017.9 30.07 	10	cloudy	
Wed Feb 3 03:39:22 2010	Indianapolis, IN (46201) 	33 0 	28 -2 	81	W	9	25	1018.5 30.09 	8	cloudy	light snow 
Wed Feb 3 04:27:31 2010	Indianapolis, IN (46201) 	33 0 	28 -2 	81	W	9	25	1018.7 30.09 	10	cloudy	
Wed Feb 3 05:14:19 2010	Indianapolis, IN (46201) 	33 0 	27 -2 	78	W	10	24	1019.2 30.11 	10	cloudy	
Wed Feb 3 06:02:08 2010	Indianapolis, IN (46201) 	32 0 	27 -2 	82	W	8	24	1019.8 30.12 	10	cloudy	
Wed Feb 3 06:48:52 2010	Indianapolis, IN (46201) 	32 0 	27 -2 	82	W	8	24	1019.8 30.12 	10	cloudy	
Wed Feb 3 07:33:29 2010	Indianapolis, IN (46201) 	32 0 	27 -2 	82	W	7	25	1019.6 30.12 	10	cloudy	
Wed Feb 3 08:16:39 2010	Indianapolis, IN (46201) 	32 0 	27 -2 	82	W	6	26	1020.0 30.13 	9	cloudy	
Wed Feb 3 09:03:07 2010	Indianapolis, IN (46201) 	32 0 	28 -2 	85	W	6	26	1020.9 30.16 	5	cloudy	light rain 
Wed Feb 3 09:46:27 2010	Indianapolis, IN (46201) 	32 0 	28 -2 	85	W	6	26	1020.9 30.16 	5	cloudy	light rain 
Wed Feb 3 10:30:19 2010	Indianapolis, IN (46201) 	29 -1 	26 -3 	89	WNW	6	22	1021.5 30.17 	4	cloudy	light snow 
Wed Feb 3 11:17:12 2010	Indianapolis, IN (46201) 	29 -1 	22 -5 	75	WNW	11	19	1021.8 30.18 	7	cloudy	
Wed Feb 3 12:01:57 2010	Indianapolis, IN (46201) 	25 -3 	18 -7 	74	W	6	17	1022.0 30.19 	8	mostly clear	
Wed Feb 3 12:45:09 2010	Indianapolis, IN (46201) 	25 -3 	18 -7 	74	W	6	17	1022.0 30.19 	8	mostly clear	
Wed Feb 3 13:28:54 2010	Indianapolis, IN (46201) 	25 -3 	20 -6 	81	WNW	9	15	1023.1 30.22 	7	cloudy	
Wed Feb 3 14:15:00 2010	Indianapolis, IN (46201) 	24 -4 	18 -7 	77	WNW	6	16	1023.3 30.23 	4	cloudy	haze 
Wed Feb 3 15:00:59 2010	Indianapolis, IN (46201) 	23 -5 	18 -7 	81	NW	6	15	1025.2 30.28 	2	cloudy	haze 
Wed Feb 3 15:45:48 2010	Indianapolis, IN (46201) 	23 -5 	18 -7 	81	NW	6	15	1025.2 30.28 	2	cloudy	haze 
Wed Feb 3 16:31:40 2010	Indianapolis, IN (46201) 	24 -4 	19 -7 	81	NW	7	15	1025.6 30.29 	2	cloudy	haze 
Wed Feb 3 17:18:52 2010	Indianapolis, IN (46201) 	25 -3 	19 -7 	78	WNW	5	18	1025.6 30.29 	3	cloudy	light snow 
Wed Feb 3 18:07:10 2010	Indianapolis, IN (46201) 	26 -3 	20 -6 	77	WNW	5	19	1026.4 30.32 	4	cloudy	haze 
Wed Feb 3 18:50:17 2010	Indianapolis, IN (46201) 	26 -3 	20 -6 	77	WNW	5	19	1026.4 30.32 	4	cloudy	haze 
Wed Feb 3 19:34:33 2010	Indianapolis, IN (46201) 	28 -2 	21 -6 	75	NW	4	23	1026.6 30.32 	5	cloudy	haze 
Wed Feb 3 20:18:38 2010	Indianapolis, IN (46201) 	28 -2 	21 -6 	75	NW	5	22	1026.3 30.32 	6	cloudy	haze 
Wed Feb 3 21:02:55 2010	Indianapolis, IN (46201) 	28 -2 	21 -6 	75	NW	4	23	1025.7 30.30 	6	cloudy	haze 
Wed Feb 3 21:51:03 2010	Indianapolis, IN (46201) 	28 -2 	21 -6 	75	NW	4	23	1025.7 30.30 	6	cloudy	haze 
Wed Feb 3 22:36:35 2010	Indianapolis, IN (46201) 	29 -1 	21 -6 	72	NNE	4	24	1025.9 30.30 	8	cloudy	
Wed Feb 3 23:27:29 2010	Indianapolis, IN (46201) 	29 -1 	21 -6 	72	N	3	25	1026.7 30.33 	8	cloudy	
Fri Jan 29 08:41:34 2010	Jacksonville, FL (32099) 	49 9 	41 5 	74	calm		49	1021.5 30.17 	10	partly cloudy	
Fri Jan 29 09:25:29 2010	Jacksonville, FL (32099) 	49 9 	42 5 	77	N	4	47	1021.4 30.17 	10	partly cloudy	
Fri Jan 29 11:57:31 2010	Jacksonville, FL (32099) 	49 9 	43 6 	80	NW	3	48	1021.7 30.18 	10	mostly cloudy	
Fri Jan 29 12:42:13 2010	Jacksonville, FL (32099) 	49 9 	42 5 	77	calm		49	1021.5 30.17 	10	cloudy	
Fri Jan 29 13:29:56 2010	Jacksonville, FL (32099) 	50 10 	46 7 	86	calm			1021.4 30.17 	10	cloudy	
Fri Jan 29 14:17:49 2010	Jacksonville, FL (32099) 	52 11 	46 7 	80	NNE	3		1021.3 30.17 	9	cloudy	
Fri Jan 29 15:02:35 2010	Jacksonville, FL (32099) 	54 12 	47 8 	77	N	4		1022.0 30.19 	9	cloudy	
Fri Jan 29 15:48:08 2010	Jacksonville, FL (32099) 	54 12 	47 8 	77	N	4		1022.0 30.19 	9	cloudy	
Fri Jan 29 16:35:52 2010	Jacksonville, FL (32099) 	55 12 	44 6 	67	SE	4		1022.2 30.19 	9	cloudy	
Fri Jan 29 17:20:19 2010	Jacksonville, FL (32099) 	59 15 	40 4 	49	ESE	5		1021.8 30.18 	10	cloudy	
Fri Jan 29 18:08:48 2010	Jacksonville, FL (32099) 	63 17 	38 3 	39	E	7		1020.5 30.14 	10	cloudy	
Fri Jan 29 18:53:49 2010	Jacksonville, FL (32099) 	63 17 	38 3 	39	E	7		1020.5 30.14 	10	cloudy	
Fri Jan 29 19:45:48 2010	Jacksonville, FL (32099) 	65 18 	40 4 	40	E	5		1019.5 30.11 	10	mostly cloudy	
Fri Jan 29 20:43:36 2010	Jacksonville, FL (32099) 	67 19 	42 5 	40	ESE	6		1018.6 30.09 	10	mostly cloudy	
Fri Jan 29 21:28:14 2010	Jacksonville, FL (32099) 	68 20 	45 7 	43	NE	5		1018.1 30.07 	10	cloudy	
Fri Jan 29 22:14:50 2010	Jacksonville, FL (32099) 	66 18 	46 7 	48	E	10		1017.5 30.06 	10	cloudy	
Fri Jan 29 22:59:45 2010	Jacksonville, FL (32099) 	66 18 	46 7 	48	E	10		1017.5 30.06 	10	cloudy	
Fri Jan 29 23:44:02 2010	Jacksonville, FL (32099) 	63 17 	46 7 	54	E	9		1017.4 30.05 	10	cloudy	
Mon Feb 1 00:11:01 2010	Jacksonville, FL (32099) 	44 6 	35 1 	70	NE	12	37	1023.8 30.24 	10	mostly cloudy	
Mon Feb 1 00:53:59 2010	Jacksonville, FL (32099) 	44 6 	35 1 	70	NE	12	37	1023.8 30.24 	10	mostly cloudy	
Mon Feb 1 01:40:19 2010	Jacksonville, FL (32099) 	45 7 	36 2 	70	NE	11	39	1023.6 30.24 	10	cloudy	
Mon Feb 1 02:24:15 2010	Jacksonville, FL (32099) 	45 7 	37 2 	73	NNE	11	39	1023.6 30.24 	10	cloudy	
Mon Feb 1 03:07:56 2010	Jacksonville, FL (32099) 	46 7 	38 3 	73	NNE	11	40	1023.5 30.23 	10	mostly cloudy	
Mon Feb 1 03:52:36 2010	Jacksonville, FL (32099) 	46 7 	38 3 	73	NNE	11	40	1023.5 30.23 	10	mostly cloudy	
Mon Feb 1 04:37:24 2010	Jacksonville, FL (32099) 	47 8 	39 3 	74	NNE	11	41	1023.2 30.22 	10	mostly cloudy	
Mon Feb 1 05:20:34 2010	Jacksonville, FL (32099) 	47 8 	40 4 	76	N	9	42	1023.3 30.23 	10	mostly cloudy	
Mon Feb 1 06:05:26 2010	Jacksonville, FL (32099) 	47 8 	40 4 	76	NNE	10	42	1023.1 30.22 	10	mostly cloudy	
Mon Feb 1 06:48:37 2010	Jacksonville, FL (32099) 	47 8 	40 4 	76	NNE	10	42	1023.1 30.22 	10	mostly cloudy	
Mon Feb 1 07:32:25 2010	Jacksonville, FL (32099) 	48 8 	41 5 	77	NNE	10	43	1023.2 30.22 	10	mostly cloudy	
Mon Feb 1 08:15:31 2010	Jacksonville, FL (32099) 	47 8 	42 5 	83	N	8	43	1023.5 30.23 	10	mostly cloudy	
Mon Feb 1 08:59:17 2010	Jacksonville, FL (32099) 	47 8 	42 5 	83	N	8	43	1023.5 30.23 	10	mostly cloudy	
Mon Feb 1 09:42:16 2010	Jacksonville, FL (32099) 	49 9 	42 5 	77	NNE	13	43	1023.1 30.22 	10	mostly cloudy	
Mon Feb 1 10:25:49 2010	Jacksonville, FL (32099) 	49 9 	42 5 	77	NE	9	45	1022.6 30.21 	10	mostly cloudy	
Mon Feb 1 11:08:46 2010	Jacksonville, FL (32099) 	49 9 	43 6 	80	NE	12	44	1022.7 30.21 	10	mostly cloudy	
Mon Feb 1 11:52:12 2010	Jacksonville, FL (32099) 	49 9 	43 6 	80	NE	12	44	1022.7 30.21 	10	mostly cloudy	
Mon Feb 1 12:35:33 2010	Jacksonville, FL (32099) 	50 10 	44 6 	80	NNE	10	46	1022.9 30.22 	10	mostly cloudy	
Mon Feb 1 13:19:07 2010	Jacksonville, FL (32099) 	51 10 	46 7 	83	NE	10	47	1023.0 30.22 	10	mostly cloudy	
Mon Feb 1 14:02:59 2010	Jacksonville, FL (32099) 	52 11 	47 8 	83	NE	12	47	1023.2 30.22 	10	cloudy	
Mon Feb 1 14:48:05 2010	Jacksonville, FL (32099) 	52 11 	47 8 	83	NE	12	47	1023.2 30.22 	10	cloudy	
Mon Feb 1 15:31:49 2010	Jacksonville, FL (32099) 	53 11 	47 8 	79	NE	10	49	1023.6 30.24 	10	cloudy	
Mon Feb 1 16:16:17 2010	Jacksonville, FL (32099) 	56 13 	48 8 	75	NE	11		1023.7 30.24 	10	cloudy	
Mon Feb 1 17:01:15 2010	Jacksonville, FL (32099) 	57 13 	48 8 	72	NE	10		1023.5 30.23 	10	cloudy	
Mon Feb 1 17:45:07 2010	Jacksonville, FL (32099) 	56 13 	48 8 	75	NE	11		1023.7 30.24 	10	cloudy	
Mon Feb 1 18:28:36 2010	Jacksonville, FL (32099) 	58 14 	49 9 	72	NE	10		1022.9 30.22 	10	cloudy	
Mon Feb 1 19:12:22 2010	Jacksonville, FL (32099) 	59 15 	50 10 	72	NE	12		1022.0 30.19 	10	cloudy	
Mon Feb 1 19:57:14 2010	Jacksonville, FL (32099) 	59 15 	50 10 	72	NE	12		1022.0 30.19 	10	cloudy	
Mon Feb 1 20:43:39 2010	Jacksonville, FL (32099) 	59 15 	50 10 	72	NE	14		1021.1 30.16 	10	cloudy	
Mon Feb 1 21:28:34 2010	Jacksonville, FL (32099) 	59 15 	51 10 	75	NE	13		1020.3 30.14 	10	cloudy	
Mon Feb 1 22:11:58 2010	Jacksonville, FL (32099) 	58 14 	51 10 	78	NE	9		1020.0 30.13 	10	cloudy	
Mon Feb 1 22:55:17 2010	Jacksonville, FL (32099) 	58 14 	51 10 	78	NE	9		1020.0 30.13 	10	cloudy	
Mon Feb 1 23:41:26 2010	Jacksonville, FL (32099) 	57 13 	52 11 	83	NNE	9		1020.3 30.14 	10	cloudy	
Sat Jan 30 00:28:07 2010	Jacksonville, FL (32099) 	60 15 	45 7 	57	E	8		1017.3 30.05 	10	cloudy	
Sat Jan 30 01:12:17 2010	Jacksonville, FL (32099) 	59 15 	49 9 	69		4		1017.1 30.04 	10	cloudy	
Sat Jan 30 01:55:49 2010	Jacksonville, FL (32099) 	59 15 	49 9 	69		4		1017.1 30.04 	10	cloudy	
Sat Jan 30 02:40:30 2010	Jacksonville, FL (32099) 	57 13 	51 10 	81	NNE	7		1017.0 30.04 	10	cloudy	
Sat Jan 30 03:24:02 2010	Jacksonville, FL (32099) 	56 13 	51 10 	84	NE	6		1016.7 30.03 	10	cloudy	
Sat Jan 30 04:07:56 2010	Jacksonville, FL (32099) 	56 13 	51 10 	84	NNE	4		1016.5 30.03 	10	mostly cloudy	
Sat Jan 30 04:51:43 2010	Jacksonville, FL (32099) 	56 13 	51 10 	84	NNE	4		1016.5 30.03 	10	mostly cloudy	
Sat Jan 30 05:35:25 2010	Jacksonville, FL (32099) 	57 13 	52 11 	83	N	4		1016.5 30.03 	10	cloudy	
Sat Jan 30 06:19:33 2010	Jacksonville, FL (32099) 	58 14 	53 11 	84	NNE	5		1015.7 30.00 	10	cloudy	
Sat Jan 30 07:05:32 2010	Jacksonville, FL (32099) 	58 14 	53 11 	84	N	8		1015.3 29.99 	10	cloudy	
Sat Jan 30 07:48:14 2010	Jacksonville, FL (32099) 	58 14 	53 11 	84	N	8		1015.3 29.99 	10	cloudy	
Sat Jan 30 08:31:27 2010	Jacksonville, FL (32099) 	58 14 	53 11 	84	ENE	3		1014.7 29.97 	10	cloudy	
Sat Jan 30 11:13:13 2010	Jacksonville, FL (32099) 	58 14 	55 12 	90	calm			1011.8 29.89 	8	cloudy	
Sat Jan 30 12:01:01 2010	Jacksonville, FL (32099) 	60 15 	57 13 	89	S	8		1009.9 29.83 	10	cloudy	
Sat Jan 30 12:44:39 2010	Jacksonville, FL (32099) 	60 15 	57 13 	89	S	8		1009.9 29.83 	10	cloudy	
Sat Jan 30 13:27:55 2010	Jacksonville, FL (32099) 	61 16 	58 14 	90	S	9		1009.7 29.83 	10	cloudy	
Sat Jan 30 14:12:06 2010	Jacksonville, FL (32099) 	62 16 	58 14 	86	S	8		1009.5 29.82 	10	cloudy	
Sat Jan 30 14:56:09 2010	Jacksonville, FL (32099) 	62 16 	58 14 	86	S	8		1009.5 29.82 	10	cloudy	
Sat Jan 30 15:41:59 2010	Jacksonville, FL (32099) 	64 17 	58 14 	81	SSW	6		1010.3 29.84 	10	cloudy	
Sat Jan 30 16:26:59 2010	Jacksonville, FL (32099) 	63 17 	60 15 	90	S	9		1011.0 29.86 	5	cloudy	moderate rain 
Sat Jan 30 17:11:25 2010	Jacksonville, FL (32099) 	63 17 	61 16 	93	S	10		1010.0 29.83 	8	cloudy	light rain 
Sat Jan 30 17:54:37 2010	Jacksonville, FL (32099) 	63 17 	61 16 	93	S	10		1010.0 29.83 	8	cloudy	light rain 
Sat Jan 30 18:38:36 2010	Jacksonville, FL (32099) 	63 17 	62 16 	97	S	9		1009.3 29.81 	8	cloudy	
Sat Jan 30 19:21:55 2010	Jacksonville, FL (32099) 	66 18 	63 17 	90	S	11		1007.5 29.76 	9	cloudy	light rain 
Sat Jan 30 20:06:09 2010	Jacksonville, FL (32099) 	68 20 	64 17 	87	SSW	14		1007.0 29.75 	10	cloudy	
Sat Jan 30 20:49:16 2010	Jacksonville, FL (32099) 	68 20 	64 17 	87	SSW	14		1007.0 29.75 	10	cloudy	
Sat Jan 30 21:33:02 2010	Jacksonville, FL (32099) 	69 20 	65 18 	86	SSW	17		1006.3 29.72 	10	cloudy	
Sat Jan 30 22:16:16 2010	Jacksonville, FL (32099) 	70 21 	65 18 	84	SW	15		1006.5 29.73 	10	cloudy	
Sat Jan 30 23:01:57 2010	Jacksonville, FL (32099) 	69 20 	66 18 	90	SW	13		1007.0 29.75 	9	cloudy	
Sat Jan 30 23:46:35 2010	Jacksonville, FL (32099) 	69 20 	66 18 	90	SW	13		1007.0 29.75 	9	cloudy	
Sun Jan 31 00:30:32 2010	Jacksonville, FL (32099) 	69 20 	65 18 	86	SW	12		1007.2 29.75 	10	mostly cloudy	
Sun Jan 31 01:21:17 2010	Jacksonville, FL (32099) 	68 20 	61 16 	78	WSW	11		1007.9 29.77 	10	mostly cloudy	
Sun Jan 31 02:05:18 2010	Jacksonville, FL (32099) 	66 18 	59 15 	78	WSW	9		1008.6 29.79 	10	mostly cloudy	
Sun Jan 31 02:48:44 2010	Jacksonville, FL (32099) 	66 18 	59 15 	78	WSW	9		1008.6 29.79 	10	mostly cloudy	
Sun Jan 31 03:32:36 2010	Jacksonville, FL (32099) 	64 17 	57 13 	78	W	9		1009.5 29.82 	10	mostly cloudy	
Sun Jan 31 04:16:02 2010	Jacksonville, FL (32099) 	55 12 	52 11 	90	N	19		1011.2 29.87 	10	cloudy	
Sun Jan 31 05:00:39 2010	Jacksonville, FL (32099) 	52 11 	47 8 	83	NW	13	47	1013.0 29.92 	10	cloudy	
Sun Jan 31 05:46:42 2010	Jacksonville, FL (32099) 	52 11 	47 8 	83	NW	13	47	1013.0 29.92 	10	cloudy	
Sun Jan 31 06:31:53 2010	Jacksonville, FL (32099) 	51 10 	44 6 	77	NNW	13	46	1013.9 29.95 	10	cloudy	
Sun Jan 31 07:14:47 2010	Jacksonville, FL (32099) 	49 9 	41 5 	74	NNW	16	42	1014.5 29.97 	10	cloudy	
Sun Jan 31 08:01:30 2010	Jacksonville, FL (32099) 	48 8 	40 4 	73	NW	10	43	1014.9 29.98 	10	mostly cloudy	
Sun Jan 31 08:46:11 2010	Jacksonville, FL (32099) 	48 8 	40 4 	73	NW	10	43	1014.9 29.98 	10	mostly cloudy	
Sun Jan 31 09:29:25 2010	Jacksonville, FL (32099) 	47 8 	39 3 	74	NNW	10	42	1015.4 29.99 	10	cloudy	
Sun Jan 31 10:12:37 2010	Jacksonville, FL (32099) 	46 7 	38 3 	73	N	12	40	1016.0 30.01 	10	cloudy	
Sun Jan 31 10:56:22 2010	Jacksonville, FL (32099) 	46 7 	38 3 	73	N	12	40	1016.0 30.01 	10	cloudy	
Sun Jan 31 11:39:50 2010	Jacksonville, FL (32099) 	44 6 	36 2 	73	N	14	37	1017.0 30.04 	10	cloudy	
Sun Jan 31 12:23:30 2010	Jacksonville, FL (32099) 	44 6 	36 2 	73	N	14	37	1018.1 30.07 	10	cloudy	
Sun Jan 31 13:06:54 2010	Jacksonville, FL (32099) 	42 5 	34 1 	73	N	15	34	1019.5 30.11 	10	cloudy	
Sun Jan 31 13:50:31 2010	Jacksonville, FL (32099) 	42 5 	34 1 	73	N	15	34	1019.5 30.11 	10	cloudy	
Sun Jan 31 14:33:21 2010	Jacksonville, FL (32099) 	41 5 	33 0 	73	N	15	32	1020.7 30.15 	10	mostly cloudy	
Sun Jan 31 15:17:26 2010	Jacksonville, FL (32099) 	42 5 	33 0 	70	N	14	34	1021.6 30.18 	10	mostly cloudy	
Sun Jan 31 16:00:57 2010	Jacksonville, FL (32099) 	42 5 	32 0 	67	NNE	12	35	1022.2 30.19 	10	mostly cloudy	
Sun Jan 31 16:50:44 2010	Jacksonville, FL (32099) 	42 5 	32 0 	67	NNE	12	35	1022.2 30.19 	10	mostly cloudy	
Sun Jan 31 17:34:22 2010	Jacksonville, FL (32099) 	43 6 	33 0 	68	NNE	10	37	1023.1 30.22 	10	mostly cloudy	
Sun Jan 31 18:19:22 2010	Jacksonville, FL (32099) 	45 7 	33 0 	63	NE	11	39	1023.3 30.23 	10	mostly cloudy	
Sun Jan 31 19:03:09 2010	Jacksonville, FL (32099) 	45 7 	34 1 	65	NNE	16	37	1022.8 30.21 	10	mostly cloudy	
Sun Jan 31 19:48:31 2010	Jacksonville, FL (32099) 	45 7 	34 1 	65	NNE	16	37	1022.8 30.21 	10	mostly cloudy	
Sun Jan 31 20:31:29 2010	Jacksonville, FL (32099) 	44 6 	34 1 	67	NNE	14	37	1022.9 30.22 	10	mostly cloudy	
Sun Jan 31 21:15:43 2010	Jacksonville, FL (32099) 	45 7 	33 0 	63	NE	14	38	1022.4 30.20 	10	mostly cloudy	
Sun Jan 31 21:58:57 2010	Jacksonville, FL (32099) 	45 7 	33 0 	63	NE	14	38	1022.4 30.20 	10	mostly cloudy	
Sun Jan 31 22:43:45 2010	Jacksonville, FL (32099) 	45 7 	34 1 	65	NE	10	39	1022.9 30.22 	10	mostly cloudy	
Sun Jan 31 23:27:05 2010	Jacksonville, FL (32099) 	44 6 	35 1 	70	NE	13	37	1023.1 30.22 	10	mostly cloudy	
Thu Feb 4 00:12:26 2010	Jacksonville, FL (32099) 	53 11 	43 6 	68		9		1021.1 30.16 	10	mostly cloudy	
Thu Feb 4 00:56:30 2010	Jacksonville, FL (32099) 	53 11 	43 6 	68		9		1021.1 30.16 	10	mostly cloudy	
Thu Feb 4 01:39:46 2010	Jacksonville, FL (32099) 	51 10 	44 6 	77	NE	5	49	1021.0 30.16 	10	mostly cloudy	
Thu Feb 4 02:27:30 2010	Jacksonville, FL (32099) 	51 10 	45 7 	80	NNE	6	49	1021.4 30.17 	10	partly cloudy	
Thu Feb 4 03:10:41 2010	Jacksonville, FL (32099) 	51 10 	45 7 	80	N	7	48	1022.4 30.20 	10	partly cloudy	
Thu Feb 4 03:55:09 2010	Jacksonville, FL (32099) 	51 10 	45 7 	80	N	7	48	1022.4 30.20 	10	partly cloudy	
Thu Feb 4 04:38:25 2010	Jacksonville, FL (32099) 	50 10 	44 6 	80	N	11	45	1022.2 30.19 	10	mostly cloudy	
Thu Feb 4 05:21:46 2010	Jacksonville, FL (32099) 	50 10 	44 6 	80	N	10	46	1022.9 30.22 	10	mostly cloudy	
Thu Feb 4 06:04:37 2010	Jacksonville, FL (32099) 	48 8 	44 6 	86	NNE	7	44	1022.0 30.19 	10	partly cloudy	
Thu Feb 4 06:47:41 2010	Jacksonville, FL (32099) 	48 8 	44 6 	86	NNE	7	44	1022.0 30.19 	10	partly cloudy	
Thu Feb 4 07:31:16 2010	Jacksonville, FL (32099) 	48 8 	45 7 	89	NNE	8	44	1021.5 30.17 	10	partly cloudy	
Thu Feb 4 08:13:49 2010	Jacksonville, FL (32099) 	49 9 	46 7 	90	NNE	6	46	1021.0 30.16 	10	mostly cloudy	
Thu Feb 4 08:57:32 2010	Jacksonville, FL (32099) 	49 9 	46 7 	90	NNE	6	46	1021.0 30.16 	10	mostly cloudy	
Thu Feb 4 09:41:26 2010	Jacksonville, FL (32099) 	50 10 	47 8 	89	NNE	5	48	1020.7 30.15 	10	cloudy	
Thu Feb 4 10:25:06 2010	Jacksonville, FL (32099) 	52 11 	48 8 	86	NNE	7	49	1021.0 30.16 	10	cloudy	
Thu Feb 4 11:11:01 2010	Jacksonville, FL (32099) 	54 12 	49 9 	83	NE	14		1020.9 30.16 	10	cloudy	
Thu Feb 4 11:54:33 2010	Jacksonville, FL (32099) 	54 12 	49 9 	83	NE	14		1020.9 30.16 	10	cloudy	
Thu Feb 4 12:37:39 2010	Jacksonville, FL (32099) 	55 12 	49 9 	80	NE	11		1021.6 30.18 	10	cloudy	
Thu Feb 4 13:21:44 2010	Jacksonville, FL (32099) 	56 13 	49 9 	77	NE	9		1021.9 30.19 	10	mostly cloudy	
Thu Feb 4 14:06:33 2010	Jacksonville, FL (32099) 	56 13 	50 10 	81	NNE	9		1022.7 30.21 	10	mostly cloudy	
Thu Feb 4 14:59:20 2010	Jacksonville, FL (32099) 	56 13 	50 10 	81	NNE	9		1022.7 30.21 	10	mostly cloudy	
Thu Jan 28 15:38:59 2010	Jacksonville, FL (32099) 	47 8 	41 5 	80	N	3	46	1027.3 30.35 	9	mostly clear	
Thu Jan 28 15:59:47 2010	Jacksonville, FL (32099) 	47 8 	41 5 	80	N	3	46	1027.3 30.35 	9	mostly clear	
Thu Jan 28 16:49:07 2010	Jacksonville, FL (32099) 	51 10 	42 5 	71	NNE	3		1027.4 30.35 	10	partly cloudy	
Thu Jan 28 17:13:22 2010	Jacksonville, FL (32099) 	55 12 	38 3 	52	calm			1027.1 30.34 	10	partly cloudy	
Thu Jan 28 17:29:21 2010	Jacksonville, FL (32099) 	55 12 	38 3 	52	calm			1027.1 30.34 	10	partly cloudy	
Tue Feb 2 00:28:18 2010	Jacksonville, FL (32099) 	57 13 	52 11 	83	NNE	9		1020.2 30.14 	10	cloudy	
Tue Feb 2 01:13:54 2010	Jacksonville, FL (32099) 	57 13 	52 11 	83	NNE	9		1020.0 30.13 	10	cloudy	
Tue Feb 2 01:57:02 2010	Jacksonville, FL (32099) 	57 13 	52 11 	83	NNE	9		1020.0 30.13 	10	cloudy	
Tue Feb 2 02:41:05 2010	Jacksonville, FL (32099) 	57 13 	53 11 	87	NNE	4		1020.0 30.13 	10	cloudy	
Tue Feb 2 03:24:37 2010	Jacksonville, FL (32099) 	57 13 	53 11 	87	NNE	6		1019.5 30.11 	10	cloudy	
Tue Feb 2 04:08:24 2010	Jacksonville, FL (32099) 	57 13 	54 12 	90	NNE	7		1019.1 30.10 	7	cloudy	light rain 
Tue Feb 2 04:51:56 2010	Jacksonville, FL (32099) 	57 13 	54 12 	90	NNE	7		1019.1 30.10 	7	cloudy	light rain 
Tue Feb 2 05:35:20 2010	Jacksonville, FL (32099) 	56 13 	54 12 	93	NNE	6		1018.1 30.07 	6	cloudy	light rain 
Tue Feb 2 06:18:36 2010	Jacksonville, FL (32099) 	57 13 	56 13 	96	N	4		1017.6 30.06 	2	cloudy	moderate rain 
Tue Feb 2 07:05:44 2010	Jacksonville, FL (32099) 	57 13 	57 13 	100	NE	6		1016.0 30.01 	4	cloudy	light rain 
Tue Feb 2 07:48:44 2010	Jacksonville, FL (32099) 	57 13 	57 13 	100	NE	6		1016.0 30.01 	4	cloudy	light rain 
Tue Feb 2 08:31:57 2010	Jacksonville, FL (32099) 	58 14 	58 14 	100	N	5		1015.7 30.00 	6	cloudy	light rain 
Tue Feb 2 09:15:25 2010	Jacksonville, FL (32099) 	61 16 	60 15 	97	E	4		1014.6 29.97 	6	cloudy	light rain 
Tue Feb 2 09:58:58 2010	Jacksonville, FL (32099) 	61 16 	60 15 	97	E	4		1014.6 29.97 	6	cloudy	light rain 
Tue Feb 2 10:42:31 2010	Jacksonville, FL (32099) 	61 16 	60 15 	97	E	4		1013.8 29.95 	6	cloudy	light rain 
Tue Feb 2 11:26:37 2010	Jacksonville, FL (32099) 	61 16 	60 15 	97	calm			1013.5 29.94 	3	cloudy	light rain 
Tue Feb 2 12:10:38 2010	Jacksonville, FL (32099) 	61 16 	60 15 	97	W	3		1013.4 29.93 	2	cloudy	moderate rain 
Tue Feb 2 12:54:33 2010	Jacksonville, FL (32099) 	61 16 	60 15 	97	W	3		1013.4 29.93 	2	cloudy	moderate rain 
Tue Feb 2 13:37:51 2010	Jacksonville, FL (32099) 	59 15 	58 14 	96	NW	5		1013.9 29.95 	6	cloudy	light rain 
Tue Feb 2 14:21:33 2010	Jacksonville, FL (32099) 	58 14 	57 13 	97	WNW	6		1014.1 29.96 	7	cloudy	
Tue Feb 2 15:05:54 2010	Jacksonville, FL (32099) 	58 14 	57 13 	97	calm			1014.2 29.96 	7	cloudy	
Tue Feb 2 15:52:19 2010	Jacksonville, FL (32099) 	58 14 	57 13 	97	calm			1014.2 29.96 	7	cloudy	
Tue Feb 2 16:44:49 2010	Jacksonville, FL (32099) 	59 15 	58 14 	96	W	3		1014.6 29.97 	4	cloudy	moderate rain 
Tue Feb 2 17:33:16 2010	Jacksonville, FL (32099) 	59 15 	58 14 	96	WNW	4		1014.5 29.97 	5	cloudy	light rain 
Tue Feb 2 18:17:53 2010	Jacksonville, FL (32099) 	60 15 	58 14 	92	W	9		1014.2 29.96 	7	cloudy	
Tue Feb 2 19:02:04 2010	Jacksonville, FL (32099) 	60 15 	57 13 	89	W	9		1013.4 29.93 	10	cloudy	
Tue Feb 2 19:51:22 2010	Jacksonville, FL (32099) 	60 15 	57 13 	89	W	9		1013.4 29.93 	10	cloudy	
Tue Feb 2 20:42:37 2010	Jacksonville, FL (32099) 	60 15 	56 13 	86	WNW	9		1012.9 29.92 	10	cloudy	
Tue Feb 2 21:29:28 2010	Jacksonville, FL (32099) 	61 16 	55 12 	81	NW	11		1012.7 29.91 	10	cloudy	
Tue Feb 2 22:17:50 2010	Jacksonville, FL (32099) 	60 15 	54 12 	80	NW	10		1013.1 29.93 	10	cloudy	
Tue Feb 2 23:02:08 2010	Jacksonville, FL (32099) 	59 15 	53 11 	81	NW	7		1013.7 29.94 	10	cloudy	
Tue Feb 2 23:47:08 2010	Jacksonville, FL (32099) 	59 15 	53 11 	81	NW	7		1013.7 29.94 	10	cloudy	
Wed Feb 3 00:31:52 2010	Jacksonville, FL (32099) 	58 14 	52 11 	81	NW	12		1014.7 29.97 	10	cloudy	
Wed Feb 3 01:19:02 2010	Jacksonville, FL (32099) 	57 13 	51 10 	81	NW	8		1015.5 30.00 	10	cloudy	
Wed Feb 3 02:03:50 2010	Jacksonville, FL (32099) 	57 13 	51 10 	81	NNW	10		1015.6 30.00 	10	cloudy	
Wed Feb 3 02:52:33 2010	Jacksonville, FL (32099) 	57 13 	51 10 	81	NNW	10		1015.6 30.00 	10	cloudy	
Wed Feb 3 03:39:22 2010	Jacksonville, FL (32099) 	56 13 	49 9 	77	NNW	12		1016.3 30.02 	10	cloudy	
Wed Feb 3 04:27:32 2010	Jacksonville, FL (32099) 	55 12 	48 8 	77	NW	9		1016.7 30.03 	10	cloudy	
Wed Feb 3 05:14:20 2010	Jacksonville, FL (32099) 	54 12 	48 8 	80	NNW	9		1017.6 30.06 	10	cloudy	
Wed Feb 3 06:02:09 2010	Jacksonville, FL (32099) 	52 11 	45 7 	77	WNW	8	49	1017.8 30.06 	10	cloudy	
Wed Feb 3 06:48:53 2010	Jacksonville, FL (32099) 	52 11 	45 7 	77	WNW	8	49	1017.8 30.06 	10	cloudy	
Wed Feb 3 07:33:30 2010	Jacksonville, FL (32099) 	51 10 	44 6 	77	NNW	14	46	1018.1 30.07 	10	cloudy	
Wed Feb 3 08:16:40 2010	Jacksonville, FL (32099) 	51 10 	43 6 	74	NNW	13	46	1018.6 30.09 	10	cloudy	
Wed Feb 3 09:03:08 2010	Jacksonville, FL (32099) 	51 10 	43 6 	74	NNW	11	47	1018.1 30.07 	10	cloudy	
Wed Feb 3 09:46:27 2010	Jacksonville, FL (32099) 	51 10 	43 6 	74	NNW	11	47	1018.1 30.07 	10	cloudy	
Wed Feb 3 10:30:20 2010	Jacksonville, FL (32099) 	50 10 	43 6 	77	NNW	15	44	1018.6 30.09 	10	cloudy	
Wed Feb 3 11:17:13 2010	Jacksonville, FL (32099) 	49 9 	42 5 	77	NW	5	47	1018.5 30.09 	10	mostly cloudy	
Wed Feb 3 12:01:58 2010	Jacksonville, FL (32099) 	47 8 	42 5 	83	W	3	46	1019.2 30.11 	10	mostly cloudy	
Wed Feb 3 12:45:10 2010	Jacksonville, FL (32099) 	47 8 	42 5 	83	W	3	46	1019.2 30.11 	10	mostly cloudy	
Wed Feb 3 13:28:54 2010	Jacksonville, FL (32099) 	48 8 	41 5 	77	NNW	8	44	1019.6 30.12 	10	mostly cloudy	
Wed Feb 3 14:15:01 2010	Jacksonville, FL (32099) 	47 8 	41 5 	80	NNW	8	43	1020.3 30.14 	10	mostly cloudy	
Wed Feb 3 15:01:00 2010	Jacksonville, FL (32099) 	48 8 	41 5 	77	N	13	42	1020.3 30.14 	10	mostly clear	
Wed Feb 3 15:45:49 2010	Jacksonville, FL (32099) 	48 8 	41 5 	77	N	13	42	1020.3 30.14 	10	mostly clear	
Wed Feb 3 16:31:41 2010	Jacksonville, FL (32099) 	50 10 	41 5 	71	N	8	46	1021.3 30.17 	10	mostly clear	
Wed Feb 3 17:18:54 2010	Jacksonville, FL (32099) 	52 11 	41 5 	66	NNE	9	48	1021.7 30.18 	10	mostly clear	
Wed Feb 3 18:07:12 2010	Jacksonville, FL (32099) 	54 12 	42 5 	64	NNE	6		1021.0 30.16 	10	mostly clear	
Wed Feb 3 18:50:18 2010	Jacksonville, FL (32099) 	54 12 	42 5 	64	NNE	6		1021.0 30.16 	10	mostly clear	
Wed Feb 3 19:34:34 2010	Jacksonville, FL (32099) 	53 11 	43 6 	68	ENE	10	49	1020.9 30.16 	10	mostly clear	
Wed Feb 3 20:18:39 2010	Jacksonville, FL (32099) 	53 11 	43 6 	68	NNE	9		1020.6 30.15 	10	mostly cloudy	
Wed Feb 3 21:02:56 2010	Jacksonville, FL (32099) 	53 11 	44 6 	71	NE	12	49	1020.1 30.13 	10	cloudy	
Wed Feb 3 21:51:03 2010	Jacksonville, FL (32099) 	53 11 	44 6 	71	NE	12	49	1020.1 30.13 	10	cloudy	
Wed Feb 3 22:36:36 2010	Jacksonville, FL (32099) 	52 11 	43 6 	71	NE	8	49	1020.4 30.14 	10	cloudy	
Wed Feb 3 23:27:30 2010	Jacksonville, FL (32099) 	54 12 	43 6 	66		5		1020.4 30.14 	10	mostly cloudy	
Fri Jan 29 08:41:28 2010	Las Vegas, NV (89101) 	46 7 	32 0 	58	N	6	42	1018.4 30.08 	10	clear	
Fri Jan 29 09:25:23 2010	Las Vegas, NV (89101) 	46 7 	32 0 	58	SSE	5	43	1018.2 30.08 	10	clear	
Fri Jan 29 11:57:25 2010	Las Vegas, NV (89101) 	44 6 	31 0 	59	NNW	9	39	1018.1 30.07 	10	clear	
Fri Jan 29 12:42:07 2010	Las Vegas, NV (89101) 	42 5 	32 0 	67	NW	6	38	1018.1 30.07 	10	clear	
Fri Jan 29 13:29:50 2010	Las Vegas, NV (89101) 	42 5 	31 0 	64	W	3	40	1018.1 30.07 	10	clear	
Fri Jan 29 14:17:43 2010	Las Vegas, NV (89101) 	43 6 	30 -1 	60	NW	7	38	1018.1 30.07 	10	clear	
Fri Jan 29 15:02:28 2010	Las Vegas, NV (89101) 	41 5 	32 0 	70	WNW	3	39	1018.4 30.08 	10	clear	
Fri Jan 29 15:48:01 2010	Las Vegas, NV (89101) 	41 5 	32 0 	70	WNW	3	39	1018.4 30.08 	10	clear	
Fri Jan 29 16:35:41 2010	Las Vegas, NV (89101) 	42 5 	31 0 	64	calm		42	1018.6 30.09 	10	clear	
Fri Jan 29 17:20:11 2010	Las Vegas, NV (89101) 	41 5 	32 0 	70	NW	3	39	1018.9 30.10 	10	clear	
Fri Jan 29 18:08:43 2010	Las Vegas, NV (89101) 	44 6 	32 0 	62	calm		44	1019.4 30.11 	10	clear	
Fri Jan 29 18:53:42 2010	Las Vegas, NV (89101) 	44 6 	32 0 	62	calm		44	1019.4 30.11 	10	clear	
Fri Jan 29 19:45:42 2010	Las Vegas, NV (89101) 	48 8 	30 -1 	49	calm		48	1019.5 30.11 	10	clear	
Fri Jan 29 20:43:30 2010	Las Vegas, NV (89101) 	50 10 	30 -1 	46	calm			1019.1 30.10 	10	clear	
Fri Jan 29 21:28:08 2010	Las Vegas, NV (89101) 	52 11 	30 -1 	43	calm			1018.1 30.07 	10	clear	
Fri Jan 29 22:14:45 2010	Las Vegas, NV (89101) 	53 11 	30 -1 	41	calm			1017.0 30.04 	10	clear	
Fri Jan 29 22:59:40 2010	Las Vegas, NV (89101) 	53 11 	30 -1 	41	calm			1017.0 30.04 	10	clear	
Fri Jan 29 23:43:57 2010	Las Vegas, NV (89101) 	53 11 	31 0 	42	N	3		1016.6 30.03 	10	clear	
Mon Feb 1 00:10:56 2010	Las Vegas, NV (89101) 	58 14 	31 0 	36	calm			1012.3 29.90 	10	clear	
Mon Feb 1 00:53:53 2010	Las Vegas, NV (89101) 	58 14 	31 0 	36	calm			1012.3 29.90 	10	clear	
Mon Feb 1 01:40:11 2010	Las Vegas, NV (89101) 	57 13 	28 -2 	33	calm			1012.3 29.90 	10	clear	
Mon Feb 1 02:24:08 2010	Las Vegas, NV (89101) 	56 13 	29 -1 	35	calm			1012.7 29.91 	10	clear	
Mon Feb 1 03:07:50 2010	Las Vegas, NV (89101) 	53 11 	33 0 	46	calm			1013.5 29.94 	10	clear	
Mon Feb 1 03:52:30 2010	Las Vegas, NV (89101) 	53 11 	33 0 	46	calm			1013.5 29.94 	10	clear	
Mon Feb 1 04:37:17 2010	Las Vegas, NV (89101) 	53 11 	31 0 	42	calm			1013.9 29.95 	10	clear	
Mon Feb 1 05:20:27 2010	Las Vegas, NV (89101) 	49 9 	34 1 	56	WNW	3	48	1014.1 29.96 	10	clear	
Mon Feb 1 06:05:20 2010	Las Vegas, NV (89101) 	46 7 	36 2 	68	NW	5	43	1014.4 29.96 	10	clear	
Mon Feb 1 06:48:30 2010	Las Vegas, NV (89101) 	46 7 	36 2 	68	NW	5	43	1014.4 29.96 	10	clear	
Mon Feb 1 07:32:19 2010	Las Vegas, NV (89101) 	45 7 	36 2 	70	WNW	4	43	1014.6 29.97 	10	clear	
Mon Feb 1 08:15:26 2010	Las Vegas, NV (89101) 	43 6 	35 1 	73	NNW	4	40	1014.7 29.97 	10	clear	
Mon Feb 1 08:59:12 2010	Las Vegas, NV (89101) 	43 6 	35 1 	73	NNW	4	40	1014.7 29.97 	10	clear	
Mon Feb 1 09:42:10 2010	Las Vegas, NV (89101) 	44 6 	34 1 	67	NW	6	40	1014.4 29.96 	10	clear	
Mon Feb 1 10:25:43 2010	Las Vegas, NV (89101) 	43 6 	33 0 	68	NW	3	41	1014.6 29.97 	10	clear	
Mon Feb 1 11:08:40 2010	Las Vegas, NV (89101) 	41 5 	33 0 	73	calm		41	1014.7 29.97 	10	clear	
Mon Feb 1 11:52:07 2010	Las Vegas, NV (89101) 	41 5 	33 0 	73	calm		41	1014.7 29.97 	10	clear	
Mon Feb 1 12:35:27 2010	Las Vegas, NV (89101) 	41 5 	33 0 	73	calm		41	1014.6 29.97 	10	clear	
Mon Feb 1 13:19:02 2010	Las Vegas, NV (89101) 	39 3 	32 0 	76	NNW	3	37	1014.9 29.98 	10	clear	
Mon Feb 1 14:02:54 2010	Las Vegas, NV (89101) 	38 3 	32 0 	79	NW	4	34	1015.0 29.98 	10	clear	
Mon Feb 1 14:48:00 2010	Las Vegas, NV (89101) 	38 3 	32 0 	79	NW	4	34	1015.0 29.98 	10	clear	
Mon Feb 1 15:31:44 2010	Las Vegas, NV (89101) 	37 2 	31 0 	78	W	3	34	1015.6 30.00 	10	clear	
Mon Feb 1 16:16:11 2010	Las Vegas, NV (89101) 	39 3 	31 0 	72	calm		39	1015.8 30.01 	10	clear	
Mon Feb 1 17:01:03 2010	Las Vegas, NV (89101) 	41 5 	30 -1 	65	calm		41	1016.4 30.02 	10	clear	
Mon Feb 1 17:45:00 2010	Las Vegas, NV (89101) 	41 5 	30 -1 	65	calm		41	1016.4 30.02 	10	clear	
Mon Feb 1 18:28:30 2010	Las Vegas, NV (89101) 	47 8 	31 0 	53	calm		47	1016.5 30.03 	10	clear	
Mon Feb 1 19:12:17 2010	Las Vegas, NV (89101) 	49 9 	33 0 	54	calm		49	1016.6 30.03 	10	clear	
Mon Feb 1 19:57:08 2010	Las Vegas, NV (89101) 	49 9 	33 0 	54	calm		49	1016.6 30.03 	10	clear	
Mon Feb 1 20:43:33 2010	Las Vegas, NV (89101) 	52 11 	32 0 	46	calm			1016.1 30.01 	10	clear	
Mon Feb 1 21:28:28 2010	Las Vegas, NV (89101) 	54 12 	29 -1 	38	E	4		1015.0 29.98 	10	clear	
Mon Feb 1 22:11:53 2010	Las Vegas, NV (89101) 	55 12 	29 -1 	36	N	4		1014.1 29.96 	10	clear	
Mon Feb 1 22:55:12 2010	Las Vegas, NV (89101) 	55 12 	29 -1 	36	N	4		1014.1 29.96 	10	clear	
Mon Feb 1 23:41:20 2010	Las Vegas, NV (89101) 	56 13 	27 -2 	33	SE	6		1013.3 29.93 	10	clear	
Sat Jan 30 00:28:01 2010	Las Vegas, NV (89101) 	55 12 	32 0 	41	ESE	6		1016.3 30.02 	10	clear	
Sat Jan 30 01:12:11 2010	Las Vegas, NV (89101) 	55 12 	32 0 	41	ESE	4		1016.1 30.01 	10	clear	
Sat Jan 30 01:55:43 2010	Las Vegas, NV (89101) 	55 12 	32 0 	41	ESE	4		1016.1 30.01 	10	clear	
Sat Jan 30 02:40:23 2010	Las Vegas, NV (89101) 	53 11 	34 1 	48	ESE	4		1016.3 30.02 	10	clear	
Sat Jan 30 03:23:56 2010	Las Vegas, NV (89101) 	51 10 	35 1 	54	E	4		1016.6 30.03 	10	clear	
Sat Jan 30 04:07:51 2010	Las Vegas, NV (89101) 	49 9 	37 2 	63	calm		49	1016.7 30.03 	10	clear	
Sat Jan 30 04:51:37 2010	Las Vegas, NV (89101) 	49 9 	37 2 	63	calm		49	1016.7 30.03 	10	clear	
Sat Jan 30 05:35:18 2010	Las Vegas, NV (89101) 	50 10 	35 1 	56	calm			1016.6 30.03 	10	clear	
Sat Jan 30 06:19:26 2010	Las Vegas, NV (89101) 	49 9 	35 1 	59	calm		49	1016.7 30.03 	10	clear	
Sat Jan 30 07:05:27 2010	Las Vegas, NV (89101) 	47 8 	36 2 	66	calm		47	1016.5 30.03 	10	clear	
Sat Jan 30 07:48:09 2010	Las Vegas, NV (89101) 	47 8 	36 2 	66	calm		47	1016.5 30.03 	10	clear	
Sat Jan 30 08:31:22 2010	Las Vegas, NV (89101) 	47 8 	37 2 	68	WSW	4	45	1016.2 30.02 	10	clear	
Sat Jan 30 11:13:08 2010	Las Vegas, NV (89101) 	46 7 	35 1 	65	calm		46	1015.4 29.99 	10	clear	
Sat Jan 30 12:00:55 2010	Las Vegas, NV (89101) 	43 6 	36 2 	76	W	3	41	1015.1 29.98 	10	clear	
Sat Jan 30 12:44:34 2010	Las Vegas, NV (89101) 	43 6 	36 2 	76	W	3	41	1015.1 29.98 	10	clear	
Sat Jan 30 13:27:50 2010	Las Vegas, NV (89101) 	42 5 	35 1 	76	WSW	3	40	1015.0 29.98 	10	clear	
Sat Jan 30 14:12:01 2010	Las Vegas, NV (89101) 	40 4 	35 1 	83	calm		40	1014.9 29.98 	10	clear	
Sat Jan 30 14:56:03 2010	Las Vegas, NV (89101) 	40 4 	35 1 	83	calm		40	1014.9 29.98 	10	clear	
Sat Jan 30 15:41:53 2010	Las Vegas, NV (89101) 	42 5 	35 1 	76	SSE	3	40	1015.1 29.98 	10	clear	
Sat Jan 30 16:26:53 2010	Las Vegas, NV (89101) 	39 3 	34 1 	82	N	3	37	1015.8 30.01 	10	clear	
Sat Jan 30 17:11:18 2010	Las Vegas, NV (89101) 	41 5 	35 1 	79	calm		41	1015.8 30.01 	10	clear	
Sat Jan 30 17:54:31 2010	Las Vegas, NV (89101) 	41 5 	35 1 	79	calm		41	1015.8 30.01 	10	clear	
Sat Jan 30 18:38:31 2010	Las Vegas, NV (89101) 	46 7 	37 2 	71	S	4	44	1015.6 30.00 	10	clear	
Sat Jan 30 19:21:49 2010	Las Vegas, NV (89101) 	48 8 	36 2 	63	SSE	6	45	1015.4 29.99 	10	clear	
Sat Jan 30 20:06:04 2010	Las Vegas, NV (89101) 	50 10 	37 2 	61	SE	5	48	1014.7 29.97 	10	clear	
Sat Jan 30 20:49:09 2010	Las Vegas, NV (89101) 	50 10 	37 2 	61	SE	5	48	1014.7 29.97 	10	clear	
Sat Jan 30 21:32:56 2010	Las Vegas, NV (89101) 	53 11 	37 2 	54	ESE	5		1013.3 29.93 	10	clear	
Sat Jan 30 22:16:11 2010	Las Vegas, NV (89101) 	54 12 	37 2 	52	SE	7		1012.1 29.90 	10	clear	
Sat Jan 30 23:01:47 2010	Las Vegas, NV (89101) 	55 12 	37 2 	51	SSE	5		1011.5 29.88 	10	clear	
Sat Jan 30 23:46:29 2010	Las Vegas, NV (89101) 	55 12 	37 2 	51	SSE	5		1011.5 29.88 	10	clear	
Sun Jan 31 00:30:25 2010	Las Vegas, NV (89101) 	56 13 	37 2 	49	E	5		1011.7 29.88 	10	clear	
Sun Jan 31 01:21:12 2010	Las Vegas, NV (89101) 	57 13 	38 3 	49		6		1011.6 29.88 	10	clear	
Sun Jan 31 02:05:11 2010	Las Vegas, NV (89101) 	55 12 	38 3 	52	N	4		1012.0 29.89 	10	mostly clear	
Sun Jan 31 02:48:38 2010	Las Vegas, NV (89101) 	55 12 	38 3 	52	N	4		1012.0 29.89 	10	mostly clear	
Sun Jan 31 03:32:30 2010	Las Vegas, NV (89101) 	53 11 	38 3 	56	calm			1012.1 29.90 	10	clear	
Sun Jan 31 04:15:57 2010	Las Vegas, NV (89101) 	50 10 	40 4 	68	NW	4	48	1012.5 29.91 	10	mostly cloudy	
Sun Jan 31 05:00:31 2010	Las Vegas, NV (89101) 	49 9 	39 3 	68	NNW	4	47	1012.6 29.91 	10	clear	
Sun Jan 31 05:46:35 2010	Las Vegas, NV (89101) 	49 9 	39 3 	68	NNW	4	47	1012.6 29.91 	10	clear	
Sun Jan 31 06:31:47 2010	Las Vegas, NV (89101) 	47 8 	39 3 	74	N	3	46	1012.8 29.92 	10	clear	
Sun Jan 31 07:14:41 2010	Las Vegas, NV (89101) 	45 7 	38 3 	76	N	6	41	1013.0 29.92 	10	clear	
Sun Jan 31 08:01:24 2010	Las Vegas, NV (89101) 	46 7 	38 3 	73	W	3	45	1012.9 29.92 	10	clear	
Sun Jan 31 08:46:06 2010	Las Vegas, NV (89101) 	46 7 	38 3 	73	W	3	45	1012.9 29.92 	10	clear	
Sun Jan 31 09:29:20 2010	Las Vegas, NV (89101) 	44 6 	36 2 	73	calm		44	1012.9 29.92 	10	clear	
Sun Jan 31 10:12:32 2010	Las Vegas, NV (89101) 	43 6 	36 2 	76	WNW	5	39	1012.9 29.92 	10	clear	
Sun Jan 31 10:56:17 2010	Las Vegas, NV (89101) 	43 6 	36 2 	76	WNW	5	39	1012.9 29.92 	10	clear	
Sun Jan 31 11:39:44 2010	Las Vegas, NV (89101) 	46 7 	35 1 	65	NNW	8	41	1012.6 29.91 	10	clear	
Sun Jan 31 12:23:25 2010	Las Vegas, NV (89101) 	46 7 	34 1 	63	NNW	10	41	1012.6 29.91 	10	clear	
Sun Jan 31 13:06:48 2010	Las Vegas, NV (89101) 	46 7 	34 1 	63	NNW	9	41	1012.5 29.91 	10	clear	
Sun Jan 31 13:50:24 2010	Las Vegas, NV (89101) 	46 7 	34 1 	63	NNW	9	41	1012.5 29.91 	10	clear	
Sun Jan 31 14:33:15 2010	Las Vegas, NV (89101) 	44 6 	34 1 	67	NNW	3	43	1012.9 29.92 	10	clear	
Sun Jan 31 15:17:21 2010	Las Vegas, NV (89101) 	43 6 	34 1 	70	WNW	3	41	1013.6 29.94 	10	clear	
Sun Jan 31 16:00:48 2010	Las Vegas, NV (89101) 	42 5 	33 0 	70	W	3	40	1014.2 29.96 	10	mostly clear	
Sun Jan 31 16:50:36 2010	Las Vegas, NV (89101) 	42 5 	33 0 	70	W	3	40	1014.2 29.96 	10	mostly clear	
Sun Jan 31 17:34:17 2010	Las Vegas, NV (89101) 	47 8 	33 0 	58	N	4	45	1014.7 29.97 	10	clear	
Sun Jan 31 18:19:16 2010	Las Vegas, NV (89101) 	50 10 	34 1 	54	N	4	48	1015.1 29.98 	10	clear	
Sun Jan 31 19:03:03 2010	Las Vegas, NV (89101) 	51 10 	35 1 	54	N	5	49	1015.4 29.99 	10	clear	
Sun Jan 31 19:48:25 2010	Las Vegas, NV (89101) 	51 10 	35 1 	54	N	5	49	1015.4 29.99 	10	clear	
Sun Jan 31 20:31:24 2010	Las Vegas, NV (89101) 	53 11 	36 2 	52	S	5		1015.0 29.98 	10	clear	
Sun Jan 31 21:15:37 2010	Las Vegas, NV (89101) 	54 12 	35 1 	49	calm			1014.2 29.96 	10	clear	
Sun Jan 31 21:58:51 2010	Las Vegas, NV (89101) 	54 12 	35 1 	49	calm			1014.2 29.96 	10	clear	
Sun Jan 31 22:43:39 2010	Las Vegas, NV (89101) 	56 13 	34 1 	43	calm			1013.2 29.93 	10	clear	
Sun Jan 31 23:26:59 2010	Las Vegas, NV (89101) 	57 13 	32 0 	39	calm			1012.5 29.91 	10	clear	
Thu Feb 4 00:12:19 2010	Las Vegas, NV (89101) 	61 16 	32 0 	33	SSE	6		1004.4 29.67 	10	clear	
Thu Feb 4 00:56:25 2010	Las Vegas, NV (89101) 	61 16 	32 0 	33	SSE	6		1004.4 29.67 	10	clear	
Thu Feb 4 01:39:39 2010	Las Vegas, NV (89101) 	61 16 	31 0 	32	calm			1004.7 29.68 	10	clear	
Thu Feb 4 02:27:24 2010	Las Vegas, NV (89101) 	59 15 	33 0 	37	SSE	5		1004.9 29.68 	10	clear	
Thu Feb 4 03:10:33 2010	Las Vegas, NV (89101) 	57 13 	33 0 	40	E	3		1005.5 29.70 	10	clear	
Thu Feb 4 03:55:02 2010	Las Vegas, NV (89101) 	57 13 	33 0 	40	E	3		1005.5 29.70 	10	clear	
Thu Feb 4 04:38:19 2010	Las Vegas, NV (89101) 	53 11 	36 2 	52	WNW	4		1006.5 29.73 	10	clear	
Thu Feb 4 05:21:39 2010	Las Vegas, NV (89101) 	50 10 	36 2 	58	NW	6	47	1007.0 29.75 	10	clear	
Thu Feb 4 06:04:31 2010	Las Vegas, NV (89101) 	50 10 	35 1 	56	WNW	3	49	1006.9 29.74 	10	clear	
Thu Feb 4 06:47:33 2010	Las Vegas, NV (89101) 	50 10 	35 1 	56	WNW	3	49	1006.9 29.74 	10	clear	
Thu Feb 4 07:31:10 2010	Las Vegas, NV (89101) 	51 10 	29 -1 	42	N	8	48	1006.8 29.74 	10	clear	
Thu Feb 4 08:13:44 2010	Las Vegas, NV (89101) 	50 10 	29 -1 	44	NW	9	46	1007.0 29.75 	10	clear	
Thu Feb 4 08:57:26 2010	Las Vegas, NV (89101) 	50 10 	29 -1 	44	NW	9	46	1007.0 29.75 	10	clear	
Thu Feb 4 09:41:21 2010	Las Vegas, NV (89101) 	50 10 	28 -2 	42	NNW	5	48	1007.1 29.75 	10	clear	
Thu Feb 4 10:25:01 2010	Las Vegas, NV (89101) 	48 8 	28 -2 	46	NW	11	43	1007.4 29.76 	10	clear	
Thu Feb 4 11:10:56 2010	Las Vegas, NV (89101) 	47 8 	28 -2 	47	NW	8	43	1007.7 29.77 	10	clear	
Thu Feb 4 11:54:27 2010	Las Vegas, NV (89101) 	47 8 	28 -2 	47	NW	8	43	1007.7 29.77 	10	clear	
Thu Feb 4 12:37:33 2010	Las Vegas, NV (89101) 	45 7 	28 -2 	51	WNW	8	40	1008.1 29.78 	10	clear	
Thu Feb 4 13:21:38 2010	Las Vegas, NV (89101) 	46 7 	26 -3 	45	NNW	6	42	1008.3 29.78 	10	clear	
Thu Feb 4 14:06:28 2010	Las Vegas, NV (89101) 	44 6 	27 -2 	51	N	7	40	1008.9 29.80 	10	clear	
Thu Feb 4 14:59:13 2010	Las Vegas, NV (89101) 	44 6 	27 -2 	51	N	7	40	1008.9 29.80 	10	clear	
Thu Jan 28 15:38:53 2010	Las Vegas, NV (89101) 	47 8 	32 0 	56	N	15	40	1016.2 30.02 	10	clear	
Thu Jan 28 15:59:38 2010	Las Vegas, NV (89101) 	47 8 	32 0 	56	N	15	40	1016.2 30.02 	10	clear	
Thu Jan 28 16:49:01 2010	Las Vegas, NV (89101) 	46 7 	31 0 	55	N	13	40	1016.9 30.04 	10	clear	
Thu Jan 28 17:13:16 2010	Las Vegas, NV (89101) 	47 8 	31 0 	53	N	13	41	1017.2 30.05 	10	clear	
Thu Jan 28 17:29:14 2010	Las Vegas, NV (89101) 	47 8 	31 0 	53	N	13	41	1017.2 30.05 	10	clear	
Tue Feb 2 00:28:11 2010	Las Vegas, NV (89101) 	57 13 	27 -2 	31	E	6		1013.0 29.92 	10	clear	
Tue Feb 2 01:13:48 2010	Las Vegas, NV (89101) 	56 13 	28 -2 	34	ESE	5		1013.3 29.93 	10	clear	
Tue Feb 2 01:56:57 2010	Las Vegas, NV (89101) 	56 13 	28 -2 	34	ESE	5		1013.3 29.93 	10	clear	
Tue Feb 2 02:41:00 2010	Las Vegas, NV (89101) 	55 12 	28 -2 	35	ESE	3		1013.4 29.93 	10	clear	
Tue Feb 2 03:24:32 2010	Las Vegas, NV (89101) 	54 12 	30 -1 	40	E	3		1013.5 29.94 	10	clear	
Tue Feb 2 04:08:18 2010	Las Vegas, NV (89101) 	53 11 	29 -1 	39	calm			1013.6 29.94 	10	clear	
Tue Feb 2 04:51:51 2010	Las Vegas, NV (89101) 	53 11 	29 -1 	39	calm			1013.6 29.94 	10	clear	
Tue Feb 2 05:35:14 2010	Las Vegas, NV (89101) 	51 10 	32 0 	48	S	4		1013.7 29.94 	10	clear	
Tue Feb 2 06:18:28 2010	Las Vegas, NV (89101) 	51 10 	30 -1 	44	WSW	3		1013.4 29.93 	10	mostly clear	
Tue Feb 2 07:05:38 2010	Las Vegas, NV (89101) 	51 10 	28 -2 	41	calm			1013.3 29.93 	10	clear	
Tue Feb 2 07:48:39 2010	Las Vegas, NV (89101) 	51 10 	28 -2 	41	calm			1013.3 29.93 	10	clear	
Tue Feb 2 08:31:51 2010	Las Vegas, NV (89101) 	49 9 	30 -1 	48	calm		49	1013.2 29.93 	10	clear	
Tue Feb 2 09:15:20 2010	Las Vegas, NV (89101) 	49 9 	31 0 	50	calm		49	1012.9 29.92 	10	clear	
Tue Feb 2 09:58:52 2010	Las Vegas, NV (89101) 	49 9 	31 0 	50	calm		49	1012.9 29.92 	10	clear	
Tue Feb 2 10:42:26 2010	Las Vegas, NV (89101) 	47 8 	33 0 	58	calm		47	1012.8 29.92 	10	clear	
Tue Feb 2 11:26:32 2010	Las Vegas, NV (89101) 	45 7 	34 1 	65	N	3	44	1012.7 29.91 	10	clear	
Tue Feb 2 12:10:31 2010	Las Vegas, NV (89101) 	44 6 	33 0 	65	NNW	3	43	1012.1 29.90 	10	clear	
Tue Feb 2 12:54:28 2010	Las Vegas, NV (89101) 	44 6 	33 0 	65	NNW	3	43	1012.1 29.90 	10	clear	
Tue Feb 2 13:37:45 2010	Las Vegas, NV (89101) 	44 6 	34 1 	67	NW	4	42	1012.1 29.90 	10	clear	
Tue Feb 2 14:21:28 2010	Las Vegas, NV (89101) 	44 6 	34 1 	67	N	3	43	1012.2 29.90 	10	mostly clear	
Tue Feb 2 15:05:48 2010	Las Vegas, NV (89101) 	44 6 	33 0 	65	WNW	3	43	1012.4 29.90 	10	cloudy	
Tue Feb 2 15:52:14 2010	Las Vegas, NV (89101) 	44 6 	33 0 	65	WNW	3	43	1012.4 29.90 	10	cloudy	
Tue Feb 2 16:44:44 2010	Las Vegas, NV (89101) 	43 6 	34 1 	70	WNW	3	41	1012.6 29.91 	10	mostly clear	
Tue Feb 2 17:33:10 2010	Las Vegas, NV (89101) 	45 7 	34 1 	65	N	3	44	1012.8 29.92 	10	mostly clear	
Tue Feb 2 18:17:47 2010	Las Vegas, NV (89101) 	49 9 	34 1 	56	calm		49	1012.8 29.92 	10	clear	
Tue Feb 2 19:01:58 2010	Las Vegas, NV (89101) 	51 10 	31 0 	46	calm			1012.7 29.91 	10	clear	
Tue Feb 2 19:51:13 2010	Las Vegas, NV (89101) 	51 10 	31 0 	46	calm			1012.7 29.91 	10	clear	
Tue Feb 2 20:42:31 2010	Las Vegas, NV (89101) 	53 11 	29 -1 	39	calm			1012.1 29.90 	10	clear	
Tue Feb 2 21:29:22 2010	Las Vegas, NV (89101) 	55 12 	29 -1 	36	E	5		1010.8 29.86 	10	clear	
Tue Feb 2 22:17:45 2010	Las Vegas, NV (89101) 	57 13 	29 -1 	34	ESE	9		1009.8 29.83 	10	clear	
Tue Feb 2 23:02:01 2010	Las Vegas, NV (89101) 	57 13 	29 -1 	34	ESE	3		1009.5 29.82 	10	clear	
Tue Feb 2 23:47:02 2010	Las Vegas, NV (89101) 	57 13 	29 -1 	34	ESE	3		1009.5 29.82 	10	clear	
Wed Feb 3 00:31:46 2010	Las Vegas, NV (89101) 	58 14 	31 0 	36	E	6		1009.1 29.81 	10	clear	
Wed Feb 3 01:18:57 2010	Las Vegas, NV (89101) 	57 13 	31 0 	37	ENE	5		1008.9 29.80 	10	clear	
Wed Feb 3 02:03:44 2010	Las Vegas, NV (89101) 	56 13 	32 0 	40	ESE	3		1009.0 29.80 	10	clear	
Wed Feb 3 02:52:27 2010	Las Vegas, NV (89101) 	56 13 	32 0 	40	ESE	3		1009.0 29.80 	10	clear	
Wed Feb 3 03:39:17 2010	Las Vegas, NV (89101) 	54 12 	34 1 	47	calm			1009.1 29.81 	10	clear	
Wed Feb 3 04:27:26 2010	Las Vegas, NV (89101) 	53 11 	32 0 	44	calm			1009.2 29.81 	10	clear	
Wed Feb 3 05:14:12 2010	Las Vegas, NV (89101) 	51 10 	34 1 	52	calm			1009.2 29.81 	10	clear	
Wed Feb 3 06:02:03 2010	Las Vegas, NV (89101) 	49 9 	35 1 	59	N	3	48	1009.1 29.81 	10	clear	
Wed Feb 3 06:48:46 2010	Las Vegas, NV (89101) 	49 9 	35 1 	59	N	3	48	1009.1 29.81 	10	clear	
Wed Feb 3 07:33:25 2010	Las Vegas, NV (89101) 	47 8 	36 2 	66	NNW	3	46	1008.8 29.80 	10	clear	
Wed Feb 3 08:16:35 2010	Las Vegas, NV (89101) 	46 7 	37 2 	71	NW	4	44	1008.7 29.80 	10	mostly cloudy	
Wed Feb 3 09:03:02 2010	Las Vegas, NV (89101) 	46 7 	35 1 	65	NNW	4	44	1008.2 29.78 	10	mostly cloudy	
Wed Feb 3 09:46:22 2010	Las Vegas, NV (89101) 	46 7 	35 1 	65	NNW	4	44	1008.2 29.78 	10	mostly cloudy	
Wed Feb 3 10:30:13 2010	Las Vegas, NV (89101) 	46 7 	35 1 	65	NNW	4	44	1007.9 29.77 	10	cloudy	
Wed Feb 3 11:17:08 2010	Las Vegas, NV (89101) 	45 7 	35 1 	68	WNW	3	44	1007.9 29.77 	10	mostly cloudy	
Wed Feb 3 12:01:52 2010	Las Vegas, NV (89101) 	45 7 	34 1 	65	NW	5	42	1007.1 29.75 	10	clear	
Wed Feb 3 12:45:05 2010	Las Vegas, NV (89101) 	45 7 	34 1 	65	NW	5	42	1007.1 29.75 	10	clear	
Wed Feb 3 13:28:49 2010	Las Vegas, NV (89101) 	42 5 	34 1 	73	NNW	5	38	1007.1 29.75 	10	clear	
Wed Feb 3 14:14:55 2010	Las Vegas, NV (89101) 	44 6 	32 0 	62	NNW	6	40	1007.4 29.76 	10	clear	
Wed Feb 3 15:00:51 2010	Las Vegas, NV (89101) 	42 5 	33 0 	70	NW	5	38	1007.7 29.77 	10	clear	
Wed Feb 3 15:45:44 2010	Las Vegas, NV (89101) 	42 5 	33 0 	70	NW	5	38	1007.7 29.77 	10	clear	
Wed Feb 3 16:31:35 2010	Las Vegas, NV (89101) 	43 6 	32 0 	65	N	5	39	1007.8 29.77 	10	clear	
Wed Feb 3 17:18:47 2010	Las Vegas, NV (89101) 	44 6 	32 0 	62	NNW	7	40	1007.8 29.77 	10	clear	
Wed Feb 3 18:07:04 2010	Las Vegas, NV (89101) 	49 9 	33 0 	54	N	4	47	1007.5 29.76 	10	clear	
Wed Feb 3 18:50:10 2010	Las Vegas, NV (89101) 	49 9 	33 0 	54	N	4	47	1007.5 29.76 	10	clear	
Wed Feb 3 19:34:28 2010	Las Vegas, NV (89101) 	53 11 	33 0 	46	NNW	9		1007.3 29.75 	10	clear	
Wed Feb 3 20:18:33 2010	Las Vegas, NV (89101) 	56 13 	33 0 	42	N	5		1006.8 29.74 	10	clear	
Wed Feb 3 21:02:50 2010	Las Vegas, NV (89101) 	59 15 	32 0 	36	N	11		1006.3 29.72 	10	clear	
Wed Feb 3 21:50:57 2010	Las Vegas, NV (89101) 	59 15 	32 0 	36	N	11		1006.3 29.72 	10	clear	
Wed Feb 3 22:36:30 2010	Las Vegas, NV (89101) 	61 16 	31 0 	32	N	15		1005.3 29.70 	10	clear	
Wed Feb 3 23:27:24 2010	Las Vegas, NV (89101) 	61 16 	32 0 	33	ESE	5		1004.7 29.68 	10	clear	
Fri Jan 29 08:41:26 2010	Los Angeles, CA (90001) 	57 13 	49 9 	74	calm			1017.7 30.06 	10	clear	
Fri Jan 29 09:25:21 2010	Los Angeles, CA (90001) 	57 13 	48 8 	72	calm			1017.4 30.05 	10	clear	
Fri Jan 29 11:57:23 2010	Los Angeles, CA (90001) 	54 12 	45 7 	71	calm			1017.3 30.05 	10	clear	
Fri Jan 29 12:42:05 2010	Los Angeles, CA (90001) 	52 11 	45 7 	77	calm			1017.1 30.04 	10	clear	
Fri Jan 29 13:29:49 2010	Los Angeles, CA (90001) 	52 11 	43 6 	71	calm			1017.0 30.04 	10	clear	
Fri Jan 29 14:17:41 2010	Los Angeles, CA (90001) 	50 10 	43 6 	77	calm			1017.0 30.04 	10	clear	
Fri Jan 29 15:02:26 2010	Los Angeles, CA (90001) 	50 10 	43 6 	77	calm			1017.0 30.04 	10	clear	
Fri Jan 29 15:47:59 2010	Los Angeles, CA (90001) 	50 10 	43 6 	77	calm			1017.0 30.04 	10	clear	
Fri Jan 29 16:35:39 2010	Los Angeles, CA (90001) 	52 11 	40 4 	63	calm			1017.4 30.05 	10	clear	
Fri Jan 29 17:20:09 2010	Los Angeles, CA (90001) 	54 12 	40 4 	59	calm			1017.6 30.06 	10	clear	
Fri Jan 29 18:08:41 2010	Los Angeles, CA (90001) 	57 13 	43 6 	59	calm			1018.0 30.07 	10	clear	
Fri Jan 29 18:53:40 2010	Los Angeles, CA (90001) 	57 13 	43 6 	59	calm			1018.0 30.07 	10	clear	
Fri Jan 29 19:45:40 2010	Los Angeles, CA (90001) 	62 16 	39 3 	42	N	3		1018.3 30.08 	10	clear	
Fri Jan 29 20:43:28 2010	Los Angeles, CA (90001) 	63 17 	39 3 	41	calm			1017.9 30.07 	10	clear	
Fri Jan 29 21:28:06 2010	Los Angeles, CA (90001) 	66 18 	40 4 	38	calm			1016.8 30.03 	10	clear	
Fri Jan 29 22:14:43 2010	Los Angeles, CA (90001) 	67 19 	40 4 	37	calm			1016.1 30.01 	10	clear	
Fri Jan 29 22:59:38 2010	Los Angeles, CA (90001) 	67 19 	40 4 	37	calm			1016.1 30.01 	10	clear	
Fri Jan 29 23:43:55 2010	Los Angeles, CA (90001) 	67 19 	41 5 	39	calm			1016.0 30.01 	10	clear	
Mon Feb 1 00:10:55 2010	Los Angeles, CA (90001) 	64 17 	47 8 	54	W	4		1013.0 29.92 	9	clear	
Mon Feb 1 00:53:52 2010	Los Angeles, CA (90001) 	64 17 	47 8 	54	W	4		1013.0 29.92 	9	clear	
Mon Feb 1 01:40:08 2010	Los Angeles, CA (90001) 	63 17 	47 8 	56	calm			1013.1 29.93 	9	clear	
Mon Feb 1 02:24:06 2010	Los Angeles, CA (90001) 	60 15 	48 8 	64	W	3		1013.3 29.93 	8	clear	
Mon Feb 1 03:07:49 2010	Los Angeles, CA (90001) 	59 15 	49 9 	69	calm			1013.7 29.94 	10	clear	
Mon Feb 1 03:52:28 2010	Los Angeles, CA (90001) 	59 15 	49 9 	69	calm			1013.7 29.94 	10	clear	
Mon Feb 1 04:37:15 2010	Los Angeles, CA (90001) 	57 13 	49 9 	74	calm			1013.9 29.95 	10	clear	
Mon Feb 1 05:20:25 2010	Los Angeles, CA (90001) 	57 13 	49 9 	74	calm			1014.1 29.96 	10	clear	
Mon Feb 1 06:05:18 2010	Los Angeles, CA (90001) 	56 13 	49 9 	77	calm			1014.2 29.96 	10	clear	
Mon Feb 1 06:48:27 2010	Los Angeles, CA (90001) 	56 13 	49 9 	77	calm			1014.2 29.96 	10	clear	
Mon Feb 1 07:32:17 2010	Los Angeles, CA (90001) 	56 13 	49 9 	77	calm			1014.2 29.96 	9	clear	
Mon Feb 1 08:15:24 2010	Los Angeles, CA (90001) 	56 13 	48 8 	75	calm			1014.2 29.96 	9	clear	
Mon Feb 1 08:59:10 2010	Los Angeles, CA (90001) 	56 13 	48 8 	75	calm			1014.2 29.96 	9	clear	
Mon Feb 1 09:42:09 2010	Los Angeles, CA (90001) 	55 12 	48 8 	77	calm			1014.4 29.96 	8	clear	
Mon Feb 1 10:25:42 2010	Los Angeles, CA (90001) 	54 12 	47 8 	77	calm			1014.5 29.97 	7	clear	
Mon Feb 1 11:08:39 2010	Los Angeles, CA (90001) 	52 11 	47 8 	83	calm			1014.4 29.96 	5	clear	haze
Mon Feb 1 11:52:05 2010	Los Angeles, CA (90001) 	52 11 	47 8 	83	calm			1014.4 29.96 	5	clear	haze
Mon Feb 1 12:35:26 2010	Los Angeles, CA (90001) 	51 10 	47 8 	85	calm			1014.3 29.96 	5	clear	haze
Mon Feb 1 13:19:00 2010	Los Angeles, CA (90001) 	51 10 	45 7 	80	calm			1014.0 29.95 	6	clear	haze
Mon Feb 1 14:02:52 2010	Los Angeles, CA (90001) 	50 10 	44 6 	80	calm			1014.0 29.95 	7	clear	
Mon Feb 1 14:47:58 2010	Los Angeles, CA (90001) 	50 10 	44 6 	80	calm			1014.0 29.95 	7	clear	
Mon Feb 1 15:31:42 2010	Los Angeles, CA (90001) 	51 10 	44 6 	77	calm			1014.0 29.95 	8	clear	
Mon Feb 1 16:16:09 2010	Los Angeles, CA (90001) 	51 10 	43 6 	74	calm			1014.1 29.96 	9	clear	
Mon Feb 1 17:01:00 2010	Los Angeles, CA (90001) 	52 11 	44 6 	74	calm			1014.8 29.98 	7	clear	
Mon Feb 1 17:44:59 2010	Los Angeles, CA (90001) 	52 11 	44 6 	74	calm			1014.8 29.98 	7	clear	
Mon Feb 1 18:28:29 2010	Los Angeles, CA (90001) 	57 13 	44 6 	62	calm			1014.5 29.97 	7	clear	
Mon Feb 1 19:12:15 2010	Los Angeles, CA (90001) 	60 15 	44 6 	55	calm			1014.8 29.98 	6	clear	haze
Mon Feb 1 19:57:06 2010	Los Angeles, CA (90001) 	60 15 	44 6 	55	calm			1014.8 29.98 	6	clear	haze
Mon Feb 1 20:43:32 2010	Los Angeles, CA (90001) 	63 17 	46 7 	54	calm			1014.4 29.96 	5	clear	haze
Mon Feb 1 21:28:26 2010	Los Angeles, CA (90001) 	65 18 	44 6 	47	calm			1013.3 29.93 	6	clear	haze
Mon Feb 1 22:11:51 2010	Los Angeles, CA (90001) 	66 18 	44 6 	45	calm			1012.4 29.90 	6	clear	haze
Mon Feb 1 22:55:10 2010	Los Angeles, CA (90001) 	66 18 	44 6 	45	calm			1012.4 29.90 	6	clear	haze
Mon Feb 1 23:41:18 2010	Los Angeles, CA (90001) 	68 20 	44 6 	42	calm			1011.6 29.88 	6	clear	haze
Sat Jan 30 00:27:59 2010	Los Angeles, CA (90001) 	66 18 	44 6 	45	W	4		1015.9 30.01 	10	clear	
Sat Jan 30 01:12:09 2010	Los Angeles, CA (90001) 	66 18 	46 7 	48	N	3		1015.9 30.01 	10	clear	
Sat Jan 30 01:55:41 2010	Los Angeles, CA (90001) 	66 18 	46 7 	48	N	3		1015.9 30.01 	10	clear	
Sat Jan 30 02:40:21 2010	Los Angeles, CA (90001) 	62 16 	49 9 	62	calm			1016.1 30.01 	10	clear	
Sat Jan 30 03:23:54 2010	Los Angeles, CA (90001) 	60 15 	50 10 	69	calm			1016.3 30.02 	10	clear	
Sat Jan 30 04:07:49 2010	Los Angeles, CA (90001) 	58 14 	52 11 	81	calm			1016.4 30.02 	8	clear	
Sat Jan 30 04:51:35 2010	Los Angeles, CA (90001) 	58 14 	52 11 	81	calm			1016.4 30.02 	8	clear	
Sat Jan 30 05:35:17 2010	Los Angeles, CA (90001) 	57 13 	52 11 	83	calm			1016.5 30.03 	6	clear	haze
Sat Jan 30 06:19:23 2010	Los Angeles, CA (90001) 	56 13 	52 11 	87	calm			1016.5 30.03 	4	clear	haze
Sat Jan 30 07:05:25 2010	Los Angeles, CA (90001) 	55 12 	51 10 	87	calm			1016.8 30.03 	4	clear	haze
Sat Jan 30 07:48:07 2010	Los Angeles, CA (90001) 	55 12 	51 10 	87	calm			1016.8 30.03 	4	clear	haze
Sat Jan 30 08:31:20 2010	Los Angeles, CA (90001) 	54 12 	50 10 	86	calm			1016.7 30.03 	4	clear	haze
Sat Jan 30 11:13:06 2010	Los Angeles, CA (90001) 	54 12 	50 10 	86	calm			1015.9 30.01 	5	mostly cloudy	haze 
Sat Jan 30 12:00:53 2010	Los Angeles, CA (90001) 	53 11 	48 8 	83	calm			1015.8 30.01 	6	partly cloudy	haze 
Sat Jan 30 12:44:32 2010	Los Angeles, CA (90001) 	53 11 	48 8 	83	calm			1015.8 30.01 	6	partly cloudy	haze 
Sat Jan 30 13:27:48 2010	Los Angeles, CA (90001) 	52 11 	47 8 	83	calm			1015.5 30.00 	5	clear	haze
Sat Jan 30 14:11:59 2010	Los Angeles, CA (90001) 	51 10 	45 7 	80	calm			1015.3 29.99 	7	clear	
Sat Jan 30 14:56:01 2010	Los Angeles, CA (90001) 	51 10 	45 7 	80	calm			1015.3 29.99 	7	clear	
Sat Jan 30 15:41:52 2010	Los Angeles, CA (90001) 	49 9 	45 7 	86	calm		49	1015.5 30.00 	5	clear	haze
Sat Jan 30 16:26:51 2010	Los Angeles, CA (90001) 	48 8 	45 7 	89	calm		48	1015.8 30.01 	5	clear	haze
Sat Jan 30 17:11:16 2010	Los Angeles, CA (90001) 	51 10 	45 7 	80	calm			1016.2 30.02 	5	clear	haze
Sat Jan 30 17:54:29 2010	Los Angeles, CA (90001) 	51 10 	45 7 	80	calm			1016.2 30.02 	5	clear	haze
Sat Jan 30 18:38:29 2010	Los Angeles, CA (90001) 	55 12 	46 7 	72	calm			1016.1 30.01 	6	mostly cloudy	haze 
Sat Jan 30 19:21:47 2010	Los Angeles, CA (90001) 	59 15 	48 8 	67	calm			1016.1 30.01 	6	partly cloudy	haze 
Sat Jan 30 20:06:01 2010	Los Angeles, CA (90001) 	61 16 	49 9 	64	N	3		1015.8 30.01 	7	mostly clear	
Sat Jan 30 20:49:07 2010	Los Angeles, CA (90001) 	61 16 	49 9 	64	N	3		1015.8 30.01 	7	mostly clear	
Sat Jan 30 21:32:55 2010	Los Angeles, CA (90001) 	62 16 	48 8 	60	W	3		1015.0 29.98 	7	clear	
Sat Jan 30 22:16:09 2010	Los Angeles, CA (90001) 	63 17 	48 8 	58	calm			1014.2 29.96 	10	clear	
Sat Jan 30 23:01:43 2010	Los Angeles, CA (90001) 	64 17 	48 8 	56	calm			1013.7 29.94 	10	clear	
Sat Jan 30 23:46:27 2010	Los Angeles, CA (90001) 	64 17 	48 8 	56	calm			1013.7 29.94 	10	clear	
Sun Jan 31 00:30:23 2010	Los Angeles, CA (90001) 	63 17 	48 8 	58	N	3		1013.4 29.93 	10	clear	
Sun Jan 31 01:21:10 2010	Los Angeles, CA (90001) 	61 16 	47 8 	60	calm			1013.5 29.94 	10	clear	
Sun Jan 31 02:05:09 2010	Los Angeles, CA (90001) 	58 14 	48 8 	70	W	4		1013.8 29.95 	10	clear	
Sun Jan 31 02:48:37 2010	Los Angeles, CA (90001) 	58 14 	48 8 	70	W	4		1013.8 29.95 	10	clear	
Sun Jan 31 03:32:28 2010	Los Angeles, CA (90001) 	57 13 	49 9 	74	W	3		1013.8 29.95 	10	clear	
Sun Jan 31 04:15:55 2010	Los Angeles, CA (90001) 	56 13 	49 9 	77	calm			1013.9 29.95 	10	clear	
Sun Jan 31 05:00:28 2010	Los Angeles, CA (90001) 	55 12 	49 9 	80	calm			1013.9 29.95 	10	clear	
Sun Jan 31 05:46:33 2010	Los Angeles, CA (90001) 	55 12 	49 9 	80	calm			1013.9 29.95 	10	clear	
Sun Jan 31 06:31:46 2010	Los Angeles, CA (90001) 	54 12 	49 9 	83	calm			1013.4 29.93 	10	clear	
Sun Jan 31 07:14:40 2010	Los Angeles, CA (90001) 	54 12 	49 9 	83	calm			1013.9 29.95 	10	clear	
Sun Jan 31 08:01:22 2010	Los Angeles, CA (90001) 	53 11 	48 8 	83	calm			1014.1 29.96 	10	clear	
Sun Jan 31 08:46:04 2010	Los Angeles, CA (90001) 	53 11 	48 8 	83	calm			1014.1 29.96 	10	clear	
Sun Jan 31 09:29:18 2010	Los Angeles, CA (90001) 	53 11 	48 8 	83	calm			1014.0 29.95 	10	clear	
Sun Jan 31 10:12:30 2010	Los Angeles, CA (90001) 	53 11 	48 8 	83	calm			1013.8 29.95 	8	clear	
Sun Jan 31 10:56:15 2010	Los Angeles, CA (90001) 	53 11 	48 8 	83	calm			1013.8 29.95 	8	clear	
Sun Jan 31 11:39:43 2010	Los Angeles, CA (90001) 	51 10 	47 8 	85	calm			1013.8 29.95 	6	clear	haze
Sun Jan 31 12:23:23 2010	Los Angeles, CA (90001) 	52 11 	46 7 	80	calm			1013.7 29.94 	7	clear	
Sun Jan 31 13:06:46 2010	Los Angeles, CA (90001) 	50 10 	45 7 	83	calm			1013.4 29.93 	6	clear	haze
Sun Jan 31 13:50:22 2010	Los Angeles, CA (90001) 	50 10 	45 7 	83	calm			1013.4 29.93 	6	clear	haze
Sun Jan 31 14:33:13 2010	Los Angeles, CA (90001) 	49 9 	44 6 	83	calm		49	1013.4 29.93 	7	clear	
Sun Jan 31 15:17:19 2010	Los Angeles, CA (90001) 	48 8 	43 6 	83	calm		48	1013.9 29.95 	6	clear	haze
Sun Jan 31 16:00:45 2010	Los Angeles, CA (90001) 	47 8 	43 6 	86	calm		47	1014.3 29.96 	5	clear	haze
Sun Jan 31 16:50:33 2010	Los Angeles, CA (90001) 	47 8 	43 6 	86	calm		47	1014.3 29.96 	5	clear	haze
Sun Jan 31 17:34:15 2010	Los Angeles, CA (90001) 	49 9 	44 6 	83	calm		49	1014.5 29.97 	4	clear	haze
Sun Jan 31 18:19:15 2010	Los Angeles, CA (90001) 	52 11 	44 6 	74	calm			1015.1 29.98 	6	clear	haze
Sun Jan 31 19:03:00 2010	Los Angeles, CA (90001) 	57 13 	45 7 	64	calm			1015.4 29.99 	6	clear	haze
Sun Jan 31 19:48:24 2010	Los Angeles, CA (90001) 	57 13 	45 7 	64	calm			1015.4 29.99 	6	clear	haze
Sun Jan 31 20:31:22 2010	Los Angeles, CA (90001) 	62 16 	44 6 	52	calm			1014.8 29.98 	7	clear	
Sun Jan 31 21:15:35 2010	Los Angeles, CA (90001) 	64 17 	43 6 	46	calm			1013.6 29.94 	8	clear	
Sun Jan 31 21:58:50 2010	Los Angeles, CA (90001) 	64 17 	43 6 	46	calm			1013.6 29.94 	8	clear	
Sun Jan 31 22:43:38 2010	Los Angeles, CA (90001) 	65 18 	44 6 	47	calm			1013.0 29.92 	6	clear	haze
Sun Jan 31 23:26:58 2010	Los Angeles, CA (90001) 	66 18 	48 8 	52	W	4		1012.5 29.91 	8	clear	
Thu Feb 4 00:12:18 2010	Los Angeles, CA (90001) 	68 20 	46 7 	45	N	3		1006.2 29.72 	10	clear	
Thu Feb 4 00:56:23 2010	Los Angeles, CA (90001) 	68 20 	46 7 	45	N	3		1006.2 29.72 	10	clear	
Thu Feb 4 01:39:37 2010	Los Angeles, CA (90001) 	66 18 	45 7 	47	calm			1006.5 29.73 	10	clear	
Thu Feb 4 02:27:22 2010	Los Angeles, CA (90001) 	63 17 	47 8 	56	calm			1007.0 29.75 	10	clear	
Thu Feb 4 03:10:31 2010	Los Angeles, CA (90001) 	62 16 	47 8 	57	calm			1007.8 29.77 	10	clear	
Thu Feb 4 03:55:00 2010	Los Angeles, CA (90001) 	62 16 	47 8 	57	calm			1007.8 29.77 	10	clear	
Thu Feb 4 04:38:17 2010	Los Angeles, CA (90001) 	60 15 	53 11 	78	calm			1009.2 29.81 	10	clear	
Thu Feb 4 05:21:37 2010	Los Angeles, CA (90001) 	59 15 	52 11 	78	calm			1009.9 29.83 	10	clear	
Thu Feb 4 06:04:29 2010	Los Angeles, CA (90001) 	58 14 	51 10 	78	calm			1010.1 29.84 	10	clear	
Thu Feb 4 06:47:31 2010	Los Angeles, CA (90001) 	58 14 	51 10 	78	calm			1010.1 29.84 	10	clear	
Thu Feb 4 07:31:08 2010	Los Angeles, CA (90001) 	58 14 	52 11 	81	E	4		1010.7 29.85 	8	clear	
Thu Feb 4 08:13:42 2010	Los Angeles, CA (90001) 	58 14 	53 11 	84	E	4		1010.9 29.86 	7	cloudy	
Thu Feb 4 08:57:25 2010	Los Angeles, CA (90001) 	58 14 	53 11 	84	E	4		1010.9 29.86 	7	cloudy	
Thu Feb 4 09:41:20 2010	Los Angeles, CA (90001) 	58 14 	52 11 	81	E	3		1011.1 29.87 	7	cloudy	
Thu Feb 4 10:24:59 2010	Los Angeles, CA (90001) 	58 14 	51 10 	78	E	3		1011.0 29.86 	8	cloudy	
Thu Feb 4 11:10:54 2010	Los Angeles, CA (90001) 	58 14 	51 10 	78	calm			1011.2 29.87 	9	cloudy	
Thu Feb 4 11:54:25 2010	Los Angeles, CA (90001) 	58 14 	51 10 	78	calm			1011.2 29.87 	9	cloudy	
Thu Feb 4 12:37:32 2010	Los Angeles, CA (90001) 	58 14 	50 10 	75	E	3		1011.9 29.89 	8	cloudy	
Thu Feb 4 13:21:36 2010	Los Angeles, CA (90001) 	58 14 	50 10 	75	ESE	3		1011.7 29.88 	8	cloudy	
Thu Feb 4 14:06:26 2010	Los Angeles, CA (90001) 	58 14 	49 9 	72	E	4		1011.8 29.89 	8	cloudy	
Thu Feb 4 14:59:11 2010	Los Angeles, CA (90001) 	58 14 	49 9 	72	E	4		1011.8 29.89 	8	cloudy	
Thu Jan 28 15:38:51 2010	Los Angeles, CA (90001) 	52 11 	41 5 	66	E	3		1014.6 29.97 	10	clear	
Thu Jan 28 15:59:36 2010	Los Angeles, CA (90001) 	52 11 	41 5 	66	E	3		1014.6 29.97 	10	clear	
Thu Jan 28 16:48:59 2010	Los Angeles, CA (90001) 	51 10 	42 5 	71	calm			1015.4 29.99 	10	clear	
Thu Jan 28 17:13:14 2010	Los Angeles, CA (90001) 	53 11 	43 6 	68	calm			1016.2 30.02 	10	clear	
Thu Jan 28 17:29:12 2010	Los Angeles, CA (90001) 	53 11 	43 6 	68	calm			1016.2 30.02 	10	clear	
Tue Feb 2 00:28:10 2010	Los Angeles, CA (90001) 	67 19 	51 10 	57	N	4		1011.4 29.88 	8	clear	
Tue Feb 2 01:13:47 2010	Los Angeles, CA (90001) 	64 17 	51 10 	63	N	3		1011.7 29.88 	8	clear	
Tue Feb 2 01:56:56 2010	Los Angeles, CA (90001) 	64 17 	51 10 	63	N	3		1011.7 29.88 	8	clear	
Tue Feb 2 02:40:58 2010	Los Angeles, CA (90001) 	62 16 	51 10 	67	calm			1011.9 29.89 	8	clear	
Tue Feb 2 03:24:30 2010	Los Angeles, CA (90001) 	60 15 	50 10 	69	W	3		1012.0 29.89 	9	clear	
Tue Feb 2 04:08:16 2010	Los Angeles, CA (90001) 	59 15 	51 10 	75	W	3		1012.3 29.90 	9	clear	
Tue Feb 2 04:51:49 2010	Los Angeles, CA (90001) 	59 15 	51 10 	75	W	3		1012.3 29.90 	9	clear	
Tue Feb 2 05:35:12 2010	Los Angeles, CA (90001) 	58 14 	51 10 	78	calm			1012.1 29.90 	7	clear	
Tue Feb 2 06:18:25 2010	Los Angeles, CA (90001) 	58 14 	51 10 	78	calm			1012.1 29.90 	5	partly cloudy	haze 
Tue Feb 2 07:05:37 2010	Los Angeles, CA (90001) 	57 13 	51 10 	81	calm			1011.8 29.89 	4	mostly cloudy	haze 
Tue Feb 2 07:48:37 2010	Los Angeles, CA (90001) 	57 13 	51 10 	81	calm			1011.8 29.89 	4	mostly cloudy	haze 
Tue Feb 2 08:31:50 2010	Los Angeles, CA (90001) 	57 13 	51 10 	81	calm			1011.9 29.89 	4	clear	haze
Tue Feb 2 09:15:18 2010	Los Angeles, CA (90001) 	55 12 	51 10 	87	calm			1012.0 29.89 	3	clear	haze
Tue Feb 2 09:58:51 2010	Los Angeles, CA (90001) 	55 12 	51 10 	87	calm			1012.0 29.89 	3	clear	haze
Tue Feb 2 10:42:24 2010	Los Angeles, CA (90001) 	55 12 	51 10 	87	calm			1011.8 29.89 	3	cloudy	haze 
Tue Feb 2 11:26:30 2010	Los Angeles, CA (90001) 	54 12 	50 10 	86	calm			1011.8 29.89 	2	clear	haze
Tue Feb 2 12:10:29 2010	Los Angeles, CA (90001) 	54 12 	50 10 	86	calm			1011.6 29.88 	2	mostly cloudy	haze 
Tue Feb 2 12:54:26 2010	Los Angeles, CA (90001) 	54 12 	50 10 	86	calm			1011.6 29.88 	2	mostly cloudy	haze 
Tue Feb 2 13:37:43 2010	Los Angeles, CA (90001) 	55 12 	51 10 	87	calm			1011.5 29.88 	4	cloudy	haze 
Tue Feb 2 14:21:26 2010	Los Angeles, CA (90001) 	56 13 	51 10 	84	calm			1011.2 29.87 	3	cloudy	haze 
Tue Feb 2 15:05:46 2010	Los Angeles, CA (90001) 	56 13 	50 10 	81	calm			1011.1 29.87 	3	cloudy	haze 
Tue Feb 2 15:52:12 2010	Los Angeles, CA (90001) 	56 13 	50 10 	81	calm			1011.1 29.87 	3	cloudy	haze 
Tue Feb 2 16:44:42 2010	Los Angeles, CA (90001) 	56 13 	50 10 	81	calm			1011.0 29.86 	3	cloudy	haze 
Tue Feb 2 17:33:08 2010	Los Angeles, CA (90001) 	55 12 	50 10 	83	NNE	3		1011.0 29.86 	2	partly cloudy	haze 
Tue Feb 2 18:17:46 2010	Los Angeles, CA (90001) 	57 13 	50 10 	77	calm			1010.9 29.86 	2	mostly clear	haze 
Tue Feb 2 19:01:56 2010	Los Angeles, CA (90001) 	61 16 	50 10 	67	calm			1010.9 29.86 	2	clear	haze
Tue Feb 2 19:51:10 2010	Los Angeles, CA (90001) 	61 16 	50 10 	67	calm			1010.9 29.86 	2	clear	haze
Tue Feb 2 20:42:30 2010	Los Angeles, CA (90001) 	63 17 	45 7 	52	calm			1010.5 29.85 	5	clear	haze
Tue Feb 2 21:29:20 2010	Los Angeles, CA (90001) 	65 18 	46 7 	50	calm			1009.6 29.82 	5	mostly clear	haze 
Tue Feb 2 22:17:43 2010	Los Angeles, CA (90001) 	64 17 	50 10 	60	N	5		1009.1 29.81 	4	clear	haze
Tue Feb 2 23:01:59 2010	Los Angeles, CA (90001) 	64 17 	50 10 	60	W	4		1008.7 29.80 	5	clear	haze
Tue Feb 2 23:47:01 2010	Los Angeles, CA (90001) 	64 17 	50 10 	60	W	4		1008.7 29.80 	5	clear	haze
Wed Feb 3 00:31:45 2010	Los Angeles, CA (90001) 	64 17 	50 10 	60	N	3		1008.5 29.79 	6	partly cloudy	haze 
Wed Feb 3 01:18:55 2010	Los Angeles, CA (90001) 	64 17 	49 9 	58	N	3		1008.3 29.78 	10	clear	
Wed Feb 3 02:03:42 2010	Los Angeles, CA (90001) 	63 17 	49 9 	60	W	4		1008.4 29.79 	9	clear	
Wed Feb 3 02:52:24 2010	Los Angeles, CA (90001) 	63 17 	49 9 	60	W	4		1008.4 29.79 	9	clear	
Wed Feb 3 03:39:16 2010	Los Angeles, CA (90001) 	60 15 	50 10 	69	W	3		1008.5 29.79 	10	mostly cloudy	
Wed Feb 3 04:27:24 2010	Los Angeles, CA (90001) 	58 14 	49 9 	72	calm			1008.7 29.80 	10	clear	
Wed Feb 3 05:14:09 2010	Los Angeles, CA (90001) 	57 13 	50 10 	77	calm			1008.7 29.80 	9	clear	
Wed Feb 3 06:02:01 2010	Los Angeles, CA (90001) 	56 13 	51 10 	84	calm			1008.6 29.79 	8	clear	
Wed Feb 3 06:48:45 2010	Los Angeles, CA (90001) 	56 13 	51 10 	84	calm			1008.6 29.79 	8	clear	
Wed Feb 3 07:33:23 2010	Los Angeles, CA (90001) 	57 13 	51 10 	81	calm			1008.6 29.79 	8	mostly cloudy	
Wed Feb 3 08:16:33 2010	Los Angeles, CA (90001) 	55 12 	51 10 	87	calm			1008.7 29.80 	8	mostly cloudy	
Wed Feb 3 09:03:00 2010	Los Angeles, CA (90001) 	56 13 	51 10 	84	calm			1008.5 29.79 	7	cloudy	
Wed Feb 3 09:46:20 2010	Los Angeles, CA (90001) 	56 13 	51 10 	84	calm			1008.5 29.79 	7	cloudy	
Wed Feb 3 10:30:11 2010	Los Angeles, CA (90001) 	56 13 	50 10 	81	calm			1008.3 29.78 	7	partly cloudy	
Wed Feb 3 11:17:06 2010	Los Angeles, CA (90001) 	54 12 	49 9 	83	calm			1008.0 29.77 	6	clear	haze
Wed Feb 3 12:01:51 2010	Los Angeles, CA (90001) 	52 11 	48 8 	86	calm			1007.4 29.76 	6	clear	haze
Wed Feb 3 12:45:03 2010	Los Angeles, CA (90001) 	52 11 	48 8 	86	calm			1007.4 29.76 	6	clear	haze
Wed Feb 3 13:28:47 2010	Los Angeles, CA (90001) 	51 10 	46 7 	83	calm			1007.4 29.76 	8	clear	
Wed Feb 3 14:14:53 2010	Los Angeles, CA (90001) 	50 10 	45 7 	83	calm			1007.2 29.75 	7	clear	
Wed Feb 3 15:00:48 2010	Los Angeles, CA (90001) 	50 10 	45 7 	83	calm			1007.3 29.75 	7	clear	
Wed Feb 3 15:45:42 2010	Los Angeles, CA (90001) 	50 10 	45 7 	83	calm			1007.3 29.75 	7	clear	
Wed Feb 3 16:31:33 2010	Los Angeles, CA (90001) 	49 9 	44 6 	83	calm		49	1007.6 29.76 	7	clear	
Wed Feb 3 17:18:45 2010	Los Angeles, CA (90001) 	51 10 	44 6 	77	calm			1007.9 29.77 	7	clear	
Wed Feb 3 18:07:02 2010	Los Angeles, CA (90001) 	57 13 	45 7 	64	calm			1008.8 29.80 	7	clear	
Wed Feb 3 18:50:07 2010	Los Angeles, CA (90001) 	57 13 	45 7 	64	calm			1008.8 29.80 	7	clear	
Wed Feb 3 19:34:26 2010	Los Angeles, CA (90001) 	61 16 	44 6 	54	calm			1008.8 29.80 	8	clear	
Wed Feb 3 20:18:31 2010	Los Angeles, CA (90001) 	64 17 	43 6 	46	calm			1008.4 29.79 	10	clear	
Wed Feb 3 21:02:48 2010	Los Angeles, CA (90001) 	66 18 	48 8 	52	calm			1007.7 29.77 	10	clear	
Wed Feb 3 21:50:56 2010	Los Angeles, CA (90001) 	66 18 	48 8 	52	calm			1007.7 29.77 	10	clear	
Wed Feb 3 22:36:28 2010	Los Angeles, CA (90001) 	69 20 	44 6 	40	N	4		1006.7 29.74 	10	clear	
Wed Feb 3 23:27:22 2010	Los Angeles, CA (90001) 	68 20 	42 5 	39	calm			1005.9 29.71 	10	clear	
Fri Jan 29 08:41:26 2010	Memphis, TN (37501) 	33 0 	22 -5 	63	NE	14	23	1026.4 30.32 	10	cloudy	
Fri Jan 29 09:25:21 2010	Memphis, TN (37501) 	32 0 	22 -5 	66		12	22	1025.8 30.30 	10	cloudy	
Fri Jan 29 11:57:23 2010	Memphis, TN (37501) 	32 0 	21 -6 	63		16	20	1023.9 30.24 	10	cloudy	
Fri Jan 29 12:42:05 2010	Memphis, TN (37501) 	32 0 	21 -6 	63		16	20	1022.9 30.22 	10	cloudy	
Fri Jan 29 13:29:48 2010	Memphis, TN (37501) 	32 0 	21 -6 	63		11	23	1023.8 30.24 	10	cloudy	
Fri Jan 29 14:17:41 2010	Memphis, TN (37501) 	32 0 	21 -6 	63	NE	13	22	1024.3 30.26 	10	cloudy	light rain 
Fri Jan 29 15:02:26 2010	Memphis, TN (37501) 	31 0 	25 -3 	78		10	22	1024.1 30.25 	9	cloudy	light freezing rain 
Fri Jan 29 15:47:59 2010	Memphis, TN (37501) 	31 0 	25 -3 	78		10	22	1024.1 30.25 	9	cloudy	light freezing rain 
Fri Jan 29 16:35:39 2010	Memphis, TN (37501) 	30 -1 	25 -3 	81		13	19	1025.5 30.29 	7	cloudy	light freezing rain 
Fri Jan 29 17:20:08 2010	Memphis, TN (37501) 	30 -1 	26 -3 	85	NE	13	19	1024.8 30.27 	2	cloudy	ice pellets 
Fri Jan 29 18:08:40 2010	Memphis, TN (37501) 	30 -1 	27 -2 	88		15	18	1023.1 30.22 	5	cloudy	light freezing rain 
Fri Jan 29 18:53:40 2010	Memphis, TN (37501) 	30 -1 	27 -2 	88		15	18	1023.1 30.22 	5	cloudy	light freezing rain 
Fri Jan 29 19:45:39 2010	Memphis, TN (37501) 	31 0 	27 -2 	85	ENE	20	18	1019.8 30.12 	8	cloudy	light freezing rain 
Fri Jan 29 20:43:28 2010	Memphis, TN (37501) 	31 0 	27 -2 	85		17	19	1018.5 30.09 	6	cloudy	light freezing rain 
Fri Jan 29 21:28:06 2010	Memphis, TN (37501) 	31 0 	28 -2 	89	ENE	11	21	1017.2 30.05 	5	cloudy	light freezing rain 
Fri Jan 29 22:14:42 2010	Memphis, TN (37501) 	32 0 	28 -2 	85	NNE	11	23	1017.8 30.06 	4	cloudy	light rain 
Fri Jan 29 22:59:37 2010	Memphis, TN (37501) 	32 0 	28 -2 	85	NNE	11	23	1017.8 30.06 	4	cloudy	light rain 
Fri Jan 29 23:43:55 2010	Memphis, TN (37501) 	32 0 	28 -2 	85		16	20	1015.4 29.99 	2	cloudy	light freezing rain 
Mon Feb 1 00:10:54 2010	Memphis, TN (37501) 	36 2 	27 -2 	69	NE	6	30	1026.2 30.31 	10	mostly cloudy	
Mon Feb 1 00:53:51 2010	Memphis, TN (37501) 	36 2 	27 -2 	69	NE	6	30	1026.2 30.31 	10	mostly cloudy	
Mon Feb 1 01:40:08 2010	Memphis, TN (37501) 	34 1 	26 -3 	72		6	28	1026.3 30.32 	10	mostly cloudy	
Mon Feb 1 02:24:06 2010	Memphis, TN (37501) 	33 0 	26 -3 	75	NE	6	27	1026.8 30.33 	10	partly cloudy	
Mon Feb 1 03:07:48 2010	Memphis, TN (37501) 	32 0 	27 -2 	82		4	27	1026.8 30.33 	10	mostly cloudy	
Mon Feb 1 03:52:27 2010	Memphis, TN (37501) 	32 0 	27 -2 	82		4	27	1026.8 30.33 	10	mostly cloudy	
Mon Feb 1 04:37:14 2010	Memphis, TN (37501) 	31 0 	26 -3 	82		5	25	1026.5 30.32 	10	mostly cloudy	
Mon Feb 1 05:20:25 2010	Memphis, TN (37501) 	30 -1 	24 -4 	78		5	24	1026.6 30.32 	9	mostly cloudy	
Mon Feb 1 06:05:17 2010	Memphis, TN (37501) 	30 -1 	23 -5 	75		5	24	1026.4 30.32 	10	mostly cloudy	
Mon Feb 1 06:48:27 2010	Memphis, TN (37501) 	30 -1 	23 -5 	75		5	24	1026.4 30.32 	10	mostly cloudy	
Mon Feb 1 07:32:17 2010	Memphis, TN (37501) 	28 -2 	22 -5 	78	E	5	22	1026.2 30.31 	10	mostly cloudy	
Mon Feb 1 08:15:24 2010	Memphis, TN (37501) 	28 -2 	22 -5 	78	E	6	21	1025.3 30.29 	10	cloudy	
Mon Feb 1 08:59:10 2010	Memphis, TN (37501) 	28 -2 	22 -5 	78	E	6	21	1025.3 30.29 	10	cloudy	
Mon Feb 1 09:42:08 2010	Memphis, TN (37501) 	28 -2 	22 -5 	78	E	4	23	1025.4 30.29 	10	mostly cloudy	
Mon Feb 1 10:25:42 2010	Memphis, TN (37501) 	27 -2 	22 -5 	81	calm		27	1025.4 30.29 	10	mostly cloudy	
Mon Feb 1 11:08:38 2010	Memphis, TN (37501) 	27 -2 	22 -5 	81	calm		27	1025.4 30.29 	10	mostly cloudy	
Mon Feb 1 11:52:05 2010	Memphis, TN (37501) 	27 -2 	22 -5 	81	calm		27	1025.4 30.29 	10	mostly cloudy	
Mon Feb 1 12:35:25 2010	Memphis, TN (37501) 	26 -3 	22 -5 	84	E	4	21	1025.0 30.28 	9	cloudy	
Mon Feb 1 13:19:00 2010	Memphis, TN (37501) 	25 -3 	22 -5 	88	calm		25	1025.1 30.28 	9	mostly cloudy	
Mon Feb 1 14:02:51 2010	Memphis, TN (37501) 	26 -3 	21 -6 	81	calm		26	1025.1 30.28 	7	mostly cloudy	
Mon Feb 1 14:47:58 2010	Memphis, TN (37501) 	26 -3 	21 -6 	81	calm		26	1025.1 30.28 	7	mostly cloudy	
Mon Feb 1 15:31:41 2010	Memphis, TN (37501) 	28 -2 	25 -3 	88	calm		28	1025.0 30.28 	9	cloudy	
Mon Feb 1 16:16:09 2010	Memphis, TN (37501) 	32 0 	27 -2 	82	E	3	29	1025.3 30.29 	10	mostly cloudy	
Mon Feb 1 17:00:59 2010	Memphis, TN (37501) 	37 2 	29 -1 	72	SE	6	32	1024.8 30.27 	10	mostly cloudy	
Mon Feb 1 17:44:58 2010	Memphis, TN (37501) 	37 2 	29 -1 	72	SE	6	32	1024.8 30.27 	10	mostly cloudy	
Mon Feb 1 18:28:28 2010	Memphis, TN (37501) 	40 4 	29 -1 	64	calm		40	1024.4 30.26 	10	mostly cloudy	
Mon Feb 1 19:12:15 2010	Memphis, TN (37501) 	44 6 	30 -1 	57	ESE	5	41	1022.9 30.22 	10	mostly cloudy	
Mon Feb 1 19:57:05 2010	Memphis, TN (37501) 	44 6 	30 -1 	57	ESE	5	41	1022.9 30.22 	10	mostly cloudy	
Mon Feb 1 20:43:31 2010	Memphis, TN (37501) 	46 7 	30 -1 	53	calm		46	1021.9 30.19 	10	cloudy	
Mon Feb 1 21:28:26 2010	Memphis, TN (37501) 	47 8 	29 -1 	49	SSE	4	45	1020.9 30.16 	10	cloudy	
Mon Feb 1 22:11:51 2010	Memphis, TN (37501) 	46 7 	30 -1 	53	SE	3	45	1020.7 30.15 	10	cloudy	
Mon Feb 1 22:55:10 2010	Memphis, TN (37501) 	46 7 	30 -1 	53	SE	3	45	1020.7 30.15 	10	cloudy	
Mon Feb 1 23:41:18 2010	Memphis, TN (37501) 	46 7 	30 -1 	53	SE	3	45	1020.5 30.14 	10	cloudy	
Sat Jan 30 00:27:59 2010	Memphis, TN (37501) 	31 0 	28 -2 	89	NE	11	21	1016.3 30.02 	2	cloudy	light freezing rain 
Sat Jan 30 01:12:09 2010	Memphis, TN (37501) 	31 0 	27 -2 	85	NE	15	19	1015.2 29.99 	3	cloudy	light freezing rain 
Sat Jan 30 01:55:41 2010	Memphis, TN (37501) 	31 0 	27 -2 	85	NE	15	19	1015.2 29.99 	3	cloudy	light freezing rain 
Sat Jan 30 02:40:21 2010	Memphis, TN (37501) 	30 -1 	27 -2 	88	NE	14	19	1014.0 29.95 	4	cloudy	light freezing rain 
Sat Jan 30 03:23:54 2010	Memphis, TN (37501) 	30 -1 	27 -2 	88	NE	14	19	1013.7 29.94 	3	cloudy	light freezing rain 
Sat Jan 30 04:07:48 2010	Memphis, TN (37501) 	30 -1 	27 -2 	88	NE	14	19	1013.7 29.94 	3	cloudy	light freezing rain 
Sat Jan 30 04:51:35 2010	Memphis, TN (37501) 	30 -1 	27 -2 	88	NE	14	19	1013.7 29.94 	3	cloudy	light freezing rain 
Sat Jan 30 05:35:16 2010	Memphis, TN (37501) 	30 -1 	26 -3 	85	NE	10	21	1013.7 29.94 	5	cloudy	light freezing rain 
Sat Jan 30 06:19:23 2010	Memphis, TN (37501) 	29 -1 	26 -3 	89	N	10	19	1013.9 29.95 	6	cloudy	light freezing rain 
Sat Jan 30 07:05:25 2010	Memphis, TN (37501) 	29 -1 	25 -3 	85	N	9	20	1014.1 29.96 	7	cloudy	light freezing rain 
Sat Jan 30 07:48:07 2010	Memphis, TN (37501) 	29 -1 	25 -3 	85	N	9	20	1014.1 29.96 	7	cloudy	light freezing rain 
Sat Jan 30 08:31:20 2010	Memphis, TN (37501) 	28 -2 	24 -4 	85	NNE	13	16	1014.0 29.95 	6	cloudy	light freezing rain 
Sat Jan 30 11:13:06 2010	Memphis, TN (37501) 	25 -3 	21 -6 	85	NNE	11	14	1014.6 29.97 	5	cloudy	haze 
Sat Jan 30 12:00:53 2010	Memphis, TN (37501) 	25 -3 	21 -6 	85	N	8	16	1015.1 29.98 	7	cloudy	
Sat Jan 30 12:44:32 2010	Memphis, TN (37501) 	25 -3 	21 -6 	85	N	8	16	1015.1 29.98 	7	cloudy	
Sat Jan 30 13:27:47 2010	Memphis, TN (37501) 	25 -3 	21 -6 	85	N	10	14	1015.6 30.00 	9	cloudy	
Sat Jan 30 14:11:59 2010	Memphis, TN (37501) 	25 -3 	20 -6 	81	N	8	16	1016.5 30.03 	4	cloudy	light snow 
Sat Jan 30 14:56:01 2010	Memphis, TN (37501) 	25 -3 	20 -6 	81	N	8	16	1016.5 30.03 	4	cloudy	light snow 
Sat Jan 30 15:41:51 2010	Memphis, TN (37501) 	24 -4 	21 -6 	88	N	8	14	1017.0 30.04 	9	cloudy	
Sat Jan 30 16:26:51 2010	Memphis, TN (37501) 	25 -3 	21 -6 	85	NNW	8	16	1018.0 30.07 	10	cloudy	
Sat Jan 30 17:11:16 2010	Memphis, TN (37501) 	25 -3 	21 -6 	85	NNW	11	14	1019.2 30.11 	9	cloudy	
Sat Jan 30 17:54:28 2010	Memphis, TN (37501) 	25 -3 	21 -6 	85	NNW	11	14	1019.2 30.11 	9	cloudy	
Sat Jan 30 18:38:28 2010	Memphis, TN (37501) 	25 -3 	20 -6 	81	NNW	10	14	1019.9 30.13 	6	cloudy	haze 
Sat Jan 30 19:21:46 2010	Memphis, TN (37501) 	25 -3 	21 -6 	85	N	8	16	1019.7 30.12 	9	cloudy	
Sat Jan 30 20:06:00 2010	Memphis, TN (37501) 	25 -3 	21 -6 	85	N	10	14	1019.7 30.12 	10	cloudy	
Sat Jan 30 20:49:06 2010	Memphis, TN (37501) 	25 -3 	21 -6 	85	N	10	14	1019.7 30.12 	10	cloudy	
Sat Jan 30 21:32:54 2010	Memphis, TN (37501) 	26 -3 	21 -6 	81	N	12	15	1019.9 30.13 	9	cloudy	
Sat Jan 30 22:16:08 2010	Memphis, TN (37501) 	27 -2 	22 -5 	81	N	10	17	1020.3 30.14 	9	cloudy	
Sat Jan 30 23:01:42 2010	Memphis, TN (37501) 	28 -2 	23 -5 	81	N	8	19	1020.8 30.15 	10	cloudy	
Sat Jan 30 23:46:27 2010	Memphis, TN (37501) 	28 -2 	23 -5 	81	N	8	19	1020.8 30.15 	10	cloudy	
Sun Jan 31 00:30:22 2010	Memphis, TN (37501) 	28 -2 	23 -5 	81	N	9	19	1021.4 30.17 	10	mostly cloudy	
Sun Jan 31 01:21:10 2010	Memphis, TN (37501) 	26 -3 	21 -6 	81	N	6	18	1021.9 30.19 	10	clear	
Sun Jan 31 02:05:09 2010	Memphis, TN (37501) 	26 -3 	20 -6 	77	NNW	3	22	1022.3 30.20 	10	clear	
Sun Jan 31 02:48:36 2010	Memphis, TN (37501) 	26 -3 	20 -6 	77	NNW	3	22	1022.3 30.20 	10	clear	
Sun Jan 31 03:32:28 2010	Memphis, TN (37501) 	25 -3 	20 -6 	81	N	3	21	1022.7 30.21 	10	clear	
Sun Jan 31 04:15:55 2010	Memphis, TN (37501) 	24 -4 	18 -7 	77	N	4	18	1023.4 30.23 	9	clear	
Sun Jan 31 05:00:27 2010	Memphis, TN (37501) 	24 -4 	18 -7 	77	calm		24	1024.3 30.26 	10	clear	
Sun Jan 31 05:46:32 2010	Memphis, TN (37501) 	24 -4 	18 -7 	77	calm		24	1024.3 30.26 	10	clear	
Sun Jan 31 06:31:45 2010	Memphis, TN (37501) 	24 -4 	18 -7 	77	calm		24	1025.0 30.28 	10	clear	
Sun Jan 31 07:14:39 2010	Memphis, TN (37501) 	24 -4 	18 -7 	77	calm		24	1025.1 30.28 	10	clear	
Sun Jan 31 08:01:22 2010	Memphis, TN (37501) 	22 -5 	16 -8 	78	N	6	13	1025.0 30.28 	10	clear	
Sun Jan 31 08:46:03 2010	Memphis, TN (37501) 	22 -5 	16 -8 	78	N	6	13	1025.0 30.28 	10	clear	
Sun Jan 31 09:29:18 2010	Memphis, TN (37501) 	22 -5 	16 -8 	78	calm		22	1025.5 30.29 	10	clear	
Sun Jan 31 10:12:30 2010	Memphis, TN (37501) 	20 -6 	15 -9 	81	calm		20	1025.9 30.30 	9	clear	
Sun Jan 31 10:56:15 2010	Memphis, TN (37501) 	20 -6 	15 -9 	81	calm		20	1025.9 30.30 	9	clear	
Sun Jan 31 11:39:42 2010	Memphis, TN (37501) 	21 -6 	16 -8 	81	calm		21	1025.9 30.30 	9	clear	
Sun Jan 31 12:23:23 2010	Memphis, TN (37501) 	21 -6 	15 -9 	78	calm		21	1025.8 30.30 	9	clear	
Sun Jan 31 13:06:46 2010	Memphis, TN (37501) 	20 -6 	15 -9 	81	calm		20	1026.3 30.32 	10	clear	
Sun Jan 31 13:50:21 2010	Memphis, TN (37501) 	20 -6 	15 -9 	81	calm		20	1026.3 30.32 	10	clear	
Sun Jan 31 14:33:12 2010	Memphis, TN (37501) 	20 -6 	15 -9 	81	calm		20	1026.9 30.33 	10	clear	
Sun Jan 31 15:17:19 2010	Memphis, TN (37501) 	22 -5 	18 -7 	85	calm		22	1027.9 30.36 	10	clear	
Sun Jan 31 16:00:44 2010	Memphis, TN (37501) 	25 -3 	21 -6 	85	calm		25	1028.3 30.37 	10	clear	
Sun Jan 31 16:50:33 2010	Memphis, TN (37501) 	25 -3 	21 -6 	85	calm		25	1028.3 30.37 	10	clear	
Sun Jan 31 17:34:15 2010	Memphis, TN (37501) 	29 -1 	23 -5 	78	NE	3	25	1028.4 30.38 	10	clear	
Sun Jan 31 18:19:14 2010	Memphis, TN (37501) 	31 0 	24 -4 	76	ENE	3	27	1028.5 30.38 	10	mostly clear	
Sun Jan 31 19:03:00 2010	Memphis, TN (37501) 	32 0 	24 -4 	72	E	5	26	1027.4 30.35 	10	partly cloudy	
Sun Jan 31 19:48:23 2010	Memphis, TN (37501) 	32 0 	24 -4 	72	E	5	26	1027.4 30.35 	10	partly cloudy	
Sun Jan 31 20:31:22 2010	Memphis, TN (37501) 	34 1 	24 -4 	67	calm		34	1026.9 30.33 	10	partly cloudy	
Sun Jan 31 21:15:35 2010	Memphis, TN (37501) 	36 2 	26 -3 	67	calm		36	1026.6 30.32 	10	partly cloudy	
Sun Jan 31 21:58:49 2010	Memphis, TN (37501) 	36 2 	26 -3 	67	calm		36	1026.6 30.32 	10	partly cloudy	
Sun Jan 31 22:43:37 2010	Memphis, TN (37501) 	37 2 	26 -3 	64	NNE	4	33	1026.4 30.32 	10	mostly clear	
Sun Jan 31 23:26:57 2010	Memphis, TN (37501) 	37 2 	26 -3 	64	N	3	34	1026.5 30.32 	10	partly cloudy	
Thu Feb 4 00:12:17 2010	Memphis, TN (37501) 	44 6 	29 -1 	55	N	8	39	1024.2 30.25 	10	cloudy	
Thu Feb 4 00:56:22 2010	Memphis, TN (37501) 	44 6 	29 -1 	55	N	8	39	1024.2 30.25 	10	cloudy	
Thu Feb 4 01:39:37 2010	Memphis, TN (37501) 	43 6 	28 -2 	55	NE	9	37	1025.4 30.29 	10	cloudy	
Thu Feb 4 02:27:22 2010	Memphis, TN (37501) 	42 5 	28 -2 	57	NE	11	35	1025.0 30.28 	10	cloudy	
Thu Feb 4 03:10:30 2010	Memphis, TN (37501) 	40 4 	30 -1 	67	NNE	4	37	1025.0 30.28 	10	cloudy	
Thu Feb 4 03:54:59 2010	Memphis, TN (37501) 	40 4 	30 -1 	67	NNE	4	37	1025.0 30.28 	10	cloudy	
Thu Feb 4 04:38:17 2010	Memphis, TN (37501) 	40 4 	28 -2 	62	NE	10	33	1024.5 30.26 	10	cloudy	
Thu Feb 4 05:21:37 2010	Memphis, TN (37501) 	40 4 	28 -2 	62	NE	10	33	1023.7 30.24 	10	cloudy	
Thu Feb 4 06:04:28 2010	Memphis, TN (37501) 	39 3 	28 -2 	64		9	32	1023.7 30.24 	10	cloudy	
Thu Feb 4 06:47:30 2010	Memphis, TN (37501) 	39 3 	28 -2 	64		9	32	1023.7 30.24 	10	cloudy	
Thu Feb 4 07:31:08 2010	Memphis, TN (37501) 	39 3 	28 -2 	64	NE	7	33	1024.1 30.25 	10	cloudy	
Thu Feb 4 08:13:42 2010	Memphis, TN (37501) 	40 4 	28 -2 	62	ENE	8	34	1023.1 30.22 	10	cloudy	
Thu Feb 4 08:57:24 2010	Memphis, TN (37501) 	40 4 	28 -2 	62	ENE	8	34	1023.1 30.22 	10	cloudy	
Thu Feb 4 09:41:19 2010	Memphis, TN (37501) 	39 3 	28 -2 	64		6	34	1023.0 30.22 	10	cloudy	
Thu Feb 4 10:24:58 2010	Memphis, TN (37501) 	40 4 	29 -1 	64		7	34	1023.0 30.22 	10	cloudy	
Thu Feb 4 11:10:54 2010	Memphis, TN (37501) 	40 4 	29 -1 	64		7	34	1022.7 30.21 	10	cloudy	
Thu Feb 4 11:54:25 2010	Memphis, TN (37501) 	40 4 	29 -1 	64		7	34	1022.7 30.21 	10	cloudy	
Thu Feb 4 12:37:31 2010	Memphis, TN (37501) 	39 3 	29 -1 	67	NE	7	33	1022.4 30.20 	9	cloudy	
Thu Feb 4 13:21:36 2010	Memphis, TN (37501) 	38 3 	29 -1 	70	NE	7	32	1022.5 30.20 	9	cloudy	light rain 
Thu Feb 4 14:06:25 2010	Memphis, TN (37501) 	38 3 	30 -1 	73	NE	6	33	1022.6 30.21 	8	cloudy	light rain 
Thu Feb 4 14:59:11 2010	Memphis, TN (37501) 	38 3 	30 -1 	73	NE	6	33	1022.6 30.21 	8	cloudy	light rain 
Thu Jan 28 15:38:50 2010	Memphis, TN (37501) 	44 6 	34 1 	67	N	11	38	1027.5 30.35 	10	cloudy	
Thu Jan 28 15:59:35 2010	Memphis, TN (37501) 	44 6 	34 1 	67	N	11	38	1027.5 30.35 	10	cloudy	
Thu Jan 28 16:48:58 2010	Memphis, TN (37501) 	42 5 	34 1 	73	N	9	36	1029.1 30.40 	10	cloudy	
Thu Jan 28 17:13:13 2010	Memphis, TN (37501) 	41 5 	32 0 	70	NNE	13	33	1029.9 30.42 	10	cloudy	
Thu Jan 28 17:29:12 2010	Memphis, TN (37501) 	41 5 	32 0 	70	NNE	13	33	1029.9 30.42 	10	cloudy	
Tue Feb 2 00:28:09 2010	Memphis, TN (37501) 	44 6 	31 0 	59	S	3	43	1020.5 30.14 	10	cloudy	
Tue Feb 2 01:13:46 2010	Memphis, TN (37501) 	44 6 	31 0 	59	SE	3	43	1020.6 30.15 	10	cloudy	
Tue Feb 2 01:56:55 2010	Memphis, TN (37501) 	44 6 	31 0 	59	SE	3	43	1020.6 30.15 	10	cloudy	
Tue Feb 2 02:40:57 2010	Memphis, TN (37501) 	42 5 	32 0 	67	calm		42	1021.0 30.16 	10	cloudy	
Tue Feb 2 03:24:29 2010	Memphis, TN (37501) 	40 4 	32 0 	73	calm		40	1020.4 30.14 	10	cloudy	
Tue Feb 2 04:08:16 2010	Memphis, TN (37501) 	40 4 	32 0 	73	calm		40	1020.0 30.13 	10	cloudy	
Tue Feb 2 04:51:49 2010	Memphis, TN (37501) 	40 4 	32 0 	73	calm		40	1020.0 30.13 	10	cloudy	
Tue Feb 2 05:35:12 2010	Memphis, TN (37501) 	41 5 	33 0 	73	SE	4	38	1019.5 30.11 	10	cloudy	
Tue Feb 2 06:18:25 2010	Memphis, TN (37501) 	41 5 	34 1 	76	S	5	37	1019.6 30.12 	10	cloudy	
Tue Feb 2 07:05:36 2010	Memphis, TN (37501) 	41 5 	34 1 	76	SE	5	37	1019.1 30.10 	10	cloudy	
Tue Feb 2 07:48:37 2010	Memphis, TN (37501) 	41 5 	34 1 	76	SE	5	37	1019.1 30.10 	10	cloudy	
Tue Feb 2 08:31:49 2010	Memphis, TN (37501) 	41 5 	35 1 	79	calm		41	1019.4 30.11 	10	cloudy	
Tue Feb 2 09:15:18 2010	Memphis, TN (37501) 	40 4 	34 1 	79	calm		40	1019.5 30.11 	10	cloudy	
Tue Feb 2 09:58:50 2010	Memphis, TN (37501) 	40 4 	34 1 	79	calm		40	1019.5 30.11 	10	cloudy	
Tue Feb 2 10:42:24 2010	Memphis, TN (37501) 	39 3 	33 0 	79	calm		39	1019.5 30.11 	10	mostly cloudy	
Tue Feb 2 11:26:30 2010	Memphis, TN (37501) 	38 3 	33 0 	83	calm		38	1019.2 30.11 	10	mostly cloudy	
Tue Feb 2 12:10:29 2010	Memphis, TN (37501) 	36 2 	32 0 	85	W	4	32	1019.6 30.12 	10	partly cloudy	
Tue Feb 2 12:54:25 2010	Memphis, TN (37501) 	36 2 	32 0 	85	W	4	32	1019.6 30.12 	10	partly cloudy	
Tue Feb 2 13:37:43 2010	Memphis, TN (37501) 	36 2 	33 0 	89	calm		36	1019.6 30.12 	9	mostly cloudy	
Tue Feb 2 14:21:26 2010	Memphis, TN (37501) 	37 2 	33 0 	86	calm		37	1019.6 30.12 	9	cloudy	
Tue Feb 2 15:05:46 2010	Memphis, TN (37501) 	39 3 	34 1 	82	calm		39	1019.9 30.13 	9	mostly cloudy	
Tue Feb 2 15:52:12 2010	Memphis, TN (37501) 	39 3 	34 1 	82	calm		39	1019.9 30.13 	9	mostly cloudy	
Tue Feb 2 16:44:42 2010	Memphis, TN (37501) 	39 3 	34 1 	82	W	4	36	1020.8 30.15 	8	cloudy	
Tue Feb 2 17:33:08 2010	Memphis, TN (37501) 	41 5 	34 1 	76	W	3	39	1020.8 30.15 	9	cloudy	
Tue Feb 2 18:17:45 2010	Memphis, TN (37501) 	44 6 	35 1 	70	NW	6	40	1021.2 30.16 	10	cloudy	
Tue Feb 2 19:01:55 2010	Memphis, TN (37501) 	45 7 	35 1 	68	WNW	8	40	1020.9 30.16 	10	cloudy	
Tue Feb 2 19:51:10 2010	Memphis, TN (37501) 	45 7 	35 1 	68	WNW	8	40	1020.9 30.16 	10	cloudy	
Tue Feb 2 20:42:29 2010	Memphis, TN (37501) 	45 7 	34 1 	65	NNW	10	39	1020.9 30.16 	10	cloudy	
Tue Feb 2 21:29:20 2010	Memphis, TN (37501) 	45 7 	33 0 	63	WNW	7	41	1020.5 30.14 	10	cloudy	
Tue Feb 2 22:17:43 2010	Memphis, TN (37501) 	44 6 	33 0 	65	NW	9	39	1020.8 30.15 	10	cloudy	
Tue Feb 2 23:01:59 2010	Memphis, TN (37501) 	43 6 	33 0 	68	NNW	7	38	1021.1 30.16 	10	cloudy	
Tue Feb 2 23:47:00 2010	Memphis, TN (37501) 	43 6 	33 0 	68	NNW	7	38	1021.1 30.16 	10	cloudy	
Wed Feb 3 00:31:44 2010	Memphis, TN (37501) 	41 5 	32 0 	70	NNW	7	36	1021.7 30.18 	10	cloudy	
Wed Feb 3 01:18:54 2010	Memphis, TN (37501) 	41 5 	32 0 	70	NNW	6	36	1022.2 30.19 	10	cloudy	
Wed Feb 3 02:03:41 2010	Memphis, TN (37501) 	39 3 	31 0 	72	NW	3	37	1022.9 30.22 	10	mostly cloudy	
Wed Feb 3 02:52:24 2010	Memphis, TN (37501) 	39 3 	31 0 	72	NW	3	37	1022.9 30.22 	10	mostly cloudy	
Wed Feb 3 03:39:15 2010	Memphis, TN (37501) 	37 2 	30 -1 	76	WNW	3	34	1023.8 30.24 	10	clear	
Wed Feb 3 04:27:24 2010	Memphis, TN (37501) 	36 2 	30 -1 	79	calm		36	1023.9 30.24 	10	clear	
Wed Feb 3 05:14:09 2010	Memphis, TN (37501) 	36 2 	29 -1 	75	calm		36	1024.1 30.25 	10	clear	
Wed Feb 3 06:02:00 2010	Memphis, TN (37501) 	32 0 	27 -2 	82	calm		32	1023.9 30.24 	10	clear	
Wed Feb 3 06:48:44 2010	Memphis, TN (37501) 	32 0 	27 -2 	82	calm		32	1023.9 30.24 	10	clear	
Wed Feb 3 07:33:23 2010	Memphis, TN (37501) 	31 0 	26 -3 	82	calm		31	1024.4 30.26 	10	clear	
Wed Feb 3 08:16:33 2010	Memphis, TN (37501) 	33 0 	27 -2 	78	NNE	3	30	1024.3 30.26 	10	clear	
Wed Feb 3 09:03:00 2010	Memphis, TN (37501) 	30 -1 	26 -3 	85	calm		30	1024.2 30.25 	9	clear	
Wed Feb 3 09:46:20 2010	Memphis, TN (37501) 	30 -1 	26 -3 	85	calm		30	1024.2 30.25 	9	clear	
Wed Feb 3 10:30:11 2010	Memphis, TN (37501) 	29 -1 	25 -3 	85	SSW	3	25	1024.5 30.26 	9	clear	
Wed Feb 3 11:17:06 2010	Memphis, TN (37501) 	29 -1 	26 -3 	89	calm		29	1024.4 30.26 	9	clear	
Wed Feb 3 12:01:50 2010	Memphis, TN (37501) 	29 -1 	25 -3 	85	calm		29	1024.1 30.25 	9	mostly clear	
Wed Feb 3 12:45:02 2010	Memphis, TN (37501) 	29 -1 	26 -3 	89	calm		29	1024.4 30.26 	9	clear	
Wed Feb 3 13:28:47 2010	Memphis, TN (37501) 	28 -2 	24 -4 	85	calm		28	1025.6 30.29 	9	partly cloudy	
Wed Feb 3 14:14:53 2010	Memphis, TN (37501) 	28 -2 	25 -3 	88	calm		28	1026.5 30.32 	5	partly cloudy	haze 
Wed Feb 3 15:00:48 2010	Memphis, TN (37501) 	31 0 	27 -2 	85	calm		31	1026.1 30.31 	5	mostly clear	haze 
Wed Feb 3 15:45:42 2010	Memphis, TN (37501) 	31 0 	27 -2 	85	calm		31	1026.1 30.31 	5	mostly clear	haze 
Wed Feb 3 16:31:33 2010	Memphis, TN (37501) 	37 2 	32 0 	82	NNE	5	32	1026.7 30.33 	6	mostly cloudy	haze 
Wed Feb 3 17:18:45 2010	Memphis, TN (37501) 	40 4 	30 -1 	67	NE	6	35	1026.9 30.33 	10	mostly cloudy	
Wed Feb 3 18:07:02 2010	Memphis, TN (37501) 	43 6 	30 -1 	60	NNE	4	40	1026.3 30.32 	10	partly cloudy	
Wed Feb 3 18:50:06 2010	Memphis, TN (37501) 	43 6 	30 -1 	60	NNE	4	40	1026.3 30.32 	10	partly cloudy	
Wed Feb 3 19:34:25 2010	Memphis, TN (37501) 	45 7 	30 -1 	55	NNE	6	41	1025.5 30.29 	10	partly cloudy	
Wed Feb 3 20:18:31 2010	Memphis, TN (37501) 	48 8 	30 -1 	49	NNE	7	44	1024.7 30.27 	10	mostly cloudy	
Wed Feb 3 21:02:47 2010	Memphis, TN (37501) 	47 8 	30 -1 	52		6	44	1024.0 30.25 	10	cloudy	
Wed Feb 3 21:50:55 2010	Memphis, TN (37501) 	47 8 	30 -1 	52		6	44	1024.0 30.25 	10	cloudy	
Wed Feb 3 22:36:28 2010	Memphis, TN (37501) 	48 8 	29 -1 	47		10	43	1023.3 30.23 	10	cloudy	
Wed Feb 3 23:27:22 2010	Memphis, TN (37501) 	47 8 	29 -1 	49		9	42	1023.1 30.22 	10	cloudy	
Fri Jan 29 08:41:36 2010	Milwaukee, WI (53201) 	15-May	-11 -23 	47	NW	5	-6	1035.0 30.57 	10	mostly clear	
Fri Jan 29 09:25:31 2010	Milwaukee, WI (53201) 	15-Apr						1035.2 30.58 	10	mostly clear	
Fri Jan 29 11:57:33 2010	Milwaukee, WI (53201) 	15-Apr	-9 -22 	54	NW	7	-9	1034.4 30.55 	10	mostly clear	
Fri Jan 29 12:42:15 2010	Milwaukee, WI (53201) 	16-Mar	-9 -22 	56	WNW	6	-9	1034.6 30.56 	10	clear	
Fri Jan 29 13:29:58 2010	Milwaukee, WI (53201) 	16-Mar	-9 -22 	56	WNW	6	-9	1035.3 30.58 	10	mostly clear	
Fri Jan 29 14:17:51 2010	Milwaukee, WI (53201) 	16-Mar	-8 -22 	59	WNW	6	-9	1035.2 30.58 	10	partly cloudy	
Fri Jan 29 15:02:38 2010	Milwaukee, WI (53201) 	15-Apr	-8 -22 	57	NW	6	-8	1035.0 30.57 	10	partly cloudy	
Fri Jan 29 15:48:10 2010	Milwaukee, WI (53201) 	15-Apr	-8 -22 	57	NW	6	-8	1035.0 30.57 	10	partly cloudy	
Fri Jan 29 16:35:54 2010	Milwaukee, WI (53201) 	13-Jul	-6 -21 	54	NW	7	-6	1034.3 30.55 	10	partly cloudy	
Fri Jan 29 17:20:23 2010	Milwaukee, WI (53201) 	12-Oct	-6 -21 	47	N	3	4	1034.7 30.56 	10	partly cloudy	
Fri Jan 29 18:08:51 2010	Milwaukee, WI (53201) 	11-Dec	-4 -20 	48	calm		12	1035.2 30.58 	10	partly cloudy	
Fri Jan 29 18:53:52 2010	Milwaukee, WI (53201) 	11-Dec	-4 -20 	48	calm		12	1035.2 30.58 	10	partly cloudy	
Fri Jan 29 19:45:50 2010	Milwaukee, WI (53201) 	14 -10 	-5 -20 	42	calm		14	1034.5 30.56 	10	partly cloudy	
Fri Jan 29 20:43:39 2010	Milwaukee, WI (53201) 	15 -9 	-6 -21 	38	calm		15	1033.3 30.52 	10	partly cloudy	
Fri Jan 29 21:28:17 2010	Milwaukee, WI (53201) 	17 -8 	16-Feb	51		6	8	1032.1 30.49 	10	partly cloudy	
Fri Jan 29 22:14:52 2010	Milwaukee, WI (53201) 	16 -8 	17-Jan	51	NE	7	5	1031.4 30.47 	10	partly cloudy	
Fri Jan 29 22:59:48 2010	Milwaukee, WI (53201) 	16 -8 	17-Jan	51	NE	7	5	1031.4 30.47 	10	partly cloudy	
Fri Jan 29 23:44:05 2010	Milwaukee, WI (53201) 	16 -8 	17-Jan	51	ESE	4	9	1031.5 30.47 	10	partly cloudy	
Mon Feb 1 00:11:04 2010	Milwaukee, WI (53201) 	23 -5 	15-May	45	WNW	11	11	1024.8 30.27 	10	mostly cloudy	
Mon Feb 1 00:54:01 2010	Milwaukee, WI (53201) 	23 -5 	15-May	45	WNW	11	11	1024.8 30.27 	10	mostly cloudy	
Mon Feb 1 01:40:21 2010	Milwaukee, WI (53201) 	22 -5 	14-Jun	50	WNW	7	13	1025.4 30.29 	10	mostly clear	
Mon Feb 1 02:24:18 2010	Milwaukee, WI (53201) 	20 -6 	14-Jun	54	NW	7	10	1025.9 30.30 	10	mostly clear	
Mon Feb 1 03:07:58 2010	Milwaukee, WI (53201) 	19 -7 	15-May	54	NW	6	10	1026.3 30.32 	10	mostly clear	
Mon Feb 1 03:52:38 2010	Milwaukee, WI (53201) 	19 -7 	15-May	54	NW	6	10	1026.3 30.32 	10	mostly clear	
Mon Feb 1 04:37:26 2010	Milwaukee, WI (53201) 	18 -7 	15-May	56	NW	7	8	1026.6 30.32 	10	partly cloudy	
Mon Feb 1 05:20:36 2010	Milwaukee, WI (53201) 	17 -8 	15-May	58	NW	7	7	1026.9 30.33 	10	mostly clear	
Mon Feb 1 06:05:28 2010	Milwaukee, WI (53201) 	16 -8 	15-Apr	58	NW	6	6	1027.0 30.34 	10	partly cloudy	
Mon Feb 1 06:48:39 2010	Milwaukee, WI (53201) 	16 -8 	15-Apr	58	NW	6	6	1027.0 30.34 	10	partly cloudy	
Mon Feb 1 07:32:27 2010	Milwaukee, WI (53201) 	15 -9 	15-Apr	61	NW	8	3	1027.1 30.34 	10	partly cloudy	
Mon Feb 1 08:15:33 2010	Milwaukee, WI (53201) 	14 -10 	16-Mar	61	NW	5	5	1027.3 30.35 	10	mostly clear	
Mon Feb 1 08:59:19 2010	Milwaukee, WI (53201) 	14 -10 	16-Mar	61	NW	5	5	1027.3 30.35 	10	mostly clear	
Mon Feb 1 09:42:18 2010	Milwaukee, WI (53201) 	14 -10 	16-Mar	61	W	3	8	1027.6 30.35 	10	clear	
Mon Feb 1 10:25:51 2010	Milwaukee, WI (53201) 	11-Dec	16-Mar	67	calm		12	1027.2 30.34 	10	clear	
Mon Feb 1 11:08:48 2010	Milwaukee, WI (53201) 	13 -10 	16-Mar	64	WNW	4	5	1027.3 30.35 	10	mostly clear	
Mon Feb 1 11:52:14 2010	Milwaukee, WI (53201) 	13 -10 	16-Mar	64	WNW	4	5	1027.3 30.35 	10	mostly clear	
Mon Feb 1 12:35:38 2010	Milwaukee, WI (53201) 	14 -10 	15-Apr	63	NW	3	8	1027.2 30.34 	9	clear	
Mon Feb 1 13:19:09 2010	Milwaukee, WI (53201) 	15 -9 	15-May	64	NW	3	9	1027.1 30.34 	8	partly cloudy	
Mon Feb 1 14:03:01 2010	Milwaukee, WI (53201) 	16 -8 	14-Jun	64	WNW	3	10	1027.6 30.35 	8	cloudy	
Mon Feb 1 14:48:07 2010	Milwaukee, WI (53201) 	16 -8 	14-Jun	64	WNW	3	10	1027.6 30.35 	8	cloudy	
Mon Feb 1 15:31:51 2010	Milwaukee, WI (53201) 	16 -8 	13-Jul	67	N	3	10	1028.0 30.37 	8	cloudy	
Mon Feb 1 16:16:19 2010	Milwaukee, WI (53201) 	19 -7 	12-Sep	64	calm		19	1027.8 30.36 	6	cloudy	haze 
Mon Feb 1 17:01:20 2010	Milwaukee, WI (53201) 	21 -6 	12-Oct	62	calm		21	1027.6 30.35 	6	cloudy	haze 
Mon Feb 1 17:45:09 2010	Milwaukee, WI (53201) 	21 -6 	12-Oct	62	calm		21	1027.6 30.35 	6	cloudy	haze 
Mon Feb 1 18:28:38 2010	Milwaukee, WI (53201) 	23 -5 	12-Sep	54	calm		23	1027.3 30.35 	7	cloudy	
Mon Feb 1 19:12:25 2010	Milwaukee, WI (53201) 	24 -4 	12-Sep	52	calm		24	1026.3 30.32 	9	cloudy	
Mon Feb 1 19:57:16 2010	Milwaukee, WI (53201) 	24 -4 	12-Sep	52	calm		24	1026.3 30.32 	9	cloudy	
Mon Feb 1 20:43:41 2010	Milwaukee, WI (53201) 	25 -3 	12-Sep	50	calm		25	1025.3 30.29 	10	cloudy	
Mon Feb 1 21:28:36 2010	Milwaukee, WI (53201) 	28 -2 	11-Nov	48	ENE	4	23	1024.6 30.27 	8	mostly cloudy	
Mon Feb 1 22:12:01 2010	Milwaukee, WI (53201) 	27 -2 	11-Dec	53	E	4	22	1024.4 30.26 	8	cloudy	
Mon Feb 1 22:55:19 2010	Milwaukee, WI (53201) 	27 -2 	11-Dec	53	E	4	22	1024.4 30.26 	8	cloudy	
Mon Feb 1 23:41:28 2010	Milwaukee, WI (53201) 	26 -3 	11-Dec	55	E	6	18	1024.2 30.25 	9	mostly cloudy	
Sat Jan 30 00:28:09 2010	Milwaukee, WI (53201) 	15 -9 	15-Apr	61	NNE	3	9	1031.6 30.47 	10	partly cloudy	
Sat Jan 30 01:12:19 2010	Milwaukee, WI (53201) 	15 -9 	15-May	64	calm		15	1031.6 30.47 	10	partly cloudy	
Sat Jan 30 01:55:51 2010	Milwaukee, WI (53201) 	15 -9 	15-May	64	calm		15	1031.6 30.47 	10	partly cloudy	
Sat Jan 30 02:40:32 2010	Milwaukee, WI (53201) 	16 -8 	14-Jun	64	NNW	4	9	1031.0 30.45 	10	mostly cloudy	
Sat Jan 30 03:24:04 2010	Milwaukee, WI (53201) 	16 -8 	14-Jun	64	NNW	3	10	1030.1 30.43 	10	mostly cloudy	
Sat Jan 30 04:07:58 2010	Milwaukee, WI (53201) 	16 -8 	15-May	61	NW	5	7	1029.9 30.42 	10	cloudy	
Sat Jan 30 04:51:45 2010	Milwaukee, WI (53201) 	16 -8 	15-May	61	NW	5	7	1029.9 30.42 	10	cloudy	
Sat Jan 30 05:35:27 2010	Milwaukee, WI (53201) 	16 -8 	15-Apr	58	WNW	6	6	1029.5 30.41 	10	cloudy	
Sat Jan 30 06:19:36 2010	Milwaukee, WI (53201) 	16 -8 	15-Apr	58	WNW	7	5	1028.9 30.39 	10	cloudy	
Sat Jan 30 07:05:34 2010	Milwaukee, WI (53201) 	16 -8 	15-Apr	58	NW	9	4	1028.9 30.39 	10	cloudy	
Sat Jan 30 07:48:16 2010	Milwaukee, WI (53201) 	16 -8 	15-Apr	58	NW	9	4	1028.9 30.39 	10	cloudy	
Sat Jan 30 08:31:29 2010	Milwaukee, WI (53201) 	16 -8 	15-May	61	NNW	8	4	1028.3 30.37 	9	cloudy	light snow 
Sat Jan 30 11:13:15 2010	Milwaukee, WI (53201) 	17 -8 	12-Oct	73	NNW	6	8	1026.8 30.33 	4	cloudy	light snow 
Sat Jan 30 12:01:04 2010	Milwaukee, WI (53201) 	18 -7 	11-Nov	73	NNW	7	8	1026.3 30.32 	4	cloudy	light snow 
Sat Jan 30 12:44:42 2010	Milwaukee, WI (53201) 	18 -7 	11-Nov	73	NNW	7	8	1026.3 30.32 	4	cloudy	light snow 
Sat Jan 30 13:27:57 2010	Milwaukee, WI (53201) 	19 -7 	13 -10 	77	NNW	7	9	1026.1 30.31 	7	cloudy	light snow 
Sat Jan 30 14:12:08 2010	Milwaukee, WI (53201) 	19 -7 	13 -10 	77	NW	4	12	1026.0 30.31 	6	cloudy	light snow 
Sat Jan 30 14:56:11 2010	Milwaukee, WI (53201) 	19 -7 	13 -10 	77	NW	4	12	1026.0 30.31 	6	cloudy	light snow 
Sat Jan 30 15:42:01 2010	Milwaukee, WI (53201) 	19 -7 	13 -10 	77	WNW	4	12	1026.1 30.31 	7	cloudy	light snow 
Sat Jan 30 16:27:01 2010	Milwaukee, WI (53201) 	19 -7 	14 -10 	80	NW	4	12	1026.2 30.31 	2	cloudy	light snow 
Sat Jan 30 17:11:27 2010	Milwaukee, WI (53201) 	20 -6 	15 -9 	81	WNW	4	13	1026.2 30.31 	2	cloudy	light snow 
Sat Jan 30 17:54:40 2010	Milwaukee, WI (53201) 	20 -6 	15 -9 	81	WNW	4	13	1026.2 30.31 	2	cloudy	light snow 
Sat Jan 30 18:38:38 2010	Milwaukee, WI (53201) 	22 -5 	17 -8 	81	calm		22	1025.8 30.30 	2	cloudy	light snow 
Sat Jan 30 19:21:57 2010	Milwaukee, WI (53201) 	22 -5 	17 -8 	81	calm		22	1025.2 30.28 	2	cloudy	light snow 
Sat Jan 30 20:06:12 2010	Milwaukee, WI (53201) 	23 -5 	18 -7 	81	calm		23	1024.1 30.25 	2	cloudy	light snow 
Sat Jan 30 20:49:18 2010	Milwaukee, WI (53201) 	23 -5 	18 -7 	81	calm		23	1024.1 30.25 	2	cloudy	light snow 
Sat Jan 30 21:33:04 2010	Milwaukee, WI (53201) 	24 -4 	14 -10 	65	N	3	20	1023.5 30.23 	10	mostly cloudy	
Sat Jan 30 22:16:18 2010	Milwaukee, WI (53201) 	23 -5 	16 -8 	74	S	6	15	1023.4 30.23 	10	cloudy	
Sat Jan 30 23:02:00 2010	Milwaukee, WI (53201) 	23 -5 	16 -8 	74	SSW	5	16	1023.6 30.24 	9	cloudy	
Sat Jan 30 23:46:38 2010	Milwaukee, WI (53201) 	23 -5 	16 -8 	74	SSW	5	16	1023.6 30.24 	9	cloudy	
Sun Jan 31 00:30:35 2010	Milwaukee, WI (53201) 	23 -5 	15 -9 	71	SSW	6	15	1023.3 30.23 	10	cloudy	
Sun Jan 31 01:21:19 2010	Milwaukee, WI (53201) 	22 -5 	15 -9 	75	SSW	5	14	1023.0 30.22 	10	cloudy	
Sun Jan 31 02:05:20 2010	Milwaukee, WI (53201) 	22 -5 	15 -9 	75	SW	6	13	1023.1 30.22 	10	cloudy	
Sun Jan 31 02:48:46 2010	Milwaukee, WI (53201) 	22 -5 	15 -9 	75	SW	6	13	1023.1 30.22 	10	cloudy	
Sun Jan 31 03:32:38 2010	Milwaukee, WI (53201) 	22 -5 	15 -9 	75	SW	5	14	1022.6 30.21 	10	mostly cloudy	
Sun Jan 31 04:16:05 2010	Milwaukee, WI (53201) 	23 -5 	14 -10 	68	W	5	16	1022.5 30.20 	10	cloudy	
Sun Jan 31 05:00:43 2010	Milwaukee, WI (53201) 	22 -5 	11-Dec	65	W	5	14	1022.3 30.20 	10	cloudy	
Sun Jan 31 05:46:45 2010	Milwaukee, WI (53201) 	22 -5 	11-Dec	65	W	5	14	1022.3 30.20 	10	cloudy	
Sun Jan 31 06:31:55 2010	Milwaukee, WI (53201) 	21 -6 	11-Dec	68	WSW	4	15	1022.3 30.20 	10	mostly cloudy	
Sun Jan 31 07:14:49 2010	Milwaukee, WI (53201) 	20 -6 	11-Nov	68	WSW	5	12	1022.1 30.19 	10	mostly cloudy	
Sun Jan 31 08:01:32 2010	Milwaukee, WI (53201) 	18 -7 	12-Oct	70	WSW	4	11	1021.8 30.18 	9	mostly clear	
Sun Jan 31 08:46:13 2010	Milwaukee, WI (53201) 	18 -7 	12-Oct	70	WSW	4	11	1021.8 30.18 	9	mostly clear	
Sun Jan 31 09:29:27 2010	Milwaukee, WI (53201) 	17 -8 	12-Sep	70	WSW	5	9	1022.1 30.19 	8	mostly cloudy	
Sun Jan 31 10:12:39 2010	Milwaukee, WI (53201) 	16 -8 	12-Sep	73	W	4	9	1021.8 30.18 	9	partly cloudy	
Sun Jan 31 10:56:24 2010	Milwaukee, WI (53201) 	16 -8 	12-Sep	73	W	4	9	1021.8 30.18 	9	partly cloudy	
Sun Jan 31 11:39:52 2010	Milwaukee, WI (53201) 	16 -8 	13-Jul	67	W	4	9	1021.7 30.18 	9	partly cloudy	
Sun Jan 31 12:23:32 2010	Milwaukee, WI (53201) 	15 -9 	14-Jun	67	W	6	5	1021.9 30.19 	9	partly cloudy	
Sun Jan 31 13:06:56 2010	Milwaukee, WI (53201) 	14 -10 	14-Jun	70	W	6	4	1021.9 30.19 	9	mostly cloudy	
Sun Jan 31 13:50:34 2010	Milwaukee, WI (53201) 	14 -10 	14-Jun	70	W	6	4	1021.9 30.19 	9	mostly cloudy	
Sun Jan 31 14:33:23 2010	Milwaukee, WI (53201) 	14 -10 	15-May	67	W	6	4	1022.0 30.19 	9	mostly cloudy	
Sun Jan 31 15:17:28 2010	Milwaukee, WI (53201) 	15 -9 	15-Apr	61	W	6	5	1022.1 30.19 	8	mostly cloudy	
Sun Jan 31 16:01:00 2010	Milwaukee, WI (53201) 	16 -8 	15-May	61	W	8	4	1022.5 30.20 	8	mostly clear	
Sun Jan 31 16:50:46 2010	Milwaukee, WI (53201) 	16 -8 	15-May	61	W	8	4	1022.5 30.20 	8	mostly clear	
Sun Jan 31 17:34:25 2010	Milwaukee, WI (53201) 	18 -7 	15-Apr	53	W	8	7	1022.7 30.21 	9	partly cloudy	
Sun Jan 31 18:19:24 2010	Milwaukee, WI (53201) 	20 -6 	15-May	52	WNW	11	7	1022.6 30.21 	9	mostly clear	
Sun Jan 31 19:03:11 2010	Milwaukee, WI (53201) 	23 -5 	15-May	45	W	10	12	1022.3 30.20 	9	mostly clear	
Sun Jan 31 19:48:33 2010	Milwaukee, WI (53201) 	23 -5 	15-May	45	W	10	12	1022.3 30.20 	9	mostly clear	
Sun Jan 31 20:31:31 2010	Milwaukee, WI (53201) 	25 -3 	15-May	42	W	10	14	1021.5 30.17 	10	mostly clear	
Sun Jan 31 21:15:45 2010	Milwaukee, WI (53201) 	25 -3 	15-Apr	40	WNW	13	13	1022.3 30.20 	10	cloudy	
Sun Jan 31 21:58:59 2010	Milwaukee, WI (53201) 	25 -3 	15-Apr	40	WNW	13	13	1022.3 30.20 	10	cloudy	
Sun Jan 31 22:43:47 2010	Milwaukee, WI (53201) 	25 -3 	15-May	42	NW	12	13	1023.0 30.22 	8	partly cloudy	
Sun Jan 31 23:27:08 2010	Milwaukee, WI (53201) 	24 -4 	15-May	43	NW	11	13	1024.1 30.25 	9	mostly cloudy	
Thu Feb 4 00:12:28 2010	Milwaukee, WI (53201) 	27 -2 	16 -8 	63	calm		27	1027.9 30.36 	10	partly cloudy	
Thu Feb 4 00:56:32 2010	Milwaukee, WI (53201) 	27 -2 	16 -8 	63	calm		27	1027.9 30.36 	10	partly cloudy	
Thu Feb 4 01:39:48 2010	Milwaukee, WI (53201) 	25 -3 	16 -8 	68	calm		25	1028.7 30.39 	10	mostly clear	
Thu Feb 4 02:27:32 2010	Milwaukee, WI (53201) 	25 -3 	17 -8 	71	S	3	21	1029.0 30.40 	10	mostly clear	
Thu Feb 4 03:10:44 2010	Milwaukee, WI (53201) 	24 -4 	16 -8 	71	S	4	18	1029.4 30.41 	10	mostly clear	
Thu Feb 4 03:55:11 2010	Milwaukee, WI (53201) 	24 -4 	16 -8 	71	S	4	18	1029.4 30.41 	10	mostly clear	
Thu Feb 4 04:38:27 2010	Milwaukee, WI (53201) 	24 -4 	17 -8 	74	calm		24	1030.0 30.42 	9	mostly clear	
Thu Feb 4 05:21:49 2010	Milwaukee, WI (53201) 	22 -5 	17 -8 	81	SW	3	17	1030.0 30.42 	7	mostly clear	
Thu Feb 4 06:04:39 2010	Milwaukee, WI (53201) 	18 -7 	14 -10 	84	calm		18	1029.2 30.40 	5	mostly clear	haze 
Thu Feb 4 06:47:44 2010	Milwaukee, WI (53201) 	18 -7 	14 -10 	84	calm		18	1029.2 30.40 	5	mostly clear	haze 
Thu Feb 4 07:31:18 2010	Milwaukee, WI (53201) 	20 -6 	15 -9 	81	calm		20	1029.7 30.42 	5	clear	haze
Thu Feb 4 08:13:51 2010	Milwaukee, WI (53201) 	17 -8 	13 -10 	83	calm		17	1028.3 30.37 	5	clear	haze
Thu Feb 4 08:57:34 2010	Milwaukee, WI (53201) 	17 -8 	13 -10 	83	calm		17	1028.3 30.37 	5	clear	haze
Thu Feb 4 09:41:28 2010	Milwaukee, WI (53201) 	16 -8 	11-Nov	80	calm		16	1028.2 30.37 	5	mostly clear	haze 
Thu Feb 4 10:25:08 2010	Milwaukee, WI (53201) 	18 -7 	13 -10 	80	calm		18	1029.0 30.40 	5	mostly clear	haze 
Thu Feb 4 11:11:04 2010	Milwaukee, WI (53201) 	21 -6 	17 -8 	85	SSW	5	13	1029.9 30.42 	5	mostly cloudy	haze 
Thu Feb 4 11:54:35 2010	Milwaukee, WI (53201) 	21 -6 	17 -8 	85	SSW	5	13	1029.9 30.42 	5	mostly cloudy	haze 
Thu Feb 4 12:37:41 2010	Milwaukee, WI (53201) 	18 -7 	14 -10 	84	calm		18	1029.2 30.40 	4	mostly cloudy	haze 
Thu Feb 4 13:21:46 2010	Milwaukee, WI (53201) 	22 -5 	17 -8 	81	S	5	14	1029.9 30.42 	4	mostly cloudy	haze 
Thu Feb 4 14:06:35 2010	Milwaukee, WI (53201) 	23 -5 	18 -7 	81	calm		23	1029.5 30.41 	4	mostly cloudy	haze 
Thu Feb 4 14:59:22 2010	Milwaukee, WI (53201) 	23 -5 	18 -7 	81	calm		23	1029.5 30.41 	4	mostly cloudy	haze 
Thu Jan 28 15:39:01 2010	Milwaukee, WI (53201) 	13-Jul	-6 -21 	54	NW	16	-12	1028.8 30.39 	10	mostly clear	
Thu Jan 28 15:59:50 2010	Milwaukee, WI (53201) 	13-Jul	-6 -21 	54	NW	16	-12	1028.8 30.39 	10	mostly clear	
Thu Jan 28 16:49:10 2010	Milwaukee, WI (53201) 	13-Jul	-5 -20 	57	NNW	16	-12	1029.3 30.40 	10	mostly clear	
Thu Jan 28 17:13:24 2010	Milwaukee, WI (53201) 	12-Sep	-7 -21 	47	NNW	16	-9	1029.9 30.42 	10	mostly clear	
Thu Jan 28 17:29:24 2010	Milwaukee, WI (53201) 	12-Sep	-7 -21 	47	NNW	16	-9	1029.9 30.42 	10	mostly clear	
Tue Feb 2 00:28:20 2010	Milwaukee, WI (53201) 	26 -3 	14 -10 	60	ESE	5	19	1024.2 30.25 	8	cloudy	
Tue Feb 2 01:13:56 2010	Milwaukee, WI (53201) 	25 -3 	16 -8 	68	ESE	4	19	1024.0 30.25 	9	cloudy	
Tue Feb 2 01:57:05 2010	Milwaukee, WI (53201) 	25 -3 	16 -8 	68	ESE	4	19	1024.0 30.25 	9	cloudy	
Tue Feb 2 02:41:07 2010	Milwaukee, WI (53201) 	24 -4 	18 -7 	77	ESE	4	18	1023.6 30.24 	9	mostly cloudy	
Tue Feb 2 03:24:39 2010	Milwaukee, WI (53201) 	25 -3 	18 -7 	74	calm		25	1023.1 30.22 	7	cloudy	
Tue Feb 2 04:08:26 2010	Milwaukee, WI (53201) 	27 -2 	21 -6 	78	calm		27	1022.7 30.21 	7	cloudy	
Tue Feb 2 04:51:58 2010	Milwaukee, WI (53201) 	27 -2 	21 -6 	78	calm		27	1022.7 30.21 	7	cloudy	
Tue Feb 2 05:35:22 2010	Milwaukee, WI (53201) 	28 -2 	23 -5 	81	calm		28	1022.3 30.20 	2	cloudy	light snow 
Tue Feb 2 06:18:39 2010	Milwaukee, WI (53201) 	27 -2 	23 -5 	85	S	3	23	1022.1 30.19 	2	cloudy	light snow 
Tue Feb 2 07:05:46 2010	Milwaukee, WI (53201) 	26 -3 	23 -5 	88	calm		26	1021.8 30.18 	1	cloudy	light snow 
Tue Feb 2 07:48:46 2010	Milwaukee, WI (53201) 	26 -3 	23 -5 	88	calm		26	1021.8 30.18 	1	cloudy	light snow 
Tue Feb 2 08:31:58 2010	Milwaukee, WI (53201) 	26 -3 	24 -4 	92	calm		26	1021.4 30.17 	2	cloudy	light snow 
Tue Feb 2 09:15:27 2010	Milwaukee, WI (53201) 	26 -3 	24 -4 	92	calm		26	1021.0 30.16 	2	cloudy	light snow 
Tue Feb 2 09:59:00 2010	Milwaukee, WI (53201) 	26 -3 	24 -4 	92	calm		26	1021.0 30.16 	2	cloudy	light snow 
Tue Feb 2 10:42:33 2010	Milwaukee, WI (53201) 	26 -3 	24 -4 	92	calm		26	1020.0 30.13 	2	cloudy	light snow 
Tue Feb 2 11:26:40 2010	Milwaukee, WI (53201) 	26 -3 	24 -4 	92	ENE	3	22	1019.5 30.11 	2	cloudy	light snow 
Tue Feb 2 12:10:41 2010	Milwaukee, WI (53201) 	27 -2 	25 -3 	92	calm		27	1019.0 30.10 	2	cloudy	light snow 
Tue Feb 2 12:54:35 2010	Milwaukee, WI (53201) 	27 -2 	25 -3 	92	calm		27	1019.0 30.10 	2	cloudy	light snow 
Tue Feb 2 13:37:53 2010	Milwaukee, WI (53201) 	28 -2 	26 -3 	92	SSE	3	24	1018.3 30.08 	2	cloudy	light snow 
Tue Feb 2 14:21:35 2010	Milwaukee, WI (53201) 	28 -2 	25 -3 	88	ESE	3	24	1017.9 30.07 	3	cloudy	light snow 
Tue Feb 2 15:05:56 2010	Milwaukee, WI (53201) 	29 -1 	27 -2 	92	calm		29	1017.7 30.06 	2	cloudy	light snow 
Tue Feb 2 15:52:21 2010	Milwaukee, WI (53201) 	29 -1 	27 -2 	92	calm		29	1017.7 30.06 	2	cloudy	light snow 
Tue Feb 2 16:44:51 2010	Milwaukee, WI (53201) 	29 -1 	27 -2 	92	S	4	24	1017.5 30.06 	0	obscured	moderate snow 
Tue Feb 2 17:33:18 2010	Milwaukee, WI (53201) 	30 -1 	27 -2 	88	S	4	25	1017.1 30.04 	1	cloudy	light snow 
Tue Feb 2 18:17:55 2010	Milwaukee, WI (53201) 	31 0 	27 -2 	85	S	7	23	1016.9 30.04 	2	cloudy	light snow 
Tue Feb 2 19:02:06 2010	Milwaukee, WI (53201) 	32 0 	27 -2 	82	SSW	5	26	1016.3 30.02 	2	cloudy	light snow 
Tue Feb 2 19:51:25 2010	Milwaukee, WI (53201) 	32 0 	27 -2 	82	SSW	5	26	1016.3 30.02 	2	cloudy	light snow 
Tue Feb 2 20:42:39 2010	Milwaukee, WI (53201) 	32 0 	27 -2 	82	SW	4	27	1015.7 30.00 	3	cloudy	light snow 
Tue Feb 2 21:29:30 2010	Milwaukee, WI (53201) 	33 0 	27 -2 	78	calm		33	1015.0 29.98 	5	cloudy	haze 
Tue Feb 2 22:17:53 2010	Milwaukee, WI (53201) 	32 0 	26 -3 	79	W	3	29	1015.3 29.99 	4	cloudy	light snow 
Tue Feb 2 23:02:11 2010	Milwaukee, WI (53201) 	32 0 	27 -2 	82	W	4	27	1015.6 30.00 	4	cloudy	light snow 
Tue Feb 2 23:47:10 2010	Milwaukee, WI (53201) 	32 0 	27 -2 	82	W	4	27	1015.6 30.00 	4	cloudy	light snow 
Wed Feb 3 00:31:54 2010	Milwaukee, WI (53201) 	32 0 	27 -2 	82	W	3	29	1015.8 30.01 	4	cloudy	light snow 
Wed Feb 3 01:19:05 2010	Milwaukee, WI (53201) 	32 0 	27 -2 	82	W	4	27	1016.2 30.02 	4	cloudy	light snow 
Wed Feb 3 02:03:53 2010	Milwaukee, WI (53201) 	32 0 	27 -2 	82	W	3	29	1016.7 30.03 	3	cloudy	light snow 
Wed Feb 3 02:52:35 2010	Milwaukee, WI (53201) 	32 0 	27 -2 	82	W	3	29	1016.7 30.03 	3	cloudy	light snow 
Wed Feb 3 03:39:25 2010	Milwaukee, WI (53201) 	31 0 	27 -2 	85	WNW	5	25	1017.2 30.05 	3	cloudy	light snow 
Wed Feb 3 04:27:34 2010	Milwaukee, WI (53201) 	31 0 	27 -2 	85	W	4	26	1017.5 30.06 	3	cloudy	light snow 
Wed Feb 3 05:14:23 2010	Milwaukee, WI (53201) 	31 0 	27 -2 	85	W	4	26	1017.9 30.07 	3	cloudy	light snow 
Wed Feb 3 06:02:11 2010	Milwaukee, WI (53201) 	29 -1 	25 -3 	85	calm		29	1017.9 30.07 	3	mostly cloudy	haze 
Wed Feb 3 06:48:55 2010	Milwaukee, WI (53201) 	29 -1 	25 -3 	85	calm		29	1017.9 30.07 	3	mostly cloudy	haze 
Wed Feb 3 07:33:32 2010	Milwaukee, WI (53201) 	30 -1 	26 -3 	85	W	4	25	1018.6 30.09 	3	cloudy	haze 
Wed Feb 3 08:16:42 2010	Milwaukee, WI (53201) 	30 -1 	26 -3 	85	NW	6	23	1019.0 30.10 	5	cloudy	haze 
Wed Feb 3 09:03:10 2010	Milwaukee, WI (53201) 	29 -1 	24 -4 	82	NW	7	21	1019.8 30.12 	4	cloudy	haze 
Wed Feb 3 09:46:29 2010	Milwaukee, WI (53201) 	29 -1 	24 -4 	82	NW	7	21	1019.8 30.12 	4	cloudy	haze 
Wed Feb 3 10:30:23 2010	Milwaukee, WI (53201) 	29 -1 	23 -5 	78	WNW	7	21	1020.6 30.15 	5	cloudy	haze 
Wed Feb 3 11:17:15 2010	Milwaukee, WI (53201) 	28 -2 	23 -5 	81	NW	7	20	1020.9 30.16 	5	cloudy	haze 
Wed Feb 3 12:02:00 2010	Milwaukee, WI (53201) 	27 -2 	20 -6 	74	WNW	9	17	1022.0 30.19 	7	cloudy	
Wed Feb 3 12:45:12 2010	Milwaukee, WI (53201) 	27 -2 	20 -6 	74	WNW	9	17	1022.0 30.19 	7	cloudy	
Wed Feb 3 13:28:56 2010	Milwaukee, WI (53201) 	26 -3 	20 -6 	77	WNW	7	18	1022.7 30.21 	8	cloudy	
Wed Feb 3 14:15:03 2010	Milwaukee, WI (53201) 	26 -3 	20 -6 	77	WNW	7	18	1022.7 30.21 	8	cloudy	
Wed Feb 3 15:01:03 2010	Milwaukee, WI (53201) 	25 -3 	19 -7 	78	NW	8	16	1024.2 30.25 	7	cloudy	
Wed Feb 3 15:45:51 2010	Milwaukee, WI (53201) 	25 -3 	19 -7 	78	NW	8	16	1024.2 30.25 	7	cloudy	
Wed Feb 3 16:31:43 2010	Milwaukee, WI (53201) 	26 -3 	20 -6 	77	WNW	9	16	1025.0 30.28 	5	mostly cloudy	haze 
Wed Feb 3 17:18:56 2010	Milwaukee, WI (53201) 	27 -2 	20 -6 	74	NW	9	17	1026.2 30.31 	5	cloudy	haze 
Wed Feb 3 18:07:14 2010	Milwaukee, WI (53201) 	29 -1 	18 -7 	63	NNW	8	20	1026.8 30.33 	6	mostly cloudy	haze 
Wed Feb 3 18:50:21 2010	Milwaukee, WI (53201) 	29 -1 	18 -7 	63	NNW	8	20	1026.8 30.33 	6	mostly cloudy	haze 
Wed Feb 3 19:34:36 2010	Milwaukee, WI (53201) 	28 -2 	18 -7 	66	NW	6	21	1027.5 30.35 	7	mostly cloudy	
Wed Feb 3 20:18:41 2010	Milwaukee, WI (53201) 	28 -2 	18 -7 	66	NNW	4	23	1026.6 30.32 	8	mostly cloudy	
Wed Feb 3 21:02:59 2010	Milwaukee, WI (53201) 	32 0 	18 -7 	56	N	4	27	1025.7 30.30 	10	partly cloudy	
Wed Feb 3 21:51:05 2010	Milwaukee, WI (53201) 	32 0 	18 -7 	56	N	4	27	1025.7 30.30 	10	partly cloudy	
Wed Feb 3 22:36:38 2010	Milwaukee, WI (53201) 	29 -1 	18 -7 	63	ENE	4	24	1026.4 30.32 	10	partly cloudy	
Wed Feb 3 23:27:32 2010	Milwaukee, WI (53201) 	28 -2 	18 -7 	66	ENE	5	22	1026.9 30.33 	10	mostly clear	
Fri Jan 29 08:41:30 2010	Nashville, TN (37201) 	28 -2 	15 -9 	58	N	7	20	1028.6 30.38 	10	mostly cloudy	
Fri Jan 29 09:25:25 2010	Nashville, TN (37201) 	29 -1 	15 -9 	56	NNE	9	20	1028.6 30.38 	10	mostly cloudy	
Fri Jan 29 11:57:27 2010	Nashville, TN (37201) 	28 -2 	15 -9 	58	N	7	20	1027.7 30.36 	10	cloudy	
Fri Jan 29 12:42:09 2010	Nashville, TN (37201) 	28 -2 	15 -9 	58	N	10	18	1027.6 30.35 	10	cloudy	
Fri Jan 29 13:29:53 2010	Nashville, TN (37201) 	28 -2 	15 -9 	58	NNE	9	19	1026.7 30.33 	10	cloudy	
Fri Jan 29 14:17:45 2010	Nashville, TN (37201) 	28 -2 	15 -9 	58	NNE	9	19	1026.5 30.32 	10	cloudy	
Fri Jan 29 15:02:31 2010	Nashville, TN (37201) 	28 -2 	14 -10 	55	NE	9	19	1027.6 30.35 	9	cloudy	light snow 
Fri Jan 29 15:48:04 2010	Nashville, TN (37201) 	28 -2 	14 -10 	55	NE	9	19	1027.6 30.35 	9	cloudy	light snow 
Fri Jan 29 16:35:43 2010	Nashville, TN (37201) 	26 -3 	17 -8 	68	NNE	9	16	1028.1 30.37 	4	cloudy	ice pellets 
Fri Jan 29 17:20:15 2010	Nashville, TN (37201) 	25 -3 	21 -6 	85	NNE	8	16	1028.7 30.39 	1	mostly cloudy	light snow 
Fri Jan 29 18:08:45 2010	Nashville, TN (37201) 	25 -3 	21 -6 	85	NE	8	16	1028.3 30.37 	2	cloudy	light snow 
Fri Jan 29 18:53:45 2010	Nashville, TN (37201) 	25 -3 	21 -6 	85	NE	8	16	1028.3 30.37 	2	cloudy	light snow 
Fri Jan 29 19:45:44 2010	Nashville, TN (37201) 	25 -3 	21 -6 	85	NNE	9	15	1027.7 30.36 	2	cloudy	light snow 
Fri Jan 29 20:43:32 2010	Nashville, TN (37201) 	25 -3 	21 -6 	85		11	14	1025.2 30.28 	1	cloudy	light snow 
Fri Jan 29 21:28:11 2010	Nashville, TN (37201) 	25 -3 	22 -5 	88	NE	10	14	1024.3 30.26 	0	cloudy	moderate snow 
Fri Jan 29 22:14:47 2010	Nashville, TN (37201) 	26 -3 	22 -5 	84	NE	10	16	1022.9 30.22 	1	cloudy	light snow 
Fri Jan 29 22:59:42 2010	Nashville, TN (37201) 	26 -3 	22 -5 	84	NE	10	16	1022.9 30.22 	1	cloudy	light snow 
Fri Jan 29 23:43:59 2010	Nashville, TN (37201) 	26 -3 	23 -5 	88		10	16	1021.9 30.19 	1	cloudy	light snow 
Mon Feb 1 00:10:58 2010	Nashville, TN (37201) 	35 1 	17 -8 	47	calm		35	1026.7 30.33 	10	mostly clear	
Mon Feb 1 00:53:55 2010	Nashville, TN (37201) 	35 1 	17 -8 	47	calm		35	1026.7 30.33 	10	mostly clear	
Mon Feb 1 01:40:14 2010	Nashville, TN (37201) 	32 0 	22 -5 	66	SSE	3	29	1026.8 30.33 	10	mostly clear	
Mon Feb 1 02:24:11 2010	Nashville, TN (37201) 	29 -1 	23 -5 	78	S	3	25	1027.2 30.34 	10	clear	
Mon Feb 1 03:07:53 2010	Nashville, TN (37201) 	28 -2 	23 -5 	81	calm		28	1027.6 30.35 	9	mostly clear	
Mon Feb 1 03:52:32 2010	Nashville, TN (37201) 	28 -2 	23 -5 	81	calm		28	1027.6 30.35 	9	mostly clear	
Mon Feb 1 04:37:20 2010	Nashville, TN (37201) 	27 -2 	22 -5 	81	calm		27	1027.8 30.36 	9	partly cloudy	
Mon Feb 1 05:20:30 2010	Nashville, TN (37201) 	26 -3 	23 -5 	88	calm		26	1027.6 30.35 	7	mostly clear	
Mon Feb 1 06:05:22 2010	Nashville, TN (37201) 	24 -4 	22 -5 	91	calm		24	1027.5 30.35 	5	mostly clear	haze 
Mon Feb 1 06:48:32 2010	Nashville, TN (37201) 	24 -4 	22 -5 	91	calm		24	1027.5 30.35 	5	mostly clear	haze 
Mon Feb 1 07:32:21 2010	Nashville, TN (37201) 	23 -5 	21 -6 	92	calm		23	1027.2 30.34 	3	mostly clear	haze 
Mon Feb 1 08:15:28 2010	Nashville, TN (37201) 	23 -5 	21 -6 	92	calm		23	1027.3 30.35 	4	mostly cloudy	haze 
Mon Feb 1 08:59:14 2010	Nashville, TN (37201) 	23 -5 	21 -6 	92	calm		23	1027.3 30.35 	4	mostly cloudy	haze 
Mon Feb 1 09:42:13 2010	Nashville, TN (37201) 	22 -5 	22 -5 	100	calm		22	1026.9 30.33 	0	cloudy	fog 
Mon Feb 1 10:25:45 2010	Nashville, TN (37201) 	20 -6 	19 -7 	96	calm		20	1026.9 30.33 	0	cloudy	fog 
Mon Feb 1 11:08:43 2010	Nashville, TN (37201) 	21 -6 	19 -7 	92	calm		21	1026.7 30.33 	2	mostly clear	haze 
Mon Feb 1 11:52:09 2010	Nashville, TN (37201) 	21 -6 	19 -7 	92	calm		21	1026.7 30.33 	2	mostly clear	haze 
Mon Feb 1 12:35:30 2010	Nashville, TN (37201) 	20 -6 	18 -7 	92	NE	3	15	1026.4 30.32 	0	obscured	fog 
Mon Feb 1 13:19:04 2010	Nashville, TN (37201) 	20 -6 	18 -7 	92	calm		20	1026.5 30.32 	0	cloudy	fog 
Mon Feb 1 14:02:56 2010	Nashville, TN (37201) 	19 -7 	16 -8 	88	calm		19	1026.4 30.32 	1	partly cloudy	haze 
Mon Feb 1 14:48:02 2010	Nashville, TN (37201) 	19 -7 	16 -8 	88	calm		19	1026.4 30.32 	1	partly cloudy	haze 
Mon Feb 1 15:31:46 2010	Nashville, TN (37201) 	20 -6 	18 -7 	92	calm		20	1027.2 30.34 	4	mostly cloudy	haze 
Mon Feb 1 16:16:13 2010	Nashville, TN (37201) 	24 -4 	23 -5 	95	calm		24	1027.3 30.35 	4	mostly cloudy	haze 
Mon Feb 1 17:01:08 2010	Nashville, TN (37201) 	28 -2 	25 -3 	88	calm		28	1026.7 30.33 	5	mostly cloudy	haze 
Mon Feb 1 17:45:04 2010	Nashville, TN (37201) 	28 -2 	25 -3 	88	calm		28	1026.7 30.33 	5	mostly cloudy	haze 
Mon Feb 1 18:28:33 2010	Nashville, TN (37201) 	33 0 	25 -3 	72	S	3	30	1026.7 30.33 	10	mostly cloudy	
Mon Feb 1 19:12:19 2010	Nashville, TN (37201) 	38 3 	25 -3 	59	S	3	35	1025.7 30.30 	10	mostly cloudy	
Mon Feb 1 19:57:10 2010	Nashville, TN (37201) 	38 3 	25 -3 	59	S	3	35	1025.7 30.30 	10	mostly cloudy	
Mon Feb 1 20:43:35 2010	Nashville, TN (37201) 	41 5 	24 -4 	51	calm		41	1024.0 30.25 	10	mostly cloudy	
Mon Feb 1 21:28:31 2010	Nashville, TN (37201) 	42 5 	27 -2 	55	E	5	38	1023.0 30.22 	10	mostly cloudy	
Mon Feb 1 22:11:55 2010	Nashville, TN (37201) 	40 4 	28 -2 	62	ESE	4	37	1022.8 30.21 	10	cloudy	
Mon Feb 1 22:55:14 2010	Nashville, TN (37201) 	40 4 	28 -2 	62	ESE	4	37	1022.8 30.21 	10	cloudy	
Mon Feb 1 23:41:22 2010	Nashville, TN (37201) 	39 3 	28 -2 	64	SE	4	36	1022.9 30.22 	10	cloudy	
Sat Jan 30 00:28:03 2010	Nashville, TN (37201) 	26 -3 	23 -5 	88	NE	10	16	1020.8 30.15 	1	cloudy	light snow 
Sat Jan 30 01:12:13 2010	Nashville, TN (37201) 	26 -3 	23 -5 	88	NE	11	15	1019.4 30.11 	1	cloudy	light snow 
Sat Jan 30 01:55:45 2010	Nashville, TN (37201) 	26 -3 	23 -5 	88	NE	11	15	1019.4 30.11 	1	cloudy	light snow 
Sat Jan 30 02:40:26 2010	Nashville, TN (37201) 	27 -2 	24 -4 	89	NE	10	17	1018.6 30.09 	1	cloudy	ice pellets 
Sat Jan 30 03:23:58 2010	Nashville, TN (37201) 	26 -3 	24 -4 	92	NE	9	16	1018.2 30.08 	1	cloudy	light snow 
Sat Jan 30 04:07:53 2010	Nashville, TN (37201) 	26 -3 	24 -4 	92	NE	9	16	1017.6 30.06 	1	cloudy	light snow 
Sat Jan 30 04:51:39 2010	Nashville, TN (37201) 	26 -3 	24 -4 	92	NE	9	16	1017.6 30.06 	1	cloudy	light snow 
Sat Jan 30 05:35:21 2010	Nashville, TN (37201) 	26 -3 	24 -4 	92	NE	9	16	1015.5 30.00 	1	cloudy	light snow 
Sat Jan 30 06:19:29 2010	Nashville, TN (37201) 	27 -2 	25 -3 	92	NNE	10	17	1015.3 29.99 	1	cloudy	ice pellets 
Sat Jan 30 07:05:29 2010	Nashville, TN (37201) 	26 -3 	24 -4 	92	NNE	11	15	1015.0 29.98 	2	cloudy	ice pellets 
Sat Jan 30 07:48:11 2010	Nashville, TN (37201) 	26 -3 	24 -4 	92	NNE	11	15	1015.0 29.98 	2	cloudy	ice pellets 
Sat Jan 30 08:31:24 2010	Nashville, TN (37201) 	26 -3 	24 -4 	92	NE	8	17	1014.6 29.97 	2	cloudy	light snow 
Sat Jan 30 11:13:10 2010	Nashville, TN (37201) 	25 -3 	23 -5 	92	N	10	14	1013.0 29.92 	2	cloudy	light snow 
Sat Jan 30 12:00:58 2010	Nashville, TN (37201) 	24 -4 	21 -6 	88	NNE	14	11	1012.7 29.91 	2	cloudy	light snow 
Sat Jan 30 12:44:36 2010	Nashville, TN (37201) 	24 -4 	21 -6 	88	NNE	14	11	1012.7 29.91 	2	cloudy	light snow 
Sat Jan 30 13:27:52 2010	Nashville, TN (37201) 	23 -5 	19 -7 	84	NNE	11	11	1013.6 29.94 	2	cloudy	light snow 
Sat Jan 30 14:12:03 2010	Nashville, TN (37201) 	22 -5 	19 -7 	88	N	7	13	1013.9 29.95 	2	cloudy	light snow 
Sat Jan 30 14:56:05 2010	Nashville, TN (37201) 	22 -5 	19 -7 	88	N	7	13	1013.9 29.95 	2	cloudy	light snow 
Sat Jan 30 15:41:56 2010	Nashville, TN (37201) 	22 -5 	18 -7 	85	N	9	11	1014.7 29.97 	10	cloudy	
Sat Jan 30 16:26:56 2010	Nashville, TN (37201) 	23 -5 	18 -7 	81	NNE	9	12	1015.4 29.99 	8	cloudy	
Sat Jan 30 17:11:21 2010	Nashville, TN (37201) 	23 -5 	19 -7 	84	N	9	12	1015.7 30.00 	2	cloudy	light snow 
Sat Jan 30 17:54:33 2010	Nashville, TN (37201) 	23 -5 	19 -7 	84	N	9	12	1015.7 30.00 	2	cloudy	light snow 
Sat Jan 30 18:38:33 2010	Nashville, TN (37201) 	24 -4 	18 -7 	77	N	11	13	1016.2 30.02 	9	cloudy	light snow 
Sat Jan 30 19:21:51 2010	Nashville, TN (37201) 	24 -4 	18 -7 	77	N	10	13	1015.6 30.00 	10	cloudy	
Sat Jan 30 20:06:06 2010	Nashville, TN (37201) 	25 -3 	18 -7 	74	N	10	14	1015.6 30.00 	10	cloudy	
Sat Jan 30 20:49:12 2010	Nashville, TN (37201) 	25 -3 	18 -7 	74	N	10	14	1015.6 30.00 	10	cloudy	
Sat Jan 30 21:32:58 2010	Nashville, TN (37201) 	25 -3 	18 -7 	74	N	12	13	1016.8 30.03 	10	cloudy	
Sat Jan 30 22:16:13 2010	Nashville, TN (37201) 	25 -3 	18 -7 	74	N	13	13	1017.3 30.05 	10	cloudy	
Sat Jan 30 23:01:51 2010	Nashville, TN (37201) 	25 -3 	18 -7 	74	N	13	13	1018.3 30.08 	10	cloudy	
Sat Jan 30 23:46:31 2010	Nashville, TN (37201) 	25 -3 	18 -7 	74	N	13	13	1018.3 30.08 	10	cloudy	
Sun Jan 31 00:30:28 2010	Nashville, TN (37201) 	25 -3 	18 -7 	74	N	8	16	1019.6 30.12 	10	cloudy	
Sun Jan 31 01:21:14 2010	Nashville, TN (37201) 	25 -3 	18 -7 	74	N	11	14	1020.5 30.14 	10	cloudy	
Sun Jan 31 02:05:14 2010	Nashville, TN (37201) 	26 -3 	18 -7 	71	N	7	18	1021.1 30.16 	10	cloudy	
Sun Jan 31 02:48:41 2010	Nashville, TN (37201) 	26 -3 	18 -7 	71	N	7	18	1021.1 30.16 	10	cloudy	
Sun Jan 31 03:32:32 2010	Nashville, TN (37201) 	26 -3 	18 -7 	71	NNW	5	19	1021.6 30.18 	10	cloudy	
Sun Jan 31 04:15:59 2010	Nashville, TN (37201) 	25 -3 	17 -8 	71	NNW	5	18	1021.9 30.19 	10	partly cloudy	
Sun Jan 31 05:00:34 2010	Nashville, TN (37201) 	23 -5 	16 -8 	74	NNW	5	16	1022.3 30.20 	10	clear	
Sun Jan 31 05:46:38 2010	Nashville, TN (37201) 	23 -5 	16 -8 	74	NNW	5	16	1022.3 30.20 	10	clear	
Sun Jan 31 06:31:50 2010	Nashville, TN (37201) 	22 -5 	16 -8 	78	NNW	4	16	1022.6 30.21 	10	clear	
Sun Jan 31 07:14:43 2010	Nashville, TN (37201) 	19 -7 	15 -9 	84	calm		19	1023.0 30.22 	10	clear	
Sun Jan 31 08:01:27 2010	Nashville, TN (37201) 	16 -8 	14 -10 	92	calm		16	1023.8 30.24 	8	clear	
Sun Jan 31 08:46:08 2010	Nashville, TN (37201) 	16 -8 	14 -10 	92	calm		16	1023.8 30.24 	8	clear	
Sun Jan 31 09:29:22 2010	Nashville, TN (37201) 	19 -7 	15 -9 	84	WNW	5	11	1024.2 30.25 	9	clear	
Sun Jan 31 10:12:34 2010	Nashville, TN (37201) 	17 -8 	13 -10 	83	W	4	10	1024.7 30.27 	8	clear	
Sun Jan 31 10:56:19 2010	Nashville, TN (37201) 	17 -8 	13 -10 	83	W	4	10	1024.7 30.27 	8	clear	
Sun Jan 31 11:39:47 2010	Nashville, TN (37201) 	15 -9 	11-Dec	87	calm		15	1024.8 30.27 	7	clear	
Sun Jan 31 12:23:27 2010	Nashville, TN (37201) 	14 -10 	11-Dec	92	calm		14	1025.7 30.30 	6	clear	haze
Sun Jan 31 13:06:50 2010	Nashville, TN (37201) 	15 -9 	11-Dec	87	calm		15	1026.4 30.32 	6	clear	haze
Sun Jan 31 13:50:27 2010	Nashville, TN (37201) 	15 -9 	11-Dec	87	calm		15	1026.4 30.32 	6	clear	haze
Sun Jan 31 14:33:17 2010	Nashville, TN (37201) 	11-Dec	12-Sep	87	S	3	6	1026.8 30.33 	5	clear	haze
Sun Jan 31 15:17:23 2010	Nashville, TN (37201) 	14 -10 	13 -10 	95	calm		14	1027.6 30.35 	10	clear	
Sun Jan 31 16:00:52 2010	Nashville, TN (37201) 	18 -7 	17 -8 	96	calm		18	1027.9 30.36 	9	clear	
Sun Jan 31 16:50:39 2010	Nashville, TN (37201) 	18 -7 	17 -8 	96	calm		18	1027.9 30.36 	9	clear	
Sun Jan 31 17:34:19 2010	Nashville, TN (37201) 	24 -4 	18 -7 	77	calm		24	1028.1 30.37 	9	clear	
Sun Jan 31 18:19:19 2010	Nashville, TN (37201) 	28 -2 	19 -7 	69	calm		28	1028.2 30.37 	10	clear	
Sun Jan 31 19:03:05 2010	Nashville, TN (37201) 	32 0 	15 -9 	49	calm		32	1027.3 30.35 	10	clear	
Sun Jan 31 19:48:28 2010	Nashville, TN (37201) 	32 0 	15 -9 	49	calm		32	1027.3 30.35 	10	clear	
Sun Jan 31 20:31:26 2010	Nashville, TN (37201) 	33 0 	18 -7 	53	calm		33	1026.9 30.33 	10	clear	
Sun Jan 31 21:15:39 2010	Nashville, TN (37201) 	36 2 	18 -7 	48	calm		36	1026.2 30.31 	10	clear	
Sun Jan 31 21:58:53 2010	Nashville, TN (37201) 	36 2 	18 -7 	48	calm		36	1026.2 30.31 	10	clear	
Sun Jan 31 22:43:42 2010	Nashville, TN (37201) 	38 3 	17 -8 	42	calm		38	1026.4 30.32 	10	clear	
Sun Jan 31 23:27:02 2010	Nashville, TN (37201) 	35 1 	17 -8 	47	calm		35	1026.5 30.32 	10	mostly clear	
Thu Feb 4 00:12:22 2010	Nashville, TN (37201) 	42 5 	27 -2 	55	NE	7	37	1024.0 30.25 	10	partly cloudy	
Thu Feb 4 00:56:27 2010	Nashville, TN (37201) 	42 5 	27 -2 	55	NE	7	37	1024.0 30.25 	10	partly cloudy	
Thu Feb 4 01:39:42 2010	Nashville, TN (37201) 	38 3 	27 -2 	64	NNE	6	33	1025.2 30.28 	10	partly cloudy	
Thu Feb 4 02:27:27 2010	Nashville, TN (37201) 	37 2 	27 -2 	67	NNE	5	32	1026.7 30.33 	10	mostly clear	
Thu Feb 4 03:10:37 2010	Nashville, TN (37201) 	37 2 	27 -2 	67	N	5	32	1026.9 30.33 	10	clear	
Thu Feb 4 03:55:05 2010	Nashville, TN (37201) 	37 2 	27 -2 	67	N	5	32	1026.9 30.33 	10	clear	
Thu Feb 4 04:38:21 2010	Nashville, TN (37201) 	34 1 	27 -2 	75	NNE	6	28	1026.7 30.33 	9	clear	
Thu Feb 4 05:21:42 2010	Nashville, TN (37201) 	33 0 	26 -3 	75	NNE	5	28	1026.1 30.31 	8	partly cloudy	
Thu Feb 4 06:04:33 2010	Nashville, TN (37201) 	34 1 	26 -3 	72	NE	6	28	1025.2 30.28 	8	mostly cloudy	
Thu Feb 4 06:47:36 2010	Nashville, TN (37201) 	34 1 	26 -3 	72	NE	6	28	1025.2 30.28 	8	mostly cloudy	
Thu Feb 4 07:31:13 2010	Nashville, TN (37201) 	33 0 	26 -3 	75	NE	5	28	1025.0 30.28 	8	cloudy	
Thu Feb 4 08:13:46 2010	Nashville, TN (37201) 	33 0 	26 -3 	75	NE	3	30	1025.7 30.30 	8	cloudy	
Thu Feb 4 08:57:28 2010	Nashville, TN (37201) 	33 0 	26 -3 	75	NE	3	30	1025.7 30.30 	8	cloudy	
Thu Feb 4 09:41:23 2010	Nashville, TN (37201) 	34 1 	27 -2 	75	NE	6	28	1024.5 30.26 	8	clear	
Thu Feb 4 10:25:03 2010	Nashville, TN (37201) 	33 0 	27 -2 	78	NE	4	29	1024.8 30.27 	8	cloudy	
Thu Feb 4 11:10:58 2010	Nashville, TN (37201) 	33 0 	27 -2 	78	NE	5	28	1024.2 30.25 	9	cloudy	
Thu Feb 4 11:54:29 2010	Nashville, TN (37201) 	33 0 	27 -2 	78	NE	5	28	1024.2 30.25 	9	cloudy	
Thu Feb 4 12:37:35 2010	Nashville, TN (37201) 	34 1 	27 -2 	75	NE	5	29	1024.5 30.26 	10	cloudy	
Thu Feb 4 13:21:40 2010	Nashville, TN (37201) 	34 1 	27 -2 	75		6	28	1024.4 30.26 	10	cloudy	
Thu Feb 4 14:06:30 2010	Nashville, TN (37201) 	34 1 	26 -3 	72		7	27	1024.7 30.27 	7	cloudy	
Thu Feb 4 14:59:16 2010	Nashville, TN (37201) 	34 1 	26 -3 	72		7	27	1024.7 30.27 	7	cloudy	
Thu Jan 28 15:38:55 2010	Nashville, TN (37201) 	43 6 	31 0 	62	NNW	10	37	1027.1 30.34 	10	mostly cloudy	
Thu Jan 28 15:59:41 2010	Nashville, TN (37201) 	43 6 	31 0 	62	NNW	10	37	1027.1 30.34 	10	mostly cloudy	
Thu Jan 28 16:49:03 2010	Nashville, TN (37201) 	39 3 	31 0 	72	NNW	15	30	1028.7 30.39 	10	mostly cloudy	
Thu Jan 28 17:13:18 2010	Nashville, TN (37201) 	38 3 	30 -1 	73	NNW	10	30	1029.6 30.41 	10	cloudy	
Thu Jan 28 17:29:17 2010	Nashville, TN (37201) 	38 3 	30 -1 	73	NNW	10	30	1029.6 30.41 	10	cloudy	
Tue Feb 2 00:28:14 2010	Nashville, TN (37201) 	39 3 	28 -2 	64	SE	4	36	1022.8 30.21 	10	cloudy	
Tue Feb 2 01:13:50 2010	Nashville, TN (37201) 	38 3 	29 -1 	70	calm		38	1022.4 30.20 	10	cloudy	
Tue Feb 2 01:56:59 2010	Nashville, TN (37201) 	38 3 	29 -1 	70	calm		38	1022.4 30.20 	10	cloudy	
Tue Feb 2 02:41:02 2010	Nashville, TN (37201) 	37 2 	30 -1 	76	calm		37	1021.9 30.19 	10	cloudy	
Tue Feb 2 03:24:34 2010	Nashville, TN (37201) 	35 1 	30 -1 	81	calm		35	1021.4 30.17 	10	cloudy	
Tue Feb 2 04:08:20 2010	Nashville, TN (37201) 	36 2 	30 -1 	79	calm		36	1021.3 30.17 	10	cloudy	
Tue Feb 2 04:51:53 2010	Nashville, TN (37201) 	36 2 	30 -1 	79	calm		36	1021.3 30.17 	10	cloudy	
Tue Feb 2 05:35:16 2010	Nashville, TN (37201) 	35 1 	30 -1 	81	calm		35	1021.3 30.17 	9	cloudy	
Tue Feb 2 06:18:31 2010	Nashville, TN (37201) 	35 1 	31 0 	84	calm		35	1021.2 30.16 	6	cloudy	light rain 
Tue Feb 2 07:05:40 2010	Nashville, TN (37201) 	34 1 	33 0 	96	calm		34	1020.7 30.15 	4	cloudy	light rain 
Tue Feb 2 07:48:41 2010	Nashville, TN (37201) 	34 1 	33 0 	96	calm		34	1020.7 30.15 	4	cloudy	light rain 
Tue Feb 2 08:31:53 2010	Nashville, TN (37201) 	34 1 	33 0 	96	calm		34	1020.4 30.14 	3	cloudy	light rain 
Tue Feb 2 09:15:22 2010	Nashville, TN (37201) 	35 1 	34 1 	96	calm		35	1019.9 30.13 	2	cloudy	light rain 
Tue Feb 2 09:58:54 2010	Nashville, TN (37201) 	35 1 	34 1 	96	calm		35	1019.9 30.13 	2	cloudy	light rain 
Tue Feb 2 10:42:28 2010	Nashville, TN (37201) 	34 1 	34 1 	100	calm		34	1019.8 30.12 	3	cloudy	light drizzle 
Tue Feb 2 11:26:34 2010	Nashville, TN (37201) 	35 1 	34 1 	96	calm		35	1019.3 30.11 	1	cloudy	light drizzle 
Tue Feb 2 12:10:34 2010	Nashville, TN (37201) 	35 1 	34 1 	96	SSE	3	32	1019.0 30.10 	1	cloudy	haze 
Tue Feb 2 12:54:30 2010	Nashville, TN (37201) 	35 1 	34 1 	96	SSE	3	32	1019.0 30.10 	1	cloudy	haze 
Tue Feb 2 13:37:47 2010	Nashville, TN (37201) 	35 1 	34 1 	96	S	3	32	1019.2 30.11 	2	cloudy	haze 
Tue Feb 2 14:21:30 2010	Nashville, TN (37201) 	36 2 	35 1 	96	calm		36	1019.6 30.12 	1	cloudy	light drizzle 
Tue Feb 2 15:05:50 2010	Nashville, TN (37201) 	36 2 	35 1 	96	calm		36	1019.6 30.12 	1	cloudy	light drizzle 
Tue Feb 2 15:52:16 2010	Nashville, TN (37201) 	36 2 	35 1 	96	calm		36	1019.6 30.12 	1	cloudy	light drizzle 
Tue Feb 2 16:44:46 2010	Nashville, TN (37201) 	37 2 	36 2 	96	calm		37	1020.2 30.14 	0	obscured	light drizzle 
Tue Feb 2 17:33:13 2010	Nashville, TN (37201) 	37 2 	37 2 	100	calm		37	1020.2 30.14 	0	obscured	fog 
Tue Feb 2 18:17:49 2010	Nashville, TN (37201) 	38 3 	37 2 	97	calm		38	1019.4 30.11 	0	obscured	fog 
Tue Feb 2 19:02:00 2010	Nashville, TN (37201) 	40 4 	37 2 	89	WNW	6	35	1018.8 30.09 	1	cloudy	haze 
Tue Feb 2 19:51:15 2010	Nashville, TN (37201) 	40 4 	37 2 	89	WNW	6	35	1018.8 30.09 	1	cloudy	haze 
Tue Feb 2 20:42:33 2010	Nashville, TN (37201) 	44 6 	36 2 	73	N	4	42	1018.0 30.07 	7	mostly cloudy	
Tue Feb 2 21:29:25 2010	Nashville, TN (37201) 	45 7 	35 1 	68	W	4	43	1018.0 30.07 	8	mostly cloudy	
Tue Feb 2 22:17:47 2010	Nashville, TN (37201) 	46 7 	32 0 	58	WNW	6	42	1018.1 30.07 	10	mostly cloudy	
Tue Feb 2 23:02:04 2010	Nashville, TN (37201) 	45 7 	31 0 	57	WNW	5	42	1018.5 30.09 	10	cloudy	
Tue Feb 2 23:47:05 2010	Nashville, TN (37201) 	45 7 	31 0 	57	WNW	5	42	1018.5 30.09 	10	cloudy	
Wed Feb 3 00:31:49 2010	Nashville, TN (37201) 	44 6 	31 0 	59	WNW	4	42	1019.0 30.10 	10	cloudy	
Wed Feb 3 01:18:59 2010	Nashville, TN (37201) 	43 6 	31 0 	62	WNW	4	40	1019.6 30.12 	10	cloudy	
Wed Feb 3 02:03:47 2010	Nashville, TN (37201) 	42 5 	30 -1 	62	WNW	7	37	1020.2 30.14 	10	cloudy	
Wed Feb 3 02:52:30 2010	Nashville, TN (37201) 	42 5 	30 -1 	62	WNW	7	37	1020.2 30.14 	10	cloudy	
Wed Feb 3 03:39:19 2010	Nashville, TN (37201) 	41 5 	30 -1 	65	WNW	4	38	1020.8 30.15 	10	cloudy	
Wed Feb 3 04:27:29 2010	Nashville, TN (37201) 	40 4 	30 -1 	67	WNW	7	34	1021.8 30.18 	10	cloudy	
Wed Feb 3 05:14:15 2010	Nashville, TN (37201) 	39 3 	29 -1 	67	NW	6	34	1022.8 30.21 	10	cloudy	
Wed Feb 3 06:02:05 2010	Nashville, TN (37201) 	38 3 	29 -1 	70	NNW	6	33	1022.8 30.21 	10	cloudy	
Wed Feb 3 06:48:49 2010	Nashville, TN (37201) 	38 3 	29 -1 	70	NNW	6	33	1022.8 30.21 	10	cloudy	
Wed Feb 3 07:33:27 2010	Nashville, TN (37201) 	38 3 	29 -1 	70	NNW	8	31	1023.0 30.22 	10	cloudy	
Wed Feb 3 08:16:37 2010	Nashville, TN (37201) 	37 2 	29 -1 	72	N	7	31	1023.3 30.23 	10	cloudy	
Wed Feb 3 09:03:05 2010	Nashville, TN (37201) 	36 2 	25 -3 	64	NW	8	29	1024.2 30.25 	10	cloudy	
Wed Feb 3 09:46:24 2010	Nashville, TN (37201) 	36 2 	25 -3 	64	NW	8	29	1024.2 30.25 	10	cloudy	
Wed Feb 3 10:30:16 2010	Nashville, TN (37201) 	36 2 	25 -3 	64	N	6	30	1024.3 30.26 	10	cloudy	
Wed Feb 3 11:17:10 2010	Nashville, TN (37201) 	35 1 	26 -3 	69	NE	3	32	1024.1 30.25 	10	cloudy	
Wed Feb 3 12:01:55 2010	Nashville, TN (37201) 	34 1 	27 -2 	75	calm		34	1023.8 30.24 	10	cloudy	
Wed Feb 3 12:45:07 2010	Nashville, TN (37201) 	34 1 	27 -2 	75	calm		34	1023.8 30.24 	10	cloudy	
Wed Feb 3 13:28:51 2010	Nashville, TN (37201) 	34 1 	27 -2 	75	calm		34	1023.9 30.24 	7	cloudy	
Wed Feb 3 14:14:57 2010	Nashville, TN (37201) 	35 1 	26 -3 	69	calm		35	1025.2 30.28 	7	cloudy	
Wed Feb 3 15:00:55 2010	Nashville, TN (37201) 	37 2 	26 -3 	64	calm		37	1025.9 30.30 	10	cloudy	
Wed Feb 3 15:45:46 2010	Nashville, TN (37201) 	37 2 	26 -3 	64	calm		37	1025.9 30.30 	10	cloudy	
Wed Feb 3 16:31:37 2010	Nashville, TN (37201) 	38 3 	26 -3 	62	N	4	34	1025.9 30.30 	10	cloudy	
Wed Feb 3 17:18:49 2010	Nashville, TN (37201) 	39 3 	26 -3 	59	N	5	35	1027.0 30.34 	10	mostly cloudy	
Wed Feb 3 18:07:07 2010	Nashville, TN (37201) 	41 5 	27 -2 	57	NNW	4	38	1026.9 30.33 	10	partly cloudy	
Wed Feb 3 18:50:13 2010	Nashville, TN (37201) 	41 5 	27 -2 	57	NNW	4	38	1026.9 30.33 	10	partly cloudy	
Wed Feb 3 19:34:30 2010	Nashville, TN (37201) 	43 6 	27 -2 	53	W	6	39	1026.1 30.31 	10	partly cloudy	
Wed Feb 3 20:18:36 2010	Nashville, TN (37201) 	44 6 	27 -2 	51	NE	4	42	1024.8 30.27 	10	mostly clear	
Wed Feb 3 21:02:53 2010	Nashville, TN (37201) 	44 6 	26 -3 	49	calm		44	1024.4 30.26 	10	mostly clear	
Wed Feb 3 21:51:00 2010	Nashville, TN (37201) 	44 6 	26 -3 	49	calm		44	1024.4 30.26 	10	mostly clear	
Wed Feb 3 22:36:32 2010	Nashville, TN (37201) 	46 7 	27 -2 	47	NNE	8	41	1023.8 30.24 	10	mostly clear	
Wed Feb 3 23:27:26 2010	Nashville, TN (37201) 	45 7 	27 -2 	49	NNE	6	41	1023.8 30.24 	10	partly cloudy	
Fri Jan 29 08:41:27 2010	New York, NY (10001) 	19 -7 	-1 -18 	41	W	16	4	1021.6 30.18 	10	clear	
Fri Jan 29 09:25:22 2010	New York, NY (10001) 	18 -7 	-1 -18 	43	W	12	4	1022.4 30.20 	10	clear	
Fri Jan 29 11:57:24 2010	New York, NY (10001) 	17 -8 	-2 -18 	42	WNW	7	7	1024.4 30.26 	10	clear	
Fri Jan 29 12:42:06 2010	New York, NY (10001) 	17 -8 	-1 -18 	44	W	9	5	1024.1 30.25 	10	clear	
Fri Jan 29 13:29:49 2010	New York, NY (10001) 	16 -8 	-2 -18 	44	WNW	14	1	1024.4 30.26 	10	clear	
Fri Jan 29 14:17:42 2010	New York, NY (10001) 	16 -8 	-2 -18 	44	WNW	13	1	1025.4 30.29 	10	clear	
Fri Jan 29 15:02:27 2010	New York, NY (10001) 	16 -8 	-2 -18 	44	WNW	15	0	1025.7 30.30 	10	clear	
Fri Jan 29 15:48:00 2010	New York, NY (10001) 	16 -8 	-2 -18 	44	WNW	15	0	1025.7 30.30 	10	clear	
Fri Jan 29 16:35:40 2010	New York, NY (10001) 	18 -7 	-4 -20 	37	WNW	11	5	1025.9 30.30 	10	clear	
Fri Jan 29 17:20:10 2010	New York, NY (10001) 	19 -7 	-4 -20 	35	WNW	13	5	1025.2 30.28 	10	clear	
Fri Jan 29 18:08:42 2010	New York, NY (10001) 	20 -6 	-3 -19 	36	WNW	10	8	1024.2 30.25 	10	clear	
Fri Jan 29 18:53:41 2010	New York, NY (10001) 	20 -6 	-3 -19 	36	WNW	10	8	1024.2 30.25 	10	clear	
Fri Jan 29 19:45:40 2010	New York, NY (10001) 	21 -6 	-2 -18 	36	W	9	10	1023.5 30.23 	10	mostly clear	
Fri Jan 29 20:43:29 2010	New York, NY (10001) 	22 -5 	-2 -18 	34	WNW	12	9	1022.8 30.21 	10	mostly clear	
Fri Jan 29 21:28:08 2010	New York, NY (10001) 	23 -5 	-2 -18 	33	W	12	11	1023.0 30.22 	10	clear	
Fri Jan 29 22:14:44 2010	New York, NY (10001) 	23 -5 	-1 -18 	34	WNW	10	12	1023.2 30.22 	10	clear	
Fri Jan 29 22:59:39 2010	New York, NY (10001) 	23 -5 	-1 -18 	34	WNW	10	12	1023.2 30.22 	10	clear	
Fri Jan 29 23:43:56 2010	New York, NY (10001) 	22 -5 	-2 -18 	34	W	7	13	1023.9 30.24 	10	clear	
Mon Feb 1 00:10:55 2010	New York, NY (10001) 	28 -2 	16-Mar	34	SW	7	20	1018.5 30.09 	10	clear	
Mon Feb 1 00:53:52 2010	New York, NY (10001) 	28 -2 	16-Mar	34	SW	7	20	1018.5 30.09 	10	clear	
Mon Feb 1 01:40:10 2010	New York, NY (10001) 	28 -2 	16-Feb	32	N	4	23	1018.6 30.09 	10	clear	
Mon Feb 1 02:24:07 2010	New York, NY (10001) 	28 -2 	17-Jan	31	N	6	21	1018.8 30.09 	10	clear	
Mon Feb 1 03:07:50 2010	New York, NY (10001) 	28 -2 	16-Mar	34	N	3	24	1019.1 30.10 	10	clear	
Mon Feb 1 03:52:29 2010	New York, NY (10001) 	28 -2 	16-Mar	34	N	3	24	1019.1 30.10 	10	clear	
Mon Feb 1 04:37:16 2010	New York, NY (10001) 	27 -2 	16-Mar	35	N	3	23	1019.0 30.10 	10	mostly clear	
Mon Feb 1 05:20:26 2010	New York, NY (10001) 	27 -2 	16-Mar	35	SW	7	19	1019.4 30.11 	10	clear	
Mon Feb 1 06:05:18 2010	New York, NY (10001) 	26 -3 	15-Apr	38	WSW	7	18	1019.2 30.11 	10	mostly clear	
Mon Feb 1 06:48:29 2010	New York, NY (10001) 	26 -3 	15-Apr	38	WSW	7	18	1019.2 30.11 	10	mostly clear	
Mon Feb 1 07:32:18 2010	New York, NY (10001) 	26 -3 	14-Jun	42	N	5	19	1019.4 30.11 	10	clear	
Mon Feb 1 08:15:25 2010	New York, NY (10001) 	26 -3 	15-May	40	N	6	18	1019.9 30.13 	10	clear	
Mon Feb 1 08:59:11 2010	New York, NY (10001) 	26 -3 	15-May	40	N	6	18	1019.9 30.13 	10	clear	
Mon Feb 1 09:42:10 2010	New York, NY (10001) 	25 -3 	14-Jun	44	N	6	17	1020.8 30.15 	10	clear	
Mon Feb 1 10:25:43 2010	New York, NY (10001) 	25 -3 	14-Jun	44	W	7	16	1021.1 30.16 	10	clear	
Mon Feb 1 11:08:40 2010	New York, NY (10001) 	26 -3 	14-Jun	42	W	14	14	1021.8 30.18 	10	clear	
Mon Feb 1 11:52:06 2010	New York, NY (10001) 	26 -3 	14-Jun	42	W	14	14	1021.8 30.18 	10	clear	
Mon Feb 1 12:35:27 2010	New York, NY (10001) 	26 -3 	13-Aug	46	W	8	17	1022.4 30.20 	10	clear	
Mon Feb 1 13:19:01 2010	New York, NY (10001) 	25 -3 	12-Sep	50	WSW	5	18	1023.3 30.23 	10	clear	
Mon Feb 1 14:02:53 2010	New York, NY (10001) 	26 -3 	12-Oct	50	WSW	8	17	1024.6 30.27 	10	clear	
Mon Feb 1 14:47:59 2010	New York, NY (10001) 	26 -3 	12-Oct	50	WSW	8	17	1024.6 30.27 	10	clear	
Mon Feb 1 15:31:43 2010	New York, NY (10001) 	27 -2 	12-Oct	48	N	6	20	1025.0 30.28 	10	clear	
Mon Feb 1 16:16:10 2010	New York, NY (10001) 	28 -2 	12-Oct	46	W	12	17	1025.4 30.29 	10	clear	
Mon Feb 1 17:01:02 2010	New York, NY (10001) 	29 -1 	12-Sep	43	W	10	19	1024.7 30.27 	10	clear	
Mon Feb 1 17:44:59 2010	New York, NY (10001) 	29 -1 	12-Sep	43	W	10	19	1024.7 30.27 	10	clear	
Mon Feb 1 18:28:30 2010	New York, NY (10001) 	32 0 	12-Oct	39	WNW	8	24	1023.8 30.24 	10	clear	
Mon Feb 1 19:12:16 2010	New York, NY (10001) 	33 0 	12-Sep	36	W	10	24	1023.4 30.23 	10	clear	
Mon Feb 1 19:57:07 2010	New York, NY (10001) 	33 0 	12-Sep	36	W	10	24	1023.4 30.23 	10	clear	
Mon Feb 1 20:43:33 2010	New York, NY (10001) 	33 0 	12-Sep	36	WSW	6	27	1022.4 30.20 	10	clear	
Mon Feb 1 21:28:27 2010	New York, NY (10001) 	34 1 	12-Sep	35	W	9	26	1022.7 30.21 	10	clear	
Mon Feb 1 22:11:52 2010	New York, NY (10001) 	35 1 	12-Sep	33	W	8	28	1022.8 30.21 	10	clear	
Mon Feb 1 22:55:11 2010	New York, NY (10001) 	35 1 	12-Sep	33	W	8	28	1022.8 30.21 	10	clear	
Mon Feb 1 23:41:19 2010	New York, NY (10001) 	34 1 	12-Oct	36	N	5	29	1022.8 30.21 	10	clear	
Sat Jan 30 00:28:00 2010	New York, NY (10001) 	22 -5 	-0 -17 	38	WNW	8	12	1024.2 30.25 	10	clear	
Sat Jan 30 01:12:10 2010	New York, NY (10001) 	21 -6 	17-Jan	41	W	9	10	1024.6 30.27 	10	clear	
Sat Jan 30 01:55:42 2010	New York, NY (10001) 	21 -6 	17-Jan	41	W	9	10	1024.6 30.27 	10	clear	
Sat Jan 30 02:40:22 2010	New York, NY (10001) 	20 -6 	-0 -17 	41	W	9	9	1024.9 30.27 	10	clear	
Sat Jan 30 03:23:55 2010	New York, NY (10001) 	19 -7 	16-Feb	47	N	4	12	1025.4 30.29 	10	clear	
Sat Jan 30 04:07:50 2010	New York, NY (10001) 	18 -7 	-0 -17 	44	WNW	8	7	1025.8 30.30 	10	clear	
Sat Jan 30 04:51:36 2010	New York, NY (10001) 	18 -7 	-0 -17 	44	WNW	8	7	1025.8 30.30 	10	clear	
Sat Jan 30 05:35:17 2010	New York, NY (10001) 	17 -8 	-0 -17 	46	WNW	9	5	1025.2 30.28 	10	clear	
Sat Jan 30 06:19:25 2010	New York, NY (10001) 	16 -8 	-2 -18 	44	N	4	9	1025.3 30.29 	10	clear	
Sat Jan 30 07:05:26 2010	New York, NY (10001) 	16 -8 	-2 -18 	44	W	7	5	1025.4 30.29 	10	clear	
Sat Jan 30 07:48:08 2010	New York, NY (10001) 	16 -8 	-2 -18 	44	W	7	5	1025.4 30.29 	10	clear	
Sat Jan 30 08:31:21 2010	New York, NY (10001) 	16 -8 	-1 -18 	47	N	6	6	1026.0 30.31 	10	clear	
Sat Jan 30 11:13:07 2010	New York, NY (10001) 	15 -9 	-2 -18 	46	WNW	10	2	1025.3 30.29 	10	clear	
Sat Jan 30 12:00:54 2010	New York, NY (10001) 	15 -9 	-3 -19 	44	W	8	3	1025.3 30.29 	10	clear	
Sat Jan 30 12:44:33 2010	New York, NY (10001) 	15 -9 	-3 -19 	44	W	8	3	1025.3 30.29 	10	clear	
Sat Jan 30 13:27:49 2010	New York, NY (10001) 	13 -10 	-5 -20 	44	WNW	8	1	1024.8 30.27 	10	clear	
Sat Jan 30 14:12:00 2010	New York, NY (10001) 	13 -10 	-6 -21 	42	W	9	0	1025.0 30.28 	10	clear	
Sat Jan 30 14:56:02 2010	New York, NY (10001) 	13 -10 	-6 -21 	42	W	9	0	1025.0 30.28 	10	clear	
Sat Jan 30 15:41:52 2010	New York, NY (10001) 	14 -10 	-6 -21 	40	N	10	0	1025.2 30.28 	10	clear	
Sat Jan 30 16:26:52 2010	New York, NY (10001) 	13 -10 	-6 -21 	42	W	6	3	1024.4 30.26 	10	clear	
Sat Jan 30 17:11:17 2010	New York, NY (10001) 	16 -8 	-5 -20 	38	N	4	9	1023.7 30.24 	10	clear	
Sat Jan 30 17:54:30 2010	New York, NY (10001) 	16 -8 	-5 -20 	38	N	4	9	1023.7 30.24 	10	clear	
Sat Jan 30 18:38:30 2010	New York, NY (10001) 	17 -8 	-4 -20 	38	N	5	9	1022.5 30.20 	10	clear	
Sat Jan 30 19:21:48 2010	New York, NY (10001) 	18 -7 	-3 -19 	39	N	5	10	1021.6 30.18 	10	partly cloudy	
Sat Jan 30 20:06:03 2010	New York, NY (10001) 	18 -7 	-3 -19 	39	WNW	7	8	1021.2 30.16 	10	mostly clear	
Sat Jan 30 20:49:08 2010	New York, NY (10001) 	18 -7 	-3 -19 	39	WNW	7	8	1021.2 30.16 	10	mostly clear	
Sat Jan 30 21:32:55 2010	New York, NY (10001) 	20 -6 	-1 -18 	39	NNE	5	12	1020.3 30.14 	10	mostly clear	
Sat Jan 30 22:16:10 2010	New York, NY (10001) 	20 -6 	-1 -18 	39	N	7	10	1020.2 30.14 	10	mostly cloudy	
Sat Jan 30 23:01:45 2010	New York, NY (10001) 	19 -7 	-1 -18 	41	NNE	12	6	1019.4 30.11 	10	mostly cloudy	
Sat Jan 30 23:46:28 2010	New York, NY (10001) 	19 -7 	-1 -18 	41	NNE	12	6	1019.4 30.11 	10	mostly cloudy	
Sun Jan 31 00:30:24 2010	New York, NY (10001) 	19 -7 	-0 -17 	43	NE	10	7	1019.3 30.11 	10	cloudy	
Sun Jan 31 01:21:11 2010	New York, NY (10001) 	19 -7 	-0 -17 	43	N	10	7	1018.4 30.08 	10	cloudy	
Sun Jan 31 02:05:10 2010	New York, NY (10001) 	19 -7 	16-Mar	49	N	9	7	1017.6 30.06 	10	cloudy	
Sun Jan 31 02:48:37 2010	New York, NY (10001) 	19 -7 	16-Mar	49	N	9	7	1017.6 30.06 	10	cloudy	
Sun Jan 31 03:32:29 2010	New York, NY (10001) 	19 -7 	16-Feb	47	N	8	8	1016.8 30.03 	10	cloudy	
Sun Jan 31 04:15:56 2010	New York, NY (10001) 	19 -7 	16-Feb	47	N	6	10	1016.3 30.02 	10	cloudy	
Sun Jan 31 05:00:29 2010	New York, NY (10001) 	19 -7 	16-Feb	47	NNW	10	7	1015.7 30.00 	10	cloudy	
Sun Jan 31 05:46:34 2010	New York, NY (10001) 	19 -7 	16-Feb	47	NNW	10	7	1015.7 30.00 	10	cloudy	
Sun Jan 31 06:31:46 2010	New York, NY (10001) 	18 -7 	16-Feb	49	N	7	8	1015.2 29.99 	10	cloudy	
Sun Jan 31 07:14:41 2010	New York, NY (10001) 	17 -8 	-0 -17 	46	N	7	7	1015.6 30.00 	10	mostly cloudy	
Sun Jan 31 08:01:23 2010	New York, NY (10001) 	17 -8 	-0 -17 	46	N	7	7	1015.2 29.99 	10	clear	
Sun Jan 31 08:46:05 2010	New York, NY (10001) 	17 -8 	-0 -17 	46	N	7	7	1015.2 29.99 	10	clear	
Sun Jan 31 09:29:19 2010	New York, NY (10001) 	17 -8 	-0 -17 	46	NNE	7	7	1015.9 30.01 	10	clear	
Sun Jan 31 10:12:31 2010	New York, NY (10001) 	17 -8 	-0 -17 	46	N	6	8	1016.4 30.02 	10	clear	
Sun Jan 31 10:56:16 2010	New York, NY (10001) 	17 -8 	-0 -17 	46	N	6	8	1016.4 30.02 	10	clear	
Sun Jan 31 11:39:44 2010	New York, NY (10001) 	16 -8 	-1 -18 	47	N	6	6	1017.5 30.06 	10	clear	
Sun Jan 31 12:23:24 2010	New York, NY (10001) 	15 -9 	-1 -18 	48	NNW	7	4	1017.6 30.06 	10	clear	
Sun Jan 31 13:06:47 2010	New York, NY (10001) 	14 -10 	-1 -18 	51	N	5	5	1018.1 30.07 	10	clear	
Sun Jan 31 13:50:23 2010	New York, NY (10001) 	14 -10 	-1 -18 	51	N	5	5	1018.1 30.07 	10	clear	
Sun Jan 31 14:33:14 2010	New York, NY (10001) 	14 -10 	-1 -18 	51	N	3	8	1019.5 30.11 	10	clear	
Sun Jan 31 15:17:20 2010	New York, NY (10001) 	15 -9 	-1 -18 	48	calm		15	1019.4 30.11 	10	clear	
Sun Jan 31 16:00:47 2010	New York, NY (10001) 	17 -8 	-1 -18 	44	WNW	8	6	1019.7 30.12 	10	clear	
Sun Jan 31 16:50:35 2010	New York, NY (10001) 	17 -8 	-1 -18 	44	WNW	8	6	1019.7 30.12 	10	clear	
Sun Jan 31 17:34:16 2010	New York, NY (10001) 	20 -6 	-1 -18 	39	N	5	12	1019.9 30.13 	10	clear	
Sun Jan 31 18:19:16 2010	New York, NY (10001) 	22 -5 	-0 -17 	38	N	5	14	1019.6 30.12 	10	clear	
Sun Jan 31 19:03:01 2010	New York, NY (10001) 	25 -3 	17-Jan	35	N	4	19	1018.7 30.09 	10	clear	
Sun Jan 31 19:48:25 2010	New York, NY (10001) 	25 -3 	17-Jan	35	N	4	19	1018.7 30.09 	10	clear	
Sun Jan 31 20:31:23 2010	New York, NY (10001) 	27 -2 	17-Jan	32	W	6	20	1018.2 30.08 	10		
Sun Jan 31 21:15:36 2010	New York, NY (10001) 	29 -1 	17-Jan	30	N	6	22	1018.2 30.08 	10	clear	
Sun Jan 31 21:58:50 2010	New York, NY (10001) 	29 -1 	17-Jan	30	N	6	22	1018.2 30.08 	10	clear	
Sun Jan 31 22:43:39 2010	New York, NY (10001) 	30 -1 	17-Jan	28	W	6	23	1018.0 30.07 	10	clear	
Sun Jan 31 23:26:59 2010	New York, NY (10001) 	29 -1 	17-Jan	30	WSW	7	21	1018.0 30.07 	10	clear	
Thu Feb 4 00:12:18 2010	New York, NY (10001) 	36 2 	21 -6 	54	WNW	7	30	1017.5 30.06 	10	cloudy	
Thu Feb 4 00:56:23 2010	New York, NY (10001) 	36 2 	21 -6 	54	WNW	7	30	1017.5 30.06 	10	cloudy	
Thu Feb 4 01:39:38 2010	New York, NY (10001) 	35 1 	21 -6 	56	WNW	7	29	1018.6 30.09 	10	clear	
Thu Feb 4 02:27:23 2010	New York, NY (10001) 	34 1 	21 -6 	59	N	4	30	1019.4 30.11 	10	clear	
Thu Feb 4 03:10:32 2010	New York, NY (10001) 	34 1 	20 -6 	56	N	6	28	1019.9 30.13 	10	clear	
Thu Feb 4 03:55:01 2010	New York, NY (10001) 	34 1 	20 -6 	56	N	6	28	1019.9 30.13 	10	clear	
Thu Feb 4 04:38:18 2010	New York, NY (10001) 	33 0 	20 -6 	58	N	5	28	1020.4 30.14 	10	clear	
Thu Feb 4 05:21:38 2010	New York, NY (10001) 	32 0 	19 -7 	58	WNW	10	23	1021.1 30.16 	10	clear	
Thu Feb 4 06:04:30 2010	New York, NY (10001) 	31 0 	19 -7 	61	W	6	24	1021.1 30.16 	10	clear	
Thu Feb 4 06:47:32 2010	New York, NY (10001) 	31 0 	19 -7 	61	W	6	24	1021.1 30.16 	10	clear	
Thu Feb 4 07:31:09 2010	New York, NY (10001) 	31 0 	20 -6 	63	W	7	23	1021.3 30.17 	10	clear	
Thu Feb 4 08:13:43 2010	New York, NY (10001) 	31 0 	19 -7 	61	W	8	23	1021.6 30.18 	10	clear	
Thu Feb 4 08:57:25 2010	New York, NY (10001) 	31 0 	19 -7 	61	W	8	23	1021.6 30.18 	10	clear	
Thu Feb 4 09:41:20 2010	New York, NY (10001) 	31 0 	18 -7 	58	W	8	23	1022.1 30.19 	10	clear	
Thu Feb 4 10:25:00 2010	New York, NY (10001) 	31 0 	17 -8 	56	WNW	9	22	1022.1 30.19 	10	partly cloudy	
Thu Feb 4 11:10:55 2010	New York, NY (10001) 	31 0 	15 -9 	51	WNW	14	20	1022.7 30.21 	10	clear	
Thu Feb 4 11:54:26 2010	New York, NY (10001) 	31 0 	15 -9 	51	WNW	14	20	1022.7 30.21 	10	clear	
Thu Feb 4 12:37:32 2010	New York, NY (10001) 	29 -1 	15 -9 	56	W	8	20	1024.7 30.27 	10	clear	
Thu Feb 4 13:21:37 2010	New York, NY (10001) 	28 -2 	13 -10 	53	N	6	21	1025.5 30.29 	10	clear	
Thu Feb 4 14:06:27 2010	New York, NY (10001) 	28 -2 	11-Nov	48	WNW	8	19	1026.5 30.32 	10	clear	
Thu Feb 4 14:59:12 2010	New York, NY (10001) 	28 -2 	11-Nov	48	WNW	8	19	1026.5 30.32 	10	clear	
Thu Jan 28 15:38:52 2010	New York, NY (10001) 	31 0 	29 -1 	92	SW	8	23	1017.6 30.06 	0	cloudy	moderate snow 
Thu Jan 28 15:59:37 2010	New York, NY (10001) 	31 0 	29 -1 	92	SW	8	23	1017.6 30.06 	0	cloudy	moderate snow 
Thu Jan 28 16:49:00 2010	New York, NY (10001) 	32 0 	31 0 	96	calm		32	1016.3 30.02 	0	obscured	moderate snow 
Thu Jan 28 17:13:15 2010	New York, NY (10001) 	35 1 	32 0 	88	WSW	8	28	1015.3 29.99 	10	cloudy	
Thu Jan 28 17:29:13 2010	New York, NY (10001) 	35 1 	32 0 	88	WSW	8	28	1015.3 29.99 	10	cloudy	
Tue Feb 2 00:28:10 2010	New York, NY (10001) 	33 0 	12-Oct	38	N	3	30	1023.0 30.22 	10	clear	
Tue Feb 2 01:13:48 2010	New York, NY (10001) 	33 0 	12-Oct	38	N	4	29	1023.2 30.22 	10	mostly cloudy	
Tue Feb 2 01:56:57 2010	New York, NY (10001) 	33 0 	12-Oct	38	N	4	29	1023.2 30.22 	10	mostly cloudy	
Tue Feb 2 02:40:59 2010	New York, NY (10001) 	32 0 	11-Nov	41	N	5	26	1023.5 30.23 	10	clear	
Tue Feb 2 03:24:31 2010	New York, NY (10001) 	32 0 	11-Nov	41	W	7	25	1023.2 30.22 	10	clear	
Tue Feb 2 04:08:17 2010	New York, NY (10001) 	31 0 	11-Dec	45	N	5	25	1023.3 30.23 	10	clear	
Tue Feb 2 04:51:50 2010	New York, NY (10001) 	31 0 	11-Dec	45	N	5	25	1023.3 30.23 	10	clear	
Tue Feb 2 05:35:13 2010	New York, NY (10001) 	31 0 	11-Dec	45	N	5	25	1023.5 30.23 	10	clear	
Tue Feb 2 06:18:27 2010	New York, NY (10001) 	30 -1 	11-Dec	47	N	6	23	1024.0 30.25 	10	clear	
Tue Feb 2 07:05:38 2010	New York, NY (10001) 	30 -1 	11-Dec	47	N	3	26	1024.0 30.25 	10	clear	
Tue Feb 2 07:48:38 2010	New York, NY (10001) 	30 -1 	11-Dec	47	N	3	26	1024.0 30.25 	10	clear	
Tue Feb 2 08:31:50 2010	New York, NY (10001) 	31 0 	11-Dec	45	W	3	27	1024.4 30.26 	10	clear	
Tue Feb 2 09:15:19 2010	New York, NY (10001) 	30 -1 	11-Dec	47	W	5	24	1024.5 30.26 	10	clear	
Tue Feb 2 09:58:52 2010	New York, NY (10001) 	30 -1 	11-Dec	47	W	5	24	1024.5 30.26 	10	clear	
Tue Feb 2 10:42:25 2010	New York, NY (10001) 	29 -1 	11-Nov	46	W	3	25	1024.2 30.25 	10	clear	
Tue Feb 2 11:26:31 2010	New York, NY (10001) 	28 -2 	11-Dec	51	N	3	24	1024.5 30.26 	10	clear	
Tue Feb 2 12:10:30 2010	New York, NY (10001) 	28 -2 	12-Sep	44	NNW	8	19	1024.7 30.27 	10	clear	
Tue Feb 2 12:54:27 2010	New York, NY (10001) 	28 -2 	12-Sep	44	NNW	8	19	1024.7 30.27 	10	clear	
Tue Feb 2 13:37:44 2010	New York, NY (10001) 	28 -2 	12-Sep	44	calm		28	1025.1 30.28 	10	clear	
Tue Feb 2 14:21:27 2010	New York, NY (10001) 	28 -2 	12-Sep	44	calm		28	1025.1 30.28 	10	clear	
Tue Feb 2 15:05:47 2010	New York, NY (10001) 	29 -1 	12-Oct	45	N	3	25	1025.4 30.29 	10	mostly cloudy	
Tue Feb 2 15:52:13 2010	New York, NY (10001) 	29 -1 	12-Oct	45	N	3	25	1025.4 30.29 	10	mostly cloudy	
Tue Feb 2 16:44:43 2010	New York, NY (10001) 	29 -1 	11-Nov	46	calm		29	1025.0 30.28 	10	clear	
Tue Feb 2 17:33:09 2010	New York, NY (10001) 	31 0 	11-Nov	43	ESE	8	23	1024.5 30.26 	10	mostly cloudy	
Tue Feb 2 18:17:46 2010	New York, NY (10001) 	32 0 	11-Dec	43	N	4	27	1023.6 30.24 	10	mostly cloudy	
Tue Feb 2 19:01:57 2010	New York, NY (10001) 	33 0 	12-Sep	36	SSE	6	27	1022.9 30.22 	10	cloudy	
Tue Feb 2 19:51:11 2010	New York, NY (10001) 	33 0 	12-Sep	36	SSE	6	27	1022.9 30.22 	10	cloudy	
Tue Feb 2 20:42:30 2010	New York, NY (10001) 	33 0 	11-Nov	39	SSE	7	26	1022.4 30.20 	10	mostly cloudy	
Tue Feb 2 21:29:21 2010	New York, NY (10001) 	33 0 	15 -9 	47	N	5	28	1022.7 30.21 	10	mostly cloudy	
Tue Feb 2 22:17:44 2010	New York, NY (10001) 	33 0 	15 -9 	47	S	4	29	1022.7 30.21 	10	mostly cloudy	
Tue Feb 2 23:02:00 2010	New York, NY (10001) 	33 0 	18 -7 	53	N	5	28	1021.9 30.19 	10	mostly cloudy	
Tue Feb 2 23:47:01 2010	New York, NY (10001) 	33 0 	18 -7 	53	N	5	28	1021.9 30.19 	10	mostly cloudy	
Wed Feb 3 00:31:45 2010	New York, NY (10001) 	33 0 	19 -7 	56	N	3	30	1021.5 30.17 	10	cloudy	
Wed Feb 3 01:18:56 2010	New York, NY (10001) 	32 0 	20 -6 	61	N	6	26	1021.4 30.17 	10	cloudy	
Wed Feb 3 02:03:43 2010	New York, NY (10001) 	32 0 	21 -6 	63	SE	7	25	1021.2 30.16 	9	cloudy	
Wed Feb 3 02:52:26 2010	New York, NY (10001) 	32 0 	21 -6 	63	SE	7	25	1021.2 30.16 	9	cloudy	
Wed Feb 3 03:39:16 2010	New York, NY (10001) 	31 0 	23 -5 	72	calm		31	1021.0 30.16 	9	cloudy	
Wed Feb 3 04:27:25 2010	New York, NY (10001) 	30 -1 	25 -3 	81	NE	4	25	1020.1 30.13 	2	cloudy	light snow 
Wed Feb 3 05:14:10 2010	New York, NY (10001) 	29 -1 	26 -3 	89	NNE	3	25	1019.7 30.12 	2	cloudy	light snow 
Wed Feb 3 06:02:02 2010	New York, NY (10001) 	29 -1 	27 -2 	92	calm		29	1018.9 30.10 	1	cloudy	light snow 
Wed Feb 3 06:48:45 2010	New York, NY (10001) 	29 -1 	27 -2 	92	calm		29	1018.9 30.10 	1	cloudy	light snow 
Wed Feb 3 07:33:24 2010	New York, NY (10001) 	29 -1 	27 -2 	92	NE	8	20	1018.2 30.08 	1	cloudy	light snow 
Wed Feb 3 08:16:34 2010	New York, NY (10001) 	29 -1 	26 -3 	89	N	3	25	1018.0 30.07 	2	cloudy	light snow 
Wed Feb 3 09:03:01 2010	New York, NY (10001) 	29 -1 	26 -3 	89	NE	5	23	1017.5 30.06 	3	cloudy	light snow 
Wed Feb 3 09:46:21 2010	New York, NY (10001) 	29 -1 	26 -3 	89	NE	5	23	1017.5 30.06 	3	cloudy	light snow 
Wed Feb 3 10:30:12 2010	New York, NY (10001) 	29 -1 	26 -3 	89		5	23	1017.3 30.05 	4	cloudy	light snow 
Wed Feb 3 11:17:07 2010	New York, NY (10001) 	29 -1 	27 -2 	92	NE	4	24	1017.0 30.04 	3	cloudy	light snow 
Wed Feb 3 12:01:52 2010	New York, NY (10001) 	29 -1 	27 -2 	92	calm		29	1017.3 30.05 	4	cloudy	haze 
Wed Feb 3 12:45:03 2010	New York, NY (10001) 	29 -1 	27 -2 	92	calm		29	1017.3 30.05 	4	cloudy	haze 
Wed Feb 3 13:28:48 2010	New York, NY (10001) 	30 -1 	27 -2 	88	calm		30	1017.2 30.05 	6	cloudy	haze 
Wed Feb 3 14:14:54 2010	New York, NY (10001) 	30 -1 	27 -2 	88	calm		30	1017.7 30.06 	6	cloudy	haze 
Wed Feb 3 15:00:49 2010	New York, NY (10001) 	30 -1 	28 -2 	92	calm		30	1018.0 30.07 	5	cloudy	haze 
Wed Feb 3 15:45:43 2010	New York, NY (10001) 	30 -1 	28 -2 	92	calm		30	1018.0 30.07 	5	cloudy	haze 
Wed Feb 3 16:31:34 2010	New York, NY (10001) 	31 0 	27 -2 	85	N	3	27	1018.1 30.07 	5	cloudy	haze 
Wed Feb 3 17:18:46 2010	New York, NY (10001) 	33 0 	28 -2 	81	N	5	28	1017.6 30.06 	9	cloudy	
Wed Feb 3 18:07:03 2010	New York, NY (10001) 	34 1 	28 -2 	78	calm		34	1016.5 30.03 	10	mostly cloudy	
Wed Feb 3 18:50:08 2010	New York, NY (10001) 	34 1 	28 -2 	78	calm		34	1016.5 30.03 	10	mostly cloudy	
Wed Feb 3 19:34:27 2010	New York, NY (10001) 	36 2 	27 -2 	69	W	3	33	1015.7 30.00 	10	mostly cloudy	
Wed Feb 3 20:18:32 2010	New York, NY (10001) 	38 3 	27 -2 	64	WNW	8	31	1015.3 29.99 	10	mostly cloudy	
Wed Feb 3 21:02:49 2010	New York, NY (10001) 	37 2 	25 -3 	61	N	3	34	1015.5 30.00 	10	cloudy	
Wed Feb 3 21:50:56 2010	New York, NY (10001) 	37 2 	25 -3 	61	N	3	34	1015.5 30.00 	10	cloudy	
Wed Feb 3 22:36:29 2010	New York, NY (10001) 	37 2 	22 -5 	54	WNW	10	29	1015.9 30.01 	10	mostly cloudy	
Wed Feb 3 23:27:23 2010	New York, NY (10001) 	36 2 	23 -5 	59	WNW	6	30	1016.4 30.02 	10	cloudy	
Fri Jan 29 08:41:30 2010	Oklahoma City, OK (73101) 	27 -2 	25 -3 	92	N	15	14	1022.9 30.22 	4	cloudy	light snow 
Fri Jan 29 09:25:25 2010	Oklahoma City, OK (73101) 	26 -3 	24 -4 	92	N	15	13	1022.6 30.21 	5	cloudy	light freezing rain 
Fri Jan 29 11:57:27 2010	Oklahoma City, OK (73101) 	25 -3 	22 -5 	88	N	17	11	1021.7 30.18 	4	cloudy	light snow 
Fri Jan 29 12:42:09 2010	Oklahoma City, OK (73101) 	24 -4 	22 -5 	91	NNE	14	11	1021.5 30.17 	3	cloudy	light freezing rain 
Fri Jan 29 13:29:52 2010	Oklahoma City, OK (73101) 	24 -4 	22 -5 	91	N	14	11	1021.4 30.17 	4	cloudy	light freezing rain 
Fri Jan 29 14:17:44 2010	Oklahoma City, OK (73101) 	24 -4 	21 -6 	88	NNE	15	11	1021.8 30.18 	5	cloudy	light freezing rain 
Fri Jan 29 15:02:31 2010	Oklahoma City, OK (73101) 	23 -5 	21 -6 	92	N	13	10	1021.5 30.17 	1	cloudy	light snow 
Fri Jan 29 15:48:03 2010	Oklahoma City, OK (73101) 	23 -5 	21 -6 	92	N	13	10	1021.5 30.17 	1	cloudy	light snow 
Fri Jan 29 16:35:43 2010	Oklahoma City, OK (73101) 	23 -5 	20 -6 	88	N	15	9	1021.1 30.16 	2	cloudy	light snow 
Fri Jan 29 17:20:14 2010	Oklahoma City, OK (73101) 	23 -5 	20 -6 	88	N	11	11	1022.3 30.20 	2	cloudy	light snow 
Fri Jan 29 18:08:45 2010	Oklahoma City, OK (73101) 	23 -5 	20 -6 	88	N	14	10	1021.7 30.18 	2	cloudy	light snow 
Fri Jan 29 18:53:44 2010	Oklahoma City, OK (73101) 	23 -5 	20 -6 	88	N	14	10	1021.7 30.18 	2	cloudy	light snow 
Fri Jan 29 19:45:44 2010	Oklahoma City, OK (73101) 	23 -5 	20 -6 	88	N	15	9	1021.0 30.16 	0	obscured	fog 
Fri Jan 29 20:43:32 2010	Oklahoma City, OK (73101) 	23 -5 	20 -6 	88	N	13	10	1021.0 30.16 	0	cloudy	haze 
Fri Jan 29 21:28:10 2010	Oklahoma City, OK (73101) 	22 -5 	19 -7 	88	N	14	8	1019.7 30.12 	0	obscured	fog 
Fri Jan 29 22:14:46 2010	Oklahoma City, OK (73101) 	22 -5 	19 -7 	88	N	15	8	1019.7 30.12 	0	obscured	fog 
Fri Jan 29 22:59:41 2010	Oklahoma City, OK (73101) 	22 -5 	19 -7 	88	N	15	8	1019.7 30.12 	0	obscured	fog 
Fri Jan 29 23:43:59 2010	Oklahoma City, OK (73101) 	22 -5 	19 -7 	88	N	15	8	1020.1 30.13 	0	obscured	haze 
Mon Feb 1 00:10:58 2010	Oklahoma City, OK (73101) 	27 -2 	24 -4 	89	SE	10	17	1023.0 30.22 	2	cloudy	
Mon Feb 1 00:53:55 2010	Oklahoma City, OK (73101) 	27 -2 	24 -4 	89	SE	10	17	1023.0 30.22 	2	cloudy	
Mon Feb 1 01:40:14 2010	Oklahoma City, OK (73101) 	27 -2 	25 -3 	92	SSE	12	16	1023.3 30.23 	2	cloudy	
Mon Feb 1 02:24:11 2010	Oklahoma City, OK (73101) 	27 -2 	25 -3 	92	S	11	16	1023.4 30.23 	2	cloudy	
Mon Feb 1 03:07:52 2010	Oklahoma City, OK (73101) 	27 -2 	26 -3 	96	S	11	16	1023.1 30.22 	2	cloudy	
Mon Feb 1 03:52:32 2010	Oklahoma City, OK (73101) 	27 -2 	26 -3 	96	S	11	16	1023.1 30.22 	2	cloudy	
Mon Feb 1 04:37:19 2010	Oklahoma City, OK (73101) 	28 -2 	26 -3 	92	SE	10	18	1022.4 30.20 	1	cloudy	light freezing rain 
Mon Feb 1 05:20:29 2010	Oklahoma City, OK (73101) 	27 -2 	26 -3 	96	SSE	11	16	1022.5 30.20 	1	cloudy	light freezing rain 
Mon Feb 1 06:05:22 2010	Oklahoma City, OK (73101) 	28 -2 	27 -2 	96	S	9	19	1022.0 30.19 	1	cloudy	light snow 
Mon Feb 1 06:48:32 2010	Oklahoma City, OK (73101) 	28 -2 	27 -2 	96	S	9	19	1022.0 30.19 	1	cloudy	light snow 
Mon Feb 1 07:32:21 2010	Oklahoma City, OK (73101) 	28 -2 	27 -2 	96	SSE	10	18	1022.0 30.19 	1	cloudy	light freezing rain 
Mon Feb 1 08:15:28 2010	Oklahoma City, OK (73101) 	29 -1 	27 -2 	92	S	10	19	1021.7 30.18 	1	cloudy	light freezing rain 
Mon Feb 1 08:59:13 2010	Oklahoma City, OK (73101) 	29 -1 	27 -2 	92	S	10	19	1021.7 30.18 	1	cloudy	light freezing rain 
Mon Feb 1 09:42:12 2010	Oklahoma City, OK (73101) 	29 -1 	28 -2 	96	S	8	20	1021.6 30.18 	0	cloudy	light freezing rain 
Mon Feb 1 10:25:45 2010	Oklahoma City, OK (73101) 	29 -1 	28 -2 	96	S	6	22	1021.4 30.17 	0	cloudy	light freezing rain 
Mon Feb 1 11:08:42 2010	Oklahoma City, OK (73101) 	30 -1 	28 -2 	92	SSE	9	21	1020.5 30.14 	1	cloudy	
Mon Feb 1 11:52:08 2010	Oklahoma City, OK (73101) 	30 -1 	28 -2 	92	SSE	9	21	1020.5 30.14 	1	cloudy	
Mon Feb 1 12:35:29 2010	Oklahoma City, OK (73101) 	30 -1 	28 -2 	92	SSE	13	19	1019.3 30.11 	3	cloudy	
Mon Feb 1 13:19:03 2010	Oklahoma City, OK (73101) 	30 -1 	28 -2 	92	S	14	19	1018.6 30.09 	4	cloudy	
Mon Feb 1 14:02:56 2010	Oklahoma City, OK (73101) 	30 -1 	28 -2 	92	SSE	15	18	1018.5 30.09 	5	cloudy	
Mon Feb 1 14:48:01 2010	Oklahoma City, OK (73101) 	30 -1 	28 -2 	92	SSE	15	18	1018.5 30.09 	5	cloudy	
Mon Feb 1 15:31:45 2010	Oklahoma City, OK (73101) 	29 -1 	28 -2 	96	S	12	18	1019.2 30.11 	2	cloudy	
Mon Feb 1 16:16:13 2010	Oklahoma City, OK (73101) 	29 -1 	28 -2 	96	S	12	18	1019.1 30.10 	2	cloudy	haze 
Mon Feb 1 17:01:08 2010	Oklahoma City, OK (73101) 	30 -1 	29 -1 	96	S	8	22	1018.7 30.09 	2	cloudy	haze 
Mon Feb 1 17:45:03 2010	Oklahoma City, OK (73101) 	30 -1 	29 -1 	96	S	8	22	1018.7 30.09 	2	cloudy	haze 
Mon Feb 1 18:28:32 2010	Oklahoma City, OK (73101) 	31 0 	29 -1 	92	S	6	24	1019.0 30.10 	2	cloudy	haze 
Mon Feb 1 19:12:19 2010	Oklahoma City, OK (73101) 	31 0 	30 -1 	96	S	7	23	1018.6 30.09 	2	cloudy	haze 
Mon Feb 1 19:57:09 2010	Oklahoma City, OK (73101) 	31 0 	30 -1 	96	S	7	23	1018.6 30.09 	2	cloudy	haze 
Mon Feb 1 20:43:35 2010	Oklahoma City, OK (73101) 	31 0 	29 -1 	92	SSW	12	21	1018.0 30.07 	2	cloudy	haze 
Mon Feb 1 21:28:30 2010	Oklahoma City, OK (73101) 	32 0 	29 -1 	88	S	9	24	1017.1 30.04 	2	cloudy	haze 
Mon Feb 1 22:11:55 2010	Oklahoma City, OK (73101) 	31 0 	29 -1 	92	SW	7	23	1017.1 30.04 	2	cloudy	haze 
Mon Feb 1 22:55:13 2010	Oklahoma City, OK (73101) 	31 0 	29 -1 	92	SW	7	23	1017.1 30.04 	2	cloudy	haze 
Mon Feb 1 23:41:21 2010	Oklahoma City, OK (73101) 	32 0 	30 -1 	92	SW	6	26	1017.0 30.04 	2	cloudy	haze 
Sat Jan 30 00:28:03 2010	Oklahoma City, OK (73101) 	22 -5 	18 -7 	85	N	15	8	1020.3 30.14 	2	cloudy	haze 
Sat Jan 30 01:12:13 2010	Oklahoma City, OK (73101) 	21 -6 	18 -7 	88	N	16	6	1020.5 30.14 	2	mostly cloudy	haze 
Sat Jan 30 01:55:45 2010	Oklahoma City, OK (73101) 	21 -6 	18 -7 	88	N	16	6	1020.5 30.14 	2	mostly cloudy	haze 
Sat Jan 30 02:40:25 2010	Oklahoma City, OK (73101) 	21 -6 	18 -7 	88	N	14	7	1020.7 30.15 	5	cloudy	haze 
Sat Jan 30 03:23:58 2010	Oklahoma City, OK (73101) 	20 -6 	17 -8 	89	N	14	6	1021.5 30.17 	10	cloudy	
Sat Jan 30 04:07:52 2010	Oklahoma City, OK (73101) 	20 -6 	16 -8 	85	N	8	9	1021.9 30.19 	10	cloudy	
Sat Jan 30 04:51:39 2010	Oklahoma City, OK (73101) 	20 -6 	16 -8 	85	N	8	9	1021.9 30.19 	10	cloudy	
Sat Jan 30 05:35:20 2010	Oklahoma City, OK (73101) 	20 -6 	16 -8 	85	N	12	7	1022.0 30.19 	10	cloudy	
Sat Jan 30 06:19:29 2010	Oklahoma City, OK (73101) 	19 -7 	15 -9 	84	N	16	4	1022.1 30.19 	10	cloudy	
Sat Jan 30 07:05:28 2010	Oklahoma City, OK (73101) 	19 -7 	15 -9 	84	N	14	4	1022.0 30.19 	10	cloudy	
Sat Jan 30 07:48:11 2010	Oklahoma City, OK (73101) 	19 -7 	15 -9 	84	N	14	4	1022.0 30.19 	10	cloudy	
Sat Jan 30 08:31:23 2010	Oklahoma City, OK (73101) 	20 -6 	16 -8 	85	N	12	7	1022.4 30.20 	10	cloudy	
Sat Jan 30 11:13:09 2010	Oklahoma City, OK (73101) 	19 -7 	16 -8 	88	N	9	7	1022.7 30.21 	10	cloudy	
Sat Jan 30 12:00:57 2010	Oklahoma City, OK (73101) 	20 -6 	16 -8 	85	N	9	9	1023.1 30.22 	10	cloudy	
Sat Jan 30 12:44:35 2010	Oklahoma City, OK (73101) 	20 -6 	16 -8 	85	N	9	9	1023.1 30.22 	10	cloudy	
Sat Jan 30 13:27:51 2010	Oklahoma City, OK (73101) 	19 -7 	16 -8 	88	N	8	8	1023.3 30.23 	9	cloudy	
Sat Jan 30 14:12:02 2010	Oklahoma City, OK (73101) 	20 -6 	16 -8 	85	N	9	9	1023.9 30.24 	8	cloudy	
Sat Jan 30 14:56:05 2010	Oklahoma City, OK (73101) 	20 -6 	16 -8 	85	N	9	9	1023.9 30.24 	8	cloudy	
Sat Jan 30 15:41:55 2010	Oklahoma City, OK (73101) 	19 -7 	16 -8 	88	N	10	7	1024.8 30.27 	7	cloudy	
Sat Jan 30 16:26:55 2010	Oklahoma City, OK (73101) 	20 -6 	17 -8 	89	N	12	7	1026.0 30.31 	2	cloudy	haze 
Sat Jan 30 17:11:20 2010	Oklahoma City, OK (73101) 	20 -6 	16 -8 	85	N	10	8	1026.4 30.32 	2	cloudy	haze 
Sat Jan 30 17:54:32 2010	Oklahoma City, OK (73101) 	20 -6 	16 -8 	85	N	10	8	1026.4 30.32 	2	cloudy	haze 
Sat Jan 30 18:38:33 2010	Oklahoma City, OK (73101) 	20 -6 	15 -9 	81	N	9	9	1026.9 30.33 	6	cloudy	haze 
Sat Jan 30 19:21:50 2010	Oklahoma City, OK (73101) 	22 -5 	17 -8 	81	NNW	6	13	1026.3 30.32 	6	partly cloudy	light snow 
Sat Jan 30 20:06:06 2010	Oklahoma City, OK (73101) 	23 -5 	18 -7 	81	N	3	18	1025.6 30.29 	6	mostly cloudy	light snow 
Sat Jan 30 20:49:11 2010	Oklahoma City, OK (73101) 	23 -5 	18 -7 	81	N	3	18	1025.6 30.29 	6	mostly cloudy	light snow 
Sat Jan 30 21:32:58 2010	Oklahoma City, OK (73101) 	23 -5 	19 -7 	84	NW	3	18	1025.0 30.28 	7	cloudy	light snow 
Sat Jan 30 22:16:12 2010	Oklahoma City, OK (73101) 	24 -4 	20 -6 	84	NW	4	18	1024.5 30.26 	6	cloudy	haze 
Sat Jan 30 23:01:50 2010	Oklahoma City, OK (73101) 	25 -3 	20 -6 	81	calm		25	1024.6 30.27 	7	cloudy	
Sat Jan 30 23:46:31 2010	Oklahoma City, OK (73101) 	25 -3 	20 -6 	81	calm		25	1024.6 30.27 	7	cloudy	
Sun Jan 31 00:30:28 2010	Oklahoma City, OK (73101) 	25 -3 	21 -6 	85	calm		25	1024.7 30.27 	6	cloudy	haze 
Sun Jan 31 01:21:14 2010	Oklahoma City, OK (73101) 	24 -4 	21 -6 	88	WSW	3	20	1024.9 30.27 	6	cloudy	haze 
Sun Jan 31 02:05:13 2010	Oklahoma City, OK (73101) 	24 -4 	21 -6 	88	S	3	20	1024.8 30.27 	6	cloudy	haze 
Sun Jan 31 02:48:40 2010	Oklahoma City, OK (73101) 	24 -4 	21 -6 	88	S	3	20	1024.8 30.27 	6	cloudy	haze 
Sun Jan 31 03:32:32 2010	Oklahoma City, OK (73101) 	19 -7 	17 -8 	92	S	5	11	1025.3 30.29 	5	mostly cloudy	haze 
Sun Jan 31 04:15:59 2010	Oklahoma City, OK (73101) 	22 -5 	19 -7 	88	SSE	6	13	1025.2 30.28 	3	cloudy	haze 
Sun Jan 31 05:00:33 2010	Oklahoma City, OK (73101) 	21 -6 	20 -6 	95	S	4	15	1025.5 30.29 	3	cloudy	haze 
Sun Jan 31 05:46:37 2010	Oklahoma City, OK (73101) 	21 -6 	20 -6 	95	S	4	15	1025.5 30.29 	3	cloudy	haze 
Sun Jan 31 06:31:49 2010	Oklahoma City, OK (73101) 	22 -5 	20 -6 	92	S	5	14	1025.7 30.30 	1	cloudy	light freezing rain 
Sun Jan 31 07:14:43 2010	Oklahoma City, OK (73101) 	23 -5 	22 -5 	95	SSW	3	18	1025.7 30.30 	1	cloudy	haze 
Sun Jan 31 08:01:26 2010	Oklahoma City, OK (73101) 	23 -5 	21 -6 	92	SSE	5	16	1025.9 30.30 	1	cloudy	haze 
Sun Jan 31 08:46:08 2010	Oklahoma City, OK (73101) 	23 -5 	21 -6 	92	SSE	5	16	1025.9 30.30 	1	cloudy	haze 
Sun Jan 31 09:29:22 2010	Oklahoma City, OK (73101) 	23 -5 	21 -6 	92	S	6	15	1025.9 30.30 	0	obscured	light freezing rain 
Sun Jan 31 10:12:33 2010	Oklahoma City, OK (73101) 	23 -5 	21 -6 	92	SSE	6	15	1025.6 30.29 	4	cloudy	light freezing rain 
Sun Jan 31 10:56:19 2010	Oklahoma City, OK (73101) 	23 -5 	21 -6 	92	SSE	6	15	1025.6 30.29 	4	cloudy	light freezing rain 
Sun Jan 31 11:39:46 2010	Oklahoma City, OK (73101) 	22 -5 	20 -6 	92	SSE	3	17	1025.1 30.28 	5	cloudy	haze 
Sun Jan 31 12:23:27 2010	Oklahoma City, OK (73101) 	21 -6 	19 -7 	92	SSE	3	16	1024.8 30.27 	2	cloudy	haze 
Sun Jan 31 13:06:50 2010	Oklahoma City, OK (73101) 	20 -6 	18 -7 	92	SSE	7	10	1025.3 30.29 	2	cloudy	haze 
Sun Jan 31 13:50:27 2010	Oklahoma City, OK (73101) 	20 -6 	18 -7 	92	SSE	7	10	1025.3 30.29 	2	cloudy	haze 
Sun Jan 31 14:33:16 2010	Oklahoma City, OK (73101) 	19 -7 	18 -7 	96	SSW	5	11	1025.6 30.29 	2	cloudy	light snow 
Sun Jan 31 15:17:22 2010	Oklahoma City, OK (73101) 	20 -6 	19 -7 	96	SSW	8	9	1026.2 30.31 	1	cloudy	light freezing rain 
Sun Jan 31 16:00:51 2010	Oklahoma City, OK (73101) 	21 -6 	20 -6 	95	S	6	12	1026.4 30.32 	1	cloudy	light snow 
Sun Jan 31 16:50:38 2010	Oklahoma City, OK (73101) 	21 -6 	20 -6 	95	S	6	12	1026.4 30.32 	1	cloudy	light snow 
Sun Jan 31 17:34:19 2010	Oklahoma City, OK (73101) 	23 -5 	21 -6 	92	S	6	15	1026.6 30.32 	2	cloudy	haze 
Sun Jan 31 18:19:18 2010	Oklahoma City, OK (73101) 	25 -3 	23 -5 	92	S	5	18	1026.6 30.32 	1	cloudy	light snow 
Sun Jan 31 19:03:05 2010	Oklahoma City, OK (73101) 	25 -3 	23 -5 	92	S	6	17	1026.2 30.31 	1	cloudy	fog 
Sun Jan 31 19:48:27 2010	Oklahoma City, OK (73101) 	25 -3 	23 -5 	92	S	6	17	1026.2 30.31 	1	cloudy	fog 
Sun Jan 31 20:31:26 2010	Oklahoma City, OK (73101) 	26 -3 	23 -5 	88	SSE	7	18	1025.1 30.28 	2	cloudy	
Sun Jan 31 21:15:39 2010	Oklahoma City, OK (73101) 	26 -3 	24 -4 	92	SSE	9	16	1024.2 30.25 	2	cloudy	
Sun Jan 31 21:58:53 2010	Oklahoma City, OK (73101) 	26 -3 	24 -4 	92	SSE	9	16	1024.2 30.25 	2	cloudy	
Sun Jan 31 22:43:41 2010	Oklahoma City, OK (73101) 	27 -2 	24 -4 	89	SSE	8	18	1023.6 30.24 	2	cloudy	
Sun Jan 31 23:27:01 2010	Oklahoma City, OK (73101) 	27 -2 	24 -4 	89	SE	10	17	1023.3 30.23 	2	cloudy	
Thu Feb 4 00:12:21 2010	Oklahoma City, OK (73101) 	37 2 	33 0 	86	ENE	8	30	1020.1 30.13 	6	partly cloudy	haze 
Thu Feb 4 00:56:27 2010	Oklahoma City, OK (73101) 	37 2 	33 0 	86	ENE	8	30	1020.1 30.13 	6	partly cloudy	haze 
Thu Feb 4 01:39:42 2010	Oklahoma City, OK (73101) 	36 2 	33 0 	89	E	6	30	1020.1 30.13 	6	mostly clear	haze 
Thu Feb 4 02:27:26 2010	Oklahoma City, OK (73101) 	36 2 	33 0 	89	ENE	6	30	1021.2 30.16 	6	partly cloudy	haze 
Thu Feb 4 03:10:36 2010	Oklahoma City, OK (73101) 	35 1 	33 0 	92	ENE	5	30	1021.2 30.16 	3	cloudy	haze 
Thu Feb 4 03:55:05 2010	Oklahoma City, OK (73101) 	35 1 	33 0 	92	ENE	5	30	1021.2 30.16 	3	cloudy	haze 
Thu Feb 4 04:38:21 2010	Oklahoma City, OK (73101) 	35 1 	33 0 	92		4	31	1021.1 30.16 	3	cloudy	light rain 
Thu Feb 4 05:21:42 2010	Oklahoma City, OK (73101) 	35 1 	34 1 	96	ENE	6	29	1020.6 30.15 	2	cloudy	light rain 
Thu Feb 4 06:04:33 2010	Oklahoma City, OK (73101) 	35 1 	34 1 	96	NE	6	29	1020.2 30.14 	3	cloudy	haze 
Thu Feb 4 06:47:36 2010	Oklahoma City, OK (73101) 	35 1 	34 1 	96	NE	6	29	1020.2 30.14 	3	cloudy	haze 
Thu Feb 4 07:31:12 2010	Oklahoma City, OK (73101) 	35 1 	34 1 	96	NNE	5	30	1019.8 30.12 	3	cloudy	light rain 
Thu Feb 4 08:13:46 2010	Oklahoma City, OK (73101) 	36 2 	34 1 	92	E	5	31	1020.0 30.13 	4	cloudy	light rain 
Thu Feb 4 08:57:28 2010	Oklahoma City, OK (73101) 	36 2 	34 1 	92	E	5	31	1020.0 30.13 	4	cloudy	light rain 
Thu Feb 4 09:41:23 2010	Oklahoma City, OK (73101) 	35 1 	33 0 	92	NE	7	29	1019.0 30.10 	6	cloudy	light rain 
Thu Feb 4 10:25:02 2010	Oklahoma City, OK (73101) 	35 1 	33 0 	92	NE	7	29	1018.6 30.09 	5	cloudy	light rain 
Thu Feb 4 11:10:58 2010	Oklahoma City, OK (73101) 	35 1 	33 0 	92	ENE	8	28	1017.7 30.06 	7	cloudy	
Thu Feb 4 11:54:29 2010	Oklahoma City, OK (73101) 	35 1 	33 0 	92	ENE	8	28	1017.7 30.06 	7	cloudy	
Thu Feb 4 12:37:35 2010	Oklahoma City, OK (73101) 	35 1 	33 0 	92	ENE	8	28	1017.0 30.04 	6	cloudy	haze 
Thu Feb 4 13:21:39 2010	Oklahoma City, OK (73101) 	35 1 	33 0 	92	ENE	8	28	1016.8 30.03 	4	cloudy	haze 
Thu Feb 4 14:06:30 2010	Oklahoma City, OK (73101) 	35 1 	33 0 	92	E	7	29	1017.3 30.05 	3	cloudy	haze 
Thu Feb 4 14:59:16 2010	Oklahoma City, OK (73101) 	35 1 	33 0 	92	E	7	29	1017.3 30.05 	3	cloudy	haze 
Thu Jan 28 15:38:55 2010	Oklahoma City, OK (73101) 	30 -1 	19 -7 	63	NE	18	17	1027.7 30.36 	10	cloudy	
Thu Jan 28 15:59:40 2010	Oklahoma City, OK (73101) 	30 -1 	19 -7 	63	NE	18	17	1027.7 30.36 	10	cloudy	
Thu Jan 28 16:49:03 2010	Oklahoma City, OK (73101) 	29 -1 	18 -7 	63	NNE	21	15	1028.1 30.37 	9	cloudy	light freezing rain 
Thu Jan 28 17:13:18 2010	Oklahoma City, OK (73101) 	28 -2 	20 -6 	71	NE	18	15	1028.4 30.38 	9	cloudy	light freezing rain 
Thu Jan 28 17:29:16 2010	Oklahoma City, OK (73101) 	28 -2 	20 -6 	71	NE	18	15	1028.4 30.38 	9	cloudy	light freezing rain 
Tue Feb 2 00:28:14 2010	Oklahoma City, OK (73101) 	32 0 	30 -1 	92	SW	5	26	1017.2 30.05 	2	cloudy	haze 
Tue Feb 2 01:13:50 2010	Oklahoma City, OK (73101) 	32 0 	30 -1 	92	SW	4	27	1017.7 30.06 	2	cloudy	haze 
Tue Feb 2 01:56:59 2010	Oklahoma City, OK (73101) 	32 0 	30 -1 	92	SW	4	27	1017.7 30.06 	2	cloudy	haze 
Tue Feb 2 02:41:02 2010	Oklahoma City, OK (73101) 	32 0 	31 0 	96	SSW	3	29	1018.0 30.07 	2	cloudy	haze 
Tue Feb 2 03:24:33 2010	Oklahoma City, OK (73101) 	32 0 	30 -1 	92	SW	3	29	1018.7 30.09 	2	cloudy	haze 
Tue Feb 2 04:08:20 2010	Oklahoma City, OK (73101) 	32 0 	31 0 	96	SW	3	29	1018.9 30.10 	2	cloudy	haze 
Tue Feb 2 04:51:53 2010	Oklahoma City, OK (73101) 	32 0 	31 0 	96	SW	3	29	1018.9 30.10 	2	cloudy	haze 
Tue Feb 2 05:35:16 2010	Oklahoma City, OK (73101) 	32 0 	31 0 	96	calm		32	1019.0 30.10 	2	cloudy	haze 
Tue Feb 2 06:18:31 2010	Oklahoma City, OK (73101) 	32 0 	31 0 	96	calm		32	1019.4 30.11 	2	cloudy	haze 
Tue Feb 2 07:05:40 2010	Oklahoma City, OK (73101) 	32 0 	31 0 	96	WSW	4	27	1020.1 30.13 	2	cloudy	haze 
Tue Feb 2 07:48:41 2010	Oklahoma City, OK (73101) 	32 0 	31 0 	96	WSW	4	27	1020.1 30.13 	2	cloudy	haze 
Tue Feb 2 08:31:53 2010	Oklahoma City, OK (73101) 	32 0 	31 0 	96	WSW	3	29	1020.2 30.14 	2	cloudy	haze 
Tue Feb 2 09:15:22 2010	Oklahoma City, OK (73101) 	32 0 	31 0 	96	calm		32	1020.4 30.14 	2	cloudy	haze 
Tue Feb 2 09:58:54 2010	Oklahoma City, OK (73101) 	32 0 	31 0 	96	calm		32	1020.4 30.14 	2	cloudy	haze 
Tue Feb 2 10:42:27 2010	Oklahoma City, OK (73101) 	33 0 	31 0 	92	WNW	3	30	1021.0 30.16 	2	cloudy	haze 
Tue Feb 2 11:26:34 2010	Oklahoma City, OK (73101) 	33 0 	31 0 	92	NW	4	29	1021.1 30.16 	2	cloudy	
Tue Feb 2 12:10:34 2010	Oklahoma City, OK (73101) 	34 1 	31 0 	88	NNW	4	30	1021.9 30.19 	2	cloudy	
Tue Feb 2 12:54:29 2010	Oklahoma City, OK (73101) 	34 1 	31 0 	88	NNW	4	30	1021.9 30.19 	2	cloudy	
Tue Feb 2 13:37:47 2010	Oklahoma City, OK (73101) 	34 1 	31 0 	88	NW	3	31	1022.6 30.21 	2	cloudy	
Tue Feb 2 14:21:30 2010	Oklahoma City, OK (73101) 	33 0 	30 -1 	88	NW	5	28	1022.7 30.21 	9	cloudy	
Tue Feb 2 15:05:50 2010	Oklahoma City, OK (73101) 	33 0 	30 -1 	88	NNW	5	28	1022.9 30.22 	7	cloudy	
Tue Feb 2 15:52:16 2010	Oklahoma City, OK (73101) 	33 0 	30 -1 	88	NNW	5	28	1022.9 30.22 	7	cloudy	
Tue Feb 2 16:44:46 2010	Oklahoma City, OK (73101) 	34 1 	29 -1 	81	N	4	30	1023.3 30.23 	7	cloudy	
Tue Feb 2 17:33:12 2010	Oklahoma City, OK (73101) 	34 1 	30 -1 	85	WNW	3	31	1024.3 30.26 	6	cloudy	haze 
Tue Feb 2 18:17:49 2010	Oklahoma City, OK (73101) 	34 1 	30 -1 	85	WSW	3	31	1024.8 30.27 	7	cloudy	
Tue Feb 2 19:02:00 2010	Oklahoma City, OK (73101) 	34 1 	31 0 	88	calm		34	1024.5 30.26 	7	cloudy	
Tue Feb 2 19:51:15 2010	Oklahoma City, OK (73101) 	34 1 	31 0 	88	calm		34	1024.5 30.26 	7	cloudy	
Tue Feb 2 20:42:33 2010	Oklahoma City, OK (73101) 	36 2 	31 0 	82	calm		36	1023.5 30.23 	6	cloudy	haze 
Tue Feb 2 21:29:24 2010	Oklahoma City, OK (73101) 	35 1 	31 0 	84	S	3	32	1023.2 30.22 	6	mostly cloudy	haze 
Tue Feb 2 22:17:47 2010	Oklahoma City, OK (73101) 	36 2 	32 0 	85	SSW	4	32	1022.9 30.22 	5	mostly clear	haze 
Tue Feb 2 23:02:04 2010	Oklahoma City, OK (73101) 	36 2 	32 0 	85	SSW	3	33	1022.8 30.21 	6	mostly clear	haze 
Tue Feb 2 23:47:04 2010	Oklahoma City, OK (73101) 	36 2 	32 0 	85	SSW	3	33	1022.8 30.21 	6	mostly clear	haze 
Wed Feb 3 00:31:48 2010	Oklahoma City, OK (73101) 	35 1 	31 0 	84	SW	5	30	1023.3 30.23 	6	mostly clear	haze 
Wed Feb 3 01:18:58 2010	Oklahoma City, OK (73101) 	34 1 	30 -1 	85	S	7	27	1023.0 30.22 	5	clear	haze
Wed Feb 3 02:03:46 2010	Oklahoma City, OK (73101) 	32 0 	29 -1 	88	S	4	27	1023.4 30.23 	4	clear	haze
Wed Feb 3 02:52:29 2010	Oklahoma City, OK (73101) 	32 0 	29 -1 	88	S	4	27	1023.4 30.23 	4	clear	haze
Wed Feb 3 03:39:19 2010	Oklahoma City, OK (73101) 	32 0 	30 -1 	92	S	5	26	1024.2 30.25 	2	partly cloudy	haze 
Wed Feb 3 04:27:28 2010	Oklahoma City, OK (73101) 	32 0 	30 -1 	92	S	7	25	1024.0 30.25 	1	cloudy	haze 
Wed Feb 3 05:14:15 2010	Oklahoma City, OK (73101) 	32 0 	31 0 	96	S	5	26	1023.8 30.24 	0	obscured	haze 
Wed Feb 3 06:02:05 2010	Oklahoma City, OK (73101) 	31 0 	29 -1 	92	S	7	23	1024.2 30.25 	0	obscured	fog 
Wed Feb 3 06:48:49 2010	Oklahoma City, OK (73101) 	31 0 	29 -1 	92	S	7	23	1024.2 30.25 	0	obscured	fog 
Wed Feb 3 07:33:27 2010	Oklahoma City, OK (73101) 	30 -1 	29 -1 	96	S	4	25	1023.8 30.24 	0	cloudy	haze 
Wed Feb 3 08:16:37 2010	Oklahoma City, OK (73101) 	30 -1 	29 -1 	96	S	5	24	1023.7 30.24 	0	cloudy	haze 
Wed Feb 3 09:03:04 2010	Oklahoma City, OK (73101) 	30 -1 	29 -1 	96	SSW	8	22	1023.6 30.24 	0	cloudy	haze 
Wed Feb 3 09:46:24 2010	Oklahoma City, OK (73101) 	30 -1 	29 -1 	96	SSW	8	22	1023.6 30.24 	0	cloudy	haze 
Wed Feb 3 10:30:15 2010	Oklahoma City, OK (73101) 	29 -1 	29 -1 	100	SSW	3	25	1022.8 30.21 	0	obscured	fog 
Wed Feb 3 11:17:10 2010	Oklahoma City, OK (73101) 	29 -1 	28 -2 	96	S	4	24	1023.3 30.23 	0	cloudy	fog 
Wed Feb 3 12:01:54 2010	Oklahoma City, OK (73101) 	29 -1 	29 -1 	100	calm		29	1022.5 30.20 	0	obscured	fog 
Wed Feb 3 12:45:07 2010	Oklahoma City, OK (73101) 	29 -1 	29 -1 	100	calm		29	1022.5 30.20 	0	obscured	fog 
Wed Feb 3 13:28:51 2010	Oklahoma City, OK (73101) 	29 -1 	27 -2 	92	ENE	5	23	1022.3 30.20 	0	obscured	fog 
Wed Feb 3 14:14:57 2010	Oklahoma City, OK (73101) 	28 -2 	27 -2 	96		3	24	1022.5 30.20 	0	obscured	fog 
Wed Feb 3 15:00:54 2010	Oklahoma City, OK (73101) 	29 -1 	28 -2 	96	E	3	25	1023.0 30.22 	0	obscured	fog 
Wed Feb 3 15:45:46 2010	Oklahoma City, OK (73101) 	29 -1 	28 -2 	96	E	3	25	1023.0 30.22 	0	obscured	fog 
Wed Feb 3 16:31:37 2010	Oklahoma City, OK (73101) 	30 -1 	28 -2 	92	E	5	24	1022.9 30.22 	1	cloudy	haze 
Wed Feb 3 17:18:49 2010	Oklahoma City, OK (73101) 	31 0 	30 -1 	96	ESE	4	26	1023.5 30.23 	2	cloudy	haze 
Wed Feb 3 18:07:07 2010	Oklahoma City, OK (73101) 	32 0 	31 0 	96	SE	6	26	1023.3 30.23 	2	mostly cloudy	haze 
Wed Feb 3 18:50:13 2010	Oklahoma City, OK (73101) 	32 0 	31 0 	96	SE	6	26	1023.3 30.23 	2	mostly cloudy	haze 
Wed Feb 3 19:34:29 2010	Oklahoma City, OK (73101) 	34 1 	32 0 	92	SSE	7	27	1023.1 30.22 	2	cloudy	haze 
Wed Feb 3 20:18:35 2010	Oklahoma City, OK (73101) 	36 2 	32 0 	85	SSE	7	30	1022.0 30.19 	6	mostly cloudy	haze 
Wed Feb 3 21:02:52 2010	Oklahoma City, OK (73101) 	37 2 	33 0 	86	ESE	3	34	1021.0 30.16 	5	mostly cloudy	haze 
Wed Feb 3 21:50:59 2010	Oklahoma City, OK (73101) 	37 2 	33 0 	86	ESE	3	34	1021.0 30.16 	5	mostly cloudy	haze 
Wed Feb 3 22:36:32 2010	Oklahoma City, OK (73101) 	37 2 	33 0 	86	E	4	33	1020.9 30.16 	6	mostly cloudy	haze 
Wed Feb 3 23:27:26 2010	Oklahoma City, OK (73101) 	38 3 	33 0 	83	ENE	6	33	1019.7 30.12 	9	mostly clear	
Sun Jan 31 08:46:14 2010	Philadelphia, PA (19019)	18 -7 	15-Apr	53	N	12	4	1016.4 30.02 	10	mostly cloudy	
Fri Jan 29 08:41:37 2010	Philadelphia, PA (19019) 	18 -7 	-2 -18 	40	WNW	13	4	1025.8 30.30 	10	clear	
Fri Jan 29 09:25:32 2010	Philadelphia, PA (19019) 	18 -7 	-3 -19 	39	NW	9	6	1026.3 30.32 	10	clear	
Fri Jan 29 11:57:34 2010	Philadelphia, PA (19019) 	17 -8 	-2 -18 	42	NW	10	4	1027.0 30.34 	10	clear	
Fri Jan 29 12:42:16 2010	Philadelphia, PA (19019) 	17 -8 	-1 -18 	44	WNW	6	8	1027.2 30.34 	10	clear	
Fri Jan 29 13:29:59 2010	Philadelphia, PA (19019) 	16 -8 	-0 -17 	49	WNW	9	4	1027.5 30.35 	10	clear	
Fri Jan 29 14:17:51 2010	Philadelphia, PA (19019) 	17 -8 	17-Jan	48	WNW	8	6	1028.4 30.38 	10	clear	
Fri Jan 29 15:02:39 2010	Philadelphia, PA (19019) 	18 -7 	17-Jan	47	WNW	10	5	1028.7 30.39 	10	clear	
Fri Jan 29 15:48:11 2010	Philadelphia, PA (19019) 	18 -7 	17-Jan	47	WNW	10	5	1028.7 30.39 	10	clear	
Fri Jan 29 16:36:00 2010	Philadelphia, PA (19019) 	19 -7 	17-Jan	45	WNW	13	5	1029.0 30.40 	10	clear	
Fri Jan 29 17:20:24 2010	Philadelphia, PA (19019) 	21 -6 	17-Jan	41	NW	12	8	1028.3 30.37 	10	clear	
Fri Jan 29 18:08:52 2010	Philadelphia, PA (19019) 	21 -6 	17-Jan	41	WNW	9	10	1027.1 30.34 	10	clear	
Fri Jan 29 18:53:53 2010	Philadelphia, PA (19019) 	21 -6 	17-Jan	41	WNW	9	10	1027.1 30.34 	10	clear	
Fri Jan 29 19:45:51 2010	Philadelphia, PA (19019) 	21 -6 	17-Jan	41	WNW	10	9	1026.5 30.32 	10	clear	
Fri Jan 29 20:43:40 2010	Philadelphia, PA (19019) 	23 -5 	16-Feb	39	WNW	13	10	1026.3 30.32 	10	clear	
Fri Jan 29 21:28:18 2010	Philadelphia, PA (19019) 	23 -5 	16-Feb	39	WNW	14	10	1026.1 30.31 	10	clear	
Fri Jan 29 22:14:53 2010	Philadelphia, PA (19019) 	23 -5 	17-Jan	38	WNW	10	12	1026.3 30.32 	10	clear	
Fri Jan 29 22:59:49 2010	Philadelphia, PA (19019) 	23 -5 	17-Jan	38	WNW	10	12	1026.3 30.32 	10	clear	
Fri Jan 29 23:44:06 2010	Philadelphia, PA (19019) 	22 -5 	17-Jan	39	NW	10	10	1026.5 30.32 	10	clear	
Mon Feb 1 00:11:05 2010	Philadelphia, PA (19019) 	26 -3 	16-Mar	36	WSW	7	18	1020.8 30.15 	10	clear	
Mon Feb 1 00:54:01 2010	Philadelphia, PA (19019) 	26 -3 	16-Mar	36	WSW	7	18	1020.8 30.15 	10	clear	
Mon Feb 1 01:40:22 2010	Philadelphia, PA (19019) 	26 -3 	15-Apr	38	WSW	5	19	1021.0 30.16 	10	clear	
Mon Feb 1 02:24:18 2010	Philadelphia, PA (19019) 	26 -3 	15-May	40	WSW	7	18	1021.0 30.16 	10	clear	
Mon Feb 1 03:07:59 2010	Philadelphia, PA (19019) 	26 -3 	13-Jul	44	SW	6	18	1021.2 30.16 	10	clear	
Mon Feb 1 03:52:39 2010	Philadelphia, PA (19019) 	26 -3 	13-Jul	44	SW	6	18	1021.2 30.16 	10	clear	
Mon Feb 1 04:37:28 2010	Philadelphia, PA (19019) 	25 -3 	13-Aug	48	WSW	7	16	1021.7 30.18 	10	mostly clear	
Mon Feb 1 05:20:37 2010	Philadelphia, PA (19019) 	24 -4 	13-Aug	50	SW	7	15	1021.8 30.18 	10	clear	
Mon Feb 1 06:05:29 2010	Philadelphia, PA (19019) 	24 -4 	13-Jul	47	W	9	14	1021.7 30.18 	10	clear	
Mon Feb 1 06:48:40 2010	Philadelphia, PA (19019) 	24 -4 	13-Jul	47	W	9	14	1021.7 30.18 	10	clear	
Mon Feb 1 07:32:27 2010	Philadelphia, PA (19019) 	23 -5 	13-Aug	52	W	7	14	1022.1 30.19 	10	clear	
Mon Feb 1 08:15:34 2010	Philadelphia, PA (19019) 	23 -5 	13-Aug	52	W	6	15	1022.9 30.22 	10	clear	
Mon Feb 1 08:59:20 2010	Philadelphia, PA (19019) 	23 -5 	13-Aug	52	W	6	15	1022.9 30.22 	10	clear	
Mon Feb 1 09:42:18 2010	Philadelphia, PA (19019) 	24 -4 	13-Aug	50	W	7	15	1023.7 30.24 	10	clear	
Mon Feb 1 10:25:51 2010	Philadelphia, PA (19019) 	21 -6 	13-Aug	57	W	5	13	1024.1 30.25 	10	clear	
Mon Feb 1 11:08:48 2010	Philadelphia, PA (19019) 	23 -5 	12-Sep	54	WSW	4	17	1024.5 30.26 	10	clear	
Mon Feb 1 11:52:15 2010	Philadelphia, PA (19019) 	23 -5 	12-Sep	54	WSW	4	17	1024.5 30.26 	10	clear	
Mon Feb 1 12:35:39 2010	Philadelphia, PA (19019) 	23 -5 	12-Sep	54	WSW	5	16	1025.4 30.29 	10	clear	
Mon Feb 1 13:19:10 2010	Philadelphia, PA (19019) 	22 -5 	12-Oct	60	W	4	16	1026.8 30.33 	10	clear	
Mon Feb 1 14:03:03 2010	Philadelphia, PA (19019) 	24 -4 	11-Nov	57	W	6	16	1027.8 30.36 	10	clear	
Mon Feb 1 14:48:08 2010	Philadelphia, PA (19019) 	24 -4 	11-Nov	57	W	6	16	1027.8 30.36 	10	clear	
Mon Feb 1 15:31:52 2010	Philadelphia, PA (19019) 	28 -2 	11-Dec	51	W	8	19	1027.9 30.36 	10	clear	
Mon Feb 1 16:16:20 2010	Philadelphia, PA (19019) 	30 -1 	11-Nov	44	NW	11	20	1027.4 30.35 	10	clear	
Mon Feb 1 17:01:22 2010	Philadelphia, PA (19019) 	31 0 	11-Nov	43	WNW	14	20	1027.2 30.34 	10	clear	
Mon Feb 1 17:45:10 2010	Philadelphia, PA (19019) 	31 0 	11-Nov	43	WNW	14	20	1027.2 30.34 	10	clear	
Mon Feb 1 18:28:39 2010	Philadelphia, PA (19019) 	33 0 	11-Nov	39	W	8	26	1026.4 30.32 	10	clear	
Mon Feb 1 19:12:26 2010	Philadelphia, PA (19019) 	34 1 	11-Nov	38	W	7	27	1025.0 30.28 	10	clear	
Mon Feb 1 19:57:17 2010	Philadelphia, PA (19019) 	34 1 	11-Nov	38	W	7	27	1025.0 30.28 	10	clear	
Mon Feb 1 20:43:42 2010	Philadelphia, PA (19019) 	35 1 	11-Nov	36	WSW	9	27	1025.2 30.28 	10	clear	
Mon Feb 1 21:28:37 2010	Philadelphia, PA (19019) 	35 1 	11-Nov	36	W	9	27	1025.2 30.28 	10	clear	
Mon Feb 1 22:12:01 2010	Philadelphia, PA (19019) 	35 1 	11-Nov	36	W	12	26	1025.3 30.29 	10	clear	
Mon Feb 1 22:55:20 2010	Philadelphia, PA (19019) 	35 1 	11-Nov	36	W	12	26	1025.3 30.29 	10	clear	
Mon Feb 1 23:41:29 2010	Philadelphia, PA (19019) 	34 1 	11-Nov	38	WNW	9	26	1024.9 30.27 	10	clear	
Sat Jan 30 00:28:10 2010	Philadelphia, PA (19019) 	22 -5 	17-Jan	39	WNW	9	11	1026.5 30.32 	10	clear	
Sat Jan 30 01:12:20 2010	Philadelphia, PA (19019) 	22 -5 	16-Feb	41	NW	8	12	1026.8 30.33 	10	clear	
Sat Jan 30 01:55:53 2010	Philadelphia, PA (19019) 	22 -5 	16-Feb	41	NW	8	12	1026.8 30.33 	10	clear	
Sat Jan 30 02:40:34 2010	Philadelphia, PA (19019) 	21 -6 	16-Feb	43	WNW	9	10	1027.1 30.34 	10	clear	
Sat Jan 30 03:24:05 2010	Philadelphia, PA (19019) 	20 -6 	16-Feb	45	WNW	6	11	1027.1 30.34 	10	clear	
Sat Jan 30 04:07:59 2010	Philadelphia, PA (19019) 	20 -6 	16-Mar	47	WNW	6	11	1027.4 30.35 	10	clear	
Sat Jan 30 04:51:45 2010	Philadelphia, PA (19019) 	20 -6 	16-Mar	47	WNW	6	11	1027.4 30.35 	10	clear	
Sat Jan 30 05:35:28 2010	Philadelphia, PA (19019) 	20 -6 	16-Mar	47	NW	7	10	1027.4 30.35 	10	clear	
Sat Jan 30 06:19:37 2010	Philadelphia, PA (19019) 	20 -6 	-0 -17 	41	NNW	9	9	1027.0 30.34 	10	clear	
Sat Jan 30 07:05:35 2010	Philadelphia, PA (19019) 	19 -7 	-0 -17 	43	NW	8	8	1027.4 30.35 	10	clear	
Sat Jan 30 07:48:17 2010	Philadelphia, PA (19019) 	19 -7 	-0 -17 	43	NW	8	8	1027.4 30.35 	10	clear	
Sat Jan 30 08:31:30 2010	Philadelphia, PA (19019) 	19 -7 	-1 -18 	41	NNW	10	7	1027.7 30.36 	10	clear	
Sat Jan 30 11:13:16 2010	Philadelphia, PA (19019) 	17 -8 	-1 -18 	44	NNW	9	5	1026.8 30.33 	10	clear	
Sat Jan 30 12:01:05 2010	Philadelphia, PA (19019) 	17 -8 	-1 -18 	44	NNW	11	4	1025.9 30.30 	10	clear	
Sat Jan 30 12:44:42 2010	Philadelphia, PA (19019) 	17 -8 	-1 -18 	44	NNW	11	4	1025.9 30.30 	10	clear	
Sat Jan 30 13:27:58 2010	Philadelphia, PA (19019) 	16 -8 	-1 -18 	47	N	9	4	1026.1 30.31 	10	clear	
Sat Jan 30 14:12:09 2010	Philadelphia, PA (19019) 	17 -8 	-0 -17 	46	N	7	7	1026.1 30.31 	10	clear	
Sat Jan 30 14:56:12 2010	Philadelphia, PA (19019) 	17 -8 	-0 -17 	46	N	7	7	1026.1 30.31 	10	clear	
Sat Jan 30 15:42:02 2010	Philadelphia, PA (19019) 	17 -8 	-1 -18 	44	N	9	5	1025.5 30.29 	10	clear	
Sat Jan 30 16:27:02 2010	Philadelphia, PA (19019) 	18 -7 	-1 -18 	43	N	11	5	1025.6 30.29 	10	partly cloudy	
Sat Jan 30 17:11:28 2010	Philadelphia, PA (19019) 	17 -8 	-4 -20 	38	N	7	7	1024.7 30.27 	10	mostly cloudy	
Sat Jan 30 17:54:41 2010	Philadelphia, PA (19019) 	17 -8 	-4 -20 	38	N	7	7	1024.7 30.27 	10	mostly cloudy	
Sat Jan 30 18:38:39 2010	Philadelphia, PA (19019) 	18 -7 	-3 -19 	39	NNE	9	6	1023.4 30.23 	10	mostly cloudy	
Sat Jan 30 19:21:58 2010	Philadelphia, PA (19019) 	18 -7 	-3 -19 	39	N	6	9	1022.6 30.21 	10	mostly cloudy	
Sat Jan 30 20:06:13 2010	Philadelphia, PA (19019) 	19 -7 	-3 -19 	37	NNE	6	10	1022.1 30.19 	10	cloudy	
Sat Jan 30 20:49:18 2010	Philadelphia, PA (19019) 	19 -7 	-3 -19 	37	NNE	6	10	1022.1 30.19 	10	cloudy	
Sat Jan 30 21:33:05 2010	Philadelphia, PA (19019) 	18 -7 	-2 -18 	40	N	6	9	1021.5 30.17 	10	cloudy	
Sat Jan 30 22:16:19 2010	Philadelphia, PA (19019) 	17 -8 	14-Jun	61	N	7	7	1020.7 30.15 	3	cloudy	light snow 
Sat Jan 30 23:02:02 2010	Philadelphia, PA (19019) 	17 -8 	13-Jul	64	N	7	7	1020.3 30.14 	7	cloudy	light snow 
Sat Jan 30 23:46:39 2010	Philadelphia, PA (19019) 	17 -8 	13-Jul	64	N	7	7	1020.3 30.14 	7	cloudy	light snow 
Sun Jan 31 00:30:36 2010	Philadelphia, PA (19019) 	16 -8 	11-Nov	80	NNE	10	3	1019.6 30.12 	2	cloudy	light snow 
Sun Jan 31 01:21:20 2010	Philadelphia, PA (19019) 	16 -8 	11-Nov	80	NNE	10	3	1019.0 30.10 	2	cloudy	light snow 
Sun Jan 31 02:05:21 2010	Philadelphia, PA (19019) 	17 -8 	12-Oct	73	NNE	7	7	1017.9 30.07 	7	cloudy	light snow 
Sun Jan 31 02:48:47 2010	Philadelphia, PA (19019) 	17 -8 	12-Oct	73	NNE	7	7	1017.9 30.07 	7	cloudy	light snow 
Sun Jan 31 03:32:39 2010	Philadelphia, PA (19019) 	19 -7 	13-Jul	59	NNE	7	9	1017.3 30.05 	10	cloudy	
Sun Jan 31 04:16:05 2010	Philadelphia, PA (19019) 	19 -7 	16-Mar	49	N	10	7	1016.8 30.03 	10	cloudy	
Sun Jan 31 05:00:44 2010	Philadelphia, PA (19019) 	19 -7 	16-Mar	49	N	13	5	1016.4 30.02 	10	cloudy	
Sun Jan 31 05:46:46 2010	Philadelphia, PA (19019) 	19 -7 	16-Mar	49	N	13	5	1016.4 30.02 	10	cloudy	
Sun Jan 31 06:31:56 2010	Philadelphia, PA (19019) 	19 -7 	15-Apr	51	N	9	7	1016.1 30.01 	10	cloudy	
Sun Jan 31 07:14:49 2010	Philadelphia, PA (19019) 	19 -7 	15-Apr	51	N	11	6	1016.2 30.02 	10	cloudy	
Sun Jan 31 08:01:33 2010	Philadelphia, PA (19019) 	18 -7 	15-Apr	53	N	12	4	1016.4 30.02 	10	mostly cloudy	
Sun Jan 31 09:29:28 2010	Philadelphia, PA (19019) 	18 -7 	16-Mar	51	N	11	5	1017.0 30.04 	10	clear	
Sun Jan 31 10:12:40 2010	Philadelphia, PA (19019) 	17 -8 	16-Mar	53	NNW	9	5	1017.6 30.06 	10	clear	
Sun Jan 31 10:56:26 2010	Philadelphia, PA (19019) 	17 -8 	16-Mar	53	NNW	9	5	1017.6 30.06 	10	clear	
Sun Jan 31 11:39:53 2010	Philadelphia, PA (19019) 	16 -8 	17-Jan	51	N	11	2	1018.4 30.08 	10	clear	
Sun Jan 31 12:23:33 2010	Philadelphia, PA (19019) 	15 -9 	17-Jan	53	NNW	8	3	1019.0 30.10 	10	clear	
Sun Jan 31 13:06:56 2010	Philadelphia, PA (19019) 	15 -9 	-0 -17 	50	NNW	6	5	1020.0 30.13 	10	clear	
Sun Jan 31 13:50:35 2010	Philadelphia, PA (19019) 	15 -9 	-0 -17 	50	NNW	6	5	1020.0 30.13 	10	clear	
Sun Jan 31 14:33:24 2010	Philadelphia, PA (19019) 	15 -9 	-0 -17 	50	NNW	9	3	1020.6 30.15 	10	clear	
Sun Jan 31 15:17:29 2010	Philadelphia, PA (19019) 	17 -8 	-0 -17 	46	NNW	9	5	1021.4 30.17 	10	clear	
Sun Jan 31 16:01:02 2010	Philadelphia, PA (19019) 	19 -7 	-0 -17 	43	NNW	6	10	1021.9 30.19 	10	clear	
Sun Jan 31 16:50:48 2010	Philadelphia, PA (19019) 	19 -7 	-0 -17 	43	NNW	6	10	1021.9 30.19 	10	clear	
Sun Jan 31 17:34:26 2010	Philadelphia, PA (19019) 	22 -5 	-1 -18 	36	N	6	13	1021.9 30.19 	10	clear	
Sun Jan 31 18:19:25 2010	Philadelphia, PA (19019) 	25 -3 	-0 -17 	33	NW	5	18	1021.6 30.18 	10	clear	
Sun Jan 31 19:03:12 2010	Philadelphia, PA (19019) 	27 -2 	17-Jan	32	W	7	19	1020.8 30.15 	10	clear	
Sun Jan 31 19:48:34 2010	Philadelphia, PA (19019) 	27 -2 	17-Jan	32	W	7	19	1020.8 30.15 	10	clear	
Sun Jan 31 20:31:32 2010	Philadelphia, PA (19019) 	29 -1 	-0 -17 	28	W	10	19	1020.7 30.15 	10	clear	
Sun Jan 31 21:15:46 2010	Philadelphia, PA (19019) 	29 -1 	-0 -17 	28	WNW	8	20	1020.5 30.14 	10	clear	
Sun Jan 31 21:58:59 2010	Philadelphia, PA (19019) 	29 -1 	-0 -17 	28	WNW	8	20	1020.5 30.14 	10	clear	
Sun Jan 31 22:43:48 2010	Philadelphia, PA (19019) 	30 -1 	-0 -17 	27	W	9	21	1020.1 30.13 	10	clear	
Sun Jan 31 23:27:09 2010	Philadelphia, PA (19019) 	28 -2 	16-Feb	32	WSW	5	22	1020.5 30.14 	10	clear	
Thu Feb 4 00:12:29 2010	Philadelphia, PA (19019) 	37 2 	26 -3 	64	NW	3	34	1019.4 30.11 	10	cloudy	
Thu Feb 4 00:56:33 2010	Philadelphia, PA (19019) 	37 2 	26 -3 	64	NW	3	34	1019.4 30.11 	10	cloudy	
Thu Feb 4 01:39:49 2010	Philadelphia, PA (19019) 	35 1 	25 -3 	66	W	5	30	1020.6 30.15 	10	mostly clear	
Thu Feb 4 02:27:33 2010	Philadelphia, PA (19019) 	35 1 	26 -3 	69	NW	3	32	1021.0 30.16 	10	mostly cloudy	
Thu Feb 4 03:10:45 2010	Philadelphia, PA (19019) 	34 1 	24 -4 	67	NNW	5	29	1021.6 30.18 	10	partly cloudy	
Thu Feb 4 03:55:12 2010	Philadelphia, PA (19019) 	34 1 	24 -4 	67	NNW	5	29	1021.6 30.18 	10	partly cloudy	
Thu Feb 4 04:38:28 2010	Philadelphia, PA (19019) 	35 1 	23 -5 	61	NW	7	29	1022.4 30.20 	10	partly cloudy	
Thu Feb 4 05:21:50 2010	Philadelphia, PA (19019) 	33 0 	23 -5 	66	W	3	30	1022.8 30.21 	10	mostly clear	
Thu Feb 4 06:04:40 2010	Philadelphia, PA (19019) 	32 0 	24 -4 	72	W	3	29	1023.3 30.23 	10	cloudy	
Thu Feb 4 06:47:45 2010	Philadelphia, PA (19019) 	32 0 	24 -4 	72	W	3	29	1023.3 30.23 	10	cloudy	
Thu Feb 4 07:31:19 2010	Philadelphia, PA (19019) 	32 0 	22 -5 	66	WNW	5	26	1023.5 30.23 	10	partly cloudy	
Thu Feb 4 08:13:52 2010	Philadelphia, PA (19019) 	31 0 	18 -7 	58	WNW	7	23	1023.8 30.24 	10	clear	
Thu Feb 4 08:57:34 2010	Philadelphia, PA (19019) 	31 0 	18 -7 	58	WNW	7	23	1023.8 30.24 	10	clear	
Thu Feb 4 09:41:29 2010	Philadelphia, PA (19019) 	31 0 	18 -7 	58	WNW	6	24	1024.5 30.26 	10	clear	
Thu Feb 4 10:25:09 2010	Philadelphia, PA (19019) 	31 0 	17 -8 	56	NW	6	24	1024.9 30.27 	10	partly cloudy	
Thu Feb 4 11:11:04 2010	Philadelphia, PA (19019) 	30 -1 	16 -8 	55	WNW	4	25	1025.9 30.30 	10	clear	
Thu Feb 4 11:54:36 2010	Philadelphia, PA (19019) 	30 -1 	16 -8 	55	WNW	4	25	1025.9 30.30 	10	clear	
Thu Feb 4 12:37:42 2010	Philadelphia, PA (19019) 	29 -1 	14 -10 	53	NW	4	24	1026.9 30.33 	10	clear	
Thu Feb 4 13:21:46 2010	Philadelphia, PA (19019) 	29 -1 	13 -10 	51	NW	6	22	1028.1 30.37 	10	clear	
Thu Feb 4 14:06:36 2010	Philadelphia, PA (19019) 	29 -1 	15 -9 	56	NNW	6	22	1028.8 30.39 	10	clear	
Thu Feb 4 14:59:23 2010	Philadelphia, PA (19019) 	29 -1 	15 -9 	56	NNW	6	22	1028.8 30.39 	10	clear	
Thu Jan 28 15:39:04 2010	Philadelphia, PA (19019) 	35 1 	23 -5 	61	calm		35	1017.4 30.05 	10	cloudy	
Thu Jan 28 15:59:51 2010	Philadelphia, PA (19019) 	35 1 	23 -5 	61	calm		35	1017.4 30.05 	10	cloudy	
Thu Jan 28 16:49:11 2010	Philadelphia, PA (19019) 	36 2 	23 -5 	59	WSW	4	32	1017.7 30.06 	10	cloudy	
Thu Jan 28 17:13:25 2010	Philadelphia, PA (19019) 	40 4 	25 -3 	55	SSW	8	34	1016.1 30.01 	10	cloudy	
Thu Jan 28 17:29:25 2010	Philadelphia, PA (19019) 	40 4 	25 -3 	55	SSW	8	34	1016.1 30.01 	10	cloudy	
Tue Feb 2 00:28:21 2010	Philadelphia, PA (19019) 	32 0 	11-Nov	41	W	8	24	1025.3 30.29 	10	clear	
Tue Feb 2 01:13:57 2010	Philadelphia, PA (19019) 	30 -1 	11-Dec	47	W	6	23	1025.6 30.29 	10	clear	
Tue Feb 2 01:57:06 2010	Philadelphia, PA (19019) 	30 -1 	11-Dec	47	W	6	23	1025.6 30.29 	10	clear	
Tue Feb 2 02:41:08 2010	Philadelphia, PA (19019) 	29 -1 	13 -10 	51	WSW	5	23	1025.6 30.29 	10	clear	
Tue Feb 2 03:24:40 2010	Philadelphia, PA (19019) 	30 -1 	14 -10 	51	SW	3	26	1025.5 30.29 	10	clear	
Tue Feb 2 04:08:27 2010	Philadelphia, PA (19019) 	29 -1 	15 -9 	56	WSW	6	22	1025.7 30.30 	10	clear	
Tue Feb 2 04:51:59 2010	Philadelphia, PA (19019) 	29 -1 	15 -9 	56	WSW	6	22	1025.7 30.30 	10	clear	
Tue Feb 2 05:35:23 2010	Philadelphia, PA (19019) 	27 -2 	16 -8 	63	W	6	20	1025.9 30.30 	10	clear	
Tue Feb 2 06:18:40 2010	Philadelphia, PA (19019) 	27 -2 	15 -9 	60	W	4	22	1025.8 30.30 	10	clear	
Tue Feb 2 07:05:46 2010	Philadelphia, PA (19019) 	26 -3 	15 -9 	63	calm		26	1025.5 30.29 	10	clear	
Tue Feb 2 07:48:47 2010	Philadelphia, PA (19019) 	26 -3 	15 -9 	63	calm		26	1025.5 30.29 	10	clear	
Tue Feb 2 08:31:59 2010	Philadelphia, PA (19019) 	27 -2 	15 -9 	60	NW	4	22	1025.6 30.29 	10	clear	
Tue Feb 2 09:15:28 2010	Philadelphia, PA (19019) 	24 -4 	15 -9 	68	NNW	3	20	1025.5 30.29 	10	clear	
Tue Feb 2 09:59:01 2010	Philadelphia, PA (19019) 	24 -4 	15 -9 	68	NNW	3	20	1025.5 30.29 	10	clear	
Tue Feb 2 10:42:34 2010	Philadelphia, PA (19019) 	25 -3 	15 -9 	66	NNW	4	19	1025.3 30.29 	10	clear	
Tue Feb 2 11:26:40 2010	Philadelphia, PA (19019) 	23 -5 	14 -10 	68	calm		23	1025.6 30.29 	10	clear	
Tue Feb 2 12:10:42 2010	Philadelphia, PA (19019) 	23 -5 	14 -10 	68	calm		23	1025.9 30.30 	10	clear	
Tue Feb 2 12:54:36 2010	Philadelphia, PA (19019) 	23 -5 	14 -10 	68	calm		23	1025.9 30.30 	10	clear	
Tue Feb 2 13:37:53 2010	Philadelphia, PA (19019) 	21 -6 	14 -10 	74	calm		21	1025.7 30.30 	10	mostly clear	
Tue Feb 2 14:21:36 2010	Philadelphia, PA (19019) 	22 -5 	16 -8 	78	calm		22	1025.7 30.30 	10	clear	
Tue Feb 2 15:05:57 2010	Philadelphia, PA (19019) 	27 -2 	14 -10 	57	NE	8	18	1025.8 30.30 	10	mostly cloudy	
Tue Feb 2 15:52:22 2010	Philadelphia, PA (19019) 	27 -2 	14 -10 	57	NE	8	18	1025.8 30.30 	10	mostly cloudy	
Tue Feb 2 16:44:52 2010	Philadelphia, PA (19019) 	30 -1 	11-Dec	47	ENE	7	22	1025.8 30.30 	10	partly cloudy	
Tue Feb 2 17:33:19 2010	Philadelphia, PA (19019) 	32 0 	11-Nov	41	E	7	25	1024.9 30.27 	10	partly cloudy	
Tue Feb 2 18:17:56 2010	Philadelphia, PA (19019) 	33 0 	11-Dec	41	ESE	8	26	1024.1 30.25 	10	mostly cloudy	
Tue Feb 2 19:02:07 2010	Philadelphia, PA (19019) 	33 0 	13 -10 	43	SE	4	29	1023.5 30.23 	10	cloudy	
Tue Feb 2 19:51:26 2010	Philadelphia, PA (19019) 	33 0 	13 -10 	43	SE	4	29	1023.5 30.23 	10	cloudy	
Tue Feb 2 20:42:39 2010	Philadelphia, PA (19019) 	34 1 	15 -9 	45	E	3	31	1022.6 30.21 	10	cloudy	
Tue Feb 2 21:29:31 2010	Philadelphia, PA (19019) 	35 1 	15 -9 	43	E	3	32	1022.7 30.21 	10	mostly cloudy	
Tue Feb 2 22:17:53 2010	Philadelphia, PA (19019) 	35 1 	17 -8 	47	E	5	30	1022.0 30.19 	10	cloudy	
Tue Feb 2 23:02:11 2010	Philadelphia, PA (19019) 	35 1 	18 -7 	49	E	5	30	1021.7 30.18 	10	cloudy	
Tue Feb 2 23:47:11 2010	Philadelphia, PA (19019) 	35 1 	18 -7 	49	E	5	30	1021.7 30.18 	10	cloudy	
Wed Feb 3 00:31:55 2010	Philadelphia, PA (19019) 	34 1 	20 -6 	56	E	7	27	1021.5 30.17 	10	cloudy	
Wed Feb 3 01:19:05 2010	Philadelphia, PA (19019) 	34 1 	21 -6 	59	ESE	5	29	1021.7 30.18 	10	cloudy	
Wed Feb 3 02:03:54 2010	Philadelphia, PA (19019) 	33 0 	22 -5 	63	E	5	28	1021.4 30.17 	10	cloudy	
Wed Feb 3 02:52:36 2010	Philadelphia, PA (19019) 	33 0 	22 -5 	63	E	5	28	1021.4 30.17 	10	cloudy	
Wed Feb 3 03:39:25 2010	Philadelphia, PA (19019) 	33 0 	22 -5 	63	NE	4	29	1020.7 30.15 	10	cloudy	
Wed Feb 3 04:27:35 2010	Philadelphia, PA (19019) 	33 0 	22 -5 	63	NNE	4	29	1020.1 30.13 	10	cloudy	
Wed Feb 3 05:14:24 2010	Philadelphia, PA (19019) 	33 0 	24 -4 	69	NNE	5	28	1019.7 30.12 	10	cloudy	
Wed Feb 3 06:02:12 2010	Philadelphia, PA (19019) 	30 -1 	27 -2 	88	NNE	3	26	1019.2 30.11 	2	cloudy	light snow 
Wed Feb 3 06:48:56 2010	Philadelphia, PA (19019) 	30 -1 	27 -2 	88	NNE	3	26	1019.2 30.11 	2	cloudy	light snow 
Wed Feb 3 07:33:33 2010	Philadelphia, PA (19019) 	30 -1 	28 -2 	92	N	6	23	1018.3 30.08 	2	cloudy	light snow 
Wed Feb 3 08:16:43 2010	Philadelphia, PA (19019) 	31 0 	29 -1 	92	NNE	5	25	1018.0 30.07 	2	cloudy	light snow 
Wed Feb 3 09:03:11 2010	Philadelphia, PA (19019) 	30 -1 	29 -1 	96	NE	3	26	1017.8 30.06 	3	cloudy	light snow 
Wed Feb 3 09:46:30 2010	Philadelphia, PA (19019) 	30 -1 	29 -1 	96	NE	3	26	1017.8 30.06 	3	cloudy	light snow 
Wed Feb 3 10:30:24 2010	Philadelphia, PA (19019) 	30 -1 	29 -1 	96	calm		30	1017.7 30.06 	2	cloudy	light snow 
Wed Feb 3 11:17:16 2010	Philadelphia, PA (19019) 	30 -1 	29 -1 	96	calm		30	1017.8 30.06 	2	cloudy	light snow 
Wed Feb 3 12:02:01 2010	Philadelphia, PA (19019) 	29 -1 	29 -1 	100	calm		29	1018.0 30.07 	3	cloudy	light snow 
Wed Feb 3 12:45:13 2010	Philadelphia, PA (19019) 	29 -1 	29 -1 	100	calm		29	1018.0 30.07 	3	cloudy	light snow 
Wed Feb 3 13:28:57 2010	Philadelphia, PA (19019) 	30 -1 	29 -1 	96	N	3	26	1018.2 30.08 	5	cloudy	haze 
Wed Feb 3 14:15:04 2010	Philadelphia, PA (19019) 	30 -1 	29 -1 	96	N	3	26	1018.2 30.08 	5	cloudy	haze 
Wed Feb 3 15:01:04 2010	Philadelphia, PA (19019) 	31 0 	30 -1 	96	WNW	3	27	1019.3 30.11 	4	cloudy	haze 
Wed Feb 3 15:45:52 2010	Philadelphia, PA (19019) 	31 0 	30 -1 	96	WNW	3	27	1019.3 30.11 	4	cloudy	haze 
Wed Feb 3 16:31:44 2010	Philadelphia, PA (19019) 	32 0 	30 -1 	92	WNW	6	26	1019.4 30.11 	6	cloudy	haze 
Wed Feb 3 17:18:57 2010	Philadelphia, PA (19019) 	32 0 	29 -1 	88	WNW	5	26	1018.9 30.10 	8	cloudy	
Wed Feb 3 18:07:15 2010	Philadelphia, PA (19019) 	34 1 	30 -1 	85	WNW	7	27	1018.2 30.08 	9	mostly cloudy	
Wed Feb 3 18:50:23 2010	Philadelphia, PA (19019) 	34 1 	30 -1 	85	WNW	7	27	1018.2 30.08 	9	mostly cloudy	
Wed Feb 3 19:34:37 2010	Philadelphia, PA (19019) 	37 2 	30 -1 	76	W	9	30	1017.7 30.06 	10	mostly clear	
Wed Feb 3 20:18:42 2010	Philadelphia, PA (19019) 	38 3 	28 -2 	67	NW	11	30	1017.6 30.06 	10	partly cloudy	
Wed Feb 3 21:03:00 2010	Philadelphia, PA (19019) 	38 3 	28 -2 	67	WNW	13	29	1017.4 30.05 	10	cloudy	
Wed Feb 3 21:51:06 2010	Philadelphia, PA (19019) 	38 3 	28 -2 	67	WNW	13	29	1017.4 30.05 	10	cloudy	
Wed Feb 3 22:36:38 2010	Philadelphia, PA (19019) 	37 2 	28 -2 	70	NW	10	29	1017.7 30.06 	9	cloudy	
Wed Feb 3 23:27:32 2010	Philadelphia, PA (19019) 	37 2 	26 -3 	64	NW	8	30	1018.5 30.09 	10	clear	
Fri Jan 29 08:41:31 2010	Phoenix, AZ (85001) 	53 11 	47 8 	79	ESE	6		1016.6 30.03 	10	cloudy	
Fri Jan 29 09:25:26 2010	Phoenix, AZ (85001) 	52 11 	47 8 	83	SE	4		1016.6 30.03 	10	mostly clear	
Fri Jan 29 11:57:28 2010	Phoenix, AZ (85001) 	51 10 	48 8 	89	ENE	3		1017.0 30.04 	10	cloudy	
Fri Jan 29 12:42:10 2010	Phoenix, AZ (85001) 	51 10 	48 8 	89	calm			1016.0 30.01 	10	cloudy	
Fri Jan 29 13:29:54 2010	Phoenix, AZ (85001) 	51 10 	47 8 	85		3		1015.9 30.01 	10	cloudy	
Fri Jan 29 14:17:46 2010	Phoenix, AZ (85001) 	50 10 	47 8 	89	E	4	48	1015.9 30.01 	9	clear	
Fri Jan 29 15:02:33 2010	Phoenix, AZ (85001) 	49 9 	46 7 	90	ENE	3	48	1016.2 30.02 	7	clear	
Fri Jan 29 15:48:05 2010	Phoenix, AZ (85001) 	49 9 	46 7 	90	ENE	3	48	1016.2 30.02 	7	clear	
Fri Jan 29 16:35:49 2010	Phoenix, AZ (85001) 	48 8 	46 7 	93	calm		48	1016.8 30.03 	4	mostly clear	haze 
Fri Jan 29 17:20:16 2010	Phoenix, AZ (85001) 	51 10 	47 8 	85	calm			1017.5 30.06 	7	mostly clear	
Fri Jan 29 18:08:46 2010	Phoenix, AZ (85001) 	55 12 	47 8 	74	calm			1017.9 30.07 	10	mostly clear	
Fri Jan 29 18:53:46 2010	Phoenix, AZ (85001) 	55 12 	47 8 	74	calm			1017.9 30.07 	10	mostly clear	
Fri Jan 29 19:45:45 2010	Phoenix, AZ (85001) 	58 14 	46 7 	64	calm			1017.9 30.07 	10	mostly clear	
Fri Jan 29 20:43:33 2010	Phoenix, AZ (85001) 	57 13 	45 7 	64	calm			1017.4 30.05 	10	cloudy	
Fri Jan 29 21:28:12 2010	Phoenix, AZ (85001) 	60 15 	44 6 	55	calm			1016.3 30.02 	10	mostly cloudy	
Fri Jan 29 22:14:47 2010	Phoenix, AZ (85001) 	62 16 	44 6 	52	calm			1015.2 29.99 	10	clear	
Fri Jan 29 22:59:43 2010	Phoenix, AZ (85001) 	62 16 	44 6 	52	calm			1015.2 29.99 	10	clear	
Fri Jan 29 23:44:00 2010	Phoenix, AZ (85001) 	61 16 	43 6 	51	calm			1015.1 29.98 	10	clear	
Mon Feb 1 00:10:59 2010	Phoenix, AZ (85001) 	65 18 	38 3 	37	W	4		1009.9 29.83 	10	mostly clear	
Mon Feb 1 00:53:56 2010	Phoenix, AZ (85001) 	65 18 	38 3 	37	W	4		1009.9 29.83 	10	mostly clear	
Mon Feb 1 01:40:15 2010	Phoenix, AZ (85001) 	64 17 	37 2 	37	W	8		1010.3 29.84 	10	clear	
Mon Feb 1 02:24:12 2010	Phoenix, AZ (85001) 	63 17 	36 2 	36	SW	5		1010.7 29.85 	10	clear	
Mon Feb 1 03:07:53 2010	Phoenix, AZ (85001) 	60 15 	38 3 	44	SW	3		1011.4 29.88 	10	clear	
Mon Feb 1 03:52:33 2010	Phoenix, AZ (85001) 	60 15 	38 3 	44	SW	3		1011.4 29.88 	10	clear	
Mon Feb 1 04:37:21 2010	Phoenix, AZ (85001) 	58 14 	40 4 	51	calm			1011.8 29.89 	10	clear	
Mon Feb 1 05:20:31 2010	Phoenix, AZ (85001) 	55 12 	42 5 	62	calm			1012.3 29.90 	10	clear	
Mon Feb 1 06:05:23 2010	Phoenix, AZ (85001) 	53 11 	42 5 	66	NE	3		1012.3 29.90 	10	clear	
Mon Feb 1 06:48:33 2010	Phoenix, AZ (85001) 	53 11 	42 5 	66	NE	3		1012.3 29.90 	10	clear	
Mon Feb 1 07:32:22 2010	Phoenix, AZ (85001) 	52 11 	41 5 	66	NNE	8	49	1012.5 29.91 	10	clear	
Mon Feb 1 08:15:29 2010	Phoenix, AZ (85001) 	51 10 	41 5 	68	NNE	4		1012.4 29.90 	10	clear	
Mon Feb 1 08:59:15 2010	Phoenix, AZ (85001) 	51 10 	41 5 	68	NNE	4		1012.4 29.90 	10	clear	
Mon Feb 1 09:42:13 2010	Phoenix, AZ (85001) 	51 10 	40 4 	65	NE	3		1012.4 29.90 	10	clear	
Mon Feb 1 10:25:46 2010	Phoenix, AZ (85001) 	50 10 	40 4 	68	calm			1012.5 29.91 	10	clear	
Mon Feb 1 11:08:43 2010	Phoenix, AZ (85001) 	48 8 	40 4 	73	calm		48	1012.8 29.92 	10	clear	
Mon Feb 1 11:52:09 2010	Phoenix, AZ (85001) 	48 8 	40 4 	73	calm		48	1012.8 29.92 	10	clear	
Mon Feb 1 12:35:30 2010	Phoenix, AZ (85001) 	48 8 	40 4 	73	calm		48	1012.8 29.92 	10	clear	
Mon Feb 1 13:19:05 2010	Phoenix, AZ (85001) 	47 8 	40 4 	76	calm		47	1012.8 29.92 	10	clear	
Mon Feb 1 14:02:57 2010	Phoenix, AZ (85001) 	46 7 	40 4 	79	calm		46	1013.1 29.93 	10	clear	
Mon Feb 1 14:48:03 2010	Phoenix, AZ (85001) 	46 7 	40 4 	79	calm		46	1013.1 29.93 	10	clear	
Mon Feb 1 15:31:47 2010	Phoenix, AZ (85001) 	46 7 	39 3 	76	calm		46	1013.6 29.94 	10	clear	
Mon Feb 1 16:16:14 2010	Phoenix, AZ (85001) 	47 8 	39 3 	74	NNE	5	44	1013.9 29.95 	10	clear	
Mon Feb 1 17:01:10 2010	Phoenix, AZ (85001) 	51 10 	40 4 	65	NNE	4		1014.3 29.96 	10	clear	
Mon Feb 1 17:45:05 2010	Phoenix, AZ (85001) 	47 8 	39 3 	74	NNE	5	44	1013.9 29.95 	10	clear	
Mon Feb 1 18:28:34 2010	Phoenix, AZ (85001) 	56 13 	40 4 	55	calm			1014.8 29.98 	10	clear	
Mon Feb 1 19:12:20 2010	Phoenix, AZ (85001) 	57 13 	39 3 	51	calm			1014.9 29.98 	10	clear	
Mon Feb 1 19:57:11 2010	Phoenix, AZ (85001) 	57 13 	39 3 	51	calm			1014.9 29.98 	10	clear	
Mon Feb 1 20:43:36 2010	Phoenix, AZ (85001) 	60 15 	39 3 	46	SSW	4		1014.2 29.96 	10	clear	
Mon Feb 1 21:28:32 2010	Phoenix, AZ (85001) 	61 16 	38 3 	42	SE	3		1013.0 29.92 	10	clear	
Mon Feb 1 22:11:56 2010	Phoenix, AZ (85001) 	63 17 	38 3 	39	SE	4		1012.0 29.89 	10	clear	
Mon Feb 1 22:55:15 2010	Phoenix, AZ (85001) 	63 17 	38 3 	39	SE	4		1012.0 29.89 	10	clear	
Mon Feb 1 23:41:23 2010	Phoenix, AZ (85001) 	64 17 	36 2 	35	S	3		1011.5 29.88 	10	clear	
Sat Jan 30 00:28:04 2010	Phoenix, AZ (85001) 	62 16 	42 5 	48	WNW	3		1014.7 29.97 	10	mostly clear	
Sat Jan 30 01:12:14 2010	Phoenix, AZ (85001) 	63 17 	40 4 	43	calm			1014.6 29.97 	10	clear	
Sat Jan 30 01:55:46 2010	Phoenix, AZ (85001) 	63 17 	40 4 	43	calm			1014.6 29.97 	10	clear	
Sat Jan 30 02:40:27 2010	Phoenix, AZ (85001) 	62 16 	40 4 	44	calm			1014.9 29.98 	10	clear	
Sat Jan 30 03:23:59 2010	Phoenix, AZ (85001) 	59 15 	44 6 	58	calm			1015.3 29.99 	10	clear	
Sat Jan 30 04:07:54 2010	Phoenix, AZ (85001) 	56 13 	45 7 	67	calm			1015.4 29.99 	10	clear	
Sat Jan 30 04:51:40 2010	Phoenix, AZ (85001) 	56 13 	45 7 	67	calm			1015.4 29.99 	10	clear	
Sat Jan 30 05:35:22 2010	Phoenix, AZ (85001) 	54 12 	46 7 	74	calm			1015.5 30.00 	10	clear	
Sat Jan 30 06:19:30 2010	Phoenix, AZ (85001) 	54 12 	43 6 	66		5		1015.5 30.00 	10	clear	
Sat Jan 30 07:05:30 2010	Phoenix, AZ (85001) 	53 11 	44 6 	71	calm			1015.5 30.00 	10	clear	
Sat Jan 30 07:48:12 2010	Phoenix, AZ (85001) 	53 11 	44 6 	71	calm			1015.5 30.00 	10	clear	
Sat Jan 30 08:31:25 2010	Phoenix, AZ (85001) 	52 11 	43 6 	71		7	49	1015.1 29.98 	10	clear	
Sat Jan 30 11:13:10 2010	Phoenix, AZ (85001) 	52 11 	41 5 	66	NNE	6		1014.8 29.98 	10	clear	
Sat Jan 30 12:00:59 2010	Phoenix, AZ (85001) 	53 11 	39 3 	59		5		1014.4 29.96 	10	clear	
Sat Jan 30 12:44:37 2010	Phoenix, AZ (85001) 	53 11 	39 3 	59		5		1014.4 29.96 	10	clear	
Sat Jan 30 13:27:53 2010	Phoenix, AZ (85001) 	52 11 	39 3 	61	N	3		1014.0 29.95 	10	clear	
Sat Jan 30 14:12:04 2010	Phoenix, AZ (85001) 	52 11 	38 3 	58	E	5		1013.9 29.95 	10	clear	
Sat Jan 30 14:56:06 2010	Phoenix, AZ (85001) 	52 11 	38 3 	58	E	5		1013.9 29.95 	10	clear	
Sat Jan 30 15:41:57 2010	Phoenix, AZ (85001) 	51 10 	39 3 	63	NE	4		1014.4 29.96 	10	clear	
Sat Jan 30 16:26:57 2010	Phoenix, AZ (85001) 	49 9 	41 5 	74	calm		49	1014.6 29.97 	10	clear	
Sat Jan 30 17:11:21 2010	Phoenix, AZ (85001) 	54 12 	38 3 	54		5		1014.9 29.98 	10	clear	
Sat Jan 30 17:54:34 2010	Phoenix, AZ (85001) 	54 12 	38 3 	54		5		1014.9 29.98 	10	clear	
Sat Jan 30 18:38:34 2010	Phoenix, AZ (85001) 	58 14 	37 2 	46		7		1014.7 29.97 	10	clear	
Sat Jan 30 19:21:52 2010	Phoenix, AZ (85001) 	61 16 	35 1 	38	E	4		1014.6 29.97 	10	clear	
Sat Jan 30 20:06:07 2010	Phoenix, AZ (85001) 	61 16 	35 1 	38	ESE	7		1013.9 29.95 	10	clear	
Sat Jan 30 20:49:13 2010	Phoenix, AZ (85001) 	61 16 	35 1 	38	ESE	7		1013.9 29.95 	10	clear	
Sat Jan 30 21:32:59 2010	Phoenix, AZ (85001) 	63 17 	34 1 	34	calm			1013.2 29.93 	10	clear	
Sat Jan 30 22:16:14 2010	Phoenix, AZ (85001) 	64 17 	34 1 	33	E	4		1012.2 29.90 	10	clear	
Sat Jan 30 23:01:53 2010	Phoenix, AZ (85001) 	65 18 	33 0 	30	E	8		1011.1 29.87 	10	clear	
Sat Jan 30 23:46:32 2010	Phoenix, AZ (85001) 	65 18 	33 0 	30	E	8		1011.1 29.87 	10	clear	
Sun Jan 31 00:30:29 2010	Phoenix, AZ (85001) 	66 18 	34 1 	30	ESE	5		1010.9 29.86 	10	clear	
Sun Jan 31 01:21:15 2010	Phoenix, AZ (85001) 	65 18 	34 1 	32	SE	9		1010.9 29.86 	10	clear	
Sun Jan 31 02:05:14 2010	Phoenix, AZ (85001) 	63 17 	35 1 	35	SSE	3		1011.4 29.88 	10	clear	
Sun Jan 31 02:48:41 2010	Phoenix, AZ (85001) 	63 17 	35 1 	35	SSE	3		1011.4 29.88 	10	clear	
Sun Jan 31 03:32:33 2010	Phoenix, AZ (85001) 	59 15 	37 2 	44	calm			1011.7 29.88 	10	clear	
Sun Jan 31 04:16:00 2010	Phoenix, AZ (85001) 	58 14 	36 2 	44	E	5		1011.6 29.88 	10	clear	
Sun Jan 31 05:00:35 2010	Phoenix, AZ (85001) 	54 12 	39 3 	57	E	5		1011.6 29.88 	10	clear	
Sun Jan 31 05:46:39 2010	Phoenix, AZ (85001) 	54 12 	39 3 	57	E	5		1011.6 29.88 	10	clear	
Sun Jan 31 06:31:50 2010	Phoenix, AZ (85001) 	54 12 	38 3 	54	NE	6		1011.6 29.88 	10	clear	
Sun Jan 31 07:14:44 2010	Phoenix, AZ (85001) 	54 12 	38 3 	54	NE	5		1011.5 29.88 	10	clear	
Sun Jan 31 08:01:27 2010	Phoenix, AZ (85001) 	52 11 	38 3 	58	NE	9	48	1011.3 29.87 	10	clear	
Sun Jan 31 08:46:09 2010	Phoenix, AZ (85001) 	52 11 	38 3 	58	NE	9	48	1011.3 29.87 	10	clear	
Sun Jan 31 09:29:23 2010	Phoenix, AZ (85001) 	54 12 	37 2 	52		9		1010.9 29.86 	10	clear	
Sun Jan 31 10:12:35 2010	Phoenix, AZ (85001) 	52 11 	37 2 	56	NE	5		1011.0 29.86 	10	clear	
Sun Jan 31 10:56:20 2010	Phoenix, AZ (85001) 	52 11 	37 2 	56	NE	5		1011.0 29.86 	10	clear	
Sun Jan 31 11:39:48 2010	Phoenix, AZ (85001) 	52 11 	37 2 	56	NE	4		1011.0 29.86 	10	clear	
Sun Jan 31 12:23:28 2010	Phoenix, AZ (85001) 	52 11 	37 2 	56	NNE	6		1010.7 29.85 	10	clear	
Sun Jan 31 13:06:51 2010	Phoenix, AZ (85001) 	51 10 	37 2 	58	ENE	4		1010.7 29.85 	10	clear	
Sun Jan 31 13:50:28 2010	Phoenix, AZ (85001) 	51 10 	37 2 	58	ENE	4		1010.7 29.85 	10	clear	
Sun Jan 31 14:33:18 2010	Phoenix, AZ (85001) 	50 10 	37 2 	61	ENE	3	49	1011.0 29.86 	10	clear	
Sun Jan 31 15:17:24 2010	Phoenix, AZ (85001) 	50 10 	37 2 	61	NE	6	47	1011.8 29.89 	10	clear	
Sun Jan 31 16:00:53 2010	Phoenix, AZ (85001) 	51 10 	37 2 	58	NE	5	49	1012.1 29.90 	10	clear	
Sun Jan 31 16:50:40 2010	Phoenix, AZ (85001) 	51 10 	37 2 	58	NE	5	49	1012.1 29.90 	10	clear	
Sun Jan 31 17:34:20 2010	Phoenix, AZ (85001) 	53 11 	38 3 	56	NNE	6		1012.5 29.91 	10	clear	
Sun Jan 31 18:19:20 2010	Phoenix, AZ (85001) 	58 14 	40 4 	51	calm			1012.6 29.91 	10	clear	
Sun Jan 31 19:03:06 2010	Phoenix, AZ (85001) 	60 15 	40 4 	47	W	3		1012.8 29.92 	10	clear	
Sun Jan 31 19:48:28 2010	Phoenix, AZ (85001) 	60 15 	40 4 	47	W	3		1012.8 29.92 	10	clear	
Sun Jan 31 20:31:27 2010	Phoenix, AZ (85001) 	62 16 	39 3 	42	calm			1012.3 29.90 	10	clear	
Sun Jan 31 21:15:40 2010	Phoenix, AZ (85001) 	63 17 	39 3 	41	N	4		1011.2 29.87 	10	clear	
Sun Jan 31 21:58:54 2010	Phoenix, AZ (85001) 	63 17 	39 3 	41	N	4		1011.2 29.87 	10	clear	
Sun Jan 31 22:43:42 2010	Phoenix, AZ (85001) 	64 17 	38 3 	38	calm			1010.6 29.85 	10	clear	
Sun Jan 31 23:27:03 2010	Phoenix, AZ (85001) 	65 18 	38 3 	37	calm			1010.1 29.84 	10	clear	
Thu Feb 4 00:12:23 2010	Phoenix, AZ (85001) 	67 19 	36 2 	32	SSW	8		1001.4 29.58 	10	clear	
Thu Feb 4 00:56:28 2010	Phoenix, AZ (85001) 	67 19 	36 2 	32	SSW	8		1001.4 29.58 	10	clear	
Thu Feb 4 01:39:43 2010	Phoenix, AZ (85001) 	67 19 	36 2 	32	SSW	6		1001.9 29.59 	10	clear	
Thu Feb 4 02:27:27 2010	Phoenix, AZ (85001) 	62 16 	45 7 	53	NNW	11		1003.6 29.64 	10	cloudy	light rain 
Thu Feb 4 03:10:38 2010	Phoenix, AZ (85001) 	59 15 	45 7 	60	SSW	6		1003.2 29.63 	10	mostly cloudy	light rain 
Thu Feb 4 03:55:06 2010	Phoenix, AZ (85001) 	59 15 	45 7 	60	SSW	6		1003.2 29.63 	10	mostly cloudy	light rain 
Thu Feb 4 04:38:22 2010	Phoenix, AZ (85001) 	59 15 	44 6 	58		7		1003.9 29.65 	10	mostly cloudy	
Thu Feb 4 05:21:43 2010	Phoenix, AZ (85001) 	57 13 	45 7 	64	E	4		1004.2 29.66 	10	clear	
Thu Feb 4 06:04:34 2010	Phoenix, AZ (85001) 	57 13 	44 6 	62	calm			1005.0 29.69 	10	cloudy	
Thu Feb 4 06:47:38 2010	Phoenix, AZ (85001) 	57 13 	44 6 	62	calm			1005.0 29.69 	10	cloudy	
Thu Feb 4 07:31:13 2010	Phoenix, AZ (85001) 	55 12 	44 6 	67	E	5		1005.5 29.70 	10	clear	
Thu Feb 4 08:13:47 2010	Phoenix, AZ (85001) 	55 12 	46 7 	72	ESE	8		1006.3 29.72 	10	clear	
Thu Feb 4 08:57:29 2010	Phoenix, AZ (85001) 	55 12 	46 7 	72	ESE	8		1006.3 29.72 	10	clear	
Thu Feb 4 09:41:24 2010	Phoenix, AZ (85001) 	55 12 	46 7 	72	SE	10		1006.8 29.74 	10	cloudy	
Thu Feb 4 10:25:04 2010	Phoenix, AZ (85001) 	54 12 	45 7 	71	SE	7		1007.1 29.75 	10	clear	
Thu Feb 4 11:10:59 2010	Phoenix, AZ (85001) 	54 12 	45 7 	71	SE	7		1007.3 29.75 	10	clear	
Thu Feb 4 11:54:30 2010	Phoenix, AZ (85001) 	54 12 	45 7 	71	SE	7		1007.3 29.75 	10	clear	
Thu Feb 4 12:37:36 2010	Phoenix, AZ (85001) 	52 11 	45 7 	77	SE	7	49	1007.9 29.77 	10	clear	
Thu Feb 4 13:21:41 2010	Phoenix, AZ (85001) 	51 10 	45 7 	80	ESE	5	49	1008.7 29.80 	10	clear	
Thu Feb 4 14:06:31 2010	Phoenix, AZ (85001) 	51 10 	45 7 	80	SE	6	49	1009.3 29.81 	10	clear	
Thu Feb 4 14:59:17 2010	Phoenix, AZ (85001) 	51 10 	45 7 	80	SE	6	49	1009.3 29.81 	10	clear	
Thu Jan 28 15:38:56 2010	Phoenix, AZ (85001) 	50 10 	46 7 	86	ESE	3	49	1010.9 29.86 	10	clear	
Thu Jan 28 15:59:42 2010	Phoenix, AZ (85001) 	50 10 	46 7 	86	ESE	3	49	1010.9 29.86 	10	clear	
Thu Jan 28 16:49:04 2010	Phoenix, AZ (85001) 	51 10 	48 8 	89	calm			1011.7 29.88 	10	mostly cloudy	
Thu Jan 28 17:13:19 2010	Phoenix, AZ (85001) 	51 10 	49 9 	92	E	3		1012.5 29.91 	5	cloudy	haze 
Thu Jan 28 17:29:18 2010	Phoenix, AZ (85001) 	51 10 	49 9 	92	E	3		1012.5 29.91 	5	cloudy	haze 
Tue Feb 2 00:28:15 2010	Phoenix, AZ (85001) 	63 17 	36 2 	36	calm			1011.4 29.88 	10	clear	
Tue Feb 2 01:13:51 2010	Phoenix, AZ (85001) 	63 17 	35 1 	35	S	4		1011.6 29.88 	10	clear	
Tue Feb 2 01:57:00 2010	Phoenix, AZ (85001) 	63 17 	35 1 	35	S	4		1011.6 29.88 	10	clear	
Tue Feb 2 02:41:03 2010	Phoenix, AZ (85001) 	63 17 	34 1 	34	calm			1011.6 29.88 	10	clear	
Tue Feb 2 03:24:35 2010	Phoenix, AZ (85001) 	59 15 	38 3 	45	calm			1011.9 29.89 	10	clear	
Tue Feb 2 04:08:21 2010	Phoenix, AZ (85001) 	57 13 	40 4 	53	N	4		1011.9 29.89 	10	clear	
Tue Feb 2 04:51:54 2010	Phoenix, AZ (85001) 	57 13 	40 4 	53	N	4		1011.9 29.89 	10	clear	
Tue Feb 2 05:35:17 2010	Phoenix, AZ (85001) 	54 12 	40 4 	59	NNE	9		1011.6 29.88 	10	clear	
Tue Feb 2 06:18:32 2010	Phoenix, AZ (85001) 	54 12 	39 3 	57	NNE	9		1011.7 29.88 	10	clear	
Tue Feb 2 07:05:41 2010	Phoenix, AZ (85001) 	54 12 	38 3 	54	NNE	9		1011.5 29.88 	10	clear	
Tue Feb 2 07:48:42 2010	Phoenix, AZ (85001) 	54 12 	38 3 	54	NNE	9		1011.5 29.88 	10	clear	
Tue Feb 2 08:31:54 2010	Phoenix, AZ (85001) 	53 11 	38 3 	56	NE	5		1011.5 29.88 	10	clear	
Tue Feb 2 09:15:23 2010	Phoenix, AZ (85001) 	53 11 	38 3 	56	NNE	7		1011.4 29.88 	10	clear	
Tue Feb 2 09:58:55 2010	Phoenix, AZ (85001) 	53 11 	38 3 	56	NNE	7		1011.4 29.88 	10	clear	
Tue Feb 2 10:42:28 2010	Phoenix, AZ (85001) 	54 12 	38 3 	54	NE	6		1011.2 29.87 	10	clear	
Tue Feb 2 11:26:35 2010	Phoenix, AZ (85001) 	54 12 	38 3 	54	NE	4		1011.0 29.86 	10	clear	
Tue Feb 2 12:10:35 2010	Phoenix, AZ (85001) 	54 12 	37 2 	52	NE	6		1010.5 29.85 	10	clear	
Tue Feb 2 12:54:31 2010	Phoenix, AZ (85001) 	54 12 	37 2 	52	NE	6		1010.5 29.85 	10	clear	
Tue Feb 2 13:37:48 2010	Phoenix, AZ (85001) 	53 11 	37 2 	54	NE	6		1010.4 29.85 	10	clear	
Tue Feb 2 14:21:31 2010	Phoenix, AZ (85001) 	54 12 	36 2 	50	NE	5		1010.3 29.84 	10	clear	
Tue Feb 2 15:05:51 2010	Phoenix, AZ (85001) 	53 11 	37 2 	54	NNE	6		1010.4 29.85 	10	clear	
Tue Feb 2 15:52:17 2010	Phoenix, AZ (85001) 	53 11 	37 2 	54	NNE	6		1010.4 29.85 	10	clear	
Tue Feb 2 16:44:47 2010	Phoenix, AZ (85001) 	53 11 	36 2 	52	NNE	5		1010.6 29.85 	10	clear	
Tue Feb 2 17:33:13 2010	Phoenix, AZ (85001) 	55 12 	37 2 	51	NNE	4		1010.7 29.85 	10	mostly cloudy	
Tue Feb 2 18:17:50 2010	Phoenix, AZ (85001) 	60 15 	36 2 	40	N	3		1010.5 29.85 	10	mostly clear	
Tue Feb 2 19:02:01 2010	Phoenix, AZ (85001) 	61 16 	38 3 	42	SW	4		1010.5 29.85 	10	clear	
Tue Feb 2 19:51:16 2010	Phoenix, AZ (85001) 	61 16 	38 3 	42	SW	4		1010.5 29.85 	10	clear	
Tue Feb 2 20:42:34 2010	Phoenix, AZ (85001) 	64 17 	36 2 	35	calm			1009.4 29.82 	10	clear	
Tue Feb 2 21:29:26 2010	Phoenix, AZ (85001) 	68 20 	35 1 	30	calm			1008.1 29.78 	10	clear	
Tue Feb 2 22:17:48 2010	Phoenix, AZ (85001) 	68 20 	35 1 	30	N	3		1007.3 29.75 	10	mostly cloudy	
Tue Feb 2 23:02:05 2010	Phoenix, AZ (85001) 	69 20 	36 2 	30	S	7		1006.6 29.73 	10	clear	
Tue Feb 2 23:47:05 2010	Phoenix, AZ (85001) 	69 20 	36 2 	30	S	7		1006.6 29.73 	10	clear	
Wed Feb 3 00:31:50 2010	Phoenix, AZ (85001) 	69 20 	37 2 	31	SSE	3		1006.1 29.72 	10	clear	
Wed Feb 3 01:19:00 2010	Phoenix, AZ (85001) 	69 20 	37 2 	31	SSE	6		1006.1 29.72 	10	clear	
Wed Feb 3 02:03:47 2010	Phoenix, AZ (85001) 	67 19 	37 2 	33	SSE	5		1005.9 29.71 	10	clear	
Wed Feb 3 02:52:31 2010	Phoenix, AZ (85001) 	67 19 	37 2 	33	SSE	5		1005.9 29.71 	10	clear	
Wed Feb 3 03:39:20 2010	Phoenix, AZ (85001) 	64 17 	39 3 	40	calm			1005.7 29.71 	10	clear	
Wed Feb 3 04:27:30 2010	Phoenix, AZ (85001) 	60 15 	41 5 	49	calm			1006.1 29.72 	10	clear	
Wed Feb 3 05:14:17 2010	Phoenix, AZ (85001) 	60 15 	40 4 	47	NNE	8		1005.6 29.70 	10	clear	
Wed Feb 3 06:02:06 2010	Phoenix, AZ (85001) 	59 15 	40 4 	49	NNE	7		1005.0 29.69 	10	clear	
Wed Feb 3 06:48:51 2010	Phoenix, AZ (85001) 	59 15 	40 4 	49	NNE	7		1005.0 29.69 	10	clear	
Wed Feb 3 07:33:28 2010	Phoenix, AZ (85001) 	58 14 	40 4 	51	calm			1004.7 29.68 	10	mostly clear	
Wed Feb 3 08:16:38 2010	Phoenix, AZ (85001) 	57 13 	40 4 	53	NNE	4		1004.2 29.66 	10	mostly cloudy	
Wed Feb 3 09:03:05 2010	Phoenix, AZ (85001) 	57 13 	40 4 	53	calm			1003.7 29.65 	10	mostly cloudy	
Wed Feb 3 09:46:25 2010	Phoenix, AZ (85001) 	57 13 	40 4 	53	calm			1003.7 29.65 	10	mostly cloudy	
Wed Feb 3 10:30:17 2010	Phoenix, AZ (85001) 	58 14 	39 3 	49	calm			1002.9 29.62 	10	clear	
Wed Feb 3 11:17:11 2010	Phoenix, AZ (85001) 	58 14 	38 3 	47	NNE	4		1002.4 29.61 	10	clear	
Wed Feb 3 12:01:56 2010	Phoenix, AZ (85001) 	56 13 	40 4 	55	calm			1002.0 29.60 	10	mostly clear	
Wed Feb 3 12:45:08 2010	Phoenix, AZ (85001) 	56 13 	40 4 	55	calm			1002.0 29.60 	10	mostly clear	
Wed Feb 3 13:28:52 2010	Phoenix, AZ (85001) 	56 13 	40 4 	55	calm			1001.6 29.59 	10	mostly clear	
Wed Feb 3 14:14:58 2010	Phoenix, AZ (85001) 	58 14 	38 3 	47	calm			1001.5 29.58 	10	partly cloudy	
Wed Feb 3 15:00:56 2010	Phoenix, AZ (85001) 	58 14 	37 2 	46	NNW	8		1001.7 29.59 	10	mostly clear	
Wed Feb 3 15:45:47 2010	Phoenix, AZ (85001) 	58 14 	37 2 	46	NNW	8		1001.7 29.59 	10	mostly clear	
Wed Feb 3 16:31:38 2010	Phoenix, AZ (85001) 	57 13 	37 2 	47	E	6		1001.9 29.59 	10	clear	
Wed Feb 3 17:18:50 2010	Phoenix, AZ (85001) 	58 14 	38 3 	47	N	7		1002.4 29.61 	10	clear	
Wed Feb 3 18:07:08 2010	Phoenix, AZ (85001) 	62 16 	37 2 	39	NNE	4		1002.7 29.62 	10	partly cloudy	
Wed Feb 3 18:50:15 2010	Phoenix, AZ (85001) 	62 16 	37 2 	39	NNE	4		1002.7 29.62 	10	partly cloudy	
Wed Feb 3 19:34:31 2010	Phoenix, AZ (85001) 	64 17 	38 3 	38	calm			1002.5 29.61 	10	clear	
Wed Feb 3 20:18:36 2010	Phoenix, AZ (85001) 	64 17 	38 3 	38	SSW	4		1002.1 29.60 	10	clear	
Wed Feb 3 21:02:53 2010	Phoenix, AZ (85001) 	66 18 	38 3 	35	SSW	6		1001.5 29.58 	10	clear	
Wed Feb 3 21:51:01 2010	Phoenix, AZ (85001) 	66 18 	38 3 	35	SSW	6		1001.5 29.58 	10	clear	
Wed Feb 3 22:36:33 2010	Phoenix, AZ (85001) 	67 19 	36 2 	32	S	4		1000.9 29.57 	10	clear	
Wed Feb 3 23:27:27 2010	Phoenix, AZ (85001) 	68 20 	37 2 	32	SW	8		1000.8 29.56 	10	clear	
Fri Jan 29 08:41:32 2010	Portland, OR (97201) 	48 8 	35 1 	61	ESE	11	43	1015.7 30.00 	10	cloudy	
Fri Jan 29 09:25:27 2010	Portland, OR (97201) 	47 8 	36 2 	66	E	8	43	1015.4 29.99 	10	cloudy	
Fri Jan 29 11:57:29 2010	Portland, OR (97201) 	47 8 	36 2 	66	NE	5	44	1014.2 29.96 	10	cloudy	
Fri Jan 29 12:42:11 2010	Portland, OR (97201) 	49 9 	35 1 	59	ESE	10	44	1014.5 29.97 	10	cloudy	
Fri Jan 29 13:29:54 2010	Portland, OR (97201) 	48 8 	35 1 	61	E	12	42	1015.1 29.98 	10	cloudy	
Fri Jan 29 14:17:46 2010	Portland, OR (97201) 	47 8 	36 2 	66	ESE	10	42	1015.5 30.00 	10	cloudy	
Fri Jan 29 15:02:33 2010	Portland, OR (97201) 	47 8 	36 2 	66	ESE	8	43	1015.1 29.98 	10	mostly cloudy	
Fri Jan 29 15:48:05 2010	Portland, OR (97201) 	47 8 	36 2 	66	ESE	8	43	1015.1 29.98 	10	mostly cloudy	
Fri Jan 29 16:35:49 2010	Portland, OR (97201) 	49 9 	35 1 	59	ESE	11	44	1014.8 29.98 	10	cloudy	
Fri Jan 29 17:20:16 2010	Portland, OR (97201) 	47 8 	36 2 	66	ESE	13	41	1014.6 29.97 	10	cloudy	
Fri Jan 29 18:08:46 2010	Portland, OR (97201) 	48 8 	36 2 	63	E	11	43	1015.2 29.99 	10	cloudy	
Fri Jan 29 18:53:47 2010	Portland, OR (97201) 	48 8 	36 2 	63	E	11	43	1015.2 29.99 	10	cloudy	
Fri Jan 29 19:45:46 2010	Portland, OR (97201) 	49 9 	36 2 	61	ESE	21	41	1014.8 29.98 	10	cloudy	
Fri Jan 29 20:43:34 2010	Portland, OR (97201) 	49 9 	38 3 	66	E	17	42	1015.4 29.99 	10	cloudy	light rain 
Fri Jan 29 21:28:12 2010	Portland, OR (97201) 	50 10 	38 3 	63	E	9	46	1015.1 29.98 	10	cloudy	
Fri Jan 29 22:14:48 2010	Portland, OR (97201) 	50 10 	38 3 	63	E	15	44	1014.3 29.96 	10	cloudy	
Fri Jan 29 22:59:43 2010	Portland, OR (97201) 	50 10 	38 3 	63	E	15	44	1014.3 29.96 	10	cloudy	
Fri Jan 29 23:44:00 2010	Portland, OR (97201) 	50 10 	39 3 	66	SE	7	47	1014.4 29.96 	10	cloudy	
Mon Feb 1 00:10:59 2010	Portland, OR (97201) 	51 10 	44 6 	77	E	3		1014.8 29.98 	10	mostly cloudy	
Mon Feb 1 00:53:57 2010	Portland, OR (97201) 	51 10 	44 6 	77	E	3		1014.8 29.98 	10	mostly cloudy	
Mon Feb 1 01:40:16 2010	Portland, OR (97201) 	52 11 	44 6 	74	calm			1014.5 29.97 	10	partly cloudy	
Mon Feb 1 02:24:13 2010	Portland, OR (97201) 	50 10 	44 6 	80	WNW	3	49	1014.7 29.97 	10	mostly cloudy	
Mon Feb 1 03:07:54 2010	Portland, OR (97201) 	48 8 	44 6 	86	calm		48	1014.7 29.97 	10	mostly cloudy	
Mon Feb 1 03:52:34 2010	Portland, OR (97201) 	48 8 	44 6 	86	calm		48	1014.7 29.97 	10	mostly cloudy	
Mon Feb 1 04:37:21 2010	Portland, OR (97201) 	44 6 	42 5 	93	calm		44	1014.6 29.97 	10	partly cloudy	
Mon Feb 1 05:20:31 2010	Portland, OR (97201) 	44 6 	42 5 	93	ESE	3	43	1014.7 29.97 	10	partly cloudy	
Mon Feb 1 06:05:24 2010	Portland, OR (97201) 	42 5 	41 5 	96	E	5	38	1014.5 29.97 	10	partly cloudy	
Mon Feb 1 06:48:34 2010	Portland, OR (97201) 	42 5 	41 5 	96	E	5	38	1014.5 29.97 	10	partly cloudy	
Mon Feb 1 07:32:23 2010	Portland, OR (97201) 	41 5 	40 4 	96	E	6	36	1014.3 29.96 	10	partly cloudy	
Mon Feb 1 08:15:29 2010	Portland, OR (97201) 	41 5 	39 3 	93	E	6	36	1014.2 29.96 	10	mostly cloudy	
Mon Feb 1 08:59:15 2010	Portland, OR (97201) 	41 5 	39 3 	93	E	6	36	1014.2 29.96 	10	mostly cloudy	
Mon Feb 1 09:42:14 2010	Portland, OR (97201) 	39 3 	38 3 	96	E	4	36	1014.0 29.95 	10	partly cloudy	
Mon Feb 1 10:25:47 2010	Portland, OR (97201) 	39 3 	38 3 	96	calm		39	1014.0 29.95 	10	partly cloudy	
Mon Feb 1 11:08:44 2010	Portland, OR (97201) 	37 2 	37 2 	100	calm		37	1013.9 29.95 	1	cloudy	haze 
Mon Feb 1 11:52:10 2010	Portland, OR (97201) 	37 2 	37 2 	100	calm		37	1013.9 29.95 	1	cloudy	haze 
Mon Feb 1 12:35:31 2010	Portland, OR (97201) 	40 4 	39 3 	97	calm		40	1013.3 29.93 	0	cloudy	haze 
Mon Feb 1 13:19:05 2010	Portland, OR (97201) 	39 3 	39 3 	100	WNW	3	37	1012.9 29.92 	2	cloudy	haze 
Mon Feb 1 14:02:57 2010	Portland, OR (97201) 	40 4 	40 4 	100	calm		40	1012.8 29.92 	1	cloudy	haze 
Mon Feb 1 14:48:03 2010	Portland, OR (97201) 	40 4 	40 4 	100	calm		40	1012.8 29.92 	1	cloudy	haze 
Mon Feb 1 15:31:47 2010	Portland, OR (97201) 	40 4 	38 3 	92	E	3	38	1013.1 29.93 	7	cloudy	light rain 
Mon Feb 1 16:16:14 2010	Portland, OR (97201) 	41 5 	38 3 	89	E	11	34	1012.6 29.91 	10	cloudy	
Mon Feb 1 17:01:11 2010	Portland, OR (97201) 	40 4 	38 3 	92	SE	5	36	1012.7 29.91 	10	cloudy	
Mon Feb 1 17:45:05 2010	Portland, OR (97201) 	41 5 	38 3 	89	E	11	34	1012.6 29.91 	10	cloudy	
Mon Feb 1 18:28:34 2010	Portland, OR (97201) 	41 5 	38 3 	89	calm		41	1012.6 29.91 	10	cloudy	
Mon Feb 1 19:12:20 2010	Portland, OR (97201) 	42 5 	38 3 	85	calm		42	1012.3 29.90 	10	cloudy	
Mon Feb 1 19:57:11 2010	Portland, OR (97201) 	42 5 	38 3 	85	calm		42	1012.3 29.90 	10	cloudy	
Mon Feb 1 20:43:37 2010	Portland, OR (97201) 	42 5 	40 4 	92	WNW	3	40	1012.6 29.91 	10	cloudy	light rain 
Mon Feb 1 21:28:32 2010	Portland, OR (97201) 	43 6 	39 3 	86	NE	4	40	1012.3 29.90 	9	cloudy	light rain 
Mon Feb 1 22:11:56 2010	Portland, OR (97201) 	43 6 	41 5 	93	ESE	6	39	1011.9 29.89 	10	cloudy	light rain 
Mon Feb 1 22:55:15 2010	Portland, OR (97201) 	43 6 	41 5 	93	ESE	6	39	1011.9 29.89 	10	cloudy	light rain 
Mon Feb 1 23:41:23 2010	Portland, OR (97201) 	45 7 	42 5 	89	ESE	7	41	1011.2 29.87 	10	cloudy	
Sat Jan 30 00:28:05 2010	Portland, OR (97201) 	49 9 	39 3 	68	ESE	11	44	1014.3 29.96 	10	cloudy	
Sat Jan 30 01:12:15 2010	Portland, OR (97201) 	49 9 	38 3 	66	ESE	8	45	1014.5 29.97 	10	cloudy	
Sat Jan 30 01:55:47 2010	Portland, OR (97201) 	49 9 	38 3 	66	ESE	8	45	1014.5 29.97 	10	cloudy	
Sat Jan 30 02:40:27 2010	Portland, OR (97201) 	48 8 	38 3 	68	ESE	9	43	1014.9 29.98 	10	cloudy	
Sat Jan 30 03:24:00 2010	Portland, OR (97201) 	46 7 	40 4 	79	ESE	8	41	1015.2 29.99 	10	cloudy	light rain 
Sat Jan 30 04:07:54 2010	Portland, OR (97201) 	46 7 	40 4 	79	ESE	7	42	1015.2 29.99 	10	cloudy	
Sat Jan 30 04:51:41 2010	Portland, OR (97201) 	46 7 	40 4 	79	ESE	7	42	1015.2 29.99 	10	cloudy	
Sat Jan 30 05:35:22 2010	Portland, OR (97201) 	46 7 	40 4 	79	E	5	43	1015.0 29.98 	10	cloudy	
Sat Jan 30 06:19:30 2010	Portland, OR (97201) 	45 7 	40 4 	82	calm		45	1015.1 29.98 	10	cloudy	light rain 
Sat Jan 30 07:05:30 2010	Portland, OR (97201) 	45 7 	40 4 	82	calm		45	1015.2 29.99 	10	cloudy	light rain 
Sat Jan 30 07:48:12 2010	Portland, OR (97201) 	45 7 	40 4 	82	calm		45	1015.2 29.99 	10	cloudy	light rain 
Sat Jan 30 08:31:25 2010	Portland, OR (97201) 	44 6 	40 4 	85	calm		44	1015.2 29.99 	10	cloudy	light rain 
Sat Jan 30 11:13:11 2010	Portland, OR (97201) 	43 6 	40 4 	89	ESE	6	39	1015.2 29.99 	10	cloudy	light rain 
Sat Jan 30 12:00:59 2010	Portland, OR (97201) 	42 5 	40 4 	92	ESE	6	38	1015.0 29.98 	10	cloudy	light rain 
Sat Jan 30 12:44:37 2010	Portland, OR (97201) 	42 5 	40 4 	92	ESE	6	38	1015.0 29.98 	10	cloudy	light rain 
Sat Jan 30 13:27:53 2010	Portland, OR (97201) 	42 5 	40 4 	92	SE	5	38	1015.0 29.98 	10	cloudy	light rain 
Sat Jan 30 14:12:04 2010	Portland, OR (97201) 	42 5 	39 3 	89	SE	6	38	1015.2 29.99 	10	cloudy	light rain 
Sat Jan 30 14:56:07 2010	Portland, OR (97201) 	42 5 	39 3 	89	SE	6	38	1015.2 29.99 	10	cloudy	light rain 
Sat Jan 30 15:41:57 2010	Portland, OR (97201) 	42 5 	39 3 	89	E	5	38	1014.8 29.98 	10	cloudy	
Sat Jan 30 16:26:57 2010	Portland, OR (97201) 	42 5 	38 3 	85	ESE	5	38	1015.2 29.99 	10	cloudy	
Sat Jan 30 17:11:22 2010	Portland, OR (97201) 	42 5 	38 3 	85	ESE	5	38	1015.4 29.99 	10	cloudy	
Sat Jan 30 17:54:35 2010	Portland, OR (97201) 	42 5 	38 3 	85	ESE	5	38	1015.4 29.99 	10	cloudy	
Sat Jan 30 18:38:34 2010	Portland, OR (97201) 	42 5 	38 3 	85	ESE	7	37	1015.8 30.01 	10	cloudy	light rain 
Sat Jan 30 19:21:52 2010	Portland, OR (97201) 	42 5 	39 3 	89	ESE	6	38	1016.1 30.01 	10	cloudy	light rain 
Sat Jan 30 20:06:07 2010	Portland, OR (97201) 	43 6 	40 4 	89	ESE	4	40	1016.4 30.02 	10	cloudy	light rain 
Sat Jan 30 20:49:14 2010	Portland, OR (97201) 	43 6 	40 4 	89	ESE	4	40	1016.4 30.02 	10	cloudy	light rain 
Sat Jan 30 21:33:00 2010	Portland, OR (97201) 	44 6 	40 4 	85	ESE	4	42	1016.2 30.02 	10	cloudy	
Sat Jan 30 22:16:14 2010	Portland, OR (97201) 	44 6 	40 4 	85	E	3	43	1016.0 30.01 	10	cloudy	light rain 
Sat Jan 30 23:01:53 2010	Portland, OR (97201) 	45 7 	41 5 	86	E	5	42	1015.7 30.00 	10	cloudy	
Sat Jan 30 23:46:33 2010	Portland, OR (97201) 	45 7 	41 5 	86	E	5	42	1015.7 30.00 	10	cloudy	
Sun Jan 31 00:30:30 2010	Portland, OR (97201) 	45 7 	40 4 	82	calm		45	1015.6 30.00 	10	cloudy	
Sun Jan 31 01:21:16 2010	Portland, OR (97201) 	46 7 	41 5 	83	calm		46	1015.7 30.00 	10	cloudy	
Sun Jan 31 02:05:15 2010	Portland, OR (97201) 	44 6 	41 5 	89	calm		44	1015.8 30.01 	10	cloudy	
Sun Jan 31 02:48:42 2010	Portland, OR (97201) 	44 6 	41 5 	89	calm		44	1015.8 30.01 	10	cloudy	
Sun Jan 31 03:32:34 2010	Portland, OR (97201) 	44 6 	41 5 	89	SE	3	43	1015.9 30.01 	10	cloudy	
Sun Jan 31 04:16:00 2010	Portland, OR (97201) 	44 6 	41 5 	89	calm		44	1016.0 30.01 	10	cloudy	light rain 
Sun Jan 31 05:00:36 2010	Portland, OR (97201) 	44 6 	41 5 	89	calm		44	1016.0 30.01 	10	cloudy	light rain 
Sun Jan 31 05:46:39 2010	Portland, OR (97201) 	44 6 	41 5 	89	calm		44	1016.0 30.01 	10	cloudy	light rain 
Sun Jan 31 06:31:51 2010	Portland, OR (97201) 	44 6 	41 5 	89	calm		44	1016.0 30.01 	10	cloudy	light rain 
Sun Jan 31 07:14:45 2010	Portland, OR (97201) 	43 6 	41 5 	93	calm		43	1016.3 30.02 	10	cloudy	
Sun Jan 31 08:01:28 2010	Portland, OR (97201) 	42 5 	41 5 	96	E	3	40	1016.3 30.02 	10	cloudy	
Sun Jan 31 08:46:09 2010	Portland, OR (97201) 	42 5 	41 5 	96	E	3	40	1016.3 30.02 	10	cloudy	
Sun Jan 31 09:29:23 2010	Portland, OR (97201) 	43 6 	42 5 	97	calm		43	1016.2 30.02 	10	cloudy	light rain 
Sun Jan 31 10:12:35 2010	Portland, OR (97201) 	43 6 	42 5 	97	E	3	41	1016.2 30.02 	10	cloudy	
Sun Jan 31 10:56:20 2010	Portland, OR (97201) 	43 6 	42 5 	97	E	3	41	1016.2 30.02 	10	cloudy	
Sun Jan 31 11:39:48 2010	Portland, OR (97201) 	43 6 	42 5 	97	E	3	41	1016.1 30.01 	10	cloudy	light rain 
Sun Jan 31 12:23:28 2010	Portland, OR (97201) 	43 6 	43 6 	100	calm		43	1016.2 30.02 	3	cloudy	haze 
Sun Jan 31 13:06:51 2010	Portland, OR (97201) 	43 6 	43 6 	100	calm		43	1016.0 30.01 	6	cloudy	haze 
Sun Jan 31 13:50:29 2010	Portland, OR (97201) 	43 6 	43 6 	100	calm		43	1016.0 30.01 	6	cloudy	haze 
Sun Jan 31 14:33:18 2010	Portland, OR (97201) 	43 6 	42 5 	97	calm		43	1016.2 30.02 	9	cloudy	
Sun Jan 31 15:17:24 2010	Portland, OR (97201) 	43 6 	43 6 	100	calm		43	1016.1 30.01 	1	cloudy	haze 
Sun Jan 31 16:00:54 2010	Portland, OR (97201) 	43 6 	43 6 	100	calm		43	1016.2 30.02 	2	cloudy	haze 
Sun Jan 31 16:50:41 2010	Portland, OR (97201) 	43 6 	43 6 	100	calm		43	1016.2 30.02 	2	cloudy	haze 
Sun Jan 31 17:34:20 2010	Portland, OR (97201) 	44 6 	43 6 	96	calm		44	1016.6 30.03 	2	cloudy	haze 
Sun Jan 31 18:19:20 2010	Portland, OR (97201) 	45 7 	44 6 	97	calm		45	1016.6 30.03 	3	cloudy	haze 
Sun Jan 31 19:03:07 2010	Portland, OR (97201) 	47 8 	45 7 	93	SE	3	46	1017.0 30.04 	5	mostly cloudy	haze 
Sun Jan 31 19:48:29 2010	Portland, OR (97201) 	47 8 	45 7 	93	SE	3	46	1017.0 30.04 	5	mostly cloudy	haze 
Sun Jan 31 20:31:27 2010	Portland, OR (97201) 	49 9 	45 7 	86	calm		49	1017.1 30.04 	10	cloudy	
Sun Jan 31 21:15:41 2010	Portland, OR (97201) 	49 9 	45 7 	86	ENE	4	47	1016.6 30.03 	10	mostly cloudy	
Sun Jan 31 21:58:54 2010	Portland, OR (97201) 	49 9 	45 7 	86	ENE	4	47	1016.6 30.03 	10	mostly cloudy	
Sun Jan 31 22:43:43 2010	Portland, OR (97201) 	51 10 	44 6 	77	S	3		1015.8 30.01 	10	cloudy	
Sun Jan 31 23:27:03 2010	Portland, OR (97201) 	51 10 	45 7 	80	E	5	49	1015.1 29.98 	10	mostly cloudy	
Thu Feb 4 00:12:23 2010	Portland, OR (97201) 	46 7 	42 5 	86	ESE	13	40	1005.8 29.71 	10	mostly cloudy	
Thu Feb 4 00:56:28 2010	Portland, OR (97201) 	46 7 	42 5 	86	ESE	13	40	1005.8 29.71 	10	mostly cloudy	
Thu Feb 4 01:39:44 2010	Portland, OR (97201) 	46 7 	42 5 	86	ESE	15	39	1006.1 29.72 	10	cloudy	
Thu Feb 4 02:27:28 2010	Portland, OR (97201) 	45 7 	41 5 	86	ESE	16	37	1006.2 29.72 	10	cloudy	light rain 
Thu Feb 4 03:10:38 2010	Portland, OR (97201) 	44 6 	40 4 	85	ESE	12	37	1006.5 29.73 	10	mostly cloudy	
Thu Feb 4 03:55:07 2010	Portland, OR (97201) 	44 6 	40 4 	85	ESE	12	37	1006.5 29.73 	10	mostly cloudy	
Thu Feb 4 04:38:23 2010	Portland, OR (97201) 	45 7 	41 5 	86	ESE	10	39	1007.0 29.75 	10	mostly cloudy	
Thu Feb 4 05:21:44 2010	Portland, OR (97201) 	45 7 	41 5 	86	ESE	10	39	1007.3 29.75 	10	cloudy	
Thu Feb 4 06:04:35 2010	Portland, OR (97201) 	45 7 	41 5 	86	ESE	15	38	1007.8 29.77 	10	cloudy	
Thu Feb 4 06:47:38 2010	Portland, OR (97201) 	45 7 	41 5 	86	ESE	15	38	1007.8 29.77 	10	cloudy	
Thu Feb 4 07:31:14 2010	Portland, OR (97201) 	45 7 	41 5 	86	ESE	10	39	1007.8 29.77 	10	cloudy	
Thu Feb 4 08:13:47 2010	Portland, OR (97201) 	45 7 	41 5 	86	ESE	11	39	1007.7 29.77 	10	cloudy	
Thu Feb 4 08:57:29 2010	Portland, OR (97201) 	45 7 	41 5 	86	ESE	11	39	1007.7 29.77 	10	cloudy	
Thu Feb 4 09:41:25 2010	Portland, OR (97201) 	44 6 	41 5 	89	ESE	12	37	1007.7 29.77 	10	cloudy	
Thu Feb 4 10:25:04 2010	Portland, OR (97201) 	43 6 	41 5 	93	ESE	12	36	1007.4 29.76 	10	cloudy	
Thu Feb 4 11:10:59 2010	Portland, OR (97201) 	43 6 	40 4 	89	ESE	11	36	1007.4 29.76 	10	cloudy	
Thu Feb 4 11:54:31 2010	Portland, OR (97201) 	43 6 	40 4 	89	ESE	11	36	1007.4 29.76 	10	cloudy	
Thu Feb 4 12:37:37 2010	Portland, OR (97201) 	43 6 	40 4 	89	ESE	11	36	1007.0 29.75 	10	cloudy	
Thu Feb 4 13:21:41 2010	Portland, OR (97201) 	44 6 	40 4 	85	ESE	9	39	1006.7 29.74 	10	cloudy	
Thu Feb 4 14:06:31 2010	Portland, OR (97201) 	44 6 	40 4 	85	ESE	9	39	1006.6 29.73 	10	cloudy	
Thu Feb 4 14:59:18 2010	Portland, OR (97201) 	44 6 	40 4 	85	ESE	9	39	1006.6 29.73 	10	cloudy	
Thu Jan 28 15:38:56 2010	Portland, OR (97201) 	46 7 	36 2 	68	ESE	10	41	1018.3 30.08 	10	cloudy	
Thu Jan 28 15:59:43 2010	Portland, OR (97201) 	46 7 	36 2 	68	ESE	10	41	1018.3 30.08 	10	cloudy	
Thu Jan 28 16:49:05 2010	Portland, OR (97201) 	46 7 	35 1 	65	E	13	40	1018.2 30.08 	10	cloudy	
Thu Jan 28 17:13:19 2010	Portland, OR (97201) 	46 7 	36 2 	68	ESE	8	41	1018.3 30.08 	10	cloudy	
Thu Jan 28 17:29:18 2010	Portland, OR (97201) 	46 7 	36 2 	68	ESE	8	41	1018.3 30.08 	10	cloudy	
Tue Feb 2 00:28:15 2010	Portland, OR (97201) 	44 6 	42 5 	93	ESE	8	39	1011.1 29.87 	10	cloudy	light rain 
Tue Feb 2 01:13:52 2010	Portland, OR (97201) 	44 6 	41 5 	89	ESE	10	38	1011.2 29.87 	10	cloudy	light rain 
Tue Feb 2 01:57:01 2010	Portland, OR (97201) 	44 6 	41 5 	89	ESE	10	38	1011.2 29.87 	10	cloudy	light rain 
Tue Feb 2 02:41:03 2010	Portland, OR (97201) 	43 6 	41 5 	93	ESE	10	37	1011.2 29.87 	10	cloudy	light rain 
Tue Feb 2 03:24:35 2010	Portland, OR (97201) 	43 6 	41 5 	93	ESE	9	37	1011.3 29.87 	9	cloudy	light rain 
Tue Feb 2 04:08:22 2010	Portland, OR (97201) 	43 6 	41 5 	93	ESE	8	38	1011.3 29.87 	10	cloudy	light rain 
Tue Feb 2 04:51:54 2010	Portland, OR (97201) 	43 6 	41 5 	93	ESE	8	38	1011.3 29.87 	10	cloudy	light rain 
Tue Feb 2 05:35:18 2010	Portland, OR (97201) 	43 6 	41 5 	93	ESE	9	37	1011.5 29.88 	10	cloudy	
Tue Feb 2 06:18:33 2010	Portland, OR (97201) 	43 6 	41 5 	93	ESE	9	37	1011.7 29.88 	10	cloudy	light rain 
Tue Feb 2 07:05:42 2010	Portland, OR (97201) 	43 6 	41 5 	93	ESE	9	37	1012.0 29.89 	10	cloudy	
Tue Feb 2 07:48:42 2010	Portland, OR (97201) 	43 6 	41 5 	93	ESE	9	37	1012.0 29.89 	10	cloudy	
Tue Feb 2 08:31:55 2010	Portland, OR (97201) 	42 5 	41 5 	96	ESE	9	36	1012.2 29.90 	10	cloudy	
Tue Feb 2 09:15:23 2010	Portland, OR (97201) 	42 5 	41 5 	96	calm		42	1012.2 29.90 	10	cloudy	
Tue Feb 2 09:58:56 2010	Portland, OR (97201) 	42 5 	41 5 	96	calm		42	1012.2 29.90 	10	cloudy	
Tue Feb 2 10:42:29 2010	Portland, OR (97201) 	42 5 	40 4 	92	ESE	6	38	1012.2 29.90 	10	mostly cloudy	
Tue Feb 2 11:26:35 2010	Portland, OR (97201) 	42 5 	40 4 	92	ESE	6	38	1012.4 29.90 	10	cloudy	
Tue Feb 2 12:10:36 2010	Portland, OR (97201) 	41 5 	39 3 	93	ESE	3	39	1012.6 29.91 	10	cloudy	
Tue Feb 2 12:54:31 2010	Portland, OR (97201) 	41 5 	39 3 	93	ESE	3	39	1012.6 29.91 	10	cloudy	
Tue Feb 2 13:37:49 2010	Portland, OR (97201) 	41 5 	39 3 	93	E	4	38	1012.4 29.90 	10	cloudy	
Tue Feb 2 14:21:31 2010	Portland, OR (97201) 	40 4 	38 3 	92	ESE	5	36	1012.2 29.90 	10	mostly cloudy	
Tue Feb 2 15:05:52 2010	Portland, OR (97201) 	40 4 	39 3 	97	calm		40	1012.1 29.90 	10	mostly cloudy	
Tue Feb 2 15:52:17 2010	Portland, OR (97201) 	40 4 	39 3 	97	calm		40	1012.1 29.90 	10	mostly cloudy	
Tue Feb 2 16:44:47 2010	Portland, OR (97201) 	40 4 	39 3 	97	calm		40	1011.9 29.89 	10	mostly cloudy	
Tue Feb 2 17:33:14 2010	Portland, OR (97201) 	40 4 	39 3 	97	calm		40	1011.9 29.89 	10	mostly cloudy	
Tue Feb 2 18:17:51 2010	Portland, OR (97201) 	41 5 	40 4 	96	NW	3	39	1012.0 29.89 	6	mostly cloudy	haze 
Tue Feb 2 19:02:01 2010	Portland, OR (97201) 	43 6 	40 4 	89	NW	4	40	1011.8 29.89 	10	partly cloudy	
Tue Feb 2 19:51:17 2010	Portland, OR (97201) 	43 6 	40 4 	89	NW	4	40	1011.8 29.89 	10	partly cloudy	
Tue Feb 2 20:42:34 2010	Portland, OR (97201) 	45 7 	40 4 	82	calm		45	1011.3 29.87 	10	partly cloudy	
Tue Feb 2 21:29:26 2010	Portland, OR (97201) 	46 7 	42 5 	86	W	4	44	1010.6 29.85 	10	mostly cloudy	
Tue Feb 2 22:17:48 2010	Portland, OR (97201) 	48 8 	43 6 	83	N	3	47	1009.5 29.82 	10	mostly cloudy	
Tue Feb 2 23:02:06 2010	Portland, OR (97201) 	50 10 	44 6 	80	N	3	49	1008.7 29.80 	10	mostly cloudy	
Tue Feb 2 23:47:06 2010	Portland, OR (97201) 	50 10 	44 6 	80	N	3	49	1008.7 29.80 	10	mostly cloudy	
Wed Feb 3 00:31:50 2010	Portland, OR (97201) 	53 11 	43 6 	68	calm			1008.2 29.78 	10	mostly cloudy	
Wed Feb 3 01:19:00 2010	Portland, OR (97201) 	51 10 	41 5 	68	calm			1008.0 29.77 	10	mostly cloudy	
Wed Feb 3 02:03:48 2010	Portland, OR (97201) 	48 8 	39 3 	71	ESE	11	43	1007.7 29.77 	10	mostly cloudy	
Wed Feb 3 02:52:31 2010	Portland, OR (97201) 	48 8 	39 3 	71	ESE	11	43	1007.7 29.77 	10	mostly cloudy	
Wed Feb 3 03:39:20 2010	Portland, OR (97201) 	48 8 	39 3 	71	SE	10	43	1007.7 29.77 	10	cloudy	
Wed Feb 3 04:27:30 2010	Portland, OR (97201) 	47 8 	39 3 	74	ESE	13	41	1008.3 29.78 	10	cloudy	light rain 
Wed Feb 3 05:14:17 2010	Portland, OR (97201) 	46 7 	39 3 	76	ESE	12	40	1008.1 29.78 	10	cloudy	
Wed Feb 3 06:02:06 2010	Portland, OR (97201) 	45 7 	40 4 	82	ESE	9	40	1007.9 29.77 	10	cloudy	light rain 
Wed Feb 3 06:48:51 2010	Portland, OR (97201) 	45 7 	40 4 	82	ESE	9	40	1007.9 29.77 	10	cloudy	light rain 
Wed Feb 3 07:33:28 2010	Portland, OR (97201) 	44 6 	41 5 	89	ESE	11	38	1007.6 29.76 	10	cloudy	light rain 
Wed Feb 3 08:16:38 2010	Portland, OR (97201) 	43 6 	40 4 	89	E	6	39	1007.1 29.75 	10	mostly cloudy	
Wed Feb 3 09:03:06 2010	Portland, OR (97201) 	43 6 	40 4 	89	calm		43	1007.0 29.75 	10	cloudy	
Wed Feb 3 09:46:25 2010	Portland, OR (97201) 	43 6 	40 4 	89	calm		43	1007.0 29.75 	10	cloudy	
Wed Feb 3 10:30:17 2010	Portland, OR (97201) 	43 6 	41 5 	93	NNW	4	40	1006.2 29.72 	10	cloudy	
Wed Feb 3 11:17:11 2010	Portland, OR (97201) 	43 6 	41 5 	93	calm		43	1006.1 29.72 	10	mostly cloudy	
Wed Feb 3 12:01:56 2010	Portland, OR (97201) 	42 5 	40 4 	92	calm		42	1006.0 29.72 	10	cloudy	
Wed Feb 3 12:45:08 2010	Portland, OR (97201) 	42 5 	40 4 	92	calm		42	1006.0 29.72 	10	cloudy	
Wed Feb 3 13:28:53 2010	Portland, OR (97201) 	45 7 	39 3 	79	SE	12	39	1006.4 29.73 	10	cloudy	
Wed Feb 3 14:14:59 2010	Portland, OR (97201) 	45 7 	39 3 	79	ESE	14	38	1006.8 29.74 	10	cloudy	
Wed Feb 3 15:00:57 2010	Portland, OR (97201) 	43 6 	41 5 	93	ESE	10	37	1006.9 29.74 	5	cloudy	moderate rain 
Wed Feb 3 15:45:47 2010	Portland, OR (97201) 	43 6 	41 5 	93	ESE	10	37	1006.9 29.74 	5	cloudy	moderate rain 
Wed Feb 3 16:31:39 2010	Portland, OR (97201) 	43 6 	41 5 	93	ESE	8	38	1007.2 29.75 	7	cloudy	light rain 
Wed Feb 3 17:18:51 2010	Portland, OR (97201) 	43 6 	40 4 	89	ESE	10	37	1007.0 29.75 	10	cloudy	
Wed Feb 3 18:07:09 2010	Portland, OR (97201) 	44 6 	41 5 	89	ESE	10	38	1007.0 29.75 	10	mostly cloudy	
Wed Feb 3 18:50:15 2010	Portland, OR (97201) 	44 6 	41 5 	89	ESE	10	38	1007.0 29.75 	10	mostly cloudy	
Wed Feb 3 19:34:31 2010	Portland, OR (97201) 	47 8 	41 5 	80	ESE	13	41	1007.0 29.75 	10	mostly cloudy	
Wed Feb 3 20:18:37 2010	Portland, OR (97201) 	46 7 	40 4 	79	ESE	13	40	1007.0 29.75 	10	mostly cloudy	
Wed Feb 3 21:02:54 2010	Portland, OR (97201) 	46 7 	40 4 	79	SE	9	41	1007.1 29.75 	10	cloudy	light rain 
Wed Feb 3 21:51:01 2010	Portland, OR (97201) 	46 7 	40 4 	79	SE	9	41	1007.1 29.75 	10	cloudy	light rain 
Wed Feb 3 22:36:33 2010	Portland, OR (97201) 	45 7 	41 5 	86	ESE	9	40	1006.7 29.74 	7	cloudy	moderate rain 
Wed Feb 3 23:27:28 2010	Portland, OR (97201) 	46 7 	42 5 	86	ESE	11	40	1006.3 29.72 	9	cloudy	light rain 
Sat Jan 30 05:35:23 2010	San Antonio, TX (78201)	37 2 	27 -2 	67	NNW	6	32	1019.4 30.11 	10	clear	
Fri Jan 29 08:41:33 2010	San Antonio, TX (78201) 	59 15 	55 12 	87	NNW	14		1010.7 29.85 	8	cloudy	light rain 
Fri Jan 29 09:25:28 2010	San Antonio, TX (78201) 	56 13 	53 11 	90	N	11		1011.0 29.86 	5	cloudy	light rain 
Fri Jan 29 11:57:30 2010	San Antonio, TX (78201) 	49 9 	46 7 	90	NNW	12	44	1011.5 29.88 	8	cloudy	
Fri Jan 29 12:42:12 2010	San Antonio, TX (78201) 	46 7 	43 6 	89	NNW	16	39	1012.5 29.91 	5	cloudy	light rain 
Fri Jan 29 13:29:55 2010	San Antonio, TX (78201) 	45 7 	42 5 	89	NNW	12	39	1014.1 29.96 	10	cloudy	light rain 
Fri Jan 29 14:17:47 2010	San Antonio, TX (78201) 	43 6 	41 5 	93	NNW	18	34	1015.0 29.98 	10	cloudy	light rain 
Fri Jan 29 15:02:34 2010	San Antonio, TX (78201) 	41 5 	39 3 	93	NNW	12	34	1016.5 30.03 	4	cloudy	moderate rain 
Fri Jan 29 15:48:06 2010	San Antonio, TX (78201) 	41 5 	39 3 	93	NNW	12	34	1016.5 30.03 	4	cloudy	moderate rain 
Fri Jan 29 16:35:50 2010	San Antonio, TX (78201) 	42 5 	38 3 	85	NNW	15	34	1016.5 30.03 	8	cloudy	light rain 
Fri Jan 29 17:20:18 2010	San Antonio, TX (78201) 	43 6 	38 3 	82	NNW	18	34	1016.8 30.03 	10	mostly cloudy	light rain 
Fri Jan 29 18:08:47 2010	San Antonio, TX (78201) 	44 6 	37 2 	76	NNW	21	35	1017.2 30.05 	10	partly cloudy	
Fri Jan 29 18:53:48 2010	San Antonio, TX (78201) 	44 6 	37 2 	76	NNW	21	35	1017.2 30.05 	10	partly cloudy	
Fri Jan 29 19:45:46 2010	San Antonio, TX (78201) 	47 8 	38 3 	71	NNW	16	40	1016.9 30.04 	10	partly cloudy	
Fri Jan 29 20:43:35 2010	San Antonio, TX (78201) 	48 8 	37 2 	65	NW	17	41	1016.0 30.01 	10	partly cloudy	
Fri Jan 29 21:28:13 2010	San Antonio, TX (78201) 	49 9 	37 2 	63	NW	13	43	1015.6 30.00 	10	partly cloudy	
Fri Jan 29 22:14:49 2010	San Antonio, TX (78201) 	48 8 	35 1 	61	WNW	16	41	1015.6 30.00 	10	partly cloudy	
Fri Jan 29 22:59:44 2010	San Antonio, TX (78201) 	48 8 	35 1 	61	WNW	16	41	1015.6 30.00 	10	partly cloudy	
Fri Jan 29 23:44:01 2010	San Antonio, TX (78201) 	47 8 	32 0 	56	NNW	15	40	1016.0 30.01 	10	mostly clear	
Mon Feb 1 00:11:00 2010	San Antonio, TX (78201) 	36 2 	31 0 	82		7	30	1021.3 30.17 	7	cloudy	
Mon Feb 1 00:53:58 2010	San Antonio, TX (78201) 	36 2 	31 0 	82		7	30	1021.3 30.17 	7	cloudy	
Mon Feb 1 01:40:17 2010	San Antonio, TX (78201) 	36 2 	30 -1 	79	NE	6	30	1021.3 30.17 	7	cloudy	
Mon Feb 1 02:24:13 2010	San Antonio, TX (78201) 	36 2 	31 0 	82	E	5	31	1021.5 30.17 	7	cloudy	
Mon Feb 1 03:07:55 2010	San Antonio, TX (78201) 	36 2 	31 0 	82		5	31	1022.1 30.19 	7	cloudy	
Mon Feb 1 03:52:34 2010	San Antonio, TX (78201) 	36 2 	31 0 	82		5	31	1022.1 30.19 	7	cloudy	
Mon Feb 1 04:37:22 2010	San Antonio, TX (78201) 	36 2 	31 0 	82	NE	5	31	1022.4 30.20 	7	cloudy	
Mon Feb 1 05:20:32 2010	San Antonio, TX (78201) 	36 2 	32 0 	85		5	31	1022.0 30.19 	5	cloudy	haze 
Mon Feb 1 06:05:24 2010	San Antonio, TX (78201) 	36 2 	32 0 	85	ENE	4	32	1022.0 30.19 	5	cloudy	haze 
Mon Feb 1 06:48:35 2010	San Antonio, TX (78201) 	36 2 	32 0 	85	ENE	4	32	1022.0 30.19 	5	cloudy	haze 
Mon Feb 1 07:32:23 2010	San Antonio, TX (78201) 	36 2 	33 0 	89	E	3	33	1021.7 30.18 	4	cloudy	haze 
Mon Feb 1 08:15:30 2010	San Antonio, TX (78201) 	36 2 	33 0 	89	E	5	31	1020.9 30.16 	4	cloudy	haze 
Mon Feb 1 08:59:16 2010	San Antonio, TX (78201) 	36 2 	33 0 	89	E	5	31	1020.9 30.16 	4	cloudy	haze 
Mon Feb 1 09:42:14 2010	San Antonio, TX (78201) 	36 2 	33 0 	89	NE	5	31	1020.4 30.14 	4	cloudy	haze 
Mon Feb 1 10:25:47 2010	San Antonio, TX (78201) 	36 2 	33 0 	89	N	4	32	1020.0 30.13 	4	cloudy	haze 
Mon Feb 1 11:08:45 2010	San Antonio, TX (78201) 	36 2 	33 0 	89	NE	4	32	1019.6 30.12 	6	cloudy	haze 
Mon Feb 1 11:52:11 2010	San Antonio, TX (78201) 	36 2 	33 0 	89	NE	4	32	1019.6 30.12 	6	cloudy	haze 
Mon Feb 1 12:35:32 2010	San Antonio, TX (78201) 	37 2 	34 1 	89	NE	3	34	1019.6 30.12 	3	cloudy	haze 
Mon Feb 1 13:19:06 2010	San Antonio, TX (78201) 	36 2 	35 1 	96	NE	5	31	1019.1 30.10 	2	cloudy	light drizzle 
Mon Feb 1 14:02:58 2010	San Antonio, TX (78201) 	37 2 	36 2 	96	NNE	4	33	1019.2 30.11 	2	cloudy	light drizzle 
Mon Feb 1 14:48:04 2010	San Antonio, TX (78201) 	37 2 	36 2 	96	NNE	4	33	1019.2 30.11 	2	cloudy	light drizzle 
Mon Feb 1 15:31:48 2010	San Antonio, TX (78201) 	37 2 	36 2 	96	NNE	3	34	1019.5 30.11 	1	cloudy	light drizzle 
Mon Feb 1 16:16:16 2010	San Antonio, TX (78201) 	38 3 	37 2 	97	NE	4	34	1019.9 30.13 	1	cloudy	light drizzle 
Mon Feb 1 17:01:13 2010	San Antonio, TX (78201) 	39 3 	37 2 	92	E	4	36	1020.3 30.14 	1	cloudy	light drizzle 
Mon Feb 1 17:45:06 2010	San Antonio, TX (78201) 	38 3 	37 2 	97	NE	4	34	1019.9 30.13 	1	cloudy	light drizzle 
Mon Feb 1 18:28:35 2010	San Antonio, TX (78201) 	40 4 	39 3 	97	calm		40	1019.8 30.12 	1	cloudy	light drizzle 
Mon Feb 1 19:12:21 2010	San Antonio, TX (78201) 	42 5 	40 4 	92	calm		42	1019.4 30.11 	2	cloudy	light drizzle 
Mon Feb 1 19:57:12 2010	San Antonio, TX (78201) 	42 5 	40 4 	92	calm		42	1019.4 30.11 	2	cloudy	light drizzle 
Mon Feb 1 20:43:37 2010	San Antonio, TX (78201) 	43 6 	42 5 	97	calm		43	1018.0 30.07 	2	cloudy	light drizzle 
Mon Feb 1 21:28:33 2010	San Antonio, TX (78201) 	44 6 	43 6 	96	calm		44	1017.1 30.04 	1	cloudy	light drizzle 
Mon Feb 1 22:11:57 2010	San Antonio, TX (78201) 	45 7 	43 6 	93	calm		45	1016.7 30.03 	2	cloudy	light drizzle 
Mon Feb 1 22:55:16 2010	San Antonio, TX (78201) 	45 7 	43 6 	93	calm		45	1016.7 30.03 	2	cloudy	light drizzle 
Mon Feb 1 23:41:24 2010	San Antonio, TX (78201) 	45 7 	43 6 	93	ENE	3	44	1016.7 30.03 	2	cloudy	light drizzle 
Sat Jan 30 00:28:05 2010	San Antonio, TX (78201) 	46 7 	31 0 	55	NNW	13	40	1016.6 30.03 	10	partly cloudy	
Sat Jan 30 01:12:15 2010	San Antonio, TX (78201) 	44 6 	28 -2 	53	NW	15	37	1017.3 30.05 	10	partly cloudy	
Sat Jan 30 01:55:47 2010	San Antonio, TX (78201) 	44 6 	28 -2 	53	NW	15	37	1017.3 30.05 	10	partly cloudy	
Sat Jan 30 02:40:28 2010	San Antonio, TX (78201) 	41 5 	29 -1 	62	NNW	13	33	1017.8 30.06 	10	mostly clear	
Sat Jan 30 03:24:01 2010	San Antonio, TX (78201) 	40 4 	28 -2 	62	NNW	10	33	1018.7 30.09 	10	mostly clear	
Sat Jan 30 04:07:55 2010	San Antonio, TX (78201) 	38 3 	27 -2 	64	NNW	8	31	1018.7 30.09 	10	mostly clear	
Sat Jan 30 04:51:41 2010	San Antonio, TX (78201) 	38 3 	27 -2 	64	NNW	8	31	1018.7 30.09 	10	mostly clear	
Sat Jan 30 06:19:31 2010	San Antonio, TX (78201) 	35 1 	26 -3 	69	NNW	5	30	1019.9 30.13 	10	clear	
Sat Jan 30 07:05:31 2010	San Antonio, TX (78201) 	34 1 	26 -3 	72	NNW	6	28	1020.2 30.14 	10	clear	
Sat Jan 30 07:48:13 2010	San Antonio, TX (78201) 	34 1 	26 -3 	72	NNW	6	28	1020.2 30.14 	10	clear	
Sat Jan 30 08:31:26 2010	San Antonio, TX (78201) 	34 1 	24 -4 	67	N	10	26	1019.5 30.11 	10	clear	
Sat Jan 30 11:13:12 2010	San Antonio, TX (78201) 	32 0 	24 -4 	72	WNW	4	27	1020.6 30.15 	10	clear	
Sat Jan 30 12:01:00 2010	San Antonio, TX (78201) 	31 0 	24 -4 	76	NW	5	25	1020.8 30.15 	10	clear	
Sat Jan 30 12:44:38 2010	San Antonio, TX (78201) 	31 0 	24 -4 	76	NW	5	25	1020.8 30.15 	10	clear	
Sat Jan 30 13:27:54 2010	San Antonio, TX (78201) 	31 0 	24 -4 	76	NNW	6	24	1021.1 30.16 	10	mostly clear	
Sat Jan 30 14:12:05 2010	San Antonio, TX (78201) 	31 0 	24 -4 	76	NNW	3	27	1021.5 30.17 	10	mostly clear	
Sat Jan 30 14:56:08 2010	San Antonio, TX (78201) 	31 0 	24 -4 	76	NNW	3	27	1021.5 30.17 	10	mostly clear	
Sat Jan 30 15:41:58 2010	San Antonio, TX (78201) 	31 0 	25 -3 	78	NNW	3	27	1022.2 30.19 	10	clear	
Sat Jan 30 16:26:58 2010	San Antonio, TX (78201) 	34 1 	24 -4 	67	N	8	27	1022.7 30.21 	10	mostly clear	
Sat Jan 30 17:11:23 2010	San Antonio, TX (78201) 	37 2 	25 -3 	61	N	10	29	1023.5 30.23 	10	mostly clear	
Sat Jan 30 17:54:36 2010	San Antonio, TX (78201) 	37 2 	25 -3 	61	N	10	29	1023.5 30.23 	10	mostly clear	
Sat Jan 30 18:38:35 2010	San Antonio, TX (78201) 	40 4 	26 -3 	57	NNW	7	34	1023.6 30.24 	10	mostly clear	
Sat Jan 30 19:21:53 2010	San Antonio, TX (78201) 	44 6 	28 -2 	53	NNW	5	41	1022.9 30.22 	10	mostly clear	
Sat Jan 30 20:06:08 2010	San Antonio, TX (78201) 	48 8 	30 -1 	49	NNW	10	43	1021.6 30.18 	10	mostly clear	
Sat Jan 30 20:49:14 2010	San Antonio, TX (78201) 	48 8 	30 -1 	49	NNW	10	43	1021.6 30.18 	10	mostly clear	
Sat Jan 30 21:33:01 2010	San Antonio, TX (78201) 	50 10 	31 0 	48	N	8	46	1020.5 30.14 	10	mostly clear	
Sat Jan 30 22:16:15 2010	San Antonio, TX (78201) 	52 11 	33 0 	48	N	11	48	1020.0 30.13 	10	mostly clear	
Sat Jan 30 23:01:55 2010	San Antonio, TX (78201) 	52 11 	33 0 	48	N	6		1019.8 30.12 	10	mostly clear	
Sat Jan 30 23:46:34 2010	San Antonio, TX (78201) 	52 11 	33 0 	48	N	6		1019.8 30.12 	10	mostly clear	
Sun Jan 31 00:30:31 2010	San Antonio, TX (78201) 	52 11 	33 0 	48	N	9	48	1020.0 30.13 	10	mostly clear	
Sun Jan 31 01:21:16 2010	San Antonio, TX (78201) 	50 10 	33 0 	52	NNE	6	47	1020.3 30.14 	10	mostly clear	
Sun Jan 31 02:05:16 2010	San Antonio, TX (78201) 	46 7 	33 0 	60	NNE	6	42	1021.0 30.16 	10	mostly clear	
Sun Jan 31 02:48:43 2010	San Antonio, TX (78201) 	46 7 	33 0 	60	NNE	6	42	1021.0 30.16 	10	mostly clear	
Sun Jan 31 03:32:34 2010	San Antonio, TX (78201) 	43 6 	33 0 	68	NE	6	39	1021.9 30.19 	10	clear	
Sun Jan 31 04:16:01 2010	San Antonio, TX (78201) 	41 5 	32 0 	70	NNE	7	36	1022.2 30.19 	10	clear	
Sun Jan 31 05:00:37 2010	San Antonio, TX (78201) 	39 3 	32 0 	76	NE	5	35	1022.6 30.21 	10	clear	
Sun Jan 31 05:46:40 2010	San Antonio, TX (78201) 	39 3 	32 0 	76	NE	5	35	1022.6 30.21 	10	clear	
Sun Jan 31 06:31:52 2010	San Antonio, TX (78201) 	37 2 	31 0 	78	calm		37	1023.0 30.22 	10	clear	
Sun Jan 31 07:14:45 2010	San Antonio, TX (78201) 	35 1 	31 0 	84	ENE	5	30	1023.3 30.23 	10	clear	
Sun Jan 31 08:01:29 2010	San Antonio, TX (78201) 	34 1 	30 -1 	85		5	29	1023.2 30.22 	10	clear	
Sun Jan 31 08:46:10 2010	San Antonio, TX (78201) 	34 1 	30 -1 	85		5	29	1023.2 30.22 	10	clear	
Sun Jan 31 09:29:24 2010	San Antonio, TX (78201) 	32 0 	29 -1 	88		4	27	1023.1 30.22 	10	clear	
Sun Jan 31 10:12:36 2010	San Antonio, TX (78201) 	31 0 	29 -1 	92	NE	3	27	1022.9 30.22 	8	clear	
Sun Jan 31 10:56:21 2010	San Antonio, TX (78201) 	31 0 	29 -1 	92	NE	3	27	1022.9 30.22 	8	clear	
Sun Jan 31 11:39:49 2010	San Antonio, TX (78201) 	32 0 	29 -1 	88	NE	5	26	1022.9 30.22 	6	cloudy	haze 
Sun Jan 31 12:23:29 2010	San Antonio, TX (78201) 	32 0 	29 -1 	88	ENE	6	26	1023.3 30.23 	6	cloudy	haze 
Sun Jan 31 13:06:52 2010	San Antonio, TX (78201) 	32 0 	29 -1 	88		7	25	1023.6 30.24 	5	cloudy	haze 
Sun Jan 31 13:50:30 2010	San Antonio, TX (78201) 	32 0 	29 -1 	88		7	25	1023.6 30.24 	5	cloudy	haze 
Sun Jan 31 14:33:20 2010	San Antonio, TX (78201) 	31 0 	29 -1 	92	NE	5	25	1024.3 30.26 	6	cloudy	haze 
Sun Jan 31 15:17:25 2010	San Antonio, TX (78201) 	31 0 	29 -1 	92		8	23	1024.2 30.25 	4	cloudy	haze 
Sun Jan 31 16:00:55 2010	San Antonio, TX (78201) 	32 0 	29 -1 	88	NE	6	26	1024.6 30.27 	4	cloudy	haze 
Sun Jan 31 16:50:42 2010	San Antonio, TX (78201) 	32 0 	29 -1 	88	NE	6	26	1024.6 30.27 	4	cloudy	haze 
Sun Jan 31 17:34:21 2010	San Antonio, TX (78201) 	32 0 	30 -1 	92		7	25	1025.5 30.29 	4	cloudy	haze 
Sun Jan 31 18:19:21 2010	San Antonio, TX (78201) 	32 0 	30 -1 	92	ENE	6	26	1025.6 30.29 	4	cloudy	haze 
Sun Jan 31 19:03:08 2010	San Antonio, TX (78201) 	33 0 	30 -1 	88	ESE	7	26	1025.1 30.28 	4	cloudy	haze 
Sun Jan 31 19:48:30 2010	San Antonio, TX (78201) 	33 0 	30 -1 	88	ESE	7	26	1025.1 30.28 	4	cloudy	haze 
Sun Jan 31 20:31:28 2010	San Antonio, TX (78201) 	33 0 	30 -1 	88	E	3	30	1024.3 30.26 	5	cloudy	haze 
Sun Jan 31 21:15:42 2010	San Antonio, TX (78201) 	34 1 	30 -1 	85	E	3	31	1023.0 30.22 	5	cloudy	haze 
Sun Jan 31 21:58:55 2010	San Antonio, TX (78201) 	34 1 	30 -1 	85	E	3	31	1023.0 30.22 	5	cloudy	haze 
Sun Jan 31 22:43:44 2010	San Antonio, TX (78201) 	36 2 	31 0 	82	NE	4	32	1022.0 30.19 	6	cloudy	haze 
Sun Jan 31 23:27:04 2010	San Antonio, TX (78201) 	37 2 	31 0 	78	NE	6	32	1021.8 30.18 	7	cloudy	
Thu Feb 4 00:12:24 2010	San Antonio, TX (78201) 	50 10 	48 8 	93	ENE	7	47	1011.0 29.86 	6	cloudy	light rain 
Thu Feb 4 00:56:29 2010	San Antonio, TX (78201) 	50 10 	48 8 	93	ENE	7	47	1011.0 29.86 	6	cloudy	light rain 
Thu Feb 4 01:39:45 2010	San Antonio, TX (78201) 	50 10 	48 8 	93	E	14	44	1009.3 29.81 	6	cloudy	haze 
Thu Feb 4 02:27:29 2010	San Antonio, TX (78201) 	50 10 	49 9 	96	ENE	10	46	1010.8 29.86 	6	cloudy	haze 
Thu Feb 4 03:10:39 2010	San Antonio, TX (78201) 	50 10 	49 9 	96	ENE	10	46	1010.7 29.85 	2	cloudy	light rain 
Thu Feb 4 03:55:07 2010	San Antonio, TX (78201) 	50 10 	49 9 	96	ENE	10	46	1010.7 29.85 	2	cloudy	light rain 
Thu Feb 4 04:38:24 2010	San Antonio, TX (78201) 	50 10 	49 9 	96		7	47	1010.9 29.86 	2	cloudy	light rain 
Thu Feb 4 05:21:44 2010	San Antonio, TX (78201) 	50 10 	49 9 	96		6	47	1011.6 29.88 	2	cloudy	light rain 
Thu Feb 4 06:04:36 2010	San Antonio, TX (78201) 	50 10 	48 8 	93	NE	6	47	1011.2 29.87 	2	cloudy	light rain 
Thu Feb 4 06:47:40 2010	San Antonio, TX (78201) 	50 10 	48 8 	93	NE	6	47	1011.2 29.87 	2	cloudy	light rain 
Thu Feb 4 07:31:15 2010	San Antonio, TX (78201) 	49 9 	48 8 	97	NE	7	45	1010.8 29.86 	2	cloudy	light rain 
Thu Feb 4 08:13:48 2010	San Antonio, TX (78201) 	49 9 	48 8 	97	NE	7	45	1010.1 29.84 	2	cloudy	light rain 
Thu Feb 4 08:57:30 2010	San Antonio, TX (78201) 	49 9 	48 8 	97	NE	7	45	1010.1 29.84 	2	cloudy	light rain 
Thu Feb 4 09:41:25 2010	San Antonio, TX (78201) 	49 9 	48 8 	97	NE	7	45	1010.1 29.84 	2	cloudy	light rain 
Thu Feb 4 10:25:05 2010	San Antonio, TX (78201) 	49 9 	48 8 	97	NE	6	46	1009.8 29.83 	2	cloudy	haze 
Thu Feb 4 11:11:00 2010	San Antonio, TX (78201) 	49 9 	48 8 	97		5	47	1009.2 29.81 	4	cloudy	light rain 
Thu Feb 4 11:54:32 2010	San Antonio, TX (78201) 	49 9 	48 8 	97		5	47	1009.2 29.81 	4	cloudy	light rain 
Thu Feb 4 12:37:37 2010	San Antonio, TX (78201) 	50 10 	48 8 	93	NE	6	47	1009.6 29.82 	4	cloudy	light rain 
Thu Feb 4 13:21:42 2010	San Antonio, TX (78201) 	49 9 	48 8 	97	NE	5	47	1009.4 29.82 	2	cloudy	light rain 
Thu Feb 4 14:06:32 2010	San Antonio, TX (78201) 	49 9 	49 9 	100	NNE	6	46	1009.6 29.82 	2	cloudy	light drizzle 
Thu Feb 4 14:59:19 2010	San Antonio, TX (78201) 	49 9 	49 9 	100	NNE	6	46	1009.6 29.82 	2	cloudy	light drizzle 
Thu Jan 28 15:38:57 2010	San Antonio, TX (78201) 	63 17 	62 16 	97	ESE	17		1015.1 29.98 	5	cloudy	haze 
Thu Jan 28 15:59:44 2010	San Antonio, TX (78201) 	63 17 	62 16 	97	ESE	17		1015.1 29.98 	5	cloudy	haze 
Thu Jan 28 16:49:06 2010	San Antonio, TX (78201) 	63 17 	62 16 	97	SE	20		1015.1 29.98 	2	cloudy	light rain 
Thu Jan 28 17:13:21 2010	San Antonio, TX (78201) 	64 17 	63 17 	97	SE	16		1015.3 29.99 	2	cloudy	light rain 
Thu Jan 28 17:29:19 2010	San Antonio, TX (78201) 	64 17 	63 17 	97	SE	16		1015.3 29.99 	2	cloudy	light rain 
Tue Feb 2 00:28:16 2010	San Antonio, TX (78201) 	45 7 	44 6 	97	calm		45	1016.6 30.03 	1	cloudy	light drizzle 
Tue Feb 2 01:13:53 2010	San Antonio, TX (78201) 	46 7 	44 6 	93	E	4	44	1016.6 30.03 	1	cloudy	light drizzle 
Tue Feb 2 01:57:01 2010	San Antonio, TX (78201) 	46 7 	44 6 	93	E	4	44	1016.6 30.03 	1	cloudy	light drizzle 
Tue Feb 2 02:41:04 2010	San Antonio, TX (78201) 	45 7 	44 6 	97	E	3	44	1016.7 30.03 	1	cloudy	light drizzle 
Tue Feb 2 03:24:36 2010	San Antonio, TX (78201) 	45 7 	44 6 	97	E	3	44	1016.8 30.03 	1	cloudy	light drizzle 
Tue Feb 2 04:08:23 2010	San Antonio, TX (78201) 	45 7 	44 6 	97	calm		45	1016.9 30.04 	1	cloudy	light drizzle 
Tue Feb 2 04:51:55 2010	San Antonio, TX (78201) 	45 7 	44 6 	97	calm		45	1016.9 30.04 	1	cloudy	light drizzle 
Tue Feb 2 05:35:18 2010	San Antonio, TX (78201) 	45 7 	44 6 	97	N	3	44	1017.1 30.04 	1	cloudy	light drizzle 
Tue Feb 2 06:18:34 2010	San Antonio, TX (78201) 	46 7 	45 7 	96	calm		46	1017.0 30.04 	0	cloudy	light drizzle 
Tue Feb 2 07:05:42 2010	San Antonio, TX (78201) 	46 7 	45 7 	96	calm		46	1017.1 30.04 	0	cloudy	light drizzle 
Tue Feb 2 07:48:43 2010	San Antonio, TX (78201) 	46 7 	45 7 	96	calm		46	1017.1 30.04 	0	cloudy	light drizzle 
Tue Feb 2 08:31:55 2010	San Antonio, TX (78201) 	47 8 	45 7 	93	calm		47	1017.2 30.05 	0	cloudy	light drizzle 
Tue Feb 2 09:15:24 2010	San Antonio, TX (78201) 	47 8 	46 7 	97	N	3	46	1017.4 30.05 	0	cloudy	light drizzle 
Tue Feb 2 09:58:56 2010	San Antonio, TX (78201) 	47 8 	46 7 	97	N	3	46	1017.4 30.05 	0	cloudy	light drizzle 
Tue Feb 2 10:42:30 2010	San Antonio, TX (78201) 	47 8 	46 7 	97	N	4	45	1017.3 30.05 	0	cloudy	light drizzle 
Tue Feb 2 11:26:36 2010	San Antonio, TX (78201) 	47 8 	47 8 	100	NNE	3	46	1017.4 30.05 	0	cloudy	light drizzle 
Tue Feb 2 12:10:37 2010	San Antonio, TX (78201) 	48 8 	47 8 	96	calm		48	1017.7 30.06 	0	cloudy	light drizzle 
Tue Feb 2 12:54:32 2010	San Antonio, TX (78201) 	48 8 	47 8 	96	calm		48	1017.7 30.06 	0	cloudy	light drizzle 
Tue Feb 2 13:37:49 2010	San Antonio, TX (78201) 	48 8 	47 8 	96	NNE	4	46	1017.8 30.06 	0	cloudy	light drizzle 
Tue Feb 2 14:21:32 2010	San Antonio, TX (78201) 	48 8 	47 8 	96	NE	4	46	1018.5 30.09 	0	cloudy	light drizzle 
Tue Feb 2 15:05:53 2010	San Antonio, TX (78201) 	48 8 	47 8 	96	NE	7	44	1018.9 30.10 	0	cloudy	light drizzle 
Tue Feb 2 15:52:18 2010	San Antonio, TX (78201) 	48 8 	47 8 	96	NE	7	44	1018.9 30.10 	0	cloudy	light drizzle 
Tue Feb 2 16:44:48 2010	San Antonio, TX (78201) 	48 8 	47 8 	96	NE	7	44	1019.7 30.12 	0	cloudy	haze 
Tue Feb 2 17:33:15 2010	San Antonio, TX (78201) 	48 8 	47 8 	96	NNE	8	44	1020.6 30.15 	1	cloudy	light drizzle 
Tue Feb 2 18:17:51 2010	San Antonio, TX (78201) 	49 9 	48 8 	97	NE	6	46	1020.8 30.15 	1	cloudy	haze 
Tue Feb 2 19:02:02 2010	San Antonio, TX (78201) 	51 10 	49 9 	92	NE	8	48	1019.3 30.11 	2	cloudy	haze 
Tue Feb 2 19:51:21 2010	San Antonio, TX (78201) 	51 10 	49 9 	92	NE	8	48	1019.3 30.11 	2	cloudy	haze 
Tue Feb 2 20:42:35 2010	San Antonio, TX (78201) 	52 11 	49 9 	89	NE	9	48	1018.8 30.09 	5	cloudy	haze 
Tue Feb 2 21:29:27 2010	San Antonio, TX (78201) 	53 11 	49 9 	86	NNE	8		1018.0 30.07 	6	cloudy	haze 
Tue Feb 2 22:17:49 2010	San Antonio, TX (78201) 	53 11 	49 9 	86		8		1018.1 30.07 	6	cloudy	haze 
Tue Feb 2 23:02:07 2010	San Antonio, TX (78201) 	52 11 	49 9 	89		8	49	1018.4 30.08 	6	cloudy	haze 
Tue Feb 2 23:47:07 2010	San Antonio, TX (78201) 	52 11 	49 9 	89		8	49	1018.4 30.08 	6	cloudy	haze 
Wed Feb 3 00:31:51 2010	San Antonio, TX (78201) 	51 10 	49 9 	92	NE	8	48	1019.2 30.11 	5	cloudy	light drizzle 
Wed Feb 3 01:19:01 2010	San Antonio, TX (78201) 	51 10 	48 8 	89	NE	9	47	1019.2 30.11 	3	cloudy	light drizzle 
Wed Feb 3 02:03:49 2010	San Antonio, TX (78201) 	51 10 	48 8 	89		7	48	1019.1 30.10 	3	cloudy	light drizzle 
Wed Feb 3 02:52:32 2010	San Antonio, TX (78201) 	51 10 	48 8 	89		7	48	1019.1 30.10 	3	cloudy	light drizzle 
Wed Feb 3 03:39:21 2010	San Antonio, TX (78201) 	51 10 	48 8 	89		7	48	1019.2 30.11 	5	cloudy	haze 
Wed Feb 3 04:27:31 2010	San Antonio, TX (78201) 	51 10 	47 8 	85	NE	9	47	1019.2 30.11 	9	cloudy	
Wed Feb 3 05:14:18 2010	San Antonio, TX (78201) 	51 10 	47 8 	85	NE	8	48	1019.0 30.10 	8	cloudy	light rain 
Wed Feb 3 06:02:07 2010	San Antonio, TX (78201) 	50 10 	48 8 	93	NE	7	47	1018.7 30.09 	7	cloudy	light rain 
Wed Feb 3 06:48:52 2010	San Antonio, TX (78201) 	50 10 	48 8 	93	NE	7	47	1018.7 30.09 	7	cloudy	light rain 
Wed Feb 3 07:33:29 2010	San Antonio, TX (78201) 	50 10 	48 8 	93		11	45	1018.0 30.07 	4	cloudy	light rain 
Wed Feb 3 08:16:39 2010	San Antonio, TX (78201) 	50 10 	48 8 	93	E	8	46	1017.6 30.06 	3	cloudy	light rain 
Wed Feb 3 09:03:07 2010	San Antonio, TX (78201) 	50 10 	48 8 	93	ENE	9	46	1016.4 30.02 	3	cloudy	light rain 
Wed Feb 3 09:46:26 2010	San Antonio, TX (78201) 	50 10 	48 8 	93	ENE	9	46	1016.4 30.02 	3	cloudy	light rain 
Wed Feb 3 10:30:18 2010	San Antonio, TX (78201) 	50 10 	48 8 	93	E	8	46	1016.0 30.01 	4	cloudy	light rain 
Wed Feb 3 11:17:12 2010	San Antonio, TX (78201) 	49 9 	48 8 	97		7	45	1015.4 29.99 	4	cloudy	light rain 
Wed Feb 3 12:01:57 2010	San Antonio, TX (78201) 	49 9 	48 8 	97	E	8	45	1015.1 29.98 	4	cloudy	moderate rain 
Wed Feb 3 12:45:09 2010	San Antonio, TX (78201) 	49 9 	48 8 	97	E	8	45	1015.1 29.98 	4	cloudy	moderate rain 
Wed Feb 3 13:28:53 2010	San Antonio, TX (78201) 	50 10 	48 8 	93	ENE	13	45	1014.3 29.96 	2	cloudy	heavy rain 
Wed Feb 3 14:14:59 2010	San Antonio, TX (78201) 	50 10 	49 9 	96		9	46	1013.8 29.95 	5	cloudy	light rain 
Wed Feb 3 15:00:58 2010	San Antonio, TX (78201) 	50 10 	49 9 	96		7	47	1014.5 29.97 	2	cloudy	moderate rain 
Wed Feb 3 15:45:48 2010	San Antonio, TX (78201) 	50 10 	49 9 	96		7	47	1014.5 29.97 	2	cloudy	moderate rain 
Wed Feb 3 16:31:39 2010	San Antonio, TX (78201) 	50 10 	49 9 	96		9	46	1015.3 29.99 	2	cloudy	moderate rain 
Wed Feb 3 17:18:52 2010	San Antonio, TX (78201) 	50 10 	49 9 	96	ENE	11	45	1014.5 29.97 	4	cloudy	light rain 
Wed Feb 3 18:07:10 2010	San Antonio, TX (78201) 	50 10 	49 9 	96	E	14	44	1014.3 29.96 	3	cloudy	light rain 
Wed Feb 3 18:50:16 2010	San Antonio, TX (78201) 	50 10 	49 9 	96	E	14	44	1014.3 29.96 	3	cloudy	light rain 
Wed Feb 3 19:34:32 2010	San Antonio, TX (78201) 	50 10 	49 9 	96	E	14	44	1012.6 29.91 	2	cloudy	light rain 
Wed Feb 3 20:18:38 2010	San Antonio, TX (78201) 	49 9 	48 8 	97	E	15	43	1012.2 29.90 	2	cloudy	moderate rain 
Wed Feb 3 21:02:55 2010	San Antonio, TX (78201) 	49 9 	47 8 	93	ENE	14	43	1010.3 29.84 	3	cloudy	light rain 
Wed Feb 3 21:51:02 2010	San Antonio, TX (78201) 	49 9 	47 8 	93	ENE	14	43	1010.3 29.84 	3	cloudy	light rain 
Wed Feb 3 22:36:34 2010	San Antonio, TX (78201) 	49 9 	47 8 	93	E	14	43	1010.9 29.86 	2	cloudy	light rain 
Wed Feb 3 23:27:28 2010	San Antonio, TX (78201) 	49 9 	48 8 	97	E	9	45	1011.0 29.86 	2	cloudy	light rain 
Fri Jan 29 08:41:25 2010	San Diego, CA (92101) 	56 13 	50 10 	81	calm			1018.3 30.08 	5	partly cloudy	haze 
Fri Jan 29 09:25:20 2010	San Diego, CA (92101) 	53 11 	49 9 	86	NW	4		1018.5 30.09 	5	mostly cloudy	haze 
Fri Jan 29 11:57:22 2010	San Diego, CA (92101) 	54 12 	49 9 	83	calm			1017.9 30.07 	6	mostly cloudy	haze 
Fri Jan 29 12:42:04 2010	San Diego, CA (92101) 	54 12 	47 8 	77	calm			1017.6 30.06 	8	mostly cloudy	
Fri Jan 29 13:29:47 2010	San Diego, CA (92101) 	53 11 	46 7 	77	calm			1017.3 30.05 	9	mostly cloudy	
Fri Jan 29 14:17:40 2010	San Diego, CA (92101) 	52 11 	46 7 	80	calm			1017.5 30.06 	9	mostly cloudy	
Fri Jan 29 15:02:24 2010	San Diego, CA (92101) 	51 10 	45 7 	80	calm			1017.5 30.06 	9	mostly cloudy	
Fri Jan 29 15:47:58 2010	San Diego, CA (92101) 	51 10 	45 7 	80	calm			1017.5 30.06 	9	mostly cloudy	
Fri Jan 29 16:35:37 2010	San Diego, CA (92101) 	51 10 	44 6 	77	calm			1017.8 30.06 	10	mostly cloudy	
Fri Jan 29 17:20:07 2010	San Diego, CA (92101) 	53 11 	44 6 	71	E	3		1018.4 30.08 	9	mostly cloudy	
Fri Jan 29 18:08:39 2010	San Diego, CA (92101) 	56 13 	43 6 	62	E	4		1018.7 30.09 	10	mostly cloudy	
Fri Jan 29 18:53:39 2010	San Diego, CA (92101) 	56 13 	43 6 	62	E	4		1018.7 30.09 	10	mostly cloudy	
Fri Jan 29 19:45:38 2010	San Diego, CA (92101) 	60 15 	45 7 	57	S	6		1019.1 30.10 	7	mostly cloudy	
Fri Jan 29 20:43:27 2010	San Diego, CA (92101) 	61 16 	44 6 	54	S	5		1018.8 30.09 	9	mostly cloudy	
Fri Jan 29 21:28:05 2010	San Diego, CA (92101) 	61 16 	48 8 	62	S	5		1017.8 30.06 	9	mostly cloudy	
Fri Jan 29 22:14:41 2010	San Diego, CA (92101) 	62 16 	50 10 	64	WSW	8		1017.2 30.05 	9	mostly cloudy	
Fri Jan 29 22:59:36 2010	San Diego, CA (92101) 	62 16 	50 10 	64	WSW	8		1017.2 30.05 	9	mostly cloudy	
Fri Jan 29 23:43:54 2010	San Diego, CA (92101) 	61 16 	51 10 	70	SW	5		1016.8 30.03 	9	mostly cloudy	
Mon Feb 1 00:10:53 2010	San Diego, CA (92101) 	60 15 	49 9 	66	WNW	9		1013.8 29.95 	10	partly cloudy	
Mon Feb 1 00:53:50 2010	San Diego, CA (92101) 	60 15 	49 9 	66	WNW	9		1013.8 29.95 	10	partly cloudy	
Mon Feb 1 01:40:06 2010	San Diego, CA (92101) 	59 15 	50 10 	72	W	7		1014.0 29.95 	10	partly cloudy	
Mon Feb 1 02:24:05 2010	San Diego, CA (92101) 	58 14 	49 9 	72	WNW	6		1014.4 29.96 	10	mostly cloudy	
Mon Feb 1 03:07:47 2010	San Diego, CA (92101) 	57 13 	49 9 	74	NW	3		1014.8 29.98 	10	partly cloudy	
Mon Feb 1 03:52:26 2010	San Diego, CA (92101) 	57 13 	49 9 	74	NW	3		1014.8 29.98 	10	partly cloudy	
Mon Feb 1 04:37:13 2010	San Diego, CA (92101) 	57 13 	49 9 	74	calm			1015.0 29.98 	10	mostly clear	
Mon Feb 1 05:20:24 2010	San Diego, CA (92101) 	56 13 	49 9 	77	calm			1015.2 29.99 	10	mostly clear	
Mon Feb 1 06:05:16 2010	San Diego, CA (92101) 	55 12 	49 9 	80	calm			1015.4 29.99 	10	partly cloudy	
Mon Feb 1 06:48:26 2010	San Diego, CA (92101) 	55 12 	49 9 	80	calm			1015.4 29.99 	10	partly cloudy	
Mon Feb 1 07:32:16 2010	San Diego, CA (92101) 	55 12 	49 9 	80	calm			1015.4 29.99 	10	partly cloudy	
Mon Feb 1 08:15:23 2010	San Diego, CA (92101) 	54 12 	48 8 	80	calm			1015.1 29.98 	10	mostly clear	
Mon Feb 1 08:59:09 2010	San Diego, CA (92101) 	54 12 	48 8 	80	calm			1015.1 29.98 	10	mostly clear	
Mon Feb 1 09:42:08 2010	San Diego, CA (92101) 	53 11 	48 8 	83	calm			1015.1 29.98 	6	mostly clear	haze 
Mon Feb 1 10:25:41 2010	San Diego, CA (92101) 	54 12 	48 8 	80	calm			1014.8 29.98 	6	partly cloudy	haze 
Mon Feb 1 11:08:38 2010	San Diego, CA (92101) 	53 11 	48 8 	83	calm			1015.0 29.98 	6	mostly cloudy	haze 
Mon Feb 1 11:52:04 2010	San Diego, CA (92101) 	53 11 	48 8 	83	calm			1015.0 29.98 	6	mostly cloudy	haze 
Mon Feb 1 12:35:24 2010	San Diego, CA (92101) 	53 11 	48 8 	83	calm			1014.5 29.97 	5	mostly cloudy	haze 
Mon Feb 1 13:18:59 2010	San Diego, CA (92101) 	52 11 	47 8 	83	calm			1014.3 29.96 	5	mostly cloudy	haze 
Mon Feb 1 14:02:51 2010	San Diego, CA (92101) 	51 10 	47 8 	85	calm			1014.3 29.96 	5	mostly cloudy	haze 
Mon Feb 1 14:47:57 2010	San Diego, CA (92101) 	51 10 	47 8 	85	calm			1014.3 29.96 	5	mostly cloudy	haze 
Mon Feb 1 15:31:41 2010	San Diego, CA (92101) 	52 11 	47 8 	83	calm			1014.6 29.97 	5	mostly cloudy	haze 
Mon Feb 1 16:16:08 2010	San Diego, CA (92101) 	52 11 	48 8 	86	calm			1014.9 29.98 	4	mostly cloudy	haze 
Mon Feb 1 17:00:57 2010	San Diego, CA (92101) 	53 11 	48 8 	83	calm			1015.4 29.99 	4	mostly cloudy	haze 
Mon Feb 1 17:44:57 2010	San Diego, CA (92101) 	53 11 	48 8 	83	calm			1015.4 29.99 	4	mostly cloudy	haze 
Mon Feb 1 18:28:28 2010	San Diego, CA (92101) 	58 14 	50 10 	75	NNE	3		1015.5 30.00 	6	mostly cloudy	haze 
Mon Feb 1 19:12:14 2010	San Diego, CA (92101) 	58 14 	49 9 	72	N	4		1015.7 30.00 	7	mostly cloudy	
Mon Feb 1 19:57:04 2010	San Diego, CA (92101) 	58 14 	49 9 	72	N	4		1015.7 30.00 	7	mostly cloudy	
Mon Feb 1 20:43:30 2010	San Diego, CA (92101) 	60 15 	49 9 	66	NE	3		1014.9 29.98 	10	mostly cloudy	
Mon Feb 1 21:28:25 2010	San Diego, CA (92101) 	61 16 	49 9 	64	N	4		1014.1 29.96 	8	mostly cloudy	
Mon Feb 1 22:11:50 2010	San Diego, CA (92101) 	62 16 	50 10 	64	WNW	5		1013.2 29.93 	9	mostly cloudy	
Mon Feb 1 22:55:08 2010	San Diego, CA (92101) 	62 16 	50 10 	64	WNW	5		1013.2 29.93 	9	mostly cloudy	
Mon Feb 1 23:41:17 2010	San Diego, CA (92101) 	61 16 	50 10 	67	calm			1012.4 29.90 	9	mostly cloudy	
Sat Jan 30 00:27:58 2010	San Diego, CA (92101) 	62 16 	52 11 	69	WNW	5		1016.8 30.03 	9	mostly cloudy	
Sat Jan 30 01:12:08 2010	San Diego, CA (92101) 	61 16 	51 10 	70	WNW	5		1016.8 30.03 	10	cloudy	
Sat Jan 30 01:55:40 2010	San Diego, CA (92101) 	61 16 	51 10 	70	WNW	5		1016.8 30.03 	10	cloudy	
Sat Jan 30 02:40:19 2010	San Diego, CA (92101) 	60 15 	51 10 	72	WNW	3		1017.0 30.04 	10	cloudy	
Sat Jan 30 03:23:53 2010	San Diego, CA (92101) 	59 15 	52 11 	78	W	3		1017.2 30.05 	10	cloudy	
Sat Jan 30 04:07:48 2010	San Diego, CA (92101) 	59 15 	52 11 	78	WNW	3		1017.2 30.05 	6	cloudy	haze 
Sat Jan 30 04:51:34 2010	San Diego, CA (92101) 	59 15 	52 11 	78	WNW	3		1017.2 30.05 	6	cloudy	haze 
Sat Jan 30 05:35:15 2010	San Diego, CA (92101) 	58 14 	52 11 	81	calm			1017.3 30.05 	10	cloudy	
Sat Jan 30 06:19:21 2010	San Diego, CA (92101) 	57 13 	50 10 	77	calm			1017.3 30.05 	10	partly cloudy	
Sat Jan 30 07:05:24 2010	San Diego, CA (92101) 	56 13 	49 9 	77	calm			1017.5 30.06 	8	mostly clear	
Sat Jan 30 07:48:06 2010	San Diego, CA (92101) 	56 13 	49 9 	77	calm			1017.5 30.06 	8	mostly clear	
Sat Jan 30 08:31:19 2010	San Diego, CA (92101) 	55 12 	49 9 	80	calm			1017.5 30.06 	6	clear	haze
Sat Jan 30 11:13:05 2010	San Diego, CA (92101) 	51 10 	47 8 	85	calm			1016.4 30.02 	4	clear	haze
Sat Jan 30 12:00:52 2010	San Diego, CA (92101) 	51 10 	47 8 	85	calm			1016.1 30.01 	4	clear	haze
Sat Jan 30 12:44:31 2010	San Diego, CA (92101) 	51 10 	47 8 	85	calm			1016.1 30.01 	4	clear	haze
Sat Jan 30 13:27:46 2010	San Diego, CA (92101) 	50 10 	46 7 	86	calm			1015.7 30.00 	3	mostly clear	haze 
Sat Jan 30 14:11:58 2010	San Diego, CA (92101) 	49 9 	46 7 	90	calm		49	1015.5 30.00 	4	partly cloudy	haze 
Sat Jan 30 14:56:00 2010	San Diego, CA (92101) 	49 9 	46 7 	90	calm		49	1015.5 30.00 	4	partly cloudy	haze 
Sat Jan 30 15:41:50 2010	San Diego, CA (92101) 	50 10 	47 8 	89	calm			1015.8 30.01 	4	mostly cloudy	haze 
Sat Jan 30 16:26:50 2010	San Diego, CA (92101) 	51 10 	47 8 	85	N	3		1016.1 30.01 	4	mostly cloudy	haze 
Sat Jan 30 17:11:15 2010	San Diego, CA (92101) 	52 11 	48 8 	86	calm			1016.6 30.03 	4	partly cloudy	haze 
Sat Jan 30 17:54:28 2010	San Diego, CA (92101) 	52 11 	48 8 	86	calm			1016.6 30.03 	4	partly cloudy	haze 
Sat Jan 30 18:38:27 2010	San Diego, CA (92101) 	56 13 	49 9 	77	NNE	5		1016.7 30.03 	5	partly cloudy	haze 
Sat Jan 30 19:21:46 2010	San Diego, CA (92101) 	60 15 	48 8 	64	calm			1016.6 30.03 	9	partly cloudy	
Sat Jan 30 20:05:59 2010	San Diego, CA (92101) 	61 16 	48 8 	62	calm			1016.1 30.01 	9	partly cloudy	
Sat Jan 30 20:49:05 2010	San Diego, CA (92101) 	61 16 	48 8 	62	calm			1016.1 30.01 	9	partly cloudy	
Sat Jan 30 21:32:53 2010	San Diego, CA (92101) 	61 16 	50 10 	67	WNW	11		1015.2 29.99 	10	partly cloudy	
Sat Jan 30 22:16:08 2010	San Diego, CA (92101) 	60 15 	51 10 	72	WNW	13		1014.5 29.97 	10	partly cloudy	
Sat Jan 30 23:01:40 2010	San Diego, CA (92101) 	60 15 	50 10 	69	WNW	10		1014.3 29.96 	10	partly cloudy	
Sat Jan 30 23:46:26 2010	San Diego, CA (92101) 	60 15 	50 10 	69	WNW	10		1014.3 29.96 	10	partly cloudy	
Sun Jan 31 00:30:21 2010	San Diego, CA (92101) 	60 15 	50 10 	69	NW	10		1014.2 29.96 	10	partly cloudy	
Sun Jan 31 01:21:09 2010	San Diego, CA (92101) 	60 15 	50 10 	69	NW	10		1014.3 29.96 	10	partly cloudy	
Sun Jan 31 02:05:08 2010	San Diego, CA (92101) 	58 14 	49 9 	72	NW	8		1014.6 29.97 	10	partly cloudy	
Sun Jan 31 02:48:35 2010	San Diego, CA (92101) 	58 14 	49 9 	72	NW	8		1014.6 29.97 	10	partly cloudy	
Sun Jan 31 03:32:27 2010	San Diego, CA (92101) 	58 14 	49 9 	72	N	4		1014.5 29.97 	10	partly cloudy	
Sun Jan 31 04:15:54 2010	San Diego, CA (92101) 	57 13 	49 9 	74	calm			1014.6 29.97 	10	partly cloudy	
Sun Jan 31 05:00:26 2010	San Diego, CA (92101) 	56 13 	49 9 	77	calm			1014.6 29.97 	9	partly cloudy	
Sun Jan 31 05:46:31 2010	San Diego, CA (92101) 	56 13 	49 9 	77	calm			1014.6 29.97 	9	partly cloudy	
Sun Jan 31 06:31:44 2010	San Diego, CA (92101) 	55 12 	49 9 	80	calm			1014.5 29.97 	9	partly cloudy	
Sun Jan 31 07:14:38 2010	San Diego, CA (92101) 	54 12 	48 8 	80	calm			1014.6 29.97 	7	partly cloudy	
Sun Jan 31 08:01:21 2010	San Diego, CA (92101) 	53 11 	48 8 	83	calm			1014.8 29.98 	6	partly cloudy	haze 
Sun Jan 31 08:46:03 2010	San Diego, CA (92101) 	53 11 	48 8 	83	calm			1014.8 29.98 	6	partly cloudy	haze 
Sun Jan 31 09:29:17 2010	San Diego, CA (92101) 	53 11 	48 8 	83	calm			1014.9 29.98 	7	partly cloudy	
Sun Jan 31 10:12:29 2010	San Diego, CA (92101) 	52 11 	47 8 	83	calm			1014.9 29.98 	6	mostly cloudy	haze 
Sun Jan 31 10:56:14 2010	San Diego, CA (92101) 	52 11 	47 8 	83	calm			1014.9 29.98 	6	mostly cloudy	haze 
Sun Jan 31 11:39:41 2010	San Diego, CA (92101) 	52 11 	47 8 	83	calm			1014.5 29.97 	7	mostly cloudy	
Sun Jan 31 12:23:22 2010	San Diego, CA (92101) 	53 11 	48 8 	83	calm			1014.1 29.96 	6	cloudy	haze 
Sun Jan 31 13:06:45 2010	San Diego, CA (92101) 	53 11 	47 8 	79	calm			1014.1 29.96 	6	cloudy	haze 
Sun Jan 31 13:50:20 2010	San Diego, CA (92101) 	53 11 	47 8 	79	calm			1014.1 29.96 	6	cloudy	haze 
Sun Jan 31 14:33:11 2010	San Diego, CA (92101) 	52 11 	47 8 	83	calm			1013.8 29.95 	6	mostly cloudy	haze 
Sun Jan 31 15:17:18 2010	San Diego, CA (92101) 	51 10 	46 7 	83	calm			1014.2 29.96 	5	mostly clear	haze 
Sun Jan 31 16:00:43 2010	San Diego, CA (92101) 	50 10 	46 7 	86	calm			1014.9 29.98 	4	partly cloudy	haze 
Sun Jan 31 16:50:31 2010	San Diego, CA (92101) 	50 10 	46 7 	86	calm			1014.9 29.98 	4	partly cloudy	haze 
Sun Jan 31 17:34:14 2010	San Diego, CA (92101) 	51 10 	47 8 	85	calm			1015.1 29.98 	4	partly cloudy	haze 
Sun Jan 31 18:19:14 2010	San Diego, CA (92101) 	53 11 	47 8 	79	calm			1015.2 29.99 	4	partly cloudy	haze 
Sun Jan 31 19:02:59 2010	San Diego, CA (92101) 	57 13 	48 8 	72	NW	6		1015.5 30.00 	6	partly cloudy	haze 
Sun Jan 31 19:48:23 2010	San Diego, CA (92101) 	57 13 	48 8 	72	NW	6		1015.5 30.00 	6	partly cloudy	haze 
Sun Jan 31 20:31:21 2010	San Diego, CA (92101) 	59 15 	48 8 	67	WNW	7		1015.5 30.00 	9	partly cloudy	
Sun Jan 31 21:15:34 2010	San Diego, CA (92101) 	60 15 	48 8 	64	WNW	9		1014.6 29.97 	10	partly cloudy	
Sun Jan 31 21:58:48 2010	San Diego, CA (92101) 	60 15 	48 8 	64	WNW	9		1014.6 29.97 	10	partly cloudy	
Sun Jan 31 22:43:36 2010	San Diego, CA (92101) 	60 15 	48 8 	64	WNW	11		1013.9 29.95 	10	partly cloudy	
Sun Jan 31 23:26:56 2010	San Diego, CA (92101) 	61 16 	48 8 	62	W	9		1013.4 29.93 	9	partly cloudy	
Thu Feb 4 00:12:16 2010	San Diego, CA (92101) 	61 16 	51 10 	70	SSW	8		1008.0 29.77 	10	mostly clear	
Thu Feb 4 00:56:21 2010	San Diego, CA (92101) 	61 16 	51 10 	70	SSW	8		1008.0 29.77 	10	mostly clear	
Thu Feb 4 01:39:36 2010	San Diego, CA (92101) 	60 15 	51 10 	72	SW	8		1008.3 29.78 	10	mostly clear	
Thu Feb 4 02:27:21 2010	San Diego, CA (92101) 	60 15 	51 10 	72	SSW	7		1008.7 29.80 	10	mostly clear	
Thu Feb 4 03:10:29 2010	San Diego, CA (92101) 	59 15 	51 10 	75	SW	5		1009.5 29.82 	10	mostly clear	
Thu Feb 4 03:54:58 2010	San Diego, CA (92101) 	59 15 	51 10 	75	SW	5		1009.5 29.82 	10	mostly clear	
Thu Feb 4 04:38:16 2010	San Diego, CA (92101) 	58 14 	51 10 	78	SW	5		1010.7 29.85 	10	mostly cloudy	
Thu Feb 4 05:21:36 2010	San Diego, CA (92101) 	58 14 	51 10 	78	calm			1011.6 29.88 	10	mostly cloudy	
Thu Feb 4 06:04:27 2010	San Diego, CA (92101) 	58 14 	51 10 	78	calm			1012.3 29.90 	10	mostly cloudy	
Thu Feb 4 06:47:29 2010	San Diego, CA (92101) 	58 14 	51 10 	78	calm			1012.3 29.90 	10	mostly cloudy	
Thu Feb 4 07:31:07 2010	San Diego, CA (92101) 	58 14 	51 10 	78	E	3		1012.5 29.91 	10	mostly cloudy	
Thu Feb 4 08:13:41 2010	San Diego, CA (92101) 	57 13 	50 10 	77	ESE	6		1012.3 29.90 	9	mostly clear	
Thu Feb 4 08:57:23 2010	San Diego, CA (92101) 	57 13 	50 10 	77	ESE	6		1012.3 29.90 	9	mostly clear	
Thu Feb 4 09:41:19 2010	San Diego, CA (92101) 	56 13 	49 9 	77	ESE	6		1012.4 29.90 	9	mostly clear	
Thu Feb 4 10:24:57 2010	San Diego, CA (92101) 	54 12 	48 8 	80	ESE	5		1012.3 29.90 	7	mostly clear	
Thu Feb 4 11:10:53 2010	San Diego, CA (92101) 	54 12 	47 8 	77	ESE	5		1012.2 29.90 	7	partly cloudy	
Thu Feb 4 11:54:24 2010	San Diego, CA (92101) 	54 12 	47 8 	77	ESE	5		1012.2 29.90 	7	partly cloudy	
Thu Feb 4 12:37:30 2010	San Diego, CA (92101) 	55 12 	47 8 	74	ESE	6		1012.3 29.90 	6	cloudy	haze 
Thu Feb 4 13:21:35 2010	San Diego, CA (92101) 	54 12 	47 8 	77	ESE	7		1012.5 29.91 	6	mostly cloudy	haze 
Thu Feb 4 14:06:25 2010	San Diego, CA (92101) 	54 12 	47 8 	77	ESE	5		1013.2 29.93 	6	mostly cloudy	haze 
Thu Feb 4 14:59:09 2010	San Diego, CA (92101) 	54 12 	47 8 	77	ESE	5		1013.2 29.93 	6	mostly cloudy	haze 
Thu Jan 28 15:38:50 2010	San Diego, CA (92101) 	50 10 	45 7 	83	calm			1015.6 30.00 	10	clear	
Thu Jan 28 15:59:34 2010	San Diego, CA (92101) 	50 10 	45 7 	83	calm			1015.6 30.00 	10	clear	
Thu Jan 28 16:48:57 2010	San Diego, CA (92101) 	51 10 	45 7 	80	calm			1016.1 30.01 	10	mostly clear	
Thu Jan 28 17:13:12 2010	San Diego, CA (92101) 	54 12 	46 7 	74	calm			1016.8 30.03 	8	clear	
Thu Jan 28 17:29:11 2010	San Diego, CA (92101) 	54 12 	46 7 	74	calm			1016.8 30.03 	8	clear	
Tue Feb 2 00:28:08 2010	San Diego, CA (92101) 	61 16 	51 10 	70	N	3		1012.2 29.90 	8	mostly cloudy	
Tue Feb 2 01:13:45 2010	San Diego, CA (92101) 	62 16 	50 10 	64	WNW	8		1012.4 29.90 	7	mostly cloudy	
Tue Feb 2 01:56:54 2010	San Diego, CA (92101) 	62 16 	50 10 	64	WNW	8		1012.4 29.90 	7	mostly cloudy	
Tue Feb 2 02:40:57 2010	San Diego, CA (92101) 	60 15 	51 10 	72	W	5		1012.5 29.91 	8	mostly cloudy	
Tue Feb 2 03:24:29 2010	San Diego, CA (92101) 	58 14 	51 10 	78	WNW	5		1012.9 29.92 	8	partly cloudy	
Tue Feb 2 04:08:14 2010	San Diego, CA (92101) 	58 14 	51 10 	78	WNW	4		1013.2 29.93 	10	mostly cloudy	
Tue Feb 2 04:51:48 2010	San Diego, CA (92101) 	58 14 	51 10 	78	WNW	4		1013.2 29.93 	10	mostly cloudy	
Tue Feb 2 05:35:11 2010	San Diego, CA (92101) 	58 14 	51 10 	78	calm			1013.1 29.93 	8	mostly cloudy	
Tue Feb 2 06:18:24 2010	San Diego, CA (92101) 	57 13 	51 10 	81	calm			1012.8 29.92 	6	partly cloudy	haze 
Tue Feb 2 07:05:36 2010	San Diego, CA (92101) 	57 13 	50 10 	77	calm			1012.9 29.92 	8	partly cloudy	
Tue Feb 2 07:48:36 2010	San Diego, CA (92101) 	57 13 	50 10 	77	calm			1012.9 29.92 	8	partly cloudy	
Tue Feb 2 08:31:49 2010	San Diego, CA (92101) 	56 13 	50 10 	81	calm			1012.9 29.92 	5	partly cloudy	haze 
Tue Feb 2 09:15:17 2010	San Diego, CA (92101) 	55 12 	50 10 	83	calm			1013.0 29.92 	5	mostly cloudy	haze 
Tue Feb 2 09:58:49 2010	San Diego, CA (92101) 	55 12 	50 10 	83	calm			1013.0 29.92 	5	mostly cloudy	haze 
Tue Feb 2 10:42:23 2010	San Diego, CA (92101) 	56 13 	50 10 	81	calm			1012.7 29.91 	5	cloudy	haze 
Tue Feb 2 11:26:29 2010	San Diego, CA (92101) 	56 13 	50 10 	81	calm			1012.6 29.91 	5	cloudy	haze 
Tue Feb 2 12:10:28 2010	San Diego, CA (92101) 	57 13 	49 9 	74	calm			1012.2 29.90 	7	cloudy	
Tue Feb 2 12:54:24 2010	San Diego, CA (92101) 	57 13 	49 9 	74	calm			1012.2 29.90 	7	cloudy	
Tue Feb 2 13:37:42 2010	San Diego, CA (92101) 	55 12 	49 9 	80	N	4		1011.6 29.88 	5	mostly cloudy	haze 
Tue Feb 2 14:21:25 2010	San Diego, CA (92101) 	54 12 	49 9 	83	N	3		1011.4 29.88 	5	mostly cloudy	haze 
Tue Feb 2 15:05:45 2010	San Diego, CA (92101) 	54 12 	48 8 	80	calm			1011.3 29.87 	5	mostly cloudy	haze 
Tue Feb 2 15:52:11 2010	San Diego, CA (92101) 	54 12 	48 8 	80	calm			1011.3 29.87 	5	mostly cloudy	haze 
Tue Feb 2 16:44:41 2010	San Diego, CA (92101) 	53 11 	48 8 	83	NE	3		1011.0 29.86 	4	mostly cloudy	haze 
Tue Feb 2 17:33:07 2010	San Diego, CA (92101) 	53 11 	48 8 	83	calm			1011.0 29.86 	5	mostly cloudy	haze 
Tue Feb 2 18:17:44 2010	San Diego, CA (92101) 	56 13 	48 8 	75	calm			1011.1 29.87 	5	mostly cloudy	haze 
Tue Feb 2 19:01:54 2010	San Diego, CA (92101) 	58 14 	48 8 	70	WNW	4		1011.3 29.87 	7	mostly cloudy	
Tue Feb 2 19:51:09 2010	San Diego, CA (92101) 	58 14 	48 8 	70	WNW	4		1011.3 29.87 	7	mostly cloudy	
Tue Feb 2 20:42:28 2010	San Diego, CA (92101) 	60 15 	48 8 	64	NW	7		1011.1 29.87 	10	mostly cloudy	
Tue Feb 2 21:29:19 2010	San Diego, CA (92101) 	60 15 	49 9 	66	WNW	6		1010.3 29.84 	9	mostly cloudy	
Tue Feb 2 22:17:41 2010	San Diego, CA (92101) 	61 16 	49 9 	64	W	7		1009.7 29.83 	10	mostly cloudy	
Tue Feb 2 23:01:58 2010	San Diego, CA (92101) 	61 16 	50 10 	67	NW	8		1009.3 29.81 	10	mostly cloudy	
Tue Feb 2 23:46:59 2010	San Diego, CA (92101) 	61 16 	50 10 	67	NW	8		1009.3 29.81 	10	mostly cloudy	
Wed Feb 3 00:31:43 2010	San Diego, CA (92101) 	61 16 	50 10 	67	WNW	6		1009.0 29.80 	10	mostly cloudy	
Wed Feb 3 01:18:53 2010	San Diego, CA (92101) 	60 15 	50 10 	69	WNW	8		1009.1 29.81 	10	mostly cloudy	
Wed Feb 3 02:03:40 2010	San Diego, CA (92101) 	59 15 	50 10 	72	WNW	5		1009.2 29.81 	10	mostly cloudy	
Wed Feb 3 02:52:23 2010	San Diego, CA (92101) 	59 15 	50 10 	72	WNW	5		1009.2 29.81 	10	mostly cloudy	
Wed Feb 3 03:39:14 2010	San Diego, CA (92101) 	59 15 	51 10 	75	NW	5		1009.5 29.82 	10	mostly cloudy	
Wed Feb 3 04:27:23 2010	San Diego, CA (92101) 	58 14 	50 10 	75	NNW	5		1009.7 29.83 	10	mostly cloudy	
Wed Feb 3 05:14:08 2010	San Diego, CA (92101) 	58 14 	51 10 	78	N	3		1009.9 29.83 	10	cloudy	
Wed Feb 3 06:01:59 2010	San Diego, CA (92101) 	58 14 	51 10 	78	N	4		1009.9 29.83 	10	cloudy	
Wed Feb 3 06:48:43 2010	San Diego, CA (92101) 	58 14 	51 10 	78	N	4		1009.9 29.83 	10	cloudy	
Wed Feb 3 07:33:22 2010	San Diego, CA (92101) 	58 14 	51 10 	78	NNE	3		1009.6 29.82 	10	cloudy	
Wed Feb 3 08:16:32 2010	San Diego, CA (92101) 	58 14 	51 10 	78	N	3		1009.3 29.81 	8	mostly cloudy	
Wed Feb 3 09:02:59 2010	San Diego, CA (92101) 	57 13 	51 10 	81	N	3		1008.9 29.80 	7	mostly cloudy	
Wed Feb 3 09:46:19 2010	San Diego, CA (92101) 	57 13 	51 10 	81	N	3		1008.9 29.80 	7	mostly cloudy	
Wed Feb 3 10:30:10 2010	San Diego, CA (92101) 	56 13 	50 10 	81	calm			1008.5 29.79 	6	partly cloudy	haze 
Wed Feb 3 11:17:05 2010	San Diego, CA (92101) 	55 12 	51 10 	87	calm			1008.1 29.78 	6	mostly cloudy	haze 
Wed Feb 3 12:01:49 2010	San Diego, CA (92101) 	55 12 	50 10 	83	NNE	4		1007.9 29.77 	7	mostly cloudy	
Wed Feb 3 12:45:01 2010	San Diego, CA (92101) 	55 12 	50 10 	83	NNE	4		1007.9 29.77 	7	mostly cloudy	
Wed Feb 3 13:28:46 2010	San Diego, CA (92101) 	55 12 	50 10 	83	calm			1007.9 29.77 	6	cloudy	haze 
Wed Feb 3 14:14:52 2010	San Diego, CA (92101) 	56 13 	50 10 	81	NNE	4		1007.9 29.77 	6	cloudy	haze 
Wed Feb 3 15:00:47 2010	San Diego, CA (92101) 	56 13 	50 10 	81	calm			1008.1 29.78 	5	cloudy	haze 
Wed Feb 3 15:45:41 2010	San Diego, CA (92101) 	56 13 	50 10 	81	calm			1008.1 29.78 	5	cloudy	haze 
Wed Feb 3 16:31:32 2010	San Diego, CA (92101) 	56 13 	50 10 	81	NE	3		1008.3 29.78 	5	mostly cloudy	haze 
Wed Feb 3 17:18:44 2010	San Diego, CA (92101) 	57 13 	50 10 	77	NE	3		1008.6 29.79 	6	mostly cloudy	haze 
Wed Feb 3 18:07:01 2010	San Diego, CA (92101) 	57 13 	49 9 	74	calm			1009.3 29.81 	7	cloudy	
Wed Feb 3 18:50:05 2010	San Diego, CA (92101) 	57 13 	49 9 	74	calm			1009.3 29.81 	7	cloudy	
Wed Feb 3 19:34:25 2010	San Diego, CA (92101) 	59 15 	49 9 	69	NNW	5		1010.0 29.83 	10	mostly cloudy	
Wed Feb 3 20:18:30 2010	San Diego, CA (92101) 	61 16 	50 10 	67	WNW	8		1010.4 29.85 	10	mostly cloudy	
Wed Feb 3 21:02:46 2010	San Diego, CA (92101) 	61 16 	50 10 	67	WNW	7		1010.0 29.83 	10	mostly cloudy	
Wed Feb 3 21:50:54 2010	San Diego, CA (92101) 	61 16 	50 10 	67	WNW	7		1010.0 29.83 	10	mostly cloudy	
Wed Feb 3 22:36:26 2010	San Diego, CA (92101) 	62 16 	50 10 	64	calm			1008.7 29.80 	10	partly cloudy	
Wed Feb 3 23:27:21 2010	San Diego, CA (92101) 	62 16 	50 10 	64	NW	6		1008.5 29.79 	10	mostly clear	
Fri Jan 29 08:41:30 2010	San Francisco, CA (94101) 	51 10 	48 8 	89	calm			1017.3 30.05 	6	cloudy	haze 
Fri Jan 29 09:25:25 2010	San Francisco, CA (94101) 	49 9 	47 8 	93	calm		49	1017.2 30.05 	7	mostly cloudy	
Fri Jan 29 11:57:26 2010	San Francisco, CA (94101) 	46 7 	45 7 	96	SSW	3	45	1017.0 30.04 	6	cloudy	haze 
Fri Jan 29 12:42:09 2010	San Francisco, CA (94101) 	49 9 	46 7 	90	calm		49	1017.0 30.04 	7	mostly cloudy	
Fri Jan 29 13:29:52 2010	San Francisco, CA (94101) 	48 8 	46 7 	93	calm		48	1016.8 30.03 	7	cloudy	
Fri Jan 29 14:17:44 2010	San Francisco, CA (94101) 	48 8 	46 7 	93	S	3	47	1016.7 30.03 	7	cloudy	
Fri Jan 29 15:02:30 2010	San Francisco, CA (94101) 	48 8 	47 8 	96	calm		48	1016.1 30.01 	6	cloudy	haze 
Fri Jan 29 15:48:03 2010	San Francisco, CA (94101) 	48 8 	47 8 	96	calm		48	1016.1 30.01 	6	cloudy	haze 
Fri Jan 29 16:35:42 2010	San Francisco, CA (94101) 	48 8 	46 7 	93	SSW	4	46	1016.2 30.02 	7	cloudy	
Fri Jan 29 17:20:13 2010	San Francisco, CA (94101) 	50 10 	47 8 	89	NNW	3	49	1016.6 30.03 	8	cloudy	
Fri Jan 29 18:08:44 2010	San Francisco, CA (94101) 	51 10 	47 8 	85	NE	7	48	1016.3 30.02 	7	cloudy	
Fri Jan 29 18:53:44 2010	San Francisco, CA (94101) 	51 10 	47 8 	85	NE	7	48	1016.3 30.02 	7	cloudy	
Fri Jan 29 19:45:43 2010	San Francisco, CA (94101) 	51 10 	49 9 	92	E	6	49	1016.7 30.03 	5	mostly cloudy	haze 
Fri Jan 29 20:43:31 2010	San Francisco, CA (94101) 	51 10 	48 8 	89	ESE	5	49	1016.3 30.02 	7	mostly cloudy	
Fri Jan 29 21:28:10 2010	San Francisco, CA (94101) 	52 11 	47 8 	83		5		1015.4 29.99 	8	mostly cloudy	
Fri Jan 29 22:14:46 2010	San Francisco, CA (94101) 	58 14 	47 8 	67	SSW	11		1014.5 29.97 	10	mostly cloudy	
Fri Jan 29 22:59:41 2010	San Francisco, CA (94101) 	58 14 	47 8 	67	SSW	11		1014.5 29.97 	10	mostly cloudy	
Fri Jan 29 23:43:58 2010	San Francisco, CA (94101) 	59 15 	47 8 	64	SSW	16		1014.5 29.97 	10	mostly cloudy	
Mon Feb 1 00:10:57 2010	San Francisco, CA (94101) 	54 12 	49 9 	83	N	4		1015.2 29.99 	10	mostly cloudy	
Mon Feb 1 00:53:55 2010	San Francisco, CA (94101) 	54 12 	49 9 	83	N	4		1015.2 29.99 	10	mostly cloudy	
Mon Feb 1 01:40:13 2010	San Francisco, CA (94101) 	53 11 	50 10 	89	NNE	3		1015.0 29.98 	9	mostly cloudy	
Mon Feb 1 02:24:10 2010	San Francisco, CA (94101) 	53 11 	49 9 	86	calm			1015.3 29.99 	10	mostly cloudy	
Mon Feb 1 03:07:52 2010	San Francisco, CA (94101) 	53 11 	49 9 	86	WNW	4		1015.1 29.98 	10	cloudy	
Mon Feb 1 03:52:31 2010	San Francisco, CA (94101) 	53 11 	49 9 	86	WNW	4		1015.1 29.98 	10	cloudy	
Mon Feb 1 04:37:19 2010	San Francisco, CA (94101) 	53 11 	49 9 	86	WNW	3		1015.0 29.98 	10	cloudy	
Mon Feb 1 05:20:29 2010	San Francisco, CA (94101) 	53 11 	50 10 	89	calm			1015.0 29.98 	10	cloudy	
Mon Feb 1 06:05:21 2010	San Francisco, CA (94101) 	52 11 	48 8 	86	SSW	4		1015.1 29.98 	10	cloudy	
Mon Feb 1 06:48:31 2010	San Francisco, CA (94101) 	52 11 	48 8 	86	SSW	4		1015.1 29.98 	10	cloudy	
Mon Feb 1 07:32:21 2010	San Francisco, CA (94101) 	52 11 	47 8 	83	calm			1014.9 29.98 	10	mostly cloudy	
Mon Feb 1 08:15:27 2010	San Francisco, CA (94101) 	52 11 	49 9 	89	calm			1015.0 29.98 	10	mostly cloudy	
Mon Feb 1 08:59:13 2010	San Francisco, CA (94101) 	52 11 	49 9 	89	calm			1015.0 29.98 	10	mostly cloudy	
Mon Feb 1 09:42:12 2010	San Francisco, CA (94101) 	51 10 	47 8 	85	calm			1014.8 29.98 	10	mostly cloudy	
Mon Feb 1 10:25:45 2010	San Francisco, CA (94101) 	51 10 	47 8 	85	calm			1015.0 29.98 	10	mostly cloudy	
Mon Feb 1 11:08:42 2010	San Francisco, CA (94101) 	50 10 	47 8 	89	W	3	49	1015.1 29.98 	10	cloudy	
Mon Feb 1 11:52:08 2010	San Francisco, CA (94101) 	50 10 	47 8 	89	W	3	49	1015.1 29.98 	10	cloudy	
Mon Feb 1 12:35:29 2010	San Francisco, CA (94101) 	50 10 	47 8 	89	W	5	48	1015.1 29.98 	10	mostly cloudy	
Mon Feb 1 13:19:03 2010	San Francisco, CA (94101) 	50 10 	47 8 	89	E	3	49	1014.4 29.96 	10	mostly cloudy	
Mon Feb 1 14:02:55 2010	San Francisco, CA (94101) 	47 8 	45 7 	93	calm		47	1014.3 29.96 	10	mostly cloudy	
Mon Feb 1 14:48:01 2010	San Francisco, CA (94101) 	47 8 	45 7 	93	calm		47	1014.3 29.96 	10	mostly cloudy	
Mon Feb 1 15:31:45 2010	San Francisco, CA (94101) 	47 8 	45 7 	93	S	4	45	1014.1 29.96 	10	mostly cloudy	
Mon Feb 1 16:16:12 2010	San Francisco, CA (94101) 	48 8 	45 7 	89	calm		48	1014.4 29.96 	10	mostly cloudy	
Mon Feb 1 17:01:07 2010	San Francisco, CA (94101) 	51 10 	47 8 	85	calm			1014.5 29.97 	10	mostly cloudy	
Mon Feb 1 17:45:02 2010	San Francisco, CA (94101) 	51 10 	47 8 	85	calm			1014.5 29.97 	10	mostly cloudy	
Mon Feb 1 18:28:32 2010	San Francisco, CA (94101) 	51 10 	48 8 	89	ENE	7	48	1014.2 29.96 	10	mostly cloudy	
Mon Feb 1 19:12:18 2010	San Francisco, CA (94101) 	51 10 	47 8 	85	ESE	4		1014.5 29.97 	10	mostly cloudy	
Mon Feb 1 19:57:09 2010	San Francisco, CA (94101) 	51 10 	47 8 	85	ESE	4		1014.5 29.97 	10	mostly cloudy	
Mon Feb 1 20:43:35 2010	San Francisco, CA (94101) 	53 11 	48 8 	83	calm			1014.5 29.97 	10	mostly cloudy	
Mon Feb 1 21:28:29 2010	San Francisco, CA (94101) 	53 11 	48 8 	83	NNE	5		1013.8 29.95 	10	mostly cloudy	
Mon Feb 1 22:11:54 2010	San Francisco, CA (94101) 	54 12 	48 8 	80	calm			1013.1 29.93 	10	mostly cloudy	
Mon Feb 1 22:55:13 2010	San Francisco, CA (94101) 	54 12 	48 8 	80	calm			1013.1 29.93 	10	mostly cloudy	
Mon Feb 1 23:41:21 2010	San Francisco, CA (94101) 	56 13 	44 6 	64	calm			1012.5 29.91 	10	mostly cloudy	
Sat Jan 30 00:28:02 2010	San Francisco, CA (94101) 	59 15 	45 7 	60	SSE	13		1014.2 29.96 	10	mostly cloudy	
Sat Jan 30 01:12:13 2010	San Francisco, CA (94101) 	58 14 	46 7 	64	S	9		1014.0 29.95 	10	cloudy	light rain 
Sat Jan 30 01:55:44 2010	San Francisco, CA (94101) 	58 14 	46 7 	64	S	9		1014.0 29.95 	10	cloudy	light rain 
Sat Jan 30 02:40:25 2010	San Francisco, CA (94101) 	53 11 	50 10 	89	S	8		1014.6 29.97 	8	cloudy	light rain 
Sat Jan 30 03:23:58 2010	San Francisco, CA (94101) 	52 11 	50 10 	93	calm			1014.5 29.97 	6	cloudy	haze 
Sat Jan 30 04:07:52 2010	San Francisco, CA (94101) 	53 11 	50 10 	89	SE	6		1014.6 29.97 	10	cloudy	light rain 
Sat Jan 30 04:51:39 2010	San Francisco, CA (94101) 	53 11 	50 10 	89	SE	6		1014.6 29.97 	10	cloudy	light rain 
Sat Jan 30 05:35:20 2010	San Francisco, CA (94101) 	52 11 	50 10 	93	SE	9	48	1014.9 29.98 	4	cloudy	moderate rain 
Sat Jan 30 06:19:28 2010	San Francisco, CA (94101) 	52 11 	50 10 	93	SSW	4		1015.1 29.98 	10	cloudy	
Sat Jan 30 07:05:28 2010	San Francisco, CA (94101) 	53 11 	50 10 	89	S	4		1015.6 30.00 	10	cloudy	
Sat Jan 30 07:48:10 2010	San Francisco, CA (94101) 	53 11 	50 10 	89	S	4		1015.6 30.00 	10	cloudy	
Sat Jan 30 08:31:23 2010	San Francisco, CA (94101) 	53 11 	49 9 	86	SW	4		1015.7 30.00 	10	cloudy	
Sat Jan 30 11:13:09 2010	San Francisco, CA (94101) 	48 8 	47 8 	96	S	4	46	1016.0 30.01 	10	partly cloudy	
Sat Jan 30 12:00:57 2010	San Francisco, CA (94101) 	47 8 	46 7 	97	SSE	3	46	1016.1 30.01 	10	partly cloudy	
Sat Jan 30 12:44:35 2010	San Francisco, CA (94101) 	47 8 	46 7 	97	SSE	3	46	1016.1 30.01 	10	partly cloudy	
Sat Jan 30 13:27:51 2010	San Francisco, CA (94101) 	47 8 	46 7 	97	calm		47	1016.2 30.02 	10	partly cloudy	
Sat Jan 30 14:12:02 2010	San Francisco, CA (94101) 	46 7 	45 7 	96	calm		46	1016.5 30.03 	10	partly cloudy	
Sat Jan 30 14:56:04 2010	San Francisco, CA (94101) 	46 7 	45 7 	96	calm		46	1016.5 30.03 	10	partly cloudy	
Sat Jan 30 15:41:55 2010	San Francisco, CA (94101) 	46 7 	45 7 	96	S	3	45	1016.5 30.03 	10	partly cloudy	
Sat Jan 30 16:26:55 2010	San Francisco, CA (94101) 	46 7 	44 6 	93	calm		46	1017.1 30.04 	10	partly cloudy	
Sat Jan 30 17:11:20 2010	San Francisco, CA (94101) 	47 8 	46 7 	97	SE	4	45	1017.4 30.05 	10	mostly cloudy	
Sat Jan 30 17:54:32 2010	San Francisco, CA (94101) 	47 8 	46 7 	97	SE	4	45	1017.4 30.05 	10	mostly cloudy	
Sat Jan 30 18:38:32 2010	San Francisco, CA (94101) 	49 9 	48 8 	97	SSE	5	47	1017.7 30.06 	10	partly cloudy	
Sat Jan 30 19:21:50 2010	San Francisco, CA (94101) 	52 11 	48 8 	86	E	4		1018.0 30.07 	10	partly cloudy	
Sat Jan 30 20:06:05 2010	San Francisco, CA (94101) 	52 11 	49 9 	89	E	7	49	1018.2 30.08 	10	partly cloudy	
Sat Jan 30 20:49:11 2010	San Francisco, CA (94101) 	52 11 	49 9 	89	E	7	49	1018.2 30.08 	10	partly cloudy	
Sat Jan 30 21:32:58 2010	San Francisco, CA (94101) 	54 12 	49 9 	83	E	6		1018.1 30.07 	10	mostly cloudy	
Sat Jan 30 22:16:12 2010	San Francisco, CA (94101) 	54 12 	49 9 	83	ENE	3		1017.6 30.06 	10	mostly cloudy	
Sat Jan 30 23:01:49 2010	San Francisco, CA (94101) 	54 12 	49 9 	83	E	4		1016.6 30.03 	10	partly cloudy	
Sat Jan 30 23:46:30 2010	San Francisco, CA (94101) 	54 12 	49 9 	83	E	4		1016.6 30.03 	10	partly cloudy	
Sun Jan 31 00:30:27 2010	San Francisco, CA (94101) 	55 12 	49 9 	80		3		1016.5 30.03 	10	partly cloudy	
Sun Jan 31 01:21:13 2010	San Francisco, CA (94101) 	57 13 	47 8 	69	WNW	7		1016.5 30.03 	10	partly cloudy	
Sun Jan 31 02:05:13 2010	San Francisco, CA (94101) 	55 12 	48 8 	77	WNW	8		1016.5 30.03 	10	partly cloudy	
Sun Jan 31 02:48:40 2010	San Francisco, CA (94101) 	55 12 	48 8 	77	WNW	8		1016.5 30.03 	10	partly cloudy	
Sun Jan 31 03:32:31 2010	San Francisco, CA (94101) 	53 11 	49 9 	86	W	10	49	1016.3 30.02 	10	partly cloudy	
Sun Jan 31 04:15:58 2010	San Francisco, CA (94101) 	52 11 	49 9 	89	W	11	48	1016.7 30.03 	10	mostly clear	
Sun Jan 31 05:00:32 2010	San Francisco, CA (94101) 	52 11 	48 8 	86	W	10	48	1016.9 30.04 	10	mostly clear	
Sun Jan 31 05:46:37 2010	San Francisco, CA (94101) 	52 11 	48 8 	86	W	10	48	1016.9 30.04 	10	mostly clear	
Sun Jan 31 06:31:49 2010	San Francisco, CA (94101) 	51 10 	48 8 	89	W	7	48	1017.2 30.05 	10	mostly clear	
Sun Jan 31 07:14:43 2010	San Francisco, CA (94101) 	50 10 	48 8 	93	W	4	48	1017.2 30.05 	10	mostly clear	
Sun Jan 31 08:01:26 2010	San Francisco, CA (94101) 	51 10 	49 9 	92	W	3		1017.2 30.05 	10	mostly cloudy	
Sun Jan 31 08:46:07 2010	San Francisco, CA (94101) 	51 10 	49 9 	92	W	3		1017.2 30.05 	10	mostly cloudy	
Sun Jan 31 09:29:21 2010	San Francisco, CA (94101) 	50 10 	48 8 	93	SE	4	48	1017.0 30.04 	10	mostly cloudy	
Sun Jan 31 10:12:33 2010	San Francisco, CA (94101) 	49 9 	47 8 	93	SSE	3	48	1016.5 30.03 	10	partly cloudy	
Sun Jan 31 10:56:18 2010	San Francisco, CA (94101) 	49 9 	47 8 	93	SSE	3	48	1016.5 30.03 	10	partly cloudy	
Sun Jan 31 11:39:46 2010	San Francisco, CA (94101) 	49 9 	47 8 	93	S	3	48	1016.6 30.03 	10	partly cloudy	
Sun Jan 31 12:23:26 2010	San Francisco, CA (94101) 	47 8 	46 7 	97	SSW	4	45	1016.6 30.03 	10	mostly cloudy	
Sun Jan 31 13:06:49 2010	San Francisco, CA (94101) 	47 8 	45 7 	93	SSE	3	46	1016.2 30.02 	10	cloudy	
Sun Jan 31 13:50:26 2010	San Francisco, CA (94101) 	47 8 	45 7 	93	SSE	3	46	1016.2 30.02 	10	cloudy	
Sun Jan 31 14:33:16 2010	San Francisco, CA (94101) 	48 8 	45 7 	89	S	5	45	1016.1 30.01 	10	cloudy	
Sun Jan 31 15:17:22 2010	San Francisco, CA (94101) 	48 8 	46 7 	93	SSW	4	46	1016.5 30.03 	10	cloudy	
Sun Jan 31 16:00:50 2010	San Francisco, CA (94101) 	49 9 	45 7 	86	S	3	48	1016.6 30.03 	10	cloudy	
Sun Jan 31 16:50:37 2010	San Francisco, CA (94101) 	49 9 	45 7 	86	S	3	48	1016.6 30.03 	10	cloudy	
Sun Jan 31 17:34:18 2010	San Francisco, CA (94101) 	49 9 	46 7 	90	calm		49	1017.0 30.04 	10	cloudy	
Sun Jan 31 18:19:18 2010	San Francisco, CA (94101) 	50 10 	46 7 	86	SE	4	48	1017.2 30.05 	10	cloudy	
Sun Jan 31 19:03:04 2010	San Francisco, CA (94101) 	51 10 	46 7 	83	ENE	4		1017.5 30.06 	10	mostly cloudy	
Sun Jan 31 19:48:27 2010	San Francisco, CA (94101) 	51 10 	46 7 	83	ENE	4		1017.5 30.06 	10	mostly cloudy	
Sun Jan 31 20:31:25 2010	San Francisco, CA (94101) 	52 11 	47 8 	83		5		1017.6 30.06 	10	partly cloudy	
Sun Jan 31 21:15:38 2010	San Francisco, CA (94101) 	53 11 	48 8 	83	calm			1016.9 30.04 	10	mostly cloudy	
Sun Jan 31 21:58:52 2010	San Francisco, CA (94101) 	53 11 	48 8 	83	calm			1016.9 30.04 	10	mostly cloudy	
Sun Jan 31 22:43:41 2010	San Francisco, CA (94101) 	54 12 	48 8 	80	NNE	3		1015.8 30.01 	10	mostly cloudy	
Sun Jan 31 23:27:01 2010	San Francisco, CA (94101) 	53 11 	48 8 	83	NNE	4		1015.2 29.99 	10	mostly cloudy	
Thu Feb 4 00:12:21 2010	San Francisco, CA (94101) 	58 14 	50 10 	75	NNE	3		1009.3 29.81 	10	mostly cloudy	
Thu Feb 4 00:56:26 2010	San Francisco, CA (94101) 	58 14 	50 10 	75	NNE	3		1009.3 29.81 	10	mostly cloudy	
Thu Feb 4 01:39:41 2010	San Francisco, CA (94101) 	57 13 	50 10 	77	W	8		1010.0 29.83 	10	cloudy	
Thu Feb 4 02:27:26 2010	San Francisco, CA (94101) 	56 13 	49 9 	77	W	11		1010.4 29.85 	10	cloudy	
Thu Feb 4 03:10:35 2010	San Francisco, CA (94101) 	56 13 	49 9 	77	WSW	4		1010.4 29.85 	10	cloudy	
Thu Feb 4 03:55:04 2010	San Francisco, CA (94101) 	56 13 	49 9 	77	WSW	4		1010.4 29.85 	10	cloudy	
Thu Feb 4 04:38:21 2010	San Francisco, CA (94101) 	55 12 	48 8 	77	WSW	5		1010.5 29.85 	10	cloudy	
Thu Feb 4 05:21:41 2010	San Francisco, CA (94101) 	55 12 	48 8 	77	calm			1010.3 29.84 	10	cloudy	
Thu Feb 4 06:04:32 2010	San Francisco, CA (94101) 	54 12 	48 8 	80	calm			1010.3 29.84 	10	mostly cloudy	
Thu Feb 4 06:47:35 2010	San Francisco, CA (94101) 	54 12 	48 8 	80	calm			1010.3 29.84 	10	mostly cloudy	
Thu Feb 4 07:31:12 2010	San Francisco, CA (94101) 	53 11 	47 8 	79	calm			1010.3 29.84 	10	mostly cloudy	
Thu Feb 4 08:13:45 2010	San Francisco, CA (94101) 	51 10 	48 8 	89	SSW	3		1010.7 29.85 	10	mostly cloudy	
Thu Feb 4 08:57:27 2010	San Francisco, CA (94101) 	51 10 	48 8 	89	SSW	3		1010.7 29.85 	10	mostly cloudy	
Thu Feb 4 09:41:22 2010	San Francisco, CA (94101) 	51 10 	47 8 	85	calm			1010.6 29.85 	10	mostly cloudy	
Thu Feb 4 10:25:02 2010	San Francisco, CA (94101) 	52 11 	49 9 	89	calm			1010.4 29.85 	10	mostly cloudy	
Thu Feb 4 11:10:57 2010	San Francisco, CA (94101) 	53 11 	49 9 	86	ESE	4		1010.0 29.83 	10	mostly cloudy	
Thu Feb 4 11:54:28 2010	San Francisco, CA (94101) 	53 11 	49 9 	86	ESE	4		1010.0 29.83 	10	mostly cloudy	
Thu Feb 4 12:37:35 2010	San Francisco, CA (94101) 	51 10 	48 8 	89	calm			1010.0 29.83 	10	mostly cloudy	
Thu Feb 4 13:21:39 2010	San Francisco, CA (94101) 	52 11 	47 8 	83	calm			1010.2 29.84 	10	cloudy	
Thu Feb 4 14:06:29 2010	San Francisco, CA (94101) 	52 11 	48 8 	86	E	4		1009.4 29.82 	10	cloudy	
Thu Feb 4 14:59:15 2010	San Francisco, CA (94101) 	52 11 	48 8 	86	E	4		1009.4 29.82 	10	cloudy	
Thu Jan 28 15:38:54 2010	San Francisco, CA (94101) 	47 8 	45 7 	93	SE	5	44	1018.1 30.07 	9	partly cloudy	
Thu Jan 28 15:59:40 2010	San Francisco, CA (94101) 	47 8 	45 7 	93	SE	5	44	1018.1 30.07 	9	partly cloudy	
Thu Jan 28 16:49:02 2010	San Francisco, CA (94101) 	47 8 	45 7 	93	SE	3	46	1018.6 30.09 	7	partly cloudy	
Thu Jan 28 17:13:17 2010	San Francisco, CA (94101) 	47 8 	45 7 	93	SE	6	44	1018.9 30.10 	7	mostly clear	
Thu Jan 28 17:29:16 2010	San Francisco, CA (94101) 	47 8 	45 7 	93	SE	6	44	1018.9 30.10 	7	mostly clear	
Tue Feb 2 00:28:13 2010	San Francisco, CA (94101) 	56 13 	45 7 	67	calm			1012.2 29.90 	10	cloudy	
Tue Feb 2 01:13:50 2010	San Francisco, CA (94101) 	57 13 	45 7 	64	WSW	3		1012.4 29.90 	10	cloudy	
Tue Feb 2 01:56:59 2010	San Francisco, CA (94101) 	57 13 	45 7 	64	WSW	3		1012.4 29.90 	10	cloudy	
Tue Feb 2 02:41:01 2010	San Francisco, CA (94101) 	56 13 	47 8 	72	NW	5		1012.7 29.91 	10	cloudy	
Tue Feb 2 03:24:33 2010	San Francisco, CA (94101) 	54 12 	44 6 	69	WNW	6		1012.9 29.92 	10	cloudy	
Tue Feb 2 04:08:19 2010	San Francisco, CA (94101) 	54 12 	44 6 	69	WNW	6		1012.9 29.92 	10	cloudy	
Tue Feb 2 04:51:52 2010	San Francisco, CA (94101) 	54 12 	44 6 	69	WNW	6		1012.9 29.92 	10	cloudy	
Tue Feb 2 05:35:15 2010	San Francisco, CA (94101) 	53 11 	42 5 	66	calm			1013.0 29.92 	10	mostly cloudy	
Tue Feb 2 06:18:30 2010	San Francisco, CA (94101) 	53 11 	50 10 	89	calm			1013.0 29.92 	10	cloudy	
Tue Feb 2 07:05:40 2010	San Francisco, CA (94101) 	52 11 	44 6 	74	calm			1013.0 29.92 	10	cloudy	
Tue Feb 2 07:48:40 2010	San Francisco, CA (94101) 	52 11 	44 6 	74	calm			1013.0 29.92 	10	cloudy	
Tue Feb 2 08:31:53 2010	San Francisco, CA (94101) 	53 11 	48 8 	83	E	3		1013.0 29.92 	10	cloudy	
Tue Feb 2 09:15:21 2010	San Francisco, CA (94101) 	52 11 	48 8 	86		10	48	1012.8 29.92 	10	mostly cloudy	
Tue Feb 2 09:58:54 2010	San Francisco, CA (94101) 	52 11 	48 8 	86		10	48	1012.8 29.92 	10	mostly cloudy	
Tue Feb 2 10:42:27 2010	San Francisco, CA (94101) 	52 11 	49 9 	89	ENE	7	49	1012.5 29.91 	10	mostly cloudy	
Tue Feb 2 11:26:33 2010	San Francisco, CA (94101) 	50 10 	47 8 	89	calm			1012.2 29.90 	10	mostly cloudy	
Tue Feb 2 12:10:33 2010	San Francisco, CA (94101) 	50 10 	47 8 	89	SSE	4	48	1012.0 29.89 	10	mostly cloudy	
Tue Feb 2 12:54:29 2010	San Francisco, CA (94101) 	50 10 	47 8 	89	SSE	4	48	1012.0 29.89 	10	mostly cloudy	
Tue Feb 2 13:37:47 2010	San Francisco, CA (94101) 	50 10 	47 8 	89	calm			1011.7 29.88 	10	cloudy	
Tue Feb 2 14:21:29 2010	San Francisco, CA (94101) 	49 9 	47 8 	93	calm		49	1011.4 29.88 	10	mostly cloudy	
Tue Feb 2 15:05:49 2010	San Francisco, CA (94101) 	48 8 	45 7 	89	calm		48	1011.6 29.88 	10	mostly cloudy	
Tue Feb 2 15:52:15 2010	San Francisco, CA (94101) 	48 8 	45 7 	89	calm		48	1011.6 29.88 	10	mostly cloudy	
Tue Feb 2 16:44:45 2010	San Francisco, CA (94101) 	48 8 	45 7 	89	calm		48	1011.7 29.88 	10	mostly cloudy	
Tue Feb 2 17:33:12 2010	San Francisco, CA (94101) 	49 9 	45 7 	86	calm		49	1011.8 29.89 	10	mostly cloudy	
Tue Feb 2 18:17:49 2010	San Francisco, CA (94101) 	50 10 	44 6 	80	ESE	3	49	1012.1 29.90 	10	mostly cloudy	
Tue Feb 2 19:01:59 2010	San Francisco, CA (94101) 	52 11 	46 7 	80	E	6		1012.2 29.90 	10	mostly cloudy	
Tue Feb 2 19:51:14 2010	San Francisco, CA (94101) 	52 11 	46 7 	80	E	6		1012.2 29.90 	10	mostly cloudy	
Tue Feb 2 20:42:32 2010	San Francisco, CA (94101) 	53 11 	46 7 	77		5		1011.7 29.88 	10	mostly cloudy	
Tue Feb 2 21:29:24 2010	San Francisco, CA (94101) 	52 11 	46 7 	80		5		1010.9 29.86 	10	mostly cloudy	
Tue Feb 2 22:17:46 2010	San Francisco, CA (94101) 	53 11 	47 8 	79	N	3		1010.4 29.85 	10	cloudy	
Tue Feb 2 23:02:03 2010	San Francisco, CA (94101) 	54 12 	46 7 	74	calm			1010.1 29.84 	10	cloudy	
Tue Feb 2 23:47:04 2010	San Francisco, CA (94101) 	54 12 	46 7 	74	calm			1010.1 29.84 	10	cloudy	
Wed Feb 3 00:31:48 2010	San Francisco, CA (94101) 	54 12 	48 8 	80	calm			1010.2 29.84 	9	cloudy	light rain 
Wed Feb 3 01:18:58 2010	San Francisco, CA (94101) 	54 12 	48 8 	80		3		1010.2 29.84 	9	mostly cloudy	
Wed Feb 3 02:03:46 2010	San Francisco, CA (94101) 	54 12 	49 9 	83	E	3		1010.4 29.85 	10	cloudy	
Wed Feb 3 02:52:29 2010	San Francisco, CA (94101) 	54 12 	49 9 	83	E	3		1010.4 29.85 	10	cloudy	
Wed Feb 3 03:39:18 2010	San Francisco, CA (94101) 	54 12 	49 9 	83	calm			1010.5 29.85 	10	cloudy	
Wed Feb 3 04:27:28 2010	San Francisco, CA (94101) 	55 12 	48 8 	77	NW	3		1010.8 29.86 	10	mostly cloudy	
Wed Feb 3 05:14:14 2010	San Francisco, CA (94101) 	55 12 	50 10 	83	SSE	4		1010.4 29.85 	10	mostly cloudy	
Wed Feb 3 06:02:04 2010	San Francisco, CA (94101) 	54 12 	50 10 	86	calm			1010.3 29.84 	10	mostly cloudy	
Wed Feb 3 06:48:48 2010	San Francisco, CA (94101) 	54 12 	50 10 	86	calm			1010.3 29.84 	10	mostly cloudy	
Wed Feb 3 07:33:26 2010	San Francisco, CA (94101) 	53 11 	50 10 	89	calm			1010.6 29.85 	10	partly cloudy	
Wed Feb 3 08:16:36 2010	San Francisco, CA (94101) 	51 10 	47 8 	85	calm			1010.8 29.86 	10	mostly cloudy	
Wed Feb 3 09:03:03 2010	San Francisco, CA (94101) 	51 10 	47 8 	85	calm			1010.8 29.86 	10	partly cloudy	
Wed Feb 3 09:46:23 2010	San Francisco, CA (94101) 	51 10 	47 8 	85	calm			1010.8 29.86 	10	partly cloudy	
Wed Feb 3 10:30:15 2010	San Francisco, CA (94101) 	50 10 	47 8 	89	WSW	4	48	1010.7 29.85 	10	mostly cloudy	
Wed Feb 3 11:17:09 2010	San Francisco, CA (94101) 	49 9 	46 7 	90	calm		49	1010.3 29.84 	10	partly cloudy	
Wed Feb 3 12:01:54 2010	San Francisco, CA (94101) 	49 9 	46 7 	90	calm		49	1010.3 29.84 	10	partly cloudy	
Wed Feb 3 12:45:06 2010	San Francisco, CA (94101) 	49 9 	46 7 	90	calm		49	1010.4 29.85 	10	partly cloudy	
Wed Feb 3 13:28:51 2010	San Francisco, CA (94101) 	46 7 	45 7 	96	calm		46	1010.0 29.83 	10	mostly clear	
Wed Feb 3 14:14:56 2010	San Francisco, CA (94101) 	48 8 	46 7 	93	calm		48	1010.3 29.84 	10	mostly clear	
Wed Feb 3 15:00:53 2010	San Francisco, CA (94101) 	44 6 	43 6 	96	WSW	3	43	1011.2 29.87 	10	partly cloudy	
Wed Feb 3 15:45:45 2010	San Francisco, CA (94101) 	44 6 	43 6 	96	WSW	3	43	1011.2 29.87 	10	partly cloudy	
Wed Feb 3 16:31:37 2010	San Francisco, CA (94101) 	45 7 	44 6 	97	calm		45	1011.7 29.88 	10	mostly clear	
Wed Feb 3 17:18:48 2010	San Francisco, CA (94101) 	48 8 	46 7 	93	calm		48	1012.0 29.89 	10	mostly cloudy	
Wed Feb 3 18:07:06 2010	San Francisco, CA (94101) 	51 10 	48 8 	89	E	3		1012.2 29.90 	10	mostly cloudy	
Wed Feb 3 18:50:12 2010	San Francisco, CA (94101) 	51 10 	48 8 	89	E	3		1012.2 29.90 	10	mostly cloudy	
Wed Feb 3 19:34:29 2010	San Francisco, CA (94101) 	52 11 	48 8 	86	E	4		1012.3 29.90 	10	mostly cloudy	
Wed Feb 3 20:18:35 2010	San Francisco, CA (94101) 	53 11 	50 10 	89	E	5		1012.1 29.90 	8	mostly cloudy	
Wed Feb 3 21:02:52 2010	San Francisco, CA (94101) 	55 12 	50 10 	83	NE	4		1011.4 29.88 	10	partly cloudy	
Wed Feb 3 21:50:59 2010	San Francisco, CA (94101) 	55 12 	50 10 	83	NE	4		1011.4 29.88 	10	partly cloudy	
Wed Feb 3 22:36:31 2010	San Francisco, CA (94101) 	56 13 	50 10 	81	NE	3		1010.5 29.85 	10	mostly cloudy	
Wed Feb 3 23:27:25 2010	San Francisco, CA (94101) 	57 13 	49 9 	74	calm			1009.6 29.82 	10	mostly cloudy	
Fri Jan 29 08:41:24 2010	San Jose, CA (95101) 	48 8 	45 7 	89	calm		48	1017.7 30.06 	10	mostly cloudy	
Fri Jan 29 09:25:19 2010	San Jose, CA (95101) 	47 8 	44 6 	90	S	4	45	1016.9 30.04 	10	mostly cloudy	
Fri Jan 29 11:57:21 2010	San Jose, CA (95101) 	46 7 	44 6 	93	calm		46	1016.8 30.03 	7	clear	
Fri Jan 29 12:42:03 2010	San Jose, CA (95101) 	46 7 	43 6 	89	calm		46	1016.5 30.03 	8	clear	
Fri Jan 29 13:29:46 2010	San Jose, CA (95101) 	46 7 	43 6 	89	calm		46	1016.5 30.03 	9	clear	
Fri Jan 29 14:17:38 2010	San Jose, CA (95101) 	45 7 	43 6 	93	calm		45	1016.6 30.03 	9	clear	
Fri Jan 29 15:02:23 2010	San Jose, CA (95101) 	44 6 	42 5 	93	calm		44	1016.3 30.02 	9	mostly cloudy	
Fri Jan 29 15:47:57 2010	San Jose, CA (95101) 	44 6 	42 5 	93	calm		44	1016.3 30.02 	9	mostly cloudy	
Fri Jan 29 16:35:36 2010	San Jose, CA (95101) 	45 7 	43 6 	93	calm		45	1016.4 30.02 	9	mostly cloudy	
Fri Jan 29 17:20:05 2010	San Jose, CA (95101) 	47 8 	43 6 	86	SE	3	46	1016.4 30.02 	8	cloudy	
Fri Jan 29 18:08:39 2010	San Jose, CA (95101) 	49 9 	44 6 	83	NE	4	47	1016.7 30.03 	8	mostly cloudy	
Fri Jan 29 18:53:38 2010	San Jose, CA (95101) 	49 9 	44 6 	83	NE	4	47	1016.7 30.03 	8	mostly cloudy	
Fri Jan 29 19:45:37 2010	San Jose, CA (95101) 	52 11 	47 8 	83	ESE	6		1016.5 30.03 	8	mostly cloudy	
Fri Jan 29 20:43:26 2010	San Jose, CA (95101) 	56 13 	48 8 	75	ESE	7		1016.6 30.03 	10	cloudy	
Fri Jan 29 21:28:04 2010	San Jose, CA (95101) 	60 15 	49 9 	66	ESE	10		1014.6 29.97 	10	mostly cloudy	
Fri Jan 29 22:14:40 2010	San Jose, CA (95101) 	60 15 	48 8 	64	ESE	7		1014.3 29.96 	10	mostly cloudy	
Fri Jan 29 22:59:35 2010	San Jose, CA (95101) 	60 15 	48 8 	64	ESE	7		1014.3 29.96 	10	mostly cloudy	
Fri Jan 29 23:43:53 2010	San Jose, CA (95101) 	62 16 	44 6 	52	S	13		1014.0 29.95 	10	partly cloudy	
Mon Feb 1 00:10:52 2010	San Jose, CA (95101) 	59 15 	45 7 	60	W	4		1014.6 29.97 	10	mostly cloudy	
Mon Feb 1 00:53:49 2010	San Jose, CA (95101) 	59 15 	45 7 	60	W	4		1014.6 29.97 	10	mostly cloudy	
Mon Feb 1 01:40:05 2010	San Jose, CA (95101) 	60 15 	46 7 	60	WNW	5		1014.6 29.97 	10	mostly cloudy	
Mon Feb 1 02:24:04 2010	San Jose, CA (95101) 	56 13 	47 8 	72	WNW	6		1014.8 29.98 	10	mostly cloudy	
Mon Feb 1 03:07:46 2010	San Jose, CA (95101) 	53 11 	47 8 	79	WNW	8		1015.2 29.99 	10	mostly cloudy	
Mon Feb 1 03:52:25 2010	San Jose, CA (95101) 	53 11 	47 8 	79	WNW	8		1015.2 29.99 	10	mostly cloudy	
Mon Feb 1 04:37:12 2010	San Jose, CA (95101) 	53 11 	47 8 	79	NW	4		1015.1 29.98 	10	partly cloudy	
Mon Feb 1 05:20:23 2010	San Jose, CA (95101) 	53 11 	47 8 	79	calm			1014.9 29.98 	9	partly cloudy	
Mon Feb 1 06:05:15 2010	San Jose, CA (95101) 	52 11 	47 8 	83	calm			1014.4 29.96 	9	mostly cloudy	
Mon Feb 1 06:48:25 2010	San Jose, CA (95101) 	52 11 	47 8 	83	calm			1014.4 29.96 	9	mostly cloudy	
Mon Feb 1 07:32:15 2010	San Jose, CA (95101) 	52 11 	45 7 	77	calm			1015.0 29.98 	10	mostly cloudy	
Mon Feb 1 08:15:22 2010	San Jose, CA (95101) 	49 9 	45 7 	86	E	4	47	1015.0 29.98 	9	partly cloudy	
Mon Feb 1 08:59:08 2010	San Jose, CA (95101) 	49 9 	45 7 	86	E	4	47	1015.0 29.98 	9	partly cloudy	
Mon Feb 1 09:42:07 2010	San Jose, CA (95101) 	47 8 	43 6 	86	calm		47	1014.9 29.98 	10	mostly cloudy	
Mon Feb 1 10:25:40 2010	San Jose, CA (95101) 	49 9 	44 6 	83	calm		49	1015.0 29.98 	10	clear	
Mon Feb 1 11:08:37 2010	San Jose, CA (95101) 	46 7 	43 6 	89	ESE	4	44	1015.2 29.99 	10	clear	
Mon Feb 1 11:52:03 2010	San Jose, CA (95101) 	46 7 	43 6 	89	ESE	4	44	1015.2 29.99 	10	clear	
Mon Feb 1 12:35:23 2010	San Jose, CA (95101) 	47 8 	43 6 	86	calm		47	1015.0 29.98 	10	clear	
Mon Feb 1 13:18:58 2010	San Jose, CA (95101) 	46 7 	43 6 	89	calm		46	1014.6 29.97 	10	clear	
Mon Feb 1 14:02:50 2010	San Jose, CA (95101) 	46 7 	42 5 	86	calm		46	1014.4 29.96 	10	clear	
Mon Feb 1 14:47:56 2010	San Jose, CA (95101) 	46 7 	42 5 	86	calm		46	1014.4 29.96 	10	clear	
Mon Feb 1 15:31:40 2010	San Jose, CA (95101) 	43 6 	41 5 	93	SE	4	40	1014.1 29.96 	10	mostly cloudy	
Mon Feb 1 16:16:07 2010	San Jose, CA (95101) 	45 7 	42 5 	89	SE	5	42	1014.2 29.96 	10	mostly cloudy	
Mon Feb 1 17:00:56 2010	San Jose, CA (95101) 	45 7 	42 5 	89	calm		45	1014.4 29.96 	10	mostly cloudy	
Mon Feb 1 17:44:56 2010	San Jose, CA (95101) 	45 7 	42 5 	89	calm		45	1014.4 29.96 	10	mostly cloudy	
Mon Feb 1 18:28:27 2010	San Jose, CA (95101) 	49 9 	44 6 	83	calm		49	1014.5 29.97 	10	mostly cloudy	
Mon Feb 1 19:12:13 2010	San Jose, CA (95101) 	51 10 	44 6 	77	SE	4		1013.9 29.95 	10	mostly cloudy	
Mon Feb 1 19:57:03 2010	San Jose, CA (95101) 	51 10 	44 6 	77	SE	4		1013.9 29.95 	10	mostly cloudy	
Mon Feb 1 20:43:29 2010	San Jose, CA (95101) 	57 13 	45 7 	64	calm			1014.2 29.96 	10	mostly cloudy	
Mon Feb 1 21:28:24 2010	San Jose, CA (95101) 	60 15 	44 6 	55		3		1013.6 29.94 	10	mostly cloudy	
Mon Feb 1 22:11:49 2010	San Jose, CA (95101) 	63 17 	42 5 	46	E	4		1012.5 29.91 	10	mostly cloudy	
Mon Feb 1 22:55:07 2010	San Jose, CA (95101) 	63 17 	42 5 	46	E	4		1012.5 29.91 	10	mostly cloudy	
Mon Feb 1 23:41:16 2010	San Jose, CA (95101) 	63 17 	43 6 	48	SSE	5		1011.5 29.88 	10	mostly cloudy	
Sat Jan 30 00:27:57 2010	San Jose, CA (95101) 	61 16 	45 7 	56	S	15		1014.4 29.96 	10	mostly cloudy	
Sat Jan 30 01:12:07 2010	San Jose, CA (95101) 	59 15 	43 6 	55	S	11		1014.2 29.96 	10	mostly cloudy	
Sat Jan 30 01:55:39 2010	San Jose, CA (95101) 	59 15 	43 6 	55	S	11		1014.2 29.96 	10	mostly cloudy	
Sat Jan 30 02:40:18 2010	San Jose, CA (95101) 	57 13 	42 5 	57	S	6		1014.2 29.96 	10	mostly cloudy	
Sat Jan 30 03:23:52 2010	San Jose, CA (95101) 	53 11 	48 8 	83	SSW	3		1015.1 29.98 	4	cloudy	moderate rain 
Sat Jan 30 04:07:47 2010	San Jose, CA (95101) 	52 11 	50 10 	93	ENE	11	48	1014.2 29.96 	5	cloudy	moderate rain 
Sat Jan 30 04:51:33 2010	San Jose, CA (95101) 	52 11 	50 10 	93	ENE	11	48	1014.2 29.96 	5	cloudy	moderate rain 
Sat Jan 30 05:35:14 2010	San Jose, CA (95101) 	52 11 	51 10 	97	ESE	6		1014.5 29.97 	10	cloudy	
Sat Jan 30 06:19:20 2010	San Jose, CA (95101) 	52 11 	51 10 	97	SSE	6		1015.2 29.99 	10	cloudy	
Sat Jan 30 07:05:23 2010	San Jose, CA (95101) 	52 11 	51 10 	97	SE	6		1015.6 30.00 	10	mostly cloudy	
Sat Jan 30 07:48:05 2010	San Jose, CA (95101) 	52 11 	51 10 	97	SE	6		1015.6 30.00 	10	mostly cloudy	
Sat Jan 30 08:31:18 2010	San Jose, CA (95101) 	52 11 	48 8 	86	calm			1015.8 30.01 	10	mostly cloudy	
Sat Jan 30 11:13:04 2010	San Jose, CA (95101) 	49 9 	48 8 	97	calm		49	1016.0 30.01 	9	clear	
Sat Jan 30 12:00:50 2010	San Jose, CA (95101) 	46 7 	45 7 	96	SSE	4	44	1016.1 30.01 	10	clear	
Sat Jan 30 12:44:30 2010	San Jose, CA (95101) 	46 7 	45 7 	96	SSE	4	44	1016.1 30.01 	10	clear	
Sat Jan 30 13:27:45 2010	San Jose, CA (95101) 	46 7 	45 7 	96	E	3	45	1016.2 30.02 	10	clear	
Sat Jan 30 14:11:57 2010	San Jose, CA (95101) 	43 6 	43 6 	100	ESE	4	40	1016.4 30.02 	9	clear	
Sat Jan 30 14:55:59 2010	San Jose, CA (95101) 	43 6 	43 6 	100	ESE	4	40	1016.4 30.02 	9	clear	
Sat Jan 30 15:41:49 2010	San Jose, CA (95101) 	44 6 	43 6 	96	SE	5	41	1016.8 30.03 	0	mostly cloudy	fog 
Sat Jan 30 16:26:49 2010	San Jose, CA (95101) 	45 7 	45 7 	100	calm		45	1017.1 30.04 	0	obscured	fog 
Sat Jan 30 17:11:14 2010	San Jose, CA (95101) 	46 7 	46 7 	100	SE	4	44	1017.5 30.06 	0	obscured	fog 
Sat Jan 30 17:54:27 2010	San Jose, CA (95101) 	46 7 	46 7 	100	SE	4	44	1017.5 30.06 	0	obscured	fog 
Sat Jan 30 18:38:26 2010	San Jose, CA (95101) 	46 7 	46 7 	100	SE	3	45	1017.9 30.07 	2	mostly cloudy	haze 
Sat Jan 30 19:21:45 2010	San Jose, CA (95101) 	49 9 	48 8 	97	calm		49	1018.2 30.08 	10	partly cloudy	
Sat Jan 30 20:05:57 2010	San Jose, CA (95101) 	54 12 	47 8 	77	calm			1018.2 30.08 	10	mostly clear	
Sat Jan 30 20:49:04 2010	San Jose, CA (95101) 	54 12 	47 8 	77	calm			1018.2 30.08 	10	mostly clear	
Sat Jan 30 21:32:52 2010	San Jose, CA (95101) 	56 13 	47 8 	72	calm			1017.9 30.07 	10	partly cloudy	
Sat Jan 30 22:16:07 2010	San Jose, CA (95101) 	57 13 	46 7 	67	WNW	6		1017.2 30.05 	10	partly cloudy	
Sat Jan 30 23:01:38 2010	San Jose, CA (95101) 	60 15 	45 7 	57	WNW	5		1016.5 30.03 	10	partly cloudy	
Sat Jan 30 23:46:25 2010	San Jose, CA (95101) 	60 15 	45 7 	57	WNW	5		1016.5 30.03 	10	partly cloudy	
Sun Jan 31 00:30:20 2010	San Jose, CA (95101) 	59 15 	44 6 	58	WNW	7		1016.0 30.01 	10	partly cloudy	
Sun Jan 31 01:21:09 2010	San Jose, CA (95101) 	58 14 	44 6 	60	NW	8		1016.0 30.01 	10	mostly clear	
Sun Jan 31 02:05:07 2010	San Jose, CA (95101) 	56 13 	45 7 	67	NW	9		1016.1 30.01 	10	mostly clear	
Sun Jan 31 02:48:34 2010	San Jose, CA (95101) 	56 13 	45 7 	67	NW	9		1016.1 30.01 	10	mostly clear	
Sun Jan 31 03:32:26 2010	San Jose, CA (95101) 	53 11 	47 8 	79	NW	5		1016.1 30.01 	10	partly cloudy	
Sun Jan 31 04:15:53 2010	San Jose, CA (95101) 	50 10 	47 8 	89	WNW	7	47	1016.4 30.02 	10	mostly clear	
Sun Jan 31 05:00:25 2010	San Jose, CA (95101) 	50 10 	47 8 	89	NW	5	48	1016.7 30.03 	10	mostly clear	
Sun Jan 31 05:46:30 2010	San Jose, CA (95101) 	50 10 	47 8 	89	NW	5	48	1016.7 30.03 	10	mostly clear	
Sun Jan 31 06:31:43 2010	San Jose, CA (95101) 	49 9 	46 7 	90	NW	3	48	1017.1 30.04 	9	mostly clear	
Sun Jan 31 07:14:38 2010	San Jose, CA (95101) 	49 9 	47 8 	93	calm		49	1017.4 30.05 	9	partly cloudy	
Sun Jan 31 08:01:20 2010	San Jose, CA (95101) 	50 10 	47 8 	89	calm			1017.3 30.05 	10	cloudy	
Sun Jan 31 08:46:02 2010	San Jose, CA (95101) 	50 10 	47 8 	89	calm			1017.3 30.05 	10	cloudy	
Sun Jan 31 09:29:16 2010	San Jose, CA (95101) 	50 10 	47 8 	89	calm			1017.1 30.04 	10	cloudy	
Sun Jan 31 10:12:28 2010	San Jose, CA (95101) 	50 10 	46 7 	86	calm			1016.8 30.03 	10	cloudy	
Sun Jan 31 10:56:13 2010	San Jose, CA (95101) 	50 10 	46 7 	86	calm			1016.8 30.03 	10	cloudy	
Sun Jan 31 11:39:40 2010	San Jose, CA (95101) 	50 10 	46 7 	86	S	3	49	1016.7 30.03 	10	cloudy	
Sun Jan 31 12:23:21 2010	San Jose, CA (95101) 	50 10 	46 7 	86	calm			1016.4 30.02 	10	cloudy	
Sun Jan 31 13:06:44 2010	San Jose, CA (95101) 	50 10 	45 7 	83	E	3	49	1016.4 30.02 	10	cloudy	
Sun Jan 31 13:50:19 2010	San Jose, CA (95101) 	50 10 	45 7 	83	E	3	49	1016.4 30.02 	10	cloudy	
Sun Jan 31 14:33:10 2010	San Jose, CA (95101) 	50 10 	45 7 	83	calm			1016.2 30.02 	10	cloudy	
Sun Jan 31 15:17:17 2010	San Jose, CA (95101) 	49 9 	44 6 	83	calm		49	1016.2 30.02 	10	cloudy	
Sun Jan 31 16:00:41 2010	San Jose, CA (95101) 	50 10 	44 6 	80		3	49	1016.8 30.03 	10	cloudy	
Sun Jan 31 16:50:30 2010	San Jose, CA (95101) 	50 10 	44 6 	80		3	49	1016.8 30.03 	10	cloudy	
Sun Jan 31 17:34:13 2010	San Jose, CA (95101) 	49 9 	43 6 	80	calm		49	1016.7 30.03 	10	mostly cloudy	
Sun Jan 31 18:19:13 2010	San Jose, CA (95101) 	49 9 	44 6 	83	calm		49	1017.0 30.04 	10	mostly cloudy	
Sun Jan 31 19:02:58 2010	San Jose, CA (95101) 	52 11 	45 7 	77	calm			1017.4 30.05 	10	mostly cloudy	
Sun Jan 31 19:48:22 2010	San Jose, CA (95101) 	52 11 	45 7 	77	calm			1017.4 30.05 	10	mostly cloudy	
Sun Jan 31 20:31:20 2010	San Jose, CA (95101) 	53 11 	46 7 	77	calm			1017.4 30.05 	10	partly cloudy	
Sun Jan 31 21:15:33 2010	San Jose, CA (95101) 	57 13 	45 7 	64	calm			1016.4 30.02 	10	partly cloudy	
Sun Jan 31 21:58:47 2010	San Jose, CA (95101) 	57 13 	45 7 	64	calm			1016.4 30.02 	10	partly cloudy	
Sun Jan 31 22:43:35 2010	San Jose, CA (95101) 	57 13 	46 7 	67	WNW	3		1015.5 30.00 	10	mostly cloudy	
Sun Jan 31 23:26:55 2010	San Jose, CA (95101) 	60 15 	46 7 	60	NW	4		1014.7 29.97 	10	mostly cloudy	
Thu Feb 4 00:12:15 2010	San Jose, CA (95101) 	63 17 	45 7 	52	N	4		1008.5 29.79 	10	mostly cloudy	
Thu Feb 4 00:56:20 2010	San Jose, CA (95101) 	63 17 	45 7 	52	N	4		1008.5 29.79 	10	mostly cloudy	
Thu Feb 4 01:39:35 2010	San Jose, CA (95101) 	58 14 	46 7 	64	WNW	10		1009.1 29.81 	10	mostly cloudy	
Thu Feb 4 02:27:20 2010	San Jose, CA (95101) 	58 14 	49 9 	72	NW	11		1009.7 29.83 	10	mostly cloudy	
Thu Feb 4 03:10:28 2010	San Jose, CA (95101) 	56 13 	50 10 	81	WNW	8		1010.2 29.84 	10	cloudy	
Thu Feb 4 03:54:57 2010	San Jose, CA (95101) 	56 13 	50 10 	81	WNW	8		1010.2 29.84 	10	cloudy	
Thu Feb 4 04:38:15 2010	San Jose, CA (95101) 	55 12 	49 9 	80	NW	5		1010.3 29.84 	10	cloudy	
Thu Feb 4 05:21:35 2010	San Jose, CA (95101) 	55 12 	49 9 	80	NW	5		1010.3 29.84 	10	cloudy	
Thu Feb 4 06:04:26 2010	San Jose, CA (95101) 	54 12 	49 9 	83	NW	3		1010.3 29.84 	10	cloudy	
Thu Feb 4 06:47:27 2010	San Jose, CA (95101) 	54 12 	49 9 	83	NW	3		1010.3 29.84 	10	cloudy	
Thu Feb 4 07:31:06 2010	San Jose, CA (95101) 	54 12 	49 9 	83	calm			1010.3 29.84 	10	partly cloudy	
Thu Feb 4 08:13:40 2010	San Jose, CA (95101) 	51 10 	48 8 	89	calm			1010.5 29.85 	10	mostly clear	
Thu Feb 4 08:57:23 2010	San Jose, CA (95101) 	51 10 	48 8 	89	calm			1010.5 29.85 	10	mostly clear	
Thu Feb 4 09:41:18 2010	San Jose, CA (95101) 	51 10 	48 8 	89	S	4		1010.7 29.85 	10	partly cloudy	
Thu Feb 4 10:24:57 2010	San Jose, CA (95101) 	51 10 	48 8 	89	S	3		1010.4 29.85 	10	mostly clear	
Thu Feb 4 11:10:52 2010	San Jose, CA (95101) 	50 10 	47 8 	89	SE	3	49	1010.0 29.83 	10	clear	
Thu Feb 4 11:54:23 2010	San Jose, CA (95101) 	50 10 	47 8 	89	SE	3	49	1010.0 29.83 	10	clear	
Thu Feb 4 12:37:29 2010	San Jose, CA (95101) 	51 10 	47 8 	85	ESE	5	49	1009.9 29.83 	10	clear	
Thu Feb 4 13:21:34 2010	San Jose, CA (95101) 	50 10 	47 8 	89	SE	3	49	1010.3 29.84 	10	clear	
Thu Feb 4 14:06:24 2010	San Jose, CA (95101) 	51 10 	48 8 	89	ESE	6	49	1009.9 29.83 	10	clear	
Thu Feb 4 14:59:08 2010	San Jose, CA (95101) 	51 10 	48 8 	89	ESE	6	49	1009.9 29.83 	10	clear	
Thu Jan 28 15:38:49 2010	San Jose, CA (95101) 	47 8 	45 7 	93	calm		47	1018.3 30.08 	5	cloudy	haze 
Thu Jan 28 15:59:33 2010	San Jose, CA (95101) 	47 8 	45 7 	93	calm		47	1018.3 30.08 	5	cloudy	haze 
Thu Jan 28 16:48:56 2010	San Jose, CA (95101) 	45 7 	44 6 	97	S	3	44	1018.5 30.09 	5	cloudy	haze 
Thu Jan 28 17:13:11 2010	San Jose, CA (95101) 	45 7 	43 6 	93	ESE	4	43	1018.9 30.10 	4	mostly clear	haze 
Thu Jan 28 17:29:10 2010	San Jose, CA (95101) 	45 7 	43 6 	93	ESE	4	43	1018.9 30.10 	4	mostly clear	haze 
Tue Feb 2 00:28:07 2010	San Jose, CA (95101) 	63 17 	45 7 	52	S	5		1011.5 29.88 	10	cloudy	
Tue Feb 2 01:13:45 2010	San Jose, CA (95101) 	59 15 	47 8 	64	NW	7		1011.8 29.89 	10	cloudy	
Tue Feb 2 01:56:54 2010	San Jose, CA (95101) 	59 15 	47 8 	64	NW	7		1011.8 29.89 	10	cloudy	
Tue Feb 2 02:40:56 2010	San Jose, CA (95101) 	56 13 	44 6 	64	NW	8		1012.3 29.90 	10	cloudy	
Tue Feb 2 03:24:28 2010	San Jose, CA (95101) 	54 12 	45 7 	71	WNW	8		1012.6 29.91 	10	cloudy	
Tue Feb 2 04:08:13 2010	San Jose, CA (95101) 	53 11 	46 7 	77	WNW	4		1012.8 29.92 	10	cloudy	
Tue Feb 2 04:51:47 2010	San Jose, CA (95101) 	53 11 	46 7 	77	WNW	4		1012.8 29.92 	10	cloudy	
Tue Feb 2 05:35:10 2010	San Jose, CA (95101) 	52 11 	47 8 	83	W	4		1012.7 29.91 	10	partly cloudy	
Tue Feb 2 06:18:22 2010	San Jose, CA (95101) 	53 11 	47 8 	79	SW	3		1012.8 29.92 	10	partly cloudy	
Tue Feb 2 07:05:35 2010	San Jose, CA (95101) 	52 11 	45 7 	77	calm			1012.7 29.91 	10	partly cloudy	
Tue Feb 2 07:48:35 2010	San Jose, CA (95101) 	52 11 	45 7 	77	calm			1012.7 29.91 	10	partly cloudy	
Tue Feb 2 08:31:48 2010	San Jose, CA (95101) 	51 10 	44 6 	77	calm			1012.9 29.92 	10	mostly cloudy	
Tue Feb 2 09:15:16 2010	San Jose, CA (95101) 	50 10 	44 6 	80	ESE	3	49	1012.8 29.92 	10	mostly cloudy	
Tue Feb 2 09:58:49 2010	San Jose, CA (95101) 	50 10 	44 6 	80	ESE	3	49	1012.8 29.92 	10	mostly cloudy	
Tue Feb 2 10:42:22 2010	San Jose, CA (95101) 	50 10 	45 7 	83	calm			1012.4 29.90 	10	mostly cloudy	
Tue Feb 2 11:26:28 2010	San Jose, CA (95101) 	50 10 	44 6 	80	calm			1012.1 29.90 	10	mostly cloudy	
Tue Feb 2 12:10:27 2010	San Jose, CA (95101) 	48 8 	43 6 	83	E	3	47	1011.8 29.89 	10	partly cloudy	
Tue Feb 2 12:54:23 2010	San Jose, CA (95101) 	48 8 	43 6 	83	E	3	47	1011.8 29.89 	10	partly cloudy	
Tue Feb 2 13:37:42 2010	San Jose, CA (95101) 	48 8 	44 6 	86	calm		48	1011.5 29.88 	10	mostly clear	
Tue Feb 2 14:21:24 2010	San Jose, CA (95101) 	47 8 	43 6 	86	calm		47	1011.2 29.87 	10	mostly cloudy	
Tue Feb 2 15:05:43 2010	San Jose, CA (95101) 	47 8 	43 6 	86	calm		47	1011.2 29.87 	10	mostly cloudy	
Tue Feb 2 15:52:10 2010	San Jose, CA (95101) 	47 8 	43 6 	86	calm		47	1011.2 29.87 	10	mostly cloudy	
Tue Feb 2 16:44:40 2010	San Jose, CA (95101) 	47 8 	43 6 	86	calm		47	1011.4 29.88 	10	mostly cloudy	
Tue Feb 2 17:33:06 2010	San Jose, CA (95101) 	48 8 	44 6 	86	calm		48	1011.5 29.88 	10	mostly cloudy	
Tue Feb 2 18:17:44 2010	San Jose, CA (95101) 	49 9 	45 7 	86	calm		49	1011.8 29.89 	9	mostly cloudy	
Tue Feb 2 19:01:53 2010	San Jose, CA (95101) 	51 10 	46 7 	83	calm			1012.2 29.90 	8	cloudy	
Tue Feb 2 19:51:08 2010	San Jose, CA (95101) 	51 10 	46 7 	83	calm			1012.2 29.90 	8	cloudy	
Tue Feb 2 20:42:27 2010	San Jose, CA (95101) 	55 12 	46 7 	72	calm			1011.6 29.88 	8	mostly cloudy	
Tue Feb 2 21:29:18 2010	San Jose, CA (95101) 	55 12 	46 7 	72	calm			1010.8 29.86 	8	mostly cloudy	
Tue Feb 2 22:17:40 2010	San Jose, CA (95101) 	57 13 	47 8 	69	calm			1010.0 29.83 	8	cloudy	
Tue Feb 2 23:01:57 2010	San Jose, CA (95101) 	58 14 	48 8 	70	calm			1009.7 29.83 	8	cloudy	
Tue Feb 2 23:46:58 2010	San Jose, CA (95101) 	58 14 	48 8 	70	calm			1009.7 29.83 	8	cloudy	
Wed Feb 3 00:31:42 2010	San Jose, CA (95101) 	59 15 	47 8 	64	NW	4		1009.8 29.83 	9	cloudy	
Wed Feb 3 01:18:53 2010	San Jose, CA (95101) 	57 13 	50 10 	77	WNW	5		1010.1 29.84 	9	mostly cloudy	light rain 
Wed Feb 3 02:03:39 2010	San Jose, CA (95101) 	55 12 	49 9 	80	calm			1010.3 29.84 	9	mostly cloudy	light rain 
Wed Feb 3 02:52:22 2010	San Jose, CA (95101) 	55 12 	49 9 	80	calm			1010.3 29.84 	9	mostly cloudy	light rain 
Wed Feb 3 03:39:13 2010	San Jose, CA (95101) 	55 12 	49 9 	80	calm			1010.1 29.84 	10	cloudy	
Wed Feb 3 04:27:22 2010	San Jose, CA (95101) 	55 12 	49 9 	80	calm			1010.4 29.85 	10	cloudy	
Wed Feb 3 05:14:06 2010	San Jose, CA (95101) 	53 11 	49 9 	86	W	5		1010.5 29.85 	10	mostly cloudy	
Wed Feb 3 06:01:58 2010	San Jose, CA (95101) 	52 11 	49 9 	89	calm			1010.5 29.85 	8	mostly clear	
Wed Feb 3 06:48:42 2010	San Jose, CA (95101) 	52 11 	49 9 	89	calm			1010.5 29.85 	8	mostly clear	
Wed Feb 3 07:33:21 2010	San Jose, CA (95101) 	50 10 	48 8 	93	S	3	49	1010.6 29.85 	8	mostly clear	
Wed Feb 3 08:16:31 2010	San Jose, CA (95101) 	50 10 	48 8 	93	ESE	3	49	1010.5 29.85 	9	mostly clear	
Wed Feb 3 09:02:58 2010	San Jose, CA (95101) 	48 8 	46 7 	93	calm		48	1010.7 29.85 	9	mostly clear	
Wed Feb 3 09:46:18 2010	San Jose, CA (95101) 	48 8 	46 7 	93	calm		48	1010.7 29.85 	9	mostly clear	
Wed Feb 3 10:30:09 2010	San Jose, CA (95101) 	47 8 	45 7 	93	calm		47	1010.6 29.85 	10	clear	
Wed Feb 3 11:17:04 2010	San Jose, CA (95101) 	44 6 	44 6 	100	E	4	42	1010.3 29.84 	7	mostly cloudy	
Wed Feb 3 12:01:48 2010	San Jose, CA (95101) 	46 7 	44 6 	93	S	3	45	1010.3 29.84 	10	partly cloudy	
Wed Feb 3 12:45:00 2010	San Jose, CA (95101) 	46 7 	44 6 	93	S	3	45	1010.3 29.84 	10	partly cloudy	
Wed Feb 3 13:28:45 2010	San Jose, CA (95101) 	46 7 	44 6 	93	calm		46	1010.0 29.83 	7	mostly clear	
Wed Feb 3 14:14:51 2010	San Jose, CA (95101) 	45 7 	44 6 	97	calm		45	1010.0 29.83 	6	clear	haze
Wed Feb 3 15:00:45 2010	San Jose, CA (95101) 	44 6 	43 6 	96	ESE	3	43	1011.3 29.87 	7	mostly cloudy	
Wed Feb 3 15:45:40 2010	San Jose, CA (95101) 	44 6 	43 6 	96	ESE	3	43	1011.3 29.87 	7	mostly cloudy	
Wed Feb 3 16:31:31 2010	San Jose, CA (95101) 	45 7 	43 6 	93	SE	3	44	1011.7 29.88 	7	mostly cloudy	
Wed Feb 3 17:18:43 2010	San Jose, CA (95101) 	46 7 	43 6 	89	SE	4	44	1012.2 29.90 	6	partly cloudy	haze 
Wed Feb 3 18:07:00 2010	San Jose, CA (95101) 	49 9 	46 7 	90	ESE	3	48	1012.4 29.90 	10	partly cloudy	
Wed Feb 3 18:50:04 2010	San Jose, CA (95101) 	49 9 	46 7 	90	ESE	3	48	1012.4 29.90 	10	partly cloudy	
Wed Feb 3 19:34:23 2010	San Jose, CA (95101) 	53 11 	47 8 	79	calm			1012.3 29.90 	10	partly cloudy	
Wed Feb 3 20:18:29 2010	San Jose, CA (95101) 	58 14 	47 8 	67	calm			1011.8 29.89 	10	partly cloudy	
Wed Feb 3 21:02:45 2010	San Jose, CA (95101) 	60 15 	47 8 	62	calm			1010.9 29.86 	10	partly cloudy	
Wed Feb 3 21:50:53 2010	San Jose, CA (95101) 	60 15 	47 8 	62	calm			1010.9 29.86 	10	partly cloudy	
Wed Feb 3 22:36:24 2010	San Jose, CA (95101) 	62 16 	47 8 	57	WNW	5		1010.0 29.83 	10	mostly clear	
Wed Feb 3 23:27:20 2010	San Jose, CA (95101) 	62 16 	44 6 	52	NW	4		1008.9 29.80 	10	mostly cloudy	
Sat Jan 30 23:46:37 2010	Seattle, WA (98101)	48 8 	44 6 	86	SE	4	46	1014.8 29.98 	10	cloudy	light rain 
Fri Jan 29 08:41:36 2010	Seattle, WA (98101) 	47 8 	33 0 	58	SE	3	46	1015.7 30.00 	10	clear	
Fri Jan 29 09:25:31 2010	Seattle, WA (98101) 	46 7 	34 1 	63	calm		46	1015.9 30.01 	10	clear	
Fri Jan 29 11:57:33 2010	Seattle, WA (98101) 	44 6 	34 1 	67	calm		44	1014.7 29.97 	10	clear	
Fri Jan 29 12:42:15 2010	Seattle, WA (98101) 	45 7 	35 1 	68	calm		45	1014.3 29.96 	10	mostly cloudy	
Fri Jan 29 13:29:58 2010	Seattle, WA (98101) 	44 6 	36 2 	73	calm		44	1014.5 29.97 	10	mostly cloudy	
Fri Jan 29 14:17:50 2010	Seattle, WA (98101) 	45 7 	38 3 	76	calm		45	1014.4 29.96 	10	mostly cloudy	
Fri Jan 29 15:02:37 2010	Seattle, WA (98101) 	44 6 	37 2 	76	calm		44	1014.7 29.97 	10	mostly clear	
Fri Jan 29 15:48:09 2010	Seattle, WA (98101) 	44 6 	37 2 	76	calm		44	1014.7 29.97 	10	mostly cloudy	
Fri Jan 29 16:35:54 2010	Seattle, WA (98101) 	45 7 	36 2 	70	SE	6	41	1014.3 29.96 	10	mostly cloudy	
Fri Jan 29 17:20:22 2010	Seattle, WA (98101) 	46 7 	36 2 	68	calm		46	1015.1 29.98 	10	cloudy	
Fri Jan 29 18:08:50 2010	Seattle, WA (98101) 	48 8 	38 3 	68	calm		48	1015.4 29.99 	10	cloudy	
Fri Jan 29 18:53:51 2010	Seattle, WA (98101) 	48 8 	38 3 	68	calm		48	1015.4 29.99 	10	cloudy	
Fri Jan 29 19:45:50 2010	Seattle, WA (98101) 	50 10 	37 2 	61	calm			1015.3 29.99 	10	cloudy	
Fri Jan 29 20:43:38 2010	Seattle, WA (98101) 	52 11 	37 2 	56	calm			1015.6 30.00 	10	clear	
Fri Jan 29 21:28:16 2010	Seattle, WA (98101) 	54 12 	37 2 	52	calm			1015.1 29.98 	10	cloudy	
Fri Jan 29 22:14:52 2010	Seattle, WA (98101) 	54 12 	37 2 	52	calm			1014.5 29.97 	10	cloudy	
Fri Jan 29 22:59:47 2010	Seattle, WA (98101) 	54 12 	37 2 	52	calm			1014.5 29.97 	10	cloudy	
Fri Jan 29 23:44:05 2010	Seattle, WA (98101) 	55 12 	37 2 	51	calm			1014.1 29.96 	10	clear	
Mon Feb 1 00:11:03 2010	Seattle, WA (98101) 	50 10 	43 6 	77	S	4	48	1014.8 29.98 	10	cloudy	
Mon Feb 1 00:54:00 2010	Seattle, WA (98101) 	50 10 	43 6 	77	S	4	48	1014.8 29.98 	10	cloudy	
Mon Feb 1 01:40:21 2010	Seattle, WA (98101) 	50 10 	42 5 	74	N	3	49	1014.8 29.98 	10	cloudy	
Mon Feb 1 02:24:17 2010	Seattle, WA (98101) 	50 10 	42 5 	74	calm			1014.8 29.98 	10	mostly cloudy	
Mon Feb 1 03:07:57 2010	Seattle, WA (98101) 	49 9 	42 5 	77	calm		49	1014.7 29.97 	10	cloudy	
Mon Feb 1 03:52:38 2010	Seattle, WA (98101) 	49 9 	42 5 	77	calm		49	1014.7 29.97 	10	cloudy	
Mon Feb 1 04:37:26 2010	Seattle, WA (98101) 	47 8 	43 6 	86	calm		47	1015.0 29.98 	10	mostly cloudy	
Mon Feb 1 05:20:35 2010	Seattle, WA (98101) 	48 8 	43 6 	83	calm		48	1014.9 29.98 	10	cloudy	
Mon Feb 1 06:05:28 2010	Seattle, WA (98101) 	48 8 	43 6 	83	calm		48	1014.9 29.98 	10	cloudy	
Mon Feb 1 06:48:38 2010	Seattle, WA (98101) 	48 8 	43 6 	83	calm		48	1014.9 29.98 	10	cloudy	
Mon Feb 1 07:32:26 2010	Seattle, WA (98101) 	47 8 	43 6 	86	calm		47	1014.7 29.97 	10	mostly cloudy	
Mon Feb 1 08:15:33 2010	Seattle, WA (98101) 	47 8 	43 6 	86	calm		47	1014.6 29.97 	10	cloudy	
Mon Feb 1 08:59:19 2010	Seattle, WA (98101) 	47 8 	43 6 	86	calm		47	1014.6 29.97 	10	cloudy	
Mon Feb 1 09:42:17 2010	Seattle, WA (98101) 	47 8 	43 6 	86	SSE	3	46	1014.3 29.96 	10	cloudy	
Mon Feb 1 10:25:50 2010	Seattle, WA (98101) 	47 8 	43 6 	86	calm		47	1014.1 29.96 	10	mostly cloudy	
Mon Feb 1 11:08:47 2010	Seattle, WA (98101) 	45 7 	41 5 	86	calm		45	1013.8 29.95 	10	partly cloudy	
Mon Feb 1 11:52:14 2010	Seattle, WA (98101) 	45 7 	41 5 	86	calm		45	1013.8 29.95 	10	partly cloudy	
Mon Feb 1 12:35:38 2010	Seattle, WA (98101) 	43 6 	39 3 	86	calm		43	1013.6 29.94 	10	clear	
Mon Feb 1 13:19:09 2010	Seattle, WA (98101) 	42 5 	38 3 	85	calm		42	1013.1 29.93 	3	clear	haze
Mon Feb 1 14:03:01 2010	Seattle, WA (98101) 	40 4 	38 3 	92	calm		40	1012.6 29.91 	10	clear	
Mon Feb 1 14:48:07 2010	Seattle, WA (98101) 	40 4 	38 3 	92	calm		40	1012.6 29.91 	10	clear	
Mon Feb 1 15:31:51 2010	Seattle, WA (98101) 	41 5 	38 3 	89	calm		41	1012.6 29.91 	9	clear	
Mon Feb 1 16:16:18 2010	Seattle, WA (98101) 	40 4 	37 2 	89	calm		40	1012.7 29.91 	10	clear	
Mon Feb 1 17:01:19 2010	Seattle, WA (98101) 	39 3 	37 2 	92	calm		39	1012.3 29.90 	10	mostly cloudy	
Mon Feb 1 17:45:09 2010	Seattle, WA (98101) 	39 3 	37 2 	92	calm		39	1012.3 29.90 	10	mostly cloudy	
Mon Feb 1 18:28:38 2010	Seattle, WA (98101) 	42 5 	39 3 	89	calm		42	1012.2 29.90 	10	partly cloudy	
Mon Feb 1 19:12:25 2010	Seattle, WA (98101) 	44 6 	41 5 	89	calm		44	1012.2 29.90 	10	partly cloudy	
Mon Feb 1 19:57:15 2010	Seattle, WA (98101) 	44 6 	41 5 	89	calm		44	1012.2 29.90 	10	partly cloudy	
Mon Feb 1 20:43:40 2010	Seattle, WA (98101) 	46 7 	41 5 	83	calm		46	1012.3 29.90 	10	cloudy	
Mon Feb 1 21:28:36 2010	Seattle, WA (98101) 	48 8 	41 5 	77	calm		48	1011.9 29.89 	10	cloudy	
Mon Feb 1 22:12:00 2010	Seattle, WA (98101) 	49 9 	39 3 	68	calm		49	1011.0 29.86 	10	partly cloudy	
Mon Feb 1 22:55:19 2010	Seattle, WA (98101) 	49 9 	39 3 	68	calm		49	1011.0 29.86 	10	partly cloudy	
Mon Feb 1 23:41:27 2010	Seattle, WA (98101) 	49 9 	40 4 	71	calm		49	1010.4 29.85 	10	cloudy	
Sat Jan 30 00:28:08 2010	Seattle, WA (98101) 	56 13 	37 2 	49	calm			1014.3 29.96 	10	mostly cloudy	
Sat Jan 30 01:12:18 2010	Seattle, WA (98101) 	54 12 	38 3 	54	calm			1014.4 29.96 	10	cloudy	
Sat Jan 30 01:55:51 2010	Seattle, WA (98101) 	54 12 	38 3 	54	calm			1014.4 29.96 	10	cloudy	
Sat Jan 30 02:40:32 2010	Seattle, WA (98101) 	53 11 	38 3 	56	calm			1014.5 29.97 	10	cloudy	
Sat Jan 30 03:24:04 2010	Seattle, WA (98101) 	52 11 	40 4 	63	calm			1014.6 29.97 	10	cloudy	
Sat Jan 30 04:07:58 2010	Seattle, WA (98101) 	53 11 	40 4 	61	calm			1014.4 29.96 	10	cloudy	
Sat Jan 30 04:51:44 2010	Seattle, WA (98101) 	53 11 	40 4 	61	calm			1014.4 29.96 	10	cloudy	
Sat Jan 30 05:35:27 2010	Seattle, WA (98101) 	51 10 	43 6 	74	N	3		1014.6 29.97 	10	cloudy	
Sat Jan 30 06:19:35 2010	Seattle, WA (98101) 	50 10 	43 6 	77	calm			1015.0 29.98 	10	cloudy	
Sat Jan 30 07:05:34 2010	Seattle, WA (98101) 	49 9 	44 6 	83	calm		49	1015.2 29.99 	10	cloudy	
Sat Jan 30 07:48:16 2010	Seattle, WA (98101) 	49 9 	44 6 	83	calm		49	1015.2 29.99 	10	cloudy	
Sat Jan 30 08:31:28 2010	Seattle, WA (98101) 	49 9 	43 6 	80	SE	4	47	1015.2 29.99 	10	cloudy	light rain 
Sat Jan 30 11:13:15 2010	Seattle, WA (98101) 	46 7 	43 6 	89	SE	3	45	1015.0 29.98 	10	cloudy	light rain 
Sat Jan 30 12:01:03 2010	Seattle, WA (98101) 	46 7 	43 6 	89	S	3	45	1015.0 29.98 	10	cloudy	light rain 
Sat Jan 30 12:44:41 2010	Seattle, WA (98101) 	46 7 	43 6 	89	S	3	45	1015.0 29.98 	10	cloudy	light rain 
Sat Jan 30 13:27:57 2010	Seattle, WA (98101) 	45 7 	42 5 	89	SE	4	43	1014.9 29.98 	9	cloudy	light rain 
Sat Jan 30 14:12:08 2010	Seattle, WA (98101) 	46 7 	42 5 	86	calm		46	1014.8 29.98 	9	cloudy	light rain 
Sat Jan 30 14:56:11 2010	Seattle, WA (98101) 	46 7 	42 5 	86	calm		46	1014.8 29.98 	9	cloudy	light rain 
Sat Jan 30 15:42:01 2010	Seattle, WA (98101) 	45 7 	42 5 	89	calm		45	1014.7 29.97 	10	cloudy	light rain 
Sat Jan 30 16:27:01 2010	Seattle, WA (98101) 	44 6 	42 5 	93	SE	3	43	1014.8 29.98 	10	cloudy	light rain 
Sat Jan 30 17:11:26 2010	Seattle, WA (98101) 	45 7 	42 5 	89	SE	3	44	1015.0 29.98 	10	cloudy	light rain 
Sat Jan 30 17:54:39 2010	Seattle, WA (98101) 	45 7 	42 5 	89	SE	3	44	1015.0 29.98 	10	cloudy	light rain 
Sat Jan 30 18:38:38 2010	Seattle, WA (98101) 	45 7 	43 6 	93	SSE	3	44	1015.2 29.99 	7	cloudy	light rain 
Sat Jan 30 19:21:56 2010	Seattle, WA (98101) 	46 7 	43 6 	89	SSE	4	44	1015.4 29.99 	10	cloudy	
Sat Jan 30 20:06:11 2010	Seattle, WA (98101) 	47 8 	43 6 	86	SE	3	46	1015.6 30.00 	10	cloudy	light rain 
Sat Jan 30 20:49:17 2010	Seattle, WA (98101) 	47 8 	43 6 	86	SE	3	46	1015.6 30.00 	10	cloudy	light rain 
Sat Jan 30 21:33:04 2010	Seattle, WA (98101) 	47 8 	43 6 	86	SSE	3	46	1015.4 29.99 	10	cloudy	
Sat Jan 30 22:16:18 2010	Seattle, WA (98101) 	48 8 	44 6 	86	SE	4	46	1015.1 29.98 	10	cloudy	
Sat Jan 30 23:01:59 2010	Seattle, WA (98101) 	48 8 	44 6 	86	SE	4	46	1014.8 29.98 	10	cloudy	light rain 
Sun Jan 31 00:30:35 2010	Seattle, WA (98101) 	48 8 	44 6 	86	SE	3	47	1014.8 29.98 	10	cloudy	light rain 
Sun Jan 31 01:21:19 2010	Seattle, WA (98101) 	48 8 	44 6 	86	calm		48	1014.9 29.98 	8	cloudy	light rain 
Sun Jan 31 02:05:20 2010	Seattle, WA (98101) 	48 8 	44 6 	86	S	4	46	1014.9 29.98 	10	cloudy	
Sun Jan 31 02:48:46 2010	Seattle, WA (98101) 	48 8 	44 6 	86	S	4	46	1014.9 29.98 	10	cloudy	
Sun Jan 31 03:32:38 2010	Seattle, WA (98101) 	47 8 	43 6 	86	S	3	46	1014.9 29.98 	10	cloudy	
Sun Jan 31 04:16:04 2010	Seattle, WA (98101) 	47 8 	44 6 	90	calm		47	1015.0 29.98 	10	cloudy	
Sun Jan 31 05:00:42 2010	Seattle, WA (98101) 	47 8 	44 6 	90	SE	3	46	1014.9 29.98 	10	cloudy	light rain 
Sun Jan 31 05:46:44 2010	Seattle, WA (98101) 	47 8 	44 6 	90	SE	3	46	1014.9 29.98 	10	cloudy	light rain 
Sun Jan 31 06:31:55 2010	Seattle, WA (98101) 	47 8 	44 6 	90	SE	3	46	1014.9 29.98 	10	cloudy	
Sun Jan 31 07:14:48 2010	Seattle, WA (98101) 	47 8 	44 6 	90	N	3	46	1015.1 29.98 	10	cloudy	
Sun Jan 31 08:01:32 2010	Seattle, WA (98101) 	47 8 	44 6 	90	calm		47	1015.2 29.99 	10	cloudy	
Sun Jan 31 08:46:13 2010	Seattle, WA (98101) 	47 8 	44 6 	90	calm		47	1015.2 29.99 	10	cloudy	
Sun Jan 31 09:29:27 2010	Seattle, WA (98101) 	47 8 	44 6 	90	SSE	3	46	1015.1 29.98 	10	cloudy	
Sun Jan 31 10:12:39 2010	Seattle, WA (98101) 	47 8 	44 6 	90	N	3	46	1015.0 29.98 	10	cloudy	light rain 
Sun Jan 31 10:56:24 2010	Seattle, WA (98101) 	47 8 	44 6 	90	N	3	46	1015.0 29.98 	10	cloudy	light rain 
Sun Jan 31 11:39:52 2010	Seattle, WA (98101) 	47 8 	44 6 	90	S	3	46	1015.0 29.98 	7	cloudy	light rain 
Sun Jan 31 12:23:32 2010	Seattle, WA (98101) 	47 8 	44 6 	90	SE	3	46	1015.1 29.98 	9	cloudy	light rain 
Sun Jan 31 13:06:55 2010	Seattle, WA (98101) 	47 8 	44 6 	90	ESE	4	45	1014.9 29.98 	10	cloudy	light rain 
Sun Jan 31 13:50:33 2010	Seattle, WA (98101) 	47 8 	44 6 	90	ESE	4	45	1014.9 29.98 	10	cloudy	light rain 
Sun Jan 31 14:33:23 2010	Seattle, WA (98101) 	47 8 	44 6 	90	SE	3	46	1015.0 29.98 	8	cloudy	light rain 
Sun Jan 31 15:17:28 2010	Seattle, WA (98101) 	47 8 	44 6 	90	SE	4	45	1015.0 29.98 	10	cloudy	light rain 
Sun Jan 31 16:00:59 2010	Seattle, WA (98101) 	47 8 	44 6 	90	calm		47	1015.2 29.99 	10	cloudy	
Sun Jan 31 16:50:46 2010	Seattle, WA (98101) 	47 8 	44 6 	90	calm		47	1015.2 29.99 	10	cloudy	
Sun Jan 31 17:34:24 2010	Seattle, WA (98101) 	47 8 	43 6 	86	calm		47	1015.4 29.99 	10	cloudy	
Sun Jan 31 18:19:24 2010	Seattle, WA (98101) 	47 8 	43 6 	86	calm		47	1015.7 30.00 	10	cloudy	
Sun Jan 31 19:03:11 2010	Seattle, WA (98101) 	48 8 	44 6 	86	SSW	3	47	1016.0 30.01 	10	cloudy	
Sun Jan 31 19:48:33 2010	Seattle, WA (98101) 	48 8 	44 6 	86	SSW	3	47	1016.0 30.01 	10	cloudy	
Sun Jan 31 20:31:31 2010	Seattle, WA (98101) 	48 8 	44 6 	86	SSE	3	47	1016.2 30.02 	10	mostly cloudy	
Sun Jan 31 21:15:45 2010	Seattle, WA (98101) 	48 8 	44 6 	86	S	5	45	1016.1 30.01 	10	cloudy	
Sun Jan 31 21:58:58 2010	Seattle, WA (98101) 	48 8 	44 6 	86	S	5	45	1016.1 30.01 	10	cloudy	
Sun Jan 31 22:43:46 2010	Seattle, WA (98101) 	49 9 	43 6 	80	SSE	5	47	1015.3 29.99 	10	cloudy	
Sun Jan 31 23:27:07 2010	Seattle, WA (98101) 	50 10 	43 6 	77	SW	4	48	1014.8 29.98 	10	cloudy	
Thu Feb 4 00:12:28 2010	Seattle, WA (98101) 	49 9 	44 6 	83	NE	4	47	1005.8 29.71 	10	mostly cloudy	light rain 
Thu Feb 4 00:56:32 2010	Seattle, WA (98101) 	49 9 	44 6 	83	NE	4	47	1005.8 29.71 	10	mostly cloudy	light rain 
Thu Feb 4 01:39:47 2010	Seattle, WA (98101) 	50 10 	43 6 	77	calm			1005.5 29.70 	10	mostly cloudy	
Thu Feb 4 02:27:32 2010	Seattle, WA (98101) 	50 10 	43 6 	77		3	49	1005.6 29.70 	10	mostly cloudy	
Thu Feb 4 03:10:44 2010	Seattle, WA (98101) 	48 8 	44 6 	86	W	5	45	1006.4 29.73 	10	cloudy	
Thu Feb 4 03:55:10 2010	Seattle, WA (98101) 	48 8 	44 6 	86	W	5	45	1006.4 29.73 	10	cloudy	
Thu Feb 4 04:38:27 2010	Seattle, WA (98101) 	47 8 	44 6 	90	SE	5	44	1007.0 29.75 	6	cloudy	light rain 
Thu Feb 4 05:21:48 2010	Seattle, WA (98101) 	47 8 	44 6 	90	E	3	46	1006.7 29.74 	10	cloudy	
Thu Feb 4 06:04:39 2010	Seattle, WA (98101) 	47 8 	44 6 	90	calm		47	1006.7 29.74 	10	cloudy	
Thu Feb 4 06:47:43 2010	Seattle, WA (98101) 	47 8 	44 6 	90	calm		47	1006.7 29.74 	10	cloudy	
Thu Feb 4 07:31:17 2010	Seattle, WA (98101) 	47 8 	44 6 	90	ESE	4	45	1007.0 29.75 	10	cloudy	light rain 
Thu Feb 4 08:13:51 2010	Seattle, WA (98101) 	46 7 	42 5 	86	calm		46	1007.2 29.75 	10	mostly cloudy	
Thu Feb 4 08:57:33 2010	Seattle, WA (98101) 	46 7 	42 5 	86	calm		46	1007.2 29.75 	10	mostly cloudy	
Thu Feb 4 09:41:28 2010	Seattle, WA (98101) 	44 6 	40 4 	85	calm		44	1007.2 29.75 	10	cloudy	
Thu Feb 4 10:25:08 2010	Seattle, WA (98101) 	45 7 	41 5 	86	calm		45	1007.3 29.75 	10	cloudy	light rain 
Thu Feb 4 11:11:03 2010	Seattle, WA (98101) 	44 6 	41 5 	89	calm		44	1007.3 29.75 	10	cloudy	
Thu Feb 4 11:54:35 2010	Seattle, WA (98101) 	44 6 	41 5 	89	calm		44	1007.3 29.75 	10	cloudy	
Thu Feb 4 12:37:40 2010	Seattle, WA (98101) 	43 6 	40 4 	89	calm		43	1007.4 29.76 	10	mostly cloudy	
Thu Feb 4 13:21:45 2010	Seattle, WA (98101) 	40 4 	38 3 	92	calm		40	1007.4 29.76 	10	mostly cloudy	
Thu Feb 4 14:06:35 2010	Seattle, WA (98101) 	42 5 	40 4 	92	calm		42	1007.1 29.75 	10	mostly cloudy	
Thu Feb 4 14:59:22 2010	Seattle, WA (98101) 	42 5 	40 4 	92	calm		42	1007.1 29.75 	10	mostly cloudy	
Thu Jan 28 15:39:01 2010	Seattle, WA (98101) 	43 6 	40 4 	89	calm		43	1018.3 30.08 	10	cloudy	
Thu Jan 28 15:59:50 2010	Seattle, WA (98101) 	43 6 	40 4 	89	calm		43	1018.3 30.08 	10	cloudy	
Thu Jan 28 16:49:10 2010	Seattle, WA (98101) 	43 6 	39 3 	86	calm		43	1018.0 30.07 	10	cloudy	
Thu Jan 28 17:13:24 2010	Seattle, WA (98101) 	45 7 	40 4 	82	calm		45	1018.0 30.07 	10	cloudy	
Thu Jan 28 17:29:23 2010	Seattle, WA (98101) 	45 7 	40 4 	82	calm		45	1018.0 30.07 	10	cloudy	
Tue Feb 2 00:28:19 2010	Seattle, WA (98101) 	50 10 	39 3 	66	calm			1010.3 29.84 	10	cloudy	
Tue Feb 2 01:13:55 2010	Seattle, WA (98101) 	49 9 	39 3 	68	calm		49	1010.5 29.85 	10	cloudy	light rain 
Tue Feb 2 01:57:04 2010	Seattle, WA (98101) 	49 9 	39 3 	68	calm		49	1010.5 29.85 	10	cloudy	light rain 
Tue Feb 2 02:41:07 2010	Seattle, WA (98101) 	48 8 	42 5 	80	calm		48	1010.6 29.85 	10	cloudy	light rain 
Tue Feb 2 03:24:39 2010	Seattle, WA (98101) 	48 8 	42 5 	80	calm		48	1010.8 29.86 	10	cloudy	light rain 
Tue Feb 2 04:08:26 2010	Seattle, WA (98101) 	47 8 	43 6 	86	S	5	44	1010.7 29.85 	10	cloudy	
Tue Feb 2 04:51:58 2010	Seattle, WA (98101) 	47 8 	43 6 	86	S	5	44	1010.7 29.85 	10	cloudy	
Tue Feb 2 05:35:21 2010	Seattle, WA (98101) 	47 8 	43 6 	86	calm		47	1010.6 29.85 	10	cloudy	
Tue Feb 2 06:18:38 2010	Seattle, WA (98101) 	47 8 	43 6 	86	calm		47	1010.8 29.86 	10	cloudy	
Tue Feb 2 07:05:45 2010	Seattle, WA (98101) 	46 7 	43 6 	89	calm		46	1010.9 29.86 	10	cloudy	light rain 
Tue Feb 2 07:48:46 2010	Seattle, WA (98101) 	46 7 	43 6 	89	calm		46	1010.9 29.86 	10	cloudy	light rain 
Tue Feb 2 08:31:58 2010	Seattle, WA (98101) 	46 7 	43 6 	89	SSE	4	44	1011.3 29.87 	7	cloudy	light rain 
Tue Feb 2 09:15:27 2010	Seattle, WA (98101) 	46 7 	43 6 	89	ESE	4	44	1011.2 29.87 	7	cloudy	light rain 
Tue Feb 2 09:58:59 2010	Seattle, WA (98101) 	46 7 	43 6 	89	ESE	4	44	1011.2 29.87 	7	cloudy	light rain 
Tue Feb 2 10:42:33 2010	Seattle, WA (98101) 	45 7 	43 6 	93	SSE	4	43	1011.3 29.87 	6	cloudy	light rain 
Tue Feb 2 11:26:39 2010	Seattle, WA (98101) 	45 7 	43 6 	93	ESE	5	42	1011.3 29.87 	5	cloudy	light rain 
Tue Feb 2 12:10:40 2010	Seattle, WA (98101) 	45 7 	42 5 	89	SSE	6	41	1011.3 29.87 	10	cloudy	
Tue Feb 2 12:54:35 2010	Seattle, WA (98101) 	45 7 	42 5 	89	SSE	6	41	1011.3 29.87 	10	cloudy	
Tue Feb 2 13:37:52 2010	Seattle, WA (98101) 	45 7 	42 5 	89	SE	6	41	1011.4 29.88 	10	cloudy	
Tue Feb 2 14:21:35 2010	Seattle, WA (98101) 	42 5 	40 4 	92	SE	5	38	1011.2 29.87 	10	mostly cloudy	
Tue Feb 2 15:05:56 2010	Seattle, WA (98101) 	43 6 	41 5 	93	SE	5	39	1011.3 29.87 	10	mostly cloudy	
Tue Feb 2 15:52:21 2010	Seattle, WA (98101) 	43 6 	41 5 	93	SE	5	39	1011.3 29.87 	10	mostly cloudy	
Tue Feb 2 16:44:51 2010	Seattle, WA (98101) 	42 5 	40 4 	92	SE	4	39	1011.4 29.88 	10	mostly cloudy	
Tue Feb 2 17:33:18 2010	Seattle, WA (98101) 	40 4 	38 3 	92	calm		40	1011.8 29.89 	10	partly cloudy	
Tue Feb 2 18:17:54 2010	Seattle, WA (98101) 	44 6 	41 5 	89	N	4	42	1012.1 29.90 	10	partly cloudy	
Tue Feb 2 19:02:05 2010	Seattle, WA (98101) 	46 7 	42 5 	86	calm		46	1012.2 29.90 	10	mostly cloudy	
Tue Feb 2 19:51:25 2010	Seattle, WA (98101) 	46 7 	42 5 	86	calm		46	1012.2 29.90 	10	mostly cloudy	
Tue Feb 2 20:42:38 2010	Seattle, WA (98101) 	48 8 	42 5 	80	SSE	4	46	1012.1 29.90 	10	mostly cloudy	
Tue Feb 2 21:29:30 2010	Seattle, WA (98101) 	50 10 	41 5 	71	S	3	49	1011.4 29.88 	10	mostly cloudy	
Tue Feb 2 22:17:52 2010	Seattle, WA (98101) 	52 11 	39 3 	61	calm			1010.6 29.85 	10	mostly cloudy	
Tue Feb 2 23:02:10 2010	Seattle, WA (98101) 	54 12 	40 4 	59	NE	4		1009.7 29.83 	10	partly cloudy	
Tue Feb 2 23:47:10 2010	Seattle, WA (98101) 	54 12 	40 4 	59	NE	4		1009.7 29.83 	10	partly cloudy	
Wed Feb 3 00:31:54 2010	Seattle, WA (98101) 	55 12 	36 2 	49		4		1009.2 29.81 	10	mostly cloudy	
Wed Feb 3 01:19:04 2010	Seattle, WA (98101) 	54 12 	40 4 	59	NW	3		1009.0 29.80 	10	mostly cloudy	
Wed Feb 3 02:03:52 2010	Seattle, WA (98101) 	52 11 	39 3 	61	NNW	5		1008.6 29.79 	10	mostly cloudy	
Wed Feb 3 02:52:35 2010	Seattle, WA (98101) 	52 11 	39 3 	61	NNW	5		1008.6 29.79 	10	mostly cloudy	
Wed Feb 3 03:39:24 2010	Seattle, WA (98101) 	51 10 	39 3 	63	W	4		1008.4 29.79 	10	clear	
Wed Feb 3 04:27:34 2010	Seattle, WA (98101) 	50 10 	39 3 	66	calm			1008.2 29.78 	10	mostly cloudy	
Wed Feb 3 05:14:22 2010	Seattle, WA (98101) 	49 9 	39 3 	68	calm		49	1007.9 29.77 	10	partly cloudy	
Wed Feb 3 06:02:10 2010	Seattle, WA (98101) 	46 7 	39 3 	76	calm		46	1007.9 29.77 	10	clear	
Wed Feb 3 06:48:55 2010	Seattle, WA (98101) 	46 7 	39 3 	76	calm		46	1007.9 29.77 	10	partly cloudy	
Wed Feb 3 07:33:32 2010	Seattle, WA (98101) 	47 8 	38 3 	71	calm		47	1007.9 29.77 	10	partly cloudy	
Wed Feb 3 08:16:42 2010	Seattle, WA (98101) 	45 7 	37 2 	73	calm		45	1007.8 29.77 	10	clear	
Wed Feb 3 09:03:10 2010	Seattle, WA (98101) 	44 6 	37 2 	76	calm		44	1007.8 29.77 	10	mostly cloudy	
Wed Feb 3 09:46:29 2010	Seattle, WA (98101) 	44 6 	37 2 	76	calm		44	1007.8 29.77 	10	mostly cloudy	
Wed Feb 3 10:30:22 2010	Seattle, WA (98101) 	44 6 	38 3 	79	calm		44	1007.4 29.76 	10	mostly cloudy	
Wed Feb 3 11:17:15 2010	Seattle, WA (98101) 	42 5 	38 3 	85	calm		42	1007.2 29.75 	10	cloudy	
Wed Feb 3 12:02:00 2010	Seattle, WA (98101) 	42 5 	38 3 	85	calm		42	1007.0 29.75 	10	cloudy	
Wed Feb 3 12:45:12 2010	Seattle, WA (98101) 	42 5 	38 3 	85	calm		42	1007.0 29.75 	10	cloudy	
Wed Feb 3 13:28:56 2010	Seattle, WA (98101) 	42 5 	39 3 	89	calm		42	1006.7 29.74 	10	cloudy	
Wed Feb 3 14:15:03 2010	Seattle, WA (98101) 	42 5 	39 3 	89	calm		42	1006.7 29.74 	10	cloudy	
Wed Feb 3 15:01:02 2010	Seattle, WA (98101) 	43 6 	39 3 	86	calm		43	1006.1 29.72 	10	partly cloudy	
Wed Feb 3 15:45:51 2010	Seattle, WA (98101) 	43 6 	39 3 	86	calm		43	1006.1 29.72 	10	partly cloudy	
Wed Feb 3 16:31:43 2010	Seattle, WA (98101) 	42 5 	39 3 	89	calm		42	1006.2 29.72 	10	mostly cloudy	
Wed Feb 3 17:18:56 2010	Seattle, WA (98101) 	45 7 	40 4 	82	calm		45	1006.3 29.72 	10	cloudy	
Wed Feb 3 18:07:13 2010	Seattle, WA (98101) 	46 7 	42 5 	86	calm		46	1007.0 29.75 	10	cloudy	light rain 
Wed Feb 3 18:50:21 2010	Seattle, WA (98101) 	46 7 	42 5 	86	calm		46	1007.0 29.75 	10	cloudy	light rain 
Wed Feb 3 19:34:35 2010	Seattle, WA (98101) 	46 7 	42 5 	86	SSE	5	43	1007.6 29.76 	9	cloudy	light rain 
Wed Feb 3 20:18:41 2010	Seattle, WA (98101) 	45 7 	42 5 	89	SE	3	44	1007.8 29.77 	8	cloudy	light rain 
Wed Feb 3 21:02:58 2010	Seattle, WA (98101) 	45 7 	42 5 	89	calm		45	1007.4 29.76 	5	cloudy	light rain 
Wed Feb 3 21:51:05 2010	Seattle, WA (98101) 	45 7 	42 5 	89	calm		45	1007.4 29.76 	5	cloudy	light rain 
Wed Feb 3 22:36:37 2010	Seattle, WA (98101) 	46 7 	43 6 	89	SSE	4	44	1007.0 29.75 	6	cloudy	light rain 
Wed Feb 3 23:27:31 2010	Seattle, WA (98101) 	47 8 	44 6 	90	calm		47	1006.2 29.72 	9	mostly cloudy	light rain 
Fri Jan 29 08:41:29 2010	Washington, DC (20001) 	24 -4 	15-May	43	NNW	12	12	1027.2 30.34 	10	partly cloudy	
Fri Jan 29 09:25:24 2010	Washington, DC (20001) 	22 -5 	15-Apr	45	NNW	15	8	1027.9 30.36 	10	partly cloudy	
Fri Jan 29 11:57:25 2010	Washington, DC (20001) 	21 -6 	17-Jan	41	NNW	12	8	1029.1 30.40 	10	cloudy	
Fri Jan 29 12:42:08 2010	Washington, DC (20001) 	20 -6 	-0 -17 	41	NNW	12	7	1029.3 30.40 	10	mostly cloudy	
Fri Jan 29 13:29:51 2010	Washington, DC (20001) 	20 -6 	-0 -17 	41	NNW	14	6	1030.3 30.43 	10	mostly cloudy	
Fri Jan 29 14:17:43 2010	Washington, DC (20001) 	20 -6 	-0 -17 	41	NNW	15	5	1030.5 30.44 	10	mostly cloudy	
Fri Jan 29 15:02:29 2010	Washington, DC (20001) 	21 -6 	17-Jan	41	NNW	14	7	1030.9 30.45 	10	cloudy	
Fri Jan 29 15:48:02 2010	Washington, DC (20001) 	21 -6 	17-Jan	41	NNW	14	7	1030.9 30.45 	10	cloudy	
Fri Jan 29 16:35:41 2010	Washington, DC (20001) 	22 -5 	16-Feb	41	NNW	13	9	1031.3 30.46 	10	cloudy	
Fri Jan 29 17:20:12 2010	Washington, DC (20001) 	21 -6 	16-Feb	43	NNW	12	8	1030.9 30.45 	10	cloudy	
Fri Jan 29 18:08:43 2010	Washington, DC (20001) 	23 -5 	17-Jan	38	NW	8	13	1029.9 30.42 	10	cloudy	
Fri Jan 29 18:53:43 2010	Washington, DC (20001) 	23 -5 	17-Jan	38	NW	8	13	1029.9 30.42 	10	cloudy	
Fri Jan 29 19:45:42 2010	Washington, DC (20001) 	24 -4 	16-Feb	38	NW	10	13	1029.4 30.41 	10	cloudy	
Fri Jan 29 20:43:31 2010	Washington, DC (20001) 	25 -3 	16-Feb	36	NNW	8	16	1028.7 30.39 	10	cloudy	
Fri Jan 29 21:28:09 2010	Washington, DC (20001) 	26 -3 	16-Feb	35	NW	8	17	1028.6 30.38 	10	cloudy	
Fri Jan 29 22:14:45 2010	Washington, DC (20001) 	26 -3 	16-Feb	35	NNW	11	15	1028.3 30.37 	10	cloudy	
Fri Jan 29 22:59:40 2010	Washington, DC (20001) 	26 -3 	16-Feb	35	NNW	11	15	1028.3 30.37 	10	cloudy	
Fri Jan 29 23:43:57 2010	Washington, DC (20001) 	26 -3 	17-Jan	33	NW	8	17	1028.1 30.37 	10	cloudy	
Mon Feb 1 00:10:57 2010	Washington, DC (20001) 	32 0 	15-May	31	SSW	5	26	1022.1 30.19 	10	clear	
Mon Feb 1 00:53:54 2010	Washington, DC (20001) 	32 0 	15-May	31	SSW	5	26	1022.1 30.19 	10	clear	
Mon Feb 1 01:40:11 2010	Washington, DC (20001) 	28 -2 	13-Aug	42	SW	7	20	1022.6 30.21 	10	clear	
Mon Feb 1 02:24:09 2010	Washington, DC (20001) 	28 -2 	13-Aug	42	SSW	4	23	1022.6 30.21 	10	clear	
Mon Feb 1 03:07:51 2010	Washington, DC (20001) 	28 -2 	12-Sep	44	SW	4	23	1023.0 30.22 	10	partly cloudy	
Mon Feb 1 03:52:30 2010	Washington, DC (20001) 	28 -2 	12-Sep	44	SW	4	23	1023.0 30.22 	10	partly cloudy	
Mon Feb 1 04:37:18 2010	Washington, DC (20001) 	27 -2 	11-Dec	53	SSW	6	20	1023.1 30.22 	10	mostly clear	
Mon Feb 1 05:20:28 2010	Washington, DC (20001) 	24 -4 	12-Oct	54	calm		24	1023.8 30.24 	10	mostly clear	
Mon Feb 1 06:05:20 2010	Washington, DC (20001) 	24 -4 	11-Nov	57	calm		24	1023.8 30.24 	10	mostly clear	
Mon Feb 1 06:48:30 2010	Washington, DC (20001) 	24 -4 	11-Nov	57	calm		24	1023.8 30.24 	10	mostly clear	
Mon Feb 1 07:32:20 2010	Washington, DC (20001) 	27 -2 	11-Dec	53	calm		27	1024.0 30.25 	10	mostly clear	
Mon Feb 1 08:15:26 2010	Washington, DC (20001) 	21 -6 	13 -10 	70	SW	6	12	1024.7 30.27 	10	clear	
Mon Feb 1 08:59:12 2010	Washington, DC (20001) 	21 -6 	13 -10 	70	SW	6	12	1024.7 30.27 	10	clear	
Mon Feb 1 09:42:11 2010	Washington, DC (20001) 	23 -5 	13 -10 	65	calm		23	1025.2 30.28 	10	clear	
Mon Feb 1 10:25:44 2010	Washington, DC (20001) 	21 -6 	11-Dec	68	calm		21	1025.6 30.29 	10	clear	
Mon Feb 1 11:08:41 2010	Washington, DC (20001) 	21 -6 	13 -10 	70	calm		21	1026.5 30.32 	10	clear	
Mon Feb 1 11:52:07 2010	Washington, DC (20001) 	21 -6 	13 -10 	70	calm		21	1026.5 30.32 	10	clear	
Mon Feb 1 12:35:28 2010	Washington, DC (20001) 	24 -4 	11-Nov	57	NNW	7	15	1027.0 30.34 	10	clear	
Mon Feb 1 13:19:02 2010	Washington, DC (20001) 	27 -2 	12-Oct	48	NW	11	16	1027.7 30.36 	10	partly cloudy	
Mon Feb 1 14:02:54 2010	Washington, DC (20001) 	27 -2 	12-Oct	48	NNW	6	20	1028.7 30.39 	10	mostly cloudy	
Mon Feb 1 14:48:00 2010	Washington, DC (20001) 	27 -2 	12-Oct	48	NNW	6	20	1028.7 30.39 	10	mostly cloudy	
Mon Feb 1 15:31:44 2010	Washington, DC (20001) 	29 -1 	11-Dec	49	NNW	9	20	1028.6 30.38 	10	mostly cloudy	
Mon Feb 1 16:16:11 2010	Washington, DC (20001) 	31 0 	11-Dec	45	NNW	6	24	1028.9 30.39 	10	mostly cloudy	
Mon Feb 1 17:01:04 2010	Washington, DC (20001) 	32 0 	11-Dec	43	N	9	24	1028.7 30.39 	10	mostly cloudy	
Mon Feb 1 17:45:01 2010	Washington, DC (20001) 	32 0 	11-Dec	43	N	9	24	1028.7 30.39 	10	mostly cloudy	
Mon Feb 1 18:28:31 2010	Washington, DC (20001) 	34 1 	11-Dec	40	WNW	4	30	1028.6 30.38 	10	cloudy	
Mon Feb 1 19:12:18 2010	Washington, DC (20001) 	35 1 	11-Dec	38	WNW	12	26	1027.9 30.36 	10	cloudy	
Mon Feb 1 19:57:08 2010	Washington, DC (20001) 	35 1 	11-Dec	38	WNW	12	26	1027.9 30.36 	10	cloudy	
Mon Feb 1 20:43:34 2010	Washington, DC (20001) 	37 2 	13 -10 	37	WNW	7	31	1026.8 30.33 	10	cloudy	
Mon Feb 1 21:28:28 2010	Washington, DC (20001) 	38 3 	11-Dec	34	W	7	32	1026.2 30.31 	10	cloudy	
Mon Feb 1 22:11:53 2010	Washington, DC (20001) 	39 3 	11-Dec	32	WNW	6	34	1026.3 30.32 	10	mostly cloudy	
Mon Feb 1 22:55:12 2010	Washington, DC (20001) 	39 3 	11-Dec	32	WNW	6	34	1026.3 30.32 	10	mostly cloudy	
Mon Feb 1 23:41:20 2010	Washington, DC (20001) 	39 3 	11-Dec	32	W	5	35	1026.3 30.32 	10	mostly cloudy	
Sat Jan 30 00:28:01 2010	Washington, DC (20001) 	26 -3 	17-Jan	33	NNW	9	16	1028.3 30.37 	10	cloudy	
Sat Jan 30 01:12:11 2010	Washington, DC (20001) 	26 -3 	17-Jan	33	WNW	10	16	1028.5 30.38 	10	cloudy	
Sat Jan 30 01:55:44 2010	Washington, DC (20001) 	26 -3 	17-Jan	33	WNW	10	16	1028.5 30.38 	10	cloudy	
Sat Jan 30 02:40:24 2010	Washington, DC (20001) 	25 -3 	17-Jan	35	NNW	12	13	1028.6 30.38 	10	mostly cloudy	
Sat Jan 30 03:23:57 2010	Washington, DC (20001) 	25 -3 	17-Jan	35	N	13	13	1028.6 30.38 	10	cloudy	
Sat Jan 30 04:07:51 2010	Washington, DC (20001) 	24 -4 	-0 -17 	34	NNW	15	11	1028.7 30.39 	10	cloudy	
Sat Jan 30 04:51:38 2010	Washington, DC (20001) 	24 -4 	-0 -17 	34	NNW	15	11	1028.7 30.39 	10	cloudy	
Sat Jan 30 05:35:19 2010	Washington, DC (20001) 	23 -5 	17-Jan	38	NNW	10	12	1028.9 30.39 	10	cloudy	
Sat Jan 30 06:19:27 2010	Washington, DC (20001) 	23 -5 	17-Jan	38	NNW	10	12	1028.7 30.39 	10	cloudy	
Sat Jan 30 07:05:27 2010	Washington, DC (20001) 	22 -5 	17-Jan	39	NW	12	9	1028.3 30.37 	10	cloudy	
Sat Jan 30 07:48:10 2010	Washington, DC (20001) 	22 -5 	17-Jan	39	NW	12	9	1028.3 30.37 	10	cloudy	
Sat Jan 30 08:31:22 2010	Washington, DC (20001) 	22 -5 	16-Feb	41	NNW	7	13	1027.8 30.36 	10	cloudy	
Sat Jan 30 11:13:08 2010	Washington, DC (20001) 	22 -5 	16-Feb	41	N	7	13	1025.9 30.30 	10	cloudy	
Sat Jan 30 12:00:56 2010	Washington, DC (20001) 	22 -5 	16-Feb	41	NNE	10	10	1025.6 30.29 	10	cloudy	
Sat Jan 30 12:44:34 2010	Washington, DC (20001) 	22 -5 	16-Feb	41	NNE	10	10	1025.6 30.29 	10	cloudy	
Sat Jan 30 13:27:50 2010	Washington, DC (20001) 	22 -5 	16-Feb	41	NNE	9	11	1025.1 30.28 	10	cloudy	
Sat Jan 30 14:12:01 2010	Washington, DC (20001) 	22 -5 	16-Mar	43	NNE	10	10	1024.1 30.25 	10	cloudy	
Sat Jan 30 14:56:04 2010	Washington, DC (20001) 	22 -5 	16-Mar	43	NNE	10	10	1024.1 30.25 	10	cloudy	
Sat Jan 30 15:41:54 2010	Washington, DC (20001) 	22 -5 	16-Mar	43	NE	8	12	1024.5 30.26 	10	cloudy	
Sat Jan 30 16:26:54 2010	Washington, DC (20001) 	20 -6 	11-Dec	71	NE	9	9	1024.3 30.26 	1	obscured	light snow 
Sat Jan 30 17:11:19 2010	Washington, DC (20001) 	18 -7 	13 -10 	80	NNE	7	8	1025.0 30.28 	0	obscured	moderate snow 
Sat Jan 30 17:54:31 2010	Washington, DC (20001) 	18 -7 	13 -10 	80	NNE	7	8	1025.0 30.28 	0	obscured	moderate snow 
Sat Jan 30 18:38:31 2010	Washington, DC (20001) 	19 -7 	13 -10 	77	N	12	6	1023.7 30.24 	0	obscured	moderate snow 
Sat Jan 30 19:21:49 2010	Washington, DC (20001) 	19 -7 	13 -10 	77	NNE	10	7	1022.4 30.20 	0	cloudy	moderate snow 
Sat Jan 30 20:06:04 2010	Washington, DC (20001) 	19 -7 	11-Dec	74	N	13	5	1020.9 30.16 	1	cloudy	light snow 
Sat Jan 30 20:49:09 2010	Washington, DC (20001) 	19 -7 	11-Dec	74	N	13	5	1020.9 30.16 	1	cloudy	light snow 
Sat Jan 30 21:32:57 2010	Washington, DC (20001) 	18 -7 	11-Dec	77	NNE	14	3	1020.1 30.13 	1	cloudy	light snow 
Sat Jan 30 22:16:11 2010	Washington, DC (20001) 	18 -7 	11-Dec	77	NNE	17	2	1018.7 30.09 	1	cloudy	light snow 
Sat Jan 30 23:01:47 2010	Washington, DC (20001) 	18 -7 	11-Dec	77	NNE	14	3	1018.5 30.09 	1	obscured	light snow 
Sat Jan 30 23:46:29 2010	Washington, DC (20001) 	18 -7 	11-Dec	77	NNE	14	3	1018.5 30.09 	1	obscured	light snow 
Sun Jan 31 00:30:26 2010	Washington, DC (20001) 	18 -7 	11-Nov	73	N	15	3	1018.1 30.07 	4	cloudy	light snow 
Sun Jan 31 01:21:13 2010	Washington, DC (20001) 	18 -7 	11-Nov	73	N	13	4	1018.0 30.07 	5	cloudy	light snow 
Sun Jan 31 02:05:11 2010	Washington, DC (20001) 	19 -7 	11-Dec	74	N	15	4	1017.9 30.07 	2	cloudy	light snow 
Sun Jan 31 02:48:39 2010	Washington, DC (20001) 	19 -7 	11-Dec	74	N	15	4	1017.9 30.07 	2	cloudy	light snow 
Sun Jan 31 03:32:30 2010	Washington, DC (20001) 	19 -7 	11-Nov	70	N	16	4	1017.6 30.06 	3	cloudy	light snow 
Sun Jan 31 04:15:58 2010	Washington, DC (20001) 	19 -7 	12-Oct	67	N	15	4	1017.5 30.06 	5	cloudy	light snow 
Sun Jan 31 05:00:31 2010	Washington, DC (20001) 	18 -7 	12-Oct	70	NNW	12	4	1017.5 30.06 	2	cloudy	light snow 
Sun Jan 31 05:46:36 2010	Washington, DC (20001) 	18 -7 	12-Oct	70	NNW	12	4	1017.5 30.06 	2	cloudy	light snow 
Sun Jan 31 06:31:48 2010	Washington, DC (20001) 	18 -7 	11-Nov	73	NNW	11	5	1017.7 30.06 	2	cloudy	light snow 
Sun Jan 31 07:14:42 2010	Washington, DC (20001) 	19 -7 	13-Jul	59	NW	8	8	1017.6 30.06 	8	cloudy	
Sun Jan 31 08:01:25 2010	Washington, DC (20001) 	20 -6 	15-May	52	NNW	13	6	1017.9 30.07 	10	cloudy	
Sun Jan 31 08:46:06 2010	Washington, DC (20001) 	20 -6 	15-May	52	NNW	13	6	1017.9 30.07 	10	cloudy	
Sun Jan 31 09:29:20 2010	Washington, DC (20001) 	20 -6 	15-Apr	49	NNW	12	7	1018.1 30.07 	10	cloudy	
Sun Jan 31 10:12:32 2010	Washington, DC (20001) 	19 -7 	15-Apr	51	NNW	11	6	1018.8 30.09 	10	partly cloudy	
Sun Jan 31 10:56:17 2010	Washington, DC (20001) 	19 -7 	15-Apr	51	NNW	11	6	1018.8 30.09 	10	partly cloudy	
Sun Jan 31 11:39:45 2010	Washington, DC (20001) 	17 -8 	16-Mar	53	NNW	9	5	1019.9 30.13 	10	partly cloudy	
Sun Jan 31 12:23:25 2010	Washington, DC (20001) 	17 -8 	16-Feb	51	NNW	9	5	1020.9 30.16 	10	mostly cloudy	
Sun Jan 31 13:06:48 2010	Washington, DC (20001) 	16 -8 	16-Feb	53	NNW	11	2	1021.7 30.18 	10	mostly cloudy	
Sun Jan 31 13:50:25 2010	Washington, DC (20001) 	16 -8 	16-Feb	53	NNW	11	2	1021.7 30.18 	10	mostly cloudy	
Sun Jan 31 14:33:15 2010	Washington, DC (20001) 	17 -8 	17-Jan	48	NW	10	4	1022.7 30.21 	10	mostly cloudy	
Sun Jan 31 15:17:21 2010	Washington, DC (20001) 	19 -7 	16-Feb	47	NNW	12	6	1022.9 30.22 	10	mostly clear	
Sun Jan 31 16:00:49 2010	Washington, DC (20001) 	22 -5 	17-Jan	39	NW	7	13	1023.7 30.24 	10	clear	
Sun Jan 31 16:50:36 2010	Washington, DC (20001) 	22 -5 	17-Jan	39	NW	7	13	1023.7 30.24 	10	clear	
Sun Jan 31 17:34:17 2010	Washington, DC (20001) 	24 -4 	-0 -17 	34	NW	11	13	1024.2 30.25 	10	clear	
Sun Jan 31 18:19:17 2010	Washington, DC (20001) 	25 -3 	17-Jan	35	NNW	11	14	1024.0 30.25 	10	clear	
Sun Jan 31 19:03:04 2010	Washington, DC (20001) 	28 -2 	16-Mar	34	WNW	7	20	1023.2 30.22 	10	clear	
Sun Jan 31 19:48:26 2010	Washington, DC (20001) 	28 -2 	16-Mar	34	WNW	7	20	1023.2 30.22 	10	clear	
Sun Jan 31 20:31:24 2010	Washington, DC (20001) 	30 -1 	16-Mar	31	N	5	24	1022.3 30.20 	10	clear	
Sun Jan 31 21:15:37 2010	Washington, DC (20001) 	31 0 	16-Mar	30	calm		31	1022.3 30.20 	10	clear	
Sun Jan 31 21:58:52 2010	Washington, DC (20001) 	31 0 	16-Mar	30	calm		31	1022.3 30.20 	10	clear	
Sun Jan 31 22:43:40 2010	Washington, DC (20001) 	33 0 	15-May	30	WNW	7	26	1022.0 30.19 	10	clear	
Sun Jan 31 23:27:00 2010	Washington, DC (20001) 	33 0 	16-Mar	27	W	4	29	1021.7 30.18 	10	clear	
Thu Feb 4 00:12:20 2010	Washington, DC (20001) 	40 4 	28 -2 	62	WNW	7	34	1021.7 30.18 	10	mostly cloudy	
Thu Feb 4 00:56:25 2010	Washington, DC (20001) 	40 4 	28 -2 	62	WNW	7	34	1021.7 30.18 	10	mostly cloudy	
Thu Feb 4 01:39:39 2010	Washington, DC (20001) 	40 4 	27 -2 	60	WNW	6	35	1022.6 30.21 	10	mostly cloudy	
Thu Feb 4 02:27:25 2010	Washington, DC (20001) 	40 4 	27 -2 	60	W	5	36	1023.6 30.24 	10	cloudy	
Thu Feb 4 03:10:34 2010	Washington, DC (20001) 	38 3 	27 -2 	64	NNW	5	33	1024.0 30.25 	10	partly cloudy	
Thu Feb 4 03:55:03 2010	Washington, DC (20001) 	38 3 	27 -2 	64	NNW	5	33	1024.0 30.25 	10	partly cloudy	
Thu Feb 4 04:38:20 2010	Washington, DC (20001) 	37 2 	26 -3 	64	NW	6	32	1024.9 30.27 	10	mostly cloudy	
Thu Feb 4 05:21:40 2010	Washington, DC (20001) 	38 3 	26 -3 	62	W	5	33	1025.1 30.28 	10	cloudy	
Thu Feb 4 06:04:31 2010	Washington, DC (20001) 	38 3 	25 -3 	59	NW	6	33	1025.3 30.29 	10	partly cloudy	
Thu Feb 4 06:47:34 2010	Washington, DC (20001) 	38 3 	25 -3 	59	NW	6	33	1025.3 30.29 	10	partly cloudy	
Thu Feb 4 07:31:11 2010	Washington, DC (20001) 	36 2 	21 -6 	54	NW	8	29	1025.7 30.30 	10	mostly clear	
Thu Feb 4 08:13:44 2010	Washington, DC (20001) 	35 1 	20 -6 	53	NW	9	27	1026.4 30.32 	10	partly cloudy	
Thu Feb 4 08:57:27 2010	Washington, DC (20001) 	35 1 	20 -6 	53	NW	9	27	1026.4 30.32 	10	partly cloudy	
Thu Feb 4 09:41:22 2010	Washington, DC (20001) 	33 0 	20 -6 	58	NNW	7	26	1027.0 30.34 	10	partly cloudy	
Thu Feb 4 10:25:01 2010	Washington, DC (20001) 	33 0 	19 -7 	56	NNW	9	25	1027.0 30.34 	10	clear	
Thu Feb 4 11:10:56 2010	Washington, DC (20001) 	32 0 	18 -7 	56	NNW	9	24	1028.3 30.37 	10	clear	
Thu Feb 4 11:54:28 2010	Washington, DC (20001) 	32 0 	18 -7 	56	NNW	9	24	1028.3 30.37 	10	clear	
Thu Feb 4 12:37:34 2010	Washington, DC (20001) 	32 0 	17 -8 	54	N	8	24	1029.0 30.40 	10	clear	
Thu Feb 4 13:21:38 2010	Washington, DC (20001) 	32 0 	17 -8 	54	NNW	10	23	1029.3 30.40 	10	mostly clear	
Thu Feb 4 14:06:28 2010	Washington, DC (20001) 	32 0 	17 -8 	54	NNW	7	25	1029.7 30.42 	10	partly cloudy	
Thu Feb 4 14:59:14 2010	Washington, DC (20001) 	32 0 	17 -8 	54	NNW	7	25	1029.7 30.42 	10	partly cloudy	
Thu Jan 28 15:38:53 2010	Washington, DC (20001) 	39 3 	24 -4 	55	SSW	10	32	1018.7 30.09 	10	cloudy	
Thu Jan 28 15:59:39 2010	Washington, DC (20001) 	39 3 	24 -4 	55	SSW	10	32	1018.7 30.09 	10	cloudy	
Thu Jan 28 16:49:01 2010	Washington, DC (20001) 	40 4 	24 -4 	53	SSW	11	32	1018.0 30.07 	10	cloudy	
Thu Jan 28 17:13:16 2010	Washington, DC (20001) 	44 6 	24 -4 	45	SSW	12	37	1017.1 30.04 	10	cloudy	
Thu Jan 28 17:29:15 2010	Washington, DC (20001) 	44 6 	24 -4 	45	SSW	12	37	1017.1 30.04 	10	cloudy	
Tue Feb 2 00:28:12 2010	Washington, DC (20001) 	38 3 	11-Dec	34	W	4	34	1026.1 30.31 	10	mostly cloudy	
Tue Feb 2 01:13:49 2010	Washington, DC (20001) 	35 1 	17 -8 	47	N	4	31	1026.0 30.31 	10	partly cloudy	
Tue Feb 2 01:56:58 2010	Washington, DC (20001) 	35 1 	17 -8 	47	N	4	31	1026.0 30.31 	10	partly cloudy	
Tue Feb 2 02:41:01 2010	Washington, DC (20001) 	33 0 	19 -7 	56	SSE	3	30	1026.1 30.31 	10	mostly cloudy	
Tue Feb 2 03:24:32 2010	Washington, DC (20001) 	34 1 	19 -7 	54	calm		34	1026.4 30.32 	10	mostly cloudy	
Tue Feb 2 04:08:19 2010	Washington, DC (20001) 	32 0 	20 -6 	61	S	3	29	1026.1 30.31 	10	mostly cloudy	
Tue Feb 2 04:51:51 2010	Washington, DC (20001) 	32 0 	20 -6 	61	S	3	29	1026.1 30.31 	10	mostly cloudy	
Tue Feb 2 05:35:15 2010	Washington, DC (20001) 	31 0 	21 -6 	66	calm		31	1025.8 30.30 	10	mostly cloudy	
Tue Feb 2 06:18:29 2010	Washington, DC (20001) 	31 0 	21 -6 	66	calm		31	1025.5 30.29 	10	mostly cloudy	
Tue Feb 2 07:05:39 2010	Washington, DC (20001) 	29 -1 	19 -7 	66		4	24	1024.8 30.27 	10	mostly cloudy	
Tue Feb 2 07:48:40 2010	Washington, DC (20001) 	29 -1 	19 -7 	66		4	24	1024.8 30.27 	10	mostly cloudy	
Tue Feb 2 08:31:52 2010	Washington, DC (20001) 	28 -2 	19 -7 	69		4	23	1024.5 30.26 	10	mostly cloudy	
Tue Feb 2 09:15:20 2010	Washington, DC (20001) 	28 -2 	18 -7 	66	ENE	4	23	1024.5 30.26 	10	mostly cloudy	
Tue Feb 2 09:58:53 2010	Washington, DC (20001) 	28 -2 	18 -7 	66	ENE	4	23	1024.5 30.26 	10	mostly cloudy	
Tue Feb 2 10:42:26 2010	Washington, DC (20001) 	27 -2 	20 -6 	74		3	23	1024.9 30.27 	10	mostly cloudy	
Tue Feb 2 11:26:33 2010	Washington, DC (20001) 	27 -2 	19 -7 	71	NE	6	20	1024.5 30.26 	10	mostly cloudy	
Tue Feb 2 12:10:32 2010	Washington, DC (20001) 	28 -2 	20 -6 	71	NE	5	22	1023.7 30.24 	10	cloudy	
Tue Feb 2 12:54:28 2010	Washington, DC (20001) 	28 -2 	20 -6 	71	NE	5	22	1023.7 30.24 	10	cloudy	
Tue Feb 2 13:37:46 2010	Washington, DC (20001) 	28 -2 	21 -6 	75	calm		28	1023.8 30.24 	10	cloudy	
Tue Feb 2 14:21:28 2010	Washington, DC (20001) 	30 -1 	21 -6 	69	calm		30	1024.2 30.25 	10	cloudy	
Tue Feb 2 15:05:49 2010	Washington, DC (20001) 	30 -1 	24 -4 	78		5	24	1024.2 30.25 	10	cloudy	
Tue Feb 2 15:52:15 2010	Washington, DC (20001) 	30 -1 	24 -4 	78		5	24	1024.2 30.25 	10	cloudy	
Tue Feb 2 16:44:45 2010	Washington, DC (20001) 	33 0 	24 -4 	69	NNE	4	29	1023.4 30.23 	9	cloudy	
Tue Feb 2 17:33:11 2010	Washington, DC (20001) 	35 1 	23 -5 	61	calm		35	1023.1 30.22 	10	cloudy	
Tue Feb 2 18:17:48 2010	Washington, DC (20001) 	36 2 	21 -6 	54	calm		36	1022.6 30.21 	10	cloudy	
Tue Feb 2 19:01:58 2010	Washington, DC (20001) 	37 2 	22 -5 	54	calm		37	1021.5 30.17 	10	cloudy	
Tue Feb 2 19:51:13 2010	Washington, DC (20001) 	37 2 	22 -5 	54	calm		37	1021.5 30.17 	10	cloudy	
Tue Feb 2 20:42:32 2010	Washington, DC (20001) 	40 4 	21 -6 	46	calm		40	1020.8 30.15 	10	cloudy	
Tue Feb 2 21:29:23 2010	Washington, DC (20001) 	41 5 	21 -6 	44	calm		41	1020.0 30.13 	10	cloudy	
Tue Feb 2 22:17:46 2010	Washington, DC (20001) 	40 4 	22 -5 	48	ESE	7	34	1019.9 30.13 	10	cloudy	
Tue Feb 2 23:02:02 2010	Washington, DC (20001) 	38 3 	27 -2 	64	E	6	33	1019.9 30.13 	10	cloudy	
Tue Feb 2 23:47:03 2010	Washington, DC (20001) 	38 3 	27 -2 	64	E	6	33	1019.9 30.13 	10	cloudy	
Wed Feb 3 00:31:47 2010	Washington, DC (20001) 	37 2 	28 -2 	70	NE	8	30	1019.7 30.12 	10	cloudy	light snow 
Wed Feb 3 01:18:57 2010	Washington, DC (20001) 	34 1 	28 -2 	78	NE	7	27	1019.9 30.13 	2	cloudy	light snow 
Wed Feb 3 02:03:45 2010	Washington, DC (20001) 	33 0 	30 -1 	88	NNE	5	28	1019.5 30.11 	1	cloudy	light snow 
Wed Feb 3 02:52:28 2010	Washington, DC (20001) 	33 0 	30 -1 	88	NNE	5	28	1019.5 30.11 	1	cloudy	light snow 
Wed Feb 3 03:39:18 2010	Washington, DC (20001) 	33 0 	30 -1 	88	NNE	6	27	1019.2 30.11 	2	cloudy	light snow 
Wed Feb 3 04:27:27 2010	Washington, DC (20001) 	32 0 	30 -1 	92	N	5	26	1019.1 30.10 	1	cloudy	light snow 
Wed Feb 3 05:14:12 2010	Washington, DC (20001) 	33 0 	30 -1 	88	NNE	4	29	1018.6 30.09 	1	cloudy	light snow 
Wed Feb 3 06:02:03 2010	Washington, DC (20001) 	32 0 	29 -1 	88	N	5	26	1018.1 30.07 	1	cloudy	light snow 
Wed Feb 3 06:48:48 2010	Washington, DC (20001) 	32 0 	29 -1 	88	N	5	26	1018.1 30.07 	1	cloudy	light snow 
Wed Feb 3 07:33:25 2010	Washington, DC (20001) 	32 0 	30 -1 	92	N	5	26	1017.6 30.06 	1	cloudy	light snow 
Wed Feb 3 08:16:35 2010	Washington, DC (20001) 	32 0 	29 -1 	88	N	5	26	1017.7 30.06 	2	cloudy	light snow 
Wed Feb 3 09:03:02 2010	Washington, DC (20001) 	33 0 	29 -1 	84	NNE	4	29	1017.6 30.06 	2	cloudy	light snow 
Wed Feb 3 09:46:22 2010	Washington, DC (20001) 	33 0 	29 -1 	84	NNE	4	29	1017.6 30.06 	2	cloudy	light snow 
Wed Feb 3 10:30:14 2010	Washington, DC (20001) 	32 0 	29 -1 	88	N	3	29	1017.6 30.06 	4	cloudy	light snow 
Wed Feb 3 11:17:08 2010	Washington, DC (20001) 	32 0 	29 -1 	88	NNW	7	25	1018.0 30.07 	4	cloudy	light snow 
Wed Feb 3 12:01:53 2010	Washington, DC (20001) 	33 0 	29 -1 	84	N	3	30	1018.4 30.08 	4	cloudy	haze 
Wed Feb 3 12:45:05 2010	Washington, DC (20001) 	33 0 	29 -1 	84	N	3	30	1018.4 30.08 	4	cloudy	haze 
Wed Feb 3 13:28:50 2010	Washington, DC (20001) 	33 0 	29 -1 	84	calm		33	1019.0 30.10 	4	cloudy	haze 
Wed Feb 3 14:14:55 2010	Washington, DC (20001) 	33 0 	29 -1 	84	calm		33	1019.7 30.12 	3	cloudy	haze 
Wed Feb 3 15:00:52 2010	Washington, DC (20001) 	33 0 	29 -1 	84	W	3	30	1020.3 30.14 	2	cloudy	haze 
Wed Feb 3 15:45:44 2010	Washington, DC (20001) 	33 0 	29 -1 	84	W	3	30	1020.3 30.14 	2	cloudy	haze 
Wed Feb 3 16:31:36 2010	Washington, DC (20001) 	34 1 	30 -1 	85	N	5	29	1020.3 30.14 	3	cloudy	haze 
Wed Feb 3 17:18:48 2010	Washington, DC (20001) 	35 1 	29 -1 	78	N	4	31	1020.1 30.13 	4	mostly cloudy	haze 
Wed Feb 3 18:07:05 2010	Washington, DC (20001) 	38 3 	30 -1 	73	W	7	32	1020.4 30.14 	7	mostly cloudy	
Wed Feb 3 18:50:11 2010	Washington, DC (20001) 	38 3 	30 -1 	73	W	7	32	1020.4 30.14 	7	mostly cloudy	
Wed Feb 3 19:34:28 2010	Washington, DC (20001) 	41 5 	31 0 	67	WNW	5	37	1019.7 30.12 	6	partly cloudy	haze 
Wed Feb 3 20:18:34 2010	Washington, DC (20001) 	42 5 	30 -1 	62	NW	9	36	1019.4 30.11 	10	partly cloudy	
Wed Feb 3 21:02:51 2010	Washington, DC (20001) 	41 5 	29 -1 	62	WNW	8	35	1020.0 30.13 	10	cloudy	
Wed Feb 3 21:50:58 2010	Washington, DC (20001) 	41 5 	29 -1 	62	WNW	8	35	1020.0 30.13 	10	cloudy	
Wed Feb 3 22:36:31 2010	Washington, DC (20001) 	41 5 	29 -1 	62	W	7	36	1020.5 30.14 	10	cloudy	
Wed Feb 3 23:27:25 2010	Washington, DC (20001) 	41 5 	29 -1 	62	NW	7	36	1021.1 30.16 	10	cloudy	
